<?xml version="1.0" encoding="UTF-8"?>
<gpx version="1.1" creator="https://www.youtrack.es" xsi:schemaLocation="http://www.topografix.com/GPX/1/1 http://www.topografix.com/GPX/1/1/gpx.xsd http://www.garmin.com/xmlschemas/GpxExtensions/v3 http://www.garmin.com/xmlschemas/GpxExtensionsv3.xsd http://www.garmin.com/xmlschemas/TrackPointExtension/v1 http://www.garmin.com/xmlschemas/TrackPointExtensionv1.xsd" xmlns:gpxtpx="http://www.garmin.com/xmlschemas/TrackPointExtension/v1" xmlns:gpxx="http://www.garmin.com/xmlschemas/GpxExtensions/v3" xmlns:xsi="http://www.w3.org/2001/XMLSchema-instance">
  <metadata>
    <link href="https://www.youtrack.es">
      <text>YouTrack.es</text>
    </link>
    <time>2026-05-07T23:03:18Z</time>
  </metadata>
  <trk>
    <src>https://www.youtrack.es</src>
    <link href="https://www.youtrack.es/ruta/37873-villa-aguete-villa">
      <text>YouTrack.es</text>
    </link>
    <trkseg>
      <trkpt lat="42.4838356487452983856201171875" lon="-8.65539000369608402252197265625">
        <ele>78</ele>
        <time>2022-11-01T10:28:46.000Z</time>
      </trkpt>
      <trkpt lat="42.4838772229850292205810546875" lon="-8.65538128651678562164306640625">
        <ele>74</ele>
        <time>2022-11-01T10:28:47.000Z</time>
      </trkpt>
      <trkpt lat="42.48391854576766490936279296875" lon="-8.65537089295685291290283203125">
        <ele>73.1999969482421875</ele>
        <time>2022-11-01T10:28:48.000Z</time>
      </trkpt>
      <trkpt lat="42.48396162874996662139892578125" lon="-8.65536200813949108123779296875">
        <ele>72.40000152587890625</ele>
        <time>2022-11-01T10:28:49.000Z</time>
      </trkpt>
      <trkpt lat="42.4840052984654903411865234375" lon="-8.65535262040793895721435546875">
        <ele>72.40000152587890625</ele>
        <time>2022-11-01T10:28:50.000Z</time>
      </trkpt>
      <trkpt lat="42.48404846526682376861572265625" lon="-8.6553434841334819793701171875">
        <ele>72.1999969482421875</ele>
        <time>2022-11-01T10:28:51.000Z</time>
      </trkpt>
      <trkpt lat="42.48409071005880832672119140625" lon="-8.65533359348773956298828125">
        <ele>72.1999969482421875</ele>
        <time>2022-11-01T10:28:52.000Z</time>
      </trkpt>
      <trkpt lat="42.4841320328414440155029296875" lon="-8.655323870480060577392578125">
        <ele>72.40000152587890625</ele>
        <time>2022-11-01T10:28:53.000Z</time>
      </trkpt>
      <trkpt lat="42.48417268507182598114013671875" lon="-8.65531506948173046112060546875">
        <ele>72.8000030517578125</ele>
        <time>2022-11-01T10:28:54.000Z</time>
      </trkpt>
      <trkpt lat="42.484212331473827362060546875" lon="-8.65530618466436862945556640625">
        <ele>73</ele>
        <time>2022-11-01T10:28:55.000Z</time>
      </trkpt>
      <trkpt lat="42.4842513911426067352294921875" lon="-8.65529595874249935150146484375">
        <ele>73.1999969482421875</ele>
        <time>2022-11-01T10:28:56.000Z</time>
      </trkpt>
      <trkpt lat="42.4842919595539569854736328125" lon="-8.65528590045869350433349609375">
        <ele>73.40000152587890625</ele>
        <time>2022-11-01T10:28:57.000Z</time>
      </trkpt>
      <trkpt lat="42.484332025051116943359375" lon="-8.6552770994603633880615234375">
        <ele>73</ele>
        <time>2022-11-01T10:28:58.000Z</time>
      </trkpt>
      <trkpt lat="42.48437116853892803192138671875" lon="-8.65526963956654071807861328125">
        <ele>73</ele>
        <time>2022-11-01T10:28:59.000Z</time>
      </trkpt>
      <trkpt lat="42.4844103120267391204833984375" lon="-8.6552643589675426483154296875">
        <ele>73</ele>
        <time>2022-11-01T10:29:00.000Z</time>
      </trkpt>
      <trkpt lat="42.48444945551455020904541015625" lon="-8.65525622852146625518798828125">
        <ele>73.1999969482421875</ele>
        <time>2022-11-01T10:29:01.000Z</time>
      </trkpt>
      <trkpt lat="42.484487928450107574462890625" lon="-8.65524851717054843902587890625">
        <ele>73.40000152587890625</ele>
        <time>2022-11-01T10:29:02.000Z</time>
      </trkpt>
      <trkpt lat="42.48452807776629924774169921875" lon="-8.65524114109575748443603515625">
        <ele>73.59999847412109375</ele>
        <time>2022-11-01T10:29:03.000Z</time>
      </trkpt>
      <trkpt lat="42.484567724168300628662109375" lon="-8.65523493848741054534912109375">
        <ele>73.59999847412109375</ele>
        <time>2022-11-01T10:29:04.000Z</time>
      </trkpt>
      <trkpt lat="42.484609298408031463623046875" lon="-8.6552323400974273681640625">
        <ele>74.1999969482421875</ele>
        <time>2022-11-01T10:29:05.000Z</time>
      </trkpt>
      <trkpt lat="42.48465112410485744476318359375" lon="-8.6552284844219684600830078125">
        <ele>74.40000152587890625</ele>
        <time>2022-11-01T10:29:06.000Z</time>
      </trkpt>
      <trkpt lat="42.48469269834458827972412109375" lon="-8.65522186271846294403076171875">
        <ele>75</ele>
        <time>2022-11-01T10:29:07.000Z</time>
      </trkpt>
      <trkpt lat="42.4847341887652873992919921875" lon="-8.6552160792052745819091796875">
        <ele>75.1999969482421875</ele>
        <time>2022-11-01T10:29:08.000Z</time>
      </trkpt>
      <trkpt lat="42.4847744219005107879638671875" lon="-8.65521163679659366607666015625">
        <ele>75.59999847412109375</ele>
        <time>2022-11-01T10:29:09.000Z</time>
      </trkpt>
      <trkpt lat="42.4848146550357341766357421875" lon="-8.6552070267498493194580078125">
        <ele>76</ele>
        <time>2022-11-01T10:29:10.000Z</time>
      </trkpt>
      <trkpt lat="42.48485564254224300384521484375" lon="-8.65520392544567584991455078125">
        <ele>76</ele>
        <time>2022-11-01T10:29:11.000Z</time>
      </trkpt>
      <trkpt lat="42.4848961271345615386962890625" lon="-8.6552019976079463958740234375">
        <ele>76.1999969482421875</ele>
        <time>2022-11-01T10:29:12.000Z</time>
      </trkpt>
      <trkpt lat="42.48493728227913379669189453125" lon="-8.6551966331899166107177734375">
        <ele>76.40000152587890625</ele>
        <time>2022-11-01T10:29:13.000Z</time>
      </trkpt>
      <trkpt lat="42.4849789403378963470458984375" lon="-8.655189760029315948486328125">
        <ele>76.59999847412109375</ele>
        <time>2022-11-01T10:29:14.000Z</time>
      </trkpt>
      <trkpt lat="42.48501959256827831268310546875" lon="-8.65518732927739620208740234375">
        <ele>76.8000030517578125</ele>
        <time>2022-11-01T10:29:15.000Z</time>
      </trkpt>
      <trkpt lat="42.4850602447986602783203125" lon="-8.65518632344901561737060546875">
        <ele>77</ele>
        <time>2022-11-01T10:29:16.000Z</time>
      </trkpt>
      <trkpt lat="42.4851013161242008209228515625" lon="-8.6551885865628719329833984375">
        <ele>77</ele>
        <time>2022-11-01T10:29:17.000Z</time>
      </trkpt>
      <trkpt lat="42.4851422198116779327392578125" lon="-8.65518917329609394073486328125">
        <ele>77.40000152587890625</ele>
        <time>2022-11-01T10:29:18.000Z</time>
      </trkpt>
      <trkpt lat="42.48518454842269420623779296875" lon="-8.65518766455352306365966796875">
        <ele>77.59999847412109375</ele>
        <time>2022-11-01T10:29:19.000Z</time>
      </trkpt>
      <trkpt lat="42.4852260388433933258056640625" lon="-8.65518716163933277130126953125">
        <ele>77.8000030517578125</ele>
        <time>2022-11-01T10:29:20.000Z</time>
      </trkpt>
      <trkpt lat="42.48526702634990215301513671875" lon="-8.65518598817288875579833984375">
        <ele>78</ele>
        <time>2022-11-01T10:29:21.000Z</time>
      </trkpt>
      <trkpt lat="42.48530742712318897247314453125" lon="-8.65518565289676189422607421875">
        <ele>78.1999969482421875</ele>
        <time>2022-11-01T10:29:22.000Z</time>
      </trkpt>
      <trkpt lat="42.4853484146296977996826171875" lon="-8.6551865749061107635498046875">
        <ele>78.59999847412109375</ele>
        <time>2022-11-01T10:29:23.000Z</time>
      </trkpt>
      <trkpt lat="42.48538772575557231903076171875" lon="-8.655187748372554779052734375">
        <ele>79</ele>
        <time>2022-11-01T10:29:24.000Z</time>
      </trkpt>
      <trkpt lat="42.48542762361466884613037109375" lon="-8.65518950857222080230712890625">
        <ele>79.40000152587890625</ele>
        <time>2022-11-01T10:29:25.000Z</time>
      </trkpt>
      <trkpt lat="42.485468275845050811767578125" lon="-8.65519001148641109466552734375">
        <ele>79.40000152587890625</ele>
        <time>2022-11-01T10:29:26.000Z</time>
      </trkpt>
      <trkpt lat="42.4855086766183376312255859375" lon="-8.65519185550510883331298828125">
        <ele>79.59999847412109375</ele>
        <time>2022-11-01T10:29:27.000Z</time>
      </trkpt>
      <trkpt lat="42.48554832302033901214599609375" lon="-8.6551942862570285797119140625">
        <ele>79.8000030517578125</ele>
        <time>2022-11-01T10:29:28.000Z</time>
      </trkpt>
      <trkpt lat="42.48558822087943553924560546875" lon="-8.6551969684660434722900390625">
        <ele>80</ele>
        <time>2022-11-01T10:29:29.000Z</time>
      </trkpt>
      <trkpt lat="42.4856263585388660430908203125" lon="-8.65519956685602664947509765625">
        <ele>80</ele>
        <time>2022-11-01T10:29:30.000Z</time>
      </trkpt>
      <trkpt lat="42.4856639094650745391845703125" lon="-8.65520258434116840362548828125">
        <ele>80.1999969482421875</ele>
        <time>2022-11-01T10:29:31.000Z</time>
      </trkpt>
      <trkpt lat="42.48570405878126621246337890625" lon="-8.65520509891211986541748046875">
        <ele>80.59999847412109375</ele>
        <time>2022-11-01T10:29:32.000Z</time>
      </trkpt>
      <trkpt lat="42.48574328608810901641845703125" lon="-8.65520509891211986541748046875">
        <ele>80.8000030517578125</ele>
        <time>2022-11-01T10:29:33.000Z</time>
      </trkpt>
      <trkpt lat="42.48578351922333240509033203125" lon="-8.6552063561975955963134765625">
        <ele>81.1999969482421875</ele>
        <time>2022-11-01T10:29:34.000Z</time>
      </trkpt>
      <trkpt lat="42.48582241125404834747314453125" lon="-8.6552070267498493194580078125">
        <ele>81.1999969482421875</ele>
        <time>2022-11-01T10:29:35.000Z</time>
      </trkpt>
      <trkpt lat="42.485861219465732574462890625" lon="-8.655207864940166473388671875">
        <ele>81.40000152587890625</ele>
        <time>2022-11-01T10:29:36.000Z</time>
      </trkpt>
      <trkpt lat="42.4859002791345119476318359375" lon="-8.65521021187305450439453125">
        <ele>81.59999847412109375</ele>
        <time>2022-11-01T10:29:37.000Z</time>
      </trkpt>
      <trkpt lat="42.48593891970813274383544921875" lon="-8.65521230734884738922119140625">
        <ele>81.59999847412109375</ele>
        <time>2022-11-01T10:29:38.000Z</time>
      </trkpt>
      <trkpt lat="42.48597948811948299407958984375" lon="-8.65521348081529140472412109375">
        <ele>82</ele>
        <time>2022-11-01T10:29:39.000Z</time>
      </trkpt>
      <trkpt lat="42.48601871542632579803466796875" lon="-8.65521281026303768157958984375">
        <ele>82.1999969482421875</ele>
        <time>2022-11-01T10:29:40.000Z</time>
      </trkpt>
      <trkpt lat="42.4860585294663906097412109375" lon="-8.65521364845335483551025390625">
        <ele>82.40000152587890625</ele>
        <time>2022-11-01T10:29:41.000Z</time>
      </trkpt>
      <trkpt lat="42.4860984273254871368408203125" lon="-8.6552150733768939971923828125">
        <ele>82.40000152587890625</ele>
        <time>2022-11-01T10:29:42.000Z</time>
      </trkpt>
      <trkpt lat="42.4861396662890911102294921875" lon="-8.6552164144814014434814453125">
        <ele>82.59999847412109375</ele>
        <time>2022-11-01T10:29:43.000Z</time>
      </trkpt>
      <trkpt lat="42.4861787259578704833984375" lon="-8.655219264328479766845703125">
        <ele>82.8000030517578125</ele>
        <time>2022-11-01T10:29:44.000Z</time>
      </trkpt>
      <trkpt lat="42.486216612160205841064453125" lon="-8.655221946537494659423828125">
        <ele>83</ele>
        <time>2022-11-01T10:29:45.000Z</time>
      </trkpt>
      <trkpt lat="42.48625575564801692962646484375" lon="-8.655221946537494659423828125">
        <ele>83.40000152587890625</ele>
        <time>2022-11-01T10:29:46.000Z</time>
      </trkpt>
      <trkpt lat="42.4862952344119548797607421875" lon="-8.6552234552800655364990234375">
        <ele>83.59999847412109375</ele>
        <time>2022-11-01T10:29:47.000Z</time>
      </trkpt>
      <trkpt lat="42.4863337911665439605712890625" lon="-8.65522420965135097503662109375">
        <ele>83.8000030517578125</ele>
        <time>2022-11-01T10:29:48.000Z</time>
      </trkpt>
      <trkpt lat="42.48637293465435504913330078125" lon="-8.65522420965135097503662109375">
        <ele>84</ele>
        <time>2022-11-01T10:29:49.000Z</time>
      </trkpt>
      <trkpt lat="42.48641266487538814544677734375" lon="-8.65522488020360469818115234375">
        <ele>84.1999969482421875</ele>
        <time>2022-11-01T10:29:50.000Z</time>
      </trkpt>
      <trkpt lat="42.48645298182964324951171875" lon="-8.6552247963845729827880859375">
        <ele>84.1999969482421875</ele>
        <time>2022-11-01T10:29:51.000Z</time>
      </trkpt>
      <trkpt lat="42.48649514280259609222412109375" lon="-8.655228652060031890869140625">
        <ele>84.40000152587890625</ele>
        <time>2022-11-01T10:29:52.000Z</time>
      </trkpt>
      <trkpt lat="42.486535124480724334716796875" lon="-8.655228652060031890869140625">
        <ele>84.59999847412109375</ele>
        <time>2022-11-01T10:29:53.000Z</time>
      </trkpt>
      <trkpt lat="42.4865745194256305694580078125" lon="-8.65522890351712703704833984375">
        <ele>85</ele>
        <time>2022-11-01T10:29:54.000Z</time>
      </trkpt>
      <trkpt lat="42.486613579094409942626953125" lon="-8.655230663716793060302734375">
        <ele>85.1999969482421875</ele>
        <time>2022-11-01T10:29:55.000Z</time>
      </trkpt>
      <trkpt lat="42.48665305785834789276123046875" lon="-8.6552311666309833526611328125">
        <ele>85.40000152587890625</ele>
        <time>2022-11-01T10:29:56.000Z</time>
      </trkpt>
      <trkpt lat="42.486693374812602996826171875" lon="-8.6552308313548564910888671875">
        <ele>85.59999847412109375</ele>
        <time>2022-11-01T10:29:57.000Z</time>
      </trkpt>
      <trkpt lat="42.48673436231911182403564453125" lon="-8.6552304960787296295166015625">
        <ele>86</ele>
        <time>2022-11-01T10:29:58.000Z</time>
      </trkpt>
      <trkpt lat="42.48677560128271579742431640625" lon="-8.6552321724593639373779296875">
        <ele>86.1999969482421875</ele>
        <time>2022-11-01T10:29:59.000Z</time>
      </trkpt>
      <trkpt lat="42.486816085875034332275390625" lon="-8.6552328430116176605224609375">
        <ele>86.1999969482421875</ele>
        <time>2022-11-01T10:30:00.000Z</time>
      </trkpt>
      <trkpt lat="42.48685589991509914398193359375" lon="-8.65522940643131732940673828125">
        <ele>86.59999847412109375</ele>
        <time>2022-11-01T10:30:01.000Z</time>
      </trkpt>
      <trkpt lat="42.486897893249988555908203125" lon="-8.65522739477455615997314453125">
        <ele>86.59999847412109375</ele>
        <time>2022-11-01T10:30:02.000Z</time>
      </trkpt>
      <trkpt lat="42.48693988658487796783447265625" lon="-8.6552251316606998443603515625">
        <ele>87</ele>
        <time>2022-11-01T10:30:03.000Z</time>
      </trkpt>
      <trkpt lat="42.48698162846267223358154296875" lon="-8.65522362291812896728515625">
        <ele>87.1999969482421875</ele>
        <time>2022-11-01T10:30:04.000Z</time>
      </trkpt>
      <trkpt lat="42.4870241247117519378662109375" lon="-8.6552207730710506439208984375">
        <ele>87.1999969482421875</ele>
        <time>2022-11-01T10:30:05.000Z</time>
      </trkpt>
      <trkpt lat="42.48706628568470478057861328125" lon="-8.65521767176687717437744140625">
        <ele>87.59999847412109375</ele>
        <time>2022-11-01T10:30:06.000Z</time>
      </trkpt>
      <trkpt lat="42.48710853047668933868408203125" lon="-8.65521213971078395843505859375">
        <ele>87.8000030517578125</ele>
        <time>2022-11-01T10:30:07.000Z</time>
      </trkpt>
      <trkpt lat="42.48715027235448360443115234375" lon="-8.65520359016954898834228515625">
        <ele>88</ele>
        <time>2022-11-01T10:30:08.000Z</time>
      </trkpt>
      <trkpt lat="42.487192936241626739501953125" lon="-8.6551947891712188720703125">
        <ele>88.1999969482421875</ele>
        <time>2022-11-01T10:30:09.000Z</time>
      </trkpt>
      <trkpt lat="42.48723560012876987457275390625" lon="-8.6551840603351593017578125">
        <ele>88.59999847412109375</ele>
        <time>2022-11-01T10:30:10.000Z</time>
      </trkpt>
      <trkpt lat="42.48727750964462757110595703125" lon="-8.65517207421362400054931640625">
        <ele>88.59999847412109375</ele>
        <time>2022-11-01T10:30:11.000Z</time>
      </trkpt>
      <trkpt lat="42.487318329513072967529296875" lon="-8.65515681914985179901123046875">
        <ele>88.8000030517578125</ele>
        <time>2022-11-01T10:30:12.000Z</time>
      </trkpt>
      <trkpt lat="42.4873604066669940948486328125" lon="-8.65514005534350872039794921875">
        <ele>89</ele>
        <time>2022-11-01T10:30:13.000Z</time>
      </trkpt>
      <trkpt lat="42.4874018132686614990234375" lon="-8.65512379445135593414306640625">
        <ele>89</ele>
        <time>2022-11-01T10:30:14.000Z</time>
      </trkpt>
      <trkpt lat="42.48744271695613861083984375" lon="-8.65510837174952030181884765625">
        <ele>89.40000152587890625</ele>
        <time>2022-11-01T10:30:15.000Z</time>
      </trkpt>
      <trkpt lat="42.48748236335813999176025390625" lon="-8.655093871057033538818359375">
        <ele>89.59999847412109375</ele>
        <time>2022-11-01T10:30:16.000Z</time>
      </trkpt>
      <trkpt lat="42.4875223450362682342529296875" lon="-8.65507400594651699066162109375">
        <ele>90</ele>
        <time>2022-11-01T10:30:17.000Z</time>
      </trkpt>
      <trkpt lat="42.48756115324795246124267578125" lon="-8.655055649578571319580078125">
        <ele>90</ele>
        <time>2022-11-01T10:30:18.000Z</time>
      </trkpt>
      <trkpt lat="42.48759803362190723419189453125" lon="-8.65503762848675251007080078125">
        <ele>90.40000152587890625</ele>
        <time>2022-11-01T10:30:19.000Z</time>
      </trkpt>
      <trkpt lat="42.48763357289135456085205078125" lon="-8.65501868538558483123779296875">
        <ele>90.40000152587890625</ele>
        <time>2022-11-01T10:30:20.000Z</time>
      </trkpt>
      <trkpt lat="42.48766877688467502593994140625" lon="-8.6549988202750682830810546875">
        <ele>90.59999847412109375</ele>
        <time>2022-11-01T10:30:21.000Z</time>
      </trkpt>
      <trkpt lat="42.48770364560186862945556640625" lon="-8.6549783684313297271728515625">
        <ele>90.8000030517578125</ele>
        <time>2022-11-01T10:30:22.000Z</time>
      </trkpt>
      <trkpt lat="42.48773767612874507904052734375" lon="-8.6549562402069568634033203125">
        <ele>91.1999969482421875</ele>
        <time>2022-11-01T10:30:23.000Z</time>
      </trkpt>
      <trkpt lat="42.4877704493701457977294921875" lon="-8.6549337767064571380615234375">
        <ele>91.59999847412109375</ele>
        <time>2022-11-01T10:30:24.000Z</time>
      </trkpt>
      <trkpt lat="42.48780339024960994720458984375" lon="-8.65491055883467197418212890625">
        <ele>91.8000030517578125</ele>
        <time>2022-11-01T10:30:25.000Z</time>
      </trkpt>
      <trkpt lat="42.48783725313842296600341796875" lon="-8.65488834679126739501953125">
        <ele>92.40000152587890625</ele>
        <time>2022-11-01T10:30:26.000Z</time>
      </trkpt>
      <trkpt lat="42.487872540950775146484375" lon="-8.65486395545303821563720703125">
        <ele>92.40000152587890625</ele>
        <time>2022-11-01T10:30:27.000Z</time>
      </trkpt>
      <trkpt lat="42.487907744944095611572265625" lon="-8.6548409052193164825439453125">
        <ele>92.8000030517578125</ele>
        <time>2022-11-01T10:30:28.000Z</time>
      </trkpt>
      <trkpt lat="42.487943284213542938232421875" lon="-8.654815591871738433837890625">
        <ele>92.8000030517578125</ele>
        <time>2022-11-01T10:30:29.000Z</time>
      </trkpt>
      <trkpt lat="42.4879793263971805572509765625" lon="-8.65478985942900180816650390625">
        <ele>93.1999969482421875</ele>
        <time>2022-11-01T10:30:30.000Z</time>
      </trkpt>
      <trkpt lat="42.48801494948565959930419921875" lon="-8.6547647975385189056396484375">
        <ele>93.1999969482421875</ele>
        <time>2022-11-01T10:30:31.000Z</time>
      </trkpt>
      <trkpt lat="42.488049566745758056640625" lon="-8.6547416634857654571533203125">
        <ele>93.59999847412109375</ele>
        <time>2022-11-01T10:30:32.000Z</time>
      </trkpt>
      <trkpt lat="42.48808468692004680633544921875" lon="-8.654720373451709747314453125">
        <ele>93.8000030517578125</ele>
        <time>2022-11-01T10:30:33.000Z</time>
      </trkpt>
      <trkpt lat="42.48812022618949413299560546875" lon="-8.65469790995121002197265625">
        <ele>94</ele>
        <time>2022-11-01T10:30:34.000Z</time>
      </trkpt>
      <trkpt lat="42.48815559782087802886962890625" lon="-8.65467301569879055023193359375">
        <ele>94.40000152587890625</ele>
        <time>2022-11-01T10:30:35.000Z</time>
      </trkpt>
      <trkpt lat="42.48819197528064250946044921875" lon="-8.65464988164603710174560546875">
        <ele>94.59999847412109375</ele>
        <time>2022-11-01T10:30:36.000Z</time>
      </trkpt>
      <trkpt lat="42.488226927816867828369140625" lon="-8.6546261608600616455078125">
        <ele>94.8000030517578125</ele>
        <time>2022-11-01T10:30:37.000Z</time>
      </trkpt>
      <trkpt lat="42.48826322145760059356689453125" lon="-8.65460277535021305084228515625">
        <ele>95</ele>
        <time>2022-11-01T10:30:38.000Z</time>
      </trkpt>
      <trkpt lat="42.48830094002187252044677734375" lon="-8.654578886926174163818359375">
        <ele>95.1999969482421875</ele>
        <time>2022-11-01T10:30:39.000Z</time>
      </trkpt>
      <trkpt lat="42.488338910043239593505859375" lon="-8.6545537412166595458984375">
        <ele>95.40000152587890625</ele>
        <time>2022-11-01T10:30:40.000Z</time>
      </trkpt>
      <trkpt lat="42.488375790417194366455078125" lon="-8.6545277573168277740478515625">
        <ele>95.8000030517578125</ele>
        <time>2022-11-01T10:30:41.000Z</time>
      </trkpt>
      <trkpt lat="42.48841124586760997772216796875" lon="-8.65450018085539340972900390625">
        <ele>96</ele>
        <time>2022-11-01T10:30:42.000Z</time>
      </trkpt>
      <trkpt lat="42.4884478747844696044921875" lon="-8.65447620861232280731201171875">
        <ele>96.1999969482421875</ele>
        <time>2022-11-01T10:30:43.000Z</time>
      </trkpt>
      <trkpt lat="42.48848534189164638519287109375" lon="-8.65445206873118877410888671875">
        <ele>96.40000152587890625</ele>
        <time>2022-11-01T10:30:44.000Z</time>
      </trkpt>
      <trkpt lat="42.48852431774139404296875" lon="-8.6544238217175006866455078125">
        <ele>96.40000152587890625</ele>
        <time>2022-11-01T10:30:45.000Z</time>
      </trkpt>
      <trkpt lat="42.48856128193438053131103515625" lon="-8.6543956585228443145751953125">
        <ele>96.8000030517578125</ele>
        <time>2022-11-01T10:30:46.000Z</time>
      </trkpt>
      <trkpt lat="42.4885995872318744659423828125" lon="-8.65436531603336334228515625">
        <ele>96.8000030517578125</ele>
        <time>2022-11-01T10:30:47.000Z</time>
      </trkpt>
      <trkpt lat="42.48863604851067066192626953125" lon="-8.65433455444872379302978515625">
        <ele>97.1999969482421875</ele>
        <time>2022-11-01T10:30:48.000Z</time>
      </trkpt>
      <trkpt lat="42.48867292888462543487548828125" lon="-8.654304631054401397705078125">
        <ele>97.40000152587890625</ele>
        <time>2022-11-01T10:30:49.000Z</time>
      </trkpt>
      <trkpt lat="42.48870871961116790771484375" lon="-8.65427521057426929473876953125">
        <ele>97.59999847412109375</ele>
        <time>2022-11-01T10:30:50.000Z</time>
      </trkpt>
      <trkpt lat="42.48874601908028125762939453125" lon="-8.6542451195418834686279296875">
        <ele>97.8000030517578125</ele>
        <time>2022-11-01T10:30:51.000Z</time>
      </trkpt>
      <trkpt lat="42.48878323473036289215087890625" lon="-8.6542156152427196502685546875">
        <ele>97.8000030517578125</ele>
        <time>2022-11-01T10:30:52.000Z</time>
      </trkpt>
      <trkpt lat="42.48882145620882511138916015625" lon="-8.65418552421033382415771484375">
        <ele>97.8000030517578125</ele>
        <time>2022-11-01T10:30:53.000Z</time>
      </trkpt>
      <trkpt lat="42.48885892331600189208984375" lon="-8.6541540920734405517578125">
        <ele>98</ele>
        <time>2022-11-01T10:30:54.000Z</time>
      </trkpt>
      <trkpt lat="42.48889672569930553436279296875" lon="-8.6541234143078327178955078125">
        <ele>98.40000152587890625</ele>
        <time>2022-11-01T10:30:55.000Z</time>
      </trkpt>
      <trkpt lat="42.4889362044632434844970703125" lon="-8.65409080870449542999267578125">
        <ele>98.59999847412109375</ele>
        <time>2022-11-01T10:30:56.000Z</time>
      </trkpt>
      <trkpt lat="42.4889744259417057037353515625" lon="-8.654059208929538726806640625">
        <ele>99</ele>
        <time>2022-11-01T10:30:57.000Z</time>
      </trkpt>
      <trkpt lat="42.489012815058231353759765625" lon="-8.65402811206877231597900390625">
        <ele>99.1999969482421875</ele>
        <time>2022-11-01T10:30:58.000Z</time>
      </trkpt>
      <trkpt lat="42.4890512041747570037841796875" lon="-8.6539976857602596282958984375">
        <ele>99.40000152587890625</ele>
        <time>2022-11-01T10:30:59.000Z</time>
      </trkpt>
      <trkpt lat="42.48909018002450466156005859375" lon="-8.653966002166271209716796875">
        <ele>99.59999847412109375</ele>
        <time>2022-11-01T10:31:00.000Z</time>
      </trkpt>
      <trkpt lat="42.4891289882361888885498046875" lon="-8.65393473766744136810302734375">
        <ele>99.8000030517578125</ele>
        <time>2022-11-01T10:31:01.000Z</time>
      </trkpt>
      <trkpt lat="42.48916779644787311553955078125" lon="-8.65390288643538951873779296875">
        <ele>100</ele>
        <time>2022-11-01T10:31:02.000Z</time>
      </trkpt>
      <trkpt lat="42.48920400626957416534423828125" lon="-8.65387178957462310791015625">
        <ele>100</ele>
        <time>2022-11-01T10:31:03.000Z</time>
      </trkpt>
      <trkpt lat="42.4892426468431949615478515625" lon="-8.65384018979966640472412109375">
        <ele>100.1999969482421875</ele>
        <time>2022-11-01T10:31:04.000Z</time>
      </trkpt>
      <trkpt lat="42.48928279615938663482666015625" lon="-8.65380741655826568603515625">
        <ele>100.40000152587890625</ele>
        <time>2022-11-01T10:31:05.000Z</time>
      </trkpt>
      <trkpt lat="42.48932235874235630035400390625" lon="-8.6537750624120235443115234375">
        <ele>100.59999847412109375</ele>
        <time>2022-11-01T10:31:06.000Z</time>
      </trkpt>
      <trkpt lat="42.4893623404204845428466796875" lon="-8.65374312736093997955322265625">
        <ele>100.59999847412109375</ele>
        <time>2022-11-01T10:31:07.000Z</time>
      </trkpt>
      <trkpt lat="42.4894025735557079315185546875" lon="-8.65371161140501499176025390625">
        <ele>100.8000030517578125</ele>
        <time>2022-11-01T10:31:08.000Z</time>
      </trkpt>
      <trkpt lat="42.48944221995770931243896484375" lon="-8.65368001163005828857421875">
        <ele>101.1999969482421875</ele>
        <time>2022-11-01T10:31:09.000Z</time>
      </trkpt>
      <trkpt lat="42.4894823692739009857177734375" lon="-8.6536466516554355621337890625">
        <ele>101.1999969482421875</ele>
        <time>2022-11-01T10:31:10.000Z</time>
      </trkpt>
      <trkpt lat="42.48952268622815608978271484375" lon="-8.65361387841403484344482421875">
        <ele>101.40000152587890625</ele>
        <time>2022-11-01T10:31:11.000Z</time>
      </trkpt>
      <trkpt lat="42.4895625002682209014892578125" lon="-8.6535800993442535400390625">
        <ele>101.59999847412109375</ele>
        <time>2022-11-01T10:31:12.000Z</time>
      </trkpt>
      <trkpt lat="42.48960189521312713623046875" lon="-8.65354531444609165191650390625">
        <ele>101.8000030517578125</ele>
        <time>2022-11-01T10:31:13.000Z</time>
      </trkpt>
      <trkpt lat="42.48964305035769939422607421875" lon="-8.65351262502372264862060546875">
        <ele>102</ele>
        <time>2022-11-01T10:31:14.000Z</time>
      </trkpt>
      <trkpt lat="42.48968445695936679840087890625" lon="-8.65347960032522678375244140625">
        <ele>102.1999969482421875</ele>
        <time>2022-11-01T10:31:15.000Z</time>
      </trkpt>
      <trkpt lat="42.48971764929592609405517578125" lon="-8.6534525267779827117919921875">
        <ele>102.1999969482421875</ele>
        <time>2022-11-01T10:31:16.000Z</time>
      </trkpt>
      <trkpt lat="42.489765845239162445068359375" lon="-8.65341220982372760772705078125">
        <ele>102.40000152587890625</ele>
        <time>2022-11-01T10:31:17.000Z</time>
      </trkpt>
      <trkpt lat="42.48980599455535411834716796875" lon="-8.65337717346847057342529296875">
        <ele>102.59999847412109375</ele>
        <time>2022-11-01T10:31:18.000Z</time>
      </trkpt>
      <trkpt lat="42.48984790407121181488037109375" lon="-8.653339706361293792724609375">
        <ele>102.8000030517578125</ele>
        <time>2022-11-01T10:31:19.000Z</time>
      </trkpt>
      <trkpt lat="42.48988981358706951141357421875" lon="-8.6533038318157196044921875">
        <ele>102.8000030517578125</ele>
        <time>2022-11-01T10:31:20.000Z</time>
      </trkpt>
      <trkpt lat="42.4899309687316417694091796875" lon="-8.6532698012888431549072265625">
        <ele>103</ele>
        <time>2022-11-01T10:31:21.000Z</time>
      </trkpt>
      <trkpt lat="42.48997111804783344268798828125" lon="-8.6532367765903472900390625">
        <ele>103</ele>
        <time>2022-11-01T10:31:22.000Z</time>
      </trkpt>
      <trkpt lat="42.490011937916278839111328125" lon="-8.653204254806041717529296875">
        <ele>103.1999969482421875</ele>
        <time>2022-11-01T10:31:23.000Z</time>
      </trkpt>
      <trkpt lat="42.49005384743213653564453125" lon="-8.65317173302173614501953125">
        <ele>103.40000152587890625</ele>
        <time>2022-11-01T10:31:24.000Z</time>
      </trkpt>
      <trkpt lat="42.490097098052501678466796875" lon="-8.6531373672187328338623046875">
        <ele>103.40000152587890625</ele>
        <time>2022-11-01T10:31:25.000Z</time>
      </trkpt>
      <trkpt lat="42.4901401810348033905029296875" lon="-8.65310090593993663787841796875">
        <ele>103.59999847412109375</ele>
        <time>2022-11-01T10:31:26.000Z</time>
      </trkpt>
      <trkpt lat="42.4901837669312953948974609375" lon="-8.65306419320404529571533203125">
        <ele>103.8000030517578125</ele>
        <time>2022-11-01T10:31:27.000Z</time>
      </trkpt>
      <trkpt lat="42.4902253411710262298583984375" lon="-8.65302815102040767669677734375">
        <ele>104.1999969482421875</ele>
        <time>2022-11-01T10:31:28.000Z</time>
      </trkpt>
      <trkpt lat="42.49026699922978878021240234375" lon="-8.652992360293865203857421875">
        <ele>104.40000152587890625</ele>
        <time>2022-11-01T10:31:29.000Z</time>
      </trkpt>
      <trkpt lat="42.49030731618404388427734375" lon="-8.65295841358602046966552734375">
        <ele>104.40000152587890625</ele>
        <time>2022-11-01T10:31:30.000Z</time>
      </trkpt>
      <trkpt lat="42.490350566804409027099609375" lon="-8.6529211141169071197509765625">
        <ele>104.8000030517578125</ele>
        <time>2022-11-01T10:31:31.000Z</time>
      </trkpt>
      <trkpt lat="42.49039306305348873138427734375" lon="-8.65288750268518924713134765625">
        <ele>104.8000030517578125</ele>
        <time>2022-11-01T10:31:32.000Z</time>
      </trkpt>
      <trkpt lat="42.4904355593025684356689453125" lon="-8.652853555977344512939453125">
        <ele>105</ele>
        <time>2022-11-01T10:31:33.000Z</time>
      </trkpt>
      <trkpt lat="42.49047704972326755523681640625" lon="-8.6528212018311023712158203125">
        <ele>105.1999969482421875</ele>
        <time>2022-11-01T10:31:34.000Z</time>
      </trkpt>
      <trkpt lat="42.49051879160106182098388671875" lon="-8.652787506580352783203125">
        <ele>105.1999969482421875</ele>
        <time>2022-11-01T10:31:35.000Z</time>
      </trkpt>
      <trkpt lat="42.4905612878501415252685546875" lon="-8.6527539789676666259765625">
        <ele>105.40000152587890625</ele>
        <time>2022-11-01T10:31:36.000Z</time>
      </trkpt>
      <trkpt lat="42.4906035326421260833740234375" lon="-8.652723133563995361328125">
        <ele>105.40000152587890625</ele>
        <time>2022-11-01T10:31:37.000Z</time>
      </trkpt>
      <trkpt lat="42.49064653180539608001708984375" lon="-8.6526904441416263580322265625">
        <ele>105.59999847412109375</ele>
        <time>2022-11-01T10:31:38.000Z</time>
      </trkpt>
      <trkpt lat="42.490688525140285491943359375" lon="-8.65265867672860622406005859375">
        <ele>105.8000030517578125</ele>
        <time>2022-11-01T10:31:39.000Z</time>
      </trkpt>
      <trkpt lat="42.49072750099003314971923828125" lon="-8.652630932629108428955078125">
        <ele>106</ele>
        <time>2022-11-01T10:31:40.000Z</time>
      </trkpt>
      <trkpt lat="42.49076488427817821502685546875" lon="-8.65260302089154720306396484375">
        <ele>106.1999969482421875</ele>
        <time>2022-11-01T10:31:41.000Z</time>
      </trkpt>
      <trkpt lat="42.4908026866614818572998046875" lon="-8.6525742709636688232421875">
        <ele>106.59999847412109375</ele>
        <time>2022-11-01T10:31:42.000Z</time>
      </trkpt>
      <trkpt lat="42.4908399023115634918212890625" lon="-8.652549125254154205322265625">
        <ele>106.8000030517578125</ele>
        <time>2022-11-01T10:31:43.000Z</time>
      </trkpt>
      <trkpt lat="42.4908791296184062957763671875" lon="-8.65252188406884670257568359375">
        <ele>107.1999969482421875</ele>
        <time>2022-11-01T10:31:44.000Z</time>
      </trkpt>
      <trkpt lat="42.49092078767716884613037109375" lon="-8.65249204449355602264404296875">
        <ele>107.40000152587890625</ele>
        <time>2022-11-01T10:31:45.000Z</time>
      </trkpt>
      <trkpt lat="42.490962110459804534912109375" lon="-8.65246362984180450439453125">
        <ele>107.59999847412109375</ele>
        <time>2022-11-01T10:31:46.000Z</time>
      </trkpt>
      <trkpt lat="42.4910025112330913543701171875" lon="-8.6524369753897190093994140625">
        <ele>107.8000030517578125</ele>
        <time>2022-11-01T10:31:47.000Z</time>
      </trkpt>
      <trkpt lat="42.49104492366313934326171875" lon="-8.652410320937633514404296875">
        <ele>107.8000030517578125</ele>
        <time>2022-11-01T10:31:48.000Z</time>
      </trkpt>
      <trkpt lat="42.491088844835758209228515625" lon="-8.6523843370378017425537109375">
        <ele>108.1999969482421875</ele>
        <time>2022-11-01T10:31:49.000Z</time>
      </trkpt>
      <trkpt lat="42.4911349453032016754150390625" lon="-8.65235558710992336273193359375">
        <ele>108.40000152587890625</ele>
        <time>2022-11-01T10:31:50.000Z</time>
      </trkpt>
      <trkpt lat="42.491179369390010833740234375" lon="-8.65232423879206180572509765625">
        <ele>108.59999847412109375</ele>
        <time>2022-11-01T10:31:51.000Z</time>
      </trkpt>
      <trkpt lat="42.491223625838756561279296875" lon="-8.65228937007486820220947265625">
        <ele>108.8000030517578125</ele>
        <time>2022-11-01T10:31:52.000Z</time>
      </trkpt>
      <trkpt lat="42.491265870630741119384765625" lon="-8.6522582732141017913818359375">
        <ele>109</ele>
        <time>2022-11-01T10:31:53.000Z</time>
      </trkpt>
      <trkpt lat="42.4913086183369159698486328125" lon="-8.65222491323947906494140625">
        <ele>109</ele>
        <time>2022-11-01T10:31:54.000Z</time>
      </trkpt>
      <trkpt lat="42.4913528747856616973876953125" lon="-8.65218593738973140716552734375">
        <ele>109.1999969482421875</ele>
        <time>2022-11-01T10:31:55.000Z</time>
      </trkpt>
      <trkpt lat="42.491397969424724578857421875" lon="-8.652142770588397979736328125">
        <ele>109.59999847412109375</ele>
        <time>2022-11-01T10:31:56.000Z</time>
      </trkpt>
      <trkpt lat="42.491441555321216583251953125" lon="-8.65210077725350856781005859375">
        <ele>109.59999847412109375</ele>
        <time>2022-11-01T10:31:57.000Z</time>
      </trkpt>
      <trkpt lat="42.491485811769962310791015625" lon="-8.652057610452175140380859375">
        <ele>109.8000030517578125</ele>
        <time>2022-11-01T10:31:58.000Z</time>
      </trkpt>
      <trkpt lat="42.49153099022805690765380859375" lon="-8.65202299319207668304443359375">
        <ele>109.8000030517578125</ele>
        <time>2022-11-01T10:31:59.000Z</time>
      </trkpt>
      <trkpt lat="42.4915798567235469818115234375" lon="-8.652001284062862396240234375">
        <ele>110</ele>
        <time>2022-11-01T10:32:00.000Z</time>
      </trkpt>
      <trkpt lat="42.49163073487579822540283203125" lon="-8.65198980085551738739013671875">
        <ele>110</ele>
        <time>2022-11-01T10:32:01.000Z</time>
      </trkpt>
      <trkpt lat="42.49168328940868377685546875" lon="-8.65198175422847270965576171875">
        <ele>110.1999969482421875</ele>
        <time>2022-11-01T10:32:02.000Z</time>
      </trkpt>
      <trkpt lat="42.49173534102737903594970703125" lon="-8.6519739590585231781005859375">
        <ele>110.1999969482421875</ele>
        <time>2022-11-01T10:32:03.000Z</time>
      </trkpt>
      <trkpt lat="42.49178848229348659515380859375" lon="-8.65196473896503448486328125">
        <ele>110.40000152587890625</ele>
        <time>2022-11-01T10:32:04.000Z</time>
      </trkpt>
      <trkpt lat="42.4918407015502452850341796875" lon="-8.65195007063448429107666015625">
        <ele>110.59999847412109375</ele>
        <time>2022-11-01T10:32:05.000Z</time>
      </trkpt>
      <trkpt lat="42.49189426191151142120361328125" lon="-8.6519317142665386199951171875">
        <ele>110.59999847412109375</ele>
        <time>2022-11-01T10:32:06.000Z</time>
      </trkpt>
      <trkpt lat="42.49194690026342868804931640625" lon="-8.65191101096570491790771484375">
        <ele>110.8000030517578125</ele>
        <time>2022-11-01T10:32:07.000Z</time>
      </trkpt>
      <trkpt lat="42.49200104735791683197021484375" lon="-8.65188829600811004638671875">
        <ele>110.8000030517578125</ele>
        <time>2022-11-01T10:32:08.000Z</time>
      </trkpt>
      <trkpt lat="42.492055781185626983642578125" lon="-8.6518670059740543365478515625">
        <ele>111</ele>
        <time>2022-11-01T10:32:09.000Z</time>
      </trkpt>
      <trkpt lat="42.492111437022686004638671875" lon="-8.65184613503515720367431640625">
        <ele>111</ele>
        <time>2022-11-01T10:32:10.000Z</time>
      </trkpt>
      <trkpt lat="42.4921682663261890411376953125" lon="-8.65182350389659404754638671875">
        <ele>111.1999969482421875</ele>
        <time>2022-11-01T10:32:11.000Z</time>
      </trkpt>
      <trkpt lat="42.4922249279916286468505859375" lon="-8.65180137567222118377685546875">
        <ele>111.1999969482421875</ele>
        <time>2022-11-01T10:32:12.000Z</time>
      </trkpt>
      <trkpt lat="42.4922819249331951141357421875" lon="-8.65177891217172145843505859375">
        <ele>111.40000152587890625</ele>
        <time>2022-11-01T10:32:13.000Z</time>
      </trkpt>
      <trkpt lat="42.49233816750347614288330078125" lon="-8.65175711922347545623779296875">
        <ele>111.40000152587890625</ele>
        <time>2022-11-01T10:32:14.000Z</time>
      </trkpt>
      <trkpt lat="42.49239549972116947174072265625" lon="-8.6517379246652126312255859375">
        <ele>111.40000152587890625</ele>
        <time>2022-11-01T10:32:15.000Z</time>
      </trkpt>
      <trkpt lat="42.492454089224338531494140625" lon="-8.65171839483082294464111328125">
        <ele>111.59999847412109375</ele>
        <time>2022-11-01T10:32:16.000Z</time>
      </trkpt>
      <trkpt lat="42.49251217581331729888916015625" lon="-8.65169660188257694244384765625">
        <ele>111.40000152587890625</ele>
        <time>2022-11-01T10:32:17.000Z</time>
      </trkpt>
      <trkpt lat="42.49256883747875690460205078125" lon="-8.65167715586721897125244140625">
        <ele>111.59999847412109375</ele>
        <time>2022-11-01T10:32:18.000Z</time>
      </trkpt>
      <trkpt lat="42.4926282651722431182861328125" lon="-8.6516601406037807464599609375">
        <ele>111.59999847412109375</ele>
        <time>2022-11-01T10:32:19.000Z</time>
      </trkpt>
      <trkpt lat="42.492686770856380462646484375" lon="-8.65164463408291339874267578125">
        <ele>111.8000030517578125</ele>
        <time>2022-11-01T10:32:20.000Z</time>
      </trkpt>
      <trkpt lat="42.492745779454708099365234375" lon="-8.6516289599239826202392578125">
        <ele>111.8000030517578125</ele>
        <time>2022-11-01T10:32:21.000Z</time>
      </trkpt>
      <trkpt lat="42.49280520714819431304931640625" lon="-8.651613034307956695556640625">
        <ele>112</ele>
        <time>2022-11-01T10:32:22.000Z</time>
      </trkpt>
      <trkpt lat="42.49286555685102939605712890625" lon="-8.651596941053867340087890625">
        <ele>112</ele>
        <time>2022-11-01T10:32:23.000Z</time>
      </trkpt>
      <trkpt lat="42.49292473308742046356201171875" lon="-8.6515810154378414154052734375">
        <ele>112.1999969482421875</ele>
        <time>2022-11-01T10:32:24.000Z</time>
      </trkpt>
      <trkpt lat="42.49298541806638240814208984375" lon="-8.6515649221837520599365234375">
        <ele>112.40000152587890625</ele>
        <time>2022-11-01T10:32:25.000Z</time>
      </trkpt>
      <trkpt lat="42.49304593540728092193603515625" lon="-8.65155243314802646636962890625">
        <ele>112.40000152587890625</ele>
        <time>2022-11-01T10:32:26.000Z</time>
      </trkpt>
      <trkpt lat="42.49310561455786228179931640625" lon="-8.651539944112300872802734375">
        <ele>112.59999847412109375</ele>
        <time>2022-11-01T10:32:27.000Z</time>
      </trkpt>
      <trkpt lat="42.49316428788006305694580078125" lon="-8.651526533067226409912109375">
        <ele>112.59999847412109375</ele>
        <time>2022-11-01T10:32:28.000Z</time>
      </trkpt>
      <trkpt lat="42.49322329647839069366455078125" lon="-8.651516139507293701171875">
        <ele>112.8000030517578125</ele>
        <time>2022-11-01T10:32:29.000Z</time>
      </trkpt>
      <trkpt lat="42.49328322708606719970703125" lon="-8.6515035666525363922119140625">
        <ele>112.8000030517578125</ele>
        <time>2022-11-01T10:32:30.000Z</time>
      </trkpt>
      <trkpt lat="42.4933430738747119903564453125" lon="-8.6514935083687305450439453125">
        <ele>113</ele>
        <time>2022-11-01T10:32:31.000Z</time>
      </trkpt>
      <trkpt lat="42.493400909006595611572265625" lon="-8.65148420445621013641357421875">
        <ele>113</ele>
        <time>2022-11-01T10:32:32.000Z</time>
      </trkpt>
      <trkpt lat="42.49345765449106693267822265625" lon="-8.65147632546722888946533203125">
        <ele>113.1999969482421875</ele>
        <time>2022-11-01T10:32:33.000Z</time>
      </trkpt>
      <trkpt lat="42.49351414851844310760498046875" lon="-8.6514692008495330810546875">
        <ele>113.1999969482421875</ele>
        <time>2022-11-01T10:32:34.000Z</time>
      </trkpt>
      <trkpt lat="42.4935708940029144287109375" lon="-8.65146257914602756500244140625">
        <ele>113.40000152587890625</ele>
        <time>2022-11-01T10:32:35.000Z</time>
      </trkpt>
      <trkpt lat="42.49362680129706859588623046875" lon="-8.65145637653768062591552734375">
        <ele>113.59999847412109375</ele>
        <time>2022-11-01T10:32:36.000Z</time>
      </trkpt>
      <trkpt lat="42.49368212185800075531005859375" lon="-8.65145000629127025604248046875">
        <ele>113.59999847412109375</ele>
        <time>2022-11-01T10:32:37.000Z</time>
      </trkpt>
      <trkpt lat="42.4937386997044086456298828125" lon="-8.65144413895905017852783203125">
        <ele>114</ele>
        <time>2022-11-01T10:32:38.000Z</time>
      </trkpt>
      <trkpt lat="42.49379343353211879730224609375" lon="-8.65144028328359127044677734375">
        <ele>114.1999969482421875</ele>
        <time>2022-11-01T10:32:39.000Z</time>
      </trkpt>
      <trkpt lat="42.49384774826467037200927734375" lon="-8.65143927745521068572998046875">
        <ele>114.1999969482421875</ele>
        <time>2022-11-01T10:32:40.000Z</time>
      </trkpt>
      <trkpt lat="42.49390223063528537750244140625" lon="-8.65143634378910064697265625">
        <ele>114.40000152587890625</ele>
        <time>2022-11-01T10:32:41.000Z</time>
      </trkpt>
      <trkpt lat="42.4939571321010589599609375" lon="-8.651431985199451446533203125">
        <ele>114.40000152587890625</ele>
        <time>2022-11-01T10:32:42.000Z</time>
      </trkpt>
      <trkpt lat="42.49401320703327655792236328125" lon="-8.6514277942478656768798828125">
        <ele>114.8000030517578125</ele>
        <time>2022-11-01T10:32:43.000Z</time>
      </trkpt>
      <trkpt lat="42.49407053925096988677978515625" lon="-8.65142427384853363037109375">
        <ele>115.1999969482421875</ele>
        <time>2022-11-01T10:32:44.000Z</time>
      </trkpt>
      <trkpt lat="42.494127452373504638671875" lon="-8.65142695605754852294921875">
        <ele>115.59999847412109375</ele>
        <time>2022-11-01T10:32:45.000Z</time>
      </trkpt>
      <trkpt lat="42.4941849522292613983154296875" lon="-8.65142670460045337677001953125">
        <ele>115.8000030517578125</ele>
        <time>2022-11-01T10:32:46.000Z</time>
      </trkpt>
      <trkpt lat="42.4942315556108951568603515625" lon="-8.651426620781421661376953125">
        <ele>116</ele>
        <time>2022-11-01T10:32:47.000Z</time>
      </trkpt>
      <trkpt lat="42.49428930692374706268310546875" lon="-8.65142553113400936126708984375">
        <ele>116.1999969482421875</ele>
        <time>2022-11-01T10:32:48.000Z</time>
      </trkpt>
      <trkpt lat="42.49435669742524623870849609375" lon="-8.65142293274402618408203125">
        <ele>116.40000152587890625</ele>
        <time>2022-11-01T10:32:49.000Z</time>
      </trkpt>
      <trkpt lat="42.4944132752716541290283203125" lon="-8.65142385475337505340576171875">
        <ele>116.40000152587890625</ele>
        <time>2022-11-01T10:32:50.000Z</time>
      </trkpt>
      <trkpt lat="42.49446817673742771148681640625" lon="-8.65142695605754852294921875">
        <ele>116.59999847412109375</ele>
        <time>2022-11-01T10:32:51.000Z</time>
      </trkpt>
      <trkpt lat="42.494512684643268585205078125" lon="-8.651428632438182830810546875">
        <ele>117</ele>
        <time>2022-11-01T10:32:52.000Z</time>
      </trkpt>
      <trkpt lat="42.49458032660186290740966796875" lon="-8.6514304764568805694580078125">
        <ele>117.1999969482421875</ele>
        <time>2022-11-01T10:32:53.000Z</time>
      </trkpt>
      <trkpt lat="42.494635395705699920654296875" lon="-8.65143290720880031585693359375">
        <ele>117.59999847412109375</ele>
        <time>2022-11-01T10:32:54.000Z</time>
      </trkpt>
      <trkpt lat="42.49469113536179065704345703125" lon="-8.6514358408749103546142578125">
        <ele>117.8000030517578125</ele>
        <time>2022-11-01T10:32:55.000Z</time>
      </trkpt>
      <trkpt lat="42.49474637210369110107421875" lon="-8.65143726579844951629638671875">
        <ele>118</ele>
        <time>2022-11-01T10:32:56.000Z</time>
      </trkpt>
      <trkpt lat="42.49480328522622585296630859375" lon="-8.6514370143413543701171875">
        <ele>118</ele>
        <time>2022-11-01T10:32:57.000Z</time>
      </trkpt>
      <trkpt lat="42.49486011452972888946533203125" lon="-8.65144112147390842437744140625">
        <ele>118.1999969482421875</ele>
        <time>2022-11-01T10:32:58.000Z</time>
      </trkpt>
      <trkpt lat="42.4949155189096927642822265625" lon="-8.6514458991587162017822265625">
        <ele>118.59999847412109375</ele>
        <time>2022-11-01T10:32:59.000Z</time>
      </trkpt>
      <trkpt lat="42.4949694983661174774169921875" lon="-8.651449419558048248291015625">
        <ele>118.8000030517578125</ele>
        <time>2022-11-01T10:33:00.000Z</time>
      </trkpt>
      <trkpt lat="42.49502456746995449066162109375" lon="-8.6514526046812534332275390625">
        <ele>118.8000030517578125</ele>
        <time>2022-11-01T10:33:01.000Z</time>
      </trkpt>
      <trkpt lat="42.4950787983834743499755859375" lon="-8.65145419724285602569580078125">
        <ele>118.8000030517578125</ele>
        <time>2022-11-01T10:33:02.000Z</time>
      </trkpt>
      <trkpt lat="42.4951337836682796478271484375" lon="-8.651456125080585479736328125">
        <ele>119</ele>
        <time>2022-11-01T10:33:03.000Z</time>
      </trkpt>
      <trkpt lat="42.49518885277211666107177734375" lon="-8.65145872347056865692138671875">
        <ele>119.40000152587890625</ele>
        <time>2022-11-01T10:33:04.000Z</time>
      </trkpt>
      <trkpt lat="42.49524400569498538970947265625" lon="-8.6514611542224884033203125">
        <ele>119.59999847412109375</ele>
        <time>2022-11-01T10:33:05.000Z</time>
      </trkpt>
      <trkpt lat="42.49529781751334667205810546875" lon="-8.65146358497440814971923828125">
        <ele>119.59999847412109375</ele>
        <time>2022-11-01T10:33:06.000Z</time>
      </trkpt>
      <trkpt lat="42.49535364098846912384033203125" lon="-8.65146777592599391937255859375">
        <ele>119.8000030517578125</ele>
        <time>2022-11-01T10:33:07.000Z</time>
      </trkpt>
      <trkpt lat="42.4954093806445598602294921875" lon="-8.65147213451564311981201171875">
        <ele>120</ele>
        <time>2022-11-01T10:33:08.000Z</time>
      </trkpt>
      <trkpt lat="42.49546512030065059661865234375" lon="-8.65147582255303859710693359375">
        <ele>120.40000152587890625</ele>
        <time>2022-11-01T10:33:09.000Z</time>
      </trkpt>
      <trkpt lat="42.49551951885223388671875" lon="-8.65147925913333892822265625">
        <ele>120.40000152587890625</ele>
        <time>2022-11-01T10:33:10.000Z</time>
      </trkpt>
      <trkpt lat="42.49556603841483592987060546875" lon="-8.65148185752332210540771484375">
        <ele>120.59999847412109375</ele>
        <time>2022-11-01T10:33:11.000Z</time>
      </trkpt>
      <trkpt lat="42.49563359655439853668212890625" lon="-8.65148403681814670562744140625">
        <ele>120.8000030517578125</ele>
        <time>2022-11-01T10:33:12.000Z</time>
      </trkpt>
      <trkpt lat="42.4956890009343624114990234375" lon="-8.65148453973233699798583984375">
        <ele>120.8000030517578125</ele>
        <time>2022-11-01T10:33:13.000Z</time>
      </trkpt>
      <trkpt lat="42.4957433156669139862060546875" lon="-8.65148596465587615966796875">
        <ele>121.40000152587890625</ele>
        <time>2022-11-01T10:33:14.000Z</time>
      </trkpt>
      <trkpt lat="42.4957852251827716827392578125" lon="-8.65148856304585933685302734375">
        <ele>121.40000152587890625</ele>
        <time>2022-11-01T10:33:15.000Z</time>
      </trkpt>
      <trkpt lat="42.49583861790597438812255859375" lon="-8.65149308927357196807861328125">
        <ele>121.8000030517578125</ele>
        <time>2022-11-01T10:33:16.000Z</time>
      </trkpt>
      <trkpt lat="42.4959019012749195098876953125" lon="-8.6514955200254917144775390625">
        <ele>122</ele>
        <time>2022-11-01T10:33:17.000Z</time>
      </trkpt>
      <trkpt lat="42.495955713093280792236328125" lon="-8.65149409510195255279541015625">
        <ele>122.1999969482421875</ele>
        <time>2022-11-01T10:33:18.000Z</time>
      </trkpt>
      <trkpt lat="42.4960076808929443359375" lon="-8.651494681835174560546875">
        <ele>122.40000152587890625</ele>
        <time>2022-11-01T10:33:19.000Z</time>
      </trkpt>
      <trkpt lat="42.49606023542582988739013671875" lon="-8.65149862132966518402099609375">
        <ele>122.59999847412109375</ele>
        <time>2022-11-01T10:33:20.000Z</time>
      </trkpt>
      <trkpt lat="42.4961136281490325927734375" lon="-8.65150398574769496917724609375">
        <ele>123</ele>
        <time>2022-11-01T10:33:21.000Z</time>
      </trkpt>
      <trkpt lat="42.4961667694151401519775390625" lon="-8.651512451469898223876953125">
        <ele>123.1999969482421875</ele>
        <time>2022-11-01T10:33:22.000Z</time>
      </trkpt>
      <trkpt lat="42.4962200783193111419677734375" lon="-8.65152418613433837890625">
        <ele>123.59999847412109375</ele>
        <time>2022-11-01T10:33:23.000Z</time>
      </trkpt>
      <trkpt lat="42.496274225413799285888671875" lon="-8.65153516642749309539794921875">
        <ele>123.8000030517578125</ele>
        <time>2022-11-01T10:33:24.000Z</time>
      </trkpt>
      <trkpt lat="42.4963179789483547210693359375" lon="-8.651543296873569488525390625">
        <ele>124</ele>
        <time>2022-11-01T10:33:25.000Z</time>
      </trkpt>
      <trkpt lat="42.49638260342180728912353515625" lon="-8.65155729465186595916748046875">
        <ele>124.1999969482421875</ele>
        <time>2022-11-01T10:33:26.000Z</time>
      </trkpt>
      <trkpt lat="42.4964363314211368560791015625" lon="-8.6515711247920989990234375">
        <ele>124.59999847412109375</ele>
        <time>2022-11-01T10:33:27.000Z</time>
      </trkpt>
      <trkpt lat="42.49649123288691043853759765625" lon="-8.6515873856842517852783203125">
        <ele>124.59999847412109375</ele>
        <time>2022-11-01T10:33:28.000Z</time>
      </trkpt>
      <trkpt lat="42.49653599224984645843505859375" lon="-8.651602976024150848388671875">
        <ele>124.59999847412109375</ele>
        <time>2022-11-01T10:33:29.000Z</time>
      </trkpt>
      <trkpt lat="42.4965910613536834716796875" lon="-8.65162200294435024261474609375">
        <ele>124.8000030517578125</ele>
        <time>2022-11-01T10:33:30.000Z</time>
      </trkpt>
      <trkpt lat="42.49665702693164348602294921875" lon="-8.6516475677490234375">
        <ele>124.8000030517578125</ele>
        <time>2022-11-01T10:33:31.000Z</time>
      </trkpt>
      <trkpt lat="42.4967102520167827606201171875" lon="-8.651671372354030609130859375">
        <ele>125</ele>
        <time>2022-11-01T10:33:32.000Z</time>
      </trkpt>
      <trkpt lat="42.49675400555133819580078125" lon="-8.65169056691229343414306640625">
        <ele>125</ele>
        <time>2022-11-01T10:33:33.000Z</time>
      </trkpt>
      <trkpt lat="42.49680899083614349365234375" lon="-8.65171805955469608306884765625">
        <ele>125</ele>
        <time>2022-11-01T10:33:34.000Z</time>
      </trkpt>
      <trkpt lat="42.4968725256621837615966796875" lon="-8.651753179728984832763671875">
        <ele>125</ele>
        <time>2022-11-01T10:33:35.000Z</time>
      </trkpt>
      <trkpt lat="42.4969224818050861358642578125" lon="-8.65178092382848262786865234375">
        <ele>125</ele>
        <time>2022-11-01T10:33:36.000Z</time>
      </trkpt>
      <trkpt lat="42.49697620980441570281982421875" lon="-8.65181051194667816162109375">
        <ele>125.1999969482421875</ele>
        <time>2022-11-01T10:33:37.000Z</time>
      </trkpt>
      <trkpt lat="42.49701820313930511474609375" lon="-8.6518364958465099334716796875">
        <ele>125.1999969482421875</ele>
        <time>2022-11-01T10:33:38.000Z</time>
      </trkpt>
      <trkpt lat="42.49707260169088840484619140625" lon="-8.65186952054500579833984375">
        <ele>125.40000152587890625</ele>
        <time>2022-11-01T10:33:39.000Z</time>
      </trkpt>
      <trkpt lat="42.49713898636400699615478515625" lon="-8.6519109271466732025146484375">
        <ele>125.40000152587890625</ele>
        <time>2022-11-01T10:33:40.000Z</time>
      </trkpt>
      <trkpt lat="42.4971940554678440093994140625" lon="-8.65194336511194705963134765625">
        <ele>125.40000152587890625</ele>
        <time>2022-11-01T10:33:41.000Z</time>
      </trkpt>
      <trkpt lat="42.49724996276199817657470703125" lon="-8.65197437815368175506591796875">
        <ele>125.40000152587890625</ele>
        <time>2022-11-01T10:33:42.000Z</time>
      </trkpt>
      <trkpt lat="42.49730587005615234375" lon="-8.6520051397383213043212890625">
        <ele>125.40000152587890625</ele>
        <time>2022-11-01T10:33:43.000Z</time>
      </trkpt>
      <trkpt lat="42.49736228026449680328369140625" lon="-8.6520366556942462921142578125">
        <ele>125.40000152587890625</ele>
        <time>2022-11-01T10:33:44.000Z</time>
      </trkpt>
      <trkpt lat="42.49741810373961925506591796875" lon="-8.65206959657371044158935546875">
        <ele>125.40000152587890625</ele>
        <time>2022-11-01T10:33:45.000Z</time>
      </trkpt>
      <trkpt lat="42.49747459776699542999267578125" lon="-8.65210161544382572174072265625">
        <ele>125.59999847412109375</ele>
        <time>2022-11-01T10:33:46.000Z</time>
      </trkpt>
      <trkpt lat="42.497533857822418212890625" lon="-8.65213162265717983245849609375">
        <ele>125.59999847412109375</ele>
        <time>2022-11-01T10:33:47.000Z</time>
      </trkpt>
      <trkpt lat="42.497591190040111541748046875" lon="-8.65216028876602649688720703125">
        <ele>125.59999847412109375</ele>
        <time>2022-11-01T10:33:48.000Z</time>
      </trkpt>
      <trkpt lat="42.497650869190692901611328125" lon="-8.65218778140842914581298828125">
        <ele>125.59999847412109375</ele>
        <time>2022-11-01T10:33:49.000Z</time>
      </trkpt>
      <trkpt lat="42.49771147035062313079833984375" lon="-8.65221359767019748687744140625">
        <ele>125.8000030517578125</ele>
        <time>2022-11-01T10:33:50.000Z</time>
      </trkpt>
      <trkpt lat="42.4977717362344264984130859375" lon="-8.6522384919226169586181640625">
        <ele>125.8000030517578125</ele>
        <time>2022-11-01T10:33:51.000Z</time>
      </trkpt>
      <trkpt lat="42.497833259403705596923828125" lon="-8.6522629670798778533935546875">
        <ele>125.8000030517578125</ele>
        <time>2022-11-01T10:33:52.000Z</time>
      </trkpt>
      <trkpt lat="42.49789469875395298004150390625" lon="-8.65228551439940929412841796875">
        <ele>125.8000030517578125</ele>
        <time>2022-11-01T10:33:53.000Z</time>
      </trkpt>
      <trkpt lat="42.4979564733803272247314453125" lon="-8.652305044233798980712890625">
        <ele>126</ele>
        <time>2022-11-01T10:33:54.000Z</time>
      </trkpt>
      <trkpt lat="42.49801875092089176177978515625" lon="-8.652322478592395782470703125">
        <ele>126</ele>
        <time>2022-11-01T10:33:55.000Z</time>
      </trkpt>
      <trkpt lat="42.49807977117598056793212890625" lon="-8.65233899094164371490478515625">
        <ele>126</ele>
        <time>2022-11-01T10:33:56.000Z</time>
      </trkpt>
      <trkpt lat="42.49814112670719623565673828125" lon="-8.6523531563580036163330078125">
        <ele>126</ele>
        <time>2022-11-01T10:33:57.000Z</time>
      </trkpt>
      <trkpt lat="42.49820181168615818023681640625" lon="-8.65236480720341205596923828125">
        <ele>126.1999969482421875</ele>
        <time>2022-11-01T10:33:58.000Z</time>
      </trkpt>
      <trkpt lat="42.49826299957931041717529296875" lon="-8.65237201564013957977294921875">
        <ele>126.40000152587890625</ele>
        <time>2022-11-01T10:33:59.000Z</time>
      </trkpt>
      <trkpt lat="42.49832368455827236175537109375" lon="-8.65237645804882049560546875">
        <ele>126.59999847412109375</ele>
        <time>2022-11-01T10:34:00.000Z</time>
      </trkpt>
      <trkpt lat="42.4983846209943294525146484375" lon="-8.65238106809556484222412109375">
        <ele>126.8000030517578125</ele>
        <time>2022-11-01T10:34:01.000Z</time>
      </trkpt>
      <trkpt lat="42.4984449706971645355224609375" lon="-8.652384169399738311767578125">
        <ele>126.8000030517578125</ele>
        <time>2022-11-01T10:34:02.000Z</time>
      </trkpt>
      <trkpt lat="42.498505823314189910888671875" lon="-8.652385510504245758056640625">
        <ele>126.8000030517578125</ele>
        <time>2022-11-01T10:34:03.000Z</time>
      </trkpt>
      <trkpt lat="42.49856407754123210906982421875" lon="-8.6523876897990703582763671875">
        <ele>126.8000030517578125</ele>
        <time>2022-11-01T10:34:04.000Z</time>
      </trkpt>
      <trkpt lat="42.49862275086343288421630859375" lon="-8.65238760598003864288330078125">
        <ele>127</ele>
        <time>2022-11-01T10:34:05.000Z</time>
      </trkpt>
      <trkpt lat="42.498679496347904205322265625" lon="-8.65238626487553119659423828125">
        <ele>127.1999969482421875</ele>
        <time>2022-11-01T10:34:06.000Z</time>
      </trkpt>
      <trkpt lat="42.498737834393978118896484375" lon="-8.65238341502845287322998046875">
        <ele>127.59999847412109375</ele>
        <time>2022-11-01T10:34:07.000Z</time>
      </trkpt>
      <trkpt lat="42.49879457987844944000244140625" lon="-8.65238408558070659637451171875">
        <ele>127.8000030517578125</ele>
        <time>2022-11-01T10:34:08.000Z</time>
      </trkpt>
      <trkpt lat="42.4988516606390476226806640625" lon="-8.652384169399738311767578125">
        <ele>128</ele>
        <time>2022-11-01T10:34:09.000Z</time>
      </trkpt>
      <trkpt lat="42.49890706501901149749755859375" lon="-8.65238576196134090423583984375">
        <ele>128.399993896484375</ele>
        <time>2022-11-01T10:34:10.000Z</time>
      </trkpt>
      <trkpt lat="42.49896221794188022613525390625" lon="-8.65238450467586517333984375">
        <ele>128.600006103515625</ele>
        <time>2022-11-01T10:34:11.000Z</time>
      </trkpt>
      <trkpt lat="42.4990172870457172393798828125" lon="-8.6523840017616748809814453125">
        <ele>129</ele>
        <time>2022-11-01T10:34:12.000Z</time>
      </trkpt>
      <trkpt lat="42.4990722723305225372314453125" lon="-8.65238442085683345794677734375">
        <ele>129.1999969482421875</ele>
        <time>2022-11-01T10:34:13.000Z</time>
      </trkpt>
      <trkpt lat="42.49912499450147151947021484375" lon="-8.65238810889422893524169921875">
        <ele>129.600006103515625</ele>
        <time>2022-11-01T10:34:14.000Z</time>
      </trkpt>
      <trkpt lat="42.4991767108440399169921875" lon="-8.6523890309035778045654296875">
        <ele>129.8000030517578125</ele>
        <time>2022-11-01T10:34:15.000Z</time>
      </trkpt>
      <trkpt lat="42.49922834336757659912109375" lon="-8.652390874922275543212890625">
        <ele>130</ele>
        <time>2022-11-01T10:34:16.000Z</time>
      </trkpt>
      <trkpt lat="42.4992824904620647430419921875" lon="-8.652395904064178466796875">
        <ele>130.1999969482421875</ele>
        <time>2022-11-01T10:34:17.000Z</time>
      </trkpt>
      <trkpt lat="42.49933605082333087921142578125" lon="-8.65240319631993770599365234375">
        <ele>130.399993896484375</ele>
        <time>2022-11-01T10:34:18.000Z</time>
      </trkpt>
      <trkpt lat="42.49938768334686756134033203125" lon="-8.65240973420441150665283203125">
        <ele>131</ele>
        <time>2022-11-01T10:34:19.000Z</time>
      </trkpt>
      <trkpt lat="42.4994414113461971282958984375" lon="-8.6524168588221073150634765625">
        <ele>131</ele>
        <time>2022-11-01T10:34:20.000Z</time>
      </trkpt>
      <trkpt lat="42.4994960613548755645751953125" lon="-8.65242616273462772369384765625">
        <ele>131.600006103515625</ele>
        <time>2022-11-01T10:34:21.000Z</time>
      </trkpt>
      <trkpt lat="42.49954911880195140838623046875" lon="-8.652440495789051055908203125">
        <ele>131.8000030517578125</ele>
        <time>2022-11-01T10:34:22.000Z</time>
      </trkpt>
      <trkpt lat="42.4996033497154712677001953125" lon="-8.65245365537703037261962890625">
        <ele>132.399993896484375</ele>
        <time>2022-11-01T10:34:23.000Z</time>
      </trkpt>
      <trkpt lat="42.4996556527912616729736328125" lon="-8.65246991626918315887451171875">
        <ele>132.600006103515625</ele>
        <time>2022-11-01T10:34:24.000Z</time>
      </trkpt>
      <trkpt lat="42.49970787204802036285400390625" lon="-8.65248835645616054534912109375">
        <ele>133</ele>
        <time>2022-11-01T10:34:25.000Z</time>
      </trkpt>
      <trkpt lat="42.499760091304779052734375" lon="-8.652506880462169647216796875">
        <ele>133.399993896484375</ele>
        <time>2022-11-01T10:34:26.000Z</time>
      </trkpt>
      <trkpt lat="42.4998115561902523040771484375" lon="-8.65252758376300334930419921875">
        <ele>133.399993896484375</ele>
        <time>2022-11-01T10:34:27.000Z</time>
      </trkpt>
      <trkpt lat="42.49986159615218639373779296875" lon="-8.6525526456534862518310546875">
        <ele>134</ele>
        <time>2022-11-01T10:34:28.000Z</time>
      </trkpt>
      <trkpt lat="42.4999114684760570526123046875" lon="-8.6525791324675083160400390625">
        <ele>134</ele>
        <time>2022-11-01T10:34:29.000Z</time>
      </trkpt>
      <trkpt lat="42.49996117316186428070068359375" lon="-8.65260855294764041900634765625">
        <ele>134.1999969482421875</ele>
        <time>2022-11-01T10:34:30.000Z</time>
      </trkpt>
      <trkpt lat="42.5000006519258022308349609375" lon="-8.65263470448553562164306640625">
        <ele>134.399993896484375</ele>
        <time>2022-11-01T10:34:31.000Z</time>
      </trkpt>
      <trkpt lat="42.50004918314516544342041015625" lon="-8.65266856737434864044189453125">
        <ele>134.600006103515625</ele>
        <time>2022-11-01T10:34:32.000Z</time>
      </trkpt>
      <trkpt lat="42.500108778476715087890625" lon="-8.65271039307117462158203125">
        <ele>135</ele>
        <time>2022-11-01T10:34:33.000Z</time>
      </trkpt>
      <trkpt lat="42.50015680678188800811767578125" lon="-8.65274903364479541778564453125">
        <ele>135.1999969482421875</ele>
        <time>2022-11-01T10:34:34.000Z</time>
      </trkpt>
      <trkpt lat="42.5002039968967437744140625" lon="-8.65279161371290683746337890625">
        <ele>135.399993896484375</ele>
        <time>2022-11-01T10:34:35.000Z</time>
      </trkpt>
      <trkpt lat="42.5002413801848888397216796875" lon="-8.65282497368752956390380859375">
        <ele>135.600006103515625</ele>
        <time>2022-11-01T10:34:36.000Z</time>
      </trkpt>
      <trkpt lat="42.5002963654696941375732421875" lon="-8.6528778634965419769287109375">
        <ele>135.8000030517578125</ele>
        <time>2022-11-01T10:34:37.000Z</time>
      </trkpt>
      <trkpt lat="42.5003406219184398651123046875" lon="-8.65292228758335113525390625">
        <ele>136.1999969482421875</ele>
        <time>2022-11-01T10:34:38.000Z</time>
      </trkpt>
      <trkpt lat="42.5003848783671855926513671875" lon="-8.652968220412731170654296875">
        <ele>136.600006103515625</ele>
        <time>2022-11-01T10:34:39.000Z</time>
      </trkpt>
      <trkpt lat="42.50041815452277660369873046875" lon="-8.65300686098635196685791015625">
        <ele>136.8000030517578125</ele>
        <time>2022-11-01T10:34:40.000Z</time>
      </trkpt>
      <trkpt lat="42.50045989640057086944580078125" lon="-8.6530570685863494873046875">
        <ele>137.1999969482421875</ele>
        <time>2022-11-01T10:34:41.000Z</time>
      </trkpt>
      <trkpt lat="42.50050029717385768890380859375" lon="-8.65310979075729846954345703125">
        <ele>137.399993896484375</ele>
        <time>2022-11-01T10:34:42.000Z</time>
      </trkpt>
      <trkpt lat="42.50054807402193546295166015625" lon="-8.65317416377365589141845703125">
        <ele>137.600006103515625</ele>
        <time>2022-11-01T10:34:43.000Z</time>
      </trkpt>
      <trkpt lat="42.50058746896684169769287109375" lon="-8.65322898142039775848388671875">
        <ele>138</ele>
        <time>2022-11-01T10:34:44.000Z</time>
      </trkpt>
      <trkpt lat="42.5006282888352870941162109375" lon="-8.6532848887145519256591796875">
        <ele>138.1999969482421875</ele>
        <time>2022-11-01T10:34:45.000Z</time>
      </trkpt>
      <trkpt lat="42.50066936016082763671875" lon="-8.653342723846435546875">
        <ele>138.600006103515625</ele>
        <time>2022-11-01T10:34:46.000Z</time>
      </trkpt>
      <trkpt lat="42.50071160495281219482421875" lon="-8.65340114571154117584228515625">
        <ele>138.600006103515625</ele>
        <time>2022-11-01T10:34:47.000Z</time>
      </trkpt>
      <trkpt lat="42.50075359828770160675048828125" lon="-8.6534593999385833740234375">
        <ele>138.8000030517578125</ele>
        <time>2022-11-01T10:34:48.000Z</time>
      </trkpt>
      <trkpt lat="42.50079768709838390350341796875" lon="-8.65351581014692783355712890625">
        <ele>138.8000030517578125</ele>
        <time>2022-11-01T10:34:49.000Z</time>
      </trkpt>
      <trkpt lat="42.50083507038652896881103515625" lon="-8.653558306396007537841796875">
        <ele>139</ele>
        <time>2022-11-01T10:34:50.000Z</time>
      </trkpt>
      <trkpt lat="42.500882931053638458251953125" lon="-8.65361605770885944366455078125">
        <ele>139.1999969482421875</ele>
        <time>2022-11-01T10:34:51.000Z</time>
      </trkpt>
      <trkpt lat="42.5009380839765071868896484375" lon="-8.65369216538965702056884765625">
        <ele>139.1999969482421875</ele>
        <time>2022-11-01T10:34:52.000Z</time>
      </trkpt>
      <trkpt lat="42.5009791553020477294921875" lon="-8.65376492030918598175048828125">
        <ele>139.1999969482421875</ele>
        <time>2022-11-01T10:34:53.000Z</time>
      </trkpt>
      <trkpt lat="42.5010151974856853485107421875" lon="-8.65384320728480815887451171875">
        <ele>139.399993896484375</ele>
        <time>2022-11-01T10:34:54.000Z</time>
      </trkpt>
      <trkpt lat="42.50103992410004138946533203125" lon="-8.6539128609001636505126953125">
        <ele>139.399993896484375</ele>
        <time>2022-11-01T10:34:55.000Z</time>
      </trkpt>
      <trkpt lat="42.50107060186564922332763671875" lon="-8.6540000326931476593017578125">
        <ele>139.399993896484375</ele>
        <time>2022-11-01T10:34:56.000Z</time>
      </trkpt>
      <trkpt lat="42.50110178254544734954833984375" lon="-8.65409047342836856842041015625">
        <ele>139.399993896484375</ele>
        <time>2022-11-01T10:34:57.000Z</time>
      </trkpt>
      <trkpt lat="42.501145116984844207763671875" lon="-8.65419910289347171783447265625">
        <ele>139.399993896484375</ele>
        <time>2022-11-01T10:34:58.000Z</time>
      </trkpt>
      <trkpt lat="42.501177974045276641845703125" lon="-8.65427319891750812530517578125">
        <ele>139.399993896484375</ele>
        <time>2022-11-01T10:34:59.000Z</time>
      </trkpt>
      <trkpt lat="42.5012218952178955078125" lon="-8.65436640568077564239501953125">
        <ele>139.399993896484375</ele>
        <time>2022-11-01T10:35:00.000Z</time>
      </trkpt>
      <trkpt lat="42.50126707367599010467529296875" lon="-8.6544617079198360443115234375">
        <ele>139.399993896484375</ele>
        <time>2022-11-01T10:35:01.000Z</time>
      </trkpt>
      <trkpt lat="42.50132138840854167938232421875" lon="-8.654575534164905548095703125">
        <ele>139.1999969482421875</ele>
        <time>2022-11-01T10:35:02.000Z</time>
      </trkpt>
      <trkpt lat="42.50136916525661945343017578125" lon="-8.65466840565204620361328125">
        <ele>139</ele>
        <time>2022-11-01T10:35:03.000Z</time>
      </trkpt>
      <trkpt lat="42.50140856020152568817138671875" lon="-8.6547423340380191802978515625">
        <ele>138.8000030517578125</ele>
        <time>2022-11-01T10:35:04.000Z</time>
      </trkpt>
      <trkpt lat="42.5014544092118740081787109375" lon="-8.65483797155320644378662109375">
        <ele>138.8000030517578125</ele>
        <time>2022-11-01T10:35:05.000Z</time>
      </trkpt>
      <trkpt lat="42.5015077181160449981689453125" lon="-8.65495380945503711700439453125">
        <ele>138.399993896484375</ele>
        <time>2022-11-01T10:35:06.000Z</time>
      </trkpt>
      <trkpt lat="42.5015506334602832794189453125" lon="-8.6550541408360004425048828125">
        <ele>138.1999969482421875</ele>
        <time>2022-11-01T10:35:07.000Z</time>
      </trkpt>
      <trkpt lat="42.50159162096679210662841796875" lon="-8.65515950135886669158935546875">
        <ele>138</ele>
        <time>2022-11-01T10:35:08.000Z</time>
      </trkpt>
      <trkpt lat="42.50162313692271709442138671875" lon="-8.6552462540566921234130859375">
        <ele>138</ele>
        <time>2022-11-01T10:35:09.000Z</time>
      </trkpt>
      <trkpt lat="42.50166772864758968353271484375" lon="-8.65537759847939014434814453125">
        <ele>138</ele>
        <time>2022-11-01T10:35:10.000Z</time>
      </trkpt>
      <trkpt lat="42.501700334250926971435546875" lon="-8.65548907779157161712646484375">
        <ele>138</ele>
        <time>2022-11-01T10:35:11.000Z</time>
      </trkpt>
      <trkpt lat="42.50172858126461505889892578125" lon="-8.65560256876051425933837890625">
        <ele>137.8000030517578125</ele>
        <time>2022-11-01T10:35:12.000Z</time>
      </trkpt>
      <trkpt lat="42.50175297260284423828125" lon="-8.6557199992239475250244140625">
        <ele>137.600006103515625</ele>
        <time>2022-11-01T10:35:13.000Z</time>
      </trkpt>
      <trkpt lat="42.50176898203790187835693359375" lon="-8.65581597201526165008544921875">
        <ele>137.600006103515625</ele>
        <time>2022-11-01T10:35:14.000Z</time>
      </trkpt>
      <trkpt lat="42.5017891824245452880859375" lon="-8.65596014074981212615966796875">
        <ele>137.399993896484375</ele>
        <time>2022-11-01T10:35:15.000Z</time>
      </trkpt>
      <trkpt lat="42.501797564327716827392578125" lon="-8.65608327090740203857421875">
        <ele>137.1999969482421875</ele>
        <time>2022-11-01T10:35:16.000Z</time>
      </trkpt>
      <trkpt lat="42.501800917088985443115234375" lon="-8.6562071554362773895263671875">
        <ele>137</ele>
        <time>2022-11-01T10:35:17.000Z</time>
      </trkpt>
      <trkpt lat="42.501800246536731719970703125" lon="-8.65633129142224788665771484375">
        <ele>137</ele>
        <time>2022-11-01T10:35:18.000Z</time>
      </trkpt>
      <trkpt lat="42.50179463066160678863525390625" lon="-8.65645685233175754547119140625">
        <ele>136.8000030517578125</ele>
        <time>2022-11-01T10:35:19.000Z</time>
      </trkpt>
      <trkpt lat="42.50178507529199123382568359375" lon="-8.65658408962190151214599609375">
        <ele>136.8000030517578125</ele>
        <time>2022-11-01T10:35:20.000Z</time>
      </trkpt>
      <trkpt lat="42.50177367590367794036865234375" lon="-8.6567110754549503326416015625">
        <ele>136.600006103515625</ele>
        <time>2022-11-01T10:35:21.000Z</time>
      </trkpt>
      <trkpt lat="42.501760013401508331298828125" lon="-8.6568363010883331298828125">
        <ele>136.399993896484375</ele>
        <time>2022-11-01T10:35:22.000Z</time>
      </trkpt>
      <trkpt lat="42.5017457641661167144775390625" lon="-8.65696446038782596588134765625">
        <ele>136.1999969482421875</ele>
        <time>2022-11-01T10:35:23.000Z</time>
      </trkpt>
      <trkpt lat="42.5017316825687885284423828125" lon="-8.6570939607918262481689453125">
        <ele>136.1999969482421875</ele>
        <time>2022-11-01T10:35:24.000Z</time>
      </trkpt>
      <trkpt lat="42.5017221271991729736328125" lon="-8.6572225391864776611328125">
        <ele>136</ele>
        <time>2022-11-01T10:35:25.000Z</time>
      </trkpt>
      <trkpt lat="42.50171399675309658050537109375" lon="-8.65735271014273166656494140625">
        <ele>135.8000030517578125</ele>
        <time>2022-11-01T10:35:26.000Z</time>
      </trkpt>
      <trkpt lat="42.50170896761119365692138671875" lon="-8.65747961215674877166748046875">
        <ele>135.8000030517578125</ele>
        <time>2022-11-01T10:35:27.000Z</time>
      </trkpt>
      <trkpt lat="42.50170779414474964141845703125" lon="-8.657607771456241607666015625">
        <ele>135.600006103515625</ele>
        <time>2022-11-01T10:35:28.000Z</time>
      </trkpt>
      <trkpt lat="42.5017105601727962493896484375" lon="-8.65773559547960758209228515625">
        <ele>135.600006103515625</ele>
        <time>2022-11-01T10:35:29.000Z</time>
      </trkpt>
      <trkpt lat="42.50171869061887264251708984375" lon="-8.65786333568394184112548828125">
        <ele>135.399993896484375</ele>
        <time>2022-11-01T10:35:30.000Z</time>
      </trkpt>
      <trkpt lat="42.50172992236912250518798828125" lon="-8.6579901538789272308349609375">
        <ele>135.399993896484375</ele>
        <time>2022-11-01T10:35:31.000Z</time>
      </trkpt>
      <trkpt lat="42.50174517743289470672607421875" lon="-8.6581145413219928741455078125">
        <ele>135.399993896484375</ele>
        <time>2022-11-01T10:35:32.000Z</time>
      </trkpt>
      <trkpt lat="42.5017623603343963623046875" lon="-8.65823440253734588623046875">
        <ele>135.1999969482421875</ele>
        <time>2022-11-01T10:35:33.000Z</time>
      </trkpt>
      <trkpt lat="42.50178406946361064910888671875" lon="-8.6583535932004451751708984375">
        <ele>135.1999969482421875</ele>
        <time>2022-11-01T10:35:34.000Z</time>
      </trkpt>
      <trkpt lat="42.501810975372791290283203125" lon="-8.65847177803516387939453125">
        <ele>135.1999969482421875</ele>
        <time>2022-11-01T10:35:35.000Z</time>
      </trkpt>
      <trkpt lat="42.5018419884145259857177734375" lon="-8.65858711302280426025390625">
        <ele>135.1999969482421875</ele>
        <time>2022-11-01T10:35:36.000Z</time>
      </trkpt>
      <trkpt lat="42.50187526457011699676513671875" lon="-8.65869884379208087921142578125">
        <ele>135.399993896484375</ele>
        <time>2022-11-01T10:35:37.000Z</time>
      </trkpt>
      <trkpt lat="42.5019098818302154541015625" lon="-8.65880579687654972076416015625">
        <ele>135.600006103515625</ele>
        <time>2022-11-01T10:35:38.000Z</time>
      </trkpt>
      <trkpt lat="42.50194684602320194244384765625" lon="-8.65890721790492534637451171875">
        <ele>135.8000030517578125</ele>
        <time>2022-11-01T10:35:39.000Z</time>
      </trkpt>
      <trkpt lat="42.501985318958759307861328125" lon="-8.659001849591732025146484375">
        <ele>136</ele>
        <time>2022-11-01T10:35:40.000Z</time>
      </trkpt>
      <trkpt lat="42.5020252168178558349609375" lon="-8.6590928770601749420166015625">
        <ele>136.1999969482421875</ele>
        <time>2022-11-01T10:35:41.000Z</time>
      </trkpt>
      <trkpt lat="42.5020656175911426544189453125" lon="-8.6591805517673492431640625">
        <ele>136.399993896484375</ele>
        <time>2022-11-01T10:35:42.000Z</time>
      </trkpt>
      <trkpt lat="42.50210811384022235870361328125" lon="-8.659264035522937774658203125">
        <ele>136.600006103515625</ele>
        <time>2022-11-01T10:35:43.000Z</time>
      </trkpt>
      <trkpt lat="42.50215186737477779388427734375" lon="-8.65934374742209911346435546875">
        <ele>136.8000030517578125</ele>
        <time>2022-11-01T10:35:44.000Z</time>
      </trkpt>
      <trkpt lat="42.502197213470935821533203125" lon="-8.65941884927451610565185546875">
        <ele>137</ele>
        <time>2022-11-01T10:35:45.000Z</time>
      </trkpt>
      <trkpt lat="42.50224314630031585693359375" lon="-8.65949311293661594390869140625">
        <ele>137.399993896484375</ele>
        <time>2022-11-01T10:35:46.000Z</time>
      </trkpt>
      <trkpt lat="42.50228866003453731536865234375" lon="-8.659563101828098297119140625">
        <ele>137.8000030517578125</ele>
        <time>2022-11-01T10:35:47.000Z</time>
      </trkpt>
      <trkpt lat="42.50233543105423450469970703125" lon="-8.659631498157978057861328125">
        <ele>138.1999969482421875</ele>
        <time>2022-11-01T10:35:48.000Z</time>
      </trkpt>
      <trkpt lat="42.50238236971199512481689453125" lon="-8.65969754755496978759765625">
        <ele>138.600006103515625</ele>
        <time>2022-11-01T10:35:49.000Z</time>
      </trkpt>
      <trkpt lat="42.50242947600781917572021484375" lon="-8.659761585295200347900390625">
        <ele>139.1999969482421875</ele>
        <time>2022-11-01T10:35:50.000Z</time>
      </trkpt>
      <trkpt lat="42.502475492656230926513671875" lon="-8.65982386283576488494873046875">
        <ele>139.8000030517578125</ele>
        <time>2022-11-01T10:35:51.000Z</time>
      </trkpt>
      <trkpt lat="42.50252251513302326202392578125" lon="-8.65988471545279026031494140625">
        <ele>140</ele>
        <time>2022-11-01T10:35:52.000Z</time>
      </trkpt>
      <trkpt lat="42.5025698728859424591064453125" lon="-8.65994632244110107421875">
        <ele>140.399993896484375</ele>
        <time>2022-11-01T10:35:53.000Z</time>
      </trkpt>
      <trkpt lat="42.5026181526482105255126953125" lon="-8.660008013248443603515625">
        <ele>140.600006103515625</ele>
        <time>2022-11-01T10:35:54.000Z</time>
      </trkpt>
      <trkpt lat="42.5026660971343517303466796875" lon="-8.6600683629512786865234375">
        <ele>141.1999969482421875</ele>
        <time>2022-11-01T10:35:55.000Z</time>
      </trkpt>
      <trkpt lat="42.5027137063443660736083984375" lon="-8.66012879647314548492431640625">
        <ele>141.600006103515625</ele>
        <time>2022-11-01T10:35:56.000Z</time>
      </trkpt>
      <trkpt lat="42.502761147916316986083984375" lon="-8.66019031964242458343505859375">
        <ele>142</ele>
        <time>2022-11-01T10:35:57.000Z</time>
      </trkpt>
      <trkpt lat="42.50280909240245819091796875" lon="-8.66025100462138652801513671875">
        <ele>142</ele>
        <time>2022-11-01T10:35:58.000Z</time>
      </trkpt>
      <trkpt lat="42.5028588809072971343994140625" lon="-8.6603092588484287261962890625">
        <ele>142.399993896484375</ele>
        <time>2022-11-01T10:35:59.000Z</time>
      </trkpt>
      <trkpt lat="42.50290875323116779327392578125" lon="-8.66036902181804180145263671875">
        <ele>143.1999969482421875</ele>
        <time>2022-11-01T10:36:00.000Z</time>
      </trkpt>
      <trkpt lat="42.5029577873647212982177734375" lon="-8.660432137548923492431640625">
        <ele>143.8000030517578125</ele>
        <time>2022-11-01T10:36:01.000Z</time>
      </trkpt>
      <trkpt lat="42.5030087493360042572021484375" lon="-8.66049743257462978363037109375">
        <ele>144.399993896484375</ele>
        <time>2022-11-01T10:36:02.000Z</time>
      </trkpt>
      <trkpt lat="42.5030603818595409393310546875" lon="-8.66056147031486034393310546875">
        <ele>144.600006103515625</ele>
        <time>2022-11-01T10:36:03.000Z</time>
      </trkpt>
      <trkpt lat="42.50311218202114105224609375" lon="-8.66062416695058345794677734375">
        <ele>144.8000030517578125</ele>
        <time>2022-11-01T10:36:04.000Z</time>
      </trkpt>
      <trkpt lat="42.5031643174588680267333984375" lon="-8.6606881208717823028564453125">
        <ele>145</ele>
        <time>2022-11-01T10:36:05.000Z</time>
      </trkpt>
      <trkpt lat="42.50321519561111927032470703125" lon="-8.6607508175075054168701171875">
        <ele>145.1999969482421875</ele>
        <time>2022-11-01T10:36:06.000Z</time>
      </trkpt>
      <trkpt lat="42.5032655708491802215576171875" lon="-8.66081376560032367706298828125">
        <ele>145.1999969482421875</ele>
        <time>2022-11-01T10:36:07.000Z</time>
      </trkpt>
      <trkpt lat="42.5033168680965900421142578125" lon="-8.66087612695991992950439453125">
        <ele>145.600006103515625</ele>
        <time>2022-11-01T10:36:08.000Z</time>
      </trkpt>
      <trkpt lat="42.50336908735334873199462890625" lon="-8.6609365604817867279052734375">
        <ele>146</ele>
        <time>2022-11-01T10:36:09.000Z</time>
      </trkpt>
      <trkpt lat="42.50342021696269512176513671875" lon="-8.66099749691784381866455078125">
        <ele>146.1999969482421875</ele>
        <time>2022-11-01T10:36:10.000Z</time>
      </trkpt>
      <trkpt lat="42.50347025692462921142578125" lon="-8.6610607802867889404296875">
        <ele>146.399993896484375</ele>
        <time>2022-11-01T10:36:11.000Z</time>
      </trkpt>
      <trkpt lat="42.5035200454294681549072265625" lon="-8.66112356074154376983642578125">
        <ele>146.600006103515625</ele>
        <time>2022-11-01T10:36:12.000Z</time>
      </trkpt>
      <trkpt lat="42.50356975011527538299560546875" lon="-8.66118692792952060699462890625">
        <ele>147</ele>
        <time>2022-11-01T10:36:13.000Z</time>
      </trkpt>
      <trkpt lat="42.503620795905590057373046875" lon="-8.66124845109879970550537109375">
        <ele>147.399993896484375</ele>
        <time>2022-11-01T10:36:14.000Z</time>
      </trkpt>
      <trkpt lat="42.503670416772365570068359375" lon="-8.66130888462066650390625">
        <ele>148</ele>
        <time>2022-11-01T10:36:15.000Z</time>
      </trkpt>
      <trkpt lat="42.50372095964848995208740234375" lon="-8.661371581256389617919921875">
        <ele>148.399993896484375</ele>
        <time>2022-11-01T10:36:16.000Z</time>
      </trkpt>
      <trkpt lat="42.50377225689589977264404296875" lon="-8.66143452934920787811279296875">
        <ele>148.8000030517578125</ele>
        <time>2022-11-01T10:36:17.000Z</time>
      </trkpt>
      <trkpt lat="42.5038227997720241546630859375" lon="-8.661496974527835845947265625">
        <ele>149.399993896484375</ele>
        <time>2022-11-01T10:36:18.000Z</time>
      </trkpt>
      <trkpt lat="42.50387300737202167510986328125" lon="-8.6615596711635589599609375">
        <ele>149.399993896484375</ele>
        <time>2022-11-01T10:36:19.000Z</time>
      </trkpt>
      <trkpt lat="42.50392296351492404937744140625" lon="-8.661621697247028350830078125">
        <ele>149.8000030517578125</ele>
        <time>2022-11-01T10:36:20.000Z</time>
      </trkpt>
      <trkpt lat="42.50397359021008014678955078125" lon="-8.6616859026253223419189453125">
        <ele>150</ele>
        <time>2022-11-01T10:36:21.000Z</time>
      </trkpt>
      <trkpt lat="42.504024468362331390380859375" lon="-8.66175019182264804840087890625">
        <ele>150.1999969482421875</ele>
        <time>2022-11-01T10:36:22.000Z</time>
      </trkpt>
      <trkpt lat="42.504074759781360626220703125" lon="-8.6618129722774028778076171875">
        <ele>150.1999969482421875</ele>
        <time>2022-11-01T10:36:23.000Z</time>
      </trkpt>
      <trkpt lat="42.50412396155297756195068359375" lon="-8.66187508217990398406982421875">
        <ele>150.600006103515625</ele>
        <time>2022-11-01T10:36:24.000Z</time>
      </trkpt>
      <trkpt lat="42.5041741691529750823974609375" lon="-8.66193710826337337493896484375">
        <ele>150.8000030517578125</ele>
        <time>2022-11-01T10:36:25.000Z</time>
      </trkpt>
      <trkpt lat="42.50422454439103603363037109375" lon="-8.66200064308941364288330078125">
        <ele>151</ele>
        <time>2022-11-01T10:36:26.000Z</time>
      </trkpt>
      <trkpt lat="42.5042754225432872772216796875" lon="-8.66206535138189792633056640625">
        <ele>151</ele>
        <time>2022-11-01T10:36:27.000Z</time>
      </trkpt>
      <trkpt lat="42.50432680360972881317138671875" lon="-8.66213005967438220977783203125">
        <ele>151.1999969482421875</ele>
        <time>2022-11-01T10:36:28.000Z</time>
      </trkpt>
      <trkpt lat="42.5043775141239166259765625" lon="-8.6621945165097713470458984375">
        <ele>151.600006103515625</ele>
        <time>2022-11-01T10:36:29.000Z</time>
      </trkpt>
      <trkpt lat="42.50442788936197757720947265625" lon="-8.662258721888065338134765625">
        <ele>152</ele>
        <time>2022-11-01T10:36:30.000Z</time>
      </trkpt>
      <trkpt lat="42.50447885133326053619384765625" lon="-8.66232301108539104461669921875">
        <ele>152.399993896484375</ele>
        <time>2022-11-01T10:36:31.000Z</time>
      </trkpt>
      <trkpt lat="42.50452972948551177978515625" lon="-8.66238780319690704345703125">
        <ele>152.600006103515625</ele>
        <time>2022-11-01T10:36:32.000Z</time>
      </trkpt>
      <trkpt lat="42.50458094291388988494873046875" lon="-8.66245091892778873443603515625">
        <ele>152.8000030517578125</ele>
        <time>2022-11-01T10:36:33.000Z</time>
      </trkpt>
      <trkpt lat="42.50463156960904598236083984375" lon="-8.66251361556351184844970703125">
        <ele>153</ele>
        <time>2022-11-01T10:36:34.000Z</time>
      </trkpt>
      <trkpt lat="42.50468303449451923370361328125" lon="-8.6625767312943935394287109375">
        <ele>153.399993896484375</ele>
        <time>2022-11-01T10:36:35.000Z</time>
      </trkpt>
      <trkpt lat="42.5047337450087070465087890625" lon="-8.66264051757752895355224609375">
        <ele>153.399993896484375</ele>
        <time>2022-11-01T10:36:36.000Z</time>
      </trkpt>
      <trkpt lat="42.50478512607514858245849609375" lon="-8.66270522587001323699951171875">
        <ele>154</ele>
        <time>2022-11-01T10:36:37.000Z</time>
      </trkpt>
      <trkpt lat="42.50483575277030467987060546875" lon="-8.66277077235281467437744140625">
        <ele>154.8000030517578125</ele>
        <time>2022-11-01T10:36:38.000Z</time>
      </trkpt>
      <trkpt lat="42.50488512217998504638671875" lon="-8.66283548064529895782470703125">
        <ele>155</ele>
        <time>2022-11-01T10:36:39.000Z</time>
      </trkpt>
      <trkpt lat="42.50493432395160198211669921875" lon="-8.66290069185197353363037109375">
        <ele>155.1999969482421875</ele>
        <time>2022-11-01T10:36:40.000Z</time>
      </trkpt>
      <trkpt lat="42.504984028637409210205078125" lon="-8.66296506486833095550537109375">
        <ele>155.399993896484375</ele>
        <time>2022-11-01T10:36:41.000Z</time>
      </trkpt>
      <trkpt lat="42.50503373332321643829345703125" lon="-8.66302910260856151580810546875">
        <ele>155.600006103515625</ele>
        <time>2022-11-01T10:36:42.000Z</time>
      </trkpt>
      <trkpt lat="42.50508301891386508941650390625" lon="-8.66309464909136295318603515625">
        <ele>156</ele>
        <time>2022-11-01T10:36:43.000Z</time>
      </trkpt>
      <trkpt lat="42.50513213686645030975341796875" lon="-8.66316086612641811370849609375">
        <ele>156.1999969482421875</ele>
        <time>2022-11-01T10:36:44.000Z</time>
      </trkpt>
      <trkpt lat="42.5051806680858135223388671875" lon="-8.66322641260921955108642578125">
        <ele>156.399993896484375</ele>
        <time>2022-11-01T10:36:45.000Z</time>
      </trkpt>
      <trkpt lat="42.50522970221936702728271484375" lon="-8.663294054567813873291015625">
        <ele>156.600006103515625</ele>
        <time>2022-11-01T10:36:46.000Z</time>
      </trkpt>
      <trkpt lat="42.50527982600033283233642578125" lon="-8.663363792002201080322265625">
        <ele>157</ele>
        <time>2022-11-01T10:36:47.000Z</time>
      </trkpt>
      <trkpt lat="42.50533028505742549896240234375" lon="-8.66343294270336627960205078125">
        <ele>157.1999969482421875</ele>
        <time>2022-11-01T10:36:48.000Z</time>
      </trkpt>
      <trkpt lat="42.50538208521902561187744140625" lon="-8.66350418888032436370849609375">
        <ele>157.399993896484375</ele>
        <time>2022-11-01T10:36:49.000Z</time>
      </trkpt>
      <trkpt lat="42.50543103553354740142822265625" lon="-8.6635785363614559173583984375">
        <ele>157.600006103515625</ele>
        <time>2022-11-01T10:36:50.000Z</time>
      </trkpt>
      <trkpt lat="42.505479566752910614013671875" lon="-8.6636556498706340789794921875">
        <ele>157.600006103515625</ele>
        <time>2022-11-01T10:36:51.000Z</time>
      </trkpt>
      <trkpt lat="42.5055273436009883880615234375" lon="-8.6637376248836517333984375">
        <ele>157.8000030517578125</ele>
        <time>2022-11-01T10:36:52.000Z</time>
      </trkpt>
      <trkpt lat="42.505577467381954193115234375" lon="-8.6638207733631134033203125">
        <ele>158</ele>
        <time>2022-11-01T10:36:53.000Z</time>
      </trkpt>
      <trkpt lat="42.50562851317226886749267578125" lon="-8.66390601731836795806884765625">
        <ele>158</ele>
        <time>2022-11-01T10:36:54.000Z</time>
      </trkpt>
      <trkpt lat="42.50567897222936153411865234375" lon="-8.66399486549198627471923828125">
        <ele>158.1999969482421875</ele>
        <time>2022-11-01T10:36:55.000Z</time>
      </trkpt>
      <trkpt lat="42.50572775490581989288330078125" lon="-8.66408823989331722259521484375">
        <ele>158.1999969482421875</ele>
        <time>2022-11-01T10:36:56.000Z</time>
      </trkpt>
      <trkpt lat="42.5057751126587390899658203125" lon="-8.66418546997010707855224609375">
        <ele>158.1999969482421875</ele>
        <time>2022-11-01T10:36:57.000Z</time>
      </trkpt>
      <trkpt lat="42.5058259069919586181640625" lon="-8.66428471170365810394287109375">
        <ele>158.1999969482421875</ele>
        <time>2022-11-01T10:36:58.000Z</time>
      </trkpt>
      <trkpt lat="42.50587753951549530029296875" lon="-8.66438613273203372955322265625">
        <ele>158.1999969482421875</ele>
        <time>2022-11-01T10:36:59.000Z</time>
      </trkpt>
      <trkpt lat="42.50593126751482486724853515625" lon="-8.664491660892963409423828125">
        <ele>158.1999969482421875</ele>
        <time>2022-11-01T10:37:00.000Z</time>
      </trkpt>
      <trkpt lat="42.50598776154220104217529296875" lon="-8.66459886543452739715576171875">
        <ele>158.1999969482421875</ele>
        <time>2022-11-01T10:37:01.000Z</time>
      </trkpt>
      <trkpt lat="42.50604677014052867889404296875" lon="-8.66470783017575740814208984375">
        <ele>157.8000030517578125</ele>
        <time>2022-11-01T10:37:02.000Z</time>
      </trkpt>
      <trkpt lat="42.5061056949198246002197265625" lon="-8.66481964476406574249267578125">
        <ele>157.399993896484375</ele>
        <time>2022-11-01T10:37:03.000Z</time>
      </trkpt>
      <trkpt lat="42.50616696663200855255126953125" lon="-8.664932548999786376953125">
        <ele>157.1999969482421875</ele>
        <time>2022-11-01T10:37:04.000Z</time>
      </trkpt>
      <trkpt lat="42.50622932799160480499267578125" lon="-8.66504612378776073455810546875">
        <ele>157</ele>
        <time>2022-11-01T10:37:05.000Z</time>
      </trkpt>
      <trkpt lat="42.506291605532169342041015625" lon="-8.66516095586121082305908203125">
        <ele>156.600006103515625</ele>
        <time>2022-11-01T10:37:06.000Z</time>
      </trkpt>
      <trkpt lat="42.50635229051113128662109375" lon="-8.6652770452201366424560546875">
        <ele>156.1999969482421875</ele>
        <time>2022-11-01T10:37:07.000Z</time>
      </trkpt>
      <trkpt lat="42.50641289167106151580810546875" lon="-8.66539321839809417724609375">
        <ele>156</ele>
        <time>2022-11-01T10:37:08.000Z</time>
      </trkpt>
      <trkpt lat="42.5064734928309917449951171875" lon="-8.66550914011895656585693359375">
        <ele>154.8000030517578125</ele>
        <time>2022-11-01T10:37:09.000Z</time>
      </trkpt>
      <trkpt lat="42.50653375871479511260986328125" lon="-8.66562296636402606964111328125">
        <ele>154.600006103515625</ele>
        <time>2022-11-01T10:37:10.000Z</time>
      </trkpt>
      <trkpt lat="42.50658052973449230194091796875" lon="-8.66571499966084957122802734375">
        <ele>154.1999969482421875</ele>
        <time>2022-11-01T10:37:11.000Z</time>
      </trkpt>
      <trkpt lat="42.50663819722831249237060546875" lon="-8.66582999937236309051513671875">
        <ele>154.1999969482421875</ele>
        <time>2022-11-01T10:37:12.000Z</time>
      </trkpt>
      <trkpt lat="42.5067041628062725067138671875" lon="-8.66597148589789867401123046875">
        <ele>154</ele>
        <time>2022-11-01T10:37:13.000Z</time>
      </trkpt>
      <trkpt lat="42.50675537623465061187744140625" lon="-8.6660897545516490936279296875">
        <ele>154</ele>
        <time>2022-11-01T10:37:14.000Z</time>
      </trkpt>
      <trkpt lat="42.50680499710142612457275390625" lon="-8.66620726883411407470703125">
        <ele>154.1999969482421875</ele>
        <time>2022-11-01T10:37:15.000Z</time>
      </trkpt>
      <trkpt lat="42.5068424642086029052734375" lon="-8.6663033254444599151611328125">
        <ele>154</ele>
        <time>2022-11-01T10:37:16.000Z</time>
      </trkpt>
      <trkpt lat="42.5068852119147777557373046875" lon="-8.66642720997333526611328125">
        <ele>154</ele>
        <time>2022-11-01T10:37:17.000Z</time>
      </trkpt>
      <trkpt lat="42.50693374313414096832275390625" lon="-8.66658001206815242767333984375">
        <ele>153.8000030517578125</ele>
        <time>2022-11-01T10:37:18.000Z</time>
      </trkpt>
      <trkpt lat="42.50697146169841289520263671875" lon="-8.66671018302440643310546875">
        <ele>153.399993896484375</ele>
        <time>2022-11-01T10:37:19.000Z</time>
      </trkpt>
      <trkpt lat="42.5070059113204479217529296875" lon="-8.66684203036129474639892578125">
        <ele>153.600006103515625</ele>
        <time>2022-11-01T10:37:20.000Z</time>
      </trkpt>
      <trkpt lat="42.50704027712345123291015625" lon="-8.66697438061237335205078125">
        <ele>153.600006103515625</ele>
        <time>2022-11-01T10:37:21.000Z</time>
      </trkpt>
      <trkpt lat="42.5070758163928985595703125" lon="-8.66710689850151538848876953125">
        <ele>153.1999969482421875</ele>
        <time>2022-11-01T10:37:22.000Z</time>
      </trkpt>
      <trkpt lat="42.50711026601493358612060546875" lon="-8.66724100895226001739501953125">
        <ele>153</ele>
        <time>2022-11-01T10:37:23.000Z</time>
      </trkpt>
      <trkpt lat="42.5071443803608417510986328125" lon="-8.6673765443265438079833984375">
        <ele>152.399993896484375</ele>
        <time>2022-11-01T10:37:24.000Z</time>
      </trkpt>
      <trkpt lat="42.50718017108738422393798828125" lon="-8.66751174442470073699951171875">
        <ele>152.399993896484375</ele>
        <time>2022-11-01T10:37:25.000Z</time>
      </trkpt>
      <trkpt lat="42.50721571035683155059814453125" lon="-8.6676467768847942352294921875">
        <ele>152.1999969482421875</ele>
        <time>2022-11-01T10:37:26.000Z</time>
      </trkpt>
      <trkpt lat="42.5072523392736911773681640625" lon="-8.6677812226116657257080078125">
        <ele>152</ele>
        <time>2022-11-01T10:37:27.000Z</time>
      </trkpt>
      <trkpt lat="42.50728704035282135009765625" lon="-8.6679160036146640777587890625">
        <ele>152</ele>
        <time>2022-11-01T10:37:28.000Z</time>
      </trkpt>
      <trkpt lat="42.50732048414647579193115234375" lon="-8.66805003024637699127197265625">
        <ele>152</ele>
        <time>2022-11-01T10:37:29.000Z</time>
      </trkpt>
      <trkpt lat="42.50735619105398654937744140625" lon="-8.66818145848810672760009765625">
        <ele>152</ele>
        <time>2022-11-01T10:37:30.000Z</time>
      </trkpt>
      <trkpt lat="42.507390640676021575927734375" lon="-8.6683139763772487640380859375">
        <ele>151.8000030517578125</ele>
        <time>2022-11-01T10:37:31.000Z</time>
      </trkpt>
      <trkpt lat="42.50742592848837375640869140625" lon="-8.668445907533168792724609375">
        <ele>151.8000030517578125</ele>
        <time>2022-11-01T10:37:32.000Z</time>
      </trkpt>
      <trkpt lat="42.5074575282633304595947265625" lon="-8.66857775487005710601806640625">
        <ele>151.600006103515625</ele>
        <time>2022-11-01T10:37:33.000Z</time>
      </trkpt>
      <trkpt lat="42.50748661346733570098876953125" lon="-8.66871052421629428863525390625">
        <ele>151.399993896484375</ele>
        <time>2022-11-01T10:37:34.000Z</time>
      </trkpt>
      <trkpt lat="42.507511675357818603515625" lon="-8.6688450537621974945068359375">
        <ele>151.1999969482421875</ele>
        <time>2022-11-01T10:37:35.000Z</time>
      </trkpt>
      <trkpt lat="42.50753455795347690582275390625" lon="-8.66898008622229099273681640625">
        <ele>151.1999969482421875</ele>
        <time>2022-11-01T10:37:36.000Z</time>
      </trkpt>
      <trkpt lat="42.50755467452108860015869140625" lon="-8.66911612451076507568359375">
        <ele>151.1999969482421875</ele>
        <time>2022-11-01T10:37:37.000Z</time>
      </trkpt>
      <trkpt lat="42.5075691752135753631591796875" lon="-8.669253252446651458740234375">
        <ele>151.1999969482421875</ele>
        <time>2022-11-01T10:37:38.000Z</time>
      </trkpt>
      <trkpt lat="42.5075785629451274871826171875" lon="-8.66939130239188671112060546875">
        <ele>151.1999969482421875</ele>
        <time>2022-11-01T10:37:39.000Z</time>
      </trkpt>
      <trkpt lat="42.507583089172840118408203125" lon="-8.669502697885036468505859375">
        <ele>151</ele>
        <time>2022-11-01T10:37:40.000Z</time>
      </trkpt>
      <trkpt lat="42.50758836977183818817138671875" lon="-8.669668324291706085205078125">
        <ele>151</ele>
        <time>2022-11-01T10:37:41.000Z</time>
      </trkpt>
      <trkpt lat="42.50759155489504337310791015625" lon="-8.66980545222759246826171875">
        <ele>150.8000030517578125</ele>
        <time>2022-11-01T10:37:42.000Z</time>
      </trkpt>
      <trkpt lat="42.50759457238018512725830078125" lon="-8.6699415743350982666015625">
        <ele>150.8000030517578125</ele>
        <time>2022-11-01T10:37:43.000Z</time>
      </trkpt>
      <trkpt lat="42.5075993500649929046630859375" lon="-8.6700778640806674957275390625">
        <ele>150.399993896484375</ele>
        <time>2022-11-01T10:37:44.000Z</time>
      </trkpt>
      <trkpt lat="42.50760680995881557464599609375" lon="-8.67021356709301471710205078125">
        <ele>150.399993896484375</ele>
        <time>2022-11-01T10:37:45.000Z</time>
      </trkpt>
      <trkpt lat="42.50761418603360652923583984375" lon="-8.67034859955310821533203125">
        <ele>150.1999969482421875</ele>
        <time>2022-11-01T10:37:46.000Z</time>
      </trkpt>
      <trkpt lat="42.50762575305998325347900390625" lon="-8.67048363201320171356201171875">
        <ele>150.1999969482421875</ele>
        <time>2022-11-01T10:37:47.000Z</time>
      </trkpt>
      <trkpt lat="42.5076402537524700164794921875" lon="-8.67059125564992427825927734375">
        <ele>150.1999969482421875</ele>
        <time>2022-11-01T10:37:48.000Z</time>
      </trkpt>
      <trkpt lat="42.5076640583574771881103515625" lon="-8.67072544991970062255859375">
        <ele>149.8000030517578125</ele>
        <time>2022-11-01T10:37:49.000Z</time>
      </trkpt>
      <trkpt lat="42.50769498758018016815185546875" lon="-8.6708838678896427154541015625">
        <ele>149.8000030517578125</ele>
        <time>2022-11-01T10:37:50.000Z</time>
      </trkpt>
      <trkpt lat="42.50772063620388507843017578125" lon="-8.6710146255791187286376953125">
        <ele>149.8000030517578125</ele>
        <time>2022-11-01T10:37:51.000Z</time>
      </trkpt>
      <trkpt lat="42.5077508948743343353271484375" lon="-8.67114177905023097991943359375">
        <ele>149.8000030517578125</ele>
        <time>2022-11-01T10:37:52.000Z</time>
      </trkpt>
      <trkpt lat="42.50778484158217906951904296875" lon="-8.6712630651891231536865234375">
        <ele>150</ele>
        <time>2022-11-01T10:37:53.000Z</time>
      </trkpt>
      <trkpt lat="42.50782071612775325775146484375" lon="-8.67138368077576160430908203125">
        <ele>149.8000030517578125</ele>
        <time>2022-11-01T10:37:54.000Z</time>
      </trkpt>
      <trkpt lat="42.50785969197750091552734375" lon="-8.6715041287243366241455078125">
        <ele>149.8000030517578125</ele>
        <time>2022-11-01T10:37:55.000Z</time>
      </trkpt>
      <trkpt lat="42.50790084712207317352294921875" lon="-8.67162440903484821319580078125">
        <ele>149.8000030517578125</ele>
        <time>2022-11-01T10:37:56.000Z</time>
      </trkpt>
      <trkpt lat="42.50794552266597747802734375" lon="-8.67174334824085235595703125">
        <ele>149.8000030517578125</ele>
        <time>2022-11-01T10:37:57.000Z</time>
      </trkpt>
      <trkpt lat="42.5079899467527866363525390625" lon="-8.67186195217072963714599609375">
        <ele>149.8000030517578125</ele>
        <time>2022-11-01T10:37:58.000Z</time>
      </trkpt>
      <trkpt lat="42.50802406109869480133056640625" lon="-8.6719594337046146392822265625">
        <ele>149.8000030517578125</ele>
        <time>2022-11-01T10:37:59.000Z</time>
      </trkpt>
      <trkpt lat="42.50807560980319976806640625" lon="-8.67210754193365573883056640625">
        <ele>149.8000030517578125</ele>
        <time>2022-11-01T10:38:00.000Z</time>
      </trkpt>
      <trkpt lat="42.50812028534710407257080078125" lon="-8.6722313426434993743896484375">
        <ele>149.8000030517578125</ele>
        <time>2022-11-01T10:38:01.000Z</time>
      </trkpt>
      <trkpt lat="42.5081647932529449462890625" lon="-8.67235078476369380950927734375">
        <ele>150</ele>
        <time>2022-11-01T10:38:02.000Z</time>
      </trkpt>
      <trkpt lat="42.50820913352072238922119140625" lon="-8.67247215472161769866943359375">
        <ele>150</ele>
        <time>2022-11-01T10:38:03.000Z</time>
      </trkpt>
      <trkpt lat="42.50825464725494384765625" lon="-8.6725914292037487030029296875">
        <ele>150</ele>
        <time>2022-11-01T10:38:04.000Z</time>
      </trkpt>
      <trkpt lat="42.50830016098916530609130859375" lon="-8.67271221242845058441162109375">
        <ele>150</ele>
        <time>2022-11-01T10:38:05.000Z</time>
      </trkpt>
      <trkpt lat="42.50834642909467220306396484375" lon="-8.6728356778621673583984375">
        <ele>150.1999969482421875</ele>
        <time>2022-11-01T10:38:06.000Z</time>
      </trkpt>
      <trkpt lat="42.50839412212371826171875" lon="-8.67296375334262847900390625">
        <ele>150.1999969482421875</ele>
        <time>2022-11-01T10:38:07.000Z</time>
      </trkpt>
      <trkpt lat="42.50843963585793972015380859375" lon="-8.67309476248919963836669921875">
        <ele>150.1999969482421875</ele>
        <time>2022-11-01T10:38:08.000Z</time>
      </trkpt>
      <trkpt lat="42.50848791562020778656005859375" lon="-8.67321881465613842010498046875">
        <ele>150.399993896484375</ele>
        <time>2022-11-01T10:38:09.000Z</time>
      </trkpt>
      <trkpt lat="42.50853770412504673004150390625" lon="-8.67333968169987201690673828125">
        <ele>150.600006103515625</ele>
        <time>2022-11-01T10:38:10.000Z</time>
      </trkpt>
      <trkpt lat="42.50858682207763195037841796875" lon="-8.67345870472490787506103515625">
        <ele>150.8000030517578125</ele>
        <time>2022-11-01T10:38:11.000Z</time>
      </trkpt>
      <trkpt lat="42.50863644294440746307373046875" lon="-8.673574291169643402099609375">
        <ele>151</ele>
        <time>2022-11-01T10:38:12.000Z</time>
      </trkpt>
      <trkpt lat="42.50867432914674282073974609375" lon="-8.673664815723896026611328125">
        <ele>151</ele>
        <time>2022-11-01T10:38:13.000Z</time>
      </trkpt>
      <trkpt lat="42.50873350538313388824462890625" lon="-8.6737957410514354705810546875">
        <ele>151</ele>
        <time>2022-11-01T10:38:14.000Z</time>
      </trkpt>
      <trkpt lat="42.50878446735441684722900390625" lon="-8.6738980002701282501220703125">
        <ele>151</ele>
        <time>2022-11-01T10:38:15.000Z</time>
      </trkpt>
      <trkpt lat="42.50883760862052440643310546875" lon="-8.67399598471820354461669921875">
        <ele>151.399993896484375</ele>
        <time>2022-11-01T10:38:16.000Z</time>
      </trkpt>
      <trkpt lat="42.50889326445758342742919921875" lon="-8.6740894429385662078857421875">
        <ele>151.399993896484375</ele>
        <time>2022-11-01T10:38:17.000Z</time>
      </trkpt>
      <trkpt lat="42.50894757919013500213623046875" lon="-8.67417837493121623992919921875">
        <ele>151.600006103515625</ele>
        <time>2022-11-01T10:38:18.000Z</time>
      </trkpt>
      <trkpt lat="42.508999966084957122802734375" lon="-8.674266971647739410400390625">
        <ele>151.600006103515625</ele>
        <time>2022-11-01T10:38:19.000Z</time>
      </trkpt>
      <trkpt lat="42.50903986394405364990234375" lon="-8.6743623577058315277099609375">
        <ele>152.399993896484375</ele>
        <time>2022-11-01T10:38:20.000Z</time>
      </trkpt>
      <trkpt lat="42.509054951369762420654296875" lon="-8.67444491945207118988037109375">
        <ele>152.8000030517578125</ele>
        <time>2022-11-01T10:38:21.000Z</time>
      </trkpt>
      <trkpt lat="42.50905905850231647491455078125" lon="-8.674548603594303131103515625">
        <ele>153.1999969482421875</ele>
        <time>2022-11-01T10:38:22.000Z</time>
      </trkpt>
      <trkpt lat="42.50905671156942844390869140625" lon="-8.67467273958027362823486328125">
        <ele>153.399993896484375</ele>
        <time>2022-11-01T10:38:23.000Z</time>
      </trkpt>
      <trkpt lat="42.50906467437744140625" lon="-8.6747720651328563690185546875">
        <ele>153.600006103515625</ele>
        <time>2022-11-01T10:38:24.000Z</time>
      </trkpt>
      <trkpt lat="42.50908236019313335418701171875" lon="-8.67486736737191677093505859375">
        <ele>153.600006103515625</ele>
        <time>2022-11-01T10:38:25.000Z</time>
      </trkpt>
      <trkpt lat="42.5091007165610790252685546875" lon="-8.67494179867208003997802734375">
        <ele>153.8000030517578125</ele>
        <time>2022-11-01T10:38:26.000Z</time>
      </trkpt>
      <trkpt lat="42.50912393443286418914794921875" lon="-8.67503710091114044189453125">
        <ele>154</ele>
        <time>2022-11-01T10:38:27.000Z</time>
      </trkpt>
      <trkpt lat="42.50915327109396457672119140625" lon="-8.67514908313751220703125">
        <ele>154</ele>
        <time>2022-11-01T10:38:28.000Z</time>
      </trkpt>
      <trkpt lat="42.50917590223252773284912109375" lon="-8.6752427928149700164794921875">
        <ele>154.1999969482421875</ele>
        <time>2022-11-01T10:38:29.000Z</time>
      </trkpt>
      <trkpt lat="42.5091939233243465423583984375" lon="-8.675343208014965057373046875">
        <ele>154.399993896484375</ele>
        <time>2022-11-01T10:38:30.000Z</time>
      </trkpt>
      <trkpt lat="42.50920750200748443603515625" lon="-8.67542266845703125">
        <ele>154.8000030517578125</ele>
        <time>2022-11-01T10:38:31.000Z</time>
      </trkpt>
      <trkpt lat="42.50922937877476215362548828125" lon="-8.6755428649485111236572265625">
        <ele>155.1999969482421875</ele>
        <time>2022-11-01T10:38:32.000Z</time>
      </trkpt>
      <trkpt lat="42.5092479027807712554931640625" lon="-8.67564403451979160308837890625">
        <ele>155.399993896484375</ele>
        <time>2022-11-01T10:38:33.000Z</time>
      </trkpt>
      <trkpt lat="42.50926609151065349578857421875" lon="-8.67574562318623065948486328125">
        <ele>155.399993896484375</ele>
        <time>2022-11-01T10:38:34.000Z</time>
      </trkpt>
      <trkpt lat="42.50928386114537715911865234375" lon="-8.67585056461393833160400390625">
        <ele>155.600006103515625</ele>
        <time>2022-11-01T10:38:35.000Z</time>
      </trkpt>
      <trkpt lat="42.50930179841816425323486328125" lon="-8.67595550604164600372314453125">
        <ele>155.600006103515625</ele>
        <time>2022-11-01T10:38:36.000Z</time>
      </trkpt>
      <trkpt lat="42.5093208253383636474609375" lon="-8.67605910636484622955322265625">
        <ele>155.600006103515625</ele>
        <time>2022-11-01T10:38:37.000Z</time>
      </trkpt>
      <trkpt lat="42.509339936077594757080078125" lon="-8.67616631090641021728515625">
        <ele>155.600006103515625</ele>
        <time>2022-11-01T10:38:38.000Z</time>
      </trkpt>
      <trkpt lat="42.50935913063585758209228515625" lon="-8.67627368308603763580322265625">
        <ele>155.600006103515625</ele>
        <time>2022-11-01T10:38:39.000Z</time>
      </trkpt>
      <trkpt lat="42.50937924720346927642822265625" lon="-8.676380217075347900390625">
        <ele>155.399993896484375</ele>
        <time>2022-11-01T10:38:40.000Z</time>
      </trkpt>
      <trkpt lat="42.509399615228176116943359375" lon="-8.67648574523627758026123046875">
        <ele>155.399993896484375</ele>
        <time>2022-11-01T10:38:41.000Z</time>
      </trkpt>
      <trkpt lat="42.5094205699861049652099609375" lon="-8.676591776311397552490234375">
        <ele>155.1999969482421875</ele>
        <time>2022-11-01T10:38:42.000Z</time>
      </trkpt>
      <trkpt lat="42.5094433687627315521240234375" lon="-8.6767002381384372711181640625">
        <ele>155.1999969482421875</ele>
        <time>2022-11-01T10:38:43.000Z</time>
      </trkpt>
      <trkpt lat="42.5094656646251678466796875" lon="-8.67681230418384075164794921875">
        <ele>155.1999969482421875</ele>
        <time>2022-11-01T10:38:44.000Z</time>
      </trkpt>
      <trkpt lat="42.50948770903050899505615234375" lon="-8.67692445404827594757080078125">
        <ele>155</ele>
        <time>2022-11-01T10:38:45.000Z</time>
      </trkpt>
      <trkpt lat="42.50950749032199382781982421875" lon="-8.6770361848175525665283203125">
        <ele>155</ele>
        <time>2022-11-01T10:38:46.000Z</time>
      </trkpt>
      <trkpt lat="42.5095241703093051910400390625" lon="-8.67714808322489261627197265625">
        <ele>154.8000030517578125</ele>
        <time>2022-11-01T10:38:47.000Z</time>
      </trkpt>
      <trkpt lat="42.50954135321080684661865234375" lon="-8.677260987460613250732421875">
        <ele>154.8000030517578125</ele>
        <time>2022-11-01T10:38:48.000Z</time>
      </trkpt>
      <trkpt lat="42.5095573626458644866943359375" lon="-8.67737472988665103912353515625">
        <ele>154.600006103515625</ele>
        <time>2022-11-01T10:38:49.000Z</time>
      </trkpt>
      <trkpt lat="42.50957001931965351104736328125" lon="-8.67746743373572826385498046875">
        <ele>154.600006103515625</ele>
        <time>2022-11-01T10:38:50.000Z</time>
      </trkpt>
      <trkpt lat="42.5095932371914386749267578125" lon="-8.67760808207094669342041015625">
        <ele>154.600006103515625</ele>
        <time>2022-11-01T10:38:51.000Z</time>
      </trkpt>
      <trkpt lat="42.5096163712441921234130859375" lon="-8.6777268536388874053955078125">
        <ele>154.399993896484375</ele>
        <time>2022-11-01T10:38:52.000Z</time>
      </trkpt>
      <trkpt lat="42.509639672935009002685546875" lon="-8.67784763686358928680419921875">
        <ele>154.399993896484375</ele>
        <time>2022-11-01T10:38:53.000Z</time>
      </trkpt>
      <trkpt lat="42.5096629746258258819580078125" lon="-8.67796867154538631439208984375">
        <ele>154.399993896484375</ele>
        <time>2022-11-01T10:38:54.000Z</time>
      </trkpt>
      <trkpt lat="42.50968418084084987640380859375" lon="-8.67809155024588108062744140625">
        <ele>154.1999969482421875</ele>
        <time>2022-11-01T10:38:55.000Z</time>
      </trkpt>
      <trkpt lat="42.5097085721790790557861328125" lon="-8.67821677587926387786865234375">
        <ele>153.8000030517578125</ele>
        <time>2022-11-01T10:38:56.000Z</time>
      </trkpt>
      <trkpt lat="42.50973723828792572021484375" lon="-8.6783454380929470062255859375">
        <ele>153.600006103515625</ele>
        <time>2022-11-01T10:38:57.000Z</time>
      </trkpt>
      <trkpt lat="42.50976674258708953857421875" lon="-8.6784751899540424346923828125">
        <ele>153.399993896484375</ele>
        <time>2022-11-01T10:38:58.000Z</time>
      </trkpt>
      <trkpt lat="42.50979582779109477996826171875" lon="-8.678609468042850494384765625">
        <ele>153.1999969482421875</ele>
        <time>2022-11-01T10:38:59.000Z</time>
      </trkpt>
      <trkpt lat="42.50982566736638545989990234375" lon="-8.67874659597873687744140625">
        <ele>153</ele>
        <time>2022-11-01T10:39:00.000Z</time>
      </trkpt>
      <trkpt lat="42.50986053608357906341552734375" lon="-8.678883053362369537353515625">
        <ele>152.600006103515625</ele>
        <time>2022-11-01T10:39:01.000Z</time>
      </trkpt>
      <trkpt lat="42.50989817082881927490234375" lon="-8.6790223605930805206298828125">
        <ele>152.399993896484375</ele>
        <time>2022-11-01T10:39:02.000Z</time>
      </trkpt>
      <trkpt lat="42.509937398135662078857421875" lon="-8.6791638471186161041259765625">
        <ele>151.8000030517578125</ele>
        <time>2022-11-01T10:39:03.000Z</time>
      </trkpt>
      <trkpt lat="42.50997729599475860595703125" lon="-8.67930793203413486480712890625">
        <ele>151.1999969482421875</ele>
        <time>2022-11-01T10:39:04.000Z</time>
      </trkpt>
      <trkpt lat="42.51001778058707714080810546875" lon="-8.67945293895900249481201171875">
        <ele>150.1999969482421875</ele>
        <time>2022-11-01T10:39:05.000Z</time>
      </trkpt>
      <trkpt lat="42.51005868427455425262451171875" lon="-8.6795990355312824249267578125">
        <ele>150</ele>
        <time>2022-11-01T10:39:06.000Z</time>
      </trkpt>
      <trkpt lat="42.5100998394191265106201171875" lon="-8.67974571883678436279296875">
        <ele>149.399993896484375</ele>
        <time>2022-11-01T10:39:07.000Z</time>
      </trkpt>
      <trkpt lat="42.510142587125301361083984375" lon="-8.679894916713237762451171875">
        <ele>148.8000030517578125</ele>
        <time>2022-11-01T10:39:08.000Z</time>
      </trkpt>
      <trkpt lat="42.51017804257571697235107421875" lon="-8.6800151132047176361083984375">
        <ele>147.399993896484375</ele>
        <time>2022-11-01T10:39:09.000Z</time>
      </trkpt>
      <trkpt lat="42.510233782231807708740234375" lon="-8.68019632995128631591796875">
        <ele>146.399993896484375</ele>
        <time>2022-11-01T10:39:10.000Z</time>
      </trkpt>
      <trkpt lat="42.51028432510793209075927734375" lon="-8.680348210036754608154296875">
        <ele>146.1999969482421875</ele>
        <time>2022-11-01T10:39:11.000Z</time>
      </trkpt>
      <trkpt lat="42.5103372149169445037841796875" lon="-8.68050017394125461578369140625">
        <ele>145</ele>
        <time>2022-11-01T10:39:12.000Z</time>
      </trkpt>
      <trkpt lat="42.5103938765823841094970703125" lon="-8.68065255694091320037841796875">
        <ele>144.600006103515625</ele>
        <time>2022-11-01T10:39:13.000Z</time>
      </trkpt>
      <trkpt lat="42.51045338809490203857421875" lon="-8.68080544285476207733154296875">
        <ele>143.1999969482421875</ele>
        <time>2022-11-01T10:39:14.000Z</time>
      </trkpt>
      <trkpt lat="42.51051801256835460662841796875" lon="-8.68095715530216693878173828125">
        <ele>142.8000030517578125</ele>
        <time>2022-11-01T10:39:15.000Z</time>
      </trkpt>
      <trkpt lat="42.51058305613696575164794921875" lon="-8.681107945740222930908203125">
        <ele>141.8000030517578125</ele>
        <time>2022-11-01T10:39:16.000Z</time>
      </trkpt>
      <trkpt lat="42.51064793206751346588134765625" lon="-8.68125940673053264617919921875">
        <ele>141</ele>
        <time>2022-11-01T10:39:17.000Z</time>
      </trkpt>
      <trkpt lat="42.51071498729288578033447265625" lon="-8.68140759877860546112060546875">
        <ele>139.8000030517578125</ele>
        <time>2022-11-01T10:39:18.000Z</time>
      </trkpt>
      <trkpt lat="42.51078598201274871826171875" lon="-8.68155227042734622955322265625">
        <ele>138</ele>
        <time>2022-11-01T10:39:19.000Z</time>
      </trkpt>
      <trkpt lat="42.51085932366549968719482421875" lon="-8.68169576860964298248291015625">
        <ele>137.399993896484375</ele>
        <time>2022-11-01T10:39:20.000Z</time>
      </trkpt>
      <trkpt lat="42.51093643717467784881591796875" lon="-8.68183809332549571990966796875">
        <ele>136.399993896484375</ele>
        <time>2022-11-01T10:39:21.000Z</time>
      </trkpt>
      <trkpt lat="42.511017322540283203125" lon="-8.68197840638458728790283203125">
        <ele>136</ele>
        <time>2022-11-01T10:39:22.000Z</time>
      </trkpt>
      <trkpt lat="42.51110424287617206573486328125" lon="-8.68211704306304454803466796875">
        <ele>135.1999969482421875</ele>
        <time>2022-11-01T10:39:23.000Z</time>
      </trkpt>
      <trkpt lat="42.51119627617299556732177734375" lon="-8.68225165642797946929931640625">
        <ele>134.8000030517578125</ele>
        <time>2022-11-01T10:39:24.000Z</time>
      </trkpt>
      <trkpt lat="42.51129099167883396148681640625" lon="-8.68238576687872409820556640625">
        <ele>134.399993896484375</ele>
        <time>2022-11-01T10:39:25.000Z</time>
      </trkpt>
      <trkpt lat="42.51138822175562381744384765625" lon="-8.68251786567270755767822265625">
        <ele>134.1999969482421875</ele>
        <time>2022-11-01T10:39:26.000Z</time>
      </trkpt>
      <trkpt lat="42.5114882178604602813720703125" lon="-8.682648204267024993896484375">
        <ele>133.8000030517578125</ele>
        <time>2022-11-01T10:39:27.000Z</time>
      </trkpt>
      <trkpt lat="42.511590979993343353271484375" lon="-8.68277602829039096832275390625">
        <ele>133.1999969482421875</ele>
        <time>2022-11-01T10:39:28.000Z</time>
      </trkpt>
      <trkpt lat="42.5116957537829875946044921875" lon="-8.6828968115150928497314453125">
        <ele>133</ele>
        <time>2022-11-01T10:39:29.000Z</time>
      </trkpt>
      <trkpt lat="42.51180195249617099761962890625" lon="-8.683012314140796661376953125">
        <ele>132.1999969482421875</ele>
        <time>2022-11-01T10:39:30.000Z</time>
      </trkpt>
      <trkpt lat="42.51190890558063983917236328125" lon="-8.683122955262660980224609375">
        <ele>131.8000030517578125</ele>
        <time>2022-11-01T10:39:31.000Z</time>
      </trkpt>
      <trkpt lat="42.51199456863105297088623046875" lon="-8.68320669047534465789794921875">
        <ele>131.1999969482421875</ele>
        <time>2022-11-01T10:39:32.000Z</time>
      </trkpt>
      <trkpt lat="42.512122727930545806884765625" lon="-8.6833266355097293853759765625">
        <ele>130.399993896484375</ele>
        <time>2022-11-01T10:39:33.000Z</time>
      </trkpt>
      <trkpt lat="42.51223244704306125640869140625" lon="-8.683423697948455810546875">
        <ele>129.600006103515625</ele>
        <time>2022-11-01T10:39:34.000Z</time>
      </trkpt>
      <trkpt lat="42.5123441778123378753662109375" lon="-8.68351556360721588134765625">
        <ele>129.399993896484375</ele>
        <time>2022-11-01T10:39:35.000Z</time>
      </trkpt>
      <trkpt lat="42.5124585069715976715087890625" lon="-8.68360566906630992889404296875">
        <ele>128.600006103515625</ele>
        <time>2022-11-01T10:39:36.000Z</time>
      </trkpt>
      <trkpt lat="42.51257325522601604461669921875" lon="-8.68369082920253276824951171875">
        <ele>128</ele>
        <time>2022-11-01T10:39:37.000Z</time>
      </trkpt>
      <trkpt lat="42.5126891769468784332275390625" lon="-8.68376995436847209930419921875">
        <ele>127.1999969482421875</ele>
        <time>2022-11-01T10:39:38.000Z</time>
      </trkpt>
      <trkpt lat="42.512806020677089691162109375" lon="-8.683844469487667083740234375">
        <ele>126.59999847412109375</ele>
        <time>2022-11-01T10:39:39.000Z</time>
      </trkpt>
      <trkpt lat="42.51292495988309383392333984375" lon="-8.6839143745601177215576171875">
        <ele>126.1999969482421875</ele>
        <time>2022-11-01T10:39:40.000Z</time>
      </trkpt>
      <trkpt lat="42.5130445696413516998291015625" lon="-8.683977238833904266357421875">
        <ele>125.1999969482421875</ele>
        <time>2022-11-01T10:39:41.000Z</time>
      </trkpt>
      <trkpt lat="42.51316686160862445831298828125" lon="-8.6840365827083587646484375">
        <ele>124.59999847412109375</ele>
        <time>2022-11-01T10:39:42.000Z</time>
      </trkpt>
      <trkpt lat="42.51329124905169010162353515625" lon="-8.68409198708832263946533203125">
        <ele>123.40000152587890625</ele>
        <time>2022-11-01T10:39:43.000Z</time>
      </trkpt>
      <trkpt lat="42.5134170614182949066162109375" lon="-8.68414076976478099822998046875">
        <ele>122.8000030517578125</ele>
        <time>2022-11-01T10:39:44.000Z</time>
      </trkpt>
      <trkpt lat="42.5135441310703754425048828125" lon="-8.68418402038514614105224609375">
        <ele>122</ele>
        <time>2022-11-01T10:39:45.000Z</time>
      </trkpt>
      <trkpt lat="42.51367229036986827850341796875" lon="-8.68422366678714752197265625">
        <ele>121.59999847412109375</ele>
        <time>2022-11-01T10:39:46.000Z</time>
      </trkpt>
      <trkpt lat="42.51380145549774169921875" lon="-8.6842607147991657257080078125">
        <ele>121.1999969482421875</ele>
        <time>2022-11-01T10:39:47.000Z</time>
      </trkpt>
      <trkpt lat="42.51393011771142482757568359375" lon="-8.68429248221218585968017578125">
        <ele>120.59999847412109375</ele>
        <time>2022-11-01T10:39:48.000Z</time>
      </trkpt>
      <trkpt lat="42.5140550918877124786376953125" lon="-8.6843168735504150390625">
        <ele>120.1999969482421875</ele>
        <time>2022-11-01T10:39:49.000Z</time>
      </trkpt>
      <trkpt lat="42.51417134888470172882080078125" lon="-8.68433657102286815643310546875">
        <ele>119.59999847412109375</ele>
        <time>2022-11-01T10:39:50.000Z</time>
      </trkpt>
      <trkpt lat="42.5142780505120754241943359375" lon="-8.68435216136276721954345703125">
        <ele>119.40000152587890625</ele>
        <time>2022-11-01T10:39:51.000Z</time>
      </trkpt>
      <trkpt lat="42.5143786333501338958740234375" lon="-8.68435752578079700469970703125">
        <ele>118.40000152587890625</ele>
        <time>2022-11-01T10:39:52.000Z</time>
      </trkpt>
      <trkpt lat="42.51447460614144802093505859375" lon="-8.68434662930667400360107421875">
        <ele>118</ele>
        <time>2022-11-01T10:39:53.000Z</time>
      </trkpt>
      <trkpt lat="42.5145673938095569610595703125" lon="-8.6843187175691127777099609375">
        <ele>117.59999847412109375</ele>
        <time>2022-11-01T10:39:54.000Z</time>
      </trkpt>
      <trkpt lat="42.514654062688350677490234375" lon="-8.6842721141874790191650390625">
        <ele>117.1999969482421875</ele>
        <time>2022-11-01T10:39:55.000Z</time>
      </trkpt>
      <trkpt lat="42.5147165916860103607177734375" lon="-8.68422098457813262939453125">
        <ele>117</ele>
        <time>2022-11-01T10:39:56.000Z</time>
      </trkpt>
      <trkpt lat="42.5148000754415988922119140625" lon="-8.68412710726261138916015625">
        <ele>116.8000030517578125</ele>
        <time>2022-11-01T10:39:57.000Z</time>
      </trkpt>
      <trkpt lat="42.51486151479184627532958984375" lon="-8.684035576879978179931640625">
        <ele>116.59999847412109375</ele>
        <time>2022-11-01T10:39:58.000Z</time>
      </trkpt>
      <trkpt lat="42.51490727998316287994384765625" lon="-8.68396122939884662628173828125">
        <ele>116.59999847412109375</ele>
        <time>2022-11-01T10:39:59.000Z</time>
      </trkpt>
      <trkpt lat="42.51497969962656497955322265625" lon="-8.68385444395244121551513671875">
        <ele>116.59999847412109375</ele>
        <time>2022-11-01T10:40:00.000Z</time>
      </trkpt>
      <trkpt lat="42.5150438211858272552490234375" lon="-8.68377598933875560760498046875">
        <ele>116.40000152587890625</ele>
        <time>2022-11-01T10:40:01.000Z</time>
      </trkpt>
      <trkpt lat="42.51511146314442157745361328125" lon="-8.68370532989501953125">
        <ele>116.40000152587890625</ele>
        <time>2022-11-01T10:40:02.000Z</time>
      </trkpt>
      <trkpt lat="42.51518212258815765380859375" lon="-8.68364355526864528656005859375">
        <ele>116.40000152587890625</ele>
        <time>2022-11-01T10:40:03.000Z</time>
      </trkpt>
      <trkpt lat="42.51524020917713642120361328125" lon="-8.6836022324860095977783203125">
        <ele>116.59999847412109375</ele>
        <time>2022-11-01T10:40:04.000Z</time>
      </trkpt>
      <trkpt lat="42.515315897762775421142578125" lon="-8.68356057442724704742431640625">
        <ele>116.59999847412109375</ele>
        <time>2022-11-01T10:40:05.000Z</time>
      </trkpt>
      <trkpt lat="42.5154089368879795074462890625" lon="-8.68352201767265796661376953125">
        <ele>116.8000030517578125</ele>
        <time>2022-11-01T10:40:06.000Z</time>
      </trkpt>
      <trkpt lat="42.51548881642520427703857421875" lon="-8.683499135076999664306640625">
        <ele>116.8000030517578125</ele>
        <time>2022-11-01T10:40:07.000Z</time>
      </trkpt>
      <trkpt lat="42.51556995324790477752685546875" lon="-8.6834885738790035247802734375">
        <ele>117</ele>
        <time>2022-11-01T10:40:08.000Z</time>
      </trkpt>
      <trkpt lat="42.5156355835497379302978515625" lon="-8.68349201045930385589599609375">
        <ele>117.1999969482421875</ele>
        <time>2022-11-01T10:40:09.000Z</time>
      </trkpt>
      <trkpt lat="42.51573490910232067108154296875" lon="-8.68351154029369354248046875">
        <ele>117</ele>
        <time>2022-11-01T10:40:10.000Z</time>
      </trkpt>
      <trkpt lat="42.51581939868628978729248046875" lon="-8.68353827856481075286865234375">
        <ele>117</ele>
        <time>2022-11-01T10:40:11.000Z</time>
      </trkpt>
      <trkpt lat="42.51590095460414886474609375" lon="-8.68357365019619464874267578125">
        <ele>117</ele>
        <time>2022-11-01T10:40:12.000Z</time>
      </trkpt>
      <trkpt lat="42.51597882248461246490478515625" lon="-8.68361606262624263763427734375">
        <ele>117</ele>
        <time>2022-11-01T10:40:13.000Z</time>
      </trkpt>
      <trkpt lat="42.5160540081560611724853515625" lon="-8.6836672760546207427978515625">
        <ele>117</ele>
        <time>2022-11-01T10:40:14.000Z</time>
      </trkpt>
      <trkpt lat="42.5161260925233364105224609375" lon="-8.68372703902423381805419921875">
        <ele>117</ele>
        <time>2022-11-01T10:40:15.000Z</time>
      </trkpt>
      <trkpt lat="42.51619474031031131744384765625" lon="-8.68379878811538219451904296875">
        <ele>116.8000030517578125</ele>
        <time>2022-11-01T10:40:16.000Z</time>
      </trkpt>
      <trkpt lat="42.51625768840312957763671875" lon="-8.68388227187097072601318359375">
        <ele>116.59999847412109375</ele>
        <time>2022-11-01T10:40:17.000Z</time>
      </trkpt>
      <trkpt lat="42.5163141824305057525634765625" lon="-8.68397447280585765838623046875">
        <ele>116.59999847412109375</ele>
        <time>2022-11-01T10:40:18.000Z</time>
      </trkpt>
      <trkpt lat="42.51636472530663013458251953125" lon="-8.684073798358440399169921875">
        <ele>116.40000152587890625</ele>
        <time>2022-11-01T10:40:19.000Z</time>
      </trkpt>
      <trkpt lat="42.51640898175537586212158203125" lon="-8.68417865596711635589599609375">
        <ele>116.1999969482421875</ele>
        <time>2022-11-01T10:40:20.000Z</time>
      </trkpt>
      <trkpt lat="42.51644586212933063507080078125" lon="-8.6842918954789638519287109375">
        <ele>115.8000030517578125</ele>
        <time>2022-11-01T10:40:21.000Z</time>
      </trkpt>
      <trkpt lat="42.5164742767810821533203125" lon="-8.6844129301607608795166015625">
        <ele>115.8000030517578125</ele>
        <time>2022-11-01T10:40:22.000Z</time>
      </trkpt>
      <trkpt lat="42.5164928846061229705810546875" lon="-8.68453723378479480743408203125">
        <ele>115.1999969482421875</ele>
        <time>2022-11-01T10:40:23.000Z</time>
      </trkpt>
      <trkpt lat="42.5165037810802459716796875" lon="-8.68466430343687534332275390625">
        <ele>115</ele>
        <time>2022-11-01T10:40:24.000Z</time>
      </trkpt>
      <trkpt lat="42.51650285907089710235595703125" lon="-8.6847924627363681793212890625">
        <ele>114.59999847412109375</ele>
        <time>2022-11-01T10:40:25.000Z</time>
      </trkpt>
      <trkpt lat="42.51649196259677410125732421875" lon="-8.6849181912839412689208984375">
        <ele>114</ele>
        <time>2022-11-01T10:40:26.000Z</time>
      </trkpt>
      <trkpt lat="42.5164714269340038299560546875" lon="-8.685043752193450927734375">
        <ele>113.8000030517578125</ele>
        <time>2022-11-01T10:40:27.000Z</time>
      </trkpt>
      <trkpt lat="42.516438402235507965087890625" lon="-8.6851689778268337249755859375">
        <ele>113.59999847412109375</ele>
        <time>2022-11-01T10:40:28.000Z</time>
      </trkpt>
      <trkpt lat="42.51639783382415771484375" lon="-8.685292191803455352783203125">
        <ele>113.40000152587890625</ele>
        <time>2022-11-01T10:40:29.000Z</time>
      </trkpt>
      <trkpt lat="42.516355253756046295166015625" lon="-8.6854147352278232574462890625">
        <ele>112.8000030517578125</ele>
        <time>2022-11-01T10:40:30.000Z</time>
      </trkpt>
      <trkpt lat="42.5163158588111400604248046875" lon="-8.6855407990515232086181640625">
        <ele>112.59999847412109375</ele>
        <time>2022-11-01T10:40:31.000Z</time>
      </trkpt>
      <trkpt lat="42.51628719270229339599609375" lon="-8.685671053826808929443359375">
        <ele>112.1999969482421875</ele>
        <time>2022-11-01T10:40:32.000Z</time>
      </trkpt>
      <trkpt lat="42.51627168618142604827880859375" lon="-8.6858068406581878662109375">
        <ele>112</ele>
        <time>2022-11-01T10:40:33.000Z</time>
      </trkpt>
      <trkpt lat="42.51627017743885517120361328125" lon="-8.68594673462212085723876953125">
        <ele>111.8000030517578125</ele>
        <time>2022-11-01T10:40:34.000Z</time>
      </trkpt>
      <trkpt lat="42.51628719270229339599609375" lon="-8.6860876344144344329833984375">
        <ele>111.1999969482421875</ele>
        <time>2022-11-01T10:40:35.000Z</time>
      </trkpt>
      <trkpt lat="42.51631929539144039154052734375" lon="-8.68622618727385997772216796875">
        <ele>111</ele>
        <time>2022-11-01T10:40:36.000Z</time>
      </trkpt>
      <trkpt lat="42.5163604505360126495361328125" lon="-8.68636616505682468414306640625">
        <ele>110.1999969482421875</ele>
        <time>2022-11-01T10:40:37.000Z</time>
      </trkpt>
      <trkpt lat="42.5164099037647247314453125" lon="-8.68650446645915508270263671875">
        <ele>109.8000030517578125</ele>
        <time>2022-11-01T10:40:38.000Z</time>
      </trkpt>
      <trkpt lat="42.51646162010729312896728515625" lon="-8.686643354594707489013671875">
        <ele>109.1999969482421875</ele>
        <time>2022-11-01T10:40:39.000Z</time>
      </trkpt>
      <trkpt lat="42.5165119953453540802001953125" lon="-8.686786182224750518798828125">
        <ele>108.40000152587890625</ele>
        <time>2022-11-01T10:40:40.000Z</time>
      </trkpt>
      <trkpt lat="42.51655851490795612335205078125" lon="-8.686933703720569610595703125">
        <ele>107.40000152587890625</ele>
        <time>2022-11-01T10:40:41.000Z</time>
      </trkpt>
      <trkpt lat="42.51659707166254520416259765625" lon="-8.68708432652056217193603515625">
        <ele>107</ele>
        <time>2022-11-01T10:40:42.000Z</time>
      </trkpt>
      <trkpt lat="42.51662406139075756072998046875" lon="-8.68724123574793338775634765625">
        <ele>105.8000030517578125</ele>
        <time>2022-11-01T10:40:43.000Z</time>
      </trkpt>
      <trkpt lat="42.51663495786488056182861328125" lon="-8.6874025873839855194091796875">
        <ele>104.40000152587890625</ele>
        <time>2022-11-01T10:40:44.000Z</time>
      </trkpt>
      <trkpt lat="42.51662691123783588409423828125" lon="-8.687565028667449951171875">
        <ele>103.8000030517578125</ele>
        <time>2022-11-01T10:40:45.000Z</time>
      </trkpt>
      <trkpt lat="42.51660327427089214324951171875" lon="-8.6877271346747875213623046875">
        <ele>102.40000152587890625</ele>
        <time>2022-11-01T10:40:46.000Z</time>
      </trkpt>
      <trkpt lat="42.516563795506954193115234375" lon="-8.687883876264095306396484375">
        <ele>101.59999847412109375</ele>
        <time>2022-11-01T10:40:47.000Z</time>
      </trkpt>
      <trkpt lat="42.51650889404118061065673828125" lon="-8.6880330741405487060546875">
        <ele>100.1999969482421875</ele>
        <time>2022-11-01T10:40:48.000Z</time>
      </trkpt>
      <trkpt lat="42.516436390578746795654296875" lon="-8.68817313574254512786865234375">
        <ele>99.1999969482421875</ele>
        <time>2022-11-01T10:40:49.000Z</time>
      </trkpt>
      <trkpt lat="42.51635382883250713348388671875" lon="-8.688298277556896209716796875">
        <ele>97.8000030517578125</ele>
        <time>2022-11-01T10:40:50.000Z</time>
      </trkpt>
      <trkpt lat="42.5162672437727451324462890625" lon="-8.68841101415455341339111328125">
        <ele>97.40000152587890625</ele>
        <time>2022-11-01T10:40:51.000Z</time>
      </trkpt>
      <trkpt lat="42.51617898233234882354736328125" lon="-8.6885230801999568939208984375">
        <ele>95.8000030517578125</ele>
        <time>2022-11-01T10:40:52.000Z</time>
      </trkpt>
      <trkpt lat="42.5160965882241725921630859375" lon="-8.688642941415309906005859375">
        <ele>94.1999969482421875</ele>
        <time>2022-11-01T10:40:53.000Z</time>
      </trkpt>
      <trkpt lat="42.51602509059011936187744140625" lon="-8.68877378292381763458251953125">
        <ele>93.8000030517578125</ele>
        <time>2022-11-01T10:40:54.000Z</time>
      </trkpt>
      <trkpt lat="42.51596993766725063323974609375" lon="-8.68891409598290920257568359375">
        <ele>92.1999969482421875</ele>
        <time>2022-11-01T10:40:55.000Z</time>
      </trkpt>
      <trkpt lat="42.51592936925590038299560546875" lon="-8.68906429968774318695068359375">
        <ele>91.40000152587890625</ele>
        <time>2022-11-01T10:40:56.000Z</time>
      </trkpt>
      <trkpt lat="42.51591009087860584259033203125" lon="-8.68922271765768527984619140625">
        <ele>90.40000152587890625</ele>
        <time>2022-11-01T10:40:57.000Z</time>
      </trkpt>
      <trkpt lat="42.5159148685634136199951171875" lon="-8.68938012979924678802490234375">
        <ele>89.59999847412109375</ele>
        <time>2022-11-01T10:40:58.000Z</time>
      </trkpt>
      <trkpt lat="42.51593993045389652252197265625" lon="-8.689530082046985626220703125">
        <ele>88.8000030517578125</ele>
        <time>2022-11-01T10:40:59.000Z</time>
      </trkpt>
      <trkpt lat="42.51597966067492961883544921875" lon="-8.68966452777385711669921875">
        <ele>88.59999847412109375</ele>
        <time>2022-11-01T10:41:00.000Z</time>
      </trkpt>
      <trkpt lat="42.51602643169462680816650390625" lon="-8.6897927708923816680908203125">
        <ele>88</ele>
        <time>2022-11-01T10:41:01.000Z</time>
      </trkpt>
      <trkpt lat="42.51607571728527545928955078125" lon="-8.68991824798285961151123046875">
        <ele>87.8000030517578125</ele>
        <time>2022-11-01T10:41:02.000Z</time>
      </trkpt>
      <trkpt lat="42.51612684689462184906005859375" lon="-8.6900418810546398162841796875">
        <ele>87.40000152587890625</ele>
        <time>2022-11-01T10:41:03.000Z</time>
      </trkpt>
      <trkpt lat="42.51618258655071258544921875" lon="-8.6901629157364368438720703125">
        <ele>87</ele>
        <time>2022-11-01T10:41:04.000Z</time>
      </trkpt>
      <trkpt lat="42.516237907111644744873046875" lon="-8.69027917273342609405517578125">
        <ele>87</ele>
        <time>2022-11-01T10:41:05.000Z</time>
      </trkpt>
      <trkpt lat="42.516295574605464935302734375" lon="-8.69038964621722698211669921875">
        <ele>86.8000030517578125</ele>
        <time>2022-11-01T10:41:06.000Z</time>
      </trkpt>
      <trkpt lat="42.51635768450796604156494140625" lon="-8.6904971860349178314208984375">
        <ele>86.59999847412109375</ele>
        <time>2022-11-01T10:41:07.000Z</time>
      </trkpt>
      <trkpt lat="42.516424655914306640625" lon="-8.6906007863581180572509765625">
        <ele>86.40000152587890625</ele>
        <time>2022-11-01T10:41:08.000Z</time>
      </trkpt>
      <trkpt lat="42.51649347133934497833251953125" lon="-8.6907013691961765289306640625">
        <ele>86.40000152587890625</ele>
        <time>2022-11-01T10:41:09.000Z</time>
      </trkpt>
      <trkpt lat="42.51656404696404933929443359375" lon="-8.6907984316349029541015625">
        <ele>86.1999969482421875</ele>
        <time>2022-11-01T10:41:10.000Z</time>
      </trkpt>
      <trkpt lat="42.5166363827884197235107421875" lon="-8.69089432060718536376953125">
        <ele>86.1999969482421875</ele>
        <time>2022-11-01T10:41:11.000Z</time>
      </trkpt>
      <trkpt lat="42.5167111493647098541259765625" lon="-8.69098844937980175018310546875">
        <ele>86.1999969482421875</ele>
        <time>2022-11-01T10:41:12.000Z</time>
      </trkpt>
      <trkpt lat="42.51678817905485630035400390625" lon="-8.6910809017717838287353515625">
        <ele>85.8000030517578125</ele>
        <time>2022-11-01T10:41:13.000Z</time>
      </trkpt>
      <trkpt lat="42.5168687291443347930908203125" lon="-8.69117192924022674560546875">
        <ele>85.59999847412109375</ele>
        <time>2022-11-01T10:41:14.000Z</time>
      </trkpt>
      <trkpt lat="42.51695330254733562469482421875" lon="-8.69125868193805217742919921875">
        <ele>85.59999847412109375</ele>
        <time>2022-11-01T10:41:15.000Z</time>
      </trkpt>
      <trkpt lat="42.51704198308289051055908203125" lon="-8.69134333916008472442626953125">
        <ele>85.40000152587890625</ele>
        <time>2022-11-01T10:41:16.000Z</time>
      </trkpt>
      <trkpt lat="42.5171342678368091583251953125" lon="-8.691425733268260955810546875">
        <ele>85.40000152587890625</ele>
        <time>2022-11-01T10:41:17.000Z</time>
      </trkpt>
      <trkpt lat="42.51722973771393299102783203125" lon="-8.69150460697710514068603515625">
        <ele>85.40000152587890625</ele>
        <time>2022-11-01T10:41:18.000Z</time>
      </trkpt>
      <trkpt lat="42.517325542867183685302734375" lon="-8.69158322922885417938232421875">
        <ele>85.1999969482421875</ele>
        <time>2022-11-01T10:41:19.000Z</time>
      </trkpt>
      <trkpt lat="42.5174229405820369720458984375" lon="-8.69166436605155467987060546875">
        <ele>85</ele>
        <time>2022-11-01T10:41:20.000Z</time>
      </trkpt>
      <trkpt lat="42.51752092503011226654052734375" lon="-8.6917460896074771881103515625">
        <ele>84.8000030517578125</ele>
        <time>2022-11-01T10:41:21.000Z</time>
      </trkpt>
      <trkpt lat="42.5176190771162509918212890625" lon="-8.69182596914470195770263671875">
        <ele>83.8000030517578125</ele>
        <time>2022-11-01T10:41:22.000Z</time>
      </trkpt>
      <trkpt lat="42.5177176482975482940673828125" lon="-8.691905848681926727294921875">
        <ele>83.59999847412109375</ele>
        <time>2022-11-01T10:41:23.000Z</time>
      </trkpt>
      <trkpt lat="42.5178175605833530426025390625" lon="-8.69198597967624664306640625">
        <ele>83.1999969482421875</ele>
        <time>2022-11-01T10:41:24.000Z</time>
      </trkpt>
      <trkpt lat="42.517918646335601806640625" lon="-8.6920649372041225433349609375">
        <ele>83</ele>
        <time>2022-11-01T10:41:25.000Z</time>
      </trkpt>
      <trkpt lat="42.51802132464945316314697265625" lon="-8.69214498437941074371337890625">
        <ele>82</ele>
        <time>2022-11-01T10:41:26.000Z</time>
      </trkpt>
      <trkpt lat="42.5181243382394313812255859375" lon="-8.69222746230661869049072265625">
        <ele>81.59999847412109375</ele>
        <time>2022-11-01T10:41:27.000Z</time>
      </trkpt>
      <trkpt lat="42.518226765096187591552734375" lon="-8.69231077842414379119873046875">
        <ele>80.59999847412109375</ele>
        <time>2022-11-01T10:41:28.000Z</time>
      </trkpt>
      <trkpt lat="42.5183301977813243865966796875" lon="-8.692393004894256591796875">
        <ele>80.40000152587890625</ele>
        <time>2022-11-01T10:41:29.000Z</time>
      </trkpt>
      <trkpt lat="42.51841292716562747955322265625" lon="-8.69245938956737518310546875">
        <ele>79.8000030517578125</ele>
        <time>2022-11-01T10:41:30.000Z</time>
      </trkpt>
      <trkpt lat="42.51851803623139858245849609375" lon="-8.69253977201879024505615234375">
        <ele>78.8000030517578125</ele>
        <time>2022-11-01T10:41:31.000Z</time>
      </trkpt>
      <trkpt lat="42.5186440162360668182373046875" lon="-8.69263582862913608551025390625">
        <ele>78.59999847412109375</ele>
        <time>2022-11-01T10:41:32.000Z</time>
      </trkpt>
      <trkpt lat="42.518750131130218505859375" lon="-8.69271478615701198577880859375">
        <ele>77.8000030517578125</ele>
        <time>2022-11-01T10:41:33.000Z</time>
      </trkpt>
      <trkpt lat="42.5188569165766239166259765625" lon="-8.69279491715133190155029296875">
        <ele>77.59999847412109375</ele>
        <time>2022-11-01T10:41:34.000Z</time>
      </trkpt>
      <trkpt lat="42.518964707851409912109375" lon="-8.692876137793064117431640625">
        <ele>76.59999847412109375</ele>
        <time>2022-11-01T10:41:35.000Z</time>
      </trkpt>
      <trkpt lat="42.5190731696784496307373046875" lon="-8.69295568205416202545166015625">
        <ele>76.1999969482421875</ele>
        <time>2022-11-01T10:41:36.000Z</time>
      </trkpt>
      <trkpt lat="42.5191811285912990570068359375" lon="-8.693033717572689056396484375">
        <ele>75.40000152587890625</ele>
        <time>2022-11-01T10:41:37.000Z</time>
      </trkpt>
      <trkpt lat="42.5192887522280216217041015625" lon="-8.69310873560607433319091796875">
        <ele>75</ele>
        <time>2022-11-01T10:41:38.000Z</time>
      </trkpt>
      <trkpt lat="42.51939587295055389404296875" lon="-8.6931829154491424560546875">
        <ele>74.1999969482421875</ele>
        <time>2022-11-01T10:41:39.000Z</time>
      </trkpt>
      <trkpt lat="42.5195033289492130279541015625" lon="-8.69325659237802028656005859375">
        <ele>72.59999847412109375</ele>
        <time>2022-11-01T10:41:40.000Z</time>
      </trkpt>
      <trkpt lat="42.51960986293852329254150390625" lon="-8.69333085604012012481689453125">
        <ele>72.1999969482421875</ele>
        <time>2022-11-01T10:41:41.000Z</time>
      </trkpt>
      <trkpt lat="42.51971581019461154937744140625" lon="-8.69340352714061737060546875">
        <ele>71.40000152587890625</ele>
        <time>2022-11-01T10:41:42.000Z</time>
      </trkpt>
      <trkpt lat="42.51982242800295352935791015625" lon="-8.693475611507892608642578125">
        <ele>71</ele>
        <time>2022-11-01T10:41:43.000Z</time>
      </trkpt>
      <trkpt lat="42.5199289619922637939453125" lon="-8.6935485340654850006103515625">
        <ele>70.40000152587890625</ele>
        <time>2022-11-01T10:41:44.000Z</time>
      </trkpt>
      <trkpt lat="42.5200350768864154815673828125" lon="-8.69362288154661655426025390625">
        <ele>70.1999969482421875</ele>
        <time>2022-11-01T10:41:45.000Z</time>
      </trkpt>
      <trkpt lat="42.520145885646343231201171875" lon="-8.69369748048484325408935546875">
        <ele>69.8000030517578125</ele>
        <time>2022-11-01T10:41:46.000Z</time>
      </trkpt>
      <trkpt lat="42.52025862224400043487548828125" lon="-8.69377157650887966156005859375">
        <ele>69.59999847412109375</ele>
        <time>2022-11-01T10:41:47.000Z</time>
      </trkpt>
      <trkpt lat="42.5203713588416576385498046875" lon="-8.69384818710386753082275390625">
        <ele>69.1999969482421875</ele>
        <time>2022-11-01T10:41:48.000Z</time>
      </trkpt>
      <trkpt lat="42.5204850174486637115478515625" lon="-8.69392521679401397705078125">
        <ele>68.59999847412109375</ele>
        <time>2022-11-01T10:41:49.000Z</time>
      </trkpt>
      <trkpt lat="42.520600855350494384765625" lon="-8.69400090537965297698974609375">
        <ele>68</ele>
        <time>2022-11-01T10:41:50.000Z</time>
      </trkpt>
      <trkpt lat="42.52071929164230823516845703125" lon="-8.694071061909198760986328125">
        <ele>67.59999847412109375</ele>
        <time>2022-11-01T10:41:51.000Z</time>
      </trkpt>
      <trkpt lat="42.5208397395908832550048828125" lon="-8.69413685984909534454345703125">
        <ele>67.1999969482421875</ele>
        <time>2022-11-01T10:41:52.000Z</time>
      </trkpt>
      <trkpt lat="42.5209617801010608673095703125" lon="-8.69419938884675502777099609375">
        <ele>66.1999969482421875</ele>
        <time>2022-11-01T10:41:53.000Z</time>
      </trkpt>
      <trkpt lat="42.52108675427734851837158203125" lon="-8.6942573077976703643798828125">
        <ele>65.8000030517578125</ele>
        <time>2022-11-01T10:41:54.000Z</time>
      </trkpt>
      <trkpt lat="42.5212135724723339080810546875" lon="-8.6943086050450801849365234375">
        <ele>65.1999969482421875</ele>
        <time>2022-11-01T10:41:55.000Z</time>
      </trkpt>
      <trkpt lat="42.52134189940989017486572265625" lon="-8.69435210712254047393798828125">
        <ele>65</ele>
        <time>2022-11-01T10:41:56.000Z</time>
      </trkpt>
      <trkpt lat="42.52147014252841472625732421875" lon="-8.694394938647747039794921875">
        <ele>64.40000152587890625</ele>
        <time>2022-11-01T10:41:57.000Z</time>
      </trkpt>
      <trkpt lat="42.5215972959995269775390625" lon="-8.6944339983165264129638671875">
        <ele>64.1999969482421875</ele>
        <time>2022-11-01T10:41:58.000Z</time>
      </trkpt>
      <trkpt lat="42.5217231921851634979248046875" lon="-8.69447506964206695556640625">
        <ele>63.40000152587890625</ele>
        <time>2022-11-01T10:41:59.000Z</time>
      </trkpt>
      <trkpt lat="42.5218479149043560028076171875" lon="-8.69451555423438549041748046875">
        <ele>62.40000152587890625</ele>
        <time>2022-11-01T10:42:00.000Z</time>
      </trkpt>
      <trkpt lat="42.5219729728996753692626953125" lon="-8.6945546977221965789794921875">
        <ele>62</ele>
        <time>2022-11-01T10:42:01.000Z</time>
      </trkpt>
      <trkpt lat="42.52209744416177272796630859375" lon="-8.69459367357194423675537109375">
        <ele>61.40000152587890625</ele>
        <time>2022-11-01T10:42:02.000Z</time>
      </trkpt>
      <trkpt lat="42.52222551964223384857177734375" lon="-8.69463558308780193328857421875">
        <ele>61</ele>
        <time>2022-11-01T10:42:03.000Z</time>
      </trkpt>
      <trkpt lat="42.522353343665599822998046875" lon="-8.694675229489803314208984375">
        <ele>60.40000152587890625</ele>
        <time>2022-11-01T10:42:04.000Z</time>
      </trkpt>
      <trkpt lat="42.52248217351734638214111328125" lon="-8.6947183124721050262451171875">
        <ele>59.799999237060546875</ele>
        <time>2022-11-01T10:42:05.000Z</time>
      </trkpt>
      <trkpt lat="42.5226106680929660797119140625" lon="-8.69476072490215301513671875">
        <ele>59</ele>
        <time>2022-11-01T10:42:06.000Z</time>
      </trkpt>
      <trkpt lat="42.5227394141256809234619140625" lon="-8.6948028020560741424560546875">
        <ele>58.59999847412109375</ele>
        <time>2022-11-01T10:42:07.000Z</time>
      </trkpt>
      <trkpt lat="42.52286790870130062103271484375" lon="-8.69484462775290012359619140625">
        <ele>57.799999237060546875</ele>
        <time>2022-11-01T10:42:08.000Z</time>
      </trkpt>
      <trkpt lat="42.5229974091053009033203125" lon="-8.69488569907844066619873046875">
        <ele>57.200000762939453125</ele>
        <time>2022-11-01T10:42:09.000Z</time>
      </trkpt>
      <trkpt lat="42.523127160966396331787109375" lon="-8.694926016032695770263671875">
        <ele>56.799999237060546875</ele>
        <time>2022-11-01T10:42:10.000Z</time>
      </trkpt>
      <trkpt lat="42.52325666137039661407470703125" lon="-8.69496767409145832061767578125">
        <ele>55.799999237060546875</ele>
        <time>2022-11-01T10:42:11.000Z</time>
      </trkpt>
      <trkpt lat="42.52338507212698459625244140625" lon="-8.69501017034053802490234375">
        <ele>55.200000762939453125</ele>
        <time>2022-11-01T10:42:12.000Z</time>
      </trkpt>
      <trkpt lat="42.523513734340667724609375" lon="-8.695050068199634552001953125">
        <ele>54.40000152587890625</ele>
        <time>2022-11-01T10:42:13.000Z</time>
      </trkpt>
      <trkpt lat="42.5236406363546848297119140625" lon="-8.69509072043001651763916015625">
        <ele>53.799999237060546875</ele>
        <time>2022-11-01T10:42:14.000Z</time>
      </trkpt>
      <trkpt lat="42.52376611344516277313232421875" lon="-8.69513212703168392181396484375">
        <ele>53.40000152587890625</ele>
        <time>2022-11-01T10:42:15.000Z</time>
      </trkpt>
      <trkpt lat="42.523888237774372100830078125" lon="-8.6951736174523830413818359375">
        <ele>53</ele>
        <time>2022-11-01T10:42:16.000Z</time>
      </trkpt>
      <trkpt lat="42.5240074284374713897705078125" lon="-8.6952128447592258453369140625">
        <ele>52.200000762939453125</ele>
        <time>2022-11-01T10:42:17.000Z</time>
      </trkpt>
      <trkpt lat="42.52412351779639720916748046875" lon="-8.69525232352316379547119140625">
        <ele>51.40000152587890625</ele>
        <time>2022-11-01T10:42:18.000Z</time>
      </trkpt>
      <trkpt lat="42.52423700876533985137939453125" lon="-8.69528987444937229156494140625">
        <ele>51</ele>
        <time>2022-11-01T10:42:19.000Z</time>
      </trkpt>
      <trkpt lat="42.524345554411411285400390625" lon="-8.6953288502991199493408203125">
        <ele>50.799999237060546875</ele>
        <time>2022-11-01T10:42:20.000Z</time>
      </trkpt>
      <trkpt lat="42.524449490010738372802734375" lon="-8.69536480866372585296630859375">
        <ele>50.799999237060546875</ele>
        <time>2022-11-01T10:42:21.000Z</time>
      </trkpt>
      <trkpt lat="42.52455250360071659088134765625" lon="-8.69539934210479259490966796875">
        <ele>50.59999847412109375</ele>
        <time>2022-11-01T10:42:22.000Z</time>
      </trkpt>
      <trkpt lat="42.52465442754328250885009765625" lon="-8.69543261826038360595703125">
        <ele>50.59999847412109375</ele>
        <time>2022-11-01T10:42:23.000Z</time>
      </trkpt>
      <trkpt lat="42.5247520767152309417724609375" lon="-8.695467151701450347900390625">
        <ele>50.59999847412109375</ele>
        <time>2022-11-01T10:42:24.000Z</time>
      </trkpt>
      <trkpt lat="42.52484746277332305908203125" lon="-8.69550311006605625152587890625">
        <ele>50.59999847412109375</ele>
        <time>2022-11-01T10:42:25.000Z</time>
      </trkpt>
      <trkpt lat="42.52494134008884429931640625" lon="-8.69553764350712299346923828125">
        <ele>51.200000762939453125</ele>
        <time>2022-11-01T10:42:26.000Z</time>
      </trkpt>
      <trkpt lat="42.52503228373825550079345703125" lon="-8.69557234458625316619873046875">
        <ele>51.59999847412109375</ele>
        <time>2022-11-01T10:42:27.000Z</time>
      </trkpt>
      <trkpt lat="42.52512113191187381744384765625" lon="-8.6956044472754001617431640625">
        <ele>51.799999237060546875</ele>
        <time>2022-11-01T10:42:28.000Z</time>
      </trkpt>
      <trkpt lat="42.52521031536161899566650390625" lon="-8.6956349574029445648193359375">
        <ele>52.40000152587890625</ele>
        <time>2022-11-01T10:42:29.000Z</time>
      </trkpt>
      <trkpt lat="42.52529882825911045074462890625" lon="-8.69566471315920352935791015625">
        <ele>52.40000152587890625</ele>
        <time>2022-11-01T10:42:30.000Z</time>
      </trkpt>
      <trkpt lat="42.5253854133188724517822265625" lon="-8.69569337926805019378662109375">
        <ele>53</ele>
        <time>2022-11-01T10:42:31.000Z</time>
      </trkpt>
      <trkpt lat="42.5254712440073490142822265625" lon="-8.69572254829108715057373046875">
        <ele>53.200000762939453125</ele>
        <time>2022-11-01T10:42:32.000Z</time>
      </trkpt>
      <trkpt lat="42.525555901229381561279296875" lon="-8.69575121439993381500244140625">
        <ele>53.59999847412109375</ele>
        <time>2022-11-01T10:42:33.000Z</time>
      </trkpt>
      <trkpt lat="42.525641061365604400634765625" lon="-8.6957804672420024871826171875">
        <ele>53.799999237060546875</ele>
        <time>2022-11-01T10:42:34.000Z</time>
      </trkpt>
      <trkpt lat="42.525726892054080963134765625" lon="-8.69581256993114948272705078125">
        <ele>53.799999237060546875</ele>
        <time>2022-11-01T10:42:35.000Z</time>
      </trkpt>
      <trkpt lat="42.52581180073320865631103515625" lon="-8.69584676809608936309814453125">
        <ele>54</ele>
        <time>2022-11-01T10:42:36.000Z</time>
      </trkpt>
      <trkpt lat="42.5258967094123363494873046875" lon="-8.695884235203266143798828125">
        <ele>54</ele>
        <time>2022-11-01T10:42:37.000Z</time>
      </trkpt>
      <trkpt lat="42.52598337829113006591796875" lon="-8.6959182657301425933837890625">
        <ele>54</ele>
        <time>2022-11-01T10:42:38.000Z</time>
      </trkpt>
      <trkpt lat="42.52606962807476520538330078125" lon="-8.695950619876384735107421875">
        <ele>54</ele>
        <time>2022-11-01T10:42:39.000Z</time>
      </trkpt>
      <trkpt lat="42.52615713514387607574462890625" lon="-8.6959859915077686309814453125">
        <ele>54</ele>
        <time>2022-11-01T10:42:40.000Z</time>
      </trkpt>
      <trkpt lat="42.52624480985105037689208984375" lon="-8.6960265599191188812255859375">
        <ele>54</ele>
        <time>2022-11-01T10:42:41.000Z</time>
      </trkpt>
      <trkpt lat="42.52633340656757354736328125" lon="-8.6960694752633571624755859375">
        <ele>54</ele>
        <time>2022-11-01T10:42:42.000Z</time>
      </trkpt>
      <trkpt lat="42.526423595845699310302734375" lon="-8.69611322879791259765625">
        <ele>54</ele>
        <time>2022-11-01T10:42:43.000Z</time>
      </trkpt>
      <trkpt lat="42.52651403658092021942138671875" lon="-8.69615924544632434844970703125">
        <ele>54</ele>
        <time>2022-11-01T10:42:44.000Z</time>
      </trkpt>
      <trkpt lat="42.52660556696355342864990234375" lon="-8.69620651938021183013916015625">
        <ele>53.799999237060546875</ele>
        <time>2022-11-01T10:42:45.000Z</time>
      </trkpt>
      <trkpt lat="42.52669810317456722259521484375" lon="-8.69625781662762165069580078125">
        <ele>53.799999237060546875</ele>
        <time>2022-11-01T10:42:46.000Z</time>
      </trkpt>
      <trkpt lat="42.52679214812815189361572265625" lon="-8.69630911387503147125244140625">
        <ele>53.59999847412109375</ele>
        <time>2022-11-01T10:42:47.000Z</time>
      </trkpt>
      <trkpt lat="42.526887618005275726318359375" lon="-8.69636191986501216888427734375">
        <ele>53.40000152587890625</ele>
        <time>2022-11-01T10:42:48.000Z</time>
      </trkpt>
      <trkpt lat="42.52698593772947788238525390625" lon="-8.696415312588214874267578125">
        <ele>53.40000152587890625</ele>
        <time>2022-11-01T10:42:49.000Z</time>
      </trkpt>
      <trkpt lat="42.5270849280059337615966796875" lon="-8.69647088460624217987060546875">
        <ele>53.200000762939453125</ele>
        <time>2022-11-01T10:42:50.000Z</time>
      </trkpt>
      <trkpt lat="42.527185343205928802490234375" lon="-8.696526624262332916259765625">
        <ele>53</ele>
        <time>2022-11-01T10:42:51.000Z</time>
      </trkpt>
      <trkpt lat="42.52728533931076526641845703125" lon="-8.69658454321324825286865234375">
        <ele>52.40000152587890625</ele>
        <time>2022-11-01T10:42:52.000Z</time>
      </trkpt>
      <trkpt lat="42.5273662246763706207275390625" lon="-8.69663181714713573455810546875">
        <ele>51.40000152587890625</ele>
        <time>2022-11-01T10:42:53.000Z</time>
      </trkpt>
      <trkpt lat="42.52748633734881877899169921875" lon="-8.69670138694345951080322265625">
        <ele>51</ele>
        <time>2022-11-01T10:42:54.000Z</time>
      </trkpt>
      <trkpt lat="42.527586333453655242919921875" lon="-8.69675704278051853179931640625">
        <ele>50.200000762939453125</ele>
        <time>2022-11-01T10:42:55.000Z</time>
      </trkpt>
      <trkpt lat="42.5276877544820308685302734375" lon="-8.69681068696081638336181640625">
        <ele>49.799999237060546875</ele>
        <time>2022-11-01T10:42:56.000Z</time>
      </trkpt>
      <trkpt lat="42.5277672149240970611572265625" lon="-8.69685427285730838775634765625">
        <ele>49.40000152587890625</ele>
        <time>2022-11-01T10:42:57.000Z</time>
      </trkpt>
      <trkpt lat="42.5278664566576480865478515625" lon="-8.69691344909369945526123046875">
        <ele>49</ele>
        <time>2022-11-01T10:42:58.000Z</time>
      </trkpt>
      <trkpt lat="42.52796687185764312744140625" lon="-8.69697212241590023040771484375">
        <ele>48.799999237060546875</ele>
        <time>2022-11-01T10:42:59.000Z</time>
      </trkpt>
      <trkpt lat="42.5280877389013767242431640625" lon="-8.697040937840938568115234375">
        <ele>48.200000762939453125</ele>
        <time>2022-11-01T10:43:00.000Z</time>
      </trkpt>
      <trkpt lat="42.52816803753376007080078125" lon="-8.69708594866096973419189453125">
        <ele>47.799999237060546875</ele>
        <time>2022-11-01T10:43:01.000Z</time>
      </trkpt>
      <trkpt lat="42.5282681174576282501220703125" lon="-8.6971420235931873321533203125">
        <ele>47.40000152587890625</ele>
        <time>2022-11-01T10:43:02.000Z</time>
      </trkpt>
      <trkpt lat="42.52838789485394954681396484375" lon="-8.6972110904753208160400390625">
        <ele>47.200000762939453125</ele>
        <time>2022-11-01T10:43:03.000Z</time>
      </trkpt>
      <trkpt lat="42.52848965115845203399658203125" lon="-8.69726850651204586029052734375">
        <ele>47</ele>
        <time>2022-11-01T10:43:04.000Z</time>
      </trkpt>
      <trkpt lat="42.52859325148165225982666015625" lon="-8.69732625782489776611328125">
        <ele>47</ele>
        <time>2022-11-01T10:43:05.000Z</time>
      </trkpt>
      <trkpt lat="42.52867908217012882232666015625" lon="-8.69737378321588039398193359375">
        <ele>46.799999237060546875</ele>
        <time>2022-11-01T10:43:06.000Z</time>
      </trkpt>
      <trkpt lat="42.5287882983684539794921875" lon="-8.69743530638515949249267578125">
        <ele>46.59999847412109375</ele>
        <time>2022-11-01T10:43:07.000Z</time>
      </trkpt>
      <trkpt lat="42.52889893949031829833984375" lon="-8.6974980868399143218994140625">
        <ele>46.40000152587890625</ele>
        <time>2022-11-01T10:43:08.000Z</time>
      </trkpt>
      <trkpt lat="42.52903531305491924285888671875" lon="-8.69757461361587047576904296875">
        <ele>46.200000762939453125</ele>
        <time>2022-11-01T10:43:09.000Z</time>
      </trkpt>
      <trkpt lat="42.5291508994996547698974609375" lon="-8.697640411555767059326171875">
        <ele>46</ele>
        <time>2022-11-01T10:43:10.000Z</time>
      </trkpt>
      <trkpt lat="42.52924603410065174102783203125" lon="-8.6976932175457477569580078125">
        <ele>45.40000152587890625</ele>
        <time>2022-11-01T10:43:11.000Z</time>
      </trkpt>
      <trkpt lat="42.5293651409447193145751953125" lon="-8.69775968603789806365966796875">
        <ele>45</ele>
        <time>2022-11-01T10:43:12.000Z</time>
      </trkpt>
      <trkpt lat="42.5295099802315235137939453125" lon="-8.69784199632704257965087890625">
        <ele>44.40000152587890625</ele>
        <time>2022-11-01T10:43:13.000Z</time>
      </trkpt>
      <trkpt lat="42.52963059581816196441650390625" lon="-8.69790905155241489410400390625">
        <ele>43.799999237060546875</ele>
        <time>2022-11-01T10:43:14.000Z</time>
      </trkpt>
      <trkpt lat="42.529751546680927276611328125" lon="-8.6979758553206920623779296875">
        <ele>43.40000152587890625</ele>
        <time>2022-11-01T10:43:15.000Z</time>
      </trkpt>
      <trkpt lat="42.529848776757717132568359375" lon="-8.69803092442452907562255859375">
        <ele>43</ele>
        <time>2022-11-01T10:43:16.000Z</time>
      </trkpt>
      <trkpt lat="42.52997039817273616790771484375" lon="-8.6980995722115039825439453125">
        <ele>42.799999237060546875</ele>
        <time>2022-11-01T10:43:17.000Z</time>
      </trkpt>
      <trkpt lat="42.5301191769540309906005859375" lon="-8.69818448089063167572021484375">
        <ele>42.40000152587890625</ele>
        <time>2022-11-01T10:43:18.000Z</time>
      </trkpt>
      <trkpt lat="42.53024281002581119537353515625" lon="-8.69825673289597034454345703125">
        <ele>42.200000762939453125</ele>
        <time>2022-11-01T10:43:19.000Z</time>
      </trkpt>
      <trkpt lat="42.5303424708545207977294921875" lon="-8.69831473566591739654541015625">
        <ele>42</ele>
        <time>2022-11-01T10:43:20.000Z</time>
      </trkpt>
      <trkpt lat="42.530467025935649871826171875" lon="-8.69838447310030460357666015625">
        <ele>42</ele>
        <time>2022-11-01T10:43:21.000Z</time>
      </trkpt>
      <trkpt lat="42.53061580471694469451904296875" lon="-8.69846845977008342742919921875">
        <ele>41.59999847412109375</ele>
        <time>2022-11-01T10:43:22.000Z</time>
      </trkpt>
      <trkpt lat="42.530739605426788330078125" lon="-8.69853819720447063446044921875">
        <ele>41</ele>
        <time>2022-11-01T10:43:23.000Z</time>
      </trkpt>
      <trkpt lat="42.53086441196501255035400390625" lon="-8.6986078508198261260986328125">
        <ele>40.59999847412109375</ele>
        <time>2022-11-01T10:43:24.000Z</time>
      </trkpt>
      <trkpt lat="42.53096298314630985260009765625" lon="-8.69866275228559970855712890625">
        <ele>40.200000762939453125</ele>
        <time>2022-11-01T10:43:25.000Z</time>
      </trkpt>
      <trkpt lat="42.53108485601842403411865234375" lon="-8.698731400072574615478515625">
        <ele>40</ele>
        <time>2022-11-01T10:43:26.000Z</time>
      </trkpt>
      <trkpt lat="42.531230114400386810302734375" lon="-8.6988128721714019775390625">
        <ele>39.59999847412109375</ele>
        <time>2022-11-01T10:43:27.000Z</time>
      </trkpt>
      <trkpt lat="42.53135022707283496856689453125" lon="-8.69887900538742542266845703125">
        <ele>39.40000152587890625</ele>
        <time>2022-11-01T10:43:28.000Z</time>
      </trkpt>
      <trkpt lat="42.53144443966448307037353515625" lon="-8.6989300511777400970458984375">
        <ele>39</ele>
        <time>2022-11-01T10:43:29.000Z</time>
      </trkpt>
      <trkpt lat="42.53156128339469432830810546875" lon="-8.69899467565119266510009765625">
        <ele>39</ele>
        <time>2022-11-01T10:43:30.000Z</time>
      </trkpt>
      <trkpt lat="42.531678713858127593994140625" lon="-8.69906223379075527191162109375">
        <ele>38.799999237060546875</ele>
        <time>2022-11-01T10:43:31.000Z</time>
      </trkpt>
      <trkpt lat="42.53181743435561656951904296875" lon="-8.6991401016712188720703125">
        <ele>38.799999237060546875</ele>
        <time>2022-11-01T10:43:32.000Z</time>
      </trkpt>
      <trkpt lat="42.5319306738674640655517578125" lon="-8.69920087046921253204345703125">
        <ele>38.40000152587890625</ele>
        <time>2022-11-01T10:43:33.000Z</time>
      </trkpt>
      <trkpt lat="42.5320195220410823822021484375" lon="-8.69924998842179775238037109375">
        <ele>38.200000762939453125</ele>
        <time>2022-11-01T10:43:34.000Z</time>
      </trkpt>
      <trkpt lat="42.53212974406778812408447265625" lon="-8.69931402616202831268310546875">
        <ele>38.200000762939453125</ele>
        <time>2022-11-01T10:43:35.000Z</time>
      </trkpt>
      <trkpt lat="42.53226117230951786041259765625" lon="-8.6993917264044284820556640625">
        <ele>38.200000762939453125</ele>
        <time>2022-11-01T10:43:36.000Z</time>
      </trkpt>
      <trkpt lat="42.53237080760300159454345703125" lon="-8.69945383630692958831787109375">
        <ele>38.200000762939453125</ele>
        <time>2022-11-01T10:43:37.000Z</time>
      </trkpt>
      <trkpt lat="42.5324791856110095977783203125" lon="-8.69951502420008182525634765625">
        <ele>38.200000762939453125</ele>
        <time>2022-11-01T10:43:38.000Z</time>
      </trkpt>
      <trkpt lat="42.53256359137594699859619140625" lon="-8.69956330396234989166259765625">
        <ele>38.40000152587890625</ele>
        <time>2022-11-01T10:43:39.000Z</time>
      </trkpt>
      <trkpt lat="42.53267012536525726318359375" lon="-8.69962231256067752838134765625">
        <ele>38.40000152587890625</ele>
        <time>2022-11-01T10:43:40.000Z</time>
      </trkpt>
      <trkpt lat="42.5327946804463863372802734375" lon="-8.69969070889055728912353515625">
        <ele>38.40000152587890625</ele>
        <time>2022-11-01T10:43:41.000Z</time>
      </trkpt>
      <trkpt lat="42.53289769403636455535888671875" lon="-8.69974686764180660247802734375">
        <ele>38.40000152587890625</ele>
        <time>2022-11-01T10:43:42.000Z</time>
      </trkpt>
      <trkpt lat="42.53299911506474018096923828125" lon="-8.69980403222143650054931640625">
        <ele>38.40000152587890625</ele>
        <time>2022-11-01T10:43:43.000Z</time>
      </trkpt>
      <trkpt lat="42.53307958133518695831298828125" lon="-8.69984694756567478179931640625">
        <ele>38.40000152587890625</ele>
        <time>2022-11-01T10:43:44.000Z</time>
      </trkpt>
      <trkpt lat="42.53318066708743572235107421875" lon="-8.69989908300340175628662109375">
        <ele>38.59999847412109375</ele>
        <time>2022-11-01T10:43:45.000Z</time>
      </trkpt>
      <trkpt lat="42.5332801602780818939208984375" lon="-8.69995172135531902313232421875">
        <ele>38.59999847412109375</ele>
        <time>2022-11-01T10:43:46.000Z</time>
      </trkpt>
      <trkpt lat="42.53339742310345172882080078125" lon="-8.7000123225152492523193359375">
        <ele>38.59999847412109375</ele>
        <time>2022-11-01T10:43:47.000Z</time>
      </trkpt>
      <trkpt lat="42.5334732793271541595458984375" lon="-8.70005314238369464874267578125">
        <ele>38.59999847412109375</ele>
        <time>2022-11-01T10:43:48.000Z</time>
      </trkpt>
      <trkpt lat="42.53356506116688251495361328125" lon="-8.70010762475430965423583984375">
        <ele>38.799999237060546875</ele>
        <time>2022-11-01T10:43:49.000Z</time>
      </trkpt>
      <trkpt lat="42.53365491516888141632080078125" lon="-8.70016043074429035186767578125">
        <ele>39</ele>
        <time>2022-11-01T10:43:50.000Z</time>
      </trkpt>
      <trkpt lat="42.53376287408173084259033203125" lon="-8.70022228918969631195068359375">
        <ele>39.40000152587890625</ele>
        <time>2022-11-01T10:43:51.000Z</time>
      </trkpt>
      <trkpt lat="42.533853985369205474853515625" lon="-8.7002745084464550018310546875">
        <ele>39.59999847412109375</ele>
        <time>2022-11-01T10:43:52.000Z</time>
      </trkpt>
      <trkpt lat="42.53392531536519527435302734375" lon="-8.7003157474100589752197265625">
        <ele>39.59999847412109375</ele>
        <time>2022-11-01T10:43:53.000Z</time>
      </trkpt>
      <trkpt lat="42.534014247357845306396484375" lon="-8.7003658711910247802734375">
        <ele>39.59999847412109375</ele>
        <time>2022-11-01T10:43:54.000Z</time>
      </trkpt>
      <trkpt lat="42.53412044607102870941162109375" lon="-8.7004273943603038787841796875">
        <ele>39.799999237060546875</ele>
        <time>2022-11-01T10:43:55.000Z</time>
      </trkpt>
      <trkpt lat="42.5342092104256153106689453125" lon="-8.70047927834093570709228515625">
        <ele>39.799999237060546875</ele>
        <time>2022-11-01T10:43:56.000Z</time>
      </trkpt>
      <trkpt lat="42.53429629839956760406494140625" lon="-8.70053024031221866607666015625">
        <ele>39.799999237060546875</ele>
        <time>2022-11-01T10:43:57.000Z</time>
      </trkpt>
      <trkpt lat="42.53436469472944736480712890625" lon="-8.7005708925426006317138671875">
        <ele>39.799999237060546875</ele>
        <time>2022-11-01T10:43:58.000Z</time>
      </trkpt>
      <trkpt lat="42.53444968722760677337646484375" lon="-8.70062277652323246002197265625">
        <ele>40</ele>
        <time>2022-11-01T10:43:59.000Z</time>
      </trkpt>
      <trkpt lat="42.53453535027801990509033203125" lon="-8.70067491196095943450927734375">
        <ele>40.200000762939453125</ele>
        <time>2022-11-01T10:44:00.000Z</time>
      </trkpt>
      <trkpt lat="42.5346393696963787078857421875" lon="-8.70073559693992137908935546875">
        <ele>40.200000762939453125</ele>
        <time>2022-11-01T10:44:01.000Z</time>
      </trkpt>
      <trkpt lat="42.53470885567367076873779296875" lon="-8.7007757462561130523681640625">
        <ele>40.200000762939453125</ele>
        <time>2022-11-01T10:44:02.000Z</time>
      </trkpt>
      <trkpt lat="42.53479569219052791595458984375" lon="-8.7008257023990154266357421875">
        <ele>40.200000762939453125</ele>
        <time>2022-11-01T10:44:03.000Z</time>
      </trkpt>
      <trkpt lat="42.53490029834210872650146484375" lon="-8.70088546536862850189208984375">
        <ele>40.40000152587890625</ele>
        <time>2022-11-01T10:44:04.000Z</time>
      </trkpt>
      <trkpt lat="42.53498897887766361236572265625" lon="-8.70093525387346744537353515625">
        <ele>40.40000152587890625</ele>
        <time>2022-11-01T10:44:05.000Z</time>
      </trkpt>
      <trkpt lat="42.53507581539452075958251953125" lon="-8.7009846232831478118896484375">
        <ele>40.59999847412109375</ele>
        <time>2022-11-01T10:44:06.000Z</time>
      </trkpt>
      <trkpt lat="42.53514538519084453582763671875" lon="-8.7010248564183712005615234375">
        <ele>40.59999847412109375</ele>
        <time>2022-11-01T10:44:07.000Z</time>
      </trkpt>
      <trkpt lat="42.5352328084409236907958984375" lon="-8.7010741420090198516845703125">
        <ele>40.59999847412109375</ele>
        <time>2022-11-01T10:44:08.000Z</time>
      </trkpt>
      <trkpt lat="42.5353367440402507781982421875" lon="-8.70113440789282321929931640625">
        <ele>40.59999847412109375</ele>
        <time>2022-11-01T10:44:09.000Z</time>
      </trkpt>
      <trkpt lat="42.53542366437613964080810546875" lon="-8.70118469931185245513916015625">
        <ele>40.40000152587890625</ele>
        <time>2022-11-01T10:44:10.000Z</time>
      </trkpt>
      <trkpt lat="42.53551066853106021881103515625" lon="-8.701233565807342529296875">
        <ele>40.40000152587890625</ele>
        <time>2022-11-01T10:44:11.000Z</time>
      </trkpt>
      <trkpt lat="42.5355801545083522796630859375" lon="-8.7012692727148532867431640625">
        <ele>40.40000152587890625</ele>
        <time>2022-11-01T10:44:12.000Z</time>
      </trkpt>
      <trkpt lat="42.535665147006511688232421875" lon="-8.70131378062069416046142578125">
        <ele>40.40000152587890625</ele>
        <time>2022-11-01T10:44:13.000Z</time>
      </trkpt>
      <trkpt lat="42.53576497547328472137451171875" lon="-8.7013698555529117584228515625">
        <ele>40.40000152587890625</ele>
        <time>2022-11-01T10:44:14.000Z</time>
      </trkpt>
      <trkpt lat="42.5358463637530803680419921875" lon="-8.7014174647629261016845703125">
        <ele>40.40000152587890625</ele>
        <time>2022-11-01T10:44:15.000Z</time>
      </trkpt>
      <trkpt lat="42.53591149114072322845458984375" lon="-8.70145392604172229766845703125">
        <ele>40.59999847412109375</ele>
        <time>2022-11-01T10:44:16.000Z</time>
      </trkpt>
      <trkpt lat="42.535993047058582305908203125" lon="-8.70149910449981689453125">
        <ele>40.59999847412109375</ele>
        <time>2022-11-01T10:44:17.000Z</time>
      </trkpt>
      <trkpt lat="42.536090277135372161865234375" lon="-8.70155073702335357666015625">
        <ele>40.59999847412109375</ele>
        <time>2022-11-01T10:44:18.000Z</time>
      </trkpt>
      <trkpt lat="42.5361697375774383544921875" lon="-8.7015951611101627349853515625">
        <ele>40.59999847412109375</ele>
        <time>2022-11-01T10:44:19.000Z</time>
      </trkpt>
      <trkpt lat="42.53624710254371166229248046875" lon="-8.70163933373987674713134765625">
        <ele>40.799999237060546875</ele>
        <time>2022-11-01T10:44:20.000Z</time>
      </trkpt>
      <trkpt lat="42.53630896098911762237548828125" lon="-8.70167353190481662750244140625">
        <ele>41.200000762939453125</ele>
        <time>2022-11-01T10:44:21.000Z</time>
      </trkpt>
      <trkpt lat="42.5363858230412006378173828125" lon="-8.7017168663442134857177734375">
        <ele>41.200000762939453125</ele>
        <time>2022-11-01T10:44:22.000Z</time>
      </trkpt>
      <trkpt lat="42.536463104188442230224609375" lon="-8.70176154188811779022216796875">
        <ele>41.40000152587890625</ele>
        <time>2022-11-01T10:44:23.000Z</time>
      </trkpt>
      <trkpt lat="42.53655371256172657012939453125" lon="-8.70181451551616191864013671875">
        <ele>41.40000152587890625</ele>
        <time>2022-11-01T10:44:24.000Z</time>
      </trkpt>
      <trkpt lat="42.53662881441414356231689453125" lon="-8.70185558684170246124267578125">
        <ele>41.59999847412109375</ele>
        <time>2022-11-01T10:44:25.000Z</time>
      </trkpt>
      <trkpt lat="42.53668732009828090667724609375" lon="-8.7018891982734203338623046875">
        <ele>41.59999847412109375</ele>
        <time>2022-11-01T10:44:26.000Z</time>
      </trkpt>
      <trkpt lat="42.53676225431263446807861328125" lon="-8.70193303562700748443603515625">
        <ele>41.59999847412109375</ele>
        <time>2022-11-01T10:44:27.000Z</time>
      </trkpt>
      <trkpt lat="42.536851353943347930908203125" lon="-8.70198416523635387420654296875">
        <ele>41.799999237060546875</ele>
        <time>2022-11-01T10:44:28.000Z</time>
      </trkpt>
      <trkpt lat="42.5369242765009403228759765625" lon="-8.70202607475221157073974609375">
        <ele>42</ele>
        <time>2022-11-01T10:44:29.000Z</time>
      </trkpt>
      <trkpt lat="42.536981441080570220947265625" lon="-8.7020581774413585662841796875">
        <ele>42</ele>
        <time>2022-11-01T10:44:30.000Z</time>
      </trkpt>
      <trkpt lat="42.53705210052430629730224609375" lon="-8.70209966786205768585205078125">
        <ele>42.200000762939453125</ele>
        <time>2022-11-01T10:44:31.000Z</time>
      </trkpt>
      <trkpt lat="42.53712259232997894287109375" lon="-8.70213923044502735137939453125">
        <ele>42.200000762939453125</ele>
        <time>2022-11-01T10:44:32.000Z</time>
      </trkpt>
      <trkpt lat="42.53720750100910663604736328125" lon="-8.70218398980796337127685546875">
        <ele>42.40000152587890625</ele>
        <time>2022-11-01T10:44:33.000Z</time>
      </trkpt>
      <trkpt lat="42.53727807663381099700927734375" lon="-8.702222295105457305908203125">
        <ele>42.59999847412109375</ele>
        <time>2022-11-01T10:44:34.000Z</time>
      </trkpt>
      <trkpt lat="42.53734831698238849639892578125" lon="-8.7022593431174755096435546875">
        <ele>43</ele>
        <time>2022-11-01T10:44:35.000Z</time>
      </trkpt>
      <trkpt lat="42.5374167971312999725341796875" lon="-8.702298738062381744384765625">
        <ele>43.40000152587890625</ele>
        <time>2022-11-01T10:44:36.000Z</time>
      </trkpt>
      <trkpt lat="42.537485025823116302490234375" lon="-8.7023398093879222869873046875">
        <ele>43.40000152587890625</ele>
        <time>2022-11-01T10:44:37.000Z</time>
      </trkpt>
      <trkpt lat="42.5375535897910594940185546875" lon="-8.70237819850444793701171875">
        <ele>43.59999847412109375</ele>
        <time>2022-11-01T10:44:38.000Z</time>
      </trkpt>
      <trkpt lat="42.53762324340641498565673828125" lon="-8.702416755259037017822265625">
        <ele>44</ele>
        <time>2022-11-01T10:44:39.000Z</time>
      </trkpt>
      <trkpt lat="42.5376937352120876312255859375" lon="-8.70245690457522869110107421875">
        <ele>44</ele>
        <time>2022-11-01T10:44:40.000Z</time>
      </trkpt>
      <trkpt lat="42.5377628020942211151123046875" lon="-8.70249780826270580291748046875">
        <ele>44.40000152587890625</ele>
        <time>2022-11-01T10:44:41.000Z</time>
      </trkpt>
      <trkpt lat="42.53783228807151317596435546875" lon="-8.70253804139792919158935546875">
        <ele>44.40000152587890625</ele>
        <time>2022-11-01T10:44:42.000Z</time>
      </trkpt>
      <trkpt lat="42.5379022769629955291748046875" lon="-8.702576346695423126220703125">
        <ele>44.59999847412109375</ele>
        <time>2022-11-01T10:44:43.000Z</time>
      </trkpt>
      <trkpt lat="42.5379703380167484283447265625" lon="-8.70261532254517078399658203125">
        <ele>44.799999237060546875</ele>
        <time>2022-11-01T10:44:44.000Z</time>
      </trkpt>
      <trkpt lat="42.53803856670856475830078125" lon="-8.70265312492847442626953125">
        <ele>44.799999237060546875</ele>
        <time>2022-11-01T10:44:45.000Z</time>
      </trkpt>
      <trkpt lat="42.53810553811490535736083984375" lon="-8.7026915140450000762939453125">
        <ele>45</ele>
        <time>2022-11-01T10:44:46.000Z</time>
      </trkpt>
      <trkpt lat="42.5381720066070556640625" lon="-8.70273149572312831878662109375">
        <ele>45.200000762939453125</ele>
        <time>2022-11-01T10:44:47.000Z</time>
      </trkpt>
      <trkpt lat="42.53823864273726940155029296875" lon="-8.70276938192546367645263671875">
        <ele>45.40000152587890625</ele>
        <time>2022-11-01T10:44:48.000Z</time>
      </trkpt>
      <trkpt lat="42.5383036024868488311767578125" lon="-8.70280559174716472625732421875">
        <ele>45.40000152587890625</ele>
        <time>2022-11-01T10:44:49.000Z</time>
      </trkpt>
      <trkpt lat="42.53837049007415771484375" lon="-8.702839873731136322021484375">
        <ele>45.59999847412109375</ele>
        <time>2022-11-01T10:44:50.000Z</time>
      </trkpt>
      <trkpt lat="42.538434527814388275146484375" lon="-8.7028765864670276641845703125">
        <ele>45.799999237060546875</ele>
        <time>2022-11-01T10:44:51.000Z</time>
      </trkpt>
      <trkpt lat="42.53849999047815799713134765625" lon="-8.7029124610126018524169921875">
        <ele>46</ele>
        <time>2022-11-01T10:44:52.000Z</time>
      </trkpt>
      <trkpt lat="42.53856570459902286529541015625" lon="-8.702947162091732025146484375">
        <ele>46</ele>
        <time>2022-11-01T10:44:53.000Z</time>
      </trkpt>
      <trkpt lat="42.53863007761538028717041015625" lon="-8.70298571884632110595703125">
        <ele>46.200000762939453125</ele>
        <time>2022-11-01T10:44:54.000Z</time>
      </trkpt>
      <trkpt lat="42.53869394771754741668701171875" lon="-8.7030244432389736175537109375">
        <ele>46.40000152587890625</ele>
        <time>2022-11-01T10:44:55.000Z</time>
      </trkpt>
      <trkpt lat="42.53875848837196826934814453125" lon="-8.70305855758488178253173828125">
        <ele>46.59999847412109375</ele>
        <time>2022-11-01T10:44:56.000Z</time>
      </trkpt>
      <trkpt lat="42.53882235847413539886474609375" lon="-8.7030931748449802398681640625">
        <ele>47</ele>
        <time>2022-11-01T10:44:57.000Z</time>
      </trkpt>
      <trkpt lat="42.5388856418430805206298828125" lon="-8.7031293846666812896728515625">
        <ele>47</ele>
        <time>2022-11-01T10:44:58.000Z</time>
      </trkpt>
      <trkpt lat="42.5389486737549304962158203125" lon="-8.7031660974025726318359375">
        <ele>47.200000762939453125</ele>
        <time>2022-11-01T10:44:59.000Z</time>
      </trkpt>
      <trkpt lat="42.53901262767612934112548828125" lon="-8.7032031454145908355712890625">
        <ele>47.40000152587890625</ele>
        <time>2022-11-01T10:45:00.000Z</time>
      </trkpt>
      <trkpt lat="42.53907792270183563232421875" lon="-8.70324010960757732391357421875">
        <ele>47.59999847412109375</ele>
        <time>2022-11-01T10:45:01.000Z</time>
      </trkpt>
      <trkpt lat="42.53914229571819305419921875" lon="-8.70327807962894439697265625">
        <ele>47.799999237060546875</ele>
        <time>2022-11-01T10:45:02.000Z</time>
      </trkpt>
      <trkpt lat="42.53920641727745532989501953125" lon="-8.70331504382193088531494140625">
        <ele>48.40000152587890625</ele>
        <time>2022-11-01T10:45:03.000Z</time>
      </trkpt>
      <trkpt lat="42.53926844336092472076416015625" lon="-8.70335024781525135040283203125">
        <ele>48.59999847412109375</ele>
        <time>2022-11-01T10:45:04.000Z</time>
      </trkpt>
      <trkpt lat="42.53933130763471126556396484375" lon="-8.70338276959955692291259765625">
        <ele>49</ele>
        <time>2022-11-01T10:45:05.000Z</time>
      </trkpt>
      <trkpt lat="42.53939400427043437957763671875" lon="-8.7034153752028942108154296875">
        <ele>49.200000762939453125</ele>
        <time>2022-11-01T10:45:06.000Z</time>
      </trkpt>
      <trkpt lat="42.539456449449062347412109375" lon="-8.70345166884362697601318359375">
        <ele>49.59999847412109375</ele>
        <time>2022-11-01T10:45:07.000Z</time>
      </trkpt>
      <trkpt lat="42.5395176373422145843505859375" lon="-8.70348670519888401031494140625">
        <ele>49.799999237060546875</ele>
        <time>2022-11-01T10:45:08.000Z</time>
      </trkpt>
      <trkpt lat="42.539578489959239959716796875" lon="-8.703521825373172760009765625">
        <ele>49.799999237060546875</ele>
        <time>2022-11-01T10:45:09.000Z</time>
      </trkpt>
      <trkpt lat="42.53963942639529705047607421875" lon="-8.70355560444295406341552734375">
        <ele>50</ele>
        <time>2022-11-01T10:45:10.000Z</time>
      </trkpt>
      <trkpt lat="42.53969910554587841033935546875" lon="-8.703588545322418212890625">
        <ele>50.200000762939453125</ele>
        <time>2022-11-01T10:45:11.000Z</time>
      </trkpt>
      <trkpt lat="42.539758868515491485595703125" lon="-8.703623749315738677978515625">
        <ele>50.40000152587890625</ele>
        <time>2022-11-01T10:45:12.000Z</time>
      </trkpt>
      <trkpt lat="42.53982081077992916107177734375" lon="-8.7036601267755031585693359375">
        <ele>50.59999847412109375</ele>
        <time>2022-11-01T10:45:13.000Z</time>
      </trkpt>
      <trkpt lat="42.5398824177682399749755859375" lon="-8.70369658805429935455322265625">
        <ele>51</ele>
        <time>2022-11-01T10:45:14.000Z</time>
      </trkpt>
      <trkpt lat="42.5399437732994556427001953125" lon="-8.70373195968568325042724609375">
        <ele>51</ele>
        <time>2022-11-01T10:45:15.000Z</time>
      </trkpt>
      <trkpt lat="42.54000571556389331817626953125" lon="-8.7037664093077182769775390625">
        <ele>51.200000762939453125</ele>
        <time>2022-11-01T10:45:16.000Z</time>
      </trkpt>
      <trkpt lat="42.54006774164736270904541015625" lon="-8.70380085892975330352783203125">
        <ele>51.59999847412109375</ele>
        <time>2022-11-01T10:45:17.000Z</time>
      </trkpt>
      <trkpt lat="42.54013068974018096923828125" lon="-8.70383740402758121490478515625">
        <ele>51.59999847412109375</ele>
        <time>2022-11-01T10:45:18.000Z</time>
      </trkpt>
      <trkpt lat="42.5401932187378406524658203125" lon="-8.70387193746864795684814453125">
        <ele>51.799999237060546875</ele>
        <time>2022-11-01T10:45:19.000Z</time>
      </trkpt>
      <trkpt lat="42.5402562506496906280517578125" lon="-8.70390580035746097564697265625">
        <ele>51.799999237060546875</ele>
        <time>2022-11-01T10:45:20.000Z</time>
      </trkpt>
      <trkpt lat="42.540318779647350311279296875" lon="-8.7039424292743206024169921875">
        <ele>52</ele>
        <time>2022-11-01T10:45:21.000Z</time>
      </trkpt>
      <trkpt lat="42.5403803028166294097900390625" lon="-8.70397637598216533660888671875">
        <ele>52.200000762939453125</ele>
        <time>2022-11-01T10:45:22.000Z</time>
      </trkpt>
      <trkpt lat="42.54044241271913051605224609375" lon="-8.70401157997548580169677734375">
        <ele>52.40000152587890625</ele>
        <time>2022-11-01T10:45:23.000Z</time>
      </trkpt>
      <trkpt lat="42.5405070371925830841064453125" lon="-8.7040485441684722900390625">
        <ele>52.40000152587890625</ele>
        <time>2022-11-01T10:45:24.000Z</time>
      </trkpt>
      <trkpt lat="42.540570907294750213623046875" lon="-8.704084418714046478271484375">
        <ele>52.59999847412109375</ele>
        <time>2022-11-01T10:45:25.000Z</time>
      </trkpt>
      <trkpt lat="42.5406344421207904815673828125" lon="-8.7041211314499378204345703125">
        <ele>52.59999847412109375</ele>
        <time>2022-11-01T10:45:26.000Z</time>
      </trkpt>
      <trkpt lat="42.5406973063945770263671875" lon="-8.70415792800486087799072265625">
        <ele>52.59999847412109375</ele>
        <time>2022-11-01T10:45:27.000Z</time>
      </trkpt>
      <trkpt lat="42.540760673582553863525390625" lon="-8.7041952274739742279052734375">
        <ele>52.799999237060546875</ele>
        <time>2022-11-01T10:45:28.000Z</time>
      </trkpt>
      <trkpt lat="42.5408238731324672698974609375" lon="-8.70423470623791217803955078125">
        <ele>52.799999237060546875</ele>
        <time>2022-11-01T10:45:29.000Z</time>
      </trkpt>
      <trkpt lat="42.540888078510761260986328125" lon="-8.70427359826862812042236328125">
        <ele>53</ele>
        <time>2022-11-01T10:45:30.000Z</time>
      </trkpt>
      <trkpt lat="42.540953457355499267578125" lon="-8.70430913753807544708251953125">
        <ele>53</ele>
        <time>2022-11-01T10:45:31.000Z</time>
      </trkpt>
      <trkpt lat="42.5410186685621738433837890625" lon="-8.7043450959026813507080078125">
        <ele>53.200000762939453125</ele>
        <time>2022-11-01T10:45:32.000Z</time>
      </trkpt>
      <trkpt lat="42.54108379594981670379638671875" lon="-8.704382479190826416015625">
        <ele>53.40000152587890625</ele>
        <time>2022-11-01T10:45:33.000Z</time>
      </trkpt>
      <trkpt lat="42.5411504320800304412841796875" lon="-8.70442078448832035064697265625">
        <ele>53.40000152587890625</ele>
        <time>2022-11-01T10:45:34.000Z</time>
      </trkpt>
      <trkpt lat="42.54121740348637104034423828125" lon="-8.7044570781290531158447265625">
        <ele>53.40000152587890625</ele>
        <time>2022-11-01T10:45:35.000Z</time>
      </trkpt>
      <trkpt lat="42.54128378815948963165283203125" lon="-8.7044919468462467193603515625">
        <ele>53.40000152587890625</ele>
        <time>2022-11-01T10:45:36.000Z</time>
      </trkpt>
      <trkpt lat="42.54135034047067165374755859375" lon="-8.70452740229666233062744140625">
        <ele>53.40000152587890625</ele>
        <time>2022-11-01T10:45:37.000Z</time>
      </trkpt>
      <trkpt lat="42.54141605459153652191162109375" lon="-8.70456344448029994964599609375">
        <ele>53.40000152587890625</ele>
        <time>2022-11-01T10:45:38.000Z</time>
      </trkpt>
      <trkpt lat="42.54148227162659168243408203125" lon="-8.70460099540650844573974609375">
        <ele>53.59999847412109375</ele>
        <time>2022-11-01T10:45:39.000Z</time>
      </trkpt>
      <trkpt lat="42.541548907756805419921875" lon="-8.7046391330659389495849609375">
        <ele>53.59999847412109375</ele>
        <time>2022-11-01T10:45:40.000Z</time>
      </trkpt>
      <trkpt lat="42.54161537624895572662353515625" lon="-8.70467592962086200714111328125">
        <ele>53.59999847412109375</ele>
        <time>2022-11-01T10:45:41.000Z</time>
      </trkpt>
      <trkpt lat="42.54168142564594745635986328125" lon="-8.704712390899658203125">
        <ele>53.59999847412109375</ele>
        <time>2022-11-01T10:45:42.000Z</time>
      </trkpt>
      <trkpt lat="42.54174831323325634002685546875" lon="-8.70474885217845439910888671875">
        <ele>53.799999237060546875</ele>
        <time>2022-11-01T10:45:43.000Z</time>
      </trkpt>
      <trkpt lat="42.541816122829914093017578125" lon="-8.70478137396275997161865234375">
        <ele>53.799999237060546875</ele>
        <time>2022-11-01T10:45:44.000Z</time>
      </trkpt>
      <trkpt lat="42.54188351333141326904296875" lon="-8.7048118002712726593017578125">
        <ele>53.799999237060546875</ele>
        <time>2022-11-01T10:45:45.000Z</time>
      </trkpt>
      <trkpt lat="42.541953586041927337646484375" lon="-8.70483920909464359283447265625">
        <ele>53.799999237060546875</ele>
        <time>2022-11-01T10:45:46.000Z</time>
      </trkpt>
      <trkpt lat="42.54202458076179027557373046875" lon="-8.7048620916903018951416015625">
        <ele>53.799999237060546875</ele>
        <time>2022-11-01T10:45:47.000Z</time>
      </trkpt>
      <trkpt lat="42.54209599457681179046630859375" lon="-8.70488396845757961273193359375">
        <ele>53.799999237060546875</ele>
        <time>2022-11-01T10:45:48.000Z</time>
      </trkpt>
      <trkpt lat="42.54216782748699188232421875" lon="-8.704905174672603607177734375">
        <ele>54</ele>
        <time>2022-11-01T10:45:49.000Z</time>
      </trkpt>
      <trkpt lat="42.54223999567329883575439453125" lon="-8.7049254588782787322998046875">
        <ele>54</ele>
        <time>2022-11-01T10:45:50.000Z</time>
      </trkpt>
      <trkpt lat="42.54231266677379608154296875" lon="-8.70494649745523929595947265625">
        <ele>54.200000762939453125</ele>
        <time>2022-11-01T10:45:51.000Z</time>
      </trkpt>
      <trkpt lat="42.54238651134073734283447265625" lon="-8.70496761985123157501220703125">
        <ele>54.200000762939453125</ele>
        <time>2022-11-01T10:45:52.000Z</time>
      </trkpt>
      <trkpt lat="42.542460858821868896484375" lon="-8.70498723350465297698974609375">
        <ele>54.200000762939453125</ele>
        <time>2022-11-01T10:45:53.000Z</time>
      </trkpt>
      <trkpt lat="42.54253688268363475799560546875" lon="-8.7050055898725986480712890625">
        <ele>54.200000762939453125</ele>
        <time>2022-11-01T10:45:54.000Z</time>
      </trkpt>
      <trkpt lat="42.542613409459590911865234375" lon="-8.7050193361937999725341796875">
        <ele>54.200000762939453125</ele>
        <time>2022-11-01T10:45:55.000Z</time>
      </trkpt>
      <trkpt lat="42.54269110970199108123779296875" lon="-8.70502713136374950408935546875">
        <ele>54.200000762939453125</ele>
        <time>2022-11-01T10:45:56.000Z</time>
      </trkpt>
      <trkpt lat="42.5427694804966449737548828125" lon="-8.7050293944776058197021484375">
        <ele>54.200000762939453125</ele>
        <time>2022-11-01T10:45:57.000Z</time>
      </trkpt>
      <trkpt lat="42.542848773300647735595703125" lon="-8.70502822101116180419921875">
        <ele>54.200000762939453125</ele>
        <time>2022-11-01T10:45:58.000Z</time>
      </trkpt>
      <trkpt lat="42.5429300777614116668701171875" lon="-8.70502151548862457275390625">
        <ele>54.200000762939453125</ele>
        <time>2022-11-01T10:45:59.000Z</time>
      </trkpt>
      <trkpt lat="42.54301347769796848297119140625" lon="-8.70501137338578701019287109375">
        <ele>54.200000762939453125</ele>
        <time>2022-11-01T10:46:00.000Z</time>
      </trkpt>
      <trkpt lat="42.543098218739032745361328125" lon="-8.70499863289296627044677734375">
        <ele>54.200000762939453125</ele>
        <time>2022-11-01T10:46:01.000Z</time>
      </trkpt>
      <trkpt lat="42.54318379797041416168212890625" lon="-8.70498253963887691497802734375">
        <ele>54</ele>
        <time>2022-11-01T10:46:02.000Z</time>
      </trkpt>
      <trkpt lat="42.543270550668239593505859375" lon="-8.70496611110866069793701171875">
        <ele>54</ele>
        <time>2022-11-01T10:46:03.000Z</time>
      </trkpt>
      <trkpt lat="42.543359063565731048583984375" lon="-8.70494934730231761932373046875">
        <ele>53.799999237060546875</ele>
        <time>2022-11-01T10:46:04.000Z</time>
      </trkpt>
      <trkpt lat="42.543447576463222503662109375" lon="-8.70493107475340366363525390625">
        <ele>53.59999847412109375</ele>
        <time>2022-11-01T10:46:05.000Z</time>
      </trkpt>
      <trkpt lat="42.54353617317974567413330078125" lon="-8.70491196401417255401611328125">
        <ele>53.200000762939453125</ele>
        <time>2022-11-01T10:46:06.000Z</time>
      </trkpt>
      <trkpt lat="42.54362585954368114471435546875" lon="-8.70489008724689483642578125">
        <ele>53.200000762939453125</ele>
        <time>2022-11-01T10:46:07.000Z</time>
      </trkpt>
      <trkpt lat="42.54371554590761661529541015625" lon="-8.70486586354672908782958984375">
        <ele>52.799999237060546875</ele>
        <time>2022-11-01T10:46:08.000Z</time>
      </trkpt>
      <trkpt lat="42.5438059866428375244140625" lon="-8.7048413045704364776611328125">
        <ele>52.59999847412109375</ele>
        <time>2022-11-01T10:46:09.000Z</time>
      </trkpt>
      <trkpt lat="42.54389776848256587982177734375" lon="-8.70481741614639759063720703125">
        <ele>52.40000152587890625</ele>
        <time>2022-11-01T10:46:10.000Z</time>
      </trkpt>
      <trkpt lat="42.54399013705551624298095703125" lon="-8.70479361154139041900634765625">
        <ele>52.200000762939453125</ele>
        <time>2022-11-01T10:46:11.000Z</time>
      </trkpt>
      <trkpt lat="42.54408451728522777557373046875" lon="-8.70476963929831981658935546875">
        <ele>52</ele>
        <time>2022-11-01T10:46:12.000Z</time>
      </trkpt>
      <trkpt lat="42.54418157972395420074462890625" lon="-8.704743571579456329345703125">
        <ele>52</ele>
        <time>2022-11-01T10:46:13.000Z</time>
      </trkpt>
      <trkpt lat="42.54427897743880748748779296875" lon="-8.7047179229557514190673828125">
        <ele>51.799999237060546875</ele>
        <time>2022-11-01T10:46:14.000Z</time>
      </trkpt>
      <trkpt lat="42.5443771295249462127685546875" lon="-8.70469269342720508575439453125">
        <ele>51.40000152587890625</ele>
        <time>2022-11-01T10:46:15.000Z</time>
      </trkpt>
      <trkpt lat="42.54447519779205322265625" lon="-8.70466805063188076019287109375">
        <ele>51.40000152587890625</ele>
        <time>2022-11-01T10:46:16.000Z</time>
      </trkpt>
      <trkpt lat="42.54457469098269939422607421875" lon="-8.7046439945697784423828125">
        <ele>51.200000762939453125</ele>
        <time>2022-11-01T10:46:17.000Z</time>
      </trkpt>
      <trkpt lat="42.54467510618269443511962890625" lon="-8.70462111197412014007568359375">
        <ele>51.200000762939453125</ele>
        <time>2022-11-01T10:46:18.000Z</time>
      </trkpt>
      <trkpt lat="42.5447747670114040374755859375" lon="-8.7045978941023349761962890625">
        <ele>51</ele>
        <time>2022-11-01T10:46:19.000Z</time>
      </trkpt>
      <trkpt lat="42.544874846935272216796875" lon="-8.70457760989665985107421875">
        <ele>50.59999847412109375</ele>
        <time>2022-11-01T10:46:20.000Z</time>
      </trkpt>
      <trkpt lat="42.5449776090681552886962890625" lon="-8.70456009171903133392333984375">
        <ele>50.40000152587890625</ele>
        <time>2022-11-01T10:46:21.000Z</time>
      </trkpt>
      <trkpt lat="42.5450813770294189453125" lon="-8.7045435793697834014892578125">
        <ele>50.200000762939453125</ele>
        <time>2022-11-01T10:46:22.000Z</time>
      </trkpt>
      <trkpt lat="42.545187659561634063720703125" lon="-8.70452262461185455322265625">
        <ele>49.59999847412109375</ele>
        <time>2022-11-01T10:46:23.000Z</time>
      </trkpt>
      <trkpt lat="42.54529469646513462066650390625" lon="-8.7045030109584331512451171875">
        <ele>49.200000762939453125</ele>
        <time>2022-11-01T10:46:24.000Z</time>
      </trkpt>
      <trkpt lat="42.54540366120636463165283203125" lon="-8.7044849060475826263427734375">
        <ele>49</ele>
        <time>2022-11-01T10:46:25.000Z</time>
      </trkpt>
      <trkpt lat="42.54551363177597522735595703125" lon="-8.7044661305844783782958984375">
        <ele>48.59999847412109375</ele>
        <time>2022-11-01T10:46:26.000Z</time>
      </trkpt>
      <trkpt lat="42.54562276415526866912841796875" lon="-8.70444660075008869171142578125">
        <ele>48.40000152587890625</ele>
        <time>2022-11-01T10:46:27.000Z</time>
      </trkpt>
      <trkpt lat="42.5457313098013401031494140625" lon="-8.7044285796582698822021484375">
        <ele>48.200000762939453125</ele>
        <time>2022-11-01T10:46:28.000Z</time>
      </trkpt>
      <trkpt lat="42.5458402745425701141357421875" lon="-8.70440837927162647247314453125">
        <ele>47.799999237060546875</ele>
        <time>2022-11-01T10:46:29.000Z</time>
      </trkpt>
      <trkpt lat="42.545950077474117279052734375" lon="-8.70438910089433193206787109375">
        <ele>47.799999237060546875</ele>
        <time>2022-11-01T10:46:30.000Z</time>
      </trkpt>
      <trkpt lat="42.54606063477694988250732421875" lon="-8.7043704092502593994140625">
        <ele>47</ele>
        <time>2022-11-01T10:46:31.000Z</time>
      </trkpt>
      <trkpt lat="42.5461718626320362091064453125" lon="-8.70435121469199657440185546875">
        <ele>46.40000152587890625</ele>
        <time>2022-11-01T10:46:32.000Z</time>
      </trkpt>
      <trkpt lat="42.54628501832485198974609375" lon="-8.7043306790292263031005859375">
        <ele>45.59999847412109375</ele>
        <time>2022-11-01T10:46:33.000Z</time>
      </trkpt>
      <trkpt lat="42.54639943130314350128173828125" lon="-8.7043135799467563629150390625">
        <ele>45.40000152587890625</ele>
        <time>2022-11-01T10:46:34.000Z</time>
      </trkpt>
      <trkpt lat="42.54651510156691074371337890625" lon="-8.7042937986552715301513671875">
        <ele>44.799999237060546875</ele>
        <time>2022-11-01T10:46:35.000Z</time>
      </trkpt>
      <trkpt lat="42.54663127474486827850341796875" lon="-8.7042753584682941436767578125">
        <ele>44.59999847412109375</ele>
        <time>2022-11-01T10:46:36.000Z</time>
      </trkpt>
      <trkpt lat="42.546748705208301544189453125" lon="-8.7042606063187122344970703125">
        <ele>44.40000152587890625</ele>
        <time>2022-11-01T10:46:37.000Z</time>
      </trkpt>
      <trkpt lat="42.54686747677624225616455078125" lon="-8.7042451836168766021728515625">
        <ele>44.40000152587890625</ele>
        <time>2022-11-01T10:46:38.000Z</time>
      </trkpt>
      <trkpt lat="42.5469855777919292449951171875" lon="-8.70423085056245326995849609375">
        <ele>44.200000762939453125</ele>
        <time>2022-11-01T10:46:39.000Z</time>
      </trkpt>
      <trkpt lat="42.54710485227406024932861328125" lon="-8.70421844534575939178466796875">
        <ele>43.799999237060546875</ele>
        <time>2022-11-01T10:46:40.000Z</time>
      </trkpt>
      <trkpt lat="42.54722488112747669219970703125" lon="-8.70420989580452442169189453125">
        <ele>43.59999847412109375</ele>
        <time>2022-11-01T10:46:41.000Z</time>
      </trkpt>
      <trkpt lat="42.54734490998089313507080078125" lon="-8.7042019329965114593505859375">
        <ele>43</ele>
        <time>2022-11-01T10:46:42.000Z</time>
      </trkpt>
      <trkpt lat="42.54746510647237300872802734375" lon="-8.704196400940418243408203125">
        <ele>42.799999237060546875</ele>
        <time>2022-11-01T10:46:43.000Z</time>
      </trkpt>
      <trkpt lat="42.54758547060191631317138671875" lon="-8.70419397018849849700927734375">
        <ele>42.200000762939453125</ele>
        <time>2022-11-01T10:46:44.000Z</time>
      </trkpt>
      <trkpt lat="42.5477074272930622100830078125" lon="-8.70419313199818134307861328125">
        <ele>41.799999237060546875</ele>
        <time>2022-11-01T10:46:45.000Z</time>
      </trkpt>
      <trkpt lat="42.5478291325271129608154296875" lon="-8.704192377626895904541015625">
        <ele>41.200000762939453125</ele>
        <time>2022-11-01T10:46:46.000Z</time>
      </trkpt>
      <trkpt lat="42.5479498319327831268310546875" lon="-8.70419262908399105072021484375">
        <ele>41</ele>
        <time>2022-11-01T10:46:47.000Z</time>
      </trkpt>
      <trkpt lat="42.54806927405297756195068359375" lon="-8.704200424253940582275390625">
        <ele>40.799999237060546875</ele>
        <time>2022-11-01T10:46:48.000Z</time>
      </trkpt>
      <trkpt lat="42.5481875427067279815673828125" lon="-8.7042143382132053375244140625">
        <ele>40.40000152587890625</ele>
        <time>2022-11-01T10:46:49.000Z</time>
      </trkpt>
      <trkpt lat="42.54830514080822467803955078125" lon="-8.70423286221921443939208984375">
        <ele>40.200000762939453125</ele>
        <time>2022-11-01T10:46:50.000Z</time>
      </trkpt>
      <trkpt lat="42.54842181690037250518798828125" lon="-8.70425549335777759552001953125">
        <ele>39.799999237060546875</ele>
        <time>2022-11-01T10:46:51.000Z</time>
      </trkpt>
      <trkpt lat="42.54853681661188602447509765625" lon="-8.704283237457275390625">
        <ele>39.59999847412109375</ele>
        <time>2022-11-01T10:46:52.000Z</time>
      </trkpt>
      <trkpt lat="42.54865114577114582061767578125" lon="-8.704317770898342132568359375">
        <ele>39.200000762939453125</ele>
        <time>2022-11-01T10:46:53.000Z</time>
      </trkpt>
      <trkpt lat="42.5487665645778179168701171875" lon="-8.70435792021453380584716796875">
        <ele>39</ele>
        <time>2022-11-01T10:46:54.000Z</time>
      </trkpt>
      <trkpt lat="42.548880390822887420654296875" lon="-8.70439848862588405609130859375">
        <ele>38.799999237060546875</ele>
        <time>2022-11-01T10:46:55.000Z</time>
      </trkpt>
      <trkpt lat="42.54899329505860805511474609375" lon="-8.70443880558013916015625">
        <ele>38.40000152587890625</ele>
        <time>2022-11-01T10:46:56.000Z</time>
      </trkpt>
      <trkpt lat="42.5491061992943286895751953125" lon="-8.70447945781052112579345703125">
        <ele>38.40000152587890625</ele>
        <time>2022-11-01T10:46:57.000Z</time>
      </trkpt>
      <trkpt lat="42.54921776242554187774658203125" lon="-8.7045201100409030914306640625">
        <ele>38</ele>
        <time>2022-11-01T10:46:58.000Z</time>
      </trkpt>
      <trkpt lat="42.54932932555675506591796875" lon="-8.70455925352871417999267578125">
        <ele>37.799999237060546875</ele>
        <time>2022-11-01T10:46:59.000Z</time>
      </trkpt>
      <trkpt lat="42.5494414754211902618408203125" lon="-8.70459613390266895294189453125">
        <ele>37.59999847412109375</ele>
        <time>2022-11-01T10:47:00.000Z</time>
      </trkpt>
      <trkpt lat="42.54955337382853031158447265625" lon="-8.704634271562099456787109375">
        <ele>37.40000152587890625</ele>
        <time>2022-11-01T10:47:01.000Z</time>
      </trkpt>
      <trkpt lat="42.549664266407489776611328125" lon="-8.70467483997344970703125">
        <ele>37.40000152587890625</ele>
        <time>2022-11-01T10:47:02.000Z</time>
      </trkpt>
      <trkpt lat="42.54977582953870296478271484375" lon="-8.70471666567027568817138671875">
        <ele>37.40000152587890625</ele>
        <time>2022-11-01T10:47:03.000Z</time>
      </trkpt>
      <trkpt lat="42.5498870573937892913818359375" lon="-8.70475555770099163055419921875">
        <ele>37.200000762939453125</ele>
        <time>2022-11-01T10:47:04.000Z</time>
      </trkpt>
      <trkpt lat="42.54999996162950992584228515625" lon="-8.70479411445558071136474609375">
        <ele>37</ele>
        <time>2022-11-01T10:47:05.000Z</time>
      </trkpt>
      <trkpt lat="42.5501126982271671295166015625" lon="-8.70483501814305782318115234375">
        <ele>36.59999847412109375</ele>
        <time>2022-11-01T10:47:06.000Z</time>
      </trkpt>
      <trkpt lat="42.55022627301514148712158203125" lon="-8.70487575419247150421142578125">
        <ele>36.200000762939453125</ele>
        <time>2022-11-01T10:47:07.000Z</time>
      </trkpt>
      <trkpt lat="42.5503403507173061370849609375" lon="-8.70491632260382175445556640625">
        <ele>35.799999237060546875</ele>
        <time>2022-11-01T10:47:08.000Z</time>
      </trkpt>
      <trkpt lat="42.550454176962375640869140625" lon="-8.7049569748342037200927734375">
        <ele>34.799999237060546875</ele>
        <time>2022-11-01T10:47:09.000Z</time>
      </trkpt>
      <trkpt lat="42.55056557245552539825439453125" lon="-8.70499645359814167022705078125">
        <ele>34.59999847412109375</ele>
        <time>2022-11-01T10:47:10.000Z</time>
      </trkpt>
      <trkpt lat="42.5506762973964214324951171875" lon="-8.705037944018840789794921875">
        <ele>33.200000762939453125</ele>
        <time>2022-11-01T10:47:11.000Z</time>
      </trkpt>
      <trkpt lat="42.5507891178131103515625" lon="-8.7050733156502246856689453125">
        <ele>32.59999847412109375</ele>
        <time>2022-11-01T10:47:12.000Z</time>
      </trkpt>
      <trkpt lat="42.550903446972370147705078125" lon="-8.70509636588394641876220703125">
        <ele>32</ele>
        <time>2022-11-01T10:47:13.000Z</time>
      </trkpt>
      <trkpt lat="42.55101836286485195159912109375" lon="-8.70510038919746875762939453125">
        <ele>31.6000003814697265625</ele>
        <time>2022-11-01T10:47:14.000Z</time>
      </trkpt>
      <trkpt lat="42.55113269202411174774169921875" lon="-8.70509167201817035675048828125">
        <ele>30.6000003814697265625</ele>
        <time>2022-11-01T10:47:15.000Z</time>
      </trkpt>
      <trkpt lat="42.55124383606016635894775390625" lon="-8.7050971202552318572998046875">
        <ele>29.799999237060546875</ele>
        <time>2022-11-01T10:47:16.000Z</time>
      </trkpt>
      <trkpt lat="42.55134743638336658477783203125" lon="-8.70513928122818470001220703125">
        <ele>29.3999996185302734375</ele>
        <time>2022-11-01T10:47:17.000Z</time>
      </trkpt>
      <trkpt lat="42.55144349299371242523193359375" lon="-8.70520390570163726806640625">
        <ele>28.799999237060546875</ele>
        <time>2022-11-01T10:47:18.000Z</time>
      </trkpt>
      <trkpt lat="42.551536448299884796142578125" lon="-8.70527372695505619049072265625">
        <ele>28.6000003814697265625</ele>
        <time>2022-11-01T10:47:19.000Z</time>
      </trkpt>
      <trkpt lat="42.5516321696341037750244140625" lon="-8.70534002780914306640625">
        <ele>28</ele>
        <time>2022-11-01T10:47:20.000Z</time>
      </trkpt>
      <trkpt lat="42.5517304055392742156982421875" lon="-8.7053928337991237640380859375">
        <ele>27.799999237060546875</ele>
        <time>2022-11-01T10:47:21.000Z</time>
      </trkpt>
      <trkpt lat="42.5518311560153961181640625" lon="-8.70543683879077434539794921875">
        <ele>27.6000003814697265625</ele>
        <time>2022-11-01T10:47:22.000Z</time>
      </trkpt>
      <trkpt lat="42.55193282850086688995361328125" lon="-8.7054766528308391571044921875">
        <ele>27.3999996185302734375</ele>
        <time>2022-11-01T10:47:23.000Z</time>
      </trkpt>
      <trkpt lat="42.5520365126430988311767578125" lon="-8.7055152095854282379150390625">
        <ele>27.200000762939453125</ele>
        <time>2022-11-01T10:47:24.000Z</time>
      </trkpt>
      <trkpt lat="42.55214220844209194183349609375" lon="-8.70555334724485874176025390625">
        <ele>27</ele>
        <time>2022-11-01T10:47:25.000Z</time>
      </trkpt>
      <trkpt lat="42.55224631167948246002197265625" lon="-8.7055929936468601226806640625">
        <ele>27</ele>
        <time>2022-11-01T10:47:26.000Z</time>
      </trkpt>
      <trkpt lat="42.55235024727880954742431640625" lon="-8.70563180185854434967041015625">
        <ele>27</ele>
        <time>2022-11-01T10:47:27.000Z</time>
      </trkpt>
      <trkpt lat="42.552455104887485504150390625" lon="-8.70566817931830883026123046875">
        <ele>26.799999237060546875</ele>
        <time>2022-11-01T10:47:28.000Z</time>
      </trkpt>
      <trkpt lat="42.552559375762939453125" lon="-8.7057029642164707183837890625">
        <ele>26.6000003814697265625</ele>
        <time>2022-11-01T10:47:29.000Z</time>
      </trkpt>
      <trkpt lat="42.55266129970550537109375" lon="-8.7057388387620449066162109375">
        <ele>26.6000003814697265625</ele>
        <time>2022-11-01T10:47:30.000Z</time>
      </trkpt>
      <trkpt lat="42.5527603738009929656982421875" lon="-8.7057763896882534027099609375">
        <ele>26.6000003814697265625</ele>
        <time>2022-11-01T10:47:31.000Z</time>
      </trkpt>
      <trkpt lat="42.552862465381622314453125" lon="-8.705812431871891021728515625">
        <ele>26.3999996185302734375</ele>
        <time>2022-11-01T10:47:32.000Z</time>
      </trkpt>
      <trkpt lat="42.55296397022902965545654296875" lon="-8.70584537275135517120361328125">
        <ele>26.3999996185302734375</ele>
        <time>2022-11-01T10:47:33.000Z</time>
      </trkpt>
      <trkpt lat="42.55306572653353214263916015625" lon="-8.7058778107166290283203125">
        <ele>26</ele>
        <time>2022-11-01T10:47:34.000Z</time>
      </trkpt>
      <trkpt lat="42.553170584142208099365234375" lon="-8.70591443963348865509033203125">
        <ele>26</ele>
        <time>2022-11-01T10:47:35.000Z</time>
      </trkpt>
      <trkpt lat="42.55327594466507434844970703125" lon="-8.70595366694033145904541015625">
        <ele>26</ele>
        <time>2022-11-01T10:47:36.000Z</time>
      </trkpt>
      <trkpt lat="42.55338348448276519775390625" lon="-8.70599272660911083221435546875">
        <ele>25.799999237060546875</ele>
        <time>2022-11-01T10:47:37.000Z</time>
      </trkpt>
      <trkpt lat="42.5534909404814243316650390625" lon="-8.706034719944000244140625">
        <ele>25.200000762939453125</ele>
        <time>2022-11-01T10:47:38.000Z</time>
      </trkpt>
      <trkpt lat="42.5536012463271617889404296875" lon="-8.706073276698589324951171875">
        <ele>25</ele>
        <time>2022-11-01T10:47:39.000Z</time>
      </trkpt>
      <trkpt lat="42.5537108816206455230712890625" lon="-8.70611107908189296722412109375">
        <ele>24.6000003814697265625</ele>
        <time>2022-11-01T10:47:40.000Z</time>
      </trkpt>
      <trkpt lat="42.553822360932826995849609375" lon="-8.70615097694098949432373046875">
        <ele>24.3999996185302734375</ele>
        <time>2022-11-01T10:47:41.000Z</time>
      </trkpt>
      <trkpt lat="42.55393467843532562255859375" lon="-8.70619305409491062164306640625">
        <ele>24</ele>
        <time>2022-11-01T10:47:42.000Z</time>
      </trkpt>
      <trkpt lat="42.55404925905168056488037109375" lon="-8.7062345445156097412109375">
        <ele>23.6000003814697265625</ele>
        <time>2022-11-01T10:47:43.000Z</time>
      </trkpt>
      <trkpt lat="42.55416358821094036102294921875" lon="-8.70627678930759429931640625">
        <ele>23</ele>
        <time>2022-11-01T10:47:44.000Z</time>
      </trkpt>
      <trkpt lat="42.554278671741485595703125" lon="-8.70631945319473743438720703125">
        <ele>22.3999996185302734375</ele>
        <time>2022-11-01T10:47:45.000Z</time>
      </trkpt>
      <trkpt lat="42.55439459346234798431396484375" lon="-8.7063606083393096923828125">
        <ele>22</ele>
        <time>2022-11-01T10:47:46.000Z</time>
      </trkpt>
      <trkpt lat="42.55451059900224208831787109375" lon="-8.70640193112194538116455078125">
        <ele>21.3999996185302734375</ele>
        <time>2022-11-01T10:47:47.000Z</time>
      </trkpt>
      <trkpt lat="42.55462777800858020782470703125" lon="-8.70644367299973964691162109375">
        <ele>21</ele>
        <time>2022-11-01T10:47:48.000Z</time>
      </trkpt>
      <trkpt lat="42.55474445410072803497314453125" lon="-8.70648600161075592041015625">
        <ele>20.3999996185302734375</ele>
        <time>2022-11-01T10:47:49.000Z</time>
      </trkpt>
      <trkpt lat="42.55486138164997100830078125" lon="-8.7065280787646770477294921875">
        <ele>20.200000762939453125</ele>
        <time>2022-11-01T10:47:50.000Z</time>
      </trkpt>
      <trkpt lat="42.55497797392308712005615234375" lon="-8.7065669707953929901123046875">
        <ele>19.799999237060546875</ele>
        <time>2022-11-01T10:47:51.000Z</time>
      </trkpt>
      <trkpt lat="42.555092386901378631591796875" lon="-8.7066061981022357940673828125">
        <ele>19</ele>
        <time>2022-11-01T10:47:52.000Z</time>
      </trkpt>
      <trkpt lat="42.55520495586097240447998046875" lon="-8.70664601214230060577392578125">
        <ele>18.6000003814697265625</ele>
        <time>2022-11-01T10:47:53.000Z</time>
      </trkpt>
      <trkpt lat="42.555317021906375885009765625" lon="-8.70668440125882625579833984375">
        <ele>18.200000762939453125</ele>
        <time>2022-11-01T10:47:54.000Z</time>
      </trkpt>
      <trkpt lat="42.5554285012185573577880859375" lon="-8.7067232094705104827880859375">
        <ele>18.200000762939453125</ele>
        <time>2022-11-01T10:47:55.000Z</time>
      </trkpt>
      <trkpt lat="42.5555364601314067840576171875" lon="-8.70676218532025814056396484375">
        <ele>18</ele>
        <time>2022-11-01T10:47:56.000Z</time>
      </trkpt>
      <trkpt lat="42.55564282648265361785888671875" lon="-8.70679940097033977508544921875">
        <ele>17.799999237060546875</ele>
        <time>2022-11-01T10:47:57.000Z</time>
      </trkpt>
      <trkpt lat="42.55574516952037811279296875" lon="-8.70683544315397739410400390625">
        <ele>17.799999237060546875</ele>
        <time>2022-11-01T10:47:58.000Z</time>
      </trkpt>
      <trkpt lat="42.55584533326327800750732421875" lon="-8.706871233880519866943359375">
        <ele>17.799999237060546875</ele>
        <time>2022-11-01T10:47:59.000Z</time>
      </trkpt>
      <trkpt lat="42.55594289861619472503662109375" lon="-8.7069079466164112091064453125">
        <ele>17.6000003814697265625</ele>
        <time>2022-11-01T10:48:00.000Z</time>
      </trkpt>
      <trkpt lat="42.556037865579128265380859375" lon="-8.70694524608552455902099609375">
        <ele>17.6000003814697265625</ele>
        <time>2022-11-01T10:48:01.000Z</time>
      </trkpt>
      <trkpt lat="42.55613149143755435943603515625" lon="-8.70698497630655765533447265625">
        <ele>17.6000003814697265625</ele>
        <time>2022-11-01T10:48:02.000Z</time>
      </trkpt>
      <trkpt lat="42.55622453056275844573974609375" lon="-8.70702772401273250579833984375">
        <ele>17.6000003814697265625</ele>
        <time>2022-11-01T10:48:03.000Z</time>
      </trkpt>
      <trkpt lat="42.55631589330732822418212890625" lon="-8.707071729004383087158203125">
        <ele>17.6000003814697265625</ele>
        <time>2022-11-01T10:48:04.000Z</time>
      </trkpt>
      <trkpt lat="42.5564058311283588409423828125" lon="-8.70711766183376312255859375">
        <ele>17.6000003814697265625</ele>
        <time>2022-11-01T10:48:05.000Z</time>
      </trkpt>
      <trkpt lat="42.5564933381974697113037109375" lon="-8.70716569013893604278564453125">
        <ele>17.6000003814697265625</ele>
        <time>2022-11-01T10:48:06.000Z</time>
      </trkpt>
      <trkpt lat="42.55657891742885112762451171875" lon="-8.70721614919602870941162109375">
        <ele>17.799999237060546875</ele>
        <time>2022-11-01T10:48:07.000Z</time>
      </trkpt>
      <trkpt lat="42.55666240118443965911865234375" lon="-8.707267530262470245361328125">
        <ele>17.799999237060546875</ele>
        <time>2022-11-01T10:48:08.000Z</time>
      </trkpt>
      <trkpt lat="42.5567444600164890289306640625" lon="-8.7073220126330852508544921875">
        <ele>17.799999237060546875</ele>
        <time>2022-11-01T10:48:09.000Z</time>
      </trkpt>
      <trkpt lat="42.556825093924999237060546875" lon="-8.7073803506791591644287109375">
        <ele>17.799999237060546875</ele>
        <time>2022-11-01T10:48:10.000Z</time>
      </trkpt>
      <trkpt lat="42.55690522491931915283203125" lon="-8.70744011364877223968505859375">
        <ele>17.799999237060546875</ele>
        <time>2022-11-01T10:48:11.000Z</time>
      </trkpt>
      <trkpt lat="42.55698393099009990692138671875" lon="-8.7075003795325756072998046875">
        <ele>17.799999237060546875</ele>
        <time>2022-11-01T10:48:12.000Z</time>
      </trkpt>
      <trkpt lat="42.5570609606802463531494140625" lon="-8.70756064541637897491455078125">
        <ele>17.799999237060546875</ele>
        <time>2022-11-01T10:48:13.000Z</time>
      </trkpt>
      <trkpt lat="42.55713748745620250701904296875" lon="-8.70762166567146778106689453125">
        <ele>17.799999237060546875</ele>
        <time>2022-11-01T10:48:14.000Z</time>
      </trkpt>
      <trkpt lat="42.55721426568925380706787109375" lon="-8.70768235065042972564697265625">
        <ele>17.799999237060546875</ele>
        <time>2022-11-01T10:48:15.000Z</time>
      </trkpt>
      <trkpt lat="42.557289786636829376220703125" lon="-8.70774127542972564697265625">
        <ele>17.799999237060546875</ele>
        <time>2022-11-01T10:48:16.000Z</time>
      </trkpt>
      <trkpt lat="42.5573647208511829376220703125" lon="-8.7077997811138629913330078125">
        <ele>17.799999237060546875</ele>
        <time>2022-11-01T10:48:17.000Z</time>
      </trkpt>
      <trkpt lat="42.5574394874274730682373046875" lon="-8.7078572809696197509765625">
        <ele>17.799999237060546875</ele>
        <time>2022-11-01T10:48:18.000Z</time>
      </trkpt>
      <trkpt lat="42.5575139187276363372802734375" lon="-8.707917295396327972412109375">
        <ele>17.799999237060546875</ele>
        <time>2022-11-01T10:48:19.000Z</time>
      </trkpt>
      <trkpt lat="42.55758893676102161407470703125" lon="-8.707978315651416778564453125">
        <ele>17.799999237060546875</ele>
        <time>2022-11-01T10:48:20.000Z</time>
      </trkpt>
      <trkpt lat="42.55766621790826320648193359375" lon="-8.70803824625909328460693359375">
        <ele>17.799999237060546875</ele>
        <time>2022-11-01T10:48:21.000Z</time>
      </trkpt>
      <trkpt lat="42.5577414035797119140625" lon="-8.7080954946577548980712890625">
        <ele>17.799999237060546875</ele>
        <time>2022-11-01T10:48:22.000Z</time>
      </trkpt>
      <trkpt lat="42.5578136555850505828857421875" lon="-8.70815299451351165771484375">
        <ele>17.799999237060546875</ele>
        <time>2022-11-01T10:48:23.000Z</time>
      </trkpt>
      <trkpt lat="42.5578867457807064056396484375" lon="-8.70821074582636356353759765625">
        <ele>17.799999237060546875</ele>
        <time>2022-11-01T10:48:24.000Z</time>
      </trkpt>
      <trkpt lat="42.55795941688120365142822265625" lon="-8.708265982568264007568359375">
        <ele>17.799999237060546875</ele>
        <time>2022-11-01T10:48:25.000Z</time>
      </trkpt>
      <trkpt lat="42.55803217180073261260986328125" lon="-8.70831920765340328216552734375">
        <ele>17.799999237060546875</ele>
        <time>2022-11-01T10:48:26.000Z</time>
      </trkpt>
      <trkpt lat="42.55810509435832500457763671875" lon="-8.7083747796714305877685546875">
        <ele>17.799999237060546875</ele>
        <time>2022-11-01T10:48:27.000Z</time>
      </trkpt>
      <trkpt lat="42.55817902274429798126220703125" lon="-8.70843035168945789337158203125">
        <ele>17.6000003814697265625</ele>
        <time>2022-11-01T10:48:28.000Z</time>
      </trkpt>
      <trkpt lat="42.55825261585414409637451171875" lon="-8.7084857560694217681884765625">
        <ele>17.6000003814697265625</ele>
        <time>2022-11-01T10:48:29.000Z</time>
      </trkpt>
      <trkpt lat="42.55832545459270477294921875" lon="-8.7085414119064807891845703125">
        <ele>17.6000003814697265625</ele>
        <time>2022-11-01T10:48:30.000Z</time>
      </trkpt>
      <trkpt lat="42.55839762277901172637939453125" lon="-8.70859798975288867950439453125">
        <ele>17.6000003814697265625</ele>
        <time>2022-11-01T10:48:31.000Z</time>
      </trkpt>
      <trkpt lat="42.5584704615175724029541015625" lon="-8.7086565792560577392578125">
        <ele>17.6000003814697265625</ele>
        <time>2022-11-01T10:48:32.000Z</time>
      </trkpt>
      <trkpt lat="42.55854279734194278717041015625" lon="-8.708715252578258514404296875">
        <ele>17.6000003814697265625</ele>
        <time>2022-11-01T10:48:33.000Z</time>
      </trkpt>
      <trkpt lat="42.5586163066327571868896484375" lon="-8.70877199806272983551025390625">
        <ele>17.6000003814697265625</ele>
        <time>2022-11-01T10:48:34.000Z</time>
      </trkpt>
      <trkpt lat="42.55869065411388874053955078125" lon="-8.70882765389978885650634765625">
        <ele>17.6000003814697265625</ele>
        <time>2022-11-01T10:48:35.000Z</time>
      </trkpt>
      <trkpt lat="42.55876475013792514801025390625" lon="-8.7088850699365139007568359375">
        <ele>17.799999237060546875</ele>
        <time>2022-11-01T10:48:36.000Z</time>
      </trkpt>
      <trkpt lat="42.5588372536003589630126953125" lon="-8.70894382707774639129638671875">
        <ele>17.799999237060546875</ele>
        <time>2022-11-01T10:48:37.000Z</time>
      </trkpt>
      <trkpt lat="42.5589106790721416473388671875" lon="-8.70900115929543972015380859375">
        <ele>17.799999237060546875</ele>
        <time>2022-11-01T10:48:38.000Z</time>
      </trkpt>
      <trkpt lat="42.55898267962038516998291015625" lon="-8.7090584076941013336181640625">
        <ele>17.799999237060546875</ele>
        <time>2022-11-01T10:48:39.000Z</time>
      </trkpt>
      <trkpt lat="42.55905409343540668487548828125" lon="-8.70911649428308010101318359375">
        <ele>18</ele>
        <time>2022-11-01T10:48:40.000Z</time>
      </trkpt>
      <trkpt lat="42.55912500433623790740966796875" lon="-8.70917466469109058380126953125">
        <ele>18</ele>
        <time>2022-11-01T10:48:41.000Z</time>
      </trkpt>
      <trkpt lat="42.55919524468481540679931640625" lon="-8.7092337571084499359130859375">
        <ele>18</ele>
        <time>2022-11-01T10:48:42.000Z</time>
      </trkpt>
      <trkpt lat="42.5592674128711223602294921875" lon="-8.7092907540500164031982421875">
        <ele>18</ele>
        <time>2022-11-01T10:48:43.000Z</time>
      </trkpt>
      <trkpt lat="42.559340000152587890625" lon="-8.7093474157154560089111328125">
        <ele>18</ele>
        <time>2022-11-01T10:48:44.000Z</time>
      </trkpt>
      <trkpt lat="42.559410743415355682373046875" lon="-8.709403909742832183837890625">
        <ele>18</ele>
        <time>2022-11-01T10:48:45.000Z</time>
      </trkpt>
      <trkpt lat="42.55948140285909175872802734375" lon="-8.7094607390463352203369140625">
        <ele>18</ele>
        <time>2022-11-01T10:48:46.000Z</time>
      </trkpt>
      <trkpt lat="42.55955264903604984283447265625" lon="-8.70951689779758453369140625">
        <ele>18</ele>
        <time>2022-11-01T10:48:47.000Z</time>
      </trkpt>
      <trkpt lat="42.55962473340332508087158203125" lon="-8.70957062579691410064697265625">
        <ele>18</ele>
        <time>2022-11-01T10:48:48.000Z</time>
      </trkpt>
      <trkpt lat="42.5596979074180126190185546875" lon="-8.70961974374949932098388671875">
        <ele>18</ele>
        <time>2022-11-01T10:48:49.000Z</time>
      </trkpt>
      <trkpt lat="42.55977175198495388031005859375" lon="-8.70966617949306964874267578125">
        <ele>18</ele>
        <time>2022-11-01T10:48:50.000Z</time>
      </trkpt>
      <trkpt lat="42.5598444230854511260986328125" lon="-8.70971613563597202301025390625">
        <ele>17.799999237060546875</ele>
        <time>2022-11-01T10:48:51.000Z</time>
      </trkpt>
      <trkpt lat="42.559914998710155487060546875" lon="-8.70976927690207958221435546875">
        <ele>17.799999237060546875</ele>
        <time>2022-11-01T10:48:52.000Z</time>
      </trkpt>
      <trkpt lat="42.55998481996357440948486328125" lon="-8.70982442982494831085205078125">
        <ele>17.799999237060546875</ele>
        <time>2022-11-01T10:48:53.000Z</time>
      </trkpt>
      <trkpt lat="42.560055144131183624267578125" lon="-8.7098791636526584625244140625">
        <ele>17.799999237060546875</ele>
        <time>2022-11-01T10:48:54.000Z</time>
      </trkpt>
      <trkpt lat="42.56012312136590480804443359375" lon="-8.70993339456617832183837890625">
        <ele>17.799999237060546875</ele>
        <time>2022-11-01T10:48:55.000Z</time>
      </trkpt>
      <trkpt lat="42.5601904280483722686767578125" lon="-8.7099851109087467193603515625">
        <ele>18</ele>
        <time>2022-11-01T10:48:56.000Z</time>
      </trkpt>
      <trkpt lat="42.5602544657886028289794921875" lon="-8.7100397609174251556396484375">
        <ele>18</ele>
        <time>2022-11-01T10:48:57.000Z</time>
      </trkpt>
      <trkpt lat="42.56031699478626251220703125" lon="-8.71009449474513530731201171875">
        <ele>18.200000762939453125</ele>
        <time>2022-11-01T10:48:58.000Z</time>
      </trkpt>
      <trkpt lat="42.56037893705070018768310546875" lon="-8.71014646254479885101318359375">
        <ele>18.200000762939453125</ele>
        <time>2022-11-01T10:48:59.000Z</time>
      </trkpt>
      <trkpt lat="42.56044012494385242462158203125" lon="-8.7101983465254306793212890625">
        <ele>18.3999996185302734375</ele>
        <time>2022-11-01T10:49:00.000Z</time>
      </trkpt>
      <trkpt lat="42.5604998879134654998779296875" lon="-8.71024637483060359954833984375">
        <ele>18.3999996185302734375</ele>
        <time>2022-11-01T10:49:01.000Z</time>
      </trkpt>
      <trkpt lat="42.56055839359760284423828125" lon="-8.71029230765998363494873046875">
        <ele>18.6000003814697265625</ele>
        <time>2022-11-01T10:49:02.000Z</time>
      </trkpt>
      <trkpt lat="42.5606153905391693115234375" lon="-8.7103374861180782318115234375">
        <ele>18.6000003814697265625</ele>
        <time>2022-11-01T10:49:03.000Z</time>
      </trkpt>
      <trkpt lat="42.5606712140142917633056640625" lon="-8.7103797309100627899169921875">
        <ele>18.6000003814697265625</ele>
        <time>2022-11-01T10:49:04.000Z</time>
      </trkpt>
      <trkpt lat="42.5607251934707164764404296875" lon="-8.71042172424495220184326171875">
        <ele>19.200000762939453125</ele>
        <time>2022-11-01T10:49:05.000Z</time>
      </trkpt>
      <trkpt lat="42.5607776641845703125" lon="-8.710462711751461029052734375">
        <ele>19.3999996185302734375</ele>
        <time>2022-11-01T10:49:06.000Z</time>
      </trkpt>
      <trkpt lat="42.56082803942263126373291015625" lon="-8.71050235815346240997314453125">
        <ele>19.6000003814697265625</ele>
        <time>2022-11-01T10:49:07.000Z</time>
      </trkpt>
      <trkpt lat="42.560875900089740753173828125" lon="-8.71054410003125667572021484375">
        <ele>20</ele>
        <time>2022-11-01T10:49:08.000Z</time>
      </trkpt>
      <trkpt lat="42.56092309020459651947021484375" lon="-8.71058232150971889495849609375">
        <ele>20</ele>
        <time>2022-11-01T10:49:09.000Z</time>
      </trkpt>
      <trkpt lat="42.56096885539591312408447265625" lon="-8.710619620978832244873046875">
        <ele>20.200000762939453125</ele>
        <time>2022-11-01T10:49:10.000Z</time>
      </trkpt>
      <trkpt lat="42.56101512350142002105712890625" lon="-8.71065574698150157928466796875">
        <ele>20.3999996185302734375</ele>
        <time>2022-11-01T10:49:11.000Z</time>
      </trkpt>
      <trkpt lat="42.56106088869273662567138671875" lon="-8.7106912024319171905517578125">
        <ele>20.799999237060546875</ele>
        <time>2022-11-01T10:49:12.000Z</time>
      </trkpt>
      <trkpt lat="42.56110665388405323028564453125" lon="-8.7107237242162227630615234375">
        <ele>21</ele>
        <time>2022-11-01T10:49:13.000Z</time>
      </trkpt>
      <trkpt lat="42.561151497066020965576171875" lon="-8.71075347997248172760009765625">
        <ele>21.6000003814697265625</ele>
        <time>2022-11-01T10:49:14.000Z</time>
      </trkpt>
      <trkpt lat="42.561195753514766693115234375" lon="-8.71078499592840671539306640625">
        <ele>22</ele>
        <time>2022-11-01T10:49:15.000Z</time>
      </trkpt>
      <trkpt lat="42.56123967468738555908203125" lon="-8.71081634424626827239990234375">
        <ele>22.200000762939453125</ele>
        <time>2022-11-01T10:49:16.000Z</time>
      </trkpt>
      <trkpt lat="42.5612814165651798248291015625" lon="-8.7108461000025272369384765625">
        <ele>22.6000003814697265625</ele>
        <time>2022-11-01T10:49:17.000Z</time>
      </trkpt>
      <trkpt lat="42.56132190115749835968017578125" lon="-8.7108779512345790863037109375">
        <ele>22.799999237060546875</ele>
        <time>2022-11-01T10:49:18.000Z</time>
      </trkpt>
      <trkpt lat="42.5613608770072460174560546875" lon="-8.7109098024666309356689453125">
        <ele>23</ele>
        <time>2022-11-01T10:49:19.000Z</time>
      </trkpt>
      <trkpt lat="42.56140119396150112152099609375" lon="-8.71094441972672939300537109375">
        <ele>23</ele>
        <time>2022-11-01T10:49:20.000Z</time>
      </trkpt>
      <trkpt lat="42.5614413432776927947998046875" lon="-8.7109738402068614959716796875">
        <ele>23.200000762939453125</ele>
        <time>2022-11-01T10:49:21.000Z</time>
      </trkpt>
      <trkpt lat="42.5614817440509796142578125" lon="-8.71100141666829586029052734375">
        <ele>23.3999996185302734375</ele>
        <time>2022-11-01T10:49:22.000Z</time>
      </trkpt>
      <trkpt lat="42.56152172572910785675048828125" lon="-8.71103234589099884033203125">
        <ele>23.6000003814697265625</ele>
        <time>2022-11-01T10:49:23.000Z</time>
      </trkpt>
      <trkpt lat="42.56156145595014095306396484375" lon="-8.71106411330401897430419921875">
        <ele>24.200000762939453125</ele>
        <time>2022-11-01T10:49:24.000Z</time>
      </trkpt>
      <trkpt lat="42.56160051561892032623291015625" lon="-8.71109680272638797760009765625">
        <ele>24.6000003814697265625</ele>
        <time>2022-11-01T10:49:25.000Z</time>
      </trkpt>
      <trkpt lat="42.56163924001157283782958984375" lon="-8.71112756431102752685546875">
        <ele>24.799999237060546875</ele>
        <time>2022-11-01T10:49:26.000Z</time>
      </trkpt>
      <trkpt lat="42.56167679093778133392333984375" lon="-8.71115765534341335296630859375">
        <ele>25</ele>
        <time>2022-11-01T10:49:27.000Z</time>
      </trkpt>
      <trkpt lat="42.5617150962352752685546875" lon="-8.7111874110996723175048828125">
        <ele>25.200000762939453125</ele>
        <time>2022-11-01T10:49:28.000Z</time>
      </trkpt>
      <trkpt lat="42.56175491027534008026123046875" lon="-8.7112195976078510284423828125">
        <ele>25.3999996185302734375</ele>
        <time>2022-11-01T10:49:29.000Z</time>
      </trkpt>
      <trkpt lat="42.5617933832108974456787109375" lon="-8.71124935336410999298095703125">
        <ele>25.6000003814697265625</ele>
        <time>2022-11-01T10:49:30.000Z</time>
      </trkpt>
      <trkpt lat="42.56183235906064510345458984375" lon="-8.71127936057746410369873046875">
        <ele>25.799999237060546875</ele>
        <time>2022-11-01T10:49:31.000Z</time>
      </trkpt>
      <trkpt lat="42.5618718378245830535888671875" lon="-8.7113074399530887603759765625">
        <ele>26.200000762939453125</ele>
        <time>2022-11-01T10:49:32.000Z</time>
      </trkpt>
      <trkpt lat="42.56191114895045757293701171875" lon="-8.711335770785808563232421875">
        <ele>26.799999237060546875</ele>
        <time>2022-11-01T10:49:33.000Z</time>
      </trkpt>
      <trkpt lat="42.56195087917149066925048828125" lon="-8.71136619709432125091552734375">
        <ele>27</ele>
        <time>2022-11-01T10:49:34.000Z</time>
      </trkpt>
      <trkpt lat="42.56199178285896778106689453125" lon="-8.7113962881267070770263671875">
        <ele>27.3999996185302734375</ele>
        <time>2022-11-01T10:49:35.000Z</time>
      </trkpt>
      <trkpt lat="42.5620320998132228851318359375" lon="-8.7114273011684417724609375">
        <ele>27.3999996185302734375</ele>
        <time>2022-11-01T10:49:36.000Z</time>
      </trkpt>
      <trkpt lat="42.5620699860155582427978515625" lon="-8.71145906858146190643310546875">
        <ele>27.6000003814697265625</ele>
        <time>2022-11-01T10:49:37.000Z</time>
      </trkpt>
      <trkpt lat="42.5621092133224010467529296875" lon="-8.71148924343287944793701171875">
        <ele>27.799999237060546875</ele>
        <time>2022-11-01T10:49:38.000Z</time>
      </trkpt>
      <trkpt lat="42.5621509552001953125" lon="-8.711515478789806365966796875">
        <ele>28</ele>
        <time>2022-11-01T10:49:39.000Z</time>
      </trkpt>
      <trkpt lat="42.5621923618018627166748046875" lon="-8.71154154650866985321044921875">
        <ele>28.200000762939453125</ele>
        <time>2022-11-01T10:49:40.000Z</time>
      </trkpt>
      <trkpt lat="42.5622336007654666900634765625" lon="-8.71156702749431133270263671875">
        <ele>28.3999996185302734375</ele>
        <time>2022-11-01T10:49:41.000Z</time>
      </trkpt>
      <trkpt lat="42.5622758455574512481689453125" lon="-8.71158932335674762725830078125">
        <ele>28.799999237060546875</ele>
        <time>2022-11-01T10:49:42.000Z</time>
      </trkpt>
      <trkpt lat="42.56231658160686492919921875" lon="-8.71161312796175479888916015625">
        <ele>29</ele>
        <time>2022-11-01T10:49:43.000Z</time>
      </trkpt>
      <trkpt lat="42.56235681474208831787109375" lon="-8.71163575910031795501708984375">
        <ele>29.3999996185302734375</ele>
        <time>2022-11-01T10:49:44.000Z</time>
      </trkpt>
      <trkpt lat="42.5623972155153751373291015625" lon="-8.71165805496275424957275390625">
        <ele>29.6000003814697265625</ele>
        <time>2022-11-01T10:49:45.000Z</time>
      </trkpt>
      <trkpt lat="42.56243652664124965667724609375" lon="-8.7116829492151737213134765625">
        <ele>29.799999237060546875</ele>
        <time>2022-11-01T10:49:46.000Z</time>
      </trkpt>
      <trkpt lat="42.56247642450034618377685546875" lon="-8.7117057479918003082275390625">
        <ele>30</ele>
        <time>2022-11-01T10:49:47.000Z</time>
      </trkpt>
      <trkpt lat="42.562518417835235595703125" lon="-8.71172368526458740234375">
        <ele>30.200000762939453125</ele>
        <time>2022-11-01T10:49:48.000Z</time>
      </trkpt>
      <trkpt lat="42.56256242282688617706298828125" lon="-8.71174036525189876556396484375">
        <ele>30.3999996185302734375</ele>
        <time>2022-11-01T10:49:49.000Z</time>
      </trkpt>
      <trkpt lat="42.5626082718372344970703125" lon="-8.71175662614405155181884765625">
        <ele>30.6000003814697265625</ele>
        <time>2022-11-01T10:49:50.000Z</time>
      </trkpt>
      <trkpt lat="42.56265479139983654022216796875" lon="-8.71177439577877521514892578125">
        <ele>30.799999237060546875</ele>
        <time>2022-11-01T10:49:51.000Z</time>
      </trkpt>
      <trkpt lat="42.56269988603889942169189453125" lon="-8.71179400943219661712646484375">
        <ele>31</ele>
        <time>2022-11-01T10:49:52.000Z</time>
      </trkpt>
      <trkpt lat="42.56274573504924774169921875" lon="-8.71181379072368144989013671875">
        <ele>31.3999996185302734375</ele>
        <time>2022-11-01T10:49:53.000Z</time>
      </trkpt>
      <trkpt lat="42.56279326044023036956787109375" lon="-8.71183298528194427490234375">
        <ele>31.3999996185302734375</ele>
        <time>2022-11-01T10:49:54.000Z</time>
      </trkpt>
      <trkpt lat="42.56284254603087902069091796875" lon="-8.7118536047637462615966796875">
        <ele>31.6000003814697265625</ele>
        <time>2022-11-01T10:49:55.000Z</time>
      </trkpt>
      <trkpt lat="42.56289417855441570281982421875" lon="-8.7118747271597385406494140625">
        <ele>31.6000003814697265625</ele>
        <time>2022-11-01T10:49:56.000Z</time>
      </trkpt>
      <trkpt lat="42.562945224344730377197265625" lon="-8.7118961848318576812744140625">
        <ele>31.6000003814697265625</ele>
        <time>2022-11-01T10:49:57.000Z</time>
      </trkpt>
      <trkpt lat="42.5629976950585842132568359375" lon="-8.7119156308472156524658203125">
        <ele>31.6000003814697265625</ele>
        <time>2022-11-01T10:49:58.000Z</time>
      </trkpt>
      <trkpt lat="42.56304882466793060302734375" lon="-8.71193222701549530029296875">
        <ele>31.6000003814697265625</ele>
        <time>2022-11-01T10:49:59.000Z</time>
      </trkpt>
      <trkpt lat="42.56310054101049900054931640625" lon="-8.71195075102150440216064453125">
        <ele>31.6000003814697265625</ele>
        <time>2022-11-01T10:50:00.000Z</time>
      </trkpt>
      <trkpt lat="42.56315317936241626739501953125" lon="-8.71197120286524295806884765625">
        <ele>31.6000003814697265625</ele>
        <time>2022-11-01T10:50:01.000Z</time>
      </trkpt>
      <trkpt lat="42.56320749409496784210205078125" lon="-8.7119944207370281219482421875">
        <ele>31.6000003814697265625</ele>
        <time>2022-11-01T10:50:02.000Z</time>
      </trkpt>
      <trkpt lat="42.563264407217502593994140625" lon="-8.7120168842375278472900390625">
        <ele>31.6000003814697265625</ele>
        <time>2022-11-01T10:50:03.000Z</time>
      </trkpt>
      <trkpt lat="42.56332316435873508453369140625" lon="-8.71203892864286899566650390625">
        <ele>31.6000003814697265625</ele>
        <time>2022-11-01T10:50:04.000Z</time>
      </trkpt>
      <trkpt lat="42.56338234059512615203857421875" lon="-8.7120616436004638671875">
        <ele>31.6000003814697265625</ele>
        <time>2022-11-01T10:50:05.000Z</time>
      </trkpt>
      <trkpt lat="42.5634419359266757965087890625" lon="-8.7120839394629001617431640625">
        <ele>31.6000003814697265625</ele>
        <time>2022-11-01T10:50:06.000Z</time>
      </trkpt>
      <trkpt lat="42.56350052542984485626220703125" lon="-8.7121043913066387176513671875">
        <ele>31.6000003814697265625</ele>
        <time>2022-11-01T10:50:07.000Z</time>
      </trkpt>
      <trkpt lat="42.5635609589517116546630859375" lon="-8.7121265195310115814208984375">
        <ele>31.3999996185302734375</ele>
        <time>2022-11-01T10:50:08.000Z</time>
      </trkpt>
      <trkpt lat="42.56362323649227619171142578125" lon="-8.71214705519378185272216796875">
        <ele>31.200000762939453125</ele>
        <time>2022-11-01T10:50:09.000Z</time>
      </trkpt>
      <trkpt lat="42.5636853463947772979736328125" lon="-8.71216633357107639312744140625">
        <ele>31.200000762939453125</ele>
        <time>2022-11-01T10:50:10.000Z</time>
      </trkpt>
      <trkpt lat="42.5637467019259929656982421875" lon="-8.71218795888125896453857421875">
        <ele>31</ele>
        <time>2022-11-01T10:50:11.000Z</time>
      </trkpt>
      <trkpt lat="42.563806883990764617919921875" lon="-8.712214194238185882568359375">
        <ele>31</ele>
        <time>2022-11-01T10:50:12.000Z</time>
      </trkpt>
      <trkpt lat="42.5638690777122974395751953125" lon="-8.71224227361381053924560546875">
        <ele>31</ele>
        <time>2022-11-01T10:50:13.000Z</time>
      </trkpt>
      <trkpt lat="42.56393261253833770751953125" lon="-8.7122710235416889190673828125">
        <ele>30.799999237060546875</ele>
        <time>2022-11-01T10:50:14.000Z</time>
      </trkpt>
      <trkpt lat="42.56399556063115596771240234375" lon="-8.71229809708893299102783203125">
        <ele>30.6000003814697265625</ele>
        <time>2022-11-01T10:50:15.000Z</time>
      </trkpt>
      <trkpt lat="42.56405825726687908172607421875" lon="-8.7123236618936061859130859375">
        <ele>30.6000003814697265625</ele>
        <time>2022-11-01T10:50:16.000Z</time>
      </trkpt>
      <trkpt lat="42.56412095390260219573974609375" lon="-8.712347634136676788330078125">
        <ele>30.6000003814697265625</ele>
        <time>2022-11-01T10:50:17.000Z</time>
      </trkpt>
      <trkpt lat="42.56418264470994472503662109375" lon="-8.7123742885887622833251953125">
        <ele>30.3999996185302734375</ele>
        <time>2022-11-01T10:50:18.000Z</time>
      </trkpt>
      <trkpt lat="42.56424643099308013916015625" lon="-8.71240203268826007843017578125">
        <ele>30.200000762939453125</ele>
        <time>2022-11-01T10:50:19.000Z</time>
      </trkpt>
      <trkpt lat="42.564312480390071868896484375" lon="-8.7124306149780750274658203125">
        <ele>30</ele>
        <time>2022-11-01T10:50:20.000Z</time>
      </trkpt>
      <trkpt lat="42.56437609903514385223388671875" lon="-8.7124567665159702301025390625">
        <ele>30</ele>
        <time>2022-11-01T10:50:21.000Z</time>
      </trkpt>
      <trkpt lat="42.56444063968956470489501953125" lon="-8.7124815769493579864501953125">
        <ele>30</ele>
        <time>2022-11-01T10:50:22.000Z</time>
      </trkpt>
      <trkpt lat="42.56450803019106388092041015625" lon="-8.71250814758241176605224609375">
        <ele>30</ele>
        <time>2022-11-01T10:50:23.000Z</time>
      </trkpt>
      <trkpt lat="42.56457810290157794952392578125" lon="-8.712537400424480438232421875">
        <ele>30</ele>
        <time>2022-11-01T10:50:24.000Z</time>
      </trkpt>
      <trkpt lat="42.564649768173694610595703125" lon="-8.7125657312572002410888671875">
        <ele>29.799999237060546875</ele>
        <time>2022-11-01T10:50:25.000Z</time>
      </trkpt>
      <trkpt lat="42.564720846712589263916015625" lon="-8.71259179897606372833251953125">
        <ele>29.6000003814697265625</ele>
        <time>2022-11-01T10:50:26.000Z</time>
      </trkpt>
      <trkpt lat="42.5647915899753570556640625" lon="-8.71261443011462688446044921875">
        <ele>29.6000003814697265625</ele>
        <time>2022-11-01T10:50:27.000Z</time>
      </trkpt>
      <trkpt lat="42.56486392579972743988037109375" lon="-8.71263789944350719451904296875">
        <ele>29.3999996185302734375</ele>
        <time>2022-11-01T10:50:28.000Z</time>
      </trkpt>
      <trkpt lat="42.56493601016700267791748046875" lon="-8.7126589380204677581787109375">
        <ele>29.3999996185302734375</ele>
        <time>2022-11-01T10:50:29.000Z</time>
      </trkpt>
      <trkpt lat="42.5650090165436267852783203125" lon="-8.71267922222614288330078125">
        <ele>29.200000762939453125</ele>
        <time>2022-11-01T10:50:30.000Z</time>
      </trkpt>
      <trkpt lat="42.56508319638669490814208984375" lon="-8.71270176954567432403564453125">
        <ele>29</ele>
        <time>2022-11-01T10:50:31.000Z</time>
      </trkpt>
      <trkpt lat="42.56515511311590671539306640625" lon="-8.71272750198841094970703125">
        <ele>29</ele>
        <time>2022-11-01T10:50:32.000Z</time>
      </trkpt>
      <trkpt lat="42.56523004733026027679443359375" lon="-8.71275390498340129852294921875">
        <ele>29</ele>
        <time>2022-11-01T10:50:33.000Z</time>
      </trkpt>
      <trkpt lat="42.56530581973493099212646484375" lon="-8.71278273873031139373779296875">
        <ele>28.799999237060546875</ele>
        <time>2022-11-01T10:50:34.000Z</time>
      </trkpt>
      <trkpt lat="42.5653816759586334228515625" lon="-8.71281375177204608917236328125">
        <ele>28.6000003814697265625</ele>
        <time>2022-11-01T10:50:35.000Z</time>
      </trkpt>
      <trkpt lat="42.56545803509652614593505859375" lon="-8.71284711174666881561279296875">
        <ele>28.6000003814697265625</ele>
        <time>2022-11-01T10:50:36.000Z</time>
      </trkpt>
      <trkpt lat="42.56553481332957744598388671875" lon="-8.712880723178386688232421875">
        <ele>28.3999996185302734375</ele>
        <time>2022-11-01T10:50:37.000Z</time>
      </trkpt>
      <trkpt lat="42.5656115077435970306396484375" lon="-8.71291466988623142242431640625">
        <ele>28.3999996185302734375</ele>
        <time>2022-11-01T10:50:38.000Z</time>
      </trkpt>
      <trkpt lat="42.5656869448721408843994140625" lon="-8.71294752694666385650634765625">
        <ele>28.200000762939453125</ele>
        <time>2022-11-01T10:50:39.000Z</time>
      </trkpt>
      <trkpt lat="42.56574670784175395965576171875" lon="-8.71297652833163738250732421875">
        <ele>28.200000762939453125</ele>
        <time>2022-11-01T10:50:40.000Z</time>
      </trkpt>
      <trkpt lat="42.5658361427485942840576171875" lon="-8.713020868599414825439453125">
        <ele>28.200000762939453125</ele>
        <time>2022-11-01T10:50:41.000Z</time>
      </trkpt>
      <trkpt lat="42.565909065306186676025390625" lon="-8.7130555696785449981689453125">
        <ele>28.200000762939453125</ele>
        <time>2022-11-01T10:50:42.000Z</time>
      </trkpt>
      <trkpt lat="42.56598358042538166046142578125" lon="-8.71309068985283374786376953125">
        <ele>28.200000762939453125</ele>
        <time>2022-11-01T10:50:43.000Z</time>
      </trkpt>
      <trkpt lat="42.56605616770684719085693359375" lon="-8.71312371455132961273193359375">
        <ele>28.200000762939453125</ele>
        <time>2022-11-01T10:50:44.000Z</time>
      </trkpt>
      <trkpt lat="42.56612875498831272125244140625" lon="-8.713154979050159454345703125">
        <ele>28.200000762939453125</ele>
        <time>2022-11-01T10:50:45.000Z</time>
      </trkpt>
      <trkpt lat="42.56620109081268310546875" lon="-8.7131846509873867034912109375">
        <ele>28</ele>
        <time>2022-11-01T10:50:46.000Z</time>
      </trkpt>
      <trkpt lat="42.56627359427511692047119140625" lon="-8.71321373619139194488525390625">
        <ele>28</ele>
        <time>2022-11-01T10:50:47.000Z</time>
      </trkpt>
      <trkpt lat="42.5663445889949798583984375" lon="-8.71324240230023860931396484375">
        <ele>28.200000762939453125</ele>
        <time>2022-11-01T10:50:48.000Z</time>
      </trkpt>
      <trkpt lat="42.566401250660419464111328125" lon="-8.713266290724277496337890625">
        <ele>28.200000762939453125</ele>
        <time>2022-11-01T10:50:49.000Z</time>
      </trkpt>
      <trkpt lat="42.56648481823503971099853515625" lon="-8.7132993154227733612060546875">
        <ele>28.200000762939453125</ele>
        <time>2022-11-01T10:50:50.000Z</time>
      </trkpt>
      <trkpt lat="42.5665522925555706024169921875" lon="-8.71332831680774688720703125">
        <ele>28.3999996185302734375</ele>
        <time>2022-11-01T10:50:51.000Z</time>
      </trkpt>
      <trkpt lat="42.5666220299899578094482421875" lon="-8.71335706673562526702880859375">
        <ele>28.6000003814697265625</ele>
        <time>2022-11-01T10:50:52.000Z</time>
      </trkpt>
      <trkpt lat="42.5666910968720912933349609375" lon="-8.71338489465415477752685546875">
        <ele>28.799999237060546875</ele>
        <time>2022-11-01T10:50:53.000Z</time>
      </trkpt>
      <trkpt lat="42.56675873883068561553955078125" lon="-8.71341121383011341094970703125">
        <ele>29</ele>
        <time>2022-11-01T10:50:54.000Z</time>
      </trkpt>
      <trkpt lat="42.56682713516056537628173828125" lon="-8.713433928787708282470703125">
        <ele>29.3999996185302734375</ele>
        <time>2022-11-01T10:50:55.000Z</time>
      </trkpt>
      <trkpt lat="42.566894106566905975341796875" lon="-8.7134602479636669158935546875">
        <ele>29.6000003814697265625</ele>
        <time>2022-11-01T10:50:56.000Z</time>
      </trkpt>
      <trkpt lat="42.5669616647064685821533203125" lon="-8.71348933316767215728759765625">
        <ele>29.799999237060546875</ele>
        <time>2022-11-01T10:50:57.000Z</time>
      </trkpt>
      <trkpt lat="42.56702846847474575042724609375" lon="-8.71351682581007480621337890625">
        <ele>30</ele>
        <time>2022-11-01T10:50:58.000Z</time>
      </trkpt>
      <trkpt lat="42.5670940987765789031982421875" lon="-8.7135423906147480010986328125">
        <ele>30</ele>
        <time>2022-11-01T10:50:59.000Z</time>
      </trkpt>
      <trkpt lat="42.5671594776213169097900390625" lon="-8.71357114054262638092041015625">
        <ele>30.200000762939453125</ele>
        <time>2022-11-01T10:51:00.000Z</time>
      </trkpt>
      <trkpt lat="42.56722326390445232391357421875" lon="-8.713598214089870452880859375">
        <ele>30.200000762939453125</ele>
        <time>2022-11-01T10:51:01.000Z</time>
      </trkpt>
      <trkpt lat="42.56728663109242916107177734375" lon="-8.71362444944679737091064453125">
        <ele>30.6000003814697265625</ele>
        <time>2022-11-01T10:51:02.000Z</time>
      </trkpt>
      <trkpt lat="42.56734949536621570587158203125" lon="-8.71365152299404144287109375">
        <ele>30.6000003814697265625</ele>
        <time>2022-11-01T10:51:03.000Z</time>
      </trkpt>
      <trkpt lat="42.5674132816493511199951171875" lon="-8.7136808596551418304443359375">
        <ele>30.799999237060546875</ele>
        <time>2022-11-01T10:51:04.000Z</time>
      </trkpt>
      <trkpt lat="42.56747505627572536468505859375" lon="-8.71371229179203510284423828125">
        <ele>31</ele>
        <time>2022-11-01T10:51:05.000Z</time>
      </trkpt>
      <trkpt lat="42.56753481924533843994140625" lon="-8.7137425504624843597412109375">
        <ele>31.3999996185302734375</ele>
        <time>2022-11-01T10:51:06.000Z</time>
      </trkpt>
      <trkpt lat="42.567594833672046661376953125" lon="-8.71377549134194850921630859375">
        <ele>31.6000003814697265625</ele>
        <time>2022-11-01T10:51:07.000Z</time>
      </trkpt>
      <trkpt lat="42.56765551865100860595703125" lon="-8.7138109467923641204833984375">
        <ele>31.799999237060546875</ele>
        <time>2022-11-01T10:51:08.000Z</time>
      </trkpt>
      <trkpt lat="42.56771578453481197357177734375" lon="-8.71384506113827228546142578125">
        <ele>32.200000762939453125</ele>
        <time>2022-11-01T10:51:09.000Z</time>
      </trkpt>
      <trkpt lat="42.56777546368539333343505859375" lon="-8.71387925930321216583251953125">
        <ele>32.40000152587890625</ele>
        <time>2022-11-01T10:51:10.000Z</time>
      </trkpt>
      <trkpt lat="42.56783296354115009307861328125" lon="-8.71391647495329380035400390625">
        <ele>32.59999847412109375</ele>
        <time>2022-11-01T10:51:11.000Z</time>
      </trkpt>
      <trkpt lat="42.56788962520658969879150390625" lon="-8.71395486406981945037841796875">
        <ele>32.799999237060546875</ele>
        <time>2022-11-01T10:51:12.000Z</time>
      </trkpt>
      <trkpt lat="42.56794377230107784271240234375" lon="-8.7139936722815036773681640625">
        <ele>33</ele>
        <time>2022-11-01T10:51:13.000Z</time>
      </trkpt>
      <trkpt lat="42.56799750030040740966796875" lon="-8.71403281576931476593017578125">
        <ele>33.200000762939453125</ele>
        <time>2022-11-01T10:51:14.000Z</time>
      </trkpt>
      <trkpt lat="42.56805089302361011505126953125" lon="-8.71407304890453815460205078125">
        <ele>33.40000152587890625</ele>
        <time>2022-11-01T10:51:15.000Z</time>
      </trkpt>
      <trkpt lat="42.568102441728115081787109375" lon="-8.71411663480103015899658203125">
        <ele>33.59999847412109375</ele>
        <time>2022-11-01T10:51:16.000Z</time>
      </trkpt>
      <trkpt lat="42.56815449334681034088134765625" lon="-8.71416340582072734832763671875">
        <ele>33.799999237060546875</ele>
        <time>2022-11-01T10:51:17.000Z</time>
      </trkpt>
      <trkpt lat="42.568205706775188446044921875" lon="-8.71421386487782001495361328125">
        <ele>34</ele>
        <time>2022-11-01T10:51:18.000Z</time>
      </trkpt>
      <trkpt lat="42.56825624965131282806396484375" lon="-8.71426231227815151214599609375">
        <ele>34.200000762939453125</ele>
        <time>2022-11-01T10:51:19.000Z</time>
      </trkpt>
      <trkpt lat="42.5683084689080715179443359375" lon="-8.71431210078299045562744140625">
        <ele>34.40000152587890625</ele>
        <time>2022-11-01T10:51:20.000Z</time>
      </trkpt>
      <trkpt lat="42.5683601014316082000732421875" lon="-8.71436574496328830718994140625">
        <ele>34.59999847412109375</ele>
        <time>2022-11-01T10:51:21.000Z</time>
      </trkpt>
      <trkpt lat="42.56840796209871768951416015625" lon="-8.71442131698131561279296875">
        <ele>34.799999237060546875</ele>
        <time>2022-11-01T10:51:22.000Z</time>
      </trkpt>
      <trkpt lat="42.568455152213573455810546875" lon="-8.71447605080902576446533203125">
        <ele>35</ele>
        <time>2022-11-01T10:51:23.000Z</time>
      </trkpt>
      <trkpt lat="42.56850150413811206817626953125" lon="-8.71453254483640193939208984375">
        <ele>35.200000762939453125</ele>
        <time>2022-11-01T10:51:24.000Z</time>
      </trkpt>
      <trkpt lat="42.5685471855103969573974609375" lon="-8.7145931459963321685791015625">
        <ele>35.40000152587890625</ele>
        <time>2022-11-01T10:51:25.000Z</time>
      </trkpt>
      <trkpt lat="42.5685914419591426849365234375" lon="-8.7146508134901523590087890625">
        <ele>35.40000152587890625</ele>
        <time>2022-11-01T10:51:26.000Z</time>
      </trkpt>
      <trkpt lat="42.568633519113063812255859375" lon="-8.71470973826944828033447265625">
        <ele>35.799999237060546875</ele>
        <time>2022-11-01T10:51:27.000Z</time>
      </trkpt>
      <trkpt lat="42.5686749257147312164306640625" lon="-8.71476656757295131683349609375">
        <ele>35.799999237060546875</ele>
        <time>2022-11-01T10:51:28.000Z</time>
      </trkpt>
      <trkpt lat="42.5687164999544620513916015625" lon="-8.71482591144740581512451171875">
        <ele>36</ele>
        <time>2022-11-01T10:51:29.000Z</time>
      </trkpt>
      <trkpt lat="42.5687533803284168243408203125" lon="-8.71488726697862148284912109375">
        <ele>36</ele>
        <time>2022-11-01T10:51:30.000Z</time>
      </trkpt>
      <trkpt lat="42.5687875784933567047119140625" lon="-8.71494828723371028900146484375">
        <ele>36.200000762939453125</ele>
        <time>2022-11-01T10:51:31.000Z</time>
      </trkpt>
      <trkpt lat="42.56882227957248687744140625" lon="-8.715009056031703948974609375">
        <ele>36.40000152587890625</ele>
        <time>2022-11-01T10:51:32.000Z</time>
      </trkpt>
      <trkpt lat="42.568854801356792449951171875" lon="-8.71506982482969760894775390625">
        <ele>36.40000152587890625</ele>
        <time>2022-11-01T10:51:33.000Z</time>
      </trkpt>
      <trkpt lat="42.56888539530336856842041015625" lon="-8.71513034217059612274169921875">
        <ele>36.799999237060546875</ele>
        <time>2022-11-01T10:51:34.000Z</time>
      </trkpt>
      <trkpt lat="42.56891506724059581756591796875" lon="-8.71519245207309722900390625">
        <ele>36.799999237060546875</ele>
        <time>2022-11-01T10:51:35.000Z</time>
      </trkpt>
      <trkpt lat="42.56894540973007678985595703125" lon="-8.7152549810707569122314453125">
        <ele>37.200000762939453125</ele>
        <time>2022-11-01T10:51:36.000Z</time>
      </trkpt>
      <trkpt lat="42.56897558458149433135986328125" lon="-8.715316839516162872314453125">
        <ele>37.200000762939453125</ele>
        <time>2022-11-01T10:51:37.000Z</time>
      </trkpt>
      <trkpt lat="42.56900492124259471893310546875" lon="-8.7153797037899494171142578125">
        <ele>37.40000152587890625</ele>
        <time>2022-11-01T10:51:38.000Z</time>
      </trkpt>
      <trkpt lat="42.5690330006182193756103515625" lon="-8.7154400534927845001220703125">
        <ele>37.59999847412109375</ele>
        <time>2022-11-01T10:51:39.000Z</time>
      </trkpt>
      <trkpt lat="42.56906124763190746307373046875" lon="-8.71549998410046100616455078125">
        <ele>38</ele>
        <time>2022-11-01T10:51:40.000Z</time>
      </trkpt>
      <trkpt lat="42.56908823736011981964111328125" lon="-8.715561591088771820068359375">
        <ele>38.200000762939453125</ele>
        <time>2022-11-01T10:51:41.000Z</time>
      </trkpt>
      <trkpt lat="42.56911254487931728363037109375" lon="-8.7156234495341777801513671875">
        <ele>38.40000152587890625</ele>
        <time>2022-11-01T10:51:42.000Z</time>
      </trkpt>
      <trkpt lat="42.569138444960117340087890625" lon="-8.71568455360829830169677734375">
        <ele>38.59999847412109375</ele>
        <time>2022-11-01T10:51:43.000Z</time>
      </trkpt>
      <trkpt lat="42.5691640935838222503662109375" lon="-8.7157434783875942230224609375">
        <ele>38.799999237060546875</ele>
        <time>2022-11-01T10:51:44.000Z</time>
      </trkpt>
      <trkpt lat="42.5691902451217174530029296875" lon="-8.71580089442431926727294921875">
        <ele>39</ele>
        <time>2022-11-01T10:51:45.000Z</time>
      </trkpt>
      <trkpt lat="42.569216229021549224853515625" lon="-8.7158598192036151885986328125">
        <ele>39.200000762939453125</ele>
        <time>2022-11-01T10:51:46.000Z</time>
      </trkpt>
      <trkpt lat="42.56924078799784183502197265625" lon="-8.71592142619192600250244140625">
        <ele>39.59999847412109375</ele>
        <time>2022-11-01T10:51:47.000Z</time>
      </trkpt>
      <trkpt lat="42.5692653469741344451904296875" lon="-8.71598160825669765472412109375">
        <ele>39.799999237060546875</ele>
        <time>2022-11-01T10:51:48.000Z</time>
      </trkpt>
      <trkpt lat="42.56928940303623676300048828125" lon="-8.71603977866470813751220703125">
        <ele>40</ele>
        <time>2022-11-01T10:51:49.000Z</time>
      </trkpt>
      <trkpt lat="42.56930985487997531890869140625" lon="-8.716097362339496612548828125">
        <ele>40</ele>
        <time>2022-11-01T10:51:50.000Z</time>
      </trkpt>
      <trkpt lat="42.56933181546628475189208984375" lon="-8.7161558680236339569091796875">
        <ele>40.40000152587890625</ele>
        <time>2022-11-01T10:51:51.000Z</time>
      </trkpt>
      <trkpt lat="42.5693562068045139312744140625" lon="-8.71621496044099330902099609375">
        <ele>40.59999847412109375</ele>
        <time>2022-11-01T10:51:52.000Z</time>
      </trkpt>
      <trkpt lat="42.56938210688531398773193359375" lon="-8.71627262793481349945068359375">
        <ele>40.799999237060546875</ele>
        <time>2022-11-01T10:51:53.000Z</time>
      </trkpt>
      <trkpt lat="42.56940574385225772857666015625" lon="-8.71632635593414306640625">
        <ele>41.200000762939453125</ele>
        <time>2022-11-01T10:51:54.000Z</time>
      </trkpt>
      <trkpt lat="42.5694323144853115081787109375" lon="-8.7163794972002506256103515625">
        <ele>41.40000152587890625</ele>
        <time>2022-11-01T10:51:55.000Z</time>
      </trkpt>
      <trkpt lat="42.569461651146411895751953125" lon="-8.7164351530373096466064453125">
        <ele>41.799999237060546875</ele>
        <time>2022-11-01T10:51:56.000Z</time>
      </trkpt>
      <trkpt lat="42.56948905996978282928466796875" lon="-8.71649206615984439849853515625">
        <ele>42</ele>
        <time>2022-11-01T10:51:57.000Z</time>
      </trkpt>
      <trkpt lat="42.56951336748898029327392578125" lon="-8.7165498174726963043212890625">
        <ele>42.40000152587890625</ele>
        <time>2022-11-01T10:51:58.000Z</time>
      </trkpt>
      <trkpt lat="42.56953784264624118804931640625" lon="-8.71660606004297733306884765625">
        <ele>42.59999847412109375</ele>
        <time>2022-11-01T10:51:59.000Z</time>
      </trkpt>
      <trkpt lat="42.56956030614674091339111328125" lon="-8.71666138060390949249267578125">
        <ele>42.799999237060546875</ele>
        <time>2022-11-01T10:52:00.000Z</time>
      </trkpt>
      <trkpt lat="42.5695852003991603851318359375" lon="-8.7167157791554927825927734375">
        <ele>42.799999237060546875</ele>
        <time>2022-11-01T10:52:01.000Z</time>
      </trkpt>
      <trkpt lat="42.56961244158446788787841796875" lon="-8.71677101589739322662353515625">
        <ele>42.799999237060546875</ele>
        <time>2022-11-01T10:52:02.000Z</time>
      </trkpt>
      <trkpt lat="42.569642029702663421630859375" lon="-8.71682616882026195526123046875">
        <ele>43.40000152587890625</ele>
        <time>2022-11-01T10:52:03.000Z</time>
      </trkpt>
      <trkpt lat="42.56967195309698581695556640625" lon="-8.7168817408382892608642578125">
        <ele>43.40000152587890625</ele>
        <time>2022-11-01T10:52:04.000Z</time>
      </trkpt>
      <trkpt lat="42.56970279850065708160400390625" lon="-8.7169330380856990814208984375">
        <ele>43.799999237060546875</ele>
        <time>2022-11-01T10:52:05.000Z</time>
      </trkpt>
      <trkpt lat="42.56973230279982089996337890625" lon="-8.71698307804763317108154296875">
        <ele>44</ele>
        <time>2022-11-01T10:52:06.000Z</time>
      </trkpt>
      <trkpt lat="42.56976080127060413360595703125" lon="-8.71703253127634525299072265625">
        <ele>44.200000762939453125</ele>
        <time>2022-11-01T10:52:07.000Z</time>
      </trkpt>
      <trkpt lat="42.56979114376008510589599609375" lon="-8.71708181686699390411376953125">
        <ele>44.200000762939453125</ele>
        <time>2022-11-01T10:52:08.000Z</time>
      </trkpt>
      <trkpt lat="42.5698234140872955322265625" lon="-8.7171311862766742706298828125">
        <ele>44.40000152587890625</ele>
        <time>2022-11-01T10:52:09.000Z</time>
      </trkpt>
      <trkpt lat="42.56985493004322052001953125" lon="-8.71717954985797405242919921875">
        <ele>44.59999847412109375</ele>
        <time>2022-11-01T10:52:10.000Z</time>
      </trkpt>
      <trkpt lat="42.56988686509430408477783203125" lon="-8.7172277458012104034423828125">
        <ele>44.799999237060546875</ele>
        <time>2022-11-01T10:52:11.000Z</time>
      </trkpt>
      <trkpt lat="42.56991754285991191864013671875" lon="-8.717277534306049346923828125">
        <ele>45.200000762939453125</ele>
        <time>2022-11-01T10:52:12.000Z</time>
      </trkpt>
      <trkpt lat="42.569948136806488037109375" lon="-8.71732807718217372894287109375">
        <ele>45.200000762939453125</ele>
        <time>2022-11-01T10:52:13.000Z</time>
      </trkpt>
      <trkpt lat="42.56998040713369846343994140625" lon="-8.7173776142299175262451171875">
        <ele>45.40000152587890625</ele>
        <time>2022-11-01T10:52:14.000Z</time>
      </trkpt>
      <trkpt lat="42.57001561112701892852783203125" lon="-8.71742513962090015411376953125">
        <ele>45.59999847412109375</ele>
        <time>2022-11-01T10:52:15.000Z</time>
      </trkpt>
      <trkpt lat="42.5700508989393711090087890625" lon="-8.71746956370770931243896484375">
        <ele>46</ele>
        <time>2022-11-01T10:52:16.000Z</time>
      </trkpt>
      <trkpt lat="42.570085264742374420166015625" lon="-8.71751499362289905548095703125">
        <ele>46</ele>
        <time>2022-11-01T10:52:17.000Z</time>
      </trkpt>
      <trkpt lat="42.5701199658215045928955078125" lon="-8.71755841188132762908935546875">
        <ele>46.200000762939453125</ele>
        <time>2022-11-01T10:52:18.000Z</time>
      </trkpt>
      <trkpt lat="42.57015575654804706573486328125" lon="-8.71760250069200992584228515625">
        <ele>46.40000152587890625</ele>
        <time>2022-11-01T10:52:19.000Z</time>
      </trkpt>
      <trkpt lat="42.57019096054136753082275390625" lon="-8.7176414765417575836181640625">
        <ele>46.40000152587890625</ele>
        <time>2022-11-01T10:52:20.000Z</time>
      </trkpt>
      <trkpt lat="42.57022717036306858062744140625" lon="-8.7176786921918392181396484375">
        <ele>46.59999847412109375</ele>
        <time>2022-11-01T10:52:21.000Z</time>
      </trkpt>
      <trkpt lat="42.57025985978543758392333984375" lon="-8.7177145667374134063720703125">
        <ele>46.59999847412109375</ele>
        <time>2022-11-01T10:52:22.000Z</time>
      </trkpt>
      <trkpt lat="42.57029271684587001800537109375" lon="-8.71774733997881412506103515625">
        <ele>46.799999237060546875</ele>
        <time>2022-11-01T10:52:23.000Z</time>
      </trkpt>
      <trkpt lat="42.570321969687938690185546875" lon="-8.71777332387864589691162109375">
        <ele>47</ele>
        <time>2022-11-01T10:52:24.000Z</time>
      </trkpt>
      <trkpt lat="42.57036463357508182525634765625" lon="-8.7178094498813152313232421875">
        <ele>47.59999847412109375</ele>
        <time>2022-11-01T10:52:25.000Z</time>
      </trkpt>
      <trkpt lat="42.570401094853878021240234375" lon="-8.7178416363894939422607421875">
        <ele>47.799999237060546875</ele>
        <time>2022-11-01T10:52:26.000Z</time>
      </trkpt>
      <trkpt lat="42.5704391486942768096923828125" lon="-8.717873655259609222412109375">
        <ele>48.200000762939453125</ele>
        <time>2022-11-01T10:52:27.000Z</time>
      </trkpt>
      <trkpt lat="42.57047695107758045196533203125" lon="-8.7179013155400753021240234375">
        <ele>48.200000762939453125</ele>
        <time>2022-11-01T10:52:28.000Z</time>
      </trkpt>
      <trkpt lat="42.57051265798509120941162109375" lon="-8.71793190948665142059326171875">
        <ele>48.59999847412109375</ele>
        <time>2022-11-01T10:52:29.000Z</time>
      </trkpt>
      <trkpt lat="42.57054719142615795135498046875" lon="-8.71796007268130779266357421875">
        <ele>48.799999237060546875</ele>
        <time>2022-11-01T10:52:30.000Z</time>
      </trkpt>
      <trkpt lat="42.57058105431497097015380859375" lon="-8.7179858051240444183349609375">
        <ele>49</ele>
        <time>2022-11-01T10:52:31.000Z</time>
      </trkpt>
      <trkpt lat="42.57061424665153026580810546875" lon="-8.7180122919380664825439453125">
        <ele>49.40000152587890625</ele>
        <time>2022-11-01T10:52:32.000Z</time>
      </trkpt>
      <trkpt lat="42.5706476904451847076416015625" lon="-8.7180384434759616851806640625">
        <ele>49.59999847412109375</ele>
        <time>2022-11-01T10:52:33.000Z</time>
      </trkpt>
      <trkpt lat="42.570683062076568603515625" lon="-8.71806132607161998748779296875">
        <ele>49.799999237060546875</ele>
        <time>2022-11-01T10:52:34.000Z</time>
      </trkpt>
      <trkpt lat="42.57072019390761852264404296875" lon="-8.71808093972504138946533203125">
        <ele>50</ele>
        <time>2022-11-01T10:52:35.000Z</time>
      </trkpt>
      <trkpt lat="42.5707573257386684417724609375" lon="-8.71809988282620906829833984375">
        <ele>50.200000762939453125</ele>
        <time>2022-11-01T10:52:36.000Z</time>
      </trkpt>
      <trkpt lat="42.57079144008457660675048828125" lon="-8.71811949647963047027587890625">
        <ele>50.40000152587890625</ele>
        <time>2022-11-01T10:52:37.000Z</time>
      </trkpt>
      <trkpt lat="42.570827901363372802734375" lon="-8.718139864504337310791015625">
        <ele>50.799999237060546875</ele>
        <time>2022-11-01T10:52:38.000Z</time>
      </trkpt>
      <trkpt lat="42.57086402736604213714599609375" lon="-8.71816056780517101287841796875">
        <ele>51</ele>
        <time>2022-11-01T10:52:39.000Z</time>
      </trkpt>
      <trkpt lat="42.570899985730648040771484375" lon="-8.71818051673471927642822265625">
        <ele>51</ele>
        <time>2022-11-01T10:52:40.000Z</time>
      </trkpt>
      <trkpt lat="42.5709370337426662445068359375" lon="-8.718197531998157501220703125">
        <ele>51.40000152587890625</ele>
        <time>2022-11-01T10:52:41.000Z</time>
      </trkpt>
      <trkpt lat="42.5709752552211284637451171875" lon="-8.71821169741451740264892578125">
        <ele>51.59999847412109375</ele>
        <time>2022-11-01T10:52:42.000Z</time>
      </trkpt>
      <trkpt lat="42.57101506926119327545166015625" lon="-8.71822795830667018890380859375">
        <ele>52</ele>
        <time>2022-11-01T10:52:43.000Z</time>
      </trkpt>
      <trkpt lat="42.57105479948222637176513671875" lon="-8.7182427942752838134765625">
        <ele>52</ele>
        <time>2022-11-01T10:52:44.000Z</time>
      </trkpt>
      <trkpt lat="42.57109411060810089111328125" lon="-8.71825813315808773040771484375">
        <ele>52.40000152587890625</ele>
        <time>2022-11-01T10:52:45.000Z</time>
      </trkpt>
      <trkpt lat="42.5711335055530071258544921875" lon="-8.71827288530766963958740234375">
        <ele>52.40000152587890625</ele>
        <time>2022-11-01T10:52:46.000Z</time>
      </trkpt>
      <trkpt lat="42.57117516361176967620849609375" lon="-8.718284703791141510009765625">
        <ele>52.799999237060546875</ele>
        <time>2022-11-01T10:52:47.000Z</time>
      </trkpt>
      <trkpt lat="42.57121615111827850341796875" lon="-8.71829601936042308807373046875">
        <ele>53</ele>
        <time>2022-11-01T10:52:48.000Z</time>
      </trkpt>
      <trkpt lat="42.571254707872867584228515625" lon="-8.71830808930099010467529296875">
        <ele>53.200000762939453125</ele>
        <time>2022-11-01T10:52:49.000Z</time>
      </trkpt>
      <trkpt lat="42.5712927617132663726806640625" lon="-8.7183180637657642364501953125">
        <ele>53.59999847412109375</ele>
        <time>2022-11-01T10:52:50.000Z</time>
      </trkpt>
      <trkpt lat="42.571332156658172607421875" lon="-8.71832619421184062957763671875">
        <ele>53.799999237060546875</ele>
        <time>2022-11-01T10:52:51.000Z</time>
      </trkpt>
      <trkpt lat="42.57137130014598369598388671875" lon="-8.71833574958145618438720703125">
        <ele>54</ele>
        <time>2022-11-01T10:52:52.000Z</time>
      </trkpt>
      <trkpt lat="42.571409605443477630615234375" lon="-8.718347065150737762451171875">
        <ele>54.200000762939453125</ele>
        <time>2022-11-01T10:52:53.000Z</time>
      </trkpt>
      <trkpt lat="42.57144874893128871917724609375" lon="-8.7183576263487339019775390625">
        <ele>54.40000152587890625</ele>
        <time>2022-11-01T10:52:54.000Z</time>
      </trkpt>
      <trkpt lat="42.571488730609416961669921875" lon="-8.7183660082519054412841796875">
        <ele>54.59999847412109375</ele>
        <time>2022-11-01T10:52:55.000Z</time>
      </trkpt>
      <trkpt lat="42.57152904756367206573486328125" lon="-8.71837631799280643463134765625">
        <ele>55</ele>
        <time>2022-11-01T10:52:56.000Z</time>
      </trkpt>
      <trkpt lat="42.5715696997940540313720703125" lon="-8.71838637627661228179931640625">
        <ele>55</ele>
        <time>2022-11-01T10:52:57.000Z</time>
      </trkpt>
      <trkpt lat="42.57161068730056285858154296875" lon="-8.7183958478271961212158203125">
        <ele>55.40000152587890625</ele>
        <time>2022-11-01T10:52:58.000Z</time>
      </trkpt>
      <trkpt lat="42.57165209390223026275634765625" lon="-8.718406073749065399169921875">
        <ele>55.59999847412109375</ele>
        <time>2022-11-01T10:52:59.000Z</time>
      </trkpt>
      <trkpt lat="42.57169282995164394378662109375" lon="-8.71841319836676120758056640625">
        <ele>55.799999237060546875</ele>
        <time>2022-11-01T10:53:00.000Z</time>
      </trkpt>
      <trkpt lat="42.57173272781074047088623046875" lon="-8.718420155346393585205078125">
        <ele>56</ele>
        <time>2022-11-01T10:53:01.000Z</time>
      </trkpt>
      <trkpt lat="42.57177245803177356719970703125" lon="-8.7184278666973114013671875">
        <ele>56.200000762939453125</ele>
        <time>2022-11-01T10:53:02.000Z</time>
      </trkpt>
      <trkpt lat="42.571811936795711517333984375" lon="-8.71843549422919750213623046875">
        <ele>56.40000152587890625</ele>
        <time>2022-11-01T10:53:03.000Z</time>
      </trkpt>
      <trkpt lat="42.57185049355030059814453125" lon="-8.7184424512088298797607421875">
        <ele>56.59999847412109375</ele>
        <time>2022-11-01T10:53:04.000Z</time>
      </trkpt>
      <trkpt lat="42.571887709200382232666015625" lon="-8.718450330197811126708984375">
        <ele>56.799999237060546875</ele>
        <time>2022-11-01T10:53:05.000Z</time>
      </trkpt>
      <trkpt lat="42.5719249248504638671875" lon="-8.71846013702452182769775390625">
        <ele>56.799999237060546875</ele>
        <time>2022-11-01T10:53:06.000Z</time>
      </trkpt>
      <trkpt lat="42.57196205668151378631591796875" lon="-8.71846885420382022857666015625">
        <ele>57.200000762939453125</ele>
        <time>2022-11-01T10:53:07.000Z</time>
      </trkpt>
      <trkpt lat="42.5719986855983734130859375" lon="-8.7184788286685943603515625">
        <ele>57.59999847412109375</ele>
        <time>2022-11-01T10:53:08.000Z</time>
      </trkpt>
      <trkpt lat="42.57203824818134307861328125" lon="-8.7184895575046539306640625">
        <ele>57.59999847412109375</ele>
        <time>2022-11-01T10:53:09.000Z</time>
      </trkpt>
      <trkpt lat="42.5720751285552978515625" lon="-8.71849534101784229278564453125">
        <ele>57.799999237060546875</ele>
        <time>2022-11-01T10:53:10.000Z</time>
      </trkpt>
      <trkpt lat="42.57211494259536266326904296875" lon="-8.71850254945456981658935546875">
        <ele>58</ele>
        <time>2022-11-01T10:53:11.000Z</time>
      </trkpt>
      <trkpt lat="42.57215517573058605194091796875" lon="-8.71850908733904361724853515625">
        <ele>58.200000762939453125</ele>
        <time>2022-11-01T10:53:12.000Z</time>
      </trkpt>
      <trkpt lat="42.5721939839422702789306640625" lon="-8.718520067632198333740234375">
        <ele>58.40000152587890625</ele>
        <time>2022-11-01T10:53:13.000Z</time>
      </trkpt>
      <trkpt lat="42.57223346270620822906494140625" lon="-8.71852702461183071136474609375">
        <ele>58.59999847412109375</ele>
        <time>2022-11-01T10:53:14.000Z</time>
      </trkpt>
      <trkpt lat="42.57227361202239990234375" lon="-8.71853373013436794281005859375">
        <ele>58.59999847412109375</ele>
        <time>2022-11-01T10:53:15.000Z</time>
      </trkpt>
      <trkpt lat="42.572313845157623291015625" lon="-8.71854110620915889739990234375">
        <ele>59</ele>
        <time>2022-11-01T10:53:16.000Z</time>
      </trkpt>
      <trkpt lat="42.57235282100737094879150390625" lon="-8.718549571931362152099609375">
        <ele>59.200000762939453125</ele>
        <time>2022-11-01T10:53:17.000Z</time>
      </trkpt>
      <trkpt lat="42.57239053957164287567138671875" lon="-8.718556948006153106689453125">
        <ele>59.200000762939453125</ele>
        <time>2022-11-01T10:53:18.000Z</time>
      </trkpt>
      <trkpt lat="42.57242985069751739501953125" lon="-8.71856591664254665374755859375">
        <ele>59.40000152587890625</ele>
        <time>2022-11-01T10:53:19.000Z</time>
      </trkpt>
      <trkpt lat="42.57247008383274078369140625" lon="-8.7185753881931304931640625">
        <ele>59.59999847412109375</ele>
        <time>2022-11-01T10:53:20.000Z</time>
      </trkpt>
      <trkpt lat="42.5725118257105350494384765625" lon="-8.71858586557209491729736328125">
        <ele>59.59999847412109375</ele>
        <time>2022-11-01T10:53:21.000Z</time>
      </trkpt>
      <trkpt lat="42.5725533999502658843994140625" lon="-8.71859592385590076446533203125">
        <ele>59.799999237060546875</ele>
        <time>2022-11-01T10:53:22.000Z</time>
      </trkpt>
      <trkpt lat="42.572594471275806427001953125" lon="-8.71860162355005741119384765625">
        <ele>60</ele>
        <time>2022-11-01T10:53:23.000Z</time>
      </trkpt>
      <trkpt lat="42.5726370513439178466796875" lon="-8.7186107598245143890380859375">
        <ele>60</ele>
        <time>2022-11-01T10:53:24.000Z</time>
      </trkpt>
      <trkpt lat="42.5726784579455852508544921875" lon="-8.71861972846090793609619140625">
        <ele>60.200000762939453125</ele>
        <time>2022-11-01T10:53:25.000Z</time>
      </trkpt>
      <trkpt lat="42.57272480987012386322021484375" lon="-8.71862593106925487518310546875">
        <ele>60.200000762939453125</ele>
        <time>2022-11-01T10:53:26.000Z</time>
      </trkpt>
      <trkpt lat="42.57277191616594791412353515625" lon="-8.7186332233250141143798828125">
        <ele>60.200000762939453125</ele>
        <time>2022-11-01T10:53:27.000Z</time>
      </trkpt>
      <trkpt lat="42.5728102214634418487548828125" lon="-8.7186389230191707611083984375">
        <ele>60.200000762939453125</ele>
        <time>2022-11-01T10:53:28.000Z</time>
      </trkpt>
      <trkpt lat="42.5728668831288814544677734375" lon="-8.71865090914070606231689453125">
        <ele>60.200000762939453125</ele>
        <time>2022-11-01T10:53:29.000Z</time>
      </trkpt>
      <trkpt lat="42.5729131512343883514404296875" lon="-8.71866381727159023284912109375">
        <ele>60.40000152587890625</ele>
        <time>2022-11-01T10:53:30.000Z</time>
      </trkpt>
      <trkpt lat="42.572959922254085540771484375" lon="-8.71867655776441097259521484375">
        <ele>60.40000152587890625</ele>
        <time>2022-11-01T10:53:31.000Z</time>
      </trkpt>
      <trkpt lat="42.57300828583538532257080078125" lon="-8.71868661604821681976318359375">
        <ele>60.40000152587890625</ele>
        <time>2022-11-01T10:53:32.000Z</time>
      </trkpt>
      <trkpt lat="42.57305874489247798919677734375" lon="-8.71869449503719806671142578125">
        <ele>60.40000152587890625</ele>
        <time>2022-11-01T10:53:33.000Z</time>
      </trkpt>
      <trkpt lat="42.57310870103538036346435546875" lon="-8.71870270930230617523193359375">
        <ele>60.40000152587890625</ele>
        <time>2022-11-01T10:53:34.000Z</time>
      </trkpt>
      <trkpt lat="42.573159076273441314697265625" lon="-8.71871125884354114532470703125">
        <ele>60.40000152587890625</ele>
        <time>2022-11-01T10:53:35.000Z</time>
      </trkpt>
      <trkpt lat="42.57321028970181941986083984375" lon="-8.71872182004153728485107421875">
        <ele>60.40000152587890625</ele>
        <time>2022-11-01T10:53:36.000Z</time>
      </trkpt>
      <trkpt lat="42.57326041348278522491455078125" lon="-8.71873120777308940887451171875">
        <ele>60.40000152587890625</ele>
        <time>2022-11-01T10:53:37.000Z</time>
      </trkpt>
      <trkpt lat="42.57331104017794132232666015625" lon="-8.71874176897108554840087890625">
        <ele>60.40000152587890625</ele>
        <time>2022-11-01T10:53:38.000Z</time>
      </trkpt>
      <trkpt lat="42.573360912501811981201171875" lon="-8.71875233016908168792724609375">
        <ele>60.59999847412109375</ele>
        <time>2022-11-01T10:53:39.000Z</time>
      </trkpt>
      <trkpt lat="42.57340877316892147064208984375" lon="-8.71876381337642669677734375">
        <ele>60.59999847412109375</ele>
        <time>2022-11-01T10:53:40.000Z</time>
      </trkpt>
      <trkpt lat="42.5734546221792697906494140625" lon="-8.7187738716602325439453125">
        <ele>60.59999847412109375</ele>
        <time>2022-11-01T10:53:41.000Z</time>
      </trkpt>
      <trkpt lat="42.57350265048444271087646484375" lon="-8.71878082863986492156982421875">
        <ele>60.59999847412109375</ele>
        <time>2022-11-01T10:53:42.000Z</time>
      </trkpt>
      <trkpt lat="42.57355193607509136199951171875" lon="-8.71877529658377170562744140625">
        <ele>60.799999237060546875</ele>
        <time>2022-11-01T10:53:43.000Z</time>
      </trkpt>
      <trkpt lat="42.57359988056123256683349609375" lon="-8.7187569402158260345458984375">
        <ele>60.799999237060546875</ele>
        <time>2022-11-01T10:53:44.000Z</time>
      </trkpt>
      <trkpt lat="42.57364480756223201751708984375" lon="-8.71872835792601108551025390625">
        <ele>60.799999237060546875</ele>
        <time>2022-11-01T10:53:45.000Z</time>
      </trkpt>
      <trkpt lat="42.573686800897121429443359375" lon="-8.71869047172367572784423828125">
        <ele>60.799999237060546875</ele>
        <time>2022-11-01T10:53:46.000Z</time>
      </trkpt>
      <trkpt lat="42.57372862659394741058349609375" lon="-8.71864906512200832366943359375">
        <ele>60.799999237060546875</ele>
        <time>2022-11-01T10:53:47.000Z</time>
      </trkpt>
      <trkpt lat="42.573773302137851715087890625" lon="-8.7186131067574024200439453125">
        <ele>61</ele>
        <time>2022-11-01T10:53:48.000Z</time>
      </trkpt>
      <trkpt lat="42.573821246623992919921875" lon="-8.71858519501984119415283203125">
        <ele>61</ele>
        <time>2022-11-01T10:53:49.000Z</time>
      </trkpt>
      <trkpt lat="42.573870532214641571044921875" lon="-8.71856574900448322296142578125">
        <ele>61</ele>
        <time>2022-11-01T10:53:50.000Z</time>
      </trkpt>
      <trkpt lat="42.573919482529163360595703125" lon="-8.7185604684054851531982421875">
        <ele>61</ele>
        <time>2022-11-01T10:53:51.000Z</time>
      </trkpt>
      <trkpt lat="42.5739672593772411346435546875" lon="-8.718567006289958953857421875">
        <ele>61.200000762939453125</ele>
        <time>2022-11-01T10:53:52.000Z</time>
      </trkpt>
      <trkpt lat="42.57401377893984317779541015625" lon="-8.7185815908014774322509765625">
        <ele>61.200000762939453125</ele>
        <time>2022-11-01T10:53:53.000Z</time>
      </trkpt>
      <trkpt lat="42.5740584544837474822998046875" lon="-8.71860413812100887298583984375">
        <ele>61.200000762939453125</ele>
        <time>2022-11-01T10:53:54.000Z</time>
      </trkpt>
      <trkpt lat="42.5740996934473514556884765625" lon="-8.71863515116274356842041015625">
        <ele>61.200000762939453125</ele>
        <time>2022-11-01T10:53:55.000Z</time>
      </trkpt>
      <trkpt lat="42.57413682527840137481689453125" lon="-8.71867169626057147979736328125">
        <ele>61.40000152587890625</ele>
        <time>2022-11-01T10:53:56.000Z</time>
      </trkpt>
      <trkpt lat="42.57417102344334125518798828125" lon="-8.71871176175773143768310546875">
        <ele>61.40000152587890625</ele>
        <time>2022-11-01T10:53:57.000Z</time>
      </trkpt>
      <trkpt lat="42.57420505397021770477294921875" lon="-8.71875283308327198028564453125">
        <ele>61.40000152587890625</ele>
        <time>2022-11-01T10:53:58.000Z</time>
      </trkpt>
      <trkpt lat="42.57423908449709415435791015625" lon="-8.71879398822784423828125">
        <ele>61.799999237060546875</ele>
        <time>2022-11-01T10:53:59.000Z</time>
      </trkpt>
      <trkpt lat="42.574272193014621734619140625" lon="-8.71883413754403591156005859375">
        <ele>62</ele>
        <time>2022-11-01T10:54:00.000Z</time>
      </trkpt>
      <trkpt lat="42.57430697791278362274169921875" lon="-8.71887101791799068450927734375">
        <ele>62.40000152587890625</ele>
        <time>2022-11-01T10:54:01.000Z</time>
      </trkpt>
      <trkpt lat="42.57434360682964324951171875" lon="-8.71890052221715450286865234375">
        <ele>62.59999847412109375</ele>
        <time>2022-11-01T10:54:02.000Z</time>
      </trkpt>
      <trkpt lat="42.57438140921294689178466796875" lon="-8.7189235724508762359619140625">
        <ele>63</ele>
        <time>2022-11-01T10:54:03.000Z</time>
      </trkpt>
      <trkpt lat="42.57441979832947254180908203125" lon="-8.718941509723663330078125">
        <ele>63.40000152587890625</ele>
        <time>2022-11-01T10:54:04.000Z</time>
      </trkpt>
      <trkpt lat="42.5744604505598545074462890625" lon="-8.7189540825784206390380859375">
        <ele>63.59999847412109375</ele>
        <time>2022-11-01T10:54:05.000Z</time>
      </trkpt>
      <trkpt lat="42.57450143806636333465576171875" lon="-8.71896355412900447845458984375">
        <ele>63.799999237060546875</ele>
        <time>2022-11-01T10:54:06.000Z</time>
      </trkpt>
      <trkpt lat="42.57454368285834789276123046875" lon="-8.71897210367023944854736328125">
        <ele>64</ele>
        <time>2022-11-01T10:54:07.000Z</time>
      </trkpt>
      <trkpt lat="42.57458508946001529693603515625" lon="-8.71898107230663299560546875">
        <ele>64.40000152587890625</ele>
        <time>2022-11-01T10:54:08.000Z</time>
      </trkpt>
      <trkpt lat="42.5746264122426509857177734375" lon="-8.71898970566689968109130859375">
        <ele>64.59999847412109375</ele>
        <time>2022-11-01T10:54:09.000Z</time>
      </trkpt>
      <trkpt lat="42.57466605864465236663818359375" lon="-8.71899783611297607421875">
        <ele>65</ele>
        <time>2022-11-01T10:54:10.000Z</time>
      </trkpt>
      <trkpt lat="42.5747048668563365936279296875" lon="-8.71900563128292560577392578125">
        <ele>65.1999969482421875</ele>
        <time>2022-11-01T10:54:11.000Z</time>
      </trkpt>
      <trkpt lat="42.5747427530586719512939453125" lon="-8.71901459991931915283203125">
        <ele>65.40000152587890625</ele>
        <time>2022-11-01T10:54:12.000Z</time>
      </trkpt>
      <trkpt lat="42.57478239946067333221435546875" lon="-8.7190248258411884307861328125">
        <ele>65.59999847412109375</ele>
        <time>2022-11-01T10:54:13.000Z</time>
      </trkpt>
      <trkpt lat="42.57482196204364299774169921875" lon="-8.7190365605056285858154296875">
        <ele>65.8000030517578125</ele>
        <time>2022-11-01T10:54:14.000Z</time>
      </trkpt>
      <trkpt lat="42.57486102171242237091064453125" lon="-8.71904687024652957916259765625">
        <ele>66.1999969482421875</ele>
        <time>2022-11-01T10:54:15.000Z</time>
      </trkpt>
      <trkpt lat="42.57489748299121856689453125" lon="-8.71905474923551082611083984375">
        <ele>66.40000152587890625</ele>
        <time>2022-11-01T10:54:16.000Z</time>
      </trkpt>
      <trkpt lat="42.57493411190807819366455078125" lon="-8.719062544405460357666015625">
        <ele>66.59999847412109375</ele>
        <time>2022-11-01T10:54:17.000Z</time>
      </trkpt>
      <trkpt lat="42.57497065700590610504150390625" lon="-8.7190720997750759124755859375">
        <ele>66.8000030517578125</ele>
        <time>2022-11-01T10:54:18.000Z</time>
      </trkpt>
      <trkpt lat="42.57500686682760715484619140625" lon="-8.71908509172499179840087890625">
        <ele>67.1999969482421875</ele>
        <time>2022-11-01T10:54:19.000Z</time>
      </trkpt>
      <trkpt lat="42.57504156790673732757568359375" lon="-8.7190989218652248382568359375">
        <ele>67.40000152587890625</ele>
        <time>2022-11-01T10:54:20.000Z</time>
      </trkpt>
      <trkpt lat="42.57507895119488239288330078125" lon="-8.7191130034625530242919921875">
        <ele>67.8000030517578125</ele>
        <time>2022-11-01T10:54:21.000Z</time>
      </trkpt>
      <trkpt lat="42.5751088745892047882080078125" lon="-8.71912532486021518707275390625">
        <ele>68.1999969482421875</ele>
        <time>2022-11-01T10:54:22.000Z</time>
      </trkpt>
      <trkpt lat="42.5751527957618236541748046875" lon="-8.71914477087557315826416015625">
        <ele>68.40000152587890625</ele>
        <time>2022-11-01T10:54:23.000Z</time>
      </trkpt>
      <trkpt lat="42.57519043050706386566162109375" lon="-8.71916220523416996002197265625">
        <ele>68.59999847412109375</ele>
        <time>2022-11-01T10:54:24.000Z</time>
      </trkpt>
      <trkpt lat="42.5752265565097332000732421875" lon="-8.71918131597340106964111328125">
        <ele>68.8000030517578125</ele>
        <time>2022-11-01T10:54:25.000Z</time>
      </trkpt>
      <trkpt lat="42.57526360452175140380859375" lon="-8.7191995047032833099365234375">
        <ele>69</ele>
        <time>2022-11-01T10:54:26.000Z</time>
      </trkpt>
      <trkpt lat="42.5753003172576427459716796875" lon="-8.7192189507186412811279296875">
        <ele>69.1999969482421875</ele>
        <time>2022-11-01T10:54:27.000Z</time>
      </trkpt>
      <trkpt lat="42.5753368623554706573486328125" lon="-8.71923898346722126007080078125">
        <ele>69.59999847412109375</ele>
        <time>2022-11-01T10:54:28.000Z</time>
      </trkpt>
      <trkpt lat="42.5753737427294254302978515625" lon="-8.719258010387420654296875">
        <ele>69.8000030517578125</ele>
        <time>2022-11-01T10:54:29.000Z</time>
      </trkpt>
      <trkpt lat="42.57540978491306304931640625" lon="-8.7192806415259838104248046875">
        <ele>70.1999969482421875</ele>
        <time>2022-11-01T10:54:30.000Z</time>
      </trkpt>
      <trkpt lat="42.57544473744928836822509765625" lon="-8.71930436231195926666259765625">
        <ele>70.40000152587890625</ele>
        <time>2022-11-01T10:54:31.000Z</time>
      </trkpt>
      <trkpt lat="42.57547147572040557861328125" lon="-8.7193242274224758148193359375">
        <ele>70.59999847412109375</ele>
        <time>2022-11-01T10:54:32.000Z</time>
      </trkpt>
      <trkpt lat="42.57551330141723155975341796875" lon="-8.7193530611693859100341796875">
        <ele>70.8000030517578125</ele>
        <time>2022-11-01T10:54:33.000Z</time>
      </trkpt>
      <trkpt lat="42.575550265610218048095703125" lon="-8.71937527321279048919677734375">
        <ele>70.8000030517578125</ele>
        <time>2022-11-01T10:54:34.000Z</time>
      </trkpt>
      <trkpt lat="42.5755859725177288055419921875" lon="-8.71939974837005138397216796875">
        <ele>71</ele>
        <time>2022-11-01T10:54:35.000Z</time>
      </trkpt>
      <trkpt lat="42.575613297522068023681640625" lon="-8.71942338533699512481689453125">
        <ele>71</ele>
        <time>2022-11-01T10:54:36.000Z</time>
      </trkpt>
      <trkpt lat="42.57565428502857685089111328125" lon="-8.7194563262164592742919921875">
        <ele>71.40000152587890625</ele>
        <time>2022-11-01T10:54:37.000Z</time>
      </trkpt>
      <trkpt lat="42.5756885670125484466552734375" lon="-8.7194859981536865234375">
        <ele>71.59999847412109375</ele>
        <time>2022-11-01T10:54:38.000Z</time>
      </trkpt>
      <trkpt lat="42.57572385482490062713623046875" lon="-8.7195153348147869110107421875">
        <ele>71.8000030517578125</ele>
        <time>2022-11-01T10:54:39.000Z</time>
      </trkpt>
      <trkpt lat="42.575757801532745361328125" lon="-8.71954835951328277587890625">
        <ele>72.1999969482421875</ele>
        <time>2022-11-01T10:54:40.000Z</time>
      </trkpt>
      <trkpt lat="42.57579191587865352630615234375" lon="-8.7195833958685398101806640625">
        <ele>72.40000152587890625</ele>
        <time>2022-11-01T10:54:41.000Z</time>
      </trkpt>
      <trkpt lat="42.57581773214042186737060546875" lon="-8.71961248107254505157470703125">
        <ele>72.8000030517578125</ele>
        <time>2022-11-01T10:54:42.000Z</time>
      </trkpt>
      <trkpt lat="42.57585662417113780975341796875" lon="-8.71965564787387847900390625">
        <ele>73</ele>
        <time>2022-11-01T10:54:43.000Z</time>
      </trkpt>
      <trkpt lat="42.5758873857557773590087890625" lon="-8.719691522419452667236328125">
        <ele>73.1999969482421875</ele>
        <time>2022-11-01T10:54:44.000Z</time>
      </trkpt>
      <trkpt lat="42.57591663859784603118896484375" lon="-8.719731085002422332763671875">
        <ele>73.1999969482421875</ele>
        <time>2022-11-01T10:54:45.000Z</time>
      </trkpt>
      <trkpt lat="42.575945891439914703369140625" lon="-8.71977056376636028289794921875">
        <ele>73.59999847412109375</ele>
        <time>2022-11-01T10:54:46.000Z</time>
      </trkpt>
      <trkpt lat="42.575974054634571075439453125" lon="-8.7198103778064250946044921875">
        <ele>73.59999847412109375</ele>
        <time>2022-11-01T10:54:47.000Z</time>
      </trkpt>
      <trkpt lat="42.5760018825531005859375" lon="-8.71985086239874362945556640625">
        <ele>73.8000030517578125</ele>
        <time>2022-11-01T10:54:48.000Z</time>
      </trkpt>
      <trkpt lat="42.5760292075574398040771484375" lon="-8.71989126317203044891357421875">
        <ele>74</ele>
        <time>2022-11-01T10:54:49.000Z</time>
      </trkpt>
      <trkpt lat="42.576055191457271575927734375" lon="-8.71993434615433216094970703125">
        <ele>74</ele>
        <time>2022-11-01T10:54:50.000Z</time>
      </trkpt>
      <trkpt lat="42.57608226500451564788818359375" lon="-8.71997742913663387298583984375">
        <ele>74.1999969482421875</ele>
        <time>2022-11-01T10:54:51.000Z</time>
      </trkpt>
      <trkpt lat="42.57610791362822055816650390625" lon="-8.72001782990992069244384765625">
        <ele>74.40000152587890625</ele>
        <time>2022-11-01T10:54:52.000Z</time>
      </trkpt>
      <trkpt lat="42.576131634414196014404296875" lon="-8.72006040997803211212158203125">
        <ele>74.8000030517578125</ele>
        <time>2022-11-01T10:54:53.000Z</time>
      </trkpt>
      <trkpt lat="42.5761535950005054473876953125" lon="-8.7201044149696826934814453125">
        <ele>75</ele>
        <time>2022-11-01T10:54:54.000Z</time>
      </trkpt>
      <trkpt lat="42.576175890862941741943359375" lon="-8.7201493419706821441650390625">
        <ele>75.40000152587890625</ele>
        <time>2022-11-01T10:54:55.000Z</time>
      </trkpt>
      <trkpt lat="42.5761985220015048980712890625" lon="-8.720194436609745025634765625">
        <ele>75.8000030517578125</ele>
        <time>2022-11-01T10:54:56.000Z</time>
      </trkpt>
      <trkpt lat="42.5762206502258777618408203125" lon="-8.72024095617234706878662109375">
        <ele>76</ele>
        <time>2022-11-01T10:54:57.000Z</time>
      </trkpt>
      <trkpt lat="42.57624018006026744842529296875" lon="-8.72028823010623455047607421875">
        <ele>76.1999969482421875</ele>
        <time>2022-11-01T10:54:58.000Z</time>
      </trkpt>
      <trkpt lat="42.57625870406627655029296875" lon="-8.72033516876399517059326171875">
        <ele>76.40000152587890625</ele>
        <time>2022-11-01T10:54:59.000Z</time>
      </trkpt>
      <trkpt lat="42.57627756334841251373291015625" lon="-8.720380179584026336669921875">
        <ele>76.8000030517578125</ele>
        <time>2022-11-01T10:55:00.000Z</time>
      </trkpt>
      <trkpt lat="42.57629633881151676177978515625" lon="-8.72042703442275524139404296875">
        <ele>77</ele>
        <time>2022-11-01T10:55:01.000Z</time>
      </trkpt>
      <trkpt lat="42.576312012970447540283203125" lon="-8.72047464363276958465576171875">
        <ele>77.1999969482421875</ele>
        <time>2022-11-01T10:55:02.000Z</time>
      </trkpt>
      <trkpt lat="42.57632634602487087249755859375" lon="-8.72052510268986225128173828125">
        <ele>77.1999969482421875</ele>
        <time>2022-11-01T10:55:03.000Z</time>
      </trkpt>
      <trkpt lat="42.57634042762219905853271484375" lon="-8.72057438828051090240478515625">
        <ele>77.40000152587890625</ele>
        <time>2022-11-01T10:55:04.000Z</time>
      </trkpt>
      <trkpt lat="42.57635232992470264434814453125" lon="-8.72062166221439838409423828125">
        <ele>77.59999847412109375</ele>
        <time>2022-11-01T10:55:05.000Z</time>
      </trkpt>
      <trkpt lat="42.57636473514139652252197265625" lon="-8.720668517053127288818359375">
        <ele>77.8000030517578125</ele>
        <time>2022-11-01T10:55:06.000Z</time>
      </trkpt>
      <trkpt lat="42.5763778947293758392333984375" lon="-8.72071822173893451690673828125">
        <ele>78</ele>
        <time>2022-11-01T10:55:07.000Z</time>
      </trkpt>
      <trkpt lat="42.57639281451702117919921875" lon="-8.7207639031112194061279296875">
        <ele>78.40000152587890625</ele>
        <time>2022-11-01T10:55:08.000Z</time>
      </trkpt>
      <trkpt lat="42.5764063932001590728759765625" lon="-8.72080790810286998748779296875">
        <ele>78.59999847412109375</ele>
        <time>2022-11-01T10:55:09.000Z</time>
      </trkpt>
      <trkpt lat="42.5764184631407260894775390625" lon="-8.7208524160087108612060546875">
        <ele>78.8000030517578125</ele>
        <time>2022-11-01T10:55:10.000Z</time>
      </trkpt>
      <trkpt lat="42.57642843760550022125244140625" lon="-8.7209013663232326507568359375">
        <ele>79</ele>
        <time>2022-11-01T10:55:11.000Z</time>
      </trkpt>
      <trkpt lat="42.576436735689640045166015625" lon="-8.7209526635706424713134765625">
        <ele>79</ele>
        <time>2022-11-01T10:55:12.000Z</time>
      </trkpt>
      <trkpt lat="42.57644352503120899200439453125" lon="-8.72100253589451313018798828125">
        <ele>79.1999969482421875</ele>
        <time>2022-11-01T10:55:13.000Z</time>
      </trkpt>
      <trkpt lat="42.57644805125892162322998046875" lon="-8.7210524082183837890625">
        <ele>79.40000152587890625</ele>
        <time>2022-11-01T10:55:14.000Z</time>
      </trkpt>
      <trkpt lat="42.5764523260295391082763671875" lon="-8.72110068798065185546875">
        <ele>79.8000030517578125</ele>
        <time>2022-11-01T10:55:15.000Z</time>
      </trkpt>
      <trkpt lat="42.5764576904475688934326171875" lon="-8.72115139849483966827392578125">
        <ele>80</ele>
        <time>2022-11-01T10:55:16.000Z</time>
      </trkpt>
      <trkpt lat="42.5764630548655986785888671875" lon="-8.72120521031320095062255859375">
        <ele>80.1999969482421875</ele>
        <time>2022-11-01T10:55:17.000Z</time>
      </trkpt>
      <trkpt lat="42.576470263302326202392578125" lon="-8.72125650756061077117919921875">
        <ele>80.40000152587890625</ele>
        <time>2022-11-01T10:55:18.000Z</time>
      </trkpt>
      <trkpt lat="42.5764778070151805877685546875" lon="-8.7213050387799739837646484375">
        <ele>80.59999847412109375</ele>
        <time>2022-11-01T10:55:19.000Z</time>
      </trkpt>
      <trkpt lat="42.576482333242893218994140625" lon="-8.7213560007512569427490234375">
        <ele>81</ele>
        <time>2022-11-01T10:55:20.000Z</time>
      </trkpt>
      <trkpt lat="42.5764838419854640960693359375" lon="-8.7214106507599353790283203125">
        <ele>81.1999969482421875</ele>
        <time>2022-11-01T10:55:21.000Z</time>
      </trkpt>
      <trkpt lat="42.5764818303287029266357421875" lon="-8.72146287001669406890869140625">
        <ele>81.59999847412109375</ele>
        <time>2022-11-01T10:55:22.000Z</time>
      </trkpt>
      <trkpt lat="42.576480992138385772705078125" lon="-8.72151450254023075103759765625">
        <ele>82</ele>
        <time>2022-11-01T10:55:23.000Z</time>
      </trkpt>
      <trkpt lat="42.576479651033878326416015625" lon="-8.7215709127485752105712890625">
        <ele>82.40000152587890625</ele>
        <time>2022-11-01T10:55:24.000Z</time>
      </trkpt>
      <trkpt lat="42.57648141123354434967041015625" lon="-8.72162614949047565460205078125">
        <ele>82.59999847412109375</ele>
        <time>2022-11-01T10:55:25.000Z</time>
      </trkpt>
      <trkpt lat="42.5764808245003223419189453125" lon="-8.72168113477528095245361328125">
        <ele>83</ele>
        <time>2022-11-01T10:55:26.000Z</time>
      </trkpt>
      <trkpt lat="42.57647998631000518798828125" lon="-8.7217355333268642425537109375">
        <ele>83.1999969482421875</ele>
        <time>2022-11-01T10:55:27.000Z</time>
      </trkpt>
      <trkpt lat="42.57647604681551456451416015625" lon="-8.72178674675524234771728515625">
        <ele>83.40000152587890625</ele>
        <time>2022-11-01T10:55:28.000Z</time>
      </trkpt>
      <trkpt lat="42.57647856138646602630615234375" lon="-8.72183016501367092132568359375">
        <ele>83.59999847412109375</ele>
        <time>2022-11-01T10:55:29.000Z</time>
      </trkpt>
      <trkpt lat="42.57647805847227573394775390625" lon="-8.7218709848821163177490234375">
        <ele>83.8000030517578125</ele>
        <time>2022-11-01T10:55:30.000Z</time>
      </trkpt>
      <trkpt lat="42.5764744542539119720458984375" lon="-8.721916414797306060791015625">
        <ele>84.1999969482421875</ele>
        <time>2022-11-01T10:55:31.000Z</time>
      </trkpt>
      <trkpt lat="42.57646950893104076385498046875" lon="-8.72196461074054241180419921875">
        <ele>84.40000152587890625</ele>
        <time>2022-11-01T10:55:32.000Z</time>
      </trkpt>
      <trkpt lat="42.57646330632269382476806640625" lon="-8.7220118008553981781005859375">
        <ele>84.59999847412109375</ele>
        <time>2022-11-01T10:55:33.000Z</time>
      </trkpt>
      <trkpt lat="42.5764556787908077239990234375" lon="-8.722055889666080474853515625">
        <ele>84.8000030517578125</ele>
        <time>2022-11-01T10:55:34.000Z</time>
      </trkpt>
      <trkpt lat="42.57644503377377986907958984375" lon="-8.722100816667079925537109375">
        <ele>85</ele>
        <time>2022-11-01T10:55:35.000Z</time>
      </trkpt>
      <trkpt lat="42.57643296383321285247802734375" lon="-8.7221534550189971923828125">
        <ele>85.40000152587890625</ele>
        <time>2022-11-01T10:55:36.000Z</time>
      </trkpt>
      <trkpt lat="42.57642005570232868194580078125" lon="-8.7222079373896121978759765625">
        <ele>85.59999847412109375</ele>
        <time>2022-11-01T10:55:37.000Z</time>
      </trkpt>
      <trkpt lat="42.576412260532379150390625" lon="-8.72225998900830745697021484375">
        <ele>86</ele>
        <time>2022-11-01T10:55:38.000Z</time>
      </trkpt>
      <trkpt lat="42.57640345953404903411865234375" lon="-8.72231497429311275482177734375">
        <ele>86.40000152587890625</ele>
        <time>2022-11-01T10:55:39.000Z</time>
      </trkpt>
      <trkpt lat="42.57639222778379917144775390625" lon="-8.7223705463111400604248046875">
        <ele>86.59999847412109375</ele>
        <time>2022-11-01T10:55:40.000Z</time>
      </trkpt>
      <trkpt lat="42.57637999020516872406005859375" lon="-8.72242678888142108917236328125">
        <ele>86.8000030517578125</ele>
        <time>2022-11-01T10:55:41.000Z</time>
      </trkpt>
      <trkpt lat="42.5763671658933162689208984375" lon="-8.72248210944235324859619140625">
        <ele>87</ele>
        <time>2022-11-01T10:55:42.000Z</time>
      </trkpt>
      <trkpt lat="42.57634989917278289794921875" lon="-8.72254061512649059295654296875">
        <ele>87</ele>
        <time>2022-11-01T10:55:43.000Z</time>
      </trkpt>
      <trkpt lat="42.57633472792804241180419921875" lon="-8.7225985340774059295654296875">
        <ele>87.40000152587890625</ele>
        <time>2022-11-01T10:55:44.000Z</time>
      </trkpt>
      <trkpt lat="42.5763205625116825103759765625" lon="-8.722655363380908966064453125">
        <ele>87.59999847412109375</ele>
        <time>2022-11-01T10:55:45.000Z</time>
      </trkpt>
      <trkpt lat="42.5763061456382274627685546875" lon="-8.7227118574082851409912109375">
        <ele>87.59999847412109375</ele>
        <time>2022-11-01T10:55:46.000Z</time>
      </trkpt>
      <trkpt lat="42.57629248313605785369873046875" lon="-8.72276776470243930816650390625">
        <ele>87.59999847412109375</ele>
        <time>2022-11-01T10:55:47.000Z</time>
      </trkpt>
      <trkpt lat="42.57627823390066623687744140625" lon="-8.7228218279778957366943359375">
        <ele>87.8000030517578125</ele>
        <time>2022-11-01T10:55:48.000Z</time>
      </trkpt>
      <trkpt lat="42.57626230828464031219482421875" lon="-8.72287639416754245758056640625">
        <ele>88</ele>
        <time>2022-11-01T10:55:49.000Z</time>
      </trkpt>
      <trkpt lat="42.57624822668731212615966796875" lon="-8.72293188236653804779052734375">
        <ele>88.1999969482421875</ele>
        <time>2022-11-01T10:55:50.000Z</time>
      </trkpt>
      <trkpt lat="42.57623682729899883270263671875" lon="-8.72298695147037506103515625">
        <ele>88.40000152587890625</ele>
        <time>2022-11-01T10:55:51.000Z</time>
      </trkpt>
      <trkpt lat="42.57622710429131984710693359375" lon="-8.72304151766002178192138671875">
        <ele>88.59999847412109375</ele>
        <time>2022-11-01T10:55:52.000Z</time>
      </trkpt>
      <trkpt lat="42.57621310651302337646484375" lon="-8.7230975925922393798828125">
        <ele>88.8000030517578125</ele>
        <time>2022-11-01T10:55:53.000Z</time>
      </trkpt>
      <trkpt lat="42.57620128802955150604248046875" lon="-8.72315132059156894683837890625">
        <ele>89</ele>
        <time>2022-11-01T10:55:54.000Z</time>
      </trkpt>
      <trkpt lat="42.57618938572704792022705078125" lon="-8.7232050485908985137939453125">
        <ele>89.1999969482421875</ele>
        <time>2022-11-01T10:55:55.000Z</time>
      </trkpt>
      <trkpt lat="42.57617681287229061126708984375" lon="-8.7232580222189426422119140625">
        <ele>89.59999847412109375</ele>
        <time>2022-11-01T10:55:56.000Z</time>
      </trkpt>
      <trkpt lat="42.5761629827320575714111328125" lon="-8.7233121693134307861328125">
        <ele>89.8000030517578125</ele>
        <time>2022-11-01T10:55:57.000Z</time>
      </trkpt>
      <trkpt lat="42.57615384645760059356689453125" lon="-8.72335365973412990570068359375">
        <ele>90</ele>
        <time>2022-11-01T10:55:58.000Z</time>
      </trkpt>
      <trkpt lat="42.57614144124090671539306640625" lon="-8.7234065495431423187255859375">
        <ele>90.1999969482421875</ele>
        <time>2022-11-01T10:55:59.000Z</time>
      </trkpt>
      <trkpt lat="42.57612484507262706756591796875" lon="-8.72347109019756317138671875">
        <ele>90.59999847412109375</ele>
        <time>2022-11-01T10:56:00.000Z</time>
      </trkpt>
      <trkpt lat="42.5761116854846477508544921875" lon="-8.7235259078443050384521484375">
        <ele>91</ele>
        <time>2022-11-01T10:56:01.000Z</time>
      </trkpt>
      <trkpt lat="42.57609735243022441864013671875" lon="-8.72358198277652263641357421875">
        <ele>91.40000152587890625</ele>
        <time>2022-11-01T10:56:02.000Z</time>
      </trkpt>
      <trkpt lat="42.5760828517377376556396484375" lon="-8.72363696806132793426513671875">
        <ele>91.59999847412109375</ele>
        <time>2022-11-01T10:56:03.000Z</time>
      </trkpt>
      <trkpt lat="42.5760737992823123931884765625" lon="-8.72367602773010730743408203125">
        <ele>91.59999847412109375</ele>
        <time>2022-11-01T10:56:04.000Z</time>
      </trkpt>
      <trkpt lat="42.57605887949466705322265625" lon="-8.72373956255614757537841796875">
        <ele>92.1999969482421875</ele>
        <time>2022-11-01T10:56:05.000Z</time>
      </trkpt>
      <trkpt lat="42.576045803725719451904296875" lon="-8.72379354201257228851318359375">
        <ele>92.40000152587890625</ele>
        <time>2022-11-01T10:56:06.000Z</time>
      </trkpt>
      <trkpt lat="42.576033733785152435302734375" lon="-8.72384886257350444793701171875">
        <ele>92.8000030517578125</ele>
        <time>2022-11-01T10:56:07.000Z</time>
      </trkpt>
      <trkpt lat="42.576023004949092864990234375" lon="-8.7239044345915317535400390625">
        <ele>93</ele>
        <time>2022-11-01T10:56:08.000Z</time>
      </trkpt>
      <trkpt lat="42.57601034827530384063720703125" lon="-8.72396050952374935150146484375">
        <ele>93.40000152587890625</ele>
        <time>2022-11-01T10:56:09.000Z</time>
      </trkpt>
      <trkpt lat="42.575998865067958831787109375" lon="-8.72401482425630092620849609375">
        <ele>93.40000152587890625</ele>
        <time>2022-11-01T10:56:10.000Z</time>
      </trkpt>
      <trkpt lat="42.5759871304035186767578125" lon="-8.72406796552240848541259765625">
        <ele>93.59999847412109375</ele>
        <time>2022-11-01T10:56:11.000Z</time>
      </trkpt>
      <trkpt lat="42.57597573101520538330078125" lon="-8.72411875985562801361083984375">
        <ele>93.8000030517578125</ele>
        <time>2022-11-01T10:56:12.000Z</time>
      </trkpt>
      <trkpt lat="42.57596290670335292816162109375" lon="-8.72417114675045013427734375">
        <ele>94</ele>
        <time>2022-11-01T10:56:13.000Z</time>
      </trkpt>
      <trkpt lat="42.57595033384859561920166015625" lon="-8.7242246232926845550537109375">
        <ele>94.40000152587890625</ele>
        <time>2022-11-01T10:56:14.000Z</time>
      </trkpt>
      <trkpt lat="42.57593574933707714080810546875" lon="-8.72427918948233127593994140625">
        <ele>94.59999847412109375</ele>
        <time>2022-11-01T10:56:15.000Z</time>
      </trkpt>
      <trkpt lat="42.57592066191136837005615234375" lon="-8.72433383949100971221923828125">
        <ele>94.8000030517578125</ele>
        <time>2022-11-01T10:56:16.000Z</time>
      </trkpt>
      <trkpt lat="42.57590708322823047637939453125" lon="-8.72438714839518070220947265625">
        <ele>95</ele>
        <time>2022-11-01T10:56:17.000Z</time>
      </trkpt>
      <trkpt lat="42.5758945941925048828125" lon="-8.7244378589093685150146484375">
        <ele>95.1999969482421875</ele>
        <time>2022-11-01T10:56:18.000Z</time>
      </trkpt>
      <trkpt lat="42.57588026113808155059814453125" lon="-8.7244908325374126434326171875">
        <ele>95.1999969482421875</ele>
        <time>2022-11-01T10:56:19.000Z</time>
      </trkpt>
      <trkpt lat="42.57586701773107051849365234375" lon="-8.72454464435577392578125">
        <ele>95.59999847412109375</ele>
        <time>2022-11-01T10:56:20.000Z</time>
      </trkpt>
      <trkpt lat="42.57585637271404266357421875" lon="-8.72459803707897663116455078125">
        <ele>95.8000030517578125</ele>
        <time>2022-11-01T10:56:21.000Z</time>
      </trkpt>
      <trkpt lat="42.57584623061120510101318359375" lon="-8.72464992105960845947265625">
        <ele>96</ele>
        <time>2022-11-01T10:56:22.000Z</time>
      </trkpt>
      <trkpt lat="42.575839944183826446533203125" lon="-8.7247007153928279876708984375">
        <ele>96.40000152587890625</ele>
        <time>2022-11-01T10:56:23.000Z</time>
      </trkpt>
      <trkpt lat="42.5758354179561138153076171875" lon="-8.72475142590701580047607421875">
        <ele>96.59999847412109375</ele>
        <time>2022-11-01T10:56:24.000Z</time>
      </trkpt>
      <trkpt lat="42.57583449594676494598388671875" lon="-8.7247992865741252899169921875">
        <ele>96.8000030517578125</ele>
        <time>2022-11-01T10:56:25.000Z</time>
      </trkpt>
      <trkpt lat="42.57583667524158954620361328125" lon="-8.72484262101352214813232421875">
        <ele>96.8000030517578125</ele>
        <time>2022-11-01T10:56:26.000Z</time>
      </trkpt>
      <trkpt lat="42.57583885453641414642333984375" lon="-8.7248824350535869598388671875">
        <ele>97</ele>
        <time>2022-11-01T10:56:27.000Z</time>
      </trkpt>
      <trkpt lat="42.5758404470980167388916015625" lon="-8.72491805814206600189208984375">
        <ele>97</ele>
        <time>2022-11-01T10:56:28.000Z</time>
      </trkpt>
      <trkpt lat="42.57555956952273845672607421875" lon="-8.72575004585087299346923828125">
        <ele>99.1999969482421875</ele>
        <time>2022-11-01T10:58:58.000Z</time>
      </trkpt>
      <trkpt lat="42.575543560087680816650390625" lon="-8.72580595314502716064453125">
        <ele>98.8000030517578125</ele>
        <time>2022-11-01T10:58:59.000Z</time>
      </trkpt>
      <trkpt lat="42.57552922703325748443603515625" lon="-8.72586420737206935882568359375">
        <ele>98.59999847412109375</ele>
        <time>2022-11-01T10:59:00.000Z</time>
      </trkpt>
      <trkpt lat="42.57551397196948528289794921875" lon="-8.72592237778007984161376953125">
        <ele>98.59999847412109375</ele>
        <time>2022-11-01T10:59:01.000Z</time>
      </trkpt>
      <trkpt lat="42.57549838162958621978759765625" lon="-8.72598230838775634765625">
        <ele>98.59999847412109375</ele>
        <time>2022-11-01T10:59:02.000Z</time>
      </trkpt>
      <trkpt lat="42.57548145018517971038818359375" lon="-8.7260428257286548614501953125">
        <ele>98.40000152587890625</ele>
        <time>2022-11-01T10:59:03.000Z</time>
      </trkpt>
      <trkpt lat="42.57546317763626575469970703125" lon="-8.7261058576405048370361328125">
        <ele>98.40000152587890625</ele>
        <time>2022-11-01T10:59:04.000Z</time>
      </trkpt>
      <trkpt lat="42.57544465363025665283203125" lon="-8.7261712364852428436279296875">
        <ele>98.40000152587890625</ele>
        <time>2022-11-01T10:59:05.000Z</time>
      </trkpt>
      <trkpt lat="42.57542780600488185882568359375" lon="-8.726240135729312896728515625">
        <ele>98</ele>
        <time>2022-11-01T10:59:06.000Z</time>
      </trkpt>
      <trkpt lat="42.57541288621723651885986328125" lon="-8.726313896477222442626953125">
        <ele>98</ele>
        <time>2022-11-01T10:59:07.000Z</time>
      </trkpt>
      <trkpt lat="42.57539595477283000946044921875" lon="-8.72639226727187633514404296875">
        <ele>97.8000030517578125</ele>
        <time>2022-11-01T10:59:08.000Z</time>
      </trkpt>
      <trkpt lat="42.57537784986197948455810546875" lon="-8.726473487913608551025390625">
        <ele>97.59999847412109375</ele>
        <time>2022-11-01T10:59:09.000Z</time>
      </trkpt>
      <trkpt lat="42.5753583200275897979736328125" lon="-8.72655839659273624420166015625">
        <ele>97.40000152587890625</ele>
        <time>2022-11-01T10:59:10.000Z</time>
      </trkpt>
      <trkpt lat="42.575339712202548980712890625" lon="-8.7266463227570056915283203125">
        <ele>97.40000152587890625</ele>
        <time>2022-11-01T10:59:11.000Z</time>
      </trkpt>
      <trkpt lat="42.5753207691013813018798828125" lon="-8.7267373502254486083984375">
        <ele>97.1999969482421875</ele>
        <time>2022-11-01T10:59:12.000Z</time>
      </trkpt>
      <trkpt lat="42.57530651986598968505859375" lon="-8.726813793182373046875">
        <ele>97</ele>
        <time>2022-11-01T10:59:13.000Z</time>
      </trkpt>
      <trkpt lat="42.57528648711740970611572265625" lon="-8.7269336543977260589599609375">
        <ele>96.8000030517578125</ele>
        <time>2022-11-01T10:59:14.000Z</time>
      </trkpt>
      <trkpt lat="42.575274668633937835693359375" lon="-8.72701806016266345977783203125">
        <ele>96.59999847412109375</ele>
        <time>2022-11-01T10:59:15.000Z</time>
      </trkpt>
      <trkpt lat="42.5752624310553073883056640625" lon="-8.72712719254195690155029296875">
        <ele>96.40000152587890625</ele>
        <time>2022-11-01T10:59:16.000Z</time>
      </trkpt>
      <trkpt lat="42.5752570666372776031494140625" lon="-8.72726281173527240753173828125">
        <ele>96</ele>
        <time>2022-11-01T10:59:17.000Z</time>
      </trkpt>
      <trkpt lat="42.575258575379848480224609375" lon="-8.72738066129386425018310546875">
        <ele>95.8000030517578125</ele>
        <time>2022-11-01T10:59:18.000Z</time>
      </trkpt>
      <trkpt lat="42.57526201196014881134033203125" lon="-8.72747889719903469085693359375">
        <ele>95.40000152587890625</ele>
        <time>2022-11-01T10:59:19.000Z</time>
      </trkpt>
      <trkpt lat="42.5752682983875274658203125" lon="-8.72760378755629062652587890625">
        <ele>95.1999969482421875</ele>
        <time>2022-11-01T10:59:20.000Z</time>
      </trkpt>
      <trkpt lat="42.5752795301377773284912109375" lon="-8.727732114493846893310546875">
        <ele>94.40000152587890625</ele>
        <time>2022-11-01T10:59:21.000Z</time>
      </trkpt>
      <trkpt lat="42.57529704831540584564208984375" lon="-8.72786278836429119110107421875">
        <ele>94</ele>
        <time>2022-11-01T10:59:22.000Z</time>
      </trkpt>
      <trkpt lat="42.57532621733844280242919921875" lon="-8.72802288271486759185791015625">
        <ele>93.59999847412109375</ele>
        <time>2022-11-01T10:59:23.000Z</time>
      </trkpt>
      <trkpt lat="42.5753502734005451202392578125" lon="-8.728131093084812164306640625">
        <ele>93</ele>
        <time>2022-11-01T10:59:24.000Z</time>
      </trkpt>
      <trkpt lat="42.57538287900388240814208984375" lon="-8.72826662845909595489501953125">
        <ele>92.59999847412109375</ele>
        <time>2022-11-01T10:59:25.000Z</time>
      </trkpt>
      <trkpt lat="42.57541841827332973480224609375" lon="-8.72840325348079204559326171875">
        <ele>92.1999969482421875</ele>
        <time>2022-11-01T10:59:26.000Z</time>
      </trkpt>
      <trkpt lat="42.57545663975179195404052734375" lon="-8.7285396270453929901123046875">
        <ele>91.59999847412109375</ele>
        <time>2022-11-01T10:59:27.000Z</time>
      </trkpt>
      <trkpt lat="42.57549829781055450439453125" lon="-8.72867616824805736541748046875">
        <ele>90.40000152587890625</ele>
        <time>2022-11-01T10:59:28.000Z</time>
      </trkpt>
      <trkpt lat="42.5755413807928562164306640625" lon="-8.72881480492651462554931640625">
        <ele>89.59999847412109375</ele>
        <time>2022-11-01T10:59:29.000Z</time>
      </trkpt>
      <trkpt lat="42.575584463775157928466796875" lon="-8.72895528562366962432861328125">
        <ele>88.8000030517578125</ele>
        <time>2022-11-01T10:59:30.000Z</time>
      </trkpt>
      <trkpt lat="42.57562846876680850982666015625" lon="-8.7290961854159832000732421875">
        <ele>88.1999969482421875</ele>
        <time>2022-11-01T10:59:31.000Z</time>
      </trkpt>
      <trkpt lat="42.57567155174911022186279296875" lon="-8.729237504303455352783203125">
        <ele>87.8000030517578125</ele>
        <time>2022-11-01T10:59:32.000Z</time>
      </trkpt>
      <trkpt lat="42.57571555674076080322265625" lon="-8.7293791584670543670654296875">
        <ele>87.1999969482421875</ele>
        <time>2022-11-01T10:59:33.000Z</time>
      </trkpt>
      <trkpt lat="42.575760819017887115478515625" lon="-8.72952123172581195831298828125">
        <ele>86.8000030517578125</ele>
        <time>2022-11-01T10:59:34.000Z</time>
      </trkpt>
      <trkpt lat="42.57581404410302639007568359375" lon="-8.7296936474740505218505859375">
        <ele>85.40000152587890625</ele>
        <time>2022-11-01T10:59:35.000Z</time>
      </trkpt>
      <trkpt lat="42.57586047984659671783447265625" lon="-8.729837648570537567138671875">
        <ele>84.8000030517578125</ele>
        <time>2022-11-01T10:59:36.000Z</time>
      </trkpt>
      <trkpt lat="42.5759066641330718994140625" lon="-8.72998215258121490478515625">
        <ele>84.1999969482421875</ele>
        <time>2022-11-01T10:59:37.000Z</time>
      </trkpt>
      <trkpt lat="42.5759534351527690887451171875" lon="-8.73012833297252655029296875">
        <ele>84</ele>
        <time>2022-11-01T10:59:38.000Z</time>
      </trkpt>
      <trkpt lat="42.57599878124892711639404296875" lon="-8.7302750162780284881591796875">
        <ele>83.59999847412109375</ele>
        <time>2022-11-01T10:59:39.000Z</time>
      </trkpt>
      <trkpt lat="42.5760434567928314208984375" lon="-8.730421029031276702880859375">
        <ele>83.1999969482421875</ele>
        <time>2022-11-01T10:59:40.000Z</time>
      </trkpt>
      <trkpt lat="42.576090060174465179443359375" lon="-8.730567209422588348388671875">
        <ele>83</ele>
        <time>2022-11-01T10:59:41.000Z</time>
      </trkpt>
      <trkpt lat="42.5761368311941623687744140625" lon="-8.730712048709392547607421875">
        <ele>82.1999969482421875</ele>
        <time>2022-11-01T10:59:42.000Z</time>
      </trkpt>
      <trkpt lat="42.576182596385478973388671875" lon="-8.7308573909103870391845703125">
        <ele>81.8000030517578125</ele>
        <time>2022-11-01T10:59:43.000Z</time>
      </trkpt>
      <trkpt lat="42.5762283615767955780029296875" lon="-8.73100164346396923065185546875">
        <ele>81.1999969482421875</ele>
        <time>2022-11-01T10:59:44.000Z</time>
      </trkpt>
      <trkpt lat="42.57627370767295360565185546875" lon="-8.73114463873207569122314453125">
        <ele>81</ele>
        <time>2022-11-01T10:59:45.000Z</time>
      </trkpt>
      <trkpt lat="42.576318718492984771728515625" lon="-8.73128545470535755157470703125">
        <ele>80.59999847412109375</ele>
        <time>2022-11-01T10:59:46.000Z</time>
      </trkpt>
      <trkpt lat="42.57636289112269878387451171875" lon="-8.7314250133931636810302734375">
        <ele>80.1999969482421875</ele>
        <time>2022-11-01T10:59:47.000Z</time>
      </trkpt>
      <trkpt lat="42.576406896114349365234375" lon="-8.731564991176128387451171875">
        <ele>80</ele>
        <time>2022-11-01T10:59:48.000Z</time>
      </trkpt>
      <trkpt lat="42.5764509849250316619873046875" lon="-8.73170237056910991668701171875">
        <ele>79.8000030517578125</ele>
        <time>2022-11-01T10:59:49.000Z</time>
      </trkpt>
      <trkpt lat="42.5764932297170162200927734375" lon="-8.73183798976242542266845703125">
        <ele>79.59999847412109375</ele>
        <time>2022-11-01T10:59:50.000Z</time>
      </trkpt>
      <trkpt lat="42.5765331275761127471923828125" lon="-8.73197344131767749786376953125">
        <ele>79.1999969482421875</ele>
        <time>2022-11-01T10:59:51.000Z</time>
      </trkpt>
      <trkpt lat="42.576573528349399566650390625" lon="-8.7321079708635807037353515625">
        <ele>79.1999969482421875</ele>
        <time>2022-11-01T10:59:52.000Z</time>
      </trkpt>
      <trkpt lat="42.5766159407794475555419921875" lon="-8.732241578400135040283203125">
        <ele>78.59999847412109375</ele>
        <time>2022-11-01T10:59:53.000Z</time>
      </trkpt>
      <trkpt lat="42.576658688485622406005859375" lon="-8.732376359403133392333984375">
        <ele>78.1999969482421875</ele>
        <time>2022-11-01T10:59:54.000Z</time>
      </trkpt>
      <trkpt lat="42.57670185528695583343505859375" lon="-8.7325106374919414520263671875">
        <ele>77.59999847412109375</ele>
        <time>2022-11-01T10:59:55.000Z</time>
      </trkpt>
      <trkpt lat="42.57674393244087696075439453125" lon="-8.732647262513637542724609375">
        <ele>77.1999969482421875</ele>
        <time>2022-11-01T10:59:56.000Z</time>
      </trkpt>
      <trkpt lat="42.576786763966083526611328125" lon="-8.73278447426855564117431640625">
        <ele>77</ele>
        <time>2022-11-01T10:59:57.000Z</time>
      </trkpt>
      <trkpt lat="42.57682942785322666168212890625" lon="-8.73292126692831516265869140625">
        <ele>76.1999969482421875</ele>
        <time>2022-11-01T10:59:58.000Z</time>
      </trkpt>
      <trkpt lat="42.57687234319746494293212890625" lon="-8.73305755667388439178466796875">
        <ele>76</ele>
        <time>2022-11-01T10:59:59.000Z</time>
      </trkpt>
      <trkpt lat="42.57691559381783008575439453125" lon="-8.7331929244101047515869140625">
        <ele>75.59999847412109375</ele>
        <time>2022-11-01T11:00:00.000Z</time>
      </trkpt>
      <trkpt lat="42.57695968262851238250732421875" lon="-8.73332762159407138824462890625">
        <ele>75.40000152587890625</ele>
        <time>2022-11-01T11:00:01.000Z</time>
      </trkpt>
      <trkpt lat="42.5770048610866069793701171875" lon="-8.7334631569683551788330078125">
        <ele>75</ele>
        <time>2022-11-01T11:00:02.000Z</time>
      </trkpt>
      <trkpt lat="42.57704861462116241455078125" lon="-8.73359919525682926177978515625">
        <ele>75</ele>
        <time>2022-11-01T11:00:03.000Z</time>
      </trkpt>
      <trkpt lat="42.5770910270512104034423828125" lon="-8.73373498208820819854736328125">
        <ele>74.59999847412109375</ele>
        <time>2022-11-01T11:00:04.000Z</time>
      </trkpt>
      <trkpt lat="42.57713251747190952301025390625" lon="-8.73387177474796772003173828125">
        <ele>74.40000152587890625</ele>
        <time>2022-11-01T11:00:05.000Z</time>
      </trkpt>
      <trkpt lat="42.57717325352132320404052734375" lon="-8.7340063042938709259033203125">
        <ele>74.40000152587890625</ele>
        <time>2022-11-01T11:00:06.000Z</time>
      </trkpt>
      <trkpt lat="42.5772066973149776458740234375" lon="-8.7341122515499591827392578125">
        <ele>74.1999969482421875</ele>
        <time>2022-11-01T11:00:07.000Z</time>
      </trkpt>
      <trkpt lat="42.5772496126592159271240234375" lon="-8.73424460180103778839111328125">
        <ele>74.1999969482421875</ele>
        <time>2022-11-01T11:00:08.000Z</time>
      </trkpt>
      <trkpt lat="42.57729462347924709320068359375" lon="-8.73437519185245037078857421875">
        <ele>73.1999969482421875</ele>
        <time>2022-11-01T11:00:09.000Z</time>
      </trkpt>
      <trkpt lat="42.5773428194224834442138671875" lon="-8.7345048598945140838623046875">
        <ele>73</ele>
        <time>2022-11-01T11:00:10.000Z</time>
      </trkpt>
      <trkpt lat="42.57739235647022724151611328125" lon="-8.734632097184658050537109375">
        <ele>72.59999847412109375</ele>
        <time>2022-11-01T11:00:11.000Z</time>
      </trkpt>
      <trkpt lat="42.57744566537439823150634765625" lon="-8.73475723899900913238525390625">
        <ele>72.1999969482421875</ele>
        <time>2022-11-01T11:00:12.000Z</time>
      </trkpt>
      <trkpt lat="42.5775025784969329833984375" lon="-8.73488078825175762176513671875">
        <ele>72</ele>
        <time>2022-11-01T11:00:13.000Z</time>
      </trkpt>
      <trkpt lat="42.577563263475894927978515625" lon="-8.73500199057161808013916015625">
        <ele>71.59999847412109375</ele>
        <time>2022-11-01T11:00:14.000Z</time>
      </trkpt>
      <trkpt lat="42.5776251219213008880615234375" lon="-8.73512453399598598480224609375">
        <ele>71.59999847412109375</ele>
        <time>2022-11-01T11:00:15.000Z</time>
      </trkpt>
      <trkpt lat="42.57768924348056316375732421875" lon="-8.73524623923003673553466796875">
        <ele>70.8000030517578125</ele>
        <time>2022-11-01T11:00:16.000Z</time>
      </trkpt>
      <trkpt lat="42.57775328122079372406005859375" lon="-8.735365681350231170654296875">
        <ele>70.59999847412109375</ele>
        <time>2022-11-01T11:00:17.000Z</time>
      </trkpt>
      <trkpt lat="42.577817738056182861328125" lon="-8.7354805134236812591552734375">
        <ele>70.1999969482421875</ele>
        <time>2022-11-01T11:00:18.000Z</time>
      </trkpt>
      <trkpt lat="42.577883116900920867919921875" lon="-8.73559358529746532440185546875">
        <ele>70</ele>
        <time>2022-11-01T11:00:19.000Z</time>
      </trkpt>
      <trkpt lat="42.577952183783054351806640625" lon="-8.73570087365806102752685546875">
        <ele>69.40000152587890625</ele>
        <time>2022-11-01T11:00:20.000Z</time>
      </trkpt>
      <trkpt lat="42.57802384905517101287841796875" lon="-8.73580698855221271514892578125">
        <ele>69</ele>
        <time>2022-11-01T11:00:21.000Z</time>
      </trkpt>
      <trkpt lat="42.57809241302311420440673828125" lon="-8.73591897077858448028564453125">
        <ele>68.8000030517578125</ele>
        <time>2022-11-01T11:00:22.000Z</time>
      </trkpt>
      <trkpt lat="42.578159384429454803466796875" lon="-8.7360283546149730682373046875">
        <ele>68</ele>
        <time>2022-11-01T11:00:23.000Z</time>
      </trkpt>
      <trkpt lat="42.5782279483973979949951171875" lon="-8.7361379899084568023681640625">
        <ele>67.59999847412109375</ele>
        <time>2022-11-01T11:00:24.000Z</time>
      </trkpt>
      <trkpt lat="42.578295506536960601806640625" lon="-8.7362457811832427978515625">
        <ele>67.1999969482421875</ele>
        <time>2022-11-01T11:00:25.000Z</time>
      </trkpt>
      <trkpt lat="42.57836365140974521636962890625" lon="-8.73634829185903072357177734375">
        <ele>67</ele>
        <time>2022-11-01T11:00:26.000Z</time>
      </trkpt>
      <trkpt lat="42.5784294493496417999267578125" lon="-8.73645172454416751861572265625">
        <ele>66.8000030517578125</ele>
        <time>2022-11-01T11:00:27.000Z</time>
      </trkpt>
      <trkpt lat="42.5784921459853649139404296875" lon="-8.7365517206490039825439453125">
        <ele>66.40000152587890625</ele>
        <time>2022-11-01T11:00:28.000Z</time>
      </trkpt>
      <trkpt lat="42.5785513222217559814453125" lon="-8.7366455979645252227783203125">
        <ele>66</ele>
        <time>2022-11-01T11:00:29.000Z</time>
      </trkpt>
      <trkpt lat="42.578609324991703033447265625" lon="-8.73673670925199985504150390625">
        <ele>65.40000152587890625</ele>
        <time>2022-11-01T11:00:30.000Z</time>
      </trkpt>
      <trkpt lat="42.57866573520004749298095703125" lon="-8.73682421632111072540283203125">
        <ele>65.1999969482421875</ele>
        <time>2022-11-01T11:00:31.000Z</time>
      </trkpt>
      <trkpt lat="42.57872021757066249847412109375" lon="-8.73690870590507984161376953125">
        <ele>64.8000030517578125</ele>
        <time>2022-11-01T11:00:32.000Z</time>
      </trkpt>
      <trkpt lat="42.5787764601409435272216796875" lon="-8.73699487186968326568603515625">
        <ele>64.59999847412109375</ele>
        <time>2022-11-01T11:00:33.000Z</time>
      </trkpt>
      <trkpt lat="42.5788356363773345947265625" lon="-8.73708288185298442840576171875">
        <ele>64.1999969482421875</ele>
        <time>2022-11-01T11:00:34.000Z</time>
      </trkpt>
      <trkpt lat="42.5788961537182331085205078125" lon="-8.737170808017253875732421875">
        <ele>64</ele>
        <time>2022-11-01T11:00:35.000Z</time>
      </trkpt>
      <trkpt lat="42.578960694372653961181640625" lon="-8.7372588180005550384521484375">
        <ele>63.799999237060546875</ele>
        <time>2022-11-01T11:00:36.000Z</time>
      </trkpt>
      <trkpt lat="42.57902850396931171417236328125" lon="-8.73734481632709503173828125">
        <ele>63.200000762939453125</ele>
        <time>2022-11-01T11:00:37.000Z</time>
      </trkpt>
      <trkpt lat="42.57909857667982578277587890625" lon="-8.7374314852058887481689453125">
        <ele>62.799999237060546875</ele>
        <time>2022-11-01T11:00:38.000Z</time>
      </trkpt>
      <trkpt lat="42.57917250506579875946044921875" lon="-8.737519495189189910888671875">
        <ele>62.40000152587890625</ele>
        <time>2022-11-01T11:00:39.000Z</time>
      </trkpt>
      <trkpt lat="42.57924945093691349029541015625" lon="-8.73761043883860111236572265625">
        <ele>62.200000762939453125</ele>
        <time>2022-11-01T11:00:40.000Z</time>
      </trkpt>
      <trkpt lat="42.57932773791253566741943359375" lon="-8.73770230449736118316650390625">
        <ele>61.200000762939453125</ele>
        <time>2022-11-01T11:00:41.000Z</time>
      </trkpt>
      <trkpt lat="42.57941155694425106048583984375" lon="-8.73779433779418468475341796875">
        <ele>61</ele>
        <time>2022-11-01T11:00:42.000Z</time>
      </trkpt>
      <trkpt lat="42.5794999860227108001708984375" lon="-8.7378807552158832550048828125">
        <ele>60.59999847412109375</ele>
        <time>2022-11-01T11:00:43.000Z</time>
      </trkpt>
      <trkpt lat="42.57959109731018543243408203125" lon="-8.7379659153521060943603515625">
        <ele>60.40000152587890625</ele>
        <time>2022-11-01T11:00:44.000Z</time>
      </trkpt>
      <trkpt lat="42.57968396879732608795166015625" lon="-8.7380507402122020721435546875">
        <ele>60</ele>
        <time>2022-11-01T11:00:45.000Z</time>
      </trkpt>
      <trkpt lat="42.57977901957929134368896484375" lon="-8.738137744367122650146484375">
        <ele>59.59999847412109375</ele>
        <time>2022-11-01T11:00:46.000Z</time>
      </trkpt>
      <trkpt lat="42.57987557910382747650146484375" lon="-8.73822768218815326690673828125">
        <ele>59.200000762939453125</ele>
        <time>2022-11-01T11:00:47.000Z</time>
      </trkpt>
      <trkpt lat="42.5799710489809513092041015625" lon="-8.73831904493272304534912109375">
        <ele>58.59999847412109375</ele>
        <time>2022-11-01T11:00:48.000Z</time>
      </trkpt>
      <trkpt lat="42.5800666026771068572998046875" lon="-8.73840906657278537750244140625">
        <ele>58.40000152587890625</ele>
        <time>2022-11-01T11:00:49.000Z</time>
      </trkpt>
      <trkpt lat="42.5801651738584041595458984375" lon="-8.73849975876510143280029296875">
        <ele>57.200000762939453125</ele>
        <time>2022-11-01T11:00:50.000Z</time>
      </trkpt>
      <trkpt lat="42.580263577401638031005859375" lon="-8.738591037690639495849609375">
        <ele>56.799999237060546875</ele>
        <time>2022-11-01T11:00:51.000Z</time>
      </trkpt>
      <trkpt lat="42.58036206476390361785888671875" lon="-8.738682568073272705078125">
        <ele>56.200000762939453125</ele>
        <time>2022-11-01T11:00:52.000Z</time>
      </trkpt>
      <trkpt lat="42.580478824675083160400390625" lon="-8.73879027552902698516845703125">
        <ele>55.59999847412109375</ele>
        <time>2022-11-01T11:00:53.000Z</time>
      </trkpt>
      <trkpt lat="42.5805735401809215545654296875" lon="-8.7388828955590724945068359375">
        <ele>55</ele>
        <time>2022-11-01T11:00:54.000Z</time>
      </trkpt>
      <trkpt lat="42.5806654058396816253662109375" lon="-8.73897467739880084991455078125">
        <ele>54.40000152587890625</ele>
        <time>2022-11-01T11:00:55.000Z</time>
      </trkpt>
      <trkpt lat="42.5807587802410125732421875" lon="-8.73906067572534084320068359375">
        <ele>54.200000762939453125</ele>
        <time>2022-11-01T11:00:56.000Z</time>
      </trkpt>
      <trkpt lat="42.5808504782617092132568359375" lon="-8.73914550058543682098388671875">
        <ele>54</ele>
        <time>2022-11-01T11:00:57.000Z</time>
      </trkpt>
      <trkpt lat="42.58094125427305698394775390625" lon="-8.7392302416265010833740234375">
        <ele>53.799999237060546875</ele>
        <time>2022-11-01T11:00:58.000Z</time>
      </trkpt>
      <trkpt lat="42.5810301862657070159912109375" lon="-8.73931649141013622283935546875">
        <ele>53.200000762939453125</ele>
        <time>2022-11-01T11:00:59.000Z</time>
      </trkpt>
      <trkpt lat="42.58111886680126190185546875" lon="-8.7394032441079616546630859375">
        <ele>52.799999237060546875</ele>
        <time>2022-11-01T11:01:00.000Z</time>
      </trkpt>
      <trkpt lat="42.58121249265968799591064453125" lon="-8.7394885718822479248046875">
        <ele>52.200000762939453125</ele>
        <time>2022-11-01T11:01:01.000Z</time>
      </trkpt>
      <trkpt lat="42.5813071243464946746826171875" lon="-8.73957532458007335662841796875">
        <ele>51.59999847412109375</ele>
        <time>2022-11-01T11:01:02.000Z</time>
      </trkpt>
      <trkpt lat="42.58140041492879390716552734375" lon="-8.7396604008972644805908203125">
        <ele>51.200000762939453125</ele>
        <time>2022-11-01T11:01:03.000Z</time>
      </trkpt>
      <trkpt lat="42.58149437606334686279296875" lon="-8.73974547721445560455322265625">
        <ele>50.799999237060546875</ele>
        <time>2022-11-01T11:01:04.000Z</time>
      </trkpt>
      <trkpt lat="42.58158825337886810302734375" lon="-8.7398307211697101593017578125">
        <ele>50.59999847412109375</ele>
        <time>2022-11-01T11:01:05.000Z</time>
      </trkpt>
      <trkpt lat="42.58168238215148448944091796875" lon="-8.73991906642913818359375">
        <ele>50.40000152587890625</ele>
        <time>2022-11-01T11:01:06.000Z</time>
      </trkpt>
      <trkpt lat="42.581777013838291168212890625" lon="-8.7400074116885662078857421875">
        <ele>50</ele>
        <time>2022-11-01T11:01:07.000Z</time>
      </trkpt>
      <trkpt lat="42.58187147788703441619873046875" lon="-8.7400947511196136474609375">
        <ele>49.40000152587890625</ele>
        <time>2022-11-01T11:01:08.000Z</time>
      </trkpt>
      <trkpt lat="42.581966780126094818115234375" lon="-8.7401817552745342254638671875">
        <ele>49.200000762939453125</ele>
        <time>2022-11-01T11:01:09.000Z</time>
      </trkpt>
      <trkpt lat="42.58206157945096492767333984375" lon="-8.74026951380074024200439453125">
        <ele>48.40000152587890625</ele>
        <time>2022-11-01T11:01:10.000Z</time>
      </trkpt>
      <trkpt lat="42.58215629495680332183837890625" lon="-8.74035819433629512786865234375">
        <ele>48</ele>
        <time>2022-11-01T11:01:11.000Z</time>
      </trkpt>
      <trkpt lat="42.58225285448133945465087890625" lon="-8.74044603668153285980224609375">
        <ele>47.799999237060546875</ele>
        <time>2022-11-01T11:01:12.000Z</time>
      </trkpt>
      <trkpt lat="42.58234974928200244903564453125" lon="-8.74053438194096088409423828125">
        <ele>47</ele>
        <time>2022-11-01T11:01:13.000Z</time>
      </trkpt>
      <trkpt lat="42.5824485719203948974609375" lon="-8.74062490649521350860595703125">
        <ele>46.59999847412109375</ele>
        <time>2022-11-01T11:01:14.000Z</time>
      </trkpt>
      <trkpt lat="42.582547478377819061279296875" lon="-8.74071769416332244873046875">
        <ele>46.200000762939453125</ele>
        <time>2022-11-01T11:01:15.000Z</time>
      </trkpt>
      <trkpt lat="42.58264630101621150970458984375" lon="-8.7408110685646533966064453125">
        <ele>46</ele>
        <time>2022-11-01T11:01:16.000Z</time>
      </trkpt>
      <trkpt lat="42.58272609673440456390380859375" lon="-8.74088533222675323486328125">
        <ele>45.799999237060546875</ele>
        <time>2022-11-01T11:01:17.000Z</time>
      </trkpt>
      <trkpt lat="42.58284511975944042205810546875" lon="-8.7409964762628078460693359375">
        <ele>45.40000152587890625</ele>
        <time>2022-11-01T11:01:18.000Z</time>
      </trkpt>
      <trkpt lat="42.5829446129500865936279296875" lon="-8.7410890124738216400146484375">
        <ele>45</ele>
        <time>2022-11-01T11:01:19.000Z</time>
      </trkpt>
      <trkpt lat="42.5830448605120182037353515625" lon="-8.741182051599025726318359375">
        <ele>44.200000762939453125</ele>
        <time>2022-11-01T11:01:20.000Z</time>
      </trkpt>
      <trkpt lat="42.58314535953104496002197265625" lon="-8.741275928914546966552734375">
        <ele>44</ele>
        <time>2022-11-01T11:01:21.000Z</time>
      </trkpt>
      <trkpt lat="42.583246864378452301025390625" lon="-8.74136787839233875274658203125">
        <ele>43.40000152587890625</ele>
        <time>2022-11-01T11:01:22.000Z</time>
      </trkpt>
      <trkpt lat="42.58334937505424022674560546875" lon="-8.741460330784320831298828125">
        <ele>43.200000762939453125</ele>
        <time>2022-11-01T11:01:23.000Z</time>
      </trkpt>
      <trkpt lat="42.58345196954905986785888671875" lon="-8.74155412428081035614013671875">
        <ele>42.799999237060546875</ele>
        <time>2022-11-01T11:01:24.000Z</time>
      </trkpt>
      <trkpt lat="42.58355406112968921661376953125" lon="-8.74164800159633159637451171875">
        <ele>42.59999847412109375</ele>
        <time>2022-11-01T11:01:25.000Z</time>
      </trkpt>
      <trkpt lat="42.5836564041674137115478515625" lon="-8.7417434714734554290771484375">
        <ele>41.40000152587890625</ele>
        <time>2022-11-01T11:01:26.000Z</time>
      </trkpt>
      <trkpt lat="42.58375958539545536041259765625" lon="-8.74183843843638896942138671875">
        <ele>40.59999847412109375</ele>
        <time>2022-11-01T11:01:27.000Z</time>
      </trkpt>
      <trkpt lat="42.58386410772800445556640625" lon="-8.741933070123195648193359375">
        <ele>40</ele>
        <time>2022-11-01T11:01:28.000Z</time>
      </trkpt>
      <trkpt lat="42.5839695520699024200439453125" lon="-8.74203004874289035797119140625">
        <ele>39.40000152587890625</ele>
        <time>2022-11-01T11:01:29.000Z</time>
      </trkpt>
      <trkpt lat="42.584073655307292938232421875" lon="-8.74212577007710933685302734375">
        <ele>39</ele>
        <time>2022-11-01T11:01:30.000Z</time>
      </trkpt>
      <trkpt lat="42.584176920354366302490234375" lon="-8.7422217428684234619140625">
        <ele>38.59999847412109375</ele>
        <time>2022-11-01T11:01:31.000Z</time>
      </trkpt>
      <trkpt lat="42.58428110741078853607177734375" lon="-8.7423194758594036102294921875">
        <ele>38.40000152587890625</ele>
        <time>2022-11-01T11:01:32.000Z</time>
      </trkpt>
      <trkpt lat="42.58438504301011562347412109375" lon="-8.74241410754621028900146484375">
        <ele>38</ele>
        <time>2022-11-01T11:01:33.000Z</time>
      </trkpt>
      <trkpt lat="42.58448906242847442626953125" lon="-8.7425105832517147064208984375">
        <ele>37.799999237060546875</ele>
        <time>2022-11-01T11:01:34.000Z</time>
      </trkpt>
      <trkpt lat="42.5845911540091037750244140625" lon="-8.7426078133285045623779296875">
        <ele>37.40000152587890625</ele>
        <time>2022-11-01T11:01:35.000Z</time>
      </trkpt>
      <trkpt lat="42.584694921970367431640625" lon="-8.742708228528499603271484375">
        <ele>36.40000152587890625</ele>
        <time>2022-11-01T11:01:36.000Z</time>
      </trkpt>
      <trkpt lat="42.58479726500809192657470703125" lon="-8.74280537478625774383544921875">
        <ele>36</ele>
        <time>2022-11-01T11:01:37.000Z</time>
      </trkpt>
      <trkpt lat="42.58490078151226043701171875" lon="-8.74290059320628643035888671875">
        <ele>35</ele>
        <time>2022-11-01T11:01:38.000Z</time>
      </trkpt>
      <trkpt lat="42.58500547148287296295166015625" lon="-8.74299648217856884002685546875">
        <ele>34.40000152587890625</ele>
        <time>2022-11-01T11:01:39.000Z</time>
      </trkpt>
      <trkpt lat="42.5850866921246051788330078125" lon="-8.7430720031261444091796875">
        <ele>33.59999847412109375</ele>
        <time>2022-11-01T11:01:40.000Z</time>
      </trkpt>
      <trkpt lat="42.585209906101226806640625" lon="-8.743184991180896759033203125">
        <ele>33.40000152587890625</ele>
        <time>2022-11-01T11:01:41.000Z</time>
      </trkpt>
      <trkpt lat="42.5853103213012218475341796875" lon="-8.74328054487705230712890625">
        <ele>32.799999237060546875</ele>
        <time>2022-11-01T11:01:42.000Z</time>
      </trkpt>
      <trkpt lat="42.58541107177734375" lon="-8.7433735840022563934326171875">
        <ele>32.40000152587890625</ele>
        <time>2022-11-01T11:01:43.000Z</time>
      </trkpt>
      <trkpt lat="42.585510313510894775390625" lon="-8.74346670694649219512939453125">
        <ele>32.200000762939453125</ele>
        <time>2022-11-01T11:01:44.000Z</time>
      </trkpt>
      <trkpt lat="42.58560620248317718505859375" lon="-8.7435563094913959503173828125">
        <ele>31.799999237060546875</ele>
        <time>2022-11-01T11:01:45.000Z</time>
      </trkpt>
      <trkpt lat="42.58570167236030101776123046875" lon="-8.74364574439823627471923828125">
        <ele>31.6000003814697265625</ele>
        <time>2022-11-01T11:01:46.000Z</time>
      </trkpt>
      <trkpt lat="42.5857964716851711273193359375" lon="-8.7437350116670131683349609375">
        <ele>31.3999996185302734375</ele>
        <time>2022-11-01T11:01:47.000Z</time>
      </trkpt>
      <trkpt lat="42.58589026518166065216064453125" lon="-8.74382377602159976959228515625">
        <ele>31.3999996185302734375</ele>
        <time>2022-11-01T11:01:48.000Z</time>
      </trkpt>
      <trkpt lat="42.58596586994826793670654296875" lon="-8.7438949383795261383056640625">
        <ele>31</ele>
        <time>2022-11-01T11:01:49.000Z</time>
      </trkpt>
      <trkpt lat="42.58607801981270313262939453125" lon="-8.744001723825931549072265625">
        <ele>30.799999237060546875</ele>
        <time>2022-11-01T11:01:50.000Z</time>
      </trkpt>
      <trkpt lat="42.5861729867756366729736328125" lon="-8.7440870516002178192138671875">
        <ele>30.6000003814697265625</ele>
        <time>2022-11-01T11:01:51.000Z</time>
      </trkpt>
      <trkpt lat="42.5862671993672847747802734375" lon="-8.74417196027934551239013671875">
        <ele>30.3999996185302734375</ele>
        <time>2022-11-01T11:01:52.000Z</time>
      </trkpt>
      <trkpt lat="42.58635948412120342254638671875" lon="-8.74425821006298065185546875">
        <ele>30.3999996185302734375</ele>
        <time>2022-11-01T11:01:53.000Z</time>
      </trkpt>
      <trkpt lat="42.58645118214190006256103515625" lon="-8.74434513039886951446533203125">
        <ele>30.3999996185302734375</ele>
        <time>2022-11-01T11:01:54.000Z</time>
      </trkpt>
      <trkpt lat="42.5865416228771209716796875" lon="-8.7444320507347583770751953125">
        <ele>30.3999996185302734375</ele>
        <time>2022-11-01T11:01:55.000Z</time>
      </trkpt>
      <trkpt lat="42.586631476879119873046875" lon="-8.744516037404537200927734375">
        <ele>30.3999996185302734375</ele>
        <time>2022-11-01T11:01:56.000Z</time>
      </trkpt>
      <trkpt lat="42.5867054052650928497314453125" lon="-8.74458334408700466156005859375">
        <ele>30.200000762939453125</ele>
        <time>2022-11-01T11:01:57.000Z</time>
      </trkpt>
      <trkpt lat="42.58679735474288463592529296875" lon="-8.7446677498519420623779296875">
        <ele>30.200000762939453125</ele>
        <time>2022-11-01T11:01:58.000Z</time>
      </trkpt>
      <trkpt lat="42.58690397255122661590576171875" lon="-8.7447671592235565185546875">
        <ele>30.200000762939453125</ele>
        <time>2022-11-01T11:01:59.000Z</time>
      </trkpt>
      <trkpt lat="42.586994580924510955810546875" lon="-8.744850642979145050048828125">
        <ele>30.200000762939453125</ele>
        <time>2022-11-01T11:02:00.000Z</time>
      </trkpt>
      <trkpt lat="42.5870815850794315338134765625" lon="-8.7449316121637821197509765625">
        <ele>30</ele>
        <time>2022-11-01T11:02:01.000Z</time>
      </trkpt>
      <trkpt lat="42.58717018179595470428466796875" lon="-8.7450139224529266357421875">
        <ele>29.799999237060546875</ele>
        <time>2022-11-01T11:02:02.000Z</time>
      </trkpt>
      <trkpt lat="42.58723924867808818817138671875" lon="-8.74508005566895008087158203125">
        <ele>29.6000003814697265625</ele>
        <time>2022-11-01T11:02:03.000Z</time>
      </trkpt>
      <trkpt lat="42.58734553121030330657958984375" lon="-8.745178543031215667724609375">
        <ele>29.6000003814697265625</ele>
        <time>2022-11-01T11:02:04.000Z</time>
      </trkpt>
      <trkpt lat="42.587434463202953338623046875" lon="-8.74526211060583591461181640625">
        <ele>29.3999996185302734375</ele>
        <time>2022-11-01T11:02:05.000Z</time>
      </trkpt>
      <trkpt lat="42.5875224731862545013427734375" lon="-8.74534316360950469970703125">
        <ele>29.200000762939453125</ele>
        <time>2022-11-01T11:02:06.000Z</time>
      </trkpt>
      <trkpt lat="42.58759279735386371612548828125" lon="-8.74540862627327442169189453125">
        <ele>29</ele>
        <time>2022-11-01T11:02:07.000Z</time>
      </trkpt>
      <trkpt lat="42.58769824169576168060302734375" lon="-8.74550853855907917022705078125">
        <ele>28.799999237060546875</ele>
        <time>2022-11-01T11:02:08.000Z</time>
      </trkpt>
      <trkpt lat="42.58778608404099941253662109375" lon="-8.7455944530665874481201171875">
        <ele>28.6000003814697265625</ele>
        <time>2022-11-01T11:02:09.000Z</time>
      </trkpt>
      <trkpt lat="42.58787208236753940582275390625" lon="-8.7456755898892879486083984375">
        <ele>28.6000003814697265625</ele>
        <time>2022-11-01T11:02:10.000Z</time>
      </trkpt>
      <trkpt lat="42.58795715868473052978515625" lon="-8.74575446359813213348388671875">
        <ele>28.3999996185302734375</ele>
        <time>2022-11-01T11:02:11.000Z</time>
      </trkpt>
      <trkpt lat="42.58802413009107112884521484375" lon="-8.7458170764148235321044921875">
        <ele>28.200000762939453125</ele>
        <time>2022-11-01T11:02:12.000Z</time>
      </trkpt>
      <trkpt lat="42.58812404237687587738037109375" lon="-8.7459109537303447723388671875">
        <ele>28.200000762939453125</ele>
        <time>2022-11-01T11:02:13.000Z</time>
      </trkpt>
      <trkpt lat="42.5882057659327983856201171875" lon="-8.74598714523017406463623046875">
        <ele>28</ele>
        <time>2022-11-01T11:02:14.000Z</time>
      </trkpt>
      <trkpt lat="42.58828631602227687835693359375" lon="-8.74606425873935222625732421875">
        <ele>28</ele>
        <time>2022-11-01T11:02:15.000Z</time>
      </trkpt>
      <trkpt lat="42.5883656926453113555908203125" lon="-8.7461389414966106414794921875">
        <ele>27.799999237060546875</ele>
        <time>2022-11-01T11:02:16.000Z</time>
      </trkpt>
      <trkpt lat="42.58844196796417236328125" lon="-8.74621219933032989501953125">
        <ele>27.6000003814697265625</ele>
        <time>2022-11-01T11:02:17.000Z</time>
      </trkpt>
      <trkpt lat="42.5885199196636676788330078125" lon="-8.74628570862114429473876953125">
        <ele>27.6000003814697265625</ele>
        <time>2022-11-01T11:02:18.000Z</time>
      </trkpt>
      <trkpt lat="42.588594518601894378662109375" lon="-8.746356032788753509521484375">
        <ele>27.3999996185302734375</ele>
        <time>2022-11-01T11:02:19.000Z</time>
      </trkpt>
      <trkpt lat="42.588652856647968292236328125" lon="-8.7464101798832416534423828125">
        <ele>27.3999996185302734375</ele>
        <time>2022-11-01T11:02:20.000Z</time>
      </trkpt>
      <trkpt lat="42.58872351609170436859130859375" lon="-8.746478073298931121826171875">
        <ele>27.200000762939453125</ele>
        <time>2022-11-01T11:02:21.000Z</time>
      </trkpt>
      <trkpt lat="42.58880968205630779266357421875" lon="-8.7465583719313144683837890625">
        <ele>27.200000762939453125</ele>
        <time>2022-11-01T11:02:22.000Z</time>
      </trkpt>
      <trkpt lat="42.5888763181865215301513671875" lon="-8.74662132002413272857666015625">
        <ele>27.200000762939453125</ele>
        <time>2022-11-01T11:02:23.000Z</time>
      </trkpt>
      <trkpt lat="42.58893608115613460540771484375" lon="-8.74667756259441375732421875">
        <ele>27.200000762939453125</ele>
        <time>2022-11-01T11:02:24.000Z</time>
      </trkpt>
      <trkpt lat="42.5889869593083858489990234375" lon="-8.7467253394424915313720703125">
        <ele>27.200000762939453125</ele>
        <time>2022-11-01T11:02:25.000Z</time>
      </trkpt>
      <trkpt lat="42.589023001492023468017578125" lon="-8.74675693921744823455810546875">
        <ele>27.200000762939453125</ele>
        <time>2022-11-01T11:02:26.000Z</time>
      </trkpt>
      <trkpt lat="42.58907186798751354217529296875" lon="-8.74680136330425739288330078125">
        <ele>27.200000762939453125</ele>
        <time>2022-11-01T11:02:27.000Z</time>
      </trkpt>
      <trkpt lat="42.58910925127565860748291015625" lon="-8.74683539383113384246826171875">
        <ele>27.200000762939453125</ele>
        <time>2022-11-01T11:02:28.000Z</time>
      </trkpt>
      <trkpt lat="42.58914361707866191864013671875" lon="-8.7468661554157733917236328125">
        <ele>27.200000762939453125</ele>
        <time>2022-11-01T11:02:29.000Z</time>
      </trkpt>
      <trkpt lat="42.5891680084168910980224609375" lon="-8.74688819982111454010009765625">
        <ele>27</ele>
        <time>2022-11-01T11:02:30.000Z</time>
      </trkpt>
      <trkpt lat="42.5892028771340847015380859375" lon="-8.7469194643199443817138671875">
        <ele>27</ele>
        <time>2022-11-01T11:02:31.000Z</time>
      </trkpt>
      <trkpt lat="42.58922626264393329620361328125" lon="-8.74694033525884151458740234375">
        <ele>26.799999237060546875</ele>
        <time>2022-11-01T11:02:32.000Z</time>
      </trkpt>
      <trkpt lat="42.58924487046897411346435546875" lon="-8.74695676378905773162841796875">
        <ele>26.799999237060546875</ele>
        <time>2022-11-01T11:02:33.000Z</time>
      </trkpt>
      <trkpt lat="42.58925744332373142242431640625" lon="-8.7469674088060855865478515625">
        <ele>26.799999237060546875</ele>
        <time>2022-11-01T11:02:34.000Z</time>
      </trkpt>
      <trkpt lat="42.589266411960124969482421875" lon="-8.74697662889957427978515625">
        <ele>26.799999237060546875</ele>
        <time>2022-11-01T11:02:35.000Z</time>
      </trkpt>
      <trkpt lat="42.58927068673074245452880859375" lon="-8.74698241241276264190673828125">
        <ele>26.6000003814697265625</ele>
        <time>2022-11-01T11:02:36.000Z</time>
      </trkpt>
      <trkpt lat="42.5897299312055110931396484375" lon="-8.74740452505648136138916015625">
        <ele>26</ele>
        <time>2022-11-01T11:03:04.000Z</time>
      </trkpt>
      <trkpt lat="42.58976689539849758148193359375" lon="-8.747441656887531280517578125">
        <ele>26</ele>
        <time>2022-11-01T11:03:05.000Z</time>
      </trkpt>
      <trkpt lat="42.58979581296443939208984375" lon="-8.74747283756732940673828125">
        <ele>26</ele>
        <time>2022-11-01T11:03:06.000Z</time>
      </trkpt>
      <trkpt lat="42.5898409076035022735595703125" lon="-8.7475189380347728729248046875">
        <ele>25.6000003814697265625</ele>
        <time>2022-11-01T11:03:07.000Z</time>
      </trkpt>
      <trkpt lat="42.58988021872937679290771484375" lon="-8.7475574947893619537353515625">
        <ele>25.3999996185302734375</ele>
        <time>2022-11-01T11:03:08.000Z</time>
      </trkpt>
      <trkpt lat="42.58992179296910762786865234375" lon="-8.7475980632007122039794921875">
        <ele>25.3999996185302734375</ele>
        <time>2022-11-01T11:03:09.000Z</time>
      </trkpt>
      <trkpt lat="42.5899652950465679168701171875" lon="-8.7476399727165699005126953125">
        <ele>25.3999996185302734375</ele>
        <time>2022-11-01T11:03:10.000Z</time>
      </trkpt>
      <trkpt lat="42.59001047350466251373291015625" lon="-8.7476845644414424896240234375">
        <ele>25</ele>
        <time>2022-11-01T11:03:11.000Z</time>
      </trkpt>
      <trkpt lat="42.590048946440219879150390625" lon="-8.747719936072826385498046875">
        <ele>25</ele>
        <time>2022-11-01T11:03:12.000Z</time>
      </trkpt>
      <trkpt lat="42.59010233916342258453369140625" lon="-8.7477680481970310211181640625">
        <ele>25</ele>
        <time>2022-11-01T11:03:13.000Z</time>
      </trkpt>
      <trkpt lat="42.59013586677610874176025390625" lon="-8.7477958761155605316162109375">
        <ele>24.799999237060546875</ele>
        <time>2022-11-01T11:03:14.000Z</time>
      </trkpt>
      <trkpt lat="42.590157575905323028564453125" lon="-8.7478133104741573333740234375">
        <ele>24.799999237060546875</ele>
        <time>2022-11-01T11:03:15.000Z</time>
      </trkpt>
      <trkpt lat="42.5901654548943042755126953125" lon="-8.7478193454444408416748046875">
        <ele>24.799999237060546875</ele>
        <time>2022-11-01T11:03:16.000Z</time>
      </trkpt>
      <trkpt lat="42.5901654548943042755126953125" lon="-8.7478193454444408416748046875">
        <ele>24.6000003814697265625</ele>
        <time>2022-11-01T11:03:17.000Z</time>
      </trkpt>
      <trkpt lat="42.5901654548943042755126953125" lon="-8.7478193454444408416748046875">
        <ele>24.6000003814697265625</ele>
        <time>2022-11-01T11:03:18.000Z</time>
      </trkpt>
      <trkpt lat="42.5901879183948040008544921875" lon="-8.747838623821735382080078125">
        <ele>24.3999996185302734375</ele>
        <time>2022-11-01T11:03:38.000Z</time>
      </trkpt>
      <trkpt lat="42.590209543704986572265625" lon="-8.74785848893225193023681640625">
        <ele>24.3999996185302734375</ele>
        <time>2022-11-01T11:03:39.000Z</time>
      </trkpt>
      <trkpt lat="42.59023611433804035186767578125" lon="-8.74788246117532253265380859375">
        <ele>24.3999996185302734375</ele>
        <time>2022-11-01T11:03:40.000Z</time>
      </trkpt>
      <trkpt lat="42.5902697257697582244873046875" lon="-8.74791045673191547393798828125">
        <ele>24.3999996185302734375</ele>
        <time>2022-11-01T11:03:41.000Z</time>
      </trkpt>
      <trkpt lat="42.5903082825243473052978515625" lon="-8.7479433976113796234130859375">
        <ele>24.200000762939453125</ele>
        <time>2022-11-01T11:03:42.000Z</time>
      </trkpt>
      <trkpt lat="42.59034776128828525543212890625" lon="-8.74797709286212921142578125">
        <ele>24.200000762939453125</ele>
        <time>2022-11-01T11:03:43.000Z</time>
      </trkpt>
      <trkpt lat="42.59038447402417659759521484375" lon="-8.7480064295232295989990234375">
        <ele>24.200000762939453125</ele>
        <time>2022-11-01T11:03:44.000Z</time>
      </trkpt>
      <trkpt lat="42.5904397107660770416259765625" lon="-8.748055882751941680908203125">
        <ele>24.200000762939453125</ele>
        <time>2022-11-01T11:03:45.000Z</time>
      </trkpt>
      <trkpt lat="42.59049184620380401611328125" lon="-8.74810307286679744720458984375">
        <ele>24.200000762939453125</ele>
        <time>2022-11-01T11:03:46.000Z</time>
      </trkpt>
      <trkpt lat="42.5905434787273406982421875" lon="-8.7481509335339069366455078125">
        <ele>24</ele>
        <time>2022-11-01T11:03:47.000Z</time>
      </trkpt>
      <trkpt lat="42.59059418924152851104736328125" lon="-8.7481985427439212799072265625">
        <ele>24</ele>
        <time>2022-11-01T11:03:48.000Z</time>
      </trkpt>
      <trkpt lat="42.590647749602794647216796875" lon="-8.74824665486812591552734375">
        <ele>23.6000003814697265625</ele>
        <time>2022-11-01T11:03:49.000Z</time>
      </trkpt>
      <trkpt lat="42.59070399217307567596435546875" lon="-8.74829585663974285125732421875">
        <ele>23.6000003814697265625</ele>
        <time>2022-11-01T11:03:50.000Z</time>
      </trkpt>
      <trkpt lat="42.59075864218175411224365234375" lon="-8.74834815971553325653076171875">
        <ele>23.3999996185302734375</ele>
        <time>2022-11-01T11:03:51.000Z</time>
      </trkpt>
      <trkpt lat="42.59081211872398853302001953125" lon="-8.74839928932487964630126953125">
        <ele>23.200000762939453125</ele>
        <time>2022-11-01T11:03:52.000Z</time>
      </trkpt>
      <trkpt lat="42.5908655114471912384033203125" lon="-8.7484498322010040283203125">
        <ele>23</ele>
        <time>2022-11-01T11:03:53.000Z</time>
      </trkpt>
      <trkpt lat="42.59092007763683795928955078125" lon="-8.74850356020033359527587890625">
        <ele>23</ele>
        <time>2022-11-01T11:03:54.000Z</time>
      </trkpt>
      <trkpt lat="42.59097506292164325714111328125" lon="-8.7485556118190288543701171875">
        <ele>22.799999237060546875</ele>
        <time>2022-11-01T11:03:55.000Z</time>
      </trkpt>
      <trkpt lat="42.59103038348257541656494140625" lon="-8.7486054003238677978515625">
        <ele>22.799999237060546875</ele>
        <time>2022-11-01T11:03:56.000Z</time>
      </trkpt>
      <trkpt lat="42.59107430465519428253173828125" lon="-8.74864554964005947113037109375">
        <ele>22.799999237060546875</ele>
        <time>2022-11-01T11:03:57.000Z</time>
      </trkpt>
      <trkpt lat="42.5911397673189640045166015625" lon="-8.74870908446609973907470703125">
        <ele>22.6000003814697265625</ele>
        <time>2022-11-01T11:03:58.000Z</time>
      </trkpt>
      <trkpt lat="42.59118427522480487823486328125" lon="-8.7487524189054965972900390625">
        <ele>22.6000003814697265625</ele>
        <time>2022-11-01T11:03:59.000Z</time>
      </trkpt>
      <trkpt lat="42.59124152362346649169921875" lon="-8.748805224895477294921875">
        <ele>22.3999996185302734375</ele>
        <time>2022-11-01T11:04:00.000Z</time>
      </trkpt>
      <trkpt lat="42.591307573020458221435546875" lon="-8.74886968173086643218994140625">
        <ele>22.200000762939453125</ele>
        <time>2022-11-01T11:04:01.000Z</time>
      </trkpt>
      <trkpt lat="42.5913613848388195037841796875" lon="-8.748923242092132568359375">
        <ele>22</ele>
        <time>2022-11-01T11:04:02.000Z</time>
      </trkpt>
      <trkpt lat="42.59141460992395877838134765625" lon="-8.74897328205406665802001953125">
        <ele>22</ele>
        <time>2022-11-01T11:04:03.000Z</time>
      </trkpt>
      <trkpt lat="42.59146624244749546051025390625" lon="-8.749020136892795562744140625">
        <ele>21.799999237060546875</ele>
        <time>2022-11-01T11:04:04.000Z</time>
      </trkpt>
      <trkpt lat="42.59151871316134929656982421875" lon="-8.74906548298895359039306640625">
        <ele>21.6000003814697265625</ele>
        <time>2022-11-01T11:04:05.000Z</time>
      </trkpt>
      <trkpt lat="42.59157068096101284027099609375" lon="-8.74911032617092132568359375">
        <ele>21.6000003814697265625</ele>
        <time>2022-11-01T11:04:06.000Z</time>
      </trkpt>
      <trkpt lat="42.591612003743648529052734375" lon="-8.74914796091616153717041015625">
        <ele>21.6000003814697265625</ele>
        <time>2022-11-01T11:04:07.000Z</time>
      </trkpt>
      <trkpt lat="42.59167679585516452789306640625" lon="-8.74920579604804515838623046875">
        <ele>21.3999996185302734375</ele>
        <time>2022-11-01T11:04:08.000Z</time>
      </trkpt>
      <trkpt lat="42.59173102676868438720703125" lon="-8.7492573447525501251220703125">
        <ele>21.3999996185302734375</ele>
        <time>2022-11-01T11:04:09.000Z</time>
      </trkpt>
      <trkpt lat="42.591787688434123992919921875" lon="-8.74931023456156253814697265625">
        <ele>21.3999996185302734375</ele>
        <time>2022-11-01T11:04:10.000Z</time>
      </trkpt>
      <trkpt lat="42.5918451882898807525634765625" lon="-8.74936689622700214385986328125">
        <ele>21.3999996185302734375</ele>
        <time>2022-11-01T11:04:11.000Z</time>
      </trkpt>
      <trkpt lat="42.59190134704113006591796875" lon="-8.749421797692775726318359375">
        <ele>21.200000762939453125</ele>
        <time>2022-11-01T11:04:12.000Z</time>
      </trkpt>
      <trkpt lat="42.59195691905915737152099609375" lon="-8.74947586096823215484619140625">
        <ele>21.200000762939453125</ele>
        <time>2022-11-01T11:04:13.000Z</time>
      </trkpt>
      <trkpt lat="42.5920148380100727081298828125" lon="-8.7495305947959423065185546875">
        <ele>21.200000762939453125</ele>
        <time>2022-11-01T11:04:14.000Z</time>
      </trkpt>
      <trkpt lat="42.59207460097968578338623046875" lon="-8.74958381988108158111572265625">
        <ele>21.200000762939453125</ele>
        <time>2022-11-01T11:04:15.000Z</time>
      </trkpt>
      <trkpt lat="42.59212262928485870361328125" lon="-8.7496284954249858856201171875">
        <ele>21.200000762939453125</ele>
        <time>2022-11-01T11:04:16.000Z</time>
      </trkpt>
      <trkpt lat="42.5921916961669921875" lon="-8.74969328753650188446044921875">
        <ele>21.200000762939453125</ele>
        <time>2022-11-01T11:04:17.000Z</time>
      </trkpt>
      <trkpt lat="42.59224894456565380096435546875" lon="-8.74974475242197513580322265625">
        <ele>21.200000762939453125</ele>
        <time>2022-11-01T11:04:18.000Z</time>
      </trkpt>
      <trkpt lat="42.5923058576881885528564453125" lon="-8.749795295298099517822265625">
        <ele>21.200000762939453125</ele>
        <time>2022-11-01T11:04:19.000Z</time>
      </trkpt>
      <trkpt lat="42.59235120378434658050537109375" lon="-8.74983527697622776031494140625">
        <ele>21.200000762939453125</ele>
        <time>2022-11-01T11:04:20.000Z</time>
      </trkpt>
      <trkpt lat="42.5924185104668140411376953125" lon="-8.749897219240665435791015625">
        <ele>21.200000762939453125</ele>
        <time>2022-11-01T11:04:21.000Z</time>
      </trkpt>
      <trkpt lat="42.5924748368561267852783203125" lon="-8.74994893558323383331298828125">
        <ele>21</ele>
        <time>2022-11-01T11:04:22.000Z</time>
      </trkpt>
      <trkpt lat="42.59253107942640781402587890625" lon="-8.75000073574483394622802734375">
        <ele>21</ele>
        <time>2022-11-01T11:04:23.000Z</time>
      </trkpt>
      <trkpt lat="42.59258723817765712738037109375" lon="-8.75005253590643405914306640625">
        <ele>21</ele>
        <time>2022-11-01T11:04:24.000Z</time>
      </trkpt>
      <trkpt lat="42.5926431454718112945556640625" lon="-8.75010500662028789520263671875">
        <ele>21.200000762939453125</ele>
        <time>2022-11-01T11:04:25.000Z</time>
      </trkpt>
      <trkpt lat="42.59269930422306060791015625" lon="-8.75015915371477603912353515625">
        <ele>21.200000762939453125</ele>
        <time>2022-11-01T11:04:26.000Z</time>
      </trkpt>
      <trkpt lat="42.592755295336246490478515625" lon="-8.750213049352169036865234375">
        <ele>21.200000762939453125</ele>
        <time>2022-11-01T11:04:27.000Z</time>
      </trkpt>
      <trkpt lat="42.5928111188113689422607421875" lon="-8.7502682022750377655029296875">
        <ele>21.200000762939453125</ele>
        <time>2022-11-01T11:04:28.000Z</time>
      </trkpt>
      <trkpt lat="42.59285612963140010833740234375" lon="-8.75031069852411746978759765625">
        <ele>21.200000762939453125</ele>
        <time>2022-11-01T11:04:29.000Z</time>
      </trkpt>
      <trkpt lat="42.59292452596127986907958984375" lon="-8.7503751553595066070556640625">
        <ele>21.3999996185302734375</ele>
        <time>2022-11-01T11:04:30.000Z</time>
      </trkpt>
      <trkpt lat="42.5929797627031803131103515625" lon="-8.7504267878830432891845703125">
        <ele>21.3999996185302734375</ele>
        <time>2022-11-01T11:04:31.000Z</time>
      </trkpt>
      <trkpt lat="42.59303399361670017242431640625" lon="-8.7504800967872142791748046875">
        <ele>21.6000003814697265625</ele>
        <time>2022-11-01T11:04:32.000Z</time>
      </trkpt>
      <trkpt lat="42.59308755397796630859375" lon="-8.75053365714848041534423828125">
        <ele>21.6000003814697265625</ele>
        <time>2022-11-01T11:04:33.000Z</time>
      </trkpt>
      <trkpt lat="42.59313918650150299072265625" lon="-8.7505843676626682281494140625">
        <ele>21.799999237060546875</ele>
        <time>2022-11-01T11:04:34.000Z</time>
      </trkpt>
      <trkpt lat="42.59319257922470569610595703125" lon="-8.750636167824268341064453125">
        <ele>21.799999237060546875</ele>
        <time>2022-11-01T11:04:35.000Z</time>
      </trkpt>
      <trkpt lat="42.5932463072240352630615234375" lon="-8.7506896443665027618408203125">
        <ele>22</ele>
        <time>2022-11-01T11:04:36.000Z</time>
      </trkpt>
      <trkpt lat="42.5932976044714450836181640625" lon="-8.750744797289371490478515625">
        <ele>22.200000762939453125</ele>
        <time>2022-11-01T11:04:37.000Z</time>
      </trkpt>
      <trkpt lat="42.59333859197795391082763671875" lon="-8.75078896991908550262451171875">
        <ele>22.200000762939453125</ele>
        <time>2022-11-01T11:04:38.000Z</time>
      </trkpt>
      <trkpt lat="42.593400366604328155517578125" lon="-8.750858120620250701904296875">
        <ele>22.3999996185302734375</ele>
        <time>2022-11-01T11:04:39.000Z</time>
      </trkpt>
      <trkpt lat="42.5934525020420551300048828125" lon="-8.75091654248535633087158203125">
        <ele>22.3999996185302734375</ele>
        <time>2022-11-01T11:04:40.000Z</time>
      </trkpt>
      <trkpt lat="42.593503631651401519775390625" lon="-8.7509752996265888214111328125">
        <ele>22.6000003814697265625</ele>
        <time>2022-11-01T11:04:41.000Z</time>
      </trkpt>
      <trkpt lat="42.59354285895824432373046875" lon="-8.751025088131427764892578125">
        <ele>22.799999237060546875</ele>
        <time>2022-11-01T11:04:42.000Z</time>
      </trkpt>
      <trkpt lat="42.593592144548892974853515625" lon="-8.751084767282009124755859375">
        <ele>22.799999237060546875</ele>
        <time>2022-11-01T11:04:43.000Z</time>
      </trkpt>
      <trkpt lat="42.59365308098495006561279296875" lon="-8.75115509144961833953857421875">
        <ele>22.799999237060546875</ele>
        <time>2022-11-01T11:04:44.000Z</time>
      </trkpt>
      <trkpt lat="42.5937056355178356170654296875" lon="-8.751208484172821044921875">
        <ele>22.6000003814697265625</ele>
        <time>2022-11-01T11:04:45.000Z</time>
      </trkpt>
      <trkpt lat="42.5937621295452117919921875" lon="-8.75125617720186710357666015625">
        <ele>22.799999237060546875</ele>
        <time>2022-11-01T11:04:46.000Z</time>
      </trkpt>
      <trkpt lat="42.59382046759128570556640625" lon="-8.75129171647131443023681640625">
        <ele>23</ele>
        <time>2022-11-01T11:04:47.000Z</time>
      </trkpt>
      <trkpt lat="42.59386866353452205657958984375" lon="-8.7513139285147190093994140625">
        <ele>22.6000003814697265625</ele>
        <time>2022-11-01T11:04:48.000Z</time>
      </trkpt>
      <trkpt lat="42.5939420051872730255126953125" lon="-8.7513451091945171356201171875">
        <ele>22.6000003814697265625</ele>
        <time>2022-11-01T11:04:49.000Z</time>
      </trkpt>
      <trkpt lat="42.59400310926139354705810546875" lon="-8.75137117691338062286376953125">
        <ele>22.6000003814697265625</ele>
        <time>2022-11-01T11:04:50.000Z</time>
      </trkpt>
      <trkpt lat="42.594050131738185882568359375" lon="-8.75139581970870494842529296875">
        <ele>22.6000003814697265625</ele>
        <time>2022-11-01T11:04:51.000Z</time>
      </trkpt>
      <trkpt lat="42.5941036082804203033447265625" lon="-8.75143152661621570587158203125">
        <ele>23</ele>
        <time>2022-11-01T11:04:52.000Z</time>
      </trkpt>
      <trkpt lat="42.59414635598659515380859375" lon="-8.7514819018542766571044921875">
        <ele>23</ele>
        <time>2022-11-01T11:04:53.000Z</time>
      </trkpt>
      <trkpt lat="42.5941699929535388946533203125" lon="-8.75154937617480754852294921875">
        <ele>23</ele>
        <time>2022-11-01T11:04:54.000Z</time>
      </trkpt>
      <trkpt lat="42.59417527355253696441650390625" lon="-8.75164593569934368133544921875">
        <ele>23.200000762939453125</ele>
        <time>2022-11-01T11:04:55.000Z</time>
      </trkpt>
      <trkpt lat="42.59417141787707805633544921875" lon="-8.7517169304192066192626953125">
        <ele>23.200000762939453125</ele>
        <time>2022-11-01T11:04:56.000Z</time>
      </trkpt>
      <trkpt lat="42.59416672401130199432373046875" lon="-8.7518051080405712127685546875">
        <ele>23.200000762939453125</ele>
        <time>2022-11-01T11:04:57.000Z</time>
      </trkpt>
      <trkpt lat="42.59416253305971622467041015625" lon="-8.75191365368664264678955078125">
        <ele>23.200000762939453125</ele>
        <time>2022-11-01T11:04:58.000Z</time>
      </trkpt>
      <trkpt lat="42.59416244924068450927734375" lon="-8.752004764974117279052734375">
        <ele>23.200000762939453125</ele>
        <time>2022-11-01T11:04:59.000Z</time>
      </trkpt>
      <trkpt lat="42.59416588582098484039306640625" lon="-8.75209570862352848052978515625">
        <ele>23.200000762939453125</ele>
        <time>2022-11-01T11:05:00.000Z</time>
      </trkpt>
      <trkpt lat="42.5941706635057926177978515625" lon="-8.75217164866626262664794921875">
        <ele>23.200000762939453125</ele>
        <time>2022-11-01T11:05:01.000Z</time>
      </trkpt>
      <trkpt lat="42.594179213047027587890625" lon="-8.75226653181016445159912109375">
        <ele>23</ele>
        <time>2022-11-01T11:05:02.000Z</time>
      </trkpt>
      <trkpt lat="42.59418650530278682708740234375" lon="-8.75235940329730510711669921875">
        <ele>23</ele>
        <time>2022-11-01T11:05:03.000Z</time>
      </trkpt>
      <trkpt lat="42.59419404901564121246337890625" lon="-8.7524521909654140472412109375">
        <ele>22.799999237060546875</ele>
        <time>2022-11-01T11:05:04.000Z</time>
      </trkpt>
      <trkpt lat="42.59420159272849559783935546875" lon="-8.7525455653667449951171875">
        <ele>22.799999237060546875</ele>
        <time>2022-11-01T11:05:05.000Z</time>
      </trkpt>
      <trkpt lat="42.59420896880328655242919921875" lon="-8.75263835303485393524169921875">
        <ele>22.799999237060546875</ele>
        <time>2022-11-01T11:05:06.000Z</time>
      </trkpt>
      <trkpt lat="42.59421902708709239959716796875" lon="-8.752733655273914337158203125">
        <ele>22.799999237060546875</ele>
        <time>2022-11-01T11:05:07.000Z</time>
      </trkpt>
      <trkpt lat="42.59423092938959598541259765625" lon="-8.75284664332866668701171875">
        <ele>22.6000003814697265625</ele>
        <time>2022-11-01T11:05:08.000Z</time>
      </trkpt>
      <trkpt lat="42.594243250787258148193359375" lon="-8.7529396824538707733154296875">
        <ele>22.6000003814697265625</ele>
        <time>2022-11-01T11:05:09.000Z</time>
      </trkpt>
      <trkpt lat="42.59425439871847629547119140625" lon="-8.7530147843062877655029296875">
        <ele>22.6000003814697265625</ele>
        <time>2022-11-01T11:05:10.000Z</time>
      </trkpt>
      <trkpt lat="42.5942695699632167816162109375" lon="-8.7531061470508575439453125">
        <ele>22.6000003814697265625</ele>
        <time>2022-11-01T11:05:11.000Z</time>
      </trkpt>
      <trkpt lat="42.594286836683750152587890625" lon="-8.7532161176204681396484375">
        <ele>22.6000003814697265625</ele>
        <time>2022-11-01T11:05:12.000Z</time>
      </trkpt>
      <trkpt lat="42.5943000800907611846923828125" lon="-8.75330932438373565673828125">
        <ele>22.6000003814697265625</ele>
        <time>2022-11-01T11:05:13.000Z</time>
      </trkpt>
      <trkpt lat="42.59431273676455020904541015625" lon="-8.75340546481311321258544921875">
        <ele>22.3999996185302734375</ele>
        <time>2022-11-01T11:05:14.000Z</time>
      </trkpt>
      <trkpt lat="42.59432430379092693328857421875" lon="-8.7535032816231250762939453125">
        <ele>22.3999996185302734375</ele>
        <time>2022-11-01T11:05:15.000Z</time>
      </trkpt>
      <trkpt lat="42.5943302549421787261962890625" lon="-8.7535808980464935302734375">
        <ele>22.3999996185302734375</ele>
        <time>2022-11-01T11:05:16.000Z</time>
      </trkpt>
      <trkpt lat="42.594339139759540557861328125" lon="-8.75369464047253131866455078125">
        <ele>22.200000762939453125</ele>
        <time>2022-11-01T11:05:17.000Z</time>
      </trkpt>
      <trkpt lat="42.59435162879526615142822265625" lon="-8.75378734432160854339599609375">
        <ele>22.200000762939453125</ele>
        <time>2022-11-01T11:05:18.000Z</time>
      </trkpt>
      <trkpt lat="42.594363950192928314208984375" lon="-8.75388021580874919891357421875">
        <ele>22</ele>
        <time>2022-11-01T11:05:19.000Z</time>
      </trkpt>
      <trkpt lat="42.59437032043933868408203125" lon="-8.753955066204071044921875">
        <ele>22</ele>
        <time>2022-11-01T11:05:20.000Z</time>
      </trkpt>
      <trkpt lat="42.5943751819431781768798828125" lon="-8.7540698982775211334228515625">
        <ele>22</ele>
        <time>2022-11-01T11:05:21.000Z</time>
      </trkpt>
      <trkpt lat="42.5943724997341632843017578125" lon="-8.7541647814214229583740234375">
        <ele>22</ele>
        <time>2022-11-01T11:05:22.000Z</time>
      </trkpt>
      <trkpt lat="42.59436705149710178375244140625" lon="-8.754257820546627044677734375">
        <ele>21.799999237060546875</ele>
        <time>2022-11-01T11:05:23.000Z</time>
      </trkpt>
      <trkpt lat="42.59435950778424739837646484375" lon="-8.754331581294536590576171875">
        <ele>21.799999237060546875</ele>
        <time>2022-11-01T11:05:24.000Z</time>
      </trkpt>
      <trkpt lat="42.5943507067859172821044921875" lon="-8.7544226087629795074462890625">
        <ele>21.6000003814697265625</ele>
        <time>2022-11-01T11:05:25.000Z</time>
      </trkpt>
      <trkpt lat="42.59433955885469913482666015625" lon="-8.75453551299870014190673828125">
        <ele>21.6000003814697265625</ele>
        <time>2022-11-01T11:05:26.000Z</time>
      </trkpt>
      <trkpt lat="42.59433017112314701080322265625" lon="-8.75463031232357025146484375">
        <ele>21.6000003814697265625</ele>
        <time>2022-11-01T11:05:27.000Z</time>
      </trkpt>
      <trkpt lat="42.594320364296436309814453125" lon="-8.75472494401037693023681640625">
        <ele>21.6000003814697265625</ele>
        <time>2022-11-01T11:05:28.000Z</time>
      </trkpt>
      <trkpt lat="42.5943121500313282012939453125" lon="-8.7548185698688030242919921875">
        <ele>21.3999996185302734375</ele>
        <time>2022-11-01T11:05:29.000Z</time>
      </trkpt>
      <trkpt lat="42.59430435486137866973876953125" lon="-8.75491102226078510284423828125">
        <ele>21.3999996185302734375</ele>
        <time>2022-11-01T11:05:30.000Z</time>
      </trkpt>
      <trkpt lat="42.59429764933884143829345703125" lon="-8.75500657595694065093994140625">
        <ele>21.3999996185302734375</ele>
        <time>2022-11-01T11:05:31.000Z</time>
      </trkpt>
      <trkpt lat="42.5942920334637165069580078125" lon="-8.75510246492922306060791015625">
        <ele>21</ele>
        <time>2022-11-01T11:05:32.000Z</time>
      </trkpt>
      <trkpt lat="42.59428583085536956787109375" lon="-8.7551794946193695068359375">
        <ele>20.799999237060546875</ele>
        <time>2022-11-01T11:05:33.000Z</time>
      </trkpt>
      <trkpt lat="42.59427778422832489013671875" lon="-8.7552762217819690704345703125">
        <ele>20.6000003814697265625</ele>
        <time>2022-11-01T11:05:34.000Z</time>
      </trkpt>
      <trkpt lat="42.59427065961062908172607421875" lon="-8.75539231114089488983154296875">
        <ele>20.6000003814697265625</ele>
        <time>2022-11-01T11:05:35.000Z</time>
      </trkpt>
      <trkpt lat="42.594265043735504150390625" lon="-8.75548987649381160736083984375">
        <ele>20.6000003814697265625</ele>
        <time>2022-11-01T11:05:36.000Z</time>
      </trkpt>
      <trkpt lat="42.59425691328942775726318359375" lon="-8.75558920204639434814453125">
        <ele>20.6000003814697265625</ele>
        <time>2022-11-01T11:05:37.000Z</time>
      </trkpt>
      <trkpt lat="42.59424920193850994110107421875" lon="-8.7556886114180088043212890625">
        <ele>20.3999996185302734375</ele>
        <time>2022-11-01T11:05:38.000Z</time>
      </trkpt>
      <trkpt lat="42.5942447595298290252685546875" lon="-8.7557687424123287200927734375">
        <ele>20.200000762939453125</ele>
        <time>2022-11-01T11:05:39.000Z</time>
      </trkpt>
      <trkpt lat="42.59423998184502124786376953125" lon="-8.755889274179935455322265625">
        <ele>20</ele>
        <time>2022-11-01T11:05:40.000Z</time>
      </trkpt>
      <trkpt lat="42.59423428215086460113525390625" lon="-8.75599027611315250396728515625">
        <ele>19.799999237060546875</ele>
        <time>2022-11-01T11:05:41.000Z</time>
      </trkpt>
      <trkpt lat="42.594227157533168792724609375" lon="-8.75609152950346469879150390625">
        <ele>19.6000003814697265625</ele>
        <time>2022-11-01T11:05:42.000Z</time>
      </trkpt>
      <trkpt lat="42.59422053582966327667236328125" lon="-8.7561719119548797607421875">
        <ele>19.3999996185302734375</ele>
        <time>2022-11-01T11:05:43.000Z</time>
      </trkpt>
      <trkpt lat="42.594211064279079437255859375" lon="-8.75629328191280364990234375">
        <ele>18.799999237060546875</ele>
        <time>2022-11-01T11:05:44.000Z</time>
      </trkpt>
      <trkpt lat="42.59420360438525676727294921875" lon="-8.75639478676021099090576171875">
        <ele>18.6000003814697265625</ele>
        <time>2022-11-01T11:05:45.000Z</time>
      </trkpt>
      <trkpt lat="42.59419555775821208953857421875" lon="-8.7564969621598720550537109375">
        <ele>18.200000762939453125</ele>
        <time>2022-11-01T11:05:46.000Z</time>
      </trkpt>
      <trkpt lat="42.59418834932148456573486328125" lon="-8.756596706807613372802734375">
        <ele>18</ele>
        <time>2022-11-01T11:05:47.000Z</time>
      </trkpt>
      <trkpt lat="42.59418114088475704193115234375" lon="-8.7566936016082763671875">
        <ele>18</ele>
        <time>2022-11-01T11:05:48.000Z</time>
      </trkpt>
      <trkpt lat="42.59417057968676090240478515625" lon="-8.75678873620927333831787109375">
        <ele>17.6000003814697265625</ele>
        <time>2022-11-01T11:05:49.000Z</time>
      </trkpt>
      <trkpt lat="42.59416303597390651702880859375" lon="-8.75686593353748321533203125">
        <ele>17.6000003814697265625</ele>
        <time>2022-11-01T11:05:50.000Z</time>
      </trkpt>
      <trkpt lat="42.59415482170879840850830078125" lon="-8.75696257688105106353759765625">
        <ele>17.3999996185302734375</ele>
        <time>2022-11-01T11:05:51.000Z</time>
      </trkpt>
      <trkpt lat="42.59416018612682819366455078125" lon="-8.7570570409297943115234375">
        <ele>17.200000762939453125</ele>
        <time>2022-11-01T11:05:52.000Z</time>
      </trkpt>
      <trkpt lat="42.59418281726539134979248046875" lon="-8.75714345835149288177490234375">
        <ele>17</ele>
        <time>2022-11-01T11:05:53.000Z</time>
      </trkpt>
      <trkpt lat="42.5942169316112995147705078125" lon="-8.75724353827536106109619140625">
        <ele>16.6000003814697265625</ele>
        <time>2022-11-01T11:05:54.000Z</time>
      </trkpt>
      <trkpt lat="42.59422690607607364654541015625" lon="-8.757332302629947662353515625">
        <ele>16.6000003814697265625</ele>
        <time>2022-11-01T11:05:55.000Z</time>
      </trkpt>
      <trkpt lat="42.594209723174571990966796875" lon="-8.75741804949939250946044921875">
        <ele>16.3999996185302734375</ele>
        <time>2022-11-01T11:05:56.000Z</time>
      </trkpt>
      <trkpt lat="42.59417778812348842620849609375" lon="-8.7574887089431285858154296875">
        <ele>16.200000762939453125</ele>
        <time>2022-11-01T11:05:57.000Z</time>
      </trkpt>
      <trkpt lat="42.5941297598183155059814453125" lon="-8.75751368701457977294921875">
        <ele>16</ele>
        <time>2022-11-01T11:05:58.000Z</time>
      </trkpt>
      <trkpt lat="42.59405457414686679840087890625" lon="-8.7575376592576503753662109375">
        <ele>16</ele>
        <time>2022-11-01T11:05:59.000Z</time>
      </trkpt>
      <trkpt lat="42.59399070404469966888427734375" lon="-8.757555596530437469482421875">
        <ele>15.80000019073486328125</ele>
        <time>2022-11-01T11:06:00.000Z</time>
      </trkpt>
      <trkpt lat="42.593930102884769439697265625" lon="-8.7575825862586498260498046875">
        <ele>15.80000019073486328125</ele>
        <time>2022-11-01T11:06:01.000Z</time>
      </trkpt>
      <trkpt lat="42.59388391859829425811767578125" lon="-8.75760932452976703643798828125">
        <ele>15.80000019073486328125</ele>
        <time>2022-11-01T11:06:02.000Z</time>
      </trkpt>
      <trkpt lat="42.5938162766396999359130859375" lon="-8.75765492208302021026611328125">
        <ele>15.6000003814697265625</ele>
        <time>2022-11-01T11:06:03.000Z</time>
      </trkpt>
      <trkpt lat="42.593771852552890777587890625" lon="-8.75769163481891155242919921875">
        <ele>15.6000003814697265625</ele>
        <time>2022-11-01T11:06:04.000Z</time>
      </trkpt>
      <trkpt lat="42.59372256696224212646484375" lon="-8.7577472068369388580322265625">
        <ele>15.3999996185302734375</ele>
        <time>2022-11-01T11:06:05.000Z</time>
      </trkpt>
      <trkpt lat="42.5936841778457164764404296875" lon="-8.75781409442424774169921875">
        <ele>15.3999996185302734375</ele>
        <time>2022-11-01T11:06:06.000Z</time>
      </trkpt>
      <trkpt lat="42.5936529971659183502197265625" lon="-8.75788827426731586456298828125">
        <ele>15.19999980926513671875</ele>
        <time>2022-11-01T11:06:07.000Z</time>
      </trkpt>
      <trkpt lat="42.593626677989959716796875" lon="-8.7579651363193988800048828125">
        <ele>15</ele>
        <time>2022-11-01T11:06:08.000Z</time>
      </trkpt>
      <trkpt lat="42.59359650313854217529296875" lon="-8.758041746914386749267578125">
        <ele>14.3999996185302734375</ele>
        <time>2022-11-01T11:06:09.000Z</time>
      </trkpt>
      <trkpt lat="42.593564651906490325927734375" lon="-8.7581200338900089263916015625">
        <ele>14.19999980926513671875</ele>
        <time>2022-11-01T11:06:10.000Z</time>
      </trkpt>
      <trkpt lat="42.5935326330363750457763671875" lon="-8.7581994943320751190185546875">
        <ele>14</ele>
        <time>2022-11-01T11:06:11.000Z</time>
      </trkpt>
      <trkpt lat="42.59350740350782871246337890625" lon="-8.75828482210636138916015625">
        <ele>13.80000019073486328125</ele>
        <time>2022-11-01T11:06:12.000Z</time>
      </trkpt>
      <trkpt lat="42.59349013678729534149169921875" lon="-8.75837308354675769805908203125">
        <ele>13.80000019073486328125</ele>
        <time>2022-11-01T11:06:13.000Z</time>
      </trkpt>
      <trkpt lat="42.593472786247730255126953125" lon="-8.75846427865326404571533203125">
        <ele>13.3999996185302734375</ele>
        <time>2022-11-01T11:06:14.000Z</time>
      </trkpt>
      <trkpt lat="42.59345493279397487640380859375" lon="-8.75855597667396068572998046875">
        <ele>13.3999996185302734375</ele>
        <time>2022-11-01T11:06:15.000Z</time>
      </trkpt>
      <trkpt lat="42.59343883953988552093505859375" lon="-8.75864834524691104888916015625">
        <ele>13.19999980926513671875</ele>
        <time>2022-11-01T11:06:16.000Z</time>
      </trkpt>
      <trkpt lat="42.59342190809547901153564453125" lon="-8.7587406300008296966552734375">
        <ele>13.19999980926513671875</ele>
        <time>2022-11-01T11:06:17.000Z</time>
      </trkpt>
      <trkpt lat="42.59340338408946990966796875" lon="-8.75883375294506549835205078125">
        <ele>12.80000019073486328125</ele>
        <time>2022-11-01T11:06:18.000Z</time>
      </trkpt>
      <trkpt lat="42.59338519535958766937255859375" lon="-8.7589251995086669921875">
        <ele>12.6000003814697265625</ele>
        <time>2022-11-01T11:06:19.000Z</time>
      </trkpt>
      <trkpt lat="42.59337161667644977569580078125" lon="-8.75901362858712673187255859375">
        <ele>12</ele>
        <time>2022-11-01T11:06:20.000Z</time>
      </trkpt>
      <trkpt lat="42.59335376322269439697265625" lon="-8.75910222530364990234375">
        <ele>11.80000019073486328125</ele>
        <time>2022-11-01T11:06:21.000Z</time>
      </trkpt>
      <trkpt lat="42.59333088062703609466552734375" lon="-8.759211860597133636474609375">
        <ele>11.6000003814697265625</ele>
        <time>2022-11-01T11:06:22.000Z</time>
      </trkpt>
      <trkpt lat="42.59331746958196163177490234375" lon="-8.759286291897296905517578125">
        <ele>11.3999996185302734375</ele>
        <time>2022-11-01T11:06:23.000Z</time>
      </trkpt>
      <trkpt lat="42.5932992808520793914794921875" lon="-8.75937824137508869171142578125">
        <ele>11</ele>
        <time>2022-11-01T11:06:24.000Z</time>
      </trkpt>
      <trkpt lat="42.59328226558864116668701171875" lon="-8.75946767628192901611328125">
        <ele>10.6000003814697265625</ele>
        <time>2022-11-01T11:06:25.000Z</time>
      </trkpt>
      <trkpt lat="42.59326927363872528076171875" lon="-8.75955794937908649444580078125">
        <ele>10.6000003814697265625</ele>
        <time>2022-11-01T11:06:26.000Z</time>
      </trkpt>
      <trkpt lat="42.59325024671852588653564453125" lon="-8.759669177234172821044921875">
        <ele>10.19999980926513671875</ele>
        <time>2022-11-01T11:06:27.000Z</time>
      </trkpt>
      <trkpt lat="42.59323440492153167724609375" lon="-8.75974402762949466705322265625">
        <ele>10</ele>
        <time>2022-11-01T11:06:28.000Z</time>
      </trkpt>
      <trkpt lat="42.5932141207158565521240234375" lon="-8.75983756966888904571533203125">
        <ele>9.80000019073486328125</ele>
        <time>2022-11-01T11:06:29.000Z</time>
      </trkpt>
      <trkpt lat="42.593200206756591796875" lon="-8.7599315308034420013427734375">
        <ele>9.3999996185302734375</ele>
        <time>2022-11-01T11:06:30.000Z</time>
      </trkpt>
      <trkpt lat="42.5931919924914836883544921875" lon="-8.76002398319542407989501953125">
        <ele>9.3999996185302734375</ele>
        <time>2022-11-01T11:06:31.000Z</time>
      </trkpt>
      <trkpt lat="42.59318411350250244140625" lon="-8.76011216081678867340087890625">
        <ele>9.19999980926513671875</ele>
        <time>2022-11-01T11:06:32.000Z</time>
      </trkpt>
      <trkpt lat="42.593171037733554840087890625" lon="-8.7601984106004238128662109375">
        <ele>9.19999980926513671875</ele>
        <time>2022-11-01T11:06:33.000Z</time>
      </trkpt>
      <trkpt lat="42.59315519593656063079833984375" lon="-8.7603030167520046234130859375">
        <ele>9</ele>
        <time>2022-11-01T11:06:34.000Z</time>
      </trkpt>
      <trkpt lat="42.59314589202404022216796875" lon="-8.7603740952908992767333984375">
        <ele>9</ele>
        <time>2022-11-01T11:06:35.000Z</time>
      </trkpt>
      <trkpt lat="42.59313206188380718231201171875" lon="-8.7604634463787078857421875">
        <ele>8.6000003814697265625</ele>
        <time>2022-11-01T11:06:36.000Z</time>
      </trkpt>
      <trkpt lat="42.59311504662036895751953125" lon="-8.76055086962878704071044921875">
        <ele>8.3999996185302734375</ele>
        <time>2022-11-01T11:06:37.000Z</time>
      </trkpt>
      <trkpt lat="42.59309769608080387115478515625" lon="-8.76063519157469272613525390625">
        <ele>8.19999980926513671875</ele>
        <time>2022-11-01T11:06:38.000Z</time>
      </trkpt>
      <trkpt lat="42.593076489865779876708984375" lon="-8.76071490347385406494140625">
        <ele>8</ele>
        <time>2022-11-01T11:06:39.000Z</time>
      </trkpt>
      <trkpt lat="42.59305201470851898193359375" lon="-8.7607879936695098876953125">
        <ele>7.80000019073486328125</ele>
        <time>2022-11-01T11:06:40.000Z</time>
      </trkpt>
      <trkpt lat="42.5930245220661163330078125" lon="-8.76085194759070873260498046875">
        <ele>7.599999904632568359375</ele>
        <time>2022-11-01T11:06:41.000Z</time>
      </trkpt>
      <trkpt lat="42.5929918326437473297119140625" lon="-8.7609108723700046539306640625">
        <ele>7.400000095367431640625</ele>
        <time>2022-11-01T11:06:42.000Z</time>
      </trkpt>
      <trkpt lat="42.59295436553657054901123046875" lon="-8.7609596550464630126953125">
        <ele>7.19999980926513671875</ele>
        <time>2022-11-01T11:06:43.000Z</time>
      </trkpt>
      <trkpt lat="42.59291253983974456787109375" lon="-8.7610077671706676483154296875">
        <ele>7</ele>
        <time>2022-11-01T11:06:44.000Z</time>
      </trkpt>
      <trkpt lat="42.592868618667125701904296875" lon="-8.76105898059904575347900390625">
        <ele>7</ele>
        <time>2022-11-01T11:06:45.000Z</time>
      </trkpt>
      <trkpt lat="42.5928211770951747894287109375" lon="-8.76112938858568668365478515625">
        <ele>6.80000019073486328125</ele>
        <time>2022-11-01T11:06:46.000Z</time>
      </trkpt>
      <trkpt lat="42.59279452264308929443359375" lon="-8.76118320040404796600341796875">
        <ele>6.80000019073486328125</ele>
        <time>2022-11-01T11:06:47.000Z</time>
      </trkpt>
      <trkpt lat="42.59276594035327434539794921875" lon="-8.7612518481910228729248046875">
        <ele>6.80000019073486328125</ele>
        <time>2022-11-01T11:06:48.000Z</time>
      </trkpt>
      <trkpt lat="42.59274096228182315826416015625" lon="-8.76132301054894924163818359375">
        <ele>6.80000019073486328125</ele>
        <time>2022-11-01T11:06:49.000Z</time>
      </trkpt>
      <trkpt lat="42.5927195884287357330322265625" lon="-8.76139325089752674102783203125">
        <ele>6.80000019073486328125</ele>
        <time>2022-11-01T11:06:50.000Z</time>
      </trkpt>
      <trkpt lat="42.59270039387047290802001953125" lon="-8.761464245617389678955078125">
        <ele>6.599999904632568359375</ele>
        <time>2022-11-01T11:06:51.000Z</time>
      </trkpt>
      <trkpt lat="42.5926811993122100830078125" lon="-8.7615371681749820709228515625">
        <ele>6.599999904632568359375</ele>
        <time>2022-11-01T11:06:52.000Z</time>
      </trkpt>
      <trkpt lat="42.5926625914871692657470703125" lon="-8.761611096560955047607421875">
        <ele>6.599999904632568359375</ele>
        <time>2022-11-01T11:06:53.000Z</time>
      </trkpt>
      <trkpt lat="42.59264239110052585601806640625" lon="-8.76168644987046718597412109375">
        <ele>6.599999904632568359375</ele>
        <time>2022-11-01T11:06:54.000Z</time>
      </trkpt>
      <trkpt lat="42.59262428618967533111572265625" lon="-8.76176322810351848602294921875">
        <ele>6.599999904632568359375</ele>
        <time>2022-11-01T11:06:55.000Z</time>
      </trkpt>
      <trkpt lat="42.59260618127882480621337890625" lon="-8.76184143126010894775390625">
        <ele>6.599999904632568359375</ele>
        <time>2022-11-01T11:06:56.000Z</time>
      </trkpt>
      <trkpt lat="42.59258933365345001220703125" lon="-8.761917538940906524658203125">
        <ele>6.599999904632568359375</ele>
        <time>2022-11-01T11:06:57.000Z</time>
      </trkpt>
      <trkpt lat="42.59257231839001178741455078125" lon="-8.761994652450084686279296875">
        <ele>6.599999904632568359375</ele>
        <time>2022-11-01T11:06:58.000Z</time>
      </trkpt>
      <trkpt lat="42.59255521930754184722900390625" lon="-8.76207151450216770172119140625">
        <ele>6.400000095367431640625</ele>
        <time>2022-11-01T11:06:59.000Z</time>
      </trkpt>
      <trkpt lat="42.59253728203475475311279296875" lon="-8.76215013675391674041748046875">
        <ele>6.400000095367431640625</ele>
        <time>2022-11-01T11:07:00.000Z</time>
      </trkpt>
      <trkpt lat="42.59252135641872882843017578125" lon="-8.762226663529872894287109375">
        <ele>6.400000095367431640625</ele>
        <time>2022-11-01T11:07:01.000Z</time>
      </trkpt>
      <trkpt lat="42.59250476025044918060302734375" lon="-8.76230184920132160186767578125">
        <ele>6.400000095367431640625</ele>
        <time>2022-11-01T11:07:02.000Z</time>
      </trkpt>
      <trkpt lat="42.59248883463442325592041015625" lon="-8.7623740173876285552978515625">
        <ele>6.400000095367431640625</ele>
        <time>2022-11-01T11:07:03.000Z</time>
      </trkpt>
      <trkpt lat="42.59247341193258762359619140625" lon="-8.762444593012332916259765625">
        <ele>6.400000095367431640625</ele>
        <time>2022-11-01T11:07:04.000Z</time>
      </trkpt>
      <trkpt lat="42.5924574024975299835205078125" lon="-8.76251399517059326171875">
        <ele>6.400000095367431640625</ele>
        <time>2022-11-01T11:07:05.000Z</time>
      </trkpt>
      <trkpt lat="42.59244072251021862030029296875" lon="-8.7625832296907901763916015625">
        <ele>6.400000095367431640625</ele>
        <time>2022-11-01T11:07:06.000Z</time>
      </trkpt>
      <trkpt lat="42.59242496453225612640380859375" lon="-8.76265422441065311431884765625">
        <ele>6.400000095367431640625</ele>
        <time>2022-11-01T11:07:07.000Z</time>
      </trkpt>
      <trkpt lat="42.5924102962017059326171875" lon="-8.76272480003535747528076171875">
        <ele>6.19999980926513671875</ele>
        <time>2022-11-01T11:07:08.000Z</time>
      </trkpt>
      <trkpt lat="42.59239663369953632354736328125" lon="-8.7627971358597278594970703125">
        <ele>6.19999980926513671875</ele>
        <time>2022-11-01T11:07:09.000Z</time>
      </trkpt>
      <trkpt lat="42.592381127178668975830078125" lon="-8.7628712318837642669677734375">
        <ele>6.19999980926513671875</ele>
        <time>2022-11-01T11:07:10.000Z</time>
      </trkpt>
      <trkpt lat="42.5923652015626430511474609375" lon="-8.76294608227908611297607421875">
        <ele>6.19999980926513671875</ele>
        <time>2022-11-01T11:07:11.000Z</time>
      </trkpt>
      <trkpt lat="42.59234793484210968017578125" lon="-8.763019926846027374267578125">
        <ele>6.19999980926513671875</ele>
        <time>2022-11-01T11:07:12.000Z</time>
      </trkpt>
      <trkpt lat="42.59233075194060802459716796875" lon="-8.763093687593936920166015625">
        <ele>6.19999980926513671875</ele>
        <time>2022-11-01T11:07:13.000Z</time>
      </trkpt>
      <trkpt lat="42.59231465868651866912841796875" lon="-8.76316535286605358123779296875">
        <ele>6</ele>
        <time>2022-11-01T11:07:14.000Z</time>
      </trkpt>
      <trkpt lat="42.592297978699207305908203125" lon="-8.76323592849075794219970703125">
        <ele>6</ele>
        <time>2022-11-01T11:07:15.000Z</time>
      </trkpt>
      <trkpt lat="42.592281885445117950439453125" lon="-8.7633084319531917572021484375">
        <ele>6.19999980926513671875</ele>
        <time>2022-11-01T11:07:16.000Z</time>
      </trkpt>
      <trkpt lat="42.59226621128618717193603515625" lon="-8.76338143832981586456298828125">
        <ele>6.19999980926513671875</ele>
        <time>2022-11-01T11:07:17.000Z</time>
      </trkpt>
      <trkpt lat="42.59224961511790752410888671875" lon="-8.76345335505902767181396484375">
        <ele>6.19999980926513671875</ele>
        <time>2022-11-01T11:07:18.000Z</time>
      </trkpt>
      <trkpt lat="42.5922300852835178375244140625" lon="-8.76352208666503429412841796875">
        <ele>6.19999980926513671875</ele>
        <time>2022-11-01T11:07:19.000Z</time>
      </trkpt>
      <trkpt lat="42.59221114218235015869140625" lon="-8.76358813606202602386474609375">
        <ele>6.19999980926513671875</ele>
        <time>2022-11-01T11:07:20.000Z</time>
      </trkpt>
      <trkpt lat="42.5921955518424510955810546875" lon="-8.7636557780206203460693359375">
        <ele>6</ele>
        <time>2022-11-01T11:07:21.000Z</time>
      </trkpt>
      <trkpt lat="42.59218239225447177886962890625" lon="-8.76372274942696094512939453125">
        <ele>6</ele>
        <time>2022-11-01T11:07:22.000Z</time>
      </trkpt>
      <trkpt lat="42.5921707414090633392333984375" lon="-8.76378729008138179779052734375">
        <ele>5.80000019073486328125</ele>
        <time>2022-11-01T11:07:23.000Z</time>
      </trkpt>
      <trkpt lat="42.59216009639203548431396484375" lon="-8.763851411640644073486328125">
        <ele>5.599999904632568359375</ele>
        <time>2022-11-01T11:07:24.000Z</time>
      </trkpt>
      <trkpt lat="42.59214987047016620635986328125" lon="-8.76391838304698467254638671875">
        <ele>5.599999904632568359375</ele>
        <time>2022-11-01T11:07:25.000Z</time>
      </trkpt>
      <trkpt lat="42.5921378843486309051513671875" lon="-8.76398577354848384857177734375">
        <ele>5.599999904632568359375</ele>
        <time>2022-11-01T11:07:26.000Z</time>
      </trkpt>
      <trkpt lat="42.59212455712258815765380859375" lon="-8.76405282877385616302490234375">
        <ele>5.599999904632568359375</ele>
        <time>2022-11-01T11:07:27.000Z</time>
      </trkpt>
      <trkpt lat="42.59211458265781402587890625" lon="-8.76411334611475467681884765625">
        <ele>5.400000095367431640625</ele>
        <time>2022-11-01T11:07:28.000Z</time>
      </trkpt>
      <trkpt lat="42.59210460819303989410400390625" lon="-8.76417453400790691375732421875">
        <ele>5.400000095367431640625</ele>
        <time>2022-11-01T11:07:29.000Z</time>
      </trkpt>
      <trkpt lat="42.5920937955379486083984375" lon="-8.76423169858753681182861328125">
        <ele>5.400000095367431640625</ele>
        <time>2022-11-01T11:07:30.000Z</time>
      </trkpt>
      <trkpt lat="42.59208030067384243011474609375" lon="-8.76430395059287548065185546875">
        <ele>5.400000095367431640625</ele>
        <time>2022-11-01T11:07:31.000Z</time>
      </trkpt>
      <trkpt lat="42.59206906892359256744384765625" lon="-8.7643521465361118316650390625">
        <ele>5.400000095367431640625</ele>
        <time>2022-11-01T11:07:32.000Z</time>
      </trkpt>
      <trkpt lat="42.59205498732626438140869140625" lon="-8.76441056840121746063232421875">
        <ele>5.400000095367431640625</ele>
        <time>2022-11-01T11:07:33.000Z</time>
      </trkpt>
      <trkpt lat="42.592041827738285064697265625" lon="-8.76446689479053020477294921875">
        <ele>5.400000095367431640625</ele>
        <time>2022-11-01T11:07:34.000Z</time>
      </trkpt>
      <trkpt lat="42.5920307636260986328125" lon="-8.76451886259019374847412109375">
        <ele>5.400000095367431640625</ele>
        <time>2022-11-01T11:07:35.000Z</time>
      </trkpt>
      <trkpt lat="42.59202145971357822418212890625" lon="-8.76456865109503269195556640625">
        <ele>5.400000095367431640625</ele>
        <time>2022-11-01T11:07:36.000Z</time>
      </trkpt>
      <trkpt lat="42.5920133292675018310546875" lon="-8.7646166794002056121826171875">
        <ele>5.400000095367431640625</ele>
        <time>2022-11-01T11:07:37.000Z</time>
      </trkpt>
      <trkpt lat="42.59200595319271087646484375" lon="-8.76465749926865100860595703125">
        <ele>5.599999904632568359375</ele>
        <time>2022-11-01T11:07:38.000Z</time>
      </trkpt>
      <trkpt lat="42.59200151078402996063232421875" lon="-8.764688931405544281005859375">
        <ele>5.599999904632568359375</ele>
        <time>2022-11-01T11:07:39.000Z</time>
      </trkpt>
      <trkpt lat="42.5919977389276027679443359375" lon="-8.7647175975143909454345703125">
        <ele>5.599999904632568359375</ele>
        <time>2022-11-01T11:07:40.000Z</time>
      </trkpt>
      <trkpt lat="42.59199497289955615997314453125" lon="-8.76474198885262012481689453125">
        <ele>5.599999904632568359375</ele>
        <time>2022-11-01T11:07:41.000Z</time>
      </trkpt>
      <trkpt lat="42.59199321269989013671875" lon="-8.76475288532674312591552734375">
        <ele>5.599999904632568359375</ele>
        <time>2022-11-01T11:07:42.000Z</time>
      </trkpt>
      <trkpt lat="42.59199321269989013671875" lon="-8.76475288532674312591552734375">
        <ele>5.599999904632568359375</ele>
        <time>2022-11-01T11:07:43.000Z</time>
      </trkpt>
      <trkpt lat="42.59199321269989013671875" lon="-8.76475288532674312591552734375">
        <ele>5.599999904632568359375</ele>
        <time>2022-11-01T11:07:44.000Z</time>
      </trkpt>
      <trkpt lat="42.5940942205488681793212890625" lon="-8.75852865166962146759033203125">
        <ele>18</ele>
        <time>2022-11-01T08:16:05.000Z</time>
      </trkpt>
      <trkpt lat="42.594093717634677886962890625" lon="-8.7584164179861545562744140625">
        <ele>15.6000003814697265625</ele>
        <time>2022-11-01T08:16:06.000Z</time>
      </trkpt>
      <trkpt lat="42.5940891914069652557373046875" lon="-8.7583579123020172119140625">
        <ele>15.80000019073486328125</ele>
        <time>2022-11-01T08:16:07.000Z</time>
      </trkpt>
      <trkpt lat="42.5940764509141445159912109375" lon="-8.7582769431173801422119140625">
        <ele>16</ele>
        <time>2022-11-01T08:16:08.000Z</time>
      </trkpt>
      <trkpt lat="42.594078294932842254638671875" lon="-8.7581931240856647491455078125">
        <ele>16</ele>
        <time>2022-11-01T08:16:09.000Z</time>
      </trkpt>
      <trkpt lat="42.59407871402800083160400390625" lon="-8.75810871832072734832763671875">
        <ele>16</ele>
        <time>2022-11-01T08:16:10.000Z</time>
      </trkpt>
      <trkpt lat="42.59407603181898593902587890625" lon="-8.7580268271267414093017578125">
        <ele>16</ele>
        <time>2022-11-01T08:16:11.000Z</time>
      </trkpt>
      <trkpt lat="42.59407485835254192352294921875" lon="-8.7579483725130558013916015625">
        <ele>16</ele>
        <time>2022-11-01T08:16:12.000Z</time>
      </trkpt>
      <trkpt lat="42.5940717570483684539794921875" lon="-8.757868073880672454833984375">
        <ele>16.3999996185302734375</ele>
        <time>2022-11-01T08:16:13.000Z</time>
      </trkpt>
      <trkpt lat="42.59406857192516326904296875" lon="-8.75779070891439914703369140625">
        <ele>16.200000762939453125</ele>
        <time>2022-11-01T08:16:14.000Z</time>
      </trkpt>
      <trkpt lat="42.594059519469738006591796875" lon="-8.75771594233810901641845703125">
        <ele>16</ele>
        <time>2022-11-01T08:16:15.000Z</time>
      </trkpt>
      <trkpt lat="42.59404770098626613616943359375" lon="-8.75764268450438976287841796875">
        <ele>16.3999996185302734375</ele>
        <time>2022-11-01T08:16:16.000Z</time>
      </trkpt>
      <trkpt lat="42.59402758441865444183349609375" lon="-8.7575698457658290863037109375">
        <ele>16.200000762939453125</ele>
        <time>2022-11-01T08:16:17.000Z</time>
      </trkpt>
      <trkpt lat="42.5940043665468692779541015625" lon="-8.75750086270272731781005859375">
        <ele>16.200000762939453125</ele>
        <time>2022-11-01T08:16:18.000Z</time>
      </trkpt>
      <trkpt lat="42.5939859263598918914794921875" lon="-8.75742240808904170989990234375">
        <ele>16.200000762939453125</ele>
        <time>2022-11-01T08:16:19.000Z</time>
      </trkpt>
      <trkpt lat="42.593978382647037506103515625" lon="-8.757336996495723724365234375">
        <ele>16.200000762939453125</ele>
        <time>2022-11-01T08:16:20.000Z</time>
      </trkpt>
      <trkpt lat="42.59398114867508411407470703125" lon="-8.7572543509304523468017578125">
        <ele>16.200000762939453125</ele>
        <time>2022-11-01T08:16:21.000Z</time>
      </trkpt>
      <trkpt lat="42.5939939729869365692138671875" lon="-8.75717313028872013092041015625">
        <ele>16.200000762939453125</ele>
        <time>2022-11-01T08:16:22.000Z</time>
      </trkpt>
      <trkpt lat="42.59401685558259487152099609375" lon="-8.75710121355950832366943359375">
        <ele>16.200000762939453125</ele>
        <time>2022-11-01T08:16:23.000Z</time>
      </trkpt>
      <trkpt lat="42.5940409116446971893310546875" lon="-8.757027201354503631591796875">
        <ele>16.3999996185302734375</ele>
        <time>2022-11-01T08:16:24.000Z</time>
      </trkpt>
      <trkpt lat="42.59406496770679950714111328125" lon="-8.75695402733981609344482421875">
        <ele>16.3999996185302734375</ele>
        <time>2022-11-01T08:16:25.000Z</time>
      </trkpt>
      <trkpt lat="42.59408106096088886260986328125" lon="-8.756878674030303955078125">
        <ele>16.3999996185302734375</ele>
        <time>2022-11-01T08:16:26.000Z</time>
      </trkpt>
      <trkpt lat="42.594093382358551025390625" lon="-8.75680717639625072479248046875">
        <ele>16.3999996185302734375</ele>
        <time>2022-11-01T08:16:27.000Z</time>
      </trkpt>
      <trkpt lat="42.59410067461431026458740234375" lon="-8.7567309848964214324951171875">
        <ele>16.3999996185302734375</ele>
        <time>2022-11-01T08:16:28.000Z</time>
      </trkpt>
      <trkpt lat="42.59410251863300800323486328125" lon="-8.7566528655588626861572265625">
        <ele>16.6000003814697265625</ele>
        <time>2022-11-01T08:16:29.000Z</time>
      </trkpt>
      <trkpt lat="42.59410369209945201873779296875" lon="-8.75657583586871623992919921875">
        <ele>16.6000003814697265625</ele>
        <time>2022-11-01T08:16:30.000Z</time>
      </trkpt>
      <trkpt lat="42.5941026024520397186279296875" lon="-8.756501488387584686279296875">
        <ele>16.6000003814697265625</ele>
        <time>2022-11-01T08:16:31.000Z</time>
      </trkpt>
      <trkpt lat="42.59410209953784942626953125" lon="-8.7564265541732311248779296875">
        <ele>16.6000003814697265625</ele>
        <time>2022-11-01T08:16:32.000Z</time>
      </trkpt>
      <trkpt lat="42.59410151280462741851806640625" lon="-8.7563484348356723785400390625">
        <ele>16.6000003814697265625</ele>
        <time>2022-11-01T08:16:33.000Z</time>
      </trkpt>
      <trkpt lat="42.594103105366230010986328125" lon="-8.75627182424068450927734375">
        <ele>16.799999237060546875</ele>
        <time>2022-11-01T08:16:34.000Z</time>
      </trkpt>
      <trkpt lat="42.59410754777491092681884765625" lon="-8.75619538128376007080078125">
        <ele>17</ele>
        <time>2022-11-01T08:16:35.000Z</time>
      </trkpt>
      <trkpt lat="42.594112493097782135009765625" lon="-8.75611734576523303985595703125">
        <ele>17.200000762939453125</ele>
        <time>2022-11-01T08:16:36.000Z</time>
      </trkpt>
      <trkpt lat="42.5941193662583827972412109375" lon="-8.75603847205638885498046875">
        <ele>17.799999237060546875</ele>
        <time>2022-11-01T08:16:37.000Z</time>
      </trkpt>
      <trkpt lat="42.5941257365047931671142578125" lon="-8.7559625320136547088623046875">
        <ele>18</ele>
        <time>2022-11-01T08:16:38.000Z</time>
      </trkpt>
      <trkpt lat="42.59413302876055240631103515625" lon="-8.7558849155902862548828125">
        <ele>18.200000762939453125</ele>
        <time>2022-11-01T08:16:39.000Z</time>
      </trkpt>
      <trkpt lat="42.5941388122737407684326171875" lon="-8.75580470077693462371826171875">
        <ele>18.3999996185302734375</ele>
        <time>2022-11-01T08:16:40.000Z</time>
      </trkpt>
      <trkpt lat="42.59414769709110260009765625" lon="-8.755730688571929931640625">
        <ele>18.3999996185302734375</ele>
        <time>2022-11-01T08:16:41.000Z</time>
      </trkpt>
      <trkpt lat="42.594154737889766693115234375" lon="-8.755656592547893524169921875">
        <ele>18.799999237060546875</ele>
        <time>2022-11-01T08:16:42.000Z</time>
      </trkpt>
      <trkpt lat="42.59416018612682819366455078125" lon="-8.7555816583335399627685546875">
        <ele>19</ele>
        <time>2022-11-01T08:16:43.000Z</time>
      </trkpt>
      <trkpt lat="42.59416253305971622467041015625" lon="-8.7555078975856304168701171875">
        <ele>19.200000762939453125</ele>
        <time>2022-11-01T08:16:44.000Z</time>
      </trkpt>
      <trkpt lat="42.59416722692549228668212890625" lon="-8.75543296337127685546875">
        <ele>19.3999996185302734375</ele>
        <time>2022-11-01T08:16:45.000Z</time>
      </trkpt>
      <trkpt lat="42.59417108260095119476318359375" lon="-8.75535761006176471710205078125">
        <ele>19.6000003814697265625</ele>
        <time>2022-11-01T08:16:46.000Z</time>
      </trkpt>
      <trkpt lat="42.59417720139026641845703125" lon="-8.755285441875457763671875">
        <ele>19.799999237060546875</ele>
        <time>2022-11-01T08:16:47.000Z</time>
      </trkpt>
      <trkpt lat="42.59418390691280364990234375" lon="-8.75521235167980194091796875">
        <ele>20</ele>
        <time>2022-11-01T08:16:48.000Z</time>
      </trkpt>
      <trkpt lat="42.59418985806405544281005859375" lon="-8.75513683073222637176513671875">
        <ele>20.200000762939453125</ele>
        <time>2022-11-01T08:16:49.000Z</time>
      </trkpt>
      <trkpt lat="42.59419689886271953582763671875" lon="-8.75506374053657054901123046875">
        <ele>20.200000762939453125</ele>
        <time>2022-11-01T08:16:50.000Z</time>
      </trkpt>
      <trkpt lat="42.5942046940326690673828125" lon="-8.75498880632221698760986328125">
        <ele>20.6000003814697265625</ele>
        <time>2022-11-01T08:16:51.000Z</time>
      </trkpt>
      <trkpt lat="42.5942098908126354217529296875" lon="-8.75491420738399028778076171875">
        <ele>20.6000003814697265625</ele>
        <time>2022-11-01T08:16:52.000Z</time>
      </trkpt>
      <trkpt lat="42.5942135788500308990478515625" lon="-8.7548433803021907806396484375">
        <ele>21</ele>
        <time>2022-11-01T08:16:53.000Z</time>
      </trkpt>
      <trkpt lat="42.59421600960195064544677734375" lon="-8.7547729723155498504638671875">
        <ele>21.200000762939453125</ele>
        <time>2022-11-01T08:16:54.000Z</time>
      </trkpt>
      <trkpt lat="42.59421936236321926116943359375" lon="-8.75470004975795745849609375">
        <ele>21.3999996185302734375</ele>
        <time>2022-11-01T08:16:55.000Z</time>
      </trkpt>
      <trkpt lat="42.59422682225704193115234375" lon="-8.75462821684777736663818359375">
        <ele>21.6000003814697265625</ele>
        <time>2022-11-01T08:16:56.000Z</time>
      </trkpt>
      <trkpt lat="42.5942341983318328857421875" lon="-8.75455713830888271331787109375">
        <ele>21.6000003814697265625</ele>
        <time>2022-11-01T08:16:57.000Z</time>
      </trkpt>
      <trkpt lat="42.59424383752048015594482421875" lon="-8.75448538921773433685302734375">
        <ele>21.799999237060546875</ele>
        <time>2022-11-01T08:16:58.000Z</time>
      </trkpt>
      <trkpt lat="42.59425498545169830322265625" lon="-8.75441196374595165252685546875">
        <ele>21.799999237060546875</ele>
        <time>2022-11-01T08:16:59.000Z</time>
      </trkpt>
      <trkpt lat="42.5942611880600452423095703125" lon="-8.7543364427983760833740234375">
        <ele>22</ele>
        <time>2022-11-01T08:17:00.000Z</time>
      </trkpt>
      <trkpt lat="42.59427065961062908172607421875" lon="-8.75426150858402252197265625">
        <ele>22</ele>
        <time>2022-11-01T08:17:01.000Z</time>
      </trkpt>
      <trkpt lat="42.59428004734218120574951171875" lon="-8.7541872449219226837158203125">
        <ele>22</ele>
        <time>2022-11-01T08:17:02.000Z</time>
      </trkpt>
      <trkpt lat="42.594283483922481536865234375" lon="-8.75411122106015682220458984375">
        <ele>22</ele>
        <time>2022-11-01T08:17:03.000Z</time>
      </trkpt>
      <trkpt lat="42.5942839868366718292236328125" lon="-8.7540360353887081146240234375">
        <ele>22.200000762939453125</ele>
        <time>2022-11-01T08:17:04.000Z</time>
      </trkpt>
      <trkpt lat="42.59427669458091259002685546875" lon="-8.75396504066884517669677734375">
        <ele>22.200000762939453125</ele>
        <time>2022-11-01T08:17:05.000Z</time>
      </trkpt>
      <trkpt lat="42.59426445700228214263916015625" lon="-8.75390033237636089324951171875">
        <ele>22.200000762939453125</ele>
        <time>2022-11-01T08:17:06.000Z</time>
      </trkpt>
      <trkpt lat="42.594257332384586334228515625" lon="-8.7538328580558300018310546875">
        <ele>22.200000762939453125</ele>
        <time>2022-11-01T08:17:07.000Z</time>
      </trkpt>
      <trkpt lat="42.594250626862049102783203125" lon="-8.75375993549823760986328125">
        <ele>22.200000762939453125</ele>
        <time>2022-11-01T08:17:08.000Z</time>
      </trkpt>
      <trkpt lat="42.594241239130496978759765625" lon="-8.75368407927453517913818359375">
        <ele>22.200000762939453125</ele>
        <time>2022-11-01T08:17:09.000Z</time>
      </trkpt>
      <trkpt lat="42.5942353717982769012451171875" lon="-8.75361199490725994110107421875">
        <ele>22.200000762939453125</ele>
        <time>2022-11-01T08:17:10.000Z</time>
      </trkpt>
      <trkpt lat="42.59423109702765941619873046875" lon="-8.75353462994098663330078125">
        <ele>22.200000762939453125</ele>
        <time>2022-11-01T08:17:11.000Z</time>
      </trkpt>
      <trkpt lat="42.5942207872867584228515625" lon="-8.75345692969858646392822265625">
        <ele>22.200000762939453125</ele>
        <time>2022-11-01T08:17:12.000Z</time>
      </trkpt>
      <trkpt lat="42.5942132435739040374755859375" lon="-8.75337746925652027130126953125">
        <ele>22.3999996185302734375</ele>
        <time>2022-11-01T08:17:13.000Z</time>
      </trkpt>
      <trkpt lat="42.594203688204288482666015625" lon="-8.753298930823802947998046875">
        <ele>22.3999996185302734375</ele>
        <time>2022-11-01T08:17:14.000Z</time>
      </trkpt>
      <trkpt lat="42.59419656358659267425537109375" lon="-8.75322005711495876312255859375">
        <ele>22.3999996185302734375</ele>
        <time>2022-11-01T08:17:15.000Z</time>
      </trkpt>
      <trkpt lat="42.5941850803792476654052734375" lon="-8.7531463801860809326171875">
        <ele>22.3999996185302734375</ele>
        <time>2022-11-01T08:17:16.000Z</time>
      </trkpt>
      <trkpt lat="42.594174183905124664306640625" lon="-8.75307102687656879425048828125">
        <ele>22.6000003814697265625</ele>
        <time>2022-11-01T08:17:17.000Z</time>
      </trkpt>
      <trkpt lat="42.59416320361196994781494140625" lon="-8.7529923208057880401611328125">
        <ele>22.6000003814697265625</ele>
        <time>2022-11-01T08:17:18.000Z</time>
      </trkpt>
      <trkpt lat="42.59415582753717899322509765625" lon="-8.752912692725658416748046875">
        <ele>22.6000003814697265625</ele>
        <time>2022-11-01T08:17:19.000Z</time>
      </trkpt>
      <trkpt lat="42.594148032367229461669921875" lon="-8.75283264555037021636962890625">
        <ele>22.6000003814697265625</ele>
        <time>2022-11-01T08:17:20.000Z</time>
      </trkpt>
      <trkpt lat="42.59414258413016796112060546875" lon="-8.752752430737018585205078125">
        <ele>22.6000003814697265625</ele>
        <time>2022-11-01T08:17:21.000Z</time>
      </trkpt>
      <trkpt lat="42.59413286112248897552490234375" lon="-8.75267288647592067718505859375">
        <ele>22.6000003814697265625</ele>
        <time>2022-11-01T08:17:22.000Z</time>
      </trkpt>
      <trkpt lat="42.5941203720867633819580078125" lon="-8.75259359367191791534423828125">
        <ele>22.799999237060546875</ele>
        <time>2022-11-01T08:17:23.000Z</time>
      </trkpt>
      <trkpt lat="42.59410746395587921142578125" lon="-8.75251446850597858428955078125">
        <ele>22.799999237060546875</ele>
        <time>2022-11-01T08:17:24.000Z</time>
      </trkpt>
      <trkpt lat="42.5940915383398532867431640625" lon="-8.75243626534938812255859375">
        <ele>22.799999237060546875</ele>
        <time>2022-11-01T08:17:25.000Z</time>
      </trkpt>
      <trkpt lat="42.59407385252416133880615234375" lon="-8.7523583136498928070068359375">
        <ele>22.799999237060546875</ele>
        <time>2022-11-01T08:17:26.000Z</time>
      </trkpt>
      <trkpt lat="42.59405407123267650604248046875" lon="-8.75228069722652435302734375">
        <ele>22.799999237060546875</ele>
        <time>2022-11-01T08:17:27.000Z</time>
      </trkpt>
      <trkpt lat="42.59403043426573276519775390625" lon="-8.7522049248218536376953125">
        <ele>23</ele>
        <time>2022-11-01T08:17:28.000Z</time>
      </trkpt>
      <trkpt lat="42.59400629438459873199462890625" lon="-8.75213191844522953033447265625">
        <ele>23</ele>
        <time>2022-11-01T08:17:29.000Z</time>
      </trkpt>
      <trkpt lat="42.59398215450346469879150390625" lon="-8.7520599178969860076904296875">
        <ele>23</ele>
        <time>2022-11-01T08:17:30.000Z</time>
      </trkpt>
      <trkpt lat="42.5939574278891086578369140625" lon="-8.7519823014736175537109375">
        <ele>23</ele>
        <time>2022-11-01T08:17:31.000Z</time>
      </trkpt>
      <trkpt lat="42.59392951615154743194580078125" lon="-8.7519045174121856689453125">
        <ele>23</ele>
        <time>2022-11-01T08:17:32.000Z</time>
      </trkpt>
      <trkpt lat="42.59390227496623992919921875" lon="-8.75182614661753177642822265625">
        <ele>23</ele>
        <time>2022-11-01T08:17:33.000Z</time>
      </trkpt>
      <trkpt lat="42.5938682444393634796142578125" lon="-8.7517484463751316070556640625">
        <ele>23</ele>
        <time>2022-11-01T08:17:34.000Z</time>
      </trkpt>
      <trkpt lat="42.593832872807979583740234375" lon="-8.75167183578014373779296875">
        <ele>23</ele>
        <time>2022-11-01T08:17:35.000Z</time>
      </trkpt>
      <trkpt lat="42.5937958247959613800048828125" lon="-8.75159539282321929931640625">
        <ele>23.200000762939453125</ele>
        <time>2022-11-01T08:17:36.000Z</time>
      </trkpt>
      <trkpt lat="42.59375684894621372222900390625" lon="-8.75152205117046833038330078125">
        <ele>23</ele>
        <time>2022-11-01T08:17:37.000Z</time>
      </trkpt>
      <trkpt lat="42.5937197171151638031005859375" lon="-8.7514487095177173614501953125">
        <ele>23</ele>
        <time>2022-11-01T08:17:38.000Z</time>
      </trkpt>
      <trkpt lat="42.59367655031383037567138671875" lon="-8.75137670896947383880615234375">
        <ele>23</ele>
        <time>2022-11-01T08:17:39.000Z</time>
      </trkpt>
      <trkpt lat="42.5936322100460529327392578125" lon="-8.75130948610603809356689453125">
        <ele>23</ele>
        <time>2022-11-01T08:17:40.000Z</time>
      </trkpt>
      <trkpt lat="42.59358979761600494384765625" lon="-8.75124226324260234832763671875">
        <ele>23</ele>
        <time>2022-11-01T08:17:41.000Z</time>
      </trkpt>
      <trkpt lat="42.59354076348245143890380859375" lon="-8.75117219053208827972412109375">
        <ele>23</ele>
        <time>2022-11-01T08:17:42.000Z</time>
      </trkpt>
      <trkpt lat="42.5934890471398830413818359375" lon="-8.7511023692786693572998046875">
        <ele>23</ele>
        <time>2022-11-01T08:17:43.000Z</time>
      </trkpt>
      <trkpt lat="42.59343682788312435150146484375" lon="-8.75103749334812164306640625">
        <ele>23</ele>
        <time>2022-11-01T08:17:44.000Z</time>
      </trkpt>
      <trkpt lat="42.5933854468166828155517578125" lon="-8.75097655691206455230712890625">
        <ele>23</ele>
        <time>2022-11-01T08:17:45.000Z</time>
      </trkpt>
      <trkpt lat="42.59333607740700244903564453125" lon="-8.75091218389570713043212890625">
        <ele>23</ele>
        <time>2022-11-01T08:17:46.000Z</time>
      </trkpt>
      <trkpt lat="42.593285702168941497802734375" lon="-8.75085267238318920135498046875">
        <ele>22.799999237060546875</ele>
        <time>2022-11-01T08:17:47.000Z</time>
      </trkpt>
      <trkpt lat="42.59323415346443653106689453125" lon="-8.75079919584095478057861328125">
        <ele>22.799999237060546875</ele>
        <time>2022-11-01T08:17:48.000Z</time>
      </trkpt>
      <trkpt lat="42.59317799471318721771240234375" lon="-8.7507483176887035369873046875">
        <ele>22.799999237060546875</ele>
        <time>2022-11-01T08:17:49.000Z</time>
      </trkpt>
      <trkpt lat="42.5931202434003353118896484375" lon="-8.75069324858486652374267578125">
        <ele>22.799999237060546875</ele>
        <time>2022-11-01T08:17:50.000Z</time>
      </trkpt>
      <trkpt lat="42.593060396611690521240234375" lon="-8.75064161606132984161376953125">
        <ele>22.6000003814697265625</ele>
        <time>2022-11-01T08:17:51.000Z</time>
      </trkpt>
      <trkpt lat="42.5930008850991725921630859375" lon="-8.7505914084613323211669921875">
        <ele>22.6000003814697265625</ele>
        <time>2022-11-01T08:17:52.000Z</time>
      </trkpt>
      <trkpt lat="42.59293961338698863983154296875" lon="-8.75054262578487396240234375">
        <ele>22.6000003814697265625</ele>
        <time>2022-11-01T08:17:53.000Z</time>
      </trkpt>
      <trkpt lat="42.592881023883819580078125" lon="-8.75048940069973468780517578125">
        <ele>22.6000003814697265625</ele>
        <time>2022-11-01T08:17:54.000Z</time>
      </trkpt>
      <trkpt lat="42.59282059036195278167724609375" lon="-8.75043240375816822052001953125">
        <ele>22.6000003814697265625</ele>
        <time>2022-11-01T08:17:55.000Z</time>
      </trkpt>
      <trkpt lat="42.59276091121137142181396484375" lon="-8.75037725083529949188232421875">
        <ele>22.6000003814697265625</ele>
        <time>2022-11-01T08:17:56.000Z</time>
      </trkpt>
      <trkpt lat="42.59270156733691692352294921875" lon="-8.750323019921779632568359375">
        <ele>22.6000003814697265625</ele>
        <time>2022-11-01T08:17:57.000Z</time>
      </trkpt>
      <trkpt lat="42.59264021180570125579833984375" lon="-8.75026929192245006561279296875">
        <ele>22.3999996185302734375</ele>
        <time>2022-11-01T08:17:58.000Z</time>
      </trkpt>
      <trkpt lat="42.5925811193883419036865234375" lon="-8.75021430663764476776123046875">
        <ele>22.3999996185302734375</ele>
        <time>2022-11-01T08:17:59.000Z</time>
      </trkpt>
      <trkpt lat="42.5925200991332530975341796875" lon="-8.75015831552445888519287109375">
        <ele>22.3999996185302734375</ele>
        <time>2022-11-01T08:18:00.000Z</time>
      </trkpt>
      <trkpt lat="42.59246184490621089935302734375" lon="-8.75009880401194095611572265625">
        <ele>22.200000762939453125</ele>
        <time>2022-11-01T08:18:01.000Z</time>
      </trkpt>
      <trkpt lat="42.59240292012691497802734375" lon="-8.750042729079723358154296875">
        <ele>22.200000762939453125</ele>
        <time>2022-11-01T08:18:02.000Z</time>
      </trkpt>
      <trkpt lat="42.59233779273927211761474609375" lon="-8.74998631887137889862060546875">
        <ele>22.200000762939453125</ele>
        <time>2022-11-01T08:18:03.000Z</time>
      </trkpt>
      <trkpt lat="42.59227777831256389617919921875" lon="-8.7499295733869075775146484375">
        <ele>22</ele>
        <time>2022-11-01T08:18:04.000Z</time>
      </trkpt>
      <trkpt lat="42.59221893735229969024658203125" lon="-8.74987014569342136383056640625">
        <ele>22</ele>
        <time>2022-11-01T08:18:05.000Z</time>
      </trkpt>
      <trkpt lat="42.59216026403009891510009765625" lon="-8.74981331638991832733154296875">
        <ele>22</ele>
        <time>2022-11-01T08:18:06.000Z</time>
      </trkpt>
      <trkpt lat="42.59210108779370784759521484375" lon="-8.74975564889609813690185546875">
        <ele>22.200000762939453125</ele>
        <time>2022-11-01T08:18:07.000Z</time>
      </trkpt>
      <trkpt lat="42.5920413248240947723388671875" lon="-8.74969647265970706939697265625">
        <ele>22</ele>
        <time>2022-11-01T08:18:08.000Z</time>
      </trkpt>
      <trkpt lat="42.591981478035449981689453125" lon="-8.7496398948132991790771484375">
        <ele>22</ele>
        <time>2022-11-01T08:18:09.000Z</time>
      </trkpt>
      <trkpt lat="42.5919216312468051910400390625" lon="-8.7495842389762401580810546875">
        <ele>21.799999237060546875</ele>
        <time>2022-11-01T08:18:10.000Z</time>
      </trkpt>
      <trkpt lat="42.5918740220367908477783203125" lon="-8.74953688122332096099853515625">
        <ele>21.799999237060546875</ele>
        <time>2022-11-01T08:18:11.000Z</time>
      </trkpt>
      <trkpt lat="42.59181090630590915679931640625" lon="-8.74948005191981792449951171875">
        <ele>21.6000003814697265625</ele>
        <time>2022-11-01T08:18:12.000Z</time>
      </trkpt>
      <trkpt lat="42.5917492993175983428955078125" lon="-8.74942305497825145721435546875">
        <ele>21.6000003814697265625</ele>
        <time>2022-11-01T08:18:13.000Z</time>
      </trkpt>
      <trkpt lat="42.59168836288154125213623046875" lon="-8.74936689622700214385986328125">
        <ele>21.6000003814697265625</ele>
        <time>2022-11-01T08:18:14.000Z</time>
      </trkpt>
      <trkpt lat="42.59162818081676959991455078125" lon="-8.7493103183805942535400390625">
        <ele>21.6000003814697265625</ele>
        <time>2022-11-01T08:18:15.000Z</time>
      </trkpt>
      <trkpt lat="42.59157084859907627105712890625" lon="-8.749254159629344940185546875">
        <ele>21.6000003814697265625</ele>
        <time>2022-11-01T08:18:16.000Z</time>
      </trkpt>
      <trkpt lat="42.59149842895567417144775390625" lon="-8.7491866014897823333740234375">
        <ele>21.6000003814697265625</ele>
        <time>2022-11-01T08:18:17.000Z</time>
      </trkpt>
      <trkpt lat="42.59145266376435756683349609375" lon="-8.74914226122200489044189453125">
        <ele>21.6000003814697265625</ele>
        <time>2022-11-01T08:18:18.000Z</time>
      </trkpt>
      <trkpt lat="42.59138460271060466766357421875" lon="-8.749073110520839691162109375">
        <ele>21.6000003814697265625</ele>
        <time>2022-11-01T08:18:19.000Z</time>
      </trkpt>
      <trkpt lat="42.59132601320743560791015625" lon="-8.74902089126408100128173828125">
        <ele>21.6000003814697265625</ele>
        <time>2022-11-01T08:18:20.000Z</time>
      </trkpt>
      <trkpt lat="42.59127949364483356475830078125" lon="-8.74897797591984272003173828125">
        <ele>21.6000003814697265625</ele>
        <time>2022-11-01T08:18:21.000Z</time>
      </trkpt>
      <trkpt lat="42.59122283197939395904541015625" lon="-8.74892416410148143768310546875">
        <ele>21.6000003814697265625</ele>
        <time>2022-11-01T08:18:22.000Z</time>
      </trkpt>
      <trkpt lat="42.59116633795201778411865234375" lon="-8.7488707713782787322998046875">
        <ele>21.6000003814697265625</ele>
        <time>2022-11-01T08:18:23.000Z</time>
      </trkpt>
      <trkpt lat="42.59110984392464160919189453125" lon="-8.748817630112171173095703125">
        <ele>21.6000003814697265625</ele>
        <time>2022-11-01T08:18:24.000Z</time>
      </trkpt>
      <trkpt lat="42.59105167351663112640380859375" lon="-8.7487661652266979217529296875">
        <ele>21.799999237060546875</ele>
        <time>2022-11-01T08:18:25.000Z</time>
      </trkpt>
      <trkpt lat="42.59098294191062450408935546875" lon="-8.74870204366743564605712890625">
        <ele>22</ele>
        <time>2022-11-01T08:18:26.000Z</time>
      </trkpt>
      <trkpt lat="42.5909443013370037078857421875" lon="-8.748658709228038787841796875">
        <ele>22</ele>
        <time>2022-11-01T08:18:27.000Z</time>
      </trkpt>
      <trkpt lat="42.5908946804702281951904296875" lon="-8.7486048974096775054931640625">
        <ele>22</ele>
        <time>2022-11-01T08:18:28.000Z</time>
      </trkpt>
      <trkpt lat="42.59084162302315235137939453125" lon="-8.74855100177228450775146484375">
        <ele>22.200000762939453125</ele>
        <time>2022-11-01T08:18:29.000Z</time>
      </trkpt>
      <trkpt lat="42.5907863862812519073486328125" lon="-8.748499117791652679443359375">
        <ele>22.200000762939453125</ele>
        <time>2022-11-01T08:18:30.000Z</time>
      </trkpt>
      <trkpt lat="42.5907312333583831787109375" lon="-8.74844924546778202056884765625">
        <ele>22.200000762939453125</ele>
        <time>2022-11-01T08:18:31.000Z</time>
      </trkpt>
      <trkpt lat="42.59067918173968791961669921875" lon="-8.74839476309716701507568359375">
        <ele>22.200000762939453125</ele>
        <time>2022-11-01T08:18:32.000Z</time>
      </trkpt>
      <trkpt lat="42.59062595665454864501953125" lon="-8.74834279529750347137451171875">
        <ele>22.200000762939453125</ele>
        <time>2022-11-01T08:18:33.000Z</time>
      </trkpt>
      <trkpt lat="42.59056988172233104705810546875" lon="-8.7482894025743007659912109375">
        <ele>22.200000762939453125</ele>
        <time>2022-11-01T08:18:34.000Z</time>
      </trkpt>
      <trkpt lat="42.59051422588527202606201171875" lon="-8.74823785386979579925537109375">
        <ele>22.3999996185302734375</ele>
        <time>2022-11-01T08:18:35.000Z</time>
      </trkpt>
      <trkpt lat="42.59045974351465702056884765625" lon="-8.7481888197362422943115234375">
        <ele>22.3999996185302734375</ele>
        <time>2022-11-01T08:18:36.000Z</time>
      </trkpt>
      <trkpt lat="42.59040534496307373046875" lon="-8.748137019574642181396484375">
        <ele>22.3999996185302734375</ele>
        <time>2022-11-01T08:18:37.000Z</time>
      </trkpt>
      <trkpt lat="42.5903508625924587249755859375" lon="-8.74808513559401035308837890625">
        <ele>22.799999237060546875</ele>
        <time>2022-11-01T08:18:38.000Z</time>
      </trkpt>
      <trkpt lat="42.59029679931700229644775390625" lon="-8.7480315752327442169189453125">
        <ele>23</ele>
        <time>2022-11-01T08:18:39.000Z</time>
      </trkpt>
      <trkpt lat="42.59024240076541900634765625" lon="-8.74797935597598552703857421875">
        <ele>23.200000762939453125</ele>
        <time>2022-11-01T08:18:40.000Z</time>
      </trkpt>
      <trkpt lat="42.59018699638545513153076171875" lon="-8.7479273043572902679443359375">
        <ele>23.6000003814697265625</ele>
        <time>2022-11-01T08:18:41.000Z</time>
      </trkpt>
      <trkpt lat="42.59013234637677669525146484375" lon="-8.74787592329084873199462890625">
        <ele>23.799999237060546875</ele>
        <time>2022-11-01T08:18:42.000Z</time>
      </trkpt>
      <trkpt lat="42.59007786400616168975830078125" lon="-8.747825212776660919189453125">
        <ele>24</ele>
        <time>2022-11-01T08:18:43.000Z</time>
      </trkpt>
      <trkpt lat="42.590021453797817230224609375" lon="-8.74777483753859996795654296875">
        <ele>24.200000762939453125</ele>
        <time>2022-11-01T08:18:44.000Z</time>
      </trkpt>
      <trkpt lat="42.58996705524623394012451171875" lon="-8.74772253446280956268310546875">
        <ele>24.200000762939453125</ele>
        <time>2022-11-01T08:18:45.000Z</time>
      </trkpt>
      <trkpt lat="42.5899123214185237884521484375" lon="-8.7476704828441143035888671875">
        <ele>24.3999996185302734375</ele>
        <time>2022-11-01T08:18:46.000Z</time>
      </trkpt>
      <trkpt lat="42.58986127562820911407470703125" lon="-8.7476191855967044830322265625">
        <ele>24.3999996185302734375</ele>
        <time>2022-11-01T08:18:47.000Z</time>
      </trkpt>
      <trkpt lat="42.58980788290500640869140625" lon="-8.74757065437734127044677734375">
        <ele>24.3999996185302734375</ele>
        <time>2022-11-01T08:18:48.000Z</time>
      </trkpt>
      <trkpt lat="42.5897554121911525726318359375" lon="-8.74752053059637546539306640625">
        <ele>24.3999996185302734375</ele>
        <time>2022-11-01T08:18:49.000Z</time>
      </trkpt>
      <trkpt lat="42.58970486931502819061279296875" lon="-8.74747007153928279876708984375">
        <ele>24.3999996185302734375</ele>
        <time>2022-11-01T08:18:50.000Z</time>
      </trkpt>
      <trkpt lat="42.58965306915342807769775390625" lon="-8.74742053449153900146484375">
        <ele>24.3999996185302734375</ele>
        <time>2022-11-01T08:18:51.000Z</time>
      </trkpt>
      <trkpt lat="42.5895998440682888031005859375" lon="-8.7473690696060657501220703125">
        <ele>24.3999996185302734375</ele>
        <time>2022-11-01T08:18:52.000Z</time>
      </trkpt>
      <trkpt lat="42.589547373354434967041015625" lon="-8.74731785617768764495849609375">
        <ele>24.6000003814697265625</ele>
        <time>2022-11-01T08:18:53.000Z</time>
      </trkpt>
      <trkpt lat="42.5894962437450885772705078125" lon="-8.747266642749309539794921875">
        <ele>24.6000003814697265625</ele>
        <time>2022-11-01T08:18:54.000Z</time>
      </trkpt>
      <trkpt lat="42.58944486267864704132080078125" lon="-8.747217357158660888671875">
        <ele>24.6000003814697265625</ele>
        <time>2022-11-01T08:18:55.000Z</time>
      </trkpt>
      <trkpt lat="42.5893923081457614898681640625" lon="-8.7471704185009002685546875">
        <ele>24.799999237060546875</ele>
        <time>2022-11-01T08:18:56.000Z</time>
      </trkpt>
      <trkpt lat="42.58934109471738338470458984375" lon="-8.7471223063766956329345703125">
        <ele>25</ele>
        <time>2022-11-01T08:18:57.000Z</time>
      </trkpt>
      <trkpt lat="42.5892897136509418487548828125" lon="-8.74707243405282497406005859375">
        <ele>25.200000762939453125</ele>
        <time>2022-11-01T08:18:58.000Z</time>
      </trkpt>
      <trkpt lat="42.58923699147999286651611328125" lon="-8.74702482484281063079833984375">
        <ele>25.200000762939453125</ele>
        <time>2022-11-01T08:18:59.000Z</time>
      </trkpt>
      <trkpt lat="42.5891851074993610382080078125" lon="-8.746974952518939971923828125">
        <ele>25.200000762939453125</ele>
        <time>2022-11-01T08:19:00.000Z</time>
      </trkpt>
      <trkpt lat="42.589132972061634063720703125" lon="-8.74692591838538646697998046875">
        <ele>25.3999996185302734375</ele>
        <time>2022-11-01T08:19:01.000Z</time>
      </trkpt>
      <trkpt lat="42.589080333709716796875" lon="-8.74687763862311840057373046875">
        <ele>25.3999996185302734375</ele>
        <time>2022-11-01T08:19:02.000Z</time>
      </trkpt>
      <trkpt lat="42.58902710862457752227783203125" lon="-8.74682818539440631866455078125">
        <ele>25.3999996185302734375</ele>
        <time>2022-11-01T08:19:03.000Z</time>
      </trkpt>
      <trkpt lat="42.58897497318685054779052734375" lon="-8.7467783130705356597900390625">
        <ele>25.6000003814697265625</ele>
        <time>2022-11-01T08:19:04.000Z</time>
      </trkpt>
      <trkpt lat="42.58892367593944072723388671875" lon="-8.74672877602279186248779296875">
        <ele>25.799999237060546875</ele>
        <time>2022-11-01T08:19:05.000Z</time>
      </trkpt>
      <trkpt lat="42.58887179195880889892578125" lon="-8.74667881987988948822021484375">
        <ele>26</ele>
        <time>2022-11-01T08:19:06.000Z</time>
      </trkpt>
      <trkpt lat="42.58881906978785991668701171875" lon="-8.7466287799179553985595703125">
        <ele>26.200000762939453125</ele>
        <time>2022-11-01T08:19:07.000Z</time>
      </trkpt>
      <trkpt lat="42.5887653417885303497314453125" lon="-8.74658058397471904754638671875">
        <ele>26.200000762939453125</ele>
        <time>2022-11-01T08:19:08.000Z</time>
      </trkpt>
      <trkpt lat="42.58871261961758136749267578125" lon="-8.74653079546988010406494140625">
        <ele>26.6000003814697265625</ele>
        <time>2022-11-01T08:19:09.000Z</time>
      </trkpt>
      <trkpt lat="42.5886607356369495391845703125" lon="-8.7464812584221363067626953125">
        <ele>26.6000003814697265625</ele>
        <time>2022-11-01T08:19:10.000Z</time>
      </trkpt>
      <trkpt lat="42.588608600199222564697265625" lon="-8.74643105082213878631591796875">
        <ele>26.799999237060546875</ele>
        <time>2022-11-01T08:19:11.000Z</time>
      </trkpt>
      <trkpt lat="42.58855436928570270538330078125" lon="-8.74638142995536327362060546875">
        <ele>26.799999237060546875</ele>
        <time>2022-11-01T08:19:12.000Z</time>
      </trkpt>
      <trkpt lat="42.58850005455315113067626953125" lon="-8.7463320605456829071044921875">
        <ele>27</ele>
        <time>2022-11-01T08:19:13.000Z</time>
      </trkpt>
      <trkpt lat="42.58844666182994842529296875" lon="-8.746282942593097686767578125">
        <ele>27</ele>
        <time>2022-11-01T08:19:14.000Z</time>
      </trkpt>
      <trkpt lat="42.58839461021125316619873046875" lon="-8.7462321482598781585693359375">
        <ele>27</ele>
        <time>2022-11-01T08:19:15.000Z</time>
      </trkpt>
      <trkpt lat="42.58834163658320903778076171875" lon="-8.7461831979453563690185546875">
        <ele>27</ele>
        <time>2022-11-01T08:19:16.000Z</time>
      </trkpt>
      <trkpt lat="42.58828933350741863250732421875" lon="-8.74613315798342227935791015625">
        <ele>27</ele>
        <time>2022-11-01T08:19:17.000Z</time>
      </trkpt>
      <trkpt lat="42.5882372818887233734130859375" lon="-8.74608320184051990509033203125">
        <ele>27.200000762939453125</ele>
        <time>2022-11-01T08:19:18.000Z</time>
      </trkpt>
      <trkpt lat="42.58818422444164752960205078125" lon="-8.7460319884121417999267578125">
        <ele>27.3999996185302734375</ele>
        <time>2022-11-01T08:19:19.000Z</time>
      </trkpt>
      <trkpt lat="42.588129825890064239501953125" lon="-8.7459813617169857025146484375">
        <ele>27.6000003814697265625</ele>
        <time>2022-11-01T08:19:20.000Z</time>
      </trkpt>
      <trkpt lat="42.58807643316686153411865234375" lon="-8.74593366868793964385986328125">
        <ele>27.799999237060546875</ele>
        <time>2022-11-01T08:19:21.000Z</time>
      </trkpt>
      <trkpt lat="42.58802262134850025177001953125" lon="-8.7458841316401958465576171875">
        <ele>27.799999237060546875</ele>
        <time>2022-11-01T08:19:22.000Z</time>
      </trkpt>
      <trkpt lat="42.587970234453678131103515625" lon="-8.74583534896373748779296875">
        <ele>28</ele>
        <time>2022-11-01T08:19:23.000Z</time>
      </trkpt>
      <trkpt lat="42.58791617117822170257568359375" lon="-8.745786733925342559814453125">
        <ele>28</ele>
        <time>2022-11-01T08:19:24.000Z</time>
      </trkpt>
      <trkpt lat="42.587864287197589874267578125" lon="-8.7457359395921230316162109375">
        <ele>28.200000762939453125</ele>
        <time>2022-11-01T08:19:25.000Z</time>
      </trkpt>
      <trkpt lat="42.5878128223121166229248046875" lon="-8.74568439088761806488037109375">
        <ele>28.200000762939453125</ele>
        <time>2022-11-01T08:19:26.000Z</time>
      </trkpt>
      <trkpt lat="42.58776010014116764068603515625" lon="-8.74563359655439853668212890625">
        <ele>28.200000762939453125</ele>
        <time>2022-11-01T08:19:27.000Z</time>
      </trkpt>
      <trkpt lat="42.5877057015895843505859375" lon="-8.74558330513536930084228515625">
        <ele>28.200000762939453125</ele>
        <time>2022-11-01T08:19:28.000Z</time>
      </trkpt>
      <trkpt lat="42.5876525603234767913818359375" lon="-8.74553225934505462646484375">
        <ele>28.3999996185302734375</ele>
        <time>2022-11-01T08:19:29.000Z</time>
      </trkpt>
      <trkpt lat="42.5876010954380035400390625" lon="-8.7454818002879619598388671875">
        <ele>28.6000003814697265625</ele>
        <time>2022-11-01T08:19:30.000Z</time>
      </trkpt>
      <trkpt lat="42.5875486247241497039794921875" lon="-8.74543243087828159332275390625">
        <ele>28.6000003814697265625</ele>
        <time>2022-11-01T08:19:31.000Z</time>
      </trkpt>
      <trkpt lat="42.58749556727707386016845703125" lon="-8.74538398347795009613037109375">
        <ele>28.799999237060546875</ele>
        <time>2022-11-01T08:19:32.000Z</time>
      </trkpt>
      <trkpt lat="42.5874428451061248779296875" lon="-8.74533352442085742950439453125">
        <ele>28.799999237060546875</ele>
        <time>2022-11-01T08:19:33.000Z</time>
      </trkpt>
      <trkpt lat="42.587388865649700164794921875" lon="-8.7452823109924793243408203125">
        <ele>29</ele>
        <time>2022-11-01T08:19:34.000Z</time>
      </trkpt>
      <trkpt lat="42.5873353891074657440185546875" lon="-8.745231516659259796142578125">
        <ele>29</ele>
        <time>2022-11-01T08:19:35.000Z</time>
      </trkpt>
      <trkpt lat="42.58728283457458019256591796875" lon="-8.74518197961151599884033203125">
        <ele>29</ele>
        <time>2022-11-01T08:19:36.000Z</time>
      </trkpt>
      <trkpt lat="42.5872317887842655181884765625" lon="-8.74513403512537479400634765625">
        <ele>29</ele>
        <time>2022-11-01T08:19:37.000Z</time>
      </trkpt>
      <trkpt lat="42.5871801562607288360595703125" lon="-8.74508391134440898895263671875">
        <ele>29.200000762939453125</ele>
        <time>2022-11-01T08:19:38.000Z</time>
      </trkpt>
      <trkpt lat="42.587126679718494415283203125" lon="-8.7450353801250457763671875">
        <ele>29.200000762939453125</ele>
        <time>2022-11-01T08:19:39.000Z</time>
      </trkpt>
      <trkpt lat="42.58707378990948200225830078125" lon="-8.7449896149337291717529296875">
        <ele>29.200000762939453125</ele>
        <time>2022-11-01T08:19:40.000Z</time>
      </trkpt>
      <trkpt lat="42.58702215738594532012939453125" lon="-8.744941838085651397705078125">
        <ele>29.200000762939453125</ele>
        <time>2022-11-01T08:19:41.000Z</time>
      </trkpt>
      <trkpt lat="42.586968429386615753173828125" lon="-8.7448937259614467620849609375">
        <ele>29.200000762939453125</ele>
        <time>2022-11-01T08:19:42.000Z</time>
      </trkpt>
      <trkpt lat="42.5869166292250156402587890625" lon="-8.7448454461991786956787109375">
        <ele>29.6000003814697265625</ele>
        <time>2022-11-01T08:19:43.000Z</time>
      </trkpt>
      <trkpt lat="42.58686440996825695037841796875" lon="-8.74479775317013263702392578125">
        <ele>29.6000003814697265625</ele>
        <time>2022-11-01T08:19:44.000Z</time>
      </trkpt>
      <trkpt lat="42.58681160397827625274658203125" lon="-8.74474880285561084747314453125">
        <ele>29.799999237060546875</ele>
        <time>2022-11-01T08:19:45.000Z</time>
      </trkpt>
      <trkpt lat="42.586760558187961578369140625" lon="-8.74470287002623081207275390625">
        <ele>29.799999237060546875</ele>
        <time>2022-11-01T08:19:46.000Z</time>
      </trkpt>
      <trkpt lat="42.5867080874741077423095703125" lon="-8.744653500616550445556640625">
        <ele>29.799999237060546875</ele>
        <time>2022-11-01T08:19:47.000Z</time>
      </trkpt>
      <trkpt lat="42.5866561196744441986083984375" lon="-8.74460346065461635589599609375">
        <ele>29.799999237060546875</ele>
        <time>2022-11-01T08:19:48.000Z</time>
      </trkpt>
      <trkpt lat="42.58660138584673404693603515625" lon="-8.744552247226238250732421875">
        <ele>30</ele>
        <time>2022-11-01T08:19:49.000Z</time>
      </trkpt>
      <trkpt lat="42.5865469872951507568359375" lon="-8.74450153671205043792724609375">
        <ele>30</ele>
        <time>2022-11-01T08:19:50.000Z</time>
      </trkpt>
      <trkpt lat="42.58649175055325031280517578125" lon="-8.74444990418851375579833984375">
        <ele>30</ele>
        <time>2022-11-01T08:19:51.000Z</time>
      </trkpt>
      <trkpt lat="42.58643827401101589202880859375" lon="-8.74439944513142108917236328125">
        <ele>30.200000762939453125</ele>
        <time>2022-11-01T08:19:52.000Z</time>
      </trkpt>
      <trkpt lat="42.58638412691652774810791015625" lon="-8.7443505786359310150146484375">
        <ele>30.200000762939453125</ele>
        <time>2022-11-01T08:19:53.000Z</time>
      </trkpt>
      <trkpt lat="42.5863298960030078887939453125" lon="-8.7443036399781703948974609375">
        <ele>30.200000762939453125</ele>
        <time>2022-11-01T08:19:54.000Z</time>
      </trkpt>
      <trkpt lat="42.5862755812704563140869140625" lon="-8.74425410293042659759521484375">
        <ele>30.200000762939453125</ele>
        <time>2022-11-01T08:19:55.000Z</time>
      </trkpt>
      <trkpt lat="42.5862205959856510162353515625" lon="-8.74420364387333393096923828125">
        <ele>30.3999996185302734375</ele>
        <time>2022-11-01T08:19:56.000Z</time>
      </trkpt>
      <trkpt lat="42.58616636507213115692138671875" lon="-8.74415301717817783355712890625">
        <ele>30.3999996185302734375</ele>
        <time>2022-11-01T08:19:57.000Z</time>
      </trkpt>
      <trkpt lat="42.5861106254160404205322265625" lon="-8.744099624454975128173828125">
        <ele>30.6000003814697265625</ele>
        <time>2022-11-01T08:19:58.000Z</time>
      </trkpt>
      <trkpt lat="42.5860566459596157073974609375" lon="-8.7440478242933750152587890625">
        <ele>30.6000003814697265625</ele>
        <time>2022-11-01T08:19:59.000Z</time>
      </trkpt>
      <trkpt lat="42.5860030017793178558349609375" lon="-8.7439968623220920562744140625">
        <ele>30.799999237060546875</ele>
        <time>2022-11-01T08:20:00.000Z</time>
      </trkpt>
      <trkpt lat="42.5859483517706394195556640625" lon="-8.7439465709030628204345703125">
        <ele>31</ele>
        <time>2022-11-01T08:20:01.000Z</time>
      </trkpt>
      <trkpt lat="42.58589412085711956024169921875" lon="-8.74389703385531902313232421875">
        <ele>31</ele>
        <time>2022-11-01T08:20:02.000Z</time>
      </trkpt>
      <trkpt lat="42.5858388841152191162109375" lon="-8.7438453175127506256103515625">
        <ele>31.200000762939453125</ele>
        <time>2022-11-01T08:20:03.000Z</time>
      </trkpt>
      <trkpt lat="42.585783898830413818359375" lon="-8.7437953613698482513427734375">
        <ele>31.200000762939453125</ele>
        <time>2022-11-01T08:20:04.000Z</time>
      </trkpt>
      <trkpt lat="42.5857304222881793975830078125" lon="-8.74374314211308956146240234375">
        <ele>31.200000762939453125</ele>
        <time>2022-11-01T08:20:05.000Z</time>
      </trkpt>
      <trkpt lat="42.58567686192691326141357421875" lon="-8.74369100667536258697509765625">
        <ele>31.200000762939453125</ele>
        <time>2022-11-01T08:20:06.000Z</time>
      </trkpt>
      <trkpt lat="42.58562338538467884063720703125" lon="-8.7436418049037456512451171875">
        <ele>31.3999996185302734375</ele>
        <time>2022-11-01T08:20:07.000Z</time>
      </trkpt>
      <trkpt lat="42.5855698250234127044677734375" lon="-8.743594028055667877197265625">
        <ele>31.6000003814697265625</ele>
        <time>2022-11-01T08:20:08.000Z</time>
      </trkpt>
      <trkpt lat="42.58551693521440029144287109375" lon="-8.74354516156017780303955078125">
        <ele>31.799999237060546875</ele>
        <time>2022-11-01T08:20:09.000Z</time>
      </trkpt>
      <trkpt lat="42.58546362631022930145263671875" lon="-8.74349470250308513641357421875">
        <ele>31.799999237060546875</ele>
        <time>2022-11-01T08:20:10.000Z</time>
      </trkpt>
      <trkpt lat="42.5854105688631534576416015625" lon="-8.74344340525567531585693359375">
        <ele>31.799999237060546875</ele>
        <time>2022-11-01T08:20:11.000Z</time>
      </trkpt>
      <trkpt lat="42.58535717613995075225830078125" lon="-8.743392862379550933837890625">
        <ele>32</ele>
        <time>2022-11-01T08:20:12.000Z</time>
      </trkpt>
      <trkpt lat="42.58530319668352603912353515625" lon="-8.74334299005568027496337890625">
        <ele>32</ele>
        <time>2022-11-01T08:20:13.000Z</time>
      </trkpt>
      <trkpt lat="42.58524871431291103363037109375" lon="-8.74329219572246074676513671875">
        <ele>32</ele>
        <time>2022-11-01T08:20:14.000Z</time>
      </trkpt>
      <trkpt lat="42.5851959921419620513916015625" lon="-8.7432418204843997955322265625">
        <ele>32.200000762939453125</ele>
        <time>2022-11-01T08:20:15.000Z</time>
      </trkpt>
      <trkpt lat="42.58514343760907649993896484375" lon="-8.74319027177989482879638671875">
        <ele>32.40000152587890625</ele>
        <time>2022-11-01T08:20:16.000Z</time>
      </trkpt>
      <trkpt lat="42.58508929051458835601806640625" lon="-8.74313914217054843902587890625">
        <ele>32.40000152587890625</ele>
        <time>2022-11-01T08:20:17.000Z</time>
      </trkpt>
      <trkpt lat="42.5850360654294490814208984375" lon="-8.743090443313121795654296875">
        <ele>32.59999847412109375</ele>
        <time>2022-11-01T08:20:18.000Z</time>
      </trkpt>
      <trkpt lat="42.5849820859730243682861328125" lon="-8.74304057098925113677978515625">
        <ele>32.59999847412109375</ele>
        <time>2022-11-01T08:20:19.000Z</time>
      </trkpt>
      <trkpt lat="42.58492701686918735504150390625" lon="-8.74299044720828533172607421875">
        <ele>32.59999847412109375</ele>
        <time>2022-11-01T08:20:20.000Z</time>
      </trkpt>
      <trkpt lat="42.5848732888698577880859375" lon="-8.74294183216989040374755859375">
        <ele>32.59999847412109375</ele>
        <time>2022-11-01T08:20:21.000Z</time>
      </trkpt>
      <trkpt lat="42.58482165634632110595703125" lon="-8.74289506115019321441650390625">
        <ele>32.59999847412109375</ele>
        <time>2022-11-01T08:20:22.000Z</time>
      </trkpt>
      <trkpt lat="42.5847681798040866851806640625" lon="-8.7428458593785762786865234375">
        <ele>32.59999847412109375</ele>
        <time>2022-11-01T08:20:23.000Z</time>
      </trkpt>
      <trkpt lat="42.584714703261852264404296875" lon="-8.742794059216976165771484375">
        <ele>32.59999847412109375</ele>
        <time>2022-11-01T08:20:24.000Z</time>
      </trkpt>
      <trkpt lat="42.5846639089286327362060546875" lon="-8.74274603091180324554443359375">
        <ele>32.59999847412109375</ele>
        <time>2022-11-01T08:20:25.000Z</time>
      </trkpt>
      <trkpt lat="42.5846129469573497772216796875" lon="-8.74269758351147174835205078125">
        <ele>32.799999237060546875</ele>
        <time>2022-11-01T08:20:26.000Z</time>
      </trkpt>
      <trkpt lat="42.5845621526241302490234375" lon="-8.742649890482425689697265625">
        <ele>32.799999237060546875</ele>
        <time>2022-11-01T08:20:27.000Z</time>
      </trkpt>
      <trkpt lat="42.58451320230960845947265625" lon="-8.7426017783582210540771484375">
        <ele>33</ele>
        <time>2022-11-01T08:20:28.000Z</time>
      </trkpt>
      <trkpt lat="42.5844637490808963775634765625" lon="-8.742554001510143280029296875">
        <ele>33</ele>
        <time>2022-11-01T08:20:29.000Z</time>
      </trkpt>
      <trkpt lat="42.5844158045947551727294921875" lon="-8.74250899069011211395263671875">
        <ele>33.40000152587890625</ele>
        <time>2022-11-01T08:20:30.000Z</time>
      </trkpt>
      <trkpt lat="42.58436861447989940643310546875" lon="-8.74246607534587383270263671875">
        <ele>33.59999847412109375</ele>
        <time>2022-11-01T08:20:31.000Z</time>
      </trkpt>
      <trkpt lat="42.58432351984083652496337890625" lon="-8.74242483638226985931396484375">
        <ele>33.799999237060546875</ele>
        <time>2022-11-01T08:20:32.000Z</time>
      </trkpt>
      <trkpt lat="42.5842786766588687896728515625" lon="-8.74238334596157073974609375">
        <ele>34</ele>
        <time>2022-11-01T08:20:33.000Z</time>
      </trkpt>
      <trkpt lat="42.58423366583883762359619140625" lon="-8.7423424422740936279296875">
        <ele>34.200000762939453125</ele>
        <time>2022-11-01T08:20:34.000Z</time>
      </trkpt>
      <trkpt lat="42.58418991230428218841552734375" lon="-8.74230262823402881622314453125">
        <ele>34.40000152587890625</ele>
        <time>2022-11-01T08:20:35.000Z</time>
      </trkpt>
      <trkpt lat="42.58414632640779018402099609375" lon="-8.7422621436417102813720703125">
        <ele>34.40000152587890625</ele>
        <time>2022-11-01T08:20:36.000Z</time>
      </trkpt>
      <trkpt lat="42.58410374633967876434326171875" lon="-8.74222132377326488494873046875">
        <ele>34.59999847412109375</ele>
        <time>2022-11-01T08:20:37.000Z</time>
      </trkpt>
      <trkpt lat="42.58406016044318675994873046875" lon="-8.74218218028545379638671875">
        <ele>35</ele>
        <time>2022-11-01T08:20:38.000Z</time>
      </trkpt>
      <trkpt lat="42.5840164907276630401611328125" lon="-8.742144964635372161865234375">
        <ele>35.200000762939453125</ele>
        <time>2022-11-01T08:20:39.000Z</time>
      </trkpt>
      <trkpt lat="42.5839725695550441741943359375" lon="-8.74210766516625881195068359375">
        <ele>35.40000152587890625</ele>
        <time>2022-11-01T08:20:40.000Z</time>
      </trkpt>
      <trkpt lat="42.58392713963985443115234375" lon="-8.742069862782955169677734375">
        <ele>35.59999847412109375</ele>
        <time>2022-11-01T08:20:41.000Z</time>
      </trkpt>
      <trkpt lat="42.58388363756239414215087890625" lon="-8.74203063547611236572265625">
        <ele>35.799999237060546875</ele>
        <time>2022-11-01T08:20:42.000Z</time>
      </trkpt>
      <trkpt lat="42.5838411413133144378662109375" lon="-8.74198973178863525390625">
        <ele>36.200000762939453125</ele>
        <time>2022-11-01T08:20:43.000Z</time>
      </trkpt>
      <trkpt lat="42.5837978906929492950439453125" lon="-8.74195226468145847320556640625">
        <ele>36.200000762939453125</ele>
        <time>2022-11-01T08:20:44.000Z</time>
      </trkpt>
      <trkpt lat="42.583755142986774444580078125" lon="-8.7419151328504085540771484375">
        <ele>36.40000152587890625</ele>
        <time>2022-11-01T08:20:45.000Z</time>
      </trkpt>
      <trkpt lat="42.5837134011089801788330078125" lon="-8.7418775819242000579833984375">
        <ele>36.59999847412109375</ele>
        <time>2022-11-01T08:20:46.000Z</time>
      </trkpt>
      <trkpt lat="42.58367241360247135162353515625" lon="-8.74183944426476955413818359375">
        <ele>36.799999237060546875</ele>
        <time>2022-11-01T08:20:47.000Z</time>
      </trkpt>
      <trkpt lat="42.58363016881048679351806640625" lon="-8.7417994625866413116455078125">
        <ele>36.799999237060546875</ele>
        <time>2022-11-01T08:20:48.000Z</time>
      </trkpt>
      <trkpt lat="42.58358708582818508148193359375" lon="-8.74176115728914737701416015625">
        <ele>37.200000762939453125</ele>
        <time>2022-11-01T08:20:49.000Z</time>
      </trkpt>
      <trkpt lat="42.58354433812201023101806640625" lon="-8.7417203374207019805908203125">
        <ele>37.40000152587890625</ele>
        <time>2022-11-01T08:20:50.000Z</time>
      </trkpt>
      <trkpt lat="42.5835015065968036651611328125" lon="-8.7416799366474151611328125">
        <ele>37.799999237060546875</ele>
        <time>2022-11-01T08:20:51.000Z</time>
      </trkpt>
      <trkpt lat="42.5834597647190093994140625" lon="-8.7416412122547626495361328125">
        <ele>38</ele>
        <time>2022-11-01T08:20:52.000Z</time>
      </trkpt>
      <trkpt lat="42.58341860957443714141845703125" lon="-8.74160408042371273040771484375">
        <ele>38.200000762939453125</ele>
        <time>2022-11-01T08:20:53.000Z</time>
      </trkpt>
      <trkpt lat="42.5833774544298648834228515625" lon="-8.74156569130718708038330078125">
        <ele>38.59999847412109375</ele>
        <time>2022-11-01T08:20:54.000Z</time>
      </trkpt>
      <trkpt lat="42.5833372212946414947509765625" lon="-8.7415285594761371612548828125">
        <ele>38.799999237060546875</ele>
        <time>2022-11-01T08:20:55.000Z</time>
      </trkpt>
      <trkpt lat="42.58329757489264011383056640625" lon="-8.74149017035961151123046875">
        <ele>39</ele>
        <time>2022-11-01T08:20:56.000Z</time>
      </trkpt>
      <trkpt lat="42.58325767703354358673095703125" lon="-8.74145136214792728424072265625">
        <ele>39.200000762939453125</ele>
        <time>2022-11-01T08:20:57.000Z</time>
      </trkpt>
      <trkpt lat="42.58321660570800304412841796875" lon="-8.74141163192689418792724609375">
        <ele>39.40000152587890625</ele>
        <time>2022-11-01T08:20:58.000Z</time>
      </trkpt>
      <trkpt lat="42.5831752829253673553466796875" lon="-8.74137156642973423004150390625">
        <ele>39.40000152587890625</ele>
        <time>2022-11-01T08:20:59.000Z</time>
      </trkpt>
      <trkpt lat="42.58313396014273166656494140625" lon="-8.741332255303859710693359375">
        <ele>39.59999847412109375</ele>
        <time>2022-11-01T08:21:00.000Z</time>
      </trkpt>
      <trkpt lat="42.58309221826493740081787109375" lon="-8.74129428528249263763427734375">
        <ele>40.200000762939453125</ele>
        <time>2022-11-01T08:21:01.000Z</time>
      </trkpt>
      <trkpt lat="42.5830522365868091583251953125" lon="-8.7412566505372524261474609375">
        <ele>40.40000152587890625</ele>
        <time>2022-11-01T08:21:02.000Z</time>
      </trkpt>
      <trkpt lat="42.58301124908030033111572265625" lon="-8.74121633358299732208251953125">
        <ele>40.799999237060546875</ele>
        <time>2022-11-01T08:21:03.000Z</time>
      </trkpt>
      <trkpt lat="42.5829704292118549346923828125" lon="-8.7411783635616302490234375">
        <ele>40.799999237060546875</ele>
        <time>2022-11-01T08:21:04.000Z</time>
      </trkpt>
      <trkpt lat="42.582930028438568115234375" lon="-8.7411416508257389068603515625">
        <ele>41</ele>
        <time>2022-11-01T08:21:05.000Z</time>
      </trkpt>
      <trkpt lat="42.58288769982755184173583984375" lon="-8.741103596985340118408203125">
        <ele>41.200000762939453125</ele>
        <time>2022-11-01T08:21:06.000Z</time>
      </trkpt>
      <trkpt lat="42.58284444920718669891357421875" lon="-8.74106504023075103759765625">
        <ele>41.40000152587890625</ele>
        <time>2022-11-01T08:21:07.000Z</time>
      </trkpt>
      <trkpt lat="42.5828021205961704254150390625" lon="-8.741026818752288818359375">
        <ele>41.59999847412109375</ele>
        <time>2022-11-01T08:21:08.000Z</time>
      </trkpt>
      <trkpt lat="42.582762055099010467529296875" lon="-8.740989267826080322265625">
        <ele>42</ele>
        <time>2022-11-01T08:21:09.000Z</time>
      </trkpt>
      <trkpt lat="42.5827209837734699249267578125" lon="-8.74094861559569835662841796875">
        <ele>42</ele>
        <time>2022-11-01T08:21:10.000Z</time>
      </trkpt>
      <trkpt lat="42.58267899043858051300048828125" lon="-8.74090947210788726806640625">
        <ele>42.200000762939453125</ele>
        <time>2022-11-01T08:21:11.000Z</time>
      </trkpt>
      <trkpt lat="42.5826363265514373779296875" lon="-8.7408707477152347564697265625">
        <ele>42.59999847412109375</ele>
        <time>2022-11-01T08:21:12.000Z</time>
      </trkpt>
      <trkpt lat="42.5825942493975162506103515625" lon="-8.74083227477967739105224609375">
        <ele>42.59999847412109375</ele>
        <time>2022-11-01T08:21:13.000Z</time>
      </trkpt>
      <trkpt lat="42.58255183696746826171875" lon="-8.7407926283776760101318359375">
        <ele>43</ele>
        <time>2022-11-01T08:21:14.000Z</time>
      </trkpt>
      <trkpt lat="42.582509927451610565185546875" lon="-8.74075499363243579864501953125">
        <ele>43</ele>
        <time>2022-11-01T08:21:15.000Z</time>
      </trkpt>
      <trkpt lat="42.582467682659626007080078125" lon="-8.7407175265252590179443359375">
        <ele>43.200000762939453125</ele>
        <time>2022-11-01T08:21:16.000Z</time>
      </trkpt>
      <trkpt lat="42.58242501877248287200927734375" lon="-8.74067771248519420623779296875">
        <ele>43.40000152587890625</ele>
        <time>2022-11-01T08:21:17.000Z</time>
      </trkpt>
      <trkpt lat="42.582382857799530029296875" lon="-8.74063898809254169464111328125">
        <ele>43.59999847412109375</ele>
        <time>2022-11-01T08:21:18.000Z</time>
      </trkpt>
      <trkpt lat="42.58234203793108463287353515625" lon="-8.74060126952826976776123046875">
        <ele>43.799999237060546875</ele>
        <time>2022-11-01T08:21:19.000Z</time>
      </trkpt>
      <trkpt lat="42.582301385700702667236328125" lon="-8.74056438915431499481201171875">
        <ele>44.200000762939453125</ele>
        <time>2022-11-01T08:21:20.000Z</time>
      </trkpt>
      <trkpt lat="42.58225838653743267059326171875" lon="-8.74052482657134532928466796875">
        <ele>44.40000152587890625</ele>
        <time>2022-11-01T08:21:21.000Z</time>
      </trkpt>
      <trkpt lat="42.58221396245062351226806640625" lon="-8.74048291705548763275146484375">
        <ele>44.59999847412109375</ele>
        <time>2022-11-01T08:21:22.000Z</time>
      </trkpt>
      <trkpt lat="42.58217222057282924652099609375" lon="-8.74044117517769336700439453125">
        <ele>44.59999847412109375</ele>
        <time>2022-11-01T08:21:23.000Z</time>
      </trkpt>
      <trkpt lat="42.5821315683424472808837890625" lon="-8.7404005229473114013671875">
        <ele>44.799999237060546875</ele>
        <time>2022-11-01T08:21:24.000Z</time>
      </trkpt>
      <trkpt lat="42.58208873681724071502685546875" lon="-8.7403624691069126129150390625">
        <ele>45</ele>
        <time>2022-11-01T08:21:25.000Z</time>
      </trkpt>
      <trkpt lat="42.58204498328268527984619140625" lon="-8.740325085818767547607421875">
        <ele>45</ele>
        <time>2022-11-01T08:21:26.000Z</time>
      </trkpt>
      <trkpt lat="42.5820014812052249908447265625" lon="-8.74028493650257587432861328125">
        <ele>45.200000762939453125</ele>
        <time>2022-11-01T08:21:27.000Z</time>
      </trkpt>
      <trkpt lat="42.58195781148970127105712890625" lon="-8.7402434460818767547607421875">
        <ele>45.200000762939453125</ele>
        <time>2022-11-01T08:21:28.000Z</time>
      </trkpt>
      <trkpt lat="42.581915147602558135986328125" lon="-8.7402045540511608123779296875">
        <ele>45.40000152587890625</ele>
        <time>2022-11-01T08:21:29.000Z</time>
      </trkpt>
      <trkpt lat="42.58187131024897098541259765625" lon="-8.7401639856398105621337890625">
        <ele>45.40000152587890625</ele>
        <time>2022-11-01T08:21:30.000Z</time>
      </trkpt>
      <trkpt lat="42.581826634705066680908203125" lon="-8.74012182466685771942138671875">
        <ele>45.799999237060546875</ele>
        <time>2022-11-01T08:21:31.000Z</time>
      </trkpt>
      <trkpt lat="42.58178246207535266876220703125" lon="-8.740078993141651153564453125">
        <ele>46.200000762939453125</ele>
        <time>2022-11-01T08:21:32.000Z</time>
      </trkpt>
      <trkpt lat="42.5817399658262729644775390625" lon="-8.7400406040251255035400390625">
        <ele>46.200000762939453125</ele>
        <time>2022-11-01T08:21:33.000Z</time>
      </trkpt>
      <trkpt lat="42.58169914595782756805419921875" lon="-8.7400003708899021148681640625">
        <ele>46.40000152587890625</ele>
        <time>2022-11-01T08:21:34.000Z</time>
      </trkpt>
      <trkpt lat="42.5816594995558261871337890625" lon="-8.73996005393564701080322265625">
        <ele>46.40000152587890625</ele>
        <time>2022-11-01T08:21:35.000Z</time>
      </trkpt>
      <trkpt lat="42.58161566220223903656005859375" lon="-8.73991915024816989898681640625">
        <ele>46.799999237060546875</ele>
        <time>2022-11-01T08:21:36.000Z</time>
      </trkpt>
      <trkpt lat="42.58157257921993732452392578125" lon="-8.7398801743984222412109375">
        <ele>46.799999237060546875</ele>
        <time>2022-11-01T08:21:37.000Z</time>
      </trkpt>
      <trkpt lat="42.581529580056667327880859375" lon="-8.73984329402446746826171875">
        <ele>47.200000762939453125</ele>
        <time>2022-11-01T08:21:38.000Z</time>
      </trkpt>
      <trkpt lat="42.5814854912459850311279296875" lon="-8.73980515636503696441650390625">
        <ele>47.40000152587890625</ele>
        <time>2022-11-01T08:21:39.000Z</time>
      </trkpt>
      <trkpt lat="42.5814427435398101806640625" lon="-8.73976643197238445281982421875">
        <ele>47.59999847412109375</ele>
        <time>2022-11-01T08:21:40.000Z</time>
      </trkpt>
      <trkpt lat="42.5814003311097621917724609375" lon="-8.73972594738006591796875">
        <ele>48</ele>
        <time>2022-11-01T08:21:41.000Z</time>
      </trkpt>
      <trkpt lat="42.58135758340358734130859375" lon="-8.7396858818829059600830078125">
        <ele>48.200000762939453125</ele>
        <time>2022-11-01T08:21:42.000Z</time>
      </trkpt>
      <trkpt lat="42.5813148356974124908447265625" lon="-8.73964841477572917938232421875">
        <ele>48.40000152587890625</ele>
        <time>2022-11-01T08:21:43.000Z</time>
      </trkpt>
      <trkpt lat="42.58127384819090366363525390625" lon="-8.73960985802114009857177734375">
        <ele>48.59999847412109375</ele>
        <time>2022-11-01T08:21:44.000Z</time>
      </trkpt>
      <trkpt lat="42.581232525408267974853515625" lon="-8.7395718879997730255126953125">
        <ele>48.799999237060546875</ele>
        <time>2022-11-01T08:21:45.000Z</time>
      </trkpt>
      <trkpt lat="42.58118994534015655517578125" lon="-8.7395296432077884674072265625">
        <ele>48.799999237060546875</ele>
        <time>2022-11-01T08:21:46.000Z</time>
      </trkpt>
      <trkpt lat="42.58114845491945743560791015625" lon="-8.73948748223483562469482421875">
        <ele>49</ele>
        <time>2022-11-01T08:21:47.000Z</time>
      </trkpt>
      <trkpt lat="42.58110637776553630828857421875" lon="-8.7394448183476924896240234375">
        <ele>49.200000762939453125</ele>
        <time>2022-11-01T08:21:48.000Z</time>
      </trkpt>
      <trkpt lat="42.5810643844306468963623046875" lon="-8.73940399847924709320068359375">
        <ele>49.40000152587890625</ele>
        <time>2022-11-01T08:21:49.000Z</time>
      </trkpt>
      <trkpt lat="42.5810216367244720458984375" lon="-8.73936527408659458160400390625">
        <ele>49.59999847412109375</ele>
        <time>2022-11-01T08:21:50.000Z</time>
      </trkpt>
      <trkpt lat="42.5809788890182971954345703125" lon="-8.7393261305987834930419921875">
        <ele>49.799999237060546875</ele>
        <time>2022-11-01T08:21:51.000Z</time>
      </trkpt>
      <trkpt lat="42.5809359736740589141845703125" lon="-8.7392874062061309814453125">
        <ele>50</ele>
        <time>2022-11-01T08:21:52.000Z</time>
      </trkpt>
      <trkpt lat="42.58089364506304264068603515625" lon="-8.739248849451541900634765625">
        <ele>50.200000762939453125</ele>
        <time>2022-11-01T08:21:53.000Z</time>
      </trkpt>
      <trkpt lat="42.58085072971880435943603515625" lon="-8.73920819722115993499755859375">
        <ele>50.40000152587890625</ele>
        <time>2022-11-01T08:21:54.000Z</time>
      </trkpt>
      <trkpt lat="42.5808078981935977935791015625" lon="-8.7391675449907779693603515625">
        <ele>50.40000152587890625</ele>
        <time>2022-11-01T08:21:55.000Z</time>
      </trkpt>
      <trkpt lat="42.580764479935169219970703125" lon="-8.7391264736652374267578125">
        <ele>50.59999847412109375</ele>
        <time>2022-11-01T08:21:56.000Z</time>
      </trkpt>
      <trkpt lat="42.5807230733335018157958984375" lon="-8.7390864081680774688720703125">
        <ele>50.799999237060546875</ele>
        <time>2022-11-01T08:21:57.000Z</time>
      </trkpt>
      <trkpt lat="42.58068225346505641937255859375" lon="-8.73904709704220294952392578125">
        <ele>50.799999237060546875</ele>
        <time>2022-11-01T08:21:58.000Z</time>
      </trkpt>
      <trkpt lat="42.58064034394919872283935546875" lon="-8.73900652863085269927978515625">
        <ele>51</ele>
        <time>2022-11-01T08:21:59.000Z</time>
      </trkpt>
      <trkpt lat="42.5805973447859287261962890625" lon="-8.7389682233333587646484375">
        <ele>51.200000762939453125</ele>
        <time>2022-11-01T08:22:00.000Z</time>
      </trkpt>
      <trkpt lat="42.58055518381297588348388671875" lon="-8.73893025331199169158935546875">
        <ele>51.40000152587890625</ele>
        <time>2022-11-01T08:22:01.000Z</time>
      </trkpt>
      <trkpt lat="42.580515034496784210205078125" lon="-8.73889253474771976470947265625">
        <ele>51.59999847412109375</ele>
        <time>2022-11-01T08:22:02.000Z</time>
      </trkpt>
      <trkpt lat="42.5804736278951168060302734375" lon="-8.73885414563119411468505859375">
        <ele>51.799999237060546875</ele>
        <time>2022-11-01T08:22:03.000Z</time>
      </trkpt>
      <trkpt lat="42.580431215465068817138671875" lon="-8.73881491832435131072998046875">
        <ele>52.200000762939453125</ele>
        <time>2022-11-01T08:22:04.000Z</time>
      </trkpt>
      <trkpt lat="42.58038989268243312835693359375" lon="-8.73877669684588909149169921875">
        <ele>52.59999847412109375</ele>
        <time>2022-11-01T08:22:05.000Z</time>
      </trkpt>
      <trkpt lat="42.58034664206206798553466796875" lon="-8.7387402355670928955078125">
        <ele>52.799999237060546875</ele>
        <time>2022-11-01T08:22:06.000Z</time>
      </trkpt>
      <trkpt lat="42.58030406199395656585693359375" lon="-8.73870193026959896087646484375">
        <ele>53</ele>
        <time>2022-11-01T08:22:07.000Z</time>
      </trkpt>
      <trkpt lat="42.5802627392113208770751953125" lon="-8.73866337351500988006591796875">
        <ele>53</ele>
        <time>2022-11-01T08:22:08.000Z</time>
      </trkpt>
      <trkpt lat="42.58022057823836803436279296875" lon="-8.73862431384623050689697265625">
        <ele>53.200000762939453125</ele>
        <time>2022-11-01T08:22:09.000Z</time>
      </trkpt>
      <trkpt lat="42.58017833344638347625732421875" lon="-8.7385846674442291259765625">
        <ele>53.200000762939453125</ele>
        <time>2022-11-01T08:22:10.000Z</time>
      </trkpt>
      <trkpt lat="42.58013474754989147186279296875" lon="-8.73854284174740314483642578125">
        <ele>53.40000152587890625</ele>
        <time>2022-11-01T08:22:11.000Z</time>
      </trkpt>
      <trkpt lat="42.58009317331016063690185546875" lon="-8.73850260861217975616455078125">
        <ele>53.40000152587890625</ele>
        <time>2022-11-01T08:22:12.000Z</time>
      </trkpt>
      <trkpt lat="42.58005201816558837890625" lon="-8.73846421949565410614013671875">
        <ele>53.59999847412109375</ele>
        <time>2022-11-01T08:22:13.000Z</time>
      </trkpt>
      <trkpt lat="42.5800092704594135284423828125" lon="-8.73842440545558929443359375">
        <ele>54.200000762939453125</ele>
        <time>2022-11-01T08:22:14.000Z</time>
      </trkpt>
      <trkpt lat="42.5799666903913021087646484375" lon="-8.73838425613939762115478515625">
        <ele>54.40000152587890625</ele>
        <time>2022-11-01T08:22:15.000Z</time>
      </trkpt>
      <trkpt lat="42.57992436178028583526611328125" lon="-8.73834486119449138641357421875">
        <ele>54.59999847412109375</ele>
        <time>2022-11-01T08:22:16.000Z</time>
      </trkpt>
      <trkpt lat="42.579884715378284454345703125" lon="-8.73830638825893402099609375">
        <ele>54.799999237060546875</ele>
        <time>2022-11-01T08:22:17.000Z</time>
      </trkpt>
      <trkpt lat="42.57984657771885395050048828125" lon="-8.73826992698013782501220703125">
        <ele>55</ele>
        <time>2022-11-01T08:22:18.000Z</time>
      </trkpt>
      <trkpt lat="42.579808272421360015869140625" lon="-8.7382334657013416290283203125">
        <ele>55.200000762939453125</ele>
        <time>2022-11-01T08:22:19.000Z</time>
      </trkpt>
      <trkpt lat="42.579770386219024658203125" lon="-8.7381989322602748870849609375">
        <ele>55.40000152587890625</ele>
        <time>2022-11-01T08:22:20.000Z</time>
      </trkpt>
      <trkpt lat="42.5797326676547527313232421875" lon="-8.7381667457520961761474609375">
        <ele>55.59999847412109375</ele>
        <time>2022-11-01T08:22:21.000Z</time>
      </trkpt>
      <trkpt lat="42.5796917639672756195068359375" lon="-8.73813380487263202667236328125">
        <ele>56</ele>
        <time>2022-11-01T08:22:22.000Z</time>
      </trkpt>
      <trkpt lat="42.57965161465108394622802734375" lon="-8.73810245655477046966552734375">
        <ele>56.200000762939453125</ele>
        <time>2022-11-01T08:22:23.000Z</time>
      </trkpt>
      <trkpt lat="42.5796126388013362884521484375" lon="-8.73806959949433803558349609375">
        <ele>56.59999847412109375</ele>
        <time>2022-11-01T08:22:24.000Z</time>
      </trkpt>
      <trkpt lat="42.579574920237064361572265625" lon="-8.73803456313908100128173828125">
        <ele>56.799999237060546875</ele>
        <time>2022-11-01T08:22:25.000Z</time>
      </trkpt>
      <trkpt lat="42.57953678257763385772705078125" lon="-8.73799885623157024383544921875">
        <ele>56.799999237060546875</ele>
        <time>2022-11-01T08:22:26.000Z</time>
      </trkpt>
      <trkpt lat="42.5794979743659496307373046875" lon="-8.737962730228900909423828125">
        <ele>57</ele>
        <time>2022-11-01T08:22:27.000Z</time>
      </trkpt>
      <trkpt lat="42.57945966906845569610595703125" lon="-8.7379246763885021209716796875">
        <ele>57.200000762939453125</ele>
        <time>2022-11-01T08:22:28.000Z</time>
      </trkpt>
      <trkpt lat="42.5794211961328983306884765625" lon="-8.7378857843577861785888671875">
        <ele>57.40000152587890625</ele>
        <time>2022-11-01T08:22:29.000Z</time>
      </trkpt>
      <trkpt lat="42.57938389666378498077392578125" lon="-8.73784840106964111328125">
        <ele>57.40000152587890625</ele>
        <time>2022-11-01T08:22:30.000Z</time>
      </trkpt>
      <trkpt lat="42.5793460942804813385009765625" lon="-8.73780749738216400146484375">
        <ele>57.59999847412109375</ele>
        <time>2022-11-01T08:22:31.000Z</time>
      </trkpt>
      <trkpt lat="42.579307369887828826904296875" lon="-8.7377679347991943359375">
        <ele>57.59999847412109375</ele>
        <time>2022-11-01T08:22:32.000Z</time>
      </trkpt>
      <trkpt lat="42.579269818961620330810546875" lon="-8.7377268634736537933349609375">
        <ele>58</ele>
        <time>2022-11-01T08:22:33.000Z</time>
      </trkpt>
      <trkpt lat="42.5792344473302364349365234375" lon="-8.73768570832908153533935546875">
        <ele>58</ele>
        <time>2022-11-01T08:22:34.000Z</time>
      </trkpt>
      <trkpt lat="42.57920066826045513153076171875" lon="-8.73764513991773128509521484375">
        <ele>58.200000762939453125</ele>
        <time>2022-11-01T08:22:35.000Z</time>
      </trkpt>
      <trkpt lat="42.5791667215526103973388671875" lon="-8.73760406859219074249267578125">
        <ele>58.799999237060546875</ele>
        <time>2022-11-01T08:22:36.000Z</time>
      </trkpt>
      <trkpt lat="42.57913143374025821685791015625" lon="-8.737561404705047607421875">
        <ele>59</ele>
        <time>2022-11-01T08:22:37.000Z</time>
      </trkpt>
      <trkpt lat="42.57909639738500118255615234375" lon="-8.7375153042376041412353515625">
        <ele>59.40000152587890625</ele>
        <time>2022-11-01T08:22:38.000Z</time>
      </trkpt>
      <trkpt lat="42.5790609419345855712890625" lon="-8.73746962286531925201416015625">
        <ele>59.59999847412109375</ele>
        <time>2022-11-01T08:22:39.000Z</time>
      </trkpt>
      <trkpt lat="42.57902481593191623687744140625" lon="-8.7374234385788440704345703125">
        <ele>60</ele>
        <time>2022-11-01T08:22:40.000Z</time>
      </trkpt>
      <trkpt lat="42.5789913721382617950439453125" lon="-8.73737926594913005828857421875">
        <ele>60</ele>
        <time>2022-11-01T08:22:41.000Z</time>
      </trkpt>
      <trkpt lat="42.5789581798017024993896484375" lon="-8.73733568005263805389404296875">
        <ele>60.40000152587890625</ele>
        <time>2022-11-01T08:22:42.000Z</time>
      </trkpt>
      <trkpt lat="42.57892590947449207305908203125" lon="-8.73729075305163860321044921875">
        <ele>60.59999847412109375</ele>
        <time>2022-11-01T08:22:43.000Z</time>
      </trkpt>
      <trkpt lat="42.57889221422374248504638671875" lon="-8.737245909869670867919921875">
        <ele>61</ele>
        <time>2022-11-01T08:22:44.000Z</time>
      </trkpt>
      <trkpt lat="42.57885701023042201995849609375" lon="-8.7372028268873691558837890625">
        <ele>61</ele>
        <time>2022-11-01T08:22:45.000Z</time>
      </trkpt>
      <trkpt lat="42.57882297970354557037353515625" lon="-8.7371568940579891204833984375">
        <ele>61.40000152587890625</ele>
        <time>2022-11-01T08:22:46.000Z</time>
      </trkpt>
      <trkpt lat="42.5787888653576374053955078125" lon="-8.7371089495718479156494140625">
        <ele>61.59999847412109375</ele>
        <time>2022-11-01T08:22:47.000Z</time>
      </trkpt>
      <trkpt lat="42.578754834830760955810546875" lon="-8.7370584905147552490234375">
        <ele>61.59999847412109375</ele>
        <time>2022-11-01T08:22:48.000Z</time>
      </trkpt>
      <trkpt lat="42.578720636665821075439453125" lon="-8.73700912110507488250732421875">
        <ele>61.799999237060546875</ele>
        <time>2022-11-01T08:22:49.000Z</time>
      </trkpt>
      <trkpt lat="42.57868610322475433349609375" lon="-8.7369614280760288238525390625">
        <ele>62</ele>
        <time>2022-11-01T08:22:50.000Z</time>
      </trkpt>
      <trkpt lat="42.57865257561206817626953125" lon="-8.7369131483137607574462890625">
        <ele>62.200000762939453125</ele>
        <time>2022-11-01T08:22:51.000Z</time>
      </trkpt>
      <trkpt lat="42.57862064056098461151123046875" lon="-8.73686327598989009857177734375">
        <ele>62.40000152587890625</ele>
        <time>2022-11-01T08:22:52.000Z</time>
      </trkpt>
      <trkpt lat="42.5785903818905353546142578125" lon="-8.73681331984698772430419921875">
        <ele>62.799999237060546875</ele>
        <time>2022-11-01T08:22:53.000Z</time>
      </trkpt>
      <trkpt lat="42.57856079377233982086181640625" lon="-8.7367626093327999114990234375">
        <ele>62.799999237060546875</ele>
        <time>2022-11-01T08:22:54.000Z</time>
      </trkpt>
      <trkpt lat="42.57853145711123943328857421875" lon="-8.73671340756118297576904296875">
        <ele>63</ele>
        <time>2022-11-01T08:22:55.000Z</time>
      </trkpt>
      <trkpt lat="42.57850170135498046875" lon="-8.7366653792560100555419921875">
        <ele>63.200000762939453125</ele>
        <time>2022-11-01T08:22:56.000Z</time>
      </trkpt>
      <trkpt lat="42.57847144268453121185302734375" lon="-8.7366157583892345428466796875">
        <ele>63.40000152587890625</ele>
        <time>2022-11-01T08:22:57.000Z</time>
      </trkpt>
      <trkpt lat="42.5784408487379550933837890625" lon="-8.73656555078923702239990234375">
        <ele>63.59999847412109375</ele>
        <time>2022-11-01T08:22:58.000Z</time>
      </trkpt>
      <trkpt lat="42.57840849459171295166015625" lon="-8.73651542700827121734619140625">
        <ele>63.799999237060546875</ele>
        <time>2022-11-01T08:22:59.000Z</time>
      </trkpt>
      <trkpt lat="42.5783741287887096405029296875" lon="-8.736465387046337127685546875">
        <ele>64</ele>
        <time>2022-11-01T08:23:00.000Z</time>
      </trkpt>
      <trkpt lat="42.5783406011760234832763671875" lon="-8.7364161014556884765625">
        <ele>64.1999969482421875</ele>
        <time>2022-11-01T08:23:01.000Z</time>
      </trkpt>
      <trkpt lat="42.57830665446817874908447265625" lon="-8.736366145312786102294921875">
        <ele>64.59999847412109375</ele>
        <time>2022-11-01T08:23:02.000Z</time>
      </trkpt>
      <trkpt lat="42.57827480323612689971923828125" lon="-8.7363153509795665740966796875">
        <ele>64.59999847412109375</ele>
        <time>2022-11-01T08:23:03.000Z</time>
      </trkpt>
      <trkpt lat="42.57824479602277278900146484375" lon="-8.736264891922473907470703125">
        <ele>64.8000030517578125</ele>
        <time>2022-11-01T08:23:04.000Z</time>
      </trkpt>
      <trkpt lat="42.5782138668000698089599609375" lon="-8.7362157739698886871337890625">
        <ele>64.8000030517578125</ele>
        <time>2022-11-01T08:23:05.000Z</time>
      </trkpt>
      <trkpt lat="42.57818377576768398284912109375" lon="-8.73616673983633518218994140625">
        <ele>65</ele>
        <time>2022-11-01T08:23:06.000Z</time>
      </trkpt>
      <trkpt lat="42.57815427146852016448974609375" lon="-8.73611661605536937713623046875">
        <ele>65.1999969482421875</ele>
        <time>2022-11-01T08:23:07.000Z</time>
      </trkpt>
      <trkpt lat="42.5781250186264514923095703125" lon="-8.7360660731792449951171875">
        <ele>65.1999969482421875</ele>
        <time>2022-11-01T08:23:08.000Z</time>
      </trkpt>
      <trkpt lat="42.57809475995600223541259765625" lon="-8.73601603321731090545654296875">
        <ele>65.40000152587890625</ele>
        <time>2022-11-01T08:23:09.000Z</time>
      </trkpt>
      <trkpt lat="42.57806475274264812469482421875" lon="-8.73596406541764736175537109375">
        <ele>65.40000152587890625</ele>
        <time>2022-11-01T08:23:10.000Z</time>
      </trkpt>
      <trkpt lat="42.57803441025316715240478515625" lon="-8.73591427691280841827392578125">
        <ele>65.8000030517578125</ele>
        <time>2022-11-01T08:23:11.000Z</time>
      </trkpt>
      <trkpt lat="42.5780029781162738800048828125" lon="-8.73586356639862060546875">
        <ele>65.8000030517578125</ele>
        <time>2022-11-01T08:23:12.000Z</time>
      </trkpt>
      <trkpt lat="42.5779701210558414459228515625" lon="-8.73581285588443279266357421875">
        <ele>66</ele>
        <time>2022-11-01T08:23:13.000Z</time>
      </trkpt>
      <trkpt lat="42.57793684490025043487548828125" lon="-8.7357629835605621337890625">
        <ele>66.1999969482421875</ele>
        <time>2022-11-01T08:23:14.000Z</time>
      </trkpt>
      <trkpt lat="42.57790566422045230865478515625" lon="-8.735711015760898590087890625">
        <ele>66.40000152587890625</ele>
        <time>2022-11-01T08:23:15.000Z</time>
      </trkpt>
      <trkpt lat="42.57787347771227359771728515625" lon="-8.73565980233252048492431640625">
        <ele>66.40000152587890625</ele>
        <time>2022-11-01T08:23:16.000Z</time>
      </trkpt>
      <trkpt lat="42.57784296758472919464111328125" lon="-8.7356100976467132568359375">
        <ele>66.59999847412109375</ele>
        <time>2022-11-01T08:23:17.000Z</time>
      </trkpt>
      <trkpt lat="42.577812708914279937744140625" lon="-8.7355591356754302978515625">
        <ele>66.8000030517578125</ele>
        <time>2022-11-01T08:23:18.000Z</time>
      </trkpt>
      <trkpt lat="42.5777840428054332733154296875" lon="-8.73551060445606708526611328125">
        <ele>66.8000030517578125</ele>
        <time>2022-11-01T08:23:19.000Z</time>
      </trkpt>
      <trkpt lat="42.577755041420459747314453125" lon="-8.7354630790650844573974609375">
        <ele>66.8000030517578125</ele>
        <time>2022-11-01T08:23:20.000Z</time>
      </trkpt>
      <trkpt lat="42.57772562094032764434814453125" lon="-8.7354121170938014984130859375">
        <ele>67</ele>
        <time>2022-11-01T08:23:21.000Z</time>
      </trkpt>
      <trkpt lat="42.5776955299079418182373046875" lon="-8.73535939492285251617431640625">
        <ele>67.1999969482421875</ele>
        <time>2022-11-01T08:23:22.000Z</time>
      </trkpt>
      <trkpt lat="42.57766577415168285369873046875" lon="-8.7353078462183475494384765625">
        <ele>67.1999969482421875</ele>
        <time>2022-11-01T08:23:23.000Z</time>
      </trkpt>
      <trkpt lat="42.57763694040477275848388671875" lon="-8.73525612987577915191650390625">
        <ele>67.8000030517578125</ele>
        <time>2022-11-01T08:23:24.000Z</time>
      </trkpt>
      <trkpt lat="42.577608190476894378662109375" lon="-8.73520550318062305450439453125">
        <ele>67.8000030517578125</ele>
        <time>2022-11-01T08:23:25.000Z</time>
      </trkpt>
      <trkpt lat="42.57757977582514286041259765625" lon="-8.73515621758997440338134765625">
        <ele>68.1999969482421875</ele>
        <time>2022-11-01T08:23:26.000Z</time>
      </trkpt>
      <trkpt lat="42.577552534639835357666015625" lon="-8.73510441742837429046630859375">
        <ele>68.40000152587890625</ele>
        <time>2022-11-01T08:23:27.000Z</time>
      </trkpt>
      <trkpt lat="42.5775278918445110321044921875" lon="-8.735052533447742462158203125">
        <ele>68.40000152587890625</ele>
        <time>2022-11-01T08:23:28.000Z</time>
      </trkpt>
      <trkpt lat="42.577500231564044952392578125" lon="-8.73499897308647632598876953125">
        <ele>68.59999847412109375</ele>
        <time>2022-11-01T08:23:29.000Z</time>
      </trkpt>
      <trkpt lat="42.5774745829403400421142578125" lon="-8.73494532890617847442626953125">
        <ele>68.59999847412109375</ele>
        <time>2022-11-01T08:23:30.000Z</time>
      </trkpt>
      <trkpt lat="42.577447593212127685546875" lon="-8.73489084653556346893310546875">
        <ele>68.8000030517578125</ele>
        <time>2022-11-01T08:23:31.000Z</time>
      </trkpt>
      <trkpt lat="42.57742152549326419830322265625" lon="-8.7348367832601070404052734375">
        <ele>69</ele>
        <time>2022-11-01T08:23:32.000Z</time>
      </trkpt>
      <trkpt lat="42.5773971341550350189208984375" lon="-8.7347828038036823272705078125">
        <ele>69.1999969482421875</ele>
        <time>2022-11-01T08:23:33.000Z</time>
      </trkpt>
      <trkpt lat="42.57737341336905956268310546875" lon="-8.73472706414759159088134765625">
        <ele>69.40000152587890625</ele>
        <time>2022-11-01T08:23:34.000Z</time>
      </trkpt>
      <trkpt lat="42.57734977640211582183837890625" lon="-8.73466855846345424652099609375">
        <ele>69.59999847412109375</ele>
        <time>2022-11-01T08:23:35.000Z</time>
      </trkpt>
      <trkpt lat="42.57732530124485492706298828125" lon="-8.73461206443607807159423828125">
        <ele>69.8000030517578125</ele>
        <time>2022-11-01T08:23:36.000Z</time>
      </trkpt>
      <trkpt lat="42.57730166427791118621826171875" lon="-8.734555654227733612060546875">
        <ele>70</ele>
        <time>2022-11-01T08:23:37.000Z</time>
      </trkpt>
      <trkpt lat="42.57728020660579204559326171875" lon="-8.734499998390674591064453125">
        <ele>70.1999969482421875</ele>
        <time>2022-11-01T08:23:38.000Z</time>
      </trkpt>
      <trkpt lat="42.57726025767624378204345703125" lon="-8.73444526456296443939208984375">
        <ele>70.40000152587890625</ele>
        <time>2022-11-01T08:23:39.000Z</time>
      </trkpt>
      <trkpt lat="42.57724097929894924163818359375" lon="-8.73438927344977855682373046875">
        <ele>70.59999847412109375</ele>
        <time>2022-11-01T08:23:40.000Z</time>
      </trkpt>
      <trkpt lat="42.5772221200168132781982421875" lon="-8.73433177359402179718017578125">
        <ele>70.8000030517578125</ele>
        <time>2022-11-01T08:23:41.000Z</time>
      </trkpt>
      <trkpt lat="42.577203847467899322509765625" lon="-8.73427511192858219146728515625">
        <ele>71</ele>
        <time>2022-11-01T08:23:42.000Z</time>
      </trkpt>
      <trkpt lat="42.5771845690906047821044921875" lon="-8.73421576805412769317626953125">
        <ele>71</ele>
        <time>2022-11-01T08:23:43.000Z</time>
      </trkpt>
      <trkpt lat="42.57716403342783451080322265625" lon="-8.73415491543710231781005859375">
        <ele>71.1999969482421875</ele>
        <time>2022-11-01T08:23:44.000Z</time>
      </trkpt>
      <trkpt lat="42.57714190520346164703369140625" lon="-8.73409171588718891143798828125">
        <ele>71.1999969482421875</ele>
        <time>2022-11-01T08:23:45.000Z</time>
      </trkpt>
      <trkpt lat="42.577119357883930206298828125" lon="-8.73402834869921207427978515625">
        <ele>71.59999847412109375</ele>
        <time>2022-11-01T08:23:46.000Z</time>
      </trkpt>
      <trkpt lat="42.57709731347858905792236328125" lon="-8.733964227139949798583984375">
        <ele>71.59999847412109375</ele>
        <time>2022-11-01T08:23:47.000Z</time>
      </trkpt>
      <trkpt lat="42.57707669399678707122802734375" lon="-8.73390220105648040771484375">
        <ele>71.8000030517578125</ele>
        <time>2022-11-01T08:23:48.000Z</time>
      </trkpt>
      <trkpt lat="42.5770574994385242462158203125" lon="-8.733834140002727508544921875">
        <ele>71.8000030517578125</ele>
        <time>2022-11-01T08:23:49.000Z</time>
      </trkpt>
      <trkpt lat="42.577036879956722259521484375" lon="-8.73377035371959209442138671875">
        <ele>72</ele>
        <time>2022-11-01T08:23:50.000Z</time>
      </trkpt>
      <trkpt lat="42.5770159251987934112548828125" lon="-8.73370505869388580322265625">
        <ele>72</ele>
        <time>2022-11-01T08:23:51.000Z</time>
      </trkpt>
      <trkpt lat="42.57699488662183284759521484375" lon="-8.73364009894430637359619140625">
        <ele>72</ele>
        <time>2022-11-01T08:23:52.000Z</time>
      </trkpt>
      <trkpt lat="42.57697376422584056854248046875" lon="-8.73357706703245639801025390625">
        <ele>72.1999969482421875</ele>
        <time>2022-11-01T08:23:53.000Z</time>
      </trkpt>
      <trkpt lat="42.57695348002016544342041015625" lon="-8.73351319693028926849365234375">
        <ele>72.40000152587890625</ele>
        <time>2022-11-01T08:23:54.000Z</time>
      </trkpt>
      <trkpt lat="42.576932609081268310546875" lon="-8.73344714753329753875732421875">
        <ele>72.59999847412109375</ele>
        <time>2022-11-01T08:23:55.000Z</time>
      </trkpt>
      <trkpt lat="42.57691207341849803924560546875" lon="-8.73338210396468639373779296875">
        <ele>72.59999847412109375</ele>
        <time>2022-11-01T08:23:56.000Z</time>
      </trkpt>
      <trkpt lat="42.57689028047025203704833984375" lon="-8.73331706039607524871826171875">
        <ele>72.59999847412109375</ele>
        <time>2022-11-01T08:23:57.000Z</time>
      </trkpt>
      <trkpt lat="42.576870582997798919677734375" lon="-8.7332542799413204193115234375">
        <ele>72.8000030517578125</ele>
        <time>2022-11-01T08:23:58.000Z</time>
      </trkpt>
      <trkpt lat="42.57685071788728237152099609375" lon="-8.7331919185817241668701171875">
        <ele>72.8000030517578125</ele>
        <time>2022-11-01T08:23:59.000Z</time>
      </trkpt>
      <trkpt lat="42.57682926021516323089599609375" lon="-8.73312729410827159881591796875">
        <ele>72.8000030517578125</ele>
        <time>2022-11-01T08:24:00.000Z</time>
      </trkpt>
      <trkpt lat="42.576808221638202667236328125" lon="-8.7330621667206287384033203125">
        <ele>73</ele>
        <time>2022-11-01T08:24:01.000Z</time>
      </trkpt>
      <trkpt lat="42.57678751833736896514892578125" lon="-8.73299821279942989349365234375">
        <ele>73.1999969482421875</ele>
        <time>2022-11-01T08:24:02.000Z</time>
      </trkpt>
      <trkpt lat="42.5767648033797740936279296875" lon="-8.73293400742113590240478515625">
        <ele>73.1999969482421875</ele>
        <time>2022-11-01T08:24:03.000Z</time>
      </trkpt>
      <trkpt lat="42.57674259133636951446533203125" lon="-8.73286913149058818817138671875">
        <ele>73.40000152587890625</ele>
        <time>2022-11-01T08:24:04.000Z</time>
      </trkpt>
      <trkpt lat="42.576720714569091796875" lon="-8.7328063510358333587646484375">
        <ele>73.40000152587890625</ele>
        <time>2022-11-01T08:24:05.000Z</time>
      </trkpt>
      <trkpt lat="42.5766994245350360870361328125" lon="-8.7327413074672222137451171875">
        <ele>73.59999847412109375</ele>
        <time>2022-11-01T08:24:06.000Z</time>
      </trkpt>
      <trkpt lat="42.57667788304388523101806640625" lon="-8.7326752580702304840087890625">
        <ele>73.8000030517578125</ele>
        <time>2022-11-01T08:24:07.000Z</time>
      </trkpt>
      <trkpt lat="42.57665776647627353668212890625" lon="-8.73261130414903163909912109375">
        <ele>74</ele>
        <time>2022-11-01T08:24:08.000Z</time>
      </trkpt>
      <trkpt lat="42.57663647644221782684326171875" lon="-8.7325478531420230865478515625">
        <ele>74.1999969482421875</ele>
        <time>2022-11-01T08:24:09.000Z</time>
      </trkpt>
      <trkpt lat="42.57661602459847927093505859375" lon="-8.73248540796339511871337890625">
        <ele>74.40000152587890625</ele>
        <time>2022-11-01T08:24:10.000Z</time>
      </trkpt>
      <trkpt lat="42.57659741677343845367431640625" lon="-8.7324251420795917510986328125">
        <ele>74.59999847412109375</ele>
        <time>2022-11-01T08:24:11.000Z</time>
      </trkpt>
      <trkpt lat="42.57657830603420734405517578125" lon="-8.73236085288226604461669921875">
        <ele>74.59999847412109375</ele>
        <time>2022-11-01T08:24:12.000Z</time>
      </trkpt>
      <trkpt lat="42.57655886001884937286376953125" lon="-8.7322940491139888763427734375">
        <ele>74.8000030517578125</ele>
        <time>2022-11-01T08:24:13.000Z</time>
      </trkpt>
      <trkpt lat="42.57653907872736454010009765625" lon="-8.732227496802806854248046875">
        <ele>75</ele>
        <time>2022-11-01T08:24:14.000Z</time>
      </trkpt>
      <trkpt lat="42.57651929743587970733642578125" lon="-8.732164800167083740234375">
        <ele>75.40000152587890625</ele>
        <time>2022-11-01T08:24:15.000Z</time>
      </trkpt>
      <trkpt lat="42.57649750448763370513916015625" lon="-8.73209883458912372589111328125">
        <ele>75.40000152587890625</ele>
        <time>2022-11-01T08:24:16.000Z</time>
      </trkpt>
      <trkpt lat="42.5764768011868000030517578125" lon="-8.73203546740114688873291015625">
        <ele>75.59999847412109375</ele>
        <time>2022-11-01T08:24:17.000Z</time>
      </trkpt>
      <trkpt lat="42.57645626552402973175048828125" lon="-8.731973357498645782470703125">
        <ele>75.59999847412109375</ele>
        <time>2022-11-01T08:24:18.000Z</time>
      </trkpt>
      <trkpt lat="42.57643648423254489898681640625" lon="-8.7319104932248592376708984375">
        <ele>75.8000030517578125</ele>
        <time>2022-11-01T08:24:19.000Z</time>
      </trkpt>
      <trkpt lat="42.5764136016368865966796875" lon="-8.73184762895107269287109375">
        <ele>75.8000030517578125</ele>
        <time>2022-11-01T08:24:20.000Z</time>
      </trkpt>
      <trkpt lat="42.576389797031879425048828125" lon="-8.73178325593471527099609375">
        <ele>76</ele>
        <time>2022-11-01T08:24:21.000Z</time>
      </trkpt>
      <trkpt lat="42.576369345188140869140625" lon="-8.7317173741757869720458984375">
        <ele>76.1999969482421875</ele>
        <time>2022-11-01T08:24:22.000Z</time>
      </trkpt>
      <trkpt lat="42.57635065354406833648681640625" lon="-8.7316511571407318115234375">
        <ele>76.1999969482421875</ele>
        <time>2022-11-01T08:24:23.000Z</time>
      </trkpt>
      <trkpt lat="42.57633120752871036529541015625" lon="-8.731585443019866943359375">
        <ele>76.59999847412109375</ele>
        <time>2022-11-01T08:24:24.000Z</time>
      </trkpt>
      <trkpt lat="42.57631192915141582489013671875" lon="-8.73151998035609722137451171875">
        <ele>76.59999847412109375</ele>
        <time>2022-11-01T08:24:25.000Z</time>
      </trkpt>
      <trkpt lat="42.57629130966961383819580078125" lon="-8.7314555235207080841064453125">
        <ele>76.8000030517578125</ele>
        <time>2022-11-01T08:24:26.000Z</time>
      </trkpt>
      <trkpt lat="42.5762709416449069976806640625" lon="-8.73139056377112865447998046875">
        <ele>76.8000030517578125</ele>
        <time>2022-11-01T08:24:27.000Z</time>
      </trkpt>
      <trkpt lat="42.57624956779181957244873046875" lon="-8.73132719658315181732177734375">
        <ele>77</ele>
        <time>2022-11-01T08:24:28.000Z</time>
      </trkpt>
      <trkpt lat="42.57622660137712955474853515625" lon="-8.73126089572906494140625">
        <ele>77</ele>
        <time>2022-11-01T08:24:29.000Z</time>
      </trkpt>
      <trkpt lat="42.57620564661920070648193359375" lon="-8.73119442723691463470458984375">
        <ele>77</ele>
        <time>2022-11-01T08:24:30.000Z</time>
      </trkpt>
      <trkpt lat="42.57618418894708156585693359375" lon="-8.731129467487335205078125">
        <ele>77.1999969482421875</ele>
        <time>2022-11-01T08:24:31.000Z</time>
      </trkpt>
      <trkpt lat="42.576165497303009033203125" lon="-8.73106769286096096038818359375">
        <ele>77.59999847412109375</ele>
        <time>2022-11-01T08:24:32.000Z</time>
      </trkpt>
      <trkpt lat="42.5761475600302219390869140625" lon="-8.73100675642490386962890625">
        <ele>77.8000030517578125</ele>
        <time>2022-11-01T08:24:33.000Z</time>
      </trkpt>
      <trkpt lat="42.57612836547195911407470703125" lon="-8.7309430539608001708984375">
        <ele>78</ele>
        <time>2022-11-01T08:24:34.000Z</time>
      </trkpt>
      <trkpt lat="42.576108165085315704345703125" lon="-8.7308788485825061798095703125">
        <ele>78.1999969482421875</ele>
        <time>2022-11-01T08:24:35.000Z</time>
      </trkpt>
      <trkpt lat="42.57608838379383087158203125" lon="-8.730811290442943572998046875">
        <ele>78.40000152587890625</ele>
        <time>2022-11-01T08:24:36.000Z</time>
      </trkpt>
      <trkpt lat="42.5760704465210437774658203125" lon="-8.73074431903660297393798828125">
        <ele>78.59999847412109375</ele>
        <time>2022-11-01T08:24:37.000Z</time>
      </trkpt>
      <trkpt lat="42.57605276070535182952880859375" lon="-8.7306775152683258056640625">
        <ele>78.59999847412109375</ele>
        <time>2022-11-01T08:24:38.000Z</time>
      </trkpt>
      <trkpt lat="42.57603247649967670440673828125" lon="-8.73061171732842922210693359375">
        <ele>78.8000030517578125</ele>
        <time>2022-11-01T08:24:39.000Z</time>
      </trkpt>
      <trkpt lat="42.57601168937981128692626953125" lon="-8.7305455841124057769775390625">
        <ele>78.8000030517578125</ele>
        <time>2022-11-01T08:24:40.000Z</time>
      </trkpt>
      <trkpt lat="42.57599056698381900787353515625" lon="-8.73047878034412860870361328125">
        <ele>78.8000030517578125</ele>
        <time>2022-11-01T08:24:41.000Z</time>
      </trkpt>
      <trkpt lat="42.575969696044921875" lon="-8.73041407205164432525634765625">
        <ele>78.8000030517578125</ele>
        <time>2022-11-01T08:24:42.000Z</time>
      </trkpt>
      <trkpt lat="42.57594890892505645751953125" lon="-8.73034886084496974945068359375">
        <ele>79</ele>
        <time>2022-11-01T08:24:43.000Z</time>
      </trkpt>
      <trkpt lat="42.575928457081317901611328125" lon="-8.73028230853378772735595703125">
        <ele>79.1999969482421875</ele>
        <time>2022-11-01T08:24:44.000Z</time>
      </trkpt>
      <trkpt lat="42.575909011065959930419921875" lon="-8.73021726496517658233642578125">
        <ele>79.1999969482421875</ele>
        <time>2022-11-01T08:24:45.000Z</time>
      </trkpt>
      <trkpt lat="42.57588922977447509765625" lon="-8.7301512993872165679931640625">
        <ele>79.40000152587890625</ele>
        <time>2022-11-01T08:24:46.000Z</time>
      </trkpt>
      <trkpt lat="42.575868777930736541748046875" lon="-8.73008541762828826904296875">
        <ele>79.8000030517578125</ele>
        <time>2022-11-01T08:24:47.000Z</time>
      </trkpt>
      <trkpt lat="42.57584941573441028594970703125" lon="-8.73002062551677227020263671875">
        <ele>80.40000152587890625</ele>
        <time>2022-11-01T08:24:48.000Z</time>
      </trkpt>
      <trkpt lat="42.575831227004528045654296875" lon="-8.72995801270008087158203125">
        <ele>80.59999847412109375</ele>
        <time>2022-11-01T08:24:49.000Z</time>
      </trkpt>
      <trkpt lat="42.5758122839033603668212890625" lon="-8.7298969924449920654296875">
        <ele>81</ele>
        <time>2022-11-01T08:24:50.000Z</time>
      </trkpt>
      <trkpt lat="42.57579158060252666473388671875" lon="-8.72983421199023723602294921875">
        <ele>81.1999969482421875</ele>
        <time>2022-11-01T08:24:51.000Z</time>
      </trkpt>
      <trkpt lat="42.57577297277748584747314453125" lon="-8.7297700904309749603271484375">
        <ele>81.40000152587890625</ele>
        <time>2022-11-01T08:24:52.000Z</time>
      </trkpt>
      <trkpt lat="42.57575268857181072235107421875" lon="-8.7297083996236324310302734375">
        <ele>81.59999847412109375</ele>
        <time>2022-11-01T08:24:53.000Z</time>
      </trkpt>
      <trkpt lat="42.57573106326162815093994140625" lon="-8.7296443618834018707275390625">
        <ele>82</ele>
        <time>2022-11-01T08:24:54.000Z</time>
      </trkpt>
      <trkpt lat="42.57571044377982616424560546875" lon="-8.729582168161869049072265625">
        <ele>82.1999969482421875</ele>
        <time>2022-11-01T08:24:55.000Z</time>
      </trkpt>
      <trkpt lat="42.5756892375648021697998046875" lon="-8.72952072881162166595458984375">
        <ele>82.40000152587890625</ele>
        <time>2022-11-01T08:24:56.000Z</time>
      </trkpt>
      <trkpt lat="42.575669623911380767822265625" lon="-8.72945987619459629058837890625">
        <ele>82.59999847412109375</ele>
        <time>2022-11-01T08:24:57.000Z</time>
      </trkpt>
      <trkpt lat="42.575650513172149658203125" lon="-8.7293982692062854766845703125">
        <ele>82.8000030517578125</ele>
        <time>2022-11-01T08:24:58.000Z</time>
      </trkpt>
      <trkpt lat="42.5756305642426013946533203125" lon="-8.72933766804635524749755859375">
        <ele>83.1999969482421875</ele>
        <time>2022-11-01T08:24:59.000Z</time>
      </trkpt>
      <trkpt lat="42.575611285865306854248046875" lon="-8.72927782125771045684814453125">
        <ele>83.40000152587890625</ele>
        <time>2022-11-01T08:25:00.000Z</time>
      </trkpt>
      <trkpt lat="42.5755920074880123138427734375" lon="-8.729216046631336212158203125">
        <ele>83.8000030517578125</ele>
        <time>2022-11-01T08:25:01.000Z</time>
      </trkpt>
      <trkpt lat="42.5755727291107177734375" lon="-8.729155361652374267578125">
        <ele>84</ele>
        <time>2022-11-01T08:25:02.000Z</time>
      </trkpt>
      <trkpt lat="42.575552947819232940673828125" lon="-8.72909568250179290771484375">
        <ele>84</ele>
        <time>2022-11-01T08:25:03.000Z</time>
      </trkpt>
      <trkpt lat="42.575535513460636138916015625" lon="-8.729037679731845855712890625">
        <ele>84.1999969482421875</ele>
        <time>2022-11-01T08:25:04.000Z</time>
      </trkpt>
      <trkpt lat="42.57551682181656360626220703125" lon="-8.72897841967642307281494140625">
        <ele>84.40000152587890625</ele>
        <time>2022-11-01T08:25:05.000Z</time>
      </trkpt>
      <trkpt lat="42.57549670524895191192626953125" lon="-8.72891857288777828216552734375">
        <ele>84.59999847412109375</ele>
        <time>2022-11-01T08:25:06.000Z</time>
      </trkpt>
      <trkpt lat="42.5754756666719913482666015625" lon="-8.72886057011783123016357421875">
        <ele>84.8000030517578125</ele>
        <time>2022-11-01T08:25:07.000Z</time>
      </trkpt>
      <trkpt lat="42.5754562206566333770751953125" lon="-8.728802986443042755126953125">
        <ele>85</ele>
        <time>2022-11-01T08:25:08.000Z</time>
      </trkpt>
      <trkpt lat="42.575439624488353729248046875" lon="-8.72874657623469829559326171875">
        <ele>85.1999969482421875</ele>
        <time>2022-11-01T08:25:09.000Z</time>
      </trkpt>
      <trkpt lat="42.57542227394878864288330078125" lon="-8.7286878190934658050537109375">
        <ele>85.40000152587890625</ele>
        <time>2022-11-01T08:25:10.000Z</time>
      </trkpt>
      <trkpt lat="42.57540668360888957977294921875" lon="-8.72863006778061389923095703125">
        <ele>85.59999847412109375</ele>
        <time>2022-11-01T08:25:11.000Z</time>
      </trkpt>
      <trkpt lat="42.57539235055446624755859375" lon="-8.72857533395290374755859375">
        <ele>85.8000030517578125</ele>
        <time>2022-11-01T08:25:12.000Z</time>
      </trkpt>
      <trkpt lat="42.5753796100616455078125" lon="-8.728516660630702972412109375">
        <ele>85.8000030517578125</ele>
        <time>2022-11-01T08:25:13.000Z</time>
      </trkpt>
      <trkpt lat="42.57536376826465129852294921875" lon="-8.72845857404172420501708984375">
        <ele>86.1999969482421875</ele>
        <time>2022-11-01T08:25:14.000Z</time>
      </trkpt>
      <trkpt lat="42.57534599862992763519287109375" lon="-8.728401325643062591552734375">
        <ele>86.59999847412109375</ele>
        <time>2022-11-01T08:25:15.000Z</time>
      </trkpt>
      <trkpt lat="42.5753301568329334259033203125" lon="-8.72834600508213043212890625">
        <ele>86.8000030517578125</ele>
        <time>2022-11-01T08:25:16.000Z</time>
      </trkpt>
      <trkpt lat="42.57531993091106414794921875" lon="-8.72828825376927852630615234375">
        <ele>87.1999969482421875</ele>
        <time>2022-11-01T08:25:17.000Z</time>
      </trkpt>
      <trkpt lat="42.57530828006565570831298828125" lon="-8.728232346475124359130859375">
        <ele>87.40000152587890625</ele>
        <time>2022-11-01T08:25:18.000Z</time>
      </trkpt>
      <trkpt lat="42.5752929411828517913818359375" lon="-8.7281776964664459228515625">
        <ele>88.1999969482421875</ele>
        <time>2022-11-01T08:25:19.000Z</time>
      </trkpt>
      <trkpt lat="42.57527894340455532073974609375" lon="-8.7281212024390697479248046875">
        <ele>88.40000152587890625</ele>
        <time>2022-11-01T08:25:20.000Z</time>
      </trkpt>
      <trkpt lat="42.57526771165430545806884765625" lon="-8.7280615232884883880615234375">
        <ele>88.8000030517578125</ele>
        <time>2022-11-01T08:25:21.000Z</time>
      </trkpt>
      <trkpt lat="42.57525413297116756439208984375" lon="-8.72800662182271480560302734375">
        <ele>89</ele>
        <time>2022-11-01T08:25:22.000Z</time>
      </trkpt>
      <trkpt lat="42.57524156011641025543212890625" lon="-8.7279502116143703460693359375">
        <ele>89.40000152587890625</ele>
        <time>2022-11-01T08:25:23.000Z</time>
      </trkpt>
      <trkpt lat="42.575230412185192108154296875" lon="-8.7278915382921695709228515625">
        <ele>89.59999847412109375</ele>
        <time>2022-11-01T08:25:24.000Z</time>
      </trkpt>
      <trkpt lat="42.575221024453639984130859375" lon="-8.72783227823674678802490234375">
        <ele>90.1999969482421875</ele>
        <time>2022-11-01T08:25:25.000Z</time>
      </trkpt>
      <trkpt lat="42.5752119719982147216796875" lon="-8.72777092270553112030029296875">
        <ele>90.40000152587890625</ele>
        <time>2022-11-01T08:25:26.000Z</time>
      </trkpt>
      <trkpt lat="42.575202919542789459228515625" lon="-8.7277091480791568756103515625">
        <ele>90.59999847412109375</ele>
        <time>2022-11-01T08:25:27.000Z</time>
      </trkpt>
      <trkpt lat="42.57519654929637908935546875" lon="-8.72765039093792438507080078125">
        <ele>90.59999847412109375</ele>
        <time>2022-11-01T08:25:28.000Z</time>
      </trkpt>
      <trkpt lat="42.57519185543060302734375" lon="-8.72759071178734302520751953125">
        <ele>90.8000030517578125</ele>
        <time>2022-11-01T08:25:29.000Z</time>
      </trkpt>
      <trkpt lat="42.57519126869738101959228515625" lon="-8.727529607713222503662109375">
        <ele>90.8000030517578125</ele>
        <time>2022-11-01T08:25:30.000Z</time>
      </trkpt>
      <trkpt lat="42.57518925704061985015869140625" lon="-8.72746364213526248931884765625">
        <ele>91</ele>
        <time>2022-11-01T08:25:31.000Z</time>
      </trkpt>
      <trkpt lat="42.57518724538385868072509765625" lon="-8.7273973412811756134033203125">
        <ele>91.8000030517578125</ele>
        <time>2022-11-01T08:25:32.000Z</time>
      </trkpt>
      <trkpt lat="42.5751900114119052886962890625" lon="-8.727335147559642791748046875">
        <ele>92</ele>
        <time>2022-11-01T08:25:33.000Z</time>
      </trkpt>
      <trkpt lat="42.5751933641731739044189453125" lon="-8.72727178037166595458984375">
        <ele>92.40000152587890625</ele>
        <time>2022-11-01T08:25:34.000Z</time>
      </trkpt>
      <trkpt lat="42.57519713602960109710693359375" lon="-8.72720816172659397125244140625">
        <ele>92.59999847412109375</ele>
        <time>2022-11-01T08:25:35.000Z</time>
      </trkpt>
      <trkpt lat="42.5752034224569797515869140625" lon="-8.72714395634829998016357421875">
        <ele>93</ele>
        <time>2022-11-01T08:25:36.000Z</time>
      </trkpt>
      <trkpt lat="42.575212307274341583251953125" lon="-8.72708000242710113525390625">
        <ele>93.59999847412109375</ele>
        <time>2022-11-01T08:25:37.000Z</time>
      </trkpt>
      <trkpt lat="42.57522228173911571502685546875" lon="-8.72701604850590229034423828125">
        <ele>93.8000030517578125</ele>
        <time>2022-11-01T08:25:38.000Z</time>
      </trkpt>
      <trkpt lat="42.575233764946460723876953125" lon="-8.72695234604179859161376953125">
        <ele>94</ele>
        <time>2022-11-01T08:25:39.000Z</time>
      </trkpt>
      <trkpt lat="42.5752439908683300018310546875" lon="-8.72688897885382175445556640625">
        <ele>94.40000152587890625</ele>
        <time>2022-11-01T08:25:40.000Z</time>
      </trkpt>
      <trkpt lat="42.5752548873424530029296875" lon="-8.7268246896564960479736328125">
        <ele>94.8000030517578125</ele>
        <time>2022-11-01T08:25:41.000Z</time>
      </trkpt>
      <trkpt lat="42.57526838220655918121337890625" lon="-8.72676023282110691070556640625">
        <ele>95</ele>
        <time>2022-11-01T08:25:42.000Z</time>
      </trkpt>
      <trkpt lat="42.57528179325163364410400390625" lon="-8.72669636271893978118896484375">
        <ele>95.40000152587890625</ele>
        <time>2022-11-01T08:25:43.000Z</time>
      </trkpt>
      <trkpt lat="42.5752932764589786529541015625" lon="-8.72663014568388462066650390625">
        <ele>95.40000152587890625</ele>
        <time>2022-11-01T08:25:44.000Z</time>
      </trkpt>
      <trkpt lat="42.575304843485355377197265625" lon="-8.7265648506581783294677734375">
        <ele>95.59999847412109375</ele>
        <time>2022-11-01T08:25:45.000Z</time>
      </trkpt>
      <trkpt lat="42.575316913425922393798828125" lon="-8.7265011481940746307373046875">
        <ele>96</ele>
        <time>2022-11-01T08:25:46.000Z</time>
      </trkpt>
      <trkpt lat="42.5753326714038848876953125" lon="-8.7264384515583515167236328125">
        <ele>96.1999969482421875</ele>
        <time>2022-11-01T08:25:47.000Z</time>
      </trkpt>
      <trkpt lat="42.5753482617437839508056640625" lon="-8.7263747490942478179931640625">
        <ele>96.40000152587890625</ele>
        <time>2022-11-01T08:25:48.000Z</time>
      </trkpt>
      <trkpt lat="42.57536510936915874481201171875" lon="-8.72631129808723926544189453125">
        <ele>96.40000152587890625</ele>
        <time>2022-11-01T08:25:49.000Z</time>
      </trkpt>
      <trkpt lat="42.57538338191807270050048828125" lon="-8.7262465059757232666015625">
        <ele>96.59999847412109375</ele>
        <time>2022-11-01T08:25:50.000Z</time>
      </trkpt>
      <trkpt lat="42.5754024088382720947265625" lon="-8.72618406079709529876708984375">
        <ele>96.59999847412109375</ele>
        <time>2022-11-01T08:25:51.000Z</time>
      </trkpt>
      <trkpt lat="42.5754196755588054656982421875" lon="-8.726121447980403900146484375">
        <ele>97</ele>
        <time>2022-11-01T08:25:52.000Z</time>
      </trkpt>
      <trkpt lat="42.57543451152741909027099609375" lon="-8.726054392755031585693359375">
        <ele>97.1999969482421875</ele>
        <time>2022-11-01T08:25:53.000Z</time>
      </trkpt>
      <trkpt lat="42.5754480063915252685546875" lon="-8.72598457150161266326904296875">
        <ele>97.59999847412109375</ele>
        <time>2022-11-01T08:25:54.000Z</time>
      </trkpt>
      <trkpt lat="42.57546284236013889312744140625" lon="-8.72591516934335231781005859375">
        <ele>97.8000030517578125</ele>
        <time>2022-11-01T08:25:55.000Z</time>
      </trkpt>
      <trkpt lat="42.57547809742391109466552734375" lon="-8.72584610246121883392333984375">
        <ele>98</ele>
        <time>2022-11-01T08:25:56.000Z</time>
      </trkpt>
      <trkpt lat="42.57549502886831760406494140625" lon="-8.7257771193981170654296875">
        <ele>98.1999969482421875</ele>
        <time>2022-11-01T08:25:57.000Z</time>
      </trkpt>
      <trkpt lat="42.57551011629402637481689453125" lon="-8.7257068790495395660400390625">
        <ele>98.40000152587890625</ele>
        <time>2022-11-01T08:25:58.000Z</time>
      </trkpt>
      <trkpt lat="42.57552688010036945343017578125" lon="-8.72563756071031093597412109375">
        <ele>98.40000152587890625</ele>
        <time>2022-11-01T08:25:59.000Z</time>
      </trkpt>
      <trkpt lat="42.575543560087680816650390625" lon="-8.72557184658944606781005859375">
        <ele>98.59999847412109375</ele>
        <time>2022-11-01T08:26:00.000Z</time>
      </trkpt>
      <trkpt lat="42.57556007243692874908447265625" lon="-8.72550462372601032257080078125">
        <ele>98.59999847412109375</ele>
        <time>2022-11-01T08:26:01.000Z</time>
      </trkpt>
      <trkpt lat="42.57557448931038379669189453125" lon="-8.7254349701106548309326171875">
        <ele>98.59999847412109375</ele>
        <time>2022-11-01T08:26:02.000Z</time>
      </trkpt>
      <trkpt lat="42.575591504573822021484375" lon="-8.72536716051399707794189453125">
        <ele>98.8000030517578125</ele>
        <time>2022-11-01T08:26:03.000Z</time>
      </trkpt>
      <trkpt lat="42.5756047479808330535888671875" lon="-8.72531234286725521087646484375">
        <ele>98.8000030517578125</ele>
        <time>2022-11-01T08:26:04.000Z</time>
      </trkpt>
      <trkpt lat="42.575623691082000732421875" lon="-8.72522684745490550994873046875">
        <ele>99</ele>
        <time>2022-11-01T08:26:05.000Z</time>
      </trkpt>
      <trkpt lat="42.57563970051705837249755859375" lon="-8.72515426017343997955322265625">
        <ele>99</ele>
        <time>2022-11-01T08:26:06.000Z</time>
      </trkpt>
      <trkpt lat="42.575656212866306304931640625" lon="-8.72507966123521327972412109375">
        <ele>99</ele>
        <time>2022-11-01T08:26:07.000Z</time>
      </trkpt>
      <trkpt lat="42.575673647224903106689453125" lon="-8.7250044755637645721435546875">
        <ele>99</ele>
        <time>2022-11-01T08:26:08.000Z</time>
      </trkpt>
      <trkpt lat="42.57569166831672191619873046875" lon="-8.72492878697812557220458984375">
        <ele>99</ele>
        <time>2022-11-01T08:26:09.000Z</time>
      </trkpt>
      <trkpt lat="42.57571061141788959503173828125" lon="-8.72485318221151828765869140625">
        <ele>99</ele>
        <time>2022-11-01T08:26:10.000Z</time>
      </trkpt>
      <trkpt lat="42.57572896778583526611328125" lon="-8.72477673925459384918212890625">
        <ele>99</ele>
        <time>2022-11-01T08:26:11.000Z</time>
      </trkpt>
      <trkpt lat="42.57575017400085926055908203125" lon="-8.72469912283122539520263671875">
        <ele>99</ele>
        <time>2022-11-01T08:26:12.000Z</time>
      </trkpt>
      <trkpt lat="42.5757707096636295318603515625" lon="-8.7246182374656200408935546875">
        <ele>99</ele>
        <time>2022-11-01T08:26:13.000Z</time>
      </trkpt>
      <trkpt lat="42.57579158060252666473388671875" lon="-8.72453190386295318603515625">
        <ele>99</ele>
        <time>2022-11-01T08:26:14.000Z</time>
      </trkpt>
      <trkpt lat="42.5758139602839946746826171875" lon="-8.72444062493741512298583984375">
        <ele>98.8000030517578125</ele>
        <time>2022-11-01T08:26:15.000Z</time>
      </trkpt>
      <trkpt lat="42.57583759725093841552734375" lon="-8.72434423305094242095947265625">
        <ele>98.59999847412109375</ele>
        <time>2022-11-01T08:26:16.000Z</time>
      </trkpt>
      <trkpt lat="42.57586198858916759490966796875" lon="-8.72424549423158168792724609375">
        <ele>98.59999847412109375</ele>
        <time>2022-11-01T08:26:17.000Z</time>
      </trkpt>
      <trkpt lat="42.57588587701320648193359375" lon="-8.7241411395370960235595703125">
        <ele>98.1999969482421875</ele>
        <time>2022-11-01T08:26:18.000Z</time>
      </trkpt>
      <trkpt lat="42.57591228000819683074951171875" lon="-8.72403142042458057403564453125">
        <ele>97.8000030517578125</ele>
        <time>2022-11-01T08:26:19.000Z</time>
      </trkpt>
      <trkpt lat="42.5759396888315677642822265625" lon="-8.7239188514649868011474609375">
        <ele>97.59999847412109375</ele>
        <time>2022-11-01T08:26:20.000Z</time>
      </trkpt>
      <trkpt lat="42.57596500217914581298828125" lon="-8.72380343265831470489501953125">
        <ele>97.1999969482421875</ele>
        <time>2022-11-01T08:26:21.000Z</time>
      </trkpt>
      <trkpt lat="42.57599241100251674652099609375" lon="-8.72368432581424713134765625">
        <ele>97</ele>
        <time>2022-11-01T08:26:22.000Z</time>
      </trkpt>
      <trkpt lat="42.57601596415042877197265625" lon="-8.72358650900423526763916015625">
        <ele>96.40000152587890625</ele>
        <time>2022-11-01T08:26:23.000Z</time>
      </trkpt>
      <trkpt lat="42.57605276070535182952880859375" lon="-8.72343848459422588348388671875">
        <ele>96.1999969482421875</ele>
        <time>2022-11-01T08:26:24.000Z</time>
      </trkpt>
      <trkpt lat="42.57608528248965740203857421875" lon="-8.72331225313246250152587890625">
        <ele>95.40000152587890625</ele>
        <time>2022-11-01T08:26:25.000Z</time>
      </trkpt>
      <trkpt lat="42.57611788809299468994140625" lon="-8.723183088004589080810546875">
        <ele>94.8000030517578125</ele>
        <time>2022-11-01T08:26:26.000Z</time>
      </trkpt>
      <trkpt lat="42.57615066133439540863037109375" lon="-8.72305073775351047515869140625">
        <ele>94.1999969482421875</ele>
        <time>2022-11-01T08:26:27.000Z</time>
      </trkpt>
      <trkpt lat="42.5761757232248783111572265625" lon="-8.7229425273835659027099609375">
        <ele>93.8000030517578125</ele>
        <time>2022-11-01T08:26:28.000Z</time>
      </trkpt>
      <trkpt lat="42.5762152858078479766845703125" lon="-8.72277664951980113983154296875">
        <ele>93.1999969482421875</ele>
        <time>2022-11-01T08:26:29.000Z</time>
      </trkpt>
      <trkpt lat="42.576248981058597564697265625" lon="-8.72263549827039241790771484375">
        <ele>92.59999847412109375</ele>
        <time>2022-11-01T08:26:30.000Z</time>
      </trkpt>
      <trkpt lat="42.57628108374774456024169921875" lon="-8.72249149717390537261962890625">
        <ele>92.40000152587890625</ele>
        <time>2022-11-01T08:26:31.000Z</time>
      </trkpt>
      <trkpt lat="42.57631410844624042510986328125" lon="-8.72234380804002285003662109375">
        <ele>91.8000030517578125</ele>
        <time>2022-11-01T08:26:32.000Z</time>
      </trkpt>
      <trkpt lat="42.57634378038346767425537109375" lon="-8.72219377197325229644775390625">
        <ele>91.40000152587890625</ele>
        <time>2022-11-01T08:26:33.000Z</time>
      </trkpt>
      <trkpt lat="42.57637177594006061553955078125" lon="-8.7220396287739276885986328125">
        <ele>89.8000030517578125</ele>
        <time>2022-11-01T08:26:34.000Z</time>
      </trkpt>
      <trkpt lat="42.57639256305992603302001953125" lon="-8.72187995351850986480712890625">
        <ele>89.1999969482421875</ele>
        <time>2022-11-01T08:26:35.000Z</time>
      </trkpt>
      <trkpt lat="42.576404549181461334228515625" lon="-8.7217170931398868560791015625">
        <ele>88</ele>
        <time>2022-11-01T08:26:36.000Z</time>
      </trkpt>
      <trkpt lat="42.57640756666660308837890625" lon="-8.7215507961809635162353515625">
        <ele>87.40000152587890625</ele>
        <time>2022-11-01T08:26:37.000Z</time>
      </trkpt>
      <trkpt lat="42.576401866972446441650390625" lon="-8.72138156555593013763427734375">
        <ele>86.8000030517578125</ele>
        <time>2022-11-01T08:26:38.000Z</time>
      </trkpt>
      <trkpt lat="42.57638837210834026336669921875" lon="-8.72121174819767475128173828125">
        <ele>86</ele>
        <time>2022-11-01T08:26:39.000Z</time>
      </trkpt>
      <trkpt lat="42.576365657150745391845703125" lon="-8.72104142792522907257080078125">
        <ele>85.40000152587890625</ele>
        <time>2022-11-01T08:26:40.000Z</time>
      </trkpt>
      <trkpt lat="42.57633514702320098876953125" lon="-8.7208735384047031402587890625">
        <ele>84.8000030517578125</ele>
        <time>2022-11-01T08:26:41.000Z</time>
      </trkpt>
      <trkpt lat="42.57629650644958019256591796875" lon="-8.72070514596998691558837890625">
        <ele>83.8000030517578125</ele>
        <time>2022-11-01T08:26:42.000Z</time>
      </trkpt>
      <trkpt lat="42.5762499868869781494140625" lon="-8.72053968720138072967529296875">
        <ele>82.59999847412109375</ele>
        <time>2022-11-01T08:26:43.000Z</time>
      </trkpt>
      <trkpt lat="42.57619240321218967437744140625" lon="-8.720378838479518890380859375">
        <ele>82.1999969482421875</ele>
        <time>2022-11-01T08:26:44.000Z</time>
      </trkpt>
      <trkpt lat="42.57612702436745166778564453125" lon="-8.720226287841796875">
        <ele>80.8000030517578125</ele>
        <time>2022-11-01T08:26:45.000Z</time>
      </trkpt>
      <trkpt lat="42.5760553590953350067138671875" lon="-8.72008144855499267578125">
        <ele>80.40000152587890625</ele>
        <time>2022-11-01T08:26:46.000Z</time>
      </trkpt>
      <trkpt lat="42.5759762339293956756591796875" lon="-8.7199434824287891387939453125">
        <ele>79</ele>
        <time>2022-11-01T08:26:47.000Z</time>
      </trkpt>
      <trkpt lat="42.57588897831737995147705078125" lon="-8.71981733478605747222900390625">
        <ele>78.40000152587890625</ele>
        <time>2022-11-01T08:26:48.000Z</time>
      </trkpt>
      <trkpt lat="42.57579593919217586517333984375" lon="-8.7197030894458293914794921875">
        <ele>77</ele>
        <time>2022-11-01T08:26:49.000Z</time>
      </trkpt>
      <trkpt lat="42.5756976194679737091064453125" lon="-8.71959798038005828857421875">
        <ele>76</ele>
        <time>2022-11-01T08:26:50.000Z</time>
      </trkpt>
      <trkpt lat="42.57559410296380519866943359375" lon="-8.71950167231261730194091796875">
        <ele>75.1999969482421875</ele>
        <time>2022-11-01T08:26:51.000Z</time>
      </trkpt>
      <trkpt lat="42.57548664696514606475830078125" lon="-8.71941382996737957000732421875">
        <ele>74.1999969482421875</ele>
        <time>2022-11-01T08:26:52.000Z</time>
      </trkpt>
      <trkpt lat="42.5753755867481231689453125" lon="-8.71933520771563053131103515625">
        <ele>73.59999847412109375</ele>
        <time>2022-11-01T08:26:53.000Z</time>
      </trkpt>
      <trkpt lat="42.5752594135701656341552734375" lon="-8.719265051186084747314453125">
        <ele>72.8000030517578125</ele>
        <time>2022-11-01T08:26:54.000Z</time>
      </trkpt>
      <trkpt lat="42.5751383788883686065673828125" lon="-8.719205372035503387451171875">
        <ele>72.1999969482421875</ele>
        <time>2022-11-01T08:26:55.000Z</time>
      </trkpt>
      <trkpt lat="42.5750153325498104095458984375" lon="-8.7191579304635524749755859375">
        <ele>71.1999969482421875</ele>
        <time>2022-11-01T08:26:56.000Z</time>
      </trkpt>
      <trkpt lat="42.574893124401569366455078125" lon="-8.71912348084151744842529296875">
        <ele>70.59999847412109375</ele>
        <time>2022-11-01T08:26:57.000Z</time>
      </trkpt>
      <trkpt lat="42.57477535866200923919677734375" lon="-8.71909481473267078399658203125">
        <ele>70</ele>
        <time>2022-11-01T08:26:58.000Z</time>
      </trkpt>
      <trkpt lat="42.5746621191501617431640625" lon="-8.7190737761557102203369140625">
        <ele>69.8000030517578125</ele>
        <time>2022-11-01T08:26:59.000Z</time>
      </trkpt>
      <trkpt lat="42.5745533220469951629638671875" lon="-8.7190623767673969268798828125">
        <ele>69</ele>
        <time>2022-11-01T08:27:00.000Z</time>
      </trkpt>
      <trkpt lat="42.57444821298122406005859375" lon="-8.71906614862382411956787109375">
        <ele>68.59999847412109375</ele>
        <time>2022-11-01T08:27:01.000Z</time>
      </trkpt>
      <trkpt lat="42.574339918792247772216796875" lon="-8.7190932221710681915283203125">
        <ele>67.8000030517578125</ele>
        <time>2022-11-01T08:27:02.000Z</time>
      </trkpt>
      <trkpt lat="42.57423673756420612335205078125" lon="-8.719149716198444366455078125">
        <ele>66.40000152587890625</ele>
        <time>2022-11-01T08:27:03.000Z</time>
      </trkpt>
      <trkpt lat="42.5741456262767314910888671875" lon="-8.7192273326218128204345703125">
        <ele>66</ele>
        <time>2022-11-01T08:27:04.000Z</time>
      </trkpt>
      <trkpt lat="42.57405501790344715118408203125" lon="-8.71929933317005634307861328125">
        <ele>65</ele>
        <time>2022-11-01T08:27:05.000Z</time>
      </trkpt>
      <trkpt lat="42.5739622302353382110595703125" lon="-8.71934778057038784027099609375">
        <ele>64.40000152587890625</ele>
        <time>2022-11-01T08:27:06.000Z</time>
      </trkpt>
      <trkpt lat="42.573868520557880401611328125" lon="-8.7193537317216396331787109375">
        <ele>63.59999847412109375</ele>
        <time>2022-11-01T08:27:07.000Z</time>
      </trkpt>
      <trkpt lat="42.5737774930894374847412109375" lon="-8.7193143367767333984375">
        <ele>63.40000152587890625</ele>
        <time>2022-11-01T08:27:08.000Z</time>
      </trkpt>
      <trkpt lat="42.5736990384757518768310546875" lon="-8.71924049220979213714599609375">
        <ele>63.200000762939453125</ele>
        <time>2022-11-01T08:27:09.000Z</time>
      </trkpt>
      <trkpt lat="42.573630809783935546875" lon="-8.71914057992398738861083984375">
        <ele>63</ele>
        <time>2022-11-01T08:27:10.000Z</time>
      </trkpt>
      <trkpt lat="42.57356517948210239410400390625" lon="-8.719032369554042816162109375">
        <ele>62.59999847412109375</ele>
        <time>2022-11-01T08:27:11.000Z</time>
      </trkpt>
      <trkpt lat="42.5734874792397022247314453125" lon="-8.718930780887603759765625">
        <ele>62.200000762939453125</ele>
        <time>2022-11-01T08:27:12.000Z</time>
      </trkpt>
      <trkpt lat="42.57339276373386383056640625" lon="-8.7188498117029666900634765625">
        <ele>62</ele>
        <time>2022-11-01T08:27:13.000Z</time>
      </trkpt>
      <trkpt lat="42.5733084417879581451416015625" lon="-8.71880429796874523162841796875">
        <ele>61.59999847412109375</ele>
        <time>2022-11-01T08:27:14.000Z</time>
      </trkpt>
      <trkpt lat="42.57317458279430866241455078125" lon="-8.718762807548046112060546875">
        <ele>61.200000762939453125</ele>
        <time>2022-11-01T08:27:15.000Z</time>
      </trkpt>
      <trkpt lat="42.57305958308279514312744140625" lon="-8.71874210424721240997314453125">
        <ele>60.799999237060546875</ele>
        <time>2022-11-01T08:27:16.000Z</time>
      </trkpt>
      <trkpt lat="42.5729455053806304931640625" lon="-8.71871930547058582305908203125">
        <ele>60.59999847412109375</ele>
        <time>2022-11-01T08:27:17.000Z</time>
      </trkpt>
      <trkpt lat="42.5728333555161952972412109375" lon="-8.7186929024755954742431640625">
        <ele>60</ele>
        <time>2022-11-01T08:27:18.000Z</time>
      </trkpt>
      <trkpt lat="42.572721540927886962890625" lon="-8.71866884641349315643310546875">
        <ele>59.799999237060546875</ele>
        <time>2022-11-01T08:27:19.000Z</time>
      </trkpt>
      <trkpt lat="42.5726103968918323516845703125" lon="-8.71864688582718372344970703125">
        <ele>59.200000762939453125</ele>
        <time>2022-11-01T08:27:20.000Z</time>
      </trkpt>
      <trkpt lat="42.57250067777931690216064453125" lon="-8.71862676925957202911376953125">
        <ele>59</ele>
        <time>2022-11-01T08:27:21.000Z</time>
      </trkpt>
      <trkpt lat="42.5723917968571186065673828125" lon="-8.718603886663913726806640625">
        <ele>58.59999847412109375</ele>
        <time>2022-11-01T08:27:22.000Z</time>
      </trkpt>
      <trkpt lat="42.57228408940136432647705078125" lon="-8.718579076230525970458984375">
        <ele>58.40000152587890625</ele>
        <time>2022-11-01T08:27:23.000Z</time>
      </trkpt>
      <trkpt lat="42.57217344827950000762939453125" lon="-8.71855334378778934478759765625">
        <ele>58.200000762939453125</ele>
        <time>2022-11-01T08:27:24.000Z</time>
      </trkpt>
      <trkpt lat="42.5720622204244136810302734375" lon="-8.71852735988795757293701171875">
        <ele>58</ele>
        <time>2022-11-01T08:27:25.000Z</time>
      </trkpt>
      <trkpt lat="42.57195116020739078521728515625" lon="-8.71850389055907726287841796875">
        <ele>58</ele>
        <time>2022-11-01T08:27:26.000Z</time>
      </trkpt>
      <trkpt lat="42.57183733396232128143310546875" lon="-8.71848159469664096832275390625">
        <ele>58</ele>
        <time>2022-11-01T08:27:27.000Z</time>
      </trkpt>
      <trkpt lat="42.5717199034988880157470703125" lon="-8.7184573709964752197265625">
        <ele>58</ele>
        <time>2022-11-01T08:27:28.000Z</time>
      </trkpt>
      <trkpt lat="42.57160280831158161163330078125" lon="-8.71843432076275348663330078125">
        <ele>57.59999847412109375</ele>
        <time>2022-11-01T08:27:29.000Z</time>
      </trkpt>
      <trkpt lat="42.571484707295894622802734375" lon="-8.71840984560549259185791015625">
        <ele>57.59999847412109375</ele>
        <time>2022-11-01T08:27:30.000Z</time>
      </trkpt>
      <trkpt lat="42.57136459462344646453857421875" lon="-8.71838687919080257415771484375">
        <ele>57</ele>
        <time>2022-11-01T08:27:31.000Z</time>
      </trkpt>
      <trkpt lat="42.57124305702745914459228515625" lon="-8.71836022473871707916259765625">
        <ele>56.799999237060546875</ele>
        <time>2022-11-01T08:27:32.000Z</time>
      </trkpt>
      <trkpt lat="42.57112051360309123992919921875" lon="-8.7183277867734432220458984375">
        <ele>56.40000152587890625</ele>
        <time>2022-11-01T08:27:33.000Z</time>
      </trkpt>
      <trkpt lat="42.57099780254065990447998046875" lon="-8.71828814037144184112548828125">
        <ele>55.59999847412109375</ele>
        <time>2022-11-01T08:27:34.000Z</time>
      </trkpt>
      <trkpt lat="42.570875845849514007568359375" lon="-8.718236424028873443603515625">
        <ele>55.200000762939453125</ele>
        <time>2022-11-01T08:27:35.000Z</time>
      </trkpt>
      <trkpt lat="42.570755816996097564697265625" lon="-8.7181738950312137603759765625">
        <ele>54.59999847412109375</ele>
        <time>2022-11-01T08:27:36.000Z</time>
      </trkpt>
      <trkpt lat="42.57063805125653743743896484375" lon="-8.71809954755008220672607421875">
        <ele>54.40000152587890625</ele>
        <time>2022-11-01T08:27:37.000Z</time>
      </trkpt>
      <trkpt lat="42.57052137516438961029052734375" lon="-8.718014471232891082763671875">
        <ele>53.200000762939453125</ele>
        <time>2022-11-01T08:27:38.000Z</time>
      </trkpt>
      <trkpt lat="42.57040788419544696807861328125" lon="-8.71792185120284557342529296875">
        <ele>52.799999237060546875</ele>
        <time>2022-11-01T08:27:39.000Z</time>
      </trkpt>
      <trkpt lat="42.5702949799597263336181640625" lon="-8.7178255431354045867919921875">
        <ele>52.200000762939453125</ele>
        <time>2022-11-01T08:27:40.000Z</time>
      </trkpt>
      <trkpt lat="42.5701801478862762451171875" lon="-8.71772118844091892242431640625">
        <ele>51.799999237060546875</ele>
        <time>2022-11-01T08:27:41.000Z</time>
      </trkpt>
      <trkpt lat="42.5700736977159976959228515625" lon="-8.71760082431137561798095703125">
        <ele>50.59999847412109375</ele>
        <time>2022-11-01T08:27:42.000Z</time>
      </trkpt>
      <trkpt lat="42.5699744559824466705322265625" lon="-8.7174758501350879669189453125">
        <ele>49.200000762939453125</ele>
        <time>2022-11-01T08:27:43.000Z</time>
      </trkpt>
      <trkpt lat="42.56988150067627429962158203125" lon="-8.71734500862658023834228515625">
        <ele>48.59999847412109375</ele>
        <time>2022-11-01T08:27:44.000Z</time>
      </trkpt>
      <trkpt lat="42.569794915616512298583984375" lon="-8.71720821596682071685791015625">
        <ele>47.40000152587890625</ele>
        <time>2022-11-01T08:27:45.000Z</time>
      </trkpt>
      <trkpt lat="42.56971252150833606719970703125" lon="-8.7170678190886974334716796875">
        <ele>47.200000762939453125</ele>
        <time>2022-11-01T08:27:46.000Z</time>
      </trkpt>
      <trkpt lat="42.5696334801614284515380859375" lon="-8.7169223092496395111083984375">
        <ele>45.40000152587890625</ele>
        <time>2022-11-01T08:27:47.000Z</time>
      </trkpt>
      <trkpt lat="42.56955829448997974395751953125" lon="-8.7167734466493129730224609375">
        <ele>44.59999847412109375</ele>
        <time>2022-11-01T08:27:48.000Z</time>
      </trkpt>
      <trkpt lat="42.56948478519916534423828125" lon="-8.716621734201908111572265625">
        <ele>43.200000762939453125</ele>
        <time>2022-11-01T08:27:49.000Z</time>
      </trkpt>
      <trkpt lat="42.56941144354641437530517578125" lon="-8.7164639867842197418212890625">
        <ele>42.799999237060546875</ele>
        <time>2022-11-01T08:27:50.000Z</time>
      </trkpt>
      <trkpt lat="42.56933801807463169097900390625" lon="-8.716305904090404510498046875">
        <ele>42.200000762939453125</ele>
        <time>2022-11-01T08:27:51.000Z</time>
      </trkpt>
      <trkpt lat="42.56926476024091243743896484375" lon="-8.71614463627338409423828125">
        <ele>42.200000762939453125</ele>
        <time>2022-11-01T08:27:52.000Z</time>
      </trkpt>
      <trkpt lat="42.56919066421687602996826171875" lon="-8.71598227880895137786865234375">
        <ele>41.799999237060546875</ele>
        <time>2022-11-01T08:27:53.000Z</time>
      </trkpt>
      <trkpt lat="42.5691178254783153533935546875" lon="-8.7158212624490261077880859375">
        <ele>41.200000762939453125</ele>
        <time>2022-11-01T08:27:54.000Z</time>
      </trkpt>
      <trkpt lat="42.5690457411110401153564453125" lon="-8.7156599946320056915283203125">
        <ele>41</ele>
        <time>2022-11-01T08:27:55.000Z</time>
      </trkpt>
      <trkpt lat="42.56897675804793834686279296875" lon="-8.71550132520496845245361328125">
        <ele>40.59999847412109375</ele>
        <time>2022-11-01T08:27:56.000Z</time>
      </trkpt>
      <trkpt lat="42.568905092775821685791015625" lon="-8.7153424881398677825927734375">
        <ele>40.40000152587890625</ele>
        <time>2022-11-01T08:27:57.000Z</time>
      </trkpt>
      <trkpt lat="42.5688284821808338165283203125" lon="-8.715186081826686859130859375">
        <ele>39.59999847412109375</ele>
        <time>2022-11-01T08:27:58.000Z</time>
      </trkpt>
      <trkpt lat="42.56874776445329189300537109375" lon="-8.7150350399315357208251953125">
        <ele>39.40000152587890625</ele>
        <time>2022-11-01T08:27:59.000Z</time>
      </trkpt>
      <trkpt lat="42.56866243667900562286376953125" lon="-8.71488810516893863677978515625">
        <ele>38.799999237060546875</ele>
        <time>2022-11-01T08:28:00.000Z</time>
      </trkpt>
      <trkpt lat="42.56857392378151416778564453125" lon="-8.7147446908056735992431640625">
        <ele>38.40000152587890625</ele>
        <time>2022-11-01T08:28:01.000Z</time>
      </trkpt>
      <trkpt lat="42.56848088465631008148193359375" lon="-8.7146075628697872161865234375">
        <ele>37.200000762939453125</ele>
        <time>2022-11-01T08:28:02.000Z</time>
      </trkpt>
      <trkpt lat="42.56838030181825160980224609375" lon="-8.7144774757325649261474609375">
        <ele>37</ele>
        <time>2022-11-01T08:28:03.000Z</time>
      </trkpt>
      <trkpt lat="42.56827645003795623779296875" lon="-8.71435686014592647552490234375">
        <ele>36.200000762939453125</ele>
        <time>2022-11-01T08:28:04.000Z</time>
      </trkpt>
      <trkpt lat="42.56817184388637542724609375" lon="-8.71424688957631587982177734375">
        <ele>35.40000152587890625</ele>
        <time>2022-11-01T08:28:05.000Z</time>
      </trkpt>
      <trkpt lat="42.568060867488384246826171875" lon="-8.71414144523441791534423828125">
        <ele>35</ele>
        <time>2022-11-01T08:28:06.000Z</time>
      </trkpt>
      <trkpt lat="42.56794712506234645843505859375" lon="-8.71404622681438922882080078125">
        <ele>34</ele>
        <time>2022-11-01T08:28:07.000Z</time>
      </trkpt>
      <trkpt lat="42.5678293593227863311767578125" lon="-8.7139591388404369354248046875">
        <ele>33.59999847412109375</ele>
        <time>2022-11-01T08:28:08.000Z</time>
      </trkpt>
      <trkpt lat="42.56770907901227474212646484375" lon="-8.71388076804578304290771484375">
        <ele>33.200000762939453125</ele>
        <time>2022-11-01T08:28:09.000Z</time>
      </trkpt>
      <trkpt lat="42.567588128149509429931640625" lon="-8.7138096056878566741943359375">
        <ele>32.799999237060546875</ele>
        <time>2022-11-01T08:28:10.000Z</time>
      </trkpt>
      <trkpt lat="42.56746633909642696380615234375" lon="-8.71374632231891155242919921875">
        <ele>32.200000762939453125</ele>
        <time>2022-11-01T08:28:11.000Z</time>
      </trkpt>
      <trkpt lat="42.56734170019626617431640625" lon="-8.713688738644123077392578125">
        <ele>32</ele>
        <time>2022-11-01T08:28:12.000Z</time>
      </trkpt>
      <trkpt lat="42.5672164745628833770751953125" lon="-8.71363501064479351043701171875">
        <ele>31.3999996185302734375</ele>
        <time>2022-11-01T08:28:13.000Z</time>
      </trkpt>
      <trkpt lat="42.56708948872983455657958984375" lon="-8.71358388103544712066650390625">
        <ele>31.200000762939453125</ele>
        <time>2022-11-01T08:28:14.000Z</time>
      </trkpt>
      <trkpt lat="42.56696359254419803619384765625" lon="-8.71353392489254474639892578125">
        <ele>31</ele>
        <time>2022-11-01T08:28:15.000Z</time>
      </trkpt>
      <trkpt lat="42.5668379478156566619873046875" lon="-8.71348380111157894134521484375">
        <ele>30.6000003814697265625</ele>
        <time>2022-11-01T08:28:16.000Z</time>
      </trkpt>
      <trkpt lat="42.56671180017292499542236328125" lon="-8.713432587683200836181640625">
        <ele>30.3999996185302734375</ele>
        <time>2022-11-01T08:28:17.000Z</time>
      </trkpt>
      <trkpt lat="42.56658732891082763671875" lon="-8.71338254772126674652099609375">
        <ele>29.6000003814697265625</ele>
        <time>2022-11-01T08:28:18.000Z</time>
      </trkpt>
      <trkpt lat="42.56646327674388885498046875" lon="-8.71333259157836437225341796875">
        <ele>29.200000762939453125</ele>
        <time>2022-11-01T08:28:19.000Z</time>
      </trkpt>
      <trkpt lat="42.56633729673922061920166015625" lon="-8.71328313834965229034423828125">
        <ele>28.3999996185302734375</ele>
        <time>2022-11-01T08:28:20.000Z</time>
      </trkpt>
      <trkpt lat="42.56621274165809154510498046875" lon="-8.7132346071302890777587890625">
        <ele>28.200000762939453125</ele>
        <time>2022-11-01T08:28:21.000Z</time>
      </trkpt>
      <trkpt lat="42.56608835421502590179443359375" lon="-8.71318909339606761932373046875">
        <ele>27.799999237060546875</ele>
        <time>2022-11-01T08:28:22.000Z</time>
      </trkpt>
      <trkpt lat="42.5659662298858165740966796875" lon="-8.71314316056668758392333984375">
        <ele>27.799999237060546875</ele>
        <time>2022-11-01T08:28:23.000Z</time>
      </trkpt>
      <trkpt lat="42.5658416748046875" lon="-8.71309370733797550201416015625">
        <ele>27.3999996185302734375</ele>
        <time>2022-11-01T08:28:24.000Z</time>
      </trkpt>
      <trkpt lat="42.56571955047547817230224609375" lon="-8.713042996823787689208984375">
        <ele>27.200000762939453125</ele>
        <time>2022-11-01T08:28:25.000Z</time>
      </trkpt>
      <trkpt lat="42.56559750996530055999755859375" lon="-8.71299580670893192291259765625">
        <ele>27</ele>
        <time>2022-11-01T08:28:26.000Z</time>
      </trkpt>
      <trkpt lat="42.56547697819769382476806640625" lon="-8.71295012533664703369140625">
        <ele>26.799999237060546875</ele>
        <time>2022-11-01T08:28:27.000Z</time>
      </trkpt>
      <trkpt lat="42.56535963155329227447509765625" lon="-8.71290662325918674468994140625">
        <ele>26.799999237060546875</ele>
        <time>2022-11-01T08:28:28.000Z</time>
      </trkpt>
      <trkpt lat="42.56524563767015933990478515625" lon="-8.71286295354366302490234375">
        <ele>26.799999237060546875</ele>
        <time>2022-11-01T08:28:29.000Z</time>
      </trkpt>
      <trkpt lat="42.56513290107250213623046875" lon="-8.71281727217137813568115234375">
        <ele>26.6000003814697265625</ele>
        <time>2022-11-01T08:28:30.000Z</time>
      </trkpt>
      <trkpt lat="42.56502418778836727142333984375" lon="-8.712772764265537261962890625">
        <ele>26.6000003814697265625</ele>
        <time>2022-11-01T08:28:31.000Z</time>
      </trkpt>
      <trkpt lat="42.56491756998002529144287109375" lon="-8.71273177675902843475341796875">
        <ele>26.6000003814697265625</ele>
        <time>2022-11-01T08:28:32.000Z</time>
      </trkpt>
      <trkpt lat="42.56481095217168331146240234375" lon="-8.7126924656331539154052734375">
        <ele>26.6000003814697265625</ele>
        <time>2022-11-01T08:28:33.000Z</time>
      </trkpt>
      <trkpt lat="42.5647076033055782318115234375" lon="-8.71265533380210399627685546875">
        <ele>26.6000003814697265625</ele>
        <time>2022-11-01T08:28:34.000Z</time>
      </trkpt>
      <trkpt lat="42.5646066851913928985595703125" lon="-8.71261811815202236175537109375">
        <ele>26.6000003814697265625</ele>
        <time>2022-11-01T08:28:35.000Z</time>
      </trkpt>
      <trkpt lat="42.5645061023533344268798828125" lon="-8.7125778011977672576904296875">
        <ele>26.6000003814697265625</ele>
        <time>2022-11-01T08:28:36.000Z</time>
      </trkpt>
      <trkpt lat="42.56440627388656139373779296875" lon="-8.71253714896738529205322265625">
        <ele>26.799999237060546875</ele>
        <time>2022-11-01T08:28:37.000Z</time>
      </trkpt>
      <trkpt lat="42.56430803798139095306396484375" lon="-8.712499849498271942138671875">
        <ele>26.799999237060546875</ele>
        <time>2022-11-01T08:28:38.000Z</time>
      </trkpt>
      <trkpt lat="42.564209215342998504638671875" lon="-8.71246238239109516143798828125">
        <ele>27</ele>
        <time>2022-11-01T08:28:39.000Z</time>
      </trkpt>
      <trkpt lat="42.56411257199943065643310546875" lon="-8.71242307126522064208984375">
        <ele>27.200000762939453125</ele>
        <time>2022-11-01T08:28:40.000Z</time>
      </trkpt>
      <trkpt lat="42.564018778502941131591796875" lon="-8.71238443069159984588623046875">
        <ele>27.3999996185302734375</ele>
        <time>2022-11-01T08:28:41.000Z</time>
      </trkpt>
      <trkpt lat="42.56392565555870532989501953125" lon="-8.71234587393701076507568359375">
        <ele>27.6000003814697265625</ele>
        <time>2022-11-01T08:28:42.000Z</time>
      </trkpt>
      <trkpt lat="42.56383311934769153594970703125" lon="-8.7123070657253265380859375">
        <ele>27.799999237060546875</ele>
        <time>2022-11-01T08:28:43.000Z</time>
      </trkpt>
      <trkpt lat="42.5637423433363437652587890625" lon="-8.71227010153234004974365234375">
        <ele>28</ele>
        <time>2022-11-01T08:28:44.000Z</time>
      </trkpt>
      <trkpt lat="42.5636531598865985870361328125" lon="-8.71223271824419498443603515625">
        <ele>28.200000762939453125</ele>
        <time>2022-11-01T08:28:45.000Z</time>
      </trkpt>
      <trkpt lat="42.5635643117129802703857421875" lon="-8.71219768188893795013427734375">
        <ele>28.200000762939453125</ele>
        <time>2022-11-01T08:28:46.000Z</time>
      </trkpt>
      <trkpt lat="42.56347504444420337677001953125" lon="-8.712162561714649200439453125">
        <ele>28.3999996185302734375</ele>
        <time>2022-11-01T08:28:47.000Z</time>
      </trkpt>
      <trkpt lat="42.5633866153657436370849609375" lon="-8.7121268548071384429931640625">
        <ele>28.3999996185302734375</ele>
        <time>2022-11-01T08:28:48.000Z</time>
      </trkpt>
      <trkpt lat="42.563299275934696197509765625" lon="-8.71209240518510341644287109375">
        <ele>28.6000003814697265625</ele>
        <time>2022-11-01T08:28:49.000Z</time>
      </trkpt>
      <trkpt lat="42.56321084685623645782470703125" lon="-8.71205938048660755157470703125">
        <ele>28.799999237060546875</ele>
        <time>2022-11-01T08:28:50.000Z</time>
      </trkpt>
      <trkpt lat="42.56312392652034759521484375" lon="-8.71202534995973110198974609375">
        <ele>28.799999237060546875</ele>
        <time>2022-11-01T08:28:51.000Z</time>
      </trkpt>
      <trkpt lat="42.56303767673671245574951171875" lon="-8.71198989450931549072265625">
        <ele>28.799999237060546875</ele>
        <time>2022-11-01T08:28:52.000Z</time>
      </trkpt>
      <trkpt lat="42.562951929867267608642578125" lon="-8.7119545228779315948486328125">
        <ele>28.799999237060546875</ele>
        <time>2022-11-01T08:28:53.000Z</time>
      </trkpt>
      <trkpt lat="42.56286509335041046142578125" lon="-8.71191940270364284515380859375">
        <ele>29</ele>
        <time>2022-11-01T08:28:54.000Z</time>
      </trkpt>
      <trkpt lat="42.56278018467128276824951171875" lon="-8.71188553981482982635498046875">
        <ele>29.3999996185302734375</ele>
        <time>2022-11-01T08:28:55.000Z</time>
      </trkpt>
      <trkpt lat="42.56269535981118679046630859375" lon="-8.711852096021175384521484375">
        <ele>29.3999996185302734375</ele>
        <time>2022-11-01T08:28:56.000Z</time>
      </trkpt>
      <trkpt lat="42.5626081041991710662841796875" lon="-8.71181999333202838897705078125">
        <ele>29.799999237060546875</ele>
        <time>2022-11-01T08:28:57.000Z</time>
      </trkpt>
      <trkpt lat="42.5625232793390750885009765625" lon="-8.7117865495383739471435546875">
        <ele>29.799999237060546875</ele>
        <time>2022-11-01T08:28:58.000Z</time>
      </trkpt>
      <trkpt lat="42.5624374486505985260009765625" lon="-8.711750172078609466552734375">
        <ele>30</ele>
        <time>2022-11-01T08:28:59.000Z</time>
      </trkpt>
      <trkpt lat="42.5623486004769802093505859375" lon="-8.7117064185440540313720703125">
        <ele>30</ele>
        <time>2022-11-01T08:29:00.000Z</time>
      </trkpt>
      <trkpt lat="42.5622584111988544464111328125" lon="-8.711655624210834503173828125">
        <ele>30</ele>
        <time>2022-11-01T08:29:01.000Z</time>
      </trkpt>
      <trkpt lat="42.56216746754944324493408203125" lon="-8.7116028182208538055419921875">
        <ele>30</ele>
        <time>2022-11-01T08:29:02.000Z</time>
      </trkpt>
      <trkpt lat="42.5620756857097148895263671875" lon="-8.7115466594696044921875">
        <ele>30</ele>
        <time>2022-11-01T08:29:03.000Z</time>
      </trkpt>
      <trkpt lat="42.5619831494987010955810546875" lon="-8.7114834599196910858154296875">
        <ele>29.799999237060546875</ele>
        <time>2022-11-01T08:29:04.000Z</time>
      </trkpt>
      <trkpt lat="42.56189145147800445556640625" lon="-8.711412884294986724853515625">
        <ele>29.6000003814697265625</ele>
        <time>2022-11-01T08:29:05.000Z</time>
      </trkpt>
      <trkpt lat="42.56179832853376865386962890625" lon="-8.7113372795283794403076171875">
        <ele>29.3999996185302734375</ele>
        <time>2022-11-01T08:29:06.000Z</time>
      </trkpt>
      <trkpt lat="42.56170277483761310577392578125" lon="-8.711259663105010986328125">
        <ele>29</ele>
        <time>2022-11-01T08:29:07.000Z</time>
      </trkpt>
      <trkpt lat="42.561604119837284088134765625" lon="-8.71118254959583282470703125">
        <ele>28.3999996185302734375</ele>
        <time>2022-11-01T08:29:08.000Z</time>
      </trkpt>
      <trkpt lat="42.5615026988089084625244140625" lon="-8.71110568754374980926513671875">
        <ele>28.200000762939453125</ele>
        <time>2022-11-01T08:29:09.000Z</time>
      </trkpt>
      <trkpt lat="42.56139985285699367523193359375" lon="-8.7110276520252227783203125">
        <ele>27</ele>
        <time>2022-11-01T08:29:10.000Z</time>
      </trkpt>
      <trkpt lat="42.56129507906734943389892578125" lon="-8.71094928123056888580322265625">
        <ele>26</ele>
        <time>2022-11-01T08:29:11.000Z</time>
      </trkpt>
      <trkpt lat="42.56118779070675373077392578125" lon="-8.71086630038917064666748046875">
        <ele>25.799999237060546875</ele>
        <time>2022-11-01T08:29:12.000Z</time>
      </trkpt>
      <trkpt lat="42.56108083762228488922119140625" lon="-8.71078155934810638427734375">
        <ele>25.200000762939453125</ele>
        <time>2022-11-01T08:29:13.000Z</time>
      </trkpt>
      <trkpt lat="42.5609732978045940399169921875" lon="-8.71069430373609066009521484375">
        <ele>24.799999237060546875</ele>
        <time>2022-11-01T08:29:14.000Z</time>
      </trkpt>
      <trkpt lat="42.56086684763431549072265625" lon="-8.71060855686664581298828125">
        <ele>23.799999237060546875</ele>
        <time>2022-11-01T08:29:15.000Z</time>
      </trkpt>
      <trkpt lat="42.5607563741505146026611328125" lon="-8.71052280999720096588134765625">
        <ele>23.3999996185302734375</ele>
        <time>2022-11-01T08:29:16.000Z</time>
      </trkpt>
      <trkpt lat="42.56064900197088718414306640625" lon="-8.7104380689561367034912109375">
        <ele>22.200000762939453125</ele>
        <time>2022-11-01T08:29:17.000Z</time>
      </trkpt>
      <trkpt lat="42.56054020486772060394287109375" lon="-8.7103529088199138641357421875">
        <ele>21.200000762939453125</ele>
        <time>2022-11-01T08:29:18.000Z</time>
      </trkpt>
      <trkpt lat="42.5604308210313320159912109375" lon="-8.71026649139821529388427734375">
        <ele>19.6000003814697265625</ele>
        <time>2022-11-01T08:29:19.000Z</time>
      </trkpt>
      <trkpt lat="42.56031967699527740478515625" lon="-8.7101792357861995697021484375">
        <ele>19.200000762939453125</ele>
        <time>2022-11-01T08:29:20.000Z</time>
      </trkpt>
      <trkpt lat="42.56020979024469852447509765625" lon="-8.7100917287170886993408203125">
        <ele>18.799999237060546875</ele>
        <time>2022-11-01T08:29:21.000Z</time>
      </trkpt>
      <trkpt lat="42.5600995682179927825927734375" lon="-8.710004054009914398193359375">
        <ele>18.200000762939453125</ele>
        <time>2022-11-01T08:29:22.000Z</time>
      </trkpt>
      <trkpt lat="42.55999001674354076385498046875" lon="-8.70991746895015239715576171875">
        <ele>18</ele>
        <time>2022-11-01T08:29:23.000Z</time>
      </trkpt>
      <trkpt lat="42.55988323129713535308837890625" lon="-8.70983163826167583465576171875">
        <ele>17.3999996185302734375</ele>
        <time>2022-11-01T08:29:24.000Z</time>
      </trkpt>
      <trkpt lat="42.559777200222015380859375" lon="-8.70974681340157985687255859375">
        <ele>17.3999996185302734375</ele>
        <time>2022-11-01T08:29:25.000Z</time>
      </trkpt>
      <trkpt lat="42.55967284552752971649169921875" lon="-8.7096645869314670562744140625">
        <ele>16.799999237060546875</ele>
        <time>2022-11-01T08:29:26.000Z</time>
      </trkpt>
      <trkpt lat="42.55957108922302722930908203125" lon="-8.709585629403591156005859375">
        <ele>16.6000003814697265625</ele>
        <time>2022-11-01T08:29:27.000Z</time>
      </trkpt>
      <trkpt lat="42.5594709254801273345947265625" lon="-8.709508515894412994384765625">
        <ele>15.80000019073486328125</ele>
        <time>2022-11-01T08:29:28.000Z</time>
      </trkpt>
      <trkpt lat="42.55937159992754459381103515625" lon="-8.70943198911845684051513671875">
        <ele>15.3999996185302734375</ele>
        <time>2022-11-01T08:29:29.000Z</time>
      </trkpt>
      <trkpt lat="42.559275291860103607177734375" lon="-8.7093588151037693023681640625">
        <ele>15</ele>
        <time>2022-11-01T08:29:30.000Z</time>
      </trkpt>
      <trkpt lat="42.5591785646975040435791015625" lon="-8.7092868983745574951171875">
        <ele>15</ele>
        <time>2022-11-01T08:29:31.000Z</time>
      </trkpt>
      <trkpt lat="42.55908208899199962615966796875" lon="-8.70921523310244083404541015625">
        <ele>14.80000019073486328125</ele>
        <time>2022-11-01T08:29:32.000Z</time>
      </trkpt>
      <trkpt lat="42.55898888222873210906982421875" lon="-8.70914264582097530364990234375">
        <ele>14.80000019073486328125</ele>
        <time>2022-11-01T08:29:33.000Z</time>
      </trkpt>
      <trkpt lat="42.558895088732242584228515625" lon="-8.70907005853950977325439453125">
        <ele>14.80000019073486328125</ele>
        <time>2022-11-01T08:29:34.000Z</time>
      </trkpt>
      <trkpt lat="42.55880422890186309814453125" lon="-8.70899696834385395050048828125">
        <ele>14.80000019073486328125</ele>
        <time>2022-11-01T08:29:35.000Z</time>
      </trkpt>
      <trkpt lat="42.5587145425379276275634765625" lon="-8.70892538689076900482177734375">
        <ele>14.80000019073486328125</ele>
        <time>2022-11-01T08:29:36.000Z</time>
      </trkpt>
      <trkpt lat="42.5586270354688167572021484375" lon="-8.7088559009134769439697265625">
        <ele>14.80000019073486328125</ele>
        <time>2022-11-01T08:29:37.000Z</time>
      </trkpt>
      <trkpt lat="42.55853860639035701751708984375" lon="-8.708787001669406890869140625">
        <ele>15</ele>
        <time>2022-11-01T08:29:38.000Z</time>
      </trkpt>
      <trkpt lat="42.55845059640705585479736328125" lon="-8.70872019790112972259521484375">
        <ele>15.19999980926513671875</ele>
        <time>2022-11-01T08:29:39.000Z</time>
      </trkpt>
      <trkpt lat="42.5583650171756744384765625" lon="-8.7086554057896137237548828125">
        <ele>15.3999996185302734375</ele>
        <time>2022-11-01T08:29:40.000Z</time>
      </trkpt>
      <trkpt lat="42.5582793541252613067626953125" lon="-8.708588182926177978515625">
        <ele>15.3999996185302734375</ele>
        <time>2022-11-01T08:29:41.000Z</time>
      </trkpt>
      <trkpt lat="42.55819494836032390594482421875" lon="-8.7085206247866153717041015625">
        <ele>15.3999996185302734375</ele>
        <time>2022-11-01T08:29:42.000Z</time>
      </trkpt>
      <trkpt lat="42.55811112932860851287841796875" lon="-8.70845298282802104949951171875">
        <ele>15.3999996185302734375</ele>
        <time>2022-11-01T08:29:43.000Z</time>
      </trkpt>
      <trkpt lat="42.5580265559256076812744140625" lon="-8.70838408358395099639892578125">
        <ele>15.3999996185302734375</ele>
        <time>2022-11-01T08:29:44.000Z</time>
      </trkpt>
      <trkpt lat="42.5579413957893848419189453125" lon="-8.70831795036792755126953125">
        <ele>15.3999996185302734375</ele>
        <time>2022-11-01T08:29:45.000Z</time>
      </trkpt>
      <trkpt lat="42.5578572414815425872802734375" lon="-8.7082530744373798370361328125">
        <ele>15.19999980926513671875</ele>
        <time>2022-11-01T08:29:46.000Z</time>
      </trkpt>
      <trkpt lat="42.55777434445917606353759765625" lon="-8.7081890366971492767333984375">
        <ele>15.19999980926513671875</ele>
        <time>2022-11-01T08:29:47.000Z</time>
      </trkpt>
      <trkpt lat="42.5576922856271266937255859375" lon="-8.70812357403337955474853515625">
        <ele>15.19999980926513671875</ele>
        <time>2022-11-01T08:29:48.000Z</time>
      </trkpt>
      <trkpt lat="42.55761123262345790863037109375" lon="-8.70805911719799041748046875">
        <ele>15.19999980926513671875</ele>
        <time>2022-11-01T08:29:49.000Z</time>
      </trkpt>
      <trkpt lat="42.55752925761044025421142578125" lon="-8.707995750010013580322265625">
        <ele>15.19999980926513671875</ele>
        <time>2022-11-01T08:29:50.000Z</time>
      </trkpt>
      <trkpt lat="42.557448707520961761474609375" lon="-8.70793146081268787384033203125">
        <ele>15.19999980926513671875</ele>
        <time>2022-11-01T08:29:51.000Z</time>
      </trkpt>
      <trkpt lat="42.55736966617405414581298828125" lon="-8.707872368395328521728515625">
        <ele>15.19999980926513671875</ele>
        <time>2022-11-01T08:29:52.000Z</time>
      </trkpt>
      <trkpt lat="42.5572909601032733917236328125" lon="-8.70781109668314456939697265625">
        <ele>15.19999980926513671875</ele>
        <time>2022-11-01T08:29:53.000Z</time>
      </trkpt>
      <trkpt lat="42.55721225403249263763427734375" lon="-8.7077501602470874786376953125">
        <ele>15.19999980926513671875</ele>
        <time>2022-11-01T08:29:54.000Z</time>
      </trkpt>
      <trkpt lat="42.55713212303817272186279296875" lon="-8.70768897235393524169921875">
        <ele>15</ele>
        <time>2022-11-01T08:29:55.000Z</time>
      </trkpt>
      <trkpt lat="42.5570488907396793365478515625" lon="-8.70762920938432216644287109375">
        <ele>15</ele>
        <time>2022-11-01T08:29:56.000Z</time>
      </trkpt>
      <trkpt lat="42.556966580450534820556640625" lon="-8.70756827294826507568359375">
        <ele>15</ele>
        <time>2022-11-01T08:29:57.000Z</time>
      </trkpt>
      <trkpt lat="42.5568862818181514739990234375" lon="-8.70750901289284229278564453125">
        <ele>15.19999980926513671875</ele>
        <time>2022-11-01T08:29:58.000Z</time>
      </trkpt>
      <trkpt lat="42.556806318461894989013671875" lon="-8.70745268650352954864501953125">
        <ele>15.19999980926513671875</ele>
        <time>2022-11-01T08:29:59.000Z</time>
      </trkpt>
      <trkpt lat="42.5567261874675750732421875" lon="-8.7073932588100433349609375">
        <ele>15.19999980926513671875</ele>
        <time>2022-11-01T08:30:00.000Z</time>
      </trkpt>
      <trkpt lat="42.5566452182829380035400390625" lon="-8.7073391117155551910400390625">
        <ele>15.19999980926513671875</ele>
        <time>2022-11-01T08:30:01.000Z</time>
      </trkpt>
      <trkpt lat="42.55656148307025432586669921875" lon="-8.7072868086397647857666015625">
        <ele>15.19999980926513671875</ele>
        <time>2022-11-01T08:30:02.000Z</time>
      </trkpt>
      <trkpt lat="42.55647741258144378662109375" lon="-8.7072365172207355499267578125">
        <ele>15.19999980926513671875</ele>
        <time>2022-11-01T08:30:03.000Z</time>
      </trkpt>
      <trkpt lat="42.55639493465423583984375" lon="-8.70718966238200664520263671875">
        <ele>15.19999980926513671875</ele>
        <time>2022-11-01T08:30:04.000Z</time>
      </trkpt>
      <trkpt lat="42.5563104450702667236328125" lon="-8.70714440010488033294677734375">
        <ele>15.19999980926513671875</ele>
        <time>2022-11-01T08:30:05.000Z</time>
      </trkpt>
      <trkpt lat="42.55622662603855133056640625" lon="-8.707100562751293182373046875">
        <ele>15.19999980926513671875</ele>
        <time>2022-11-01T08:30:06.000Z</time>
      </trkpt>
      <trkpt lat="42.55614138208329677581787109375" lon="-8.7070618383586406707763671875">
        <ele>15.19999980926513671875</ele>
        <time>2022-11-01T08:30:07.000Z</time>
      </trkpt>
      <trkpt lat="42.55605538375675678253173828125" lon="-8.70702655054628849029541015625">
        <ele>15.19999980926513671875</ele>
        <time>2022-11-01T08:30:08.000Z</time>
      </trkpt>
      <trkpt lat="42.5559719838201999664306640625" lon="-8.706995286047458648681640625">
        <ele>15.19999980926513671875</ele>
        <time>2022-11-01T08:30:09.000Z</time>
      </trkpt>
      <trkpt lat="42.55588539876043796539306640625" lon="-8.70696418918669223785400390625">
        <ele>15.19999980926513671875</ele>
        <time>2022-11-01T08:30:10.000Z</time>
      </trkpt>
      <trkpt lat="42.55579856224358081817626953125" lon="-8.70693166740238666534423828125">
        <ele>15.19999980926513671875</ele>
        <time>2022-11-01T08:30:11.000Z</time>
      </trkpt>
      <trkpt lat="42.555710971355438232421875" lon="-8.70690040290355682373046875">
        <ele>15.19999980926513671875</ele>
        <time>2022-11-01T08:30:12.000Z</time>
      </trkpt>
      <trkpt lat="42.55562287755310535430908203125" lon="-8.70686980895698070526123046875">
        <ele>15.19999980926513671875</ele>
        <time>2022-11-01T08:30:13.000Z</time>
      </trkpt>
      <trkpt lat="42.55553553812205791473388671875" lon="-8.706839047372341156005859375">
        <ele>15</ele>
        <time>2022-11-01T08:30:14.000Z</time>
      </trkpt>
      <trkpt lat="42.555448114871978759765625" lon="-8.70680744759738445281982421875">
        <ele>15</ele>
        <time>2022-11-01T08:30:15.000Z</time>
      </trkpt>
      <trkpt lat="42.555362619459629058837890625" lon="-8.70677526108920574188232421875">
        <ele>15.3999996185302734375</ele>
        <time>2022-11-01T08:30:16.000Z</time>
      </trkpt>
      <trkpt lat="42.5552756153047084808349609375" lon="-8.7067439965903759002685546875">
        <ele>15.6000003814697265625</ele>
        <time>2022-11-01T08:30:17.000Z</time>
      </trkpt>
      <trkpt lat="42.55518919788300991058349609375" lon="-8.70671533048152923583984375">
        <ele>15.6000003814697265625</ele>
        <time>2022-11-01T08:30:18.000Z</time>
      </trkpt>
      <trkpt lat="42.55510370247066020965576171875" lon="-8.70668574236333370208740234375">
        <ele>15.6000003814697265625</ele>
        <time>2022-11-01T08:30:19.000Z</time>
      </trkpt>
      <trkpt lat="42.5550201348960399627685546875" lon="-8.70665305294096469879150390625">
        <ele>15.80000019073486328125</ele>
        <time>2022-11-01T08:30:20.000Z</time>
      </trkpt>
      <trkpt lat="42.55493648350238800048828125" lon="-8.7066219560801982879638671875">
        <ele>15.80000019073486328125</ele>
        <time>2022-11-01T08:30:21.000Z</time>
      </trkpt>
      <trkpt lat="42.55485258065164089202880859375" lon="-8.70659253560006618499755859375">
        <ele>15.80000019073486328125</ele>
        <time>2022-11-01T08:30:22.000Z</time>
      </trkpt>
      <trkpt lat="42.55477043800055980682373046875" lon="-8.70656303130090236663818359375">
        <ele>15.80000019073486328125</ele>
        <time>2022-11-01T08:30:23.000Z</time>
      </trkpt>
      <trkpt lat="42.554686702787876129150390625" lon="-8.70653252117335796356201171875">
        <ele>15.80000019073486328125</ele>
        <time>2022-11-01T08:30:24.000Z</time>
      </trkpt>
      <trkpt lat="42.5546045601367950439453125" lon="-8.7065039388835430145263671875">
        <ele>16</ele>
        <time>2022-11-01T08:30:25.000Z</time>
      </trkpt>
      <trkpt lat="42.55452417768537998199462890625" lon="-8.70647552423179149627685546875">
        <ele>16</ele>
        <time>2022-11-01T08:30:26.000Z</time>
      </trkpt>
      <trkpt lat="42.5544461421668529510498046875" lon="-8.706447780132293701171875">
        <ele>16.200000762939453125</ele>
        <time>2022-11-01T08:30:27.000Z</time>
      </trkpt>
      <trkpt lat="42.55436844192445278167724609375" lon="-8.70641903020441532135009765625">
        <ele>16.3999996185302734375</ele>
        <time>2022-11-01T08:30:28.000Z</time>
      </trkpt>
      <trkpt lat="42.55429141223430633544921875" lon="-8.70639220811426639556884765625">
        <ele>16.3999996185302734375</ele>
        <time>2022-11-01T08:30:29.000Z</time>
      </trkpt>
      <trkpt lat="42.55421589128673076629638671875" lon="-8.70636689476668834686279296875">
        <ele>16.6000003814697265625</ele>
        <time>2022-11-01T08:30:30.000Z</time>
      </trkpt>
      <trkpt lat="42.55413995124399662017822265625" lon="-8.70633982121944427490234375">
        <ele>16.799999237060546875</ele>
        <time>2022-11-01T08:30:31.000Z</time>
      </trkpt>
      <trkpt lat="42.55406610667705535888671875" lon="-8.706311993300914764404296875">
        <ele>17</ele>
        <time>2022-11-01T08:30:32.000Z</time>
      </trkpt>
      <trkpt lat="42.55399360321462154388427734375" lon="-8.7062843330204486846923828125">
        <ele>17.200000762939453125</ele>
        <time>2022-11-01T08:30:33.000Z</time>
      </trkpt>
      <trkpt lat="42.55392369814217090606689453125" lon="-8.70625943876802921295166015625">
        <ele>17.3999996185302734375</ele>
        <time>2022-11-01T08:30:34.000Z</time>
      </trkpt>
      <trkpt lat="42.55385496653616428375244140625" lon="-8.70623613707721233367919921875">
        <ele>17.6000003814697265625</ele>
        <time>2022-11-01T08:30:35.000Z</time>
      </trkpt>
      <trkpt lat="42.55378690548241138458251953125" lon="-8.7062122486531734466552734375">
        <ele>17.799999237060546875</ele>
        <time>2022-11-01T08:30:36.000Z</time>
      </trkpt>
      <trkpt lat="42.553722448647022247314453125" lon="-8.70618886314332485198974609375">
        <ele>18</ele>
        <time>2022-11-01T08:30:37.000Z</time>
      </trkpt>
      <trkpt lat="42.55365706980228424072265625" lon="-8.70616606436669826507568359375">
        <ele>18.3999996185302734375</ele>
        <time>2022-11-01T08:30:38.000Z</time>
      </trkpt>
      <trkpt lat="42.55359244532883167266845703125" lon="-8.70614510960876941680908203125">
        <ele>18.799999237060546875</ele>
        <time>2022-11-01T08:30:39.000Z</time>
      </trkpt>
      <trkpt lat="42.5535278208553791046142578125" lon="-8.70612348429858684539794921875">
        <ele>19</ele>
        <time>2022-11-01T08:30:40.000Z</time>
      </trkpt>
      <trkpt lat="42.55346286110579967498779296875" lon="-8.7061006017029285430908203125">
        <ele>19.3999996185302734375</ele>
        <time>2022-11-01T08:30:41.000Z</time>
      </trkpt>
      <trkpt lat="42.55339681170880794525146484375" lon="-8.70607553981244564056396484375">
        <ele>19.6000003814697265625</ele>
        <time>2022-11-01T08:30:42.000Z</time>
      </trkpt>
      <trkpt lat="42.55333243869245052337646484375" lon="-8.7060548365116119384765625">
        <ele>20</ele>
        <time>2022-11-01T08:30:43.000Z</time>
      </trkpt>
      <trkpt lat="42.5532683171331882476806640625" lon="-8.7060328759253025054931640625">
        <ele>20</ele>
        <time>2022-11-01T08:30:44.000Z</time>
      </trkpt>
      <trkpt lat="42.5532069616019725799560546875" lon="-8.706011585891246795654296875">
        <ele>20.3999996185302734375</ele>
        <time>2022-11-01T08:30:45.000Z</time>
      </trkpt>
      <trkpt lat="42.55314518697559833526611328125" lon="-8.70599155314266681671142578125">
        <ele>20.799999237060546875</ele>
        <time>2022-11-01T08:30:46.000Z</time>
      </trkpt>
      <trkpt lat="42.55308249033987522125244140625" lon="-8.70597101747989654541015625">
        <ele>21.200000762939453125</ele>
        <time>2022-11-01T08:30:47.000Z</time>
      </trkpt>
      <trkpt lat="42.55302180536091327667236328125" lon="-8.70595031417906284332275390625">
        <ele>21.3999996185302734375</ele>
        <time>2022-11-01T08:30:48.000Z</time>
      </trkpt>
      <trkpt lat="42.552960701286792755126953125" lon="-8.70592810213565826416015625">
        <ele>21.6000003814697265625</ele>
        <time>2022-11-01T08:30:49.000Z</time>
      </trkpt>
      <trkpt lat="42.55289942957460880279541015625" lon="-8.70590689592063426971435546875">
        <ele>21.6000003814697265625</ele>
        <time>2022-11-01T08:30:50.000Z</time>
      </trkpt>
      <trkpt lat="42.55283832550048828125" lon="-8.70588694699108600616455078125">
        <ele>21.799999237060546875</ele>
        <time>2022-11-01T08:30:51.000Z</time>
      </trkpt>
      <trkpt lat="42.55277822725474834442138671875" lon="-8.70586481876671314239501953125">
        <ele>22.3999996185302734375</ele>
        <time>2022-11-01T08:30:52.000Z</time>
      </trkpt>
      <trkpt lat="42.552717290818691253662109375" lon="-8.7058427743613719940185546875">
        <ele>22.6000003814697265625</ele>
        <time>2022-11-01T08:30:53.000Z</time>
      </trkpt>
      <trkpt lat="42.5526564382016658782958984375" lon="-8.7058216519653797149658203125">
        <ele>23</ele>
        <time>2022-11-01T08:30:54.000Z</time>
      </trkpt>
      <trkpt lat="42.5525944121181964874267578125" lon="-8.70580136775970458984375">
        <ele>23.200000762939453125</ele>
        <time>2022-11-01T08:30:55.000Z</time>
      </trkpt>
      <trkpt lat="42.55253188312053680419921875" lon="-8.705779574811458587646484375">
        <ele>23.3999996185302734375</ele>
        <time>2022-11-01T08:30:56.000Z</time>
      </trkpt>
      <trkpt lat="42.5524686835706233978271484375" lon="-8.705756105482578277587890625">
        <ele>23.3999996185302734375</ele>
        <time>2022-11-01T08:30:57.000Z</time>
      </trkpt>
      <trkpt lat="42.5524069927632808685302734375" lon="-8.70573204942047595977783203125">
        <ele>23.6000003814697265625</ele>
        <time>2022-11-01T08:30:58.000Z</time>
      </trkpt>
      <trkpt lat="42.55234337411820888519287109375" lon="-8.70570824481546878814697265625">
        <ele>23.6000003814697265625</ele>
        <time>2022-11-01T08:30:59.000Z</time>
      </trkpt>
      <trkpt lat="42.55227698944509029388427734375" lon="-8.7056838534772396087646484375">
        <ele>24</ele>
        <time>2022-11-01T08:31:00.000Z</time>
      </trkpt>
      <trkpt lat="42.55221001803874969482421875" lon="-8.70566046796739101409912109375">
        <ele>24</ele>
        <time>2022-11-01T08:31:01.000Z</time>
      </trkpt>
      <trkpt lat="42.552144639194011688232421875" lon="-8.70563699863851070404052734375">
        <ele>24.200000762939453125</ele>
        <time>2022-11-01T08:31:02.000Z</time>
      </trkpt>
      <trkpt lat="42.55207951180636882781982421875" lon="-8.70561721734702587127685546875">
        <ele>24.200000762939453125</ele>
        <time>2022-11-01T08:31:03.000Z</time>
      </trkpt>
      <trkpt lat="42.55201480351388454437255859375" lon="-8.7055980227887630462646484375">
        <ele>24.3999996185302734375</ele>
        <time>2022-11-01T08:31:04.000Z</time>
      </trkpt>
      <trkpt lat="42.55195177160203456878662109375" lon="-8.70557849295437335968017578125">
        <ele>24.799999237060546875</ele>
        <time>2022-11-01T08:31:05.000Z</time>
      </trkpt>
      <trkpt lat="42.5518856383860111236572265625" lon="-8.7055586278438568115234375">
        <ele>25</ele>
        <time>2022-11-01T08:31:06.000Z</time>
      </trkpt>
      <trkpt lat="42.5518185831606388092041015625" lon="-8.7055396847426891326904296875">
        <ele>25.200000762939453125</ele>
        <time>2022-11-01T08:31:07.000Z</time>
      </trkpt>
      <trkpt lat="42.5517511926591396331787109375" lon="-8.70551998727023601531982421875">
        <ele>25.3999996185302734375</ele>
        <time>2022-11-01T08:31:08.000Z</time>
      </trkpt>
      <trkpt lat="42.55168237723410129547119140625" lon="-8.705501295626163482666015625">
        <ele>25.3999996185302734375</ele>
        <time>2022-11-01T08:31:09.000Z</time>
      </trkpt>
      <trkpt lat="42.5516123883426189422607421875" lon="-8.70548176579177379608154296875">
        <ele>25.3999996185302734375</ele>
        <time>2022-11-01T08:31:10.000Z</time>
      </trkpt>
      <trkpt lat="42.55154374055564403533935546875" lon="-8.70546299032866954803466796875">
        <ele>25.6000003814697265625</ele>
        <time>2022-11-01T08:31:11.000Z</time>
      </trkpt>
      <trkpt lat="42.55147635005414485931396484375" lon="-8.70544664561748504638671875">
        <ele>25.6000003814697265625</ele>
        <time>2022-11-01T08:31:12.000Z</time>
      </trkpt>
      <trkpt lat="42.5514058582484722137451171875" lon="-8.70543180964887142181396484375">
        <ele>25.6000003814697265625</ele>
        <time>2022-11-01T08:31:13.000Z</time>
      </trkpt>
      <trkpt lat="42.55133469589054584503173828125" lon="-8.70541906915605068206787109375">
        <ele>25.799999237060546875</ele>
        <time>2022-11-01T08:31:14.000Z</time>
      </trkpt>
      <trkpt lat="42.55126428790390491485595703125" lon="-8.7054072506725788116455078125">
        <ele>25.799999237060546875</ele>
        <time>2022-11-01T08:31:15.000Z</time>
      </trkpt>
      <trkpt lat="42.55119354464113712310791015625" lon="-8.7053923308849334716796875">
        <ele>26</ele>
        <time>2022-11-01T08:31:16.000Z</time>
      </trkpt>
      <trkpt lat="42.551124393939971923828125" lon="-8.70537020266056060791015625">
        <ele>26</ele>
        <time>2022-11-01T08:31:17.000Z</time>
      </trkpt>
      <trkpt lat="42.55105800926685333251953125" lon="-8.7053425423800945281982421875">
        <ele>26.3999996185302734375</ele>
        <time>2022-11-01T08:31:18.000Z</time>
      </trkpt>
      <trkpt lat="42.55099095404148101806640625" lon="-8.7053059972822666168212890625">
        <ele>26.3999996185302734375</ele>
        <time>2022-11-01T08:31:19.000Z</time>
      </trkpt>
      <trkpt lat="42.55092565901577472686767578125" lon="-8.70526668615639209747314453125">
        <ele>26.6000003814697265625</ele>
        <time>2022-11-01T08:31:20.000Z</time>
      </trkpt>
      <trkpt lat="42.550861537456512451171875" lon="-8.7052248604595661163330078125">
        <ele>26.6000003814697265625</ele>
        <time>2022-11-01T08:31:21.000Z</time>
      </trkpt>
      <trkpt lat="42.5507973320782184600830078125" lon="-8.7051846273243427276611328125">
        <ele>26.6000003814697265625</ele>
        <time>2022-11-01T08:31:22.000Z</time>
      </trkpt>
      <trkpt lat="42.55073270760476589202880859375" lon="-8.70514900423586368560791015625">
        <ele>26.799999237060546875</ele>
        <time>2022-11-01T08:31:23.000Z</time>
      </trkpt>
      <trkpt lat="42.5506672449409961700439453125" lon="-8.70511732064187526702880859375">
        <ele>27.200000762939453125</ele>
        <time>2022-11-01T08:31:24.000Z</time>
      </trkpt>
      <trkpt lat="42.55060295574367046356201171875" lon="-8.70508865453302860260009765625">
        <ele>27.6000003814697265625</ele>
        <time>2022-11-01T08:31:25.000Z</time>
      </trkpt>
      <trkpt lat="42.55053900182247161865234375" lon="-8.705062083899974822998046875">
        <ele>27.6000003814697265625</ele>
        <time>2022-11-01T08:31:26.000Z</time>
      </trkpt>
      <trkpt lat="42.55047638900578022003173828125" lon="-8.70503668673336505889892578125">
        <ele>28</ele>
        <time>2022-11-01T08:31:27.000Z</time>
      </trkpt>
      <trkpt lat="42.55041386000812053680419921875" lon="-8.7050122953951358795166015625">
        <ele>28</ele>
        <time>2022-11-01T08:31:28.000Z</time>
      </trkpt>
      <trkpt lat="42.55035367794334888458251953125" lon="-8.70498857460916042327880859375">
        <ele>28.3999996185302734375</ele>
        <time>2022-11-01T08:31:29.000Z</time>
      </trkpt>
      <trkpt lat="42.55029466934502124786376953125" lon="-8.7049653567373752593994140625">
        <ele>28.3999996185302734375</ele>
        <time>2022-11-01T08:31:30.000Z</time>
      </trkpt>
      <trkpt lat="42.5502357445657253265380859375" lon="-8.70494482107460498809814453125">
        <ele>28.6000003814697265625</ele>
        <time>2022-11-01T08:31:31.000Z</time>
      </trkpt>
      <trkpt lat="42.55017816089093685150146484375" lon="-8.704924620687961578369140625">
        <ele>28.6000003814697265625</ele>
        <time>2022-11-01T08:31:32.000Z</time>
      </trkpt>
      <trkpt lat="42.55012057721614837646484375" lon="-8.7049043364822864532470703125">
        <ele>29</ele>
        <time>2022-11-01T08:31:33.000Z</time>
      </trkpt>
      <trkpt lat="42.5500637479126453399658203125" lon="-8.704885058104991912841796875">
        <ele>29.200000762939453125</ele>
        <time>2022-11-01T08:31:34.000Z</time>
      </trkpt>
      <trkpt lat="42.5500050745904445648193359375" lon="-8.7048657797276973724365234375">
        <ele>29.6000003814697265625</ele>
        <time>2022-11-01T08:31:35.000Z</time>
      </trkpt>
      <trkpt lat="42.5499497540295124053955078125" lon="-8.70484717190265655517578125">
        <ele>30.200000762939453125</ele>
        <time>2022-11-01T08:31:36.000Z</time>
      </trkpt>
      <trkpt lat="42.54989652894437313079833984375" lon="-8.7048292346298694610595703125">
        <ele>30.3999996185302734375</ele>
        <time>2022-11-01T08:31:37.000Z</time>
      </trkpt>
      <trkpt lat="42.54984171129763126373291015625" lon="-8.70481138117611408233642578125">
        <ele>30.799999237060546875</ele>
        <time>2022-11-01T08:31:38.000Z</time>
      </trkpt>
      <trkpt lat="42.54978739656507968902587890625" lon="-8.7047943659126758575439453125">
        <ele>31</ele>
        <time>2022-11-01T08:31:39.000Z</time>
      </trkpt>
      <trkpt lat="42.54973442293703556060791015625" lon="-8.70477885939180850982666015625">
        <ele>31.3999996185302734375</ele>
        <time>2022-11-01T08:31:40.000Z</time>
      </trkpt>
      <trkpt lat="42.54968195222318172454833984375" lon="-8.704761005938053131103515625">
        <ele>31.6000003814697265625</ele>
        <time>2022-11-01T08:31:41.000Z</time>
      </trkpt>
      <trkpt lat="42.54962897859513759613037109375" lon="-8.70474231429398059844970703125">
        <ele>31.799999237060546875</ele>
        <time>2022-11-01T08:31:42.000Z</time>
      </trkpt>
      <trkpt lat="42.54957466386258602142333984375" lon="-8.704722113907337188720703125">
        <ele>32.200000762939453125</ele>
        <time>2022-11-01T08:31:43.000Z</time>
      </trkpt>
      <trkpt lat="42.5495192594826221466064453125" lon="-8.704701326787471771240234375">
        <ele>32.59999847412109375</ele>
        <time>2022-11-01T08:31:44.000Z</time>
      </trkpt>
      <trkpt lat="42.5494642741978168487548828125" lon="-8.70468129403889179229736328125">
        <ele>32.799999237060546875</ele>
        <time>2022-11-01T08:31:45.000Z</time>
      </trkpt>
      <trkpt lat="42.54940786398947238922119140625" lon="-8.7046605907380580902099609375">
        <ele>33.200000762939453125</ele>
        <time>2022-11-01T08:31:46.000Z</time>
      </trkpt>
      <trkpt lat="42.54935103468596935272216796875" lon="-8.70463971979916095733642578125">
        <ele>33.59999847412109375</ele>
        <time>2022-11-01T08:31:47.000Z</time>
      </trkpt>
      <trkpt lat="42.5492956303060054779052734375" lon="-8.7046180106699466705322265625">
        <ele>33.799999237060546875</ele>
        <time>2022-11-01T08:31:48.000Z</time>
      </trkpt>
      <trkpt lat="42.549239136278629302978515625" lon="-8.7045978941023349761962890625">
        <ele>34.200000762939453125</ele>
        <time>2022-11-01T08:31:49.000Z</time>
      </trkpt>
      <trkpt lat="42.54918272607028484344482421875" lon="-8.70457920245826244354248046875">
        <ele>34.59999847412109375</ele>
        <time>2022-11-01T08:31:50.000Z</time>
      </trkpt>
      <trkpt lat="42.54912505857646465301513671875" lon="-8.70455958880484104156494140625">
        <ele>34.799999237060546875</ele>
        <time>2022-11-01T08:31:51.000Z</time>
      </trkpt>
      <trkpt lat="42.54906588234007358551025390625" lon="-8.70453645475208759307861328125">
        <ele>35</ele>
        <time>2022-11-01T08:31:52.000Z</time>
      </trkpt>
      <trkpt lat="42.5490069575607776641845703125" lon="-8.70451600290834903717041015625">
        <ele>35.200000762939453125</ele>
        <time>2022-11-01T08:31:53.000Z</time>
      </trkpt>
      <trkpt lat="42.548946104943752288818359375" lon="-8.70449990965425968170166015625">
        <ele>35.200000762939453125</ele>
        <time>2022-11-01T08:31:54.000Z</time>
      </trkpt>
      <trkpt lat="42.54888567142188549041748046875" lon="-8.7044825591146945953369140625">
        <ele>35.40000152587890625</ele>
        <time>2022-11-01T08:31:55.000Z</time>
      </trkpt>
      <trkpt lat="42.548822723329067230224609375" lon="-8.70446386747062206268310546875">
        <ele>35.40000152587890625</ele>
        <time>2022-11-01T08:31:56.000Z</time>
      </trkpt>
      <trkpt lat="42.54876078106462955474853515625" lon="-8.70444349944591522216796875">
        <ele>35.799999237060546875</ele>
        <time>2022-11-01T08:31:57.000Z</time>
      </trkpt>
      <trkpt lat="42.54869624041020870208740234375" lon="-8.7044215388596057891845703125">
        <ele>36</ele>
        <time>2022-11-01T08:31:58.000Z</time>
      </trkpt>
      <trkpt lat="42.54863102920353412628173828125" lon="-8.7044014222919940948486328125">
        <ele>36</ele>
        <time>2022-11-01T08:31:59.000Z</time>
      </trkpt>
      <trkpt lat="42.5485640577971935272216796875" lon="-8.70438490994274616241455078125">
        <ele>36.200000762939453125</ele>
        <time>2022-11-01T08:32:00.000Z</time>
      </trkpt>
      <trkpt lat="42.548498176038265228271484375" lon="-8.70437434874475002288818359375">
        <ele>36.200000762939453125</ele>
        <time>2022-11-01T08:32:01.000Z</time>
      </trkpt>
      <trkpt lat="42.54843086935579776763916015625" lon="-8.70436462573707103729248046875">
        <ele>36.40000152587890625</ele>
        <time>2022-11-01T08:32:02.000Z</time>
      </trkpt>
      <trkpt lat="42.548360712826251983642578125" lon="-8.7043543159961700439453125">
        <ele>36.40000152587890625</ele>
        <time>2022-11-01T08:32:03.000Z</time>
      </trkpt>
      <trkpt lat="42.54829131066799163818359375" lon="-8.70434585027396678924560546875">
        <ele>36.40000152587890625</ele>
        <time>2022-11-01T08:32:04.000Z</time>
      </trkpt>
      <trkpt lat="42.54822081886231899261474609375" lon="-8.70433847419917583465576171875">
        <ele>36.40000152587890625</ele>
        <time>2022-11-01T08:32:05.000Z</time>
      </trkpt>
      <trkpt lat="42.54815049469470977783203125" lon="-8.7043293379247188568115234375">
        <ele>36.40000152587890625</ele>
        <time>2022-11-01T08:32:06.000Z</time>
      </trkpt>
      <trkpt lat="42.54807941615581512451171875" lon="-8.70432020165026187896728515625">
        <ele>36.40000152587890625</ele>
        <time>2022-11-01T08:32:07.000Z</time>
      </trkpt>
      <trkpt lat="42.5480081699788570404052734375" lon="-8.70431282557547092437744140625">
        <ele>36.40000152587890625</ele>
        <time>2022-11-01T08:32:08.000Z</time>
      </trkpt>
      <trkpt lat="42.5479364208877086639404296875" lon="-8.70430511422455310821533203125">
        <ele>36.59999847412109375</ele>
        <time>2022-11-01T08:32:09.000Z</time>
      </trkpt>
      <trkpt lat="42.5478660129010677337646484375" lon="-8.70430025272071361541748046875">
        <ele>36.59999847412109375</ele>
        <time>2022-11-01T08:32:10.000Z</time>
      </trkpt>
      <trkpt lat="42.547795437276363372802734375" lon="-8.7042953073978424072265625">
        <ele>36.59999847412109375</ele>
        <time>2022-11-01T08:32:11.000Z</time>
      </trkpt>
      <trkpt lat="42.5477255322039127349853515625" lon="-8.7042907811701297760009765625">
        <ele>36.59999847412109375</ele>
        <time>2022-11-01T08:32:12.000Z</time>
      </trkpt>
      <trkpt lat="42.5476544536650180816650390625" lon="-8.70428801514208316802978515625">
        <ele>36.59999847412109375</ele>
        <time>2022-11-01T08:32:13.000Z</time>
      </trkpt>
      <trkpt lat="42.54758345894515514373779296875" lon="-8.7042870931327342987060546875">
        <ele>36.799999237060546875</ele>
        <time>2022-11-01T08:32:14.000Z</time>
      </trkpt>
      <trkpt lat="42.5475129671394824981689453125" lon="-8.70428902097046375274658203125">
        <ele>36.799999237060546875</ele>
        <time>2022-11-01T08:32:15.000Z</time>
      </trkpt>
      <trkpt lat="42.54744465462863445281982421875" lon="-8.70429354719817638397216796875">
        <ele>37</ele>
        <time>2022-11-01T08:32:16.000Z</time>
      </trkpt>
      <trkpt lat="42.5473765097558498382568359375" lon="-8.704298324882984161376953125">
        <ele>37</ele>
        <time>2022-11-01T08:32:17.000Z</time>
      </trkpt>
      <trkpt lat="42.547309286892414093017578125" lon="-8.70430226437747478485107421875">
        <ele>37.200000762939453125</ele>
        <time>2022-11-01T08:32:18.000Z</time>
      </trkpt>
      <trkpt lat="42.54724281840026378631591796875" lon="-8.70430360548198223114013671875">
        <ele>37.59999847412109375</ele>
        <time>2022-11-01T08:32:19.000Z</time>
      </trkpt>
      <trkpt lat="42.547178529202938079833984375" lon="-8.7043062038719654083251953125">
        <ele>37.799999237060546875</ele>
        <time>2022-11-01T08:32:20.000Z</time>
      </trkpt>
      <trkpt lat="42.54711273126304149627685546875" lon="-8.70431198738515377044677734375">
        <ele>38</ele>
        <time>2022-11-01T08:32:21.000Z</time>
      </trkpt>
      <trkpt lat="42.547049112617969512939453125" lon="-8.70431718416512012481689453125">
        <ele>38.200000762939453125</ele>
        <time>2022-11-01T08:32:22.000Z</time>
      </trkpt>
      <trkpt lat="42.5469845719635486602783203125" lon="-8.70432238094508647918701171875">
        <ele>38.40000152587890625</ele>
        <time>2022-11-01T08:32:23.000Z</time>
      </trkpt>
      <trkpt lat="42.54691944457590579986572265625" lon="-8.70432925410568714141845703125">
        <ele>39</ele>
        <time>2022-11-01T08:32:24.000Z</time>
      </trkpt>
      <trkpt lat="42.5468548201024532318115234375" lon="-8.7043377198278903961181640625">
        <ele>39</ele>
        <time>2022-11-01T08:32:25.000Z</time>
      </trkpt>
      <trkpt lat="42.5467901118099689483642578125" lon="-8.70434551499783992767333984375">
        <ele>39.200000762939453125</ele>
        <time>2022-11-01T08:32:26.000Z</time>
      </trkpt>
      <trkpt lat="42.54672490060329437255859375" lon="-8.70435372926294803619384765625">
        <ele>39.40000152587890625</ele>
        <time>2022-11-01T08:32:27.000Z</time>
      </trkpt>
      <trkpt lat="42.5466603599488735198974609375" lon="-8.70436110533773899078369140625">
        <ele>39.799999237060546875</ele>
        <time>2022-11-01T08:32:28.000Z</time>
      </trkpt>
      <trkpt lat="42.54659607075154781341552734375" lon="-8.70437116362154483795166015625">
        <ele>40</ele>
        <time>2022-11-01T08:32:29.000Z</time>
      </trkpt>
      <trkpt lat="42.546532452106475830078125" lon="-8.70438180863857269287109375">
        <ele>40.40000152587890625</ele>
        <time>2022-11-01T08:32:30.000Z</time>
      </trkpt>
      <trkpt lat="42.546467743813991546630859375" lon="-8.70439178310334682464599609375">
        <ele>40.59999847412109375</ele>
        <time>2022-11-01T08:32:31.000Z</time>
      </trkpt>
      <trkpt lat="42.54640345461666584014892578125" lon="-8.7044024281203746795654296875">
        <ele>40.799999237060546875</ele>
        <time>2022-11-01T08:32:32.000Z</time>
      </trkpt>
      <trkpt lat="42.54633991979062557220458984375" lon="-8.70441374368965625762939453125">
        <ele>41</ele>
        <time>2022-11-01T08:32:33.000Z</time>
      </trkpt>
      <trkpt lat="42.546279989182949066162109375" lon="-8.70442296378314495086669921875">
        <ele>41.200000762939453125</ele>
        <time>2022-11-01T08:32:34.000Z</time>
      </trkpt>
      <trkpt lat="42.54621553234755992889404296875" lon="-8.70443318970501422882080078125">
        <ele>41.40000152587890625</ele>
        <time>2022-11-01T08:32:35.000Z</time>
      </trkpt>
      <trkpt lat="42.54614965058863162994384765625" lon="-8.70444240979850292205810546875">
        <ele>41.59999847412109375</ele>
        <time>2022-11-01T08:32:36.000Z</time>
      </trkpt>
      <trkpt lat="42.54608544521033763885498046875" lon="-8.70445313863456249237060546875">
        <ele>42</ele>
        <time>2022-11-01T08:32:37.000Z</time>
      </trkpt>
      <trkpt lat="42.546022497117519378662109375" lon="-8.70446470566093921661376953125">
        <ele>42.200000762939453125</ele>
        <time>2022-11-01T08:32:38.000Z</time>
      </trkpt>
      <trkpt lat="42.54595753736793994903564453125" lon="-8.70447493158280849456787109375">
        <ele>42.40000152587890625</ele>
        <time>2022-11-01T08:32:39.000Z</time>
      </trkpt>
      <trkpt lat="42.5458922423422336578369140625" lon="-8.70448247529566287994384765625">
        <ele>42.59999847412109375</ele>
        <time>2022-11-01T08:32:40.000Z</time>
      </trkpt>
      <trkpt lat="42.54582770168781280517578125" lon="-8.704495131969451904296875">
        <ele>42.799999237060546875</ele>
        <time>2022-11-01T08:32:41.000Z</time>
      </trkpt>
      <trkpt lat="42.5457624904811382293701171875" lon="-8.70450678281486034393310546875">
        <ele>43</ele>
        <time>2022-11-01T08:32:42.000Z</time>
      </trkpt>
      <trkpt lat="42.54569719545543193817138671875" lon="-8.704515583813190460205078125">
        <ele>43</ele>
        <time>2022-11-01T08:32:43.000Z</time>
      </trkpt>
      <trkpt lat="42.54563131369650363922119140625" lon="-8.70452673174440860748291015625">
        <ele>43.40000152587890625</ele>
        <time>2022-11-01T08:32:44.000Z</time>
      </trkpt>
      <trkpt lat="42.54556543193757534027099609375" lon="-8.704540394246578216552734375">
        <ele>43.59999847412109375</ele>
        <time>2022-11-01T08:32:45.000Z</time>
      </trkpt>
      <trkpt lat="42.54549854435026645660400390625" lon="-8.7045543082058429718017578125">
        <ele>44</ele>
        <time>2022-11-01T08:32:46.000Z</time>
      </trkpt>
      <trkpt lat="42.545433081686496734619140625" lon="-8.70456864126026630401611328125">
        <ele>44.200000762939453125</ele>
        <time>2022-11-01T08:32:47.000Z</time>
      </trkpt>
      <trkpt lat="42.5453668646514415740966796875" lon="-8.70458473451435565948486328125">
        <ele>44.40000152587890625</ele>
        <time>2022-11-01T08:32:48.000Z</time>
      </trkpt>
      <trkpt lat="42.5453014858067035675048828125" lon="-8.70459965430200099945068359375">
        <ele>44.40000152587890625</ele>
        <time>2022-11-01T08:32:49.000Z</time>
      </trkpt>
      <trkpt lat="42.54523686133325099945068359375" lon="-8.70461289770901203155517578125">
        <ele>44.799999237060546875</ele>
        <time>2022-11-01T08:32:50.000Z</time>
      </trkpt>
      <trkpt lat="42.5451707281172275543212890625" lon="-8.704626560211181640625">
        <ele>45</ele>
        <time>2022-11-01T08:32:51.000Z</time>
      </trkpt>
      <trkpt lat="42.5451053492724895477294921875" lon="-8.70464240200817584991455078125">
        <ele>45.40000152587890625</ele>
        <time>2022-11-01T08:32:52.000Z</time>
      </trkpt>
      <trkpt lat="42.545040138065814971923828125" lon="-8.7046600878238677978515625">
        <ele>45.40000152587890625</ele>
        <time>2022-11-01T08:32:53.000Z</time>
      </trkpt>
      <trkpt lat="42.5449745915830135345458984375" lon="-8.70467710308730602264404296875">
        <ele>45.59999847412109375</ele>
        <time>2022-11-01T08:32:54.000Z</time>
      </trkpt>
      <trkpt lat="42.54490946419537067413330078125" lon="-8.704693280160427093505859375">
        <ele>45.799999237060546875</ele>
        <time>2022-11-01T08:32:55.000Z</time>
      </trkpt>
      <trkpt lat="42.54484467208385467529296875" lon="-8.7047098763287067413330078125">
        <ele>45.799999237060546875</ele>
        <time>2022-11-01T08:32:56.000Z</time>
      </trkpt>
      <trkpt lat="42.54478038288652896881103515625" lon="-8.70472672395408153533935546875">
        <ele>46</ele>
        <time>2022-11-01T08:32:57.000Z</time>
      </trkpt>
      <trkpt lat="42.54471517167985439300537109375" lon="-8.7047423981130123138427734375">
        <ele>46</ele>
        <time>2022-11-01T08:32:58.000Z</time>
      </trkpt>
      <trkpt lat="42.54464979283511638641357421875" lon="-8.70475673116743564605712890625">
        <ele>46.200000762939453125</ele>
        <time>2022-11-01T08:32:59.000Z</time>
      </trkpt>
      <trkpt lat="42.5445839948952198028564453125" lon="-8.70476980693638324737548828125">
        <ele>46.200000762939453125</ele>
        <time>2022-11-01T08:33:00.000Z</time>
      </trkpt>
      <trkpt lat="42.54451819695532321929931640625" lon="-8.70478221215307712554931640625">
        <ele>46.40000152587890625</ele>
        <time>2022-11-01T08:33:01.000Z</time>
      </trkpt>
      <trkpt lat="42.5444525666534900665283203125" lon="-8.70479713194072246551513671875">
        <ele>46.59999847412109375</ele>
        <time>2022-11-01T08:33:02.000Z</time>
      </trkpt>
      <trkpt lat="42.5443881936371326446533203125" lon="-8.7048129737377166748046875">
        <ele>46.799999237060546875</ele>
        <time>2022-11-01T08:33:03.000Z</time>
      </trkpt>
      <trkpt lat="42.5443231500685214996337890625" lon="-8.70482848025858402252197265625">
        <ele>46.799999237060546875</ele>
        <time>2022-11-01T08:33:04.000Z</time>
      </trkpt>
      <trkpt lat="42.54425835795700550079345703125" lon="-8.704843483865261077880859375">
        <ele>47.200000762939453125</ele>
        <time>2022-11-01T08:33:05.000Z</time>
      </trkpt>
      <trkpt lat="42.54419348202645778656005859375" lon="-8.70485932566225528717041015625">
        <ele>47.59999847412109375</ele>
        <time>2022-11-01T08:33:06.000Z</time>
      </trkpt>
      <trkpt lat="42.5441290251910686492919921875" lon="-8.704874999821186065673828125">
        <ele>47.59999847412109375</ele>
        <time>2022-11-01T08:33:07.000Z</time>
      </trkpt>
      <trkpt lat="42.54406490363180637359619140625" lon="-8.704891763627529144287109375">
        <ele>48.200000762939453125</ele>
        <time>2022-11-01T08:33:08.000Z</time>
      </trkpt>
      <trkpt lat="42.5440012849867343902587890625" lon="-8.70490886270999908447265625">
        <ele>48.59999847412109375</ele>
        <time>2022-11-01T08:33:09.000Z</time>
      </trkpt>
      <trkpt lat="42.54393666051328182220458984375" lon="-8.70492629706859588623046875">
        <ele>48.799999237060546875</ele>
        <time>2022-11-01T08:33:10.000Z</time>
      </trkpt>
      <trkpt lat="42.54387103021144866943359375" lon="-8.70494314469397068023681640625">
        <ele>49</ele>
        <time>2022-11-01T08:33:11.000Z</time>
      </trkpt>
      <trkpt lat="42.54380665719509124755859375" lon="-8.7049606628715991973876953125">
        <ele>49</ele>
        <time>2022-11-01T08:33:12.000Z</time>
      </trkpt>
      <trkpt lat="42.5437417812645435333251953125" lon="-8.7049774266779422760009765625">
        <ele>49.200000762939453125</ele>
        <time>2022-11-01T08:33:13.000Z</time>
      </trkpt>
      <trkpt lat="42.5436772406101226806640625" lon="-8.70499377138912677764892578125">
        <ele>49.40000152587890625</ele>
        <time>2022-11-01T08:33:14.000Z</time>
      </trkpt>
      <trkpt lat="42.54361311905086040496826171875" lon="-8.70501036755740642547607421875">
        <ele>49.40000152587890625</ele>
        <time>2022-11-01T08:33:15.000Z</time>
      </trkpt>
      <trkpt lat="42.543549835681915283203125" lon="-8.70502763427793979644775390625">
        <ele>49.59999847412109375</ele>
        <time>2022-11-01T08:33:16.000Z</time>
      </trkpt>
      <trkpt lat="42.5434856303036212921142578125" lon="-8.7050444819033145904541015625">
        <ele>50</ele>
        <time>2022-11-01T08:33:17.000Z</time>
      </trkpt>
      <trkpt lat="42.54342268221080303192138671875" lon="-8.70506082661449909210205078125">
        <ele>50</ele>
        <time>2022-11-01T08:33:18.000Z</time>
      </trkpt>
      <trkpt lat="42.54335814155638217926025390625" lon="-8.7050731480121612548828125">
        <ele>50.40000152587890625</ele>
        <time>2022-11-01T08:33:19.000Z</time>
      </trkpt>
      <trkpt lat="42.5432936847209930419921875" lon="-8.70508496649563312530517578125">
        <ele>50.59999847412109375</ele>
        <time>2022-11-01T08:33:20.000Z</time>
      </trkpt>
      <trkpt lat="42.543229646980762481689453125" lon="-8.7050977908074855804443359375">
        <ele>51</ele>
        <time>2022-11-01T08:33:21.000Z</time>
      </trkpt>
      <trkpt lat="42.54316703416407108306884765625" lon="-8.7051115371286869049072265625">
        <ele>51.200000762939453125</ele>
        <time>2022-11-01T08:33:22.000Z</time>
      </trkpt>
      <trkpt lat="42.54310349933803081512451171875" lon="-8.70512519963085651397705078125">
        <ele>51.40000152587890625</ele>
        <time>2022-11-01T08:33:23.000Z</time>
      </trkpt>
      <trkpt lat="42.5430410541594028472900390625" lon="-8.70513685047626495361328125">
        <ele>51.40000152587890625</ele>
        <time>2022-11-01T08:33:24.000Z</time>
      </trkpt>
      <trkpt lat="42.542978860437870025634765625" lon="-8.70514414273202419281005859375">
        <ele>51.799999237060546875</ele>
        <time>2022-11-01T08:33:25.000Z</time>
      </trkpt>
      <trkpt lat="42.542916834354400634765625" lon="-8.7051490880548954010009765625">
        <ele>51.799999237060546875</ele>
        <time>2022-11-01T08:33:26.000Z</time>
      </trkpt>
      <trkpt lat="42.54285338334739208221435546875" lon="-8.705154620110988616943359375">
        <ele>52</ele>
        <time>2022-11-01T08:33:27.000Z</time>
      </trkpt>
      <trkpt lat="42.54279102198779582977294921875" lon="-8.70516099035739898681640625">
        <ele>52.200000762939453125</ele>
        <time>2022-11-01T08:33:28.000Z</time>
      </trkpt>
      <trkpt lat="42.54272983409464359283447265625" lon="-8.70516912080347537994384765625">
        <ele>52.40000152587890625</ele>
        <time>2022-11-01T08:33:29.000Z</time>
      </trkpt>
      <trkpt lat="42.54266696982085704803466796875" lon="-8.70517951436340808868408203125">
        <ele>52.799999237060546875</ele>
        <time>2022-11-01T08:33:30.000Z</time>
      </trkpt>
      <trkpt lat="42.5426048599183559417724609375" lon="-8.7051909975707530975341796875">
        <ele>53</ele>
        <time>2022-11-01T08:33:31.000Z</time>
      </trkpt>
      <trkpt lat="42.54254073835909366607666015625" lon="-8.70519862510263919830322265625">
        <ele>53.200000762939453125</ele>
        <time>2022-11-01T08:33:32.000Z</time>
      </trkpt>
      <trkpt lat="42.54247586242854595184326171875" lon="-8.70519644580781459808349609375">
        <ele>53.200000762939453125</ele>
        <time>2022-11-01T08:33:33.000Z</time>
      </trkpt>
      <trkpt lat="42.54241031594574451446533203125" lon="-8.70517917908728122711181640625">
        <ele>53.200000762939453125</ele>
        <time>2022-11-01T08:33:34.000Z</time>
      </trkpt>
      <trkpt lat="42.54234259016811847686767578125" lon="-8.70515017770230770111083984375">
        <ele>53.40000152587890625</ele>
        <time>2022-11-01T08:33:35.000Z</time>
      </trkpt>
      <trkpt lat="42.54227436147630214691162109375" lon="-8.70511681772768497467041015625">
        <ele>53.40000152587890625</ele>
        <time>2022-11-01T08:33:36.000Z</time>
      </trkpt>
      <trkpt lat="42.5422048754990100860595703125" lon="-8.70508211664855480194091796875">
        <ele>53.40000152587890625</ele>
        <time>2022-11-01T08:33:37.000Z</time>
      </trkpt>
      <trkpt lat="42.54213706590235233306884765625" lon="-8.70505261234939098358154296875">
        <ele>53.40000152587890625</ele>
        <time>2022-11-01T08:33:38.000Z</time>
      </trkpt>
      <trkpt lat="42.54206783138215541839599609375" lon="-8.7050216831266880035400390625">
        <ele>53.40000152587890625</ele>
        <time>2022-11-01T08:33:39.000Z</time>
      </trkpt>
      <trkpt lat="42.54199750721454620361328125" lon="-8.7049878202378749847412109375">
        <ele>53.40000152587890625</ele>
        <time>2022-11-01T08:33:40.000Z</time>
      </trkpt>
      <trkpt lat="42.5419245846569538116455078125" lon="-8.7049522809684276580810546875">
        <ele>53.59999847412109375</ele>
        <time>2022-11-01T08:33:41.000Z</time>
      </trkpt>
      <trkpt lat="42.54185107536613941192626953125" lon="-8.70492068119347095489501953125">
        <ele>53.59999847412109375</ele>
        <time>2022-11-01T08:33:42.000Z</time>
      </trkpt>
      <trkpt lat="42.54177832044661045074462890625" lon="-8.70488899759948253631591796875">
        <ele>53.59999847412109375</ele>
        <time>2022-11-01T08:33:43.000Z</time>
      </trkpt>
      <trkpt lat="42.54170539788901805877685546875" lon="-8.7048523686826229095458984375">
        <ele>53.59999847412109375</ele>
        <time>2022-11-01T08:33:44.000Z</time>
      </trkpt>
      <trkpt lat="42.54163012839853763580322265625" lon="-8.70481004007160663604736328125">
        <ele>53.59999847412109375</ele>
        <time>2022-11-01T08:33:45.000Z</time>
      </trkpt>
      <trkpt lat="42.54155502654612064361572265625" lon="-8.7047673761844635009765625">
        <ele>53.59999847412109375</ele>
        <time>2022-11-01T08:33:46.000Z</time>
      </trkpt>
      <trkpt lat="42.5414778292179107666015625" lon="-8.70472253300249576568603515625">
        <ele>53.59999847412109375</ele>
        <time>2022-11-01T08:33:47.000Z</time>
      </trkpt>
      <trkpt lat="42.54139845259487628936767578125" lon="-8.70467827655375003814697265625">
        <ele>53.59999847412109375</ele>
        <time>2022-11-01T08:33:48.000Z</time>
      </trkpt>
      <trkpt lat="42.54131966270506381988525390625" lon="-8.70463284663856029510498046875">
        <ele>53.40000152587890625</ele>
        <time>2022-11-01T08:33:49.000Z</time>
      </trkpt>
      <trkpt lat="42.54124112427234649658203125" lon="-8.704585991799831390380859375">
        <ele>53.40000152587890625</ele>
        <time>2022-11-01T08:33:50.000Z</time>
      </trkpt>
      <trkpt lat="42.5411613285541534423828125" lon="-8.70453963987529277801513671875">
        <ele>53.200000762939453125</ele>
        <time>2022-11-01T08:33:51.000Z</time>
      </trkpt>
      <trkpt lat="42.54108010791242122650146484375" lon="-8.70449387468397617340087890625">
        <ele>53</ele>
        <time>2022-11-01T08:33:52.000Z</time>
      </trkpt>
      <trkpt lat="42.54099905490875244140625" lon="-8.70444643311202526092529296875">
        <ele>52.799999237060546875</ele>
        <time>2022-11-01T08:33:53.000Z</time>
      </trkpt>
      <trkpt lat="42.540917582809925079345703125" lon="-8.70439999736845493316650390625">
        <ele>52.59999847412109375</ele>
        <time>2022-11-01T08:33:54.000Z</time>
      </trkpt>
      <trkpt lat="42.540833093225955963134765625" lon="-8.70435188524425029754638671875">
        <ele>52.59999847412109375</ele>
        <time>2022-11-01T08:33:55.000Z</time>
      </trkpt>
      <trkpt lat="42.5407494418323040008544921875" lon="-8.7043041922152042388916015625">
        <ele>52.200000762939453125</ele>
        <time>2022-11-01T08:33:56.000Z</time>
      </trkpt>
      <trkpt lat="42.5406646169722080230712890625" lon="-8.704259432852268218994140625">
        <ele>52</ele>
        <time>2022-11-01T08:33:57.000Z</time>
      </trkpt>
      <trkpt lat="42.54057786427438259124755859375" lon="-8.70421559549868106842041015625">
        <ele>51.799999237060546875</ele>
        <time>2022-11-01T08:33:58.000Z</time>
      </trkpt>
      <trkpt lat="42.54049102775752544403076171875" lon="-8.70416899211704730987548828125">
        <ele>51.799999237060546875</ele>
        <time>2022-11-01T08:33:59.000Z</time>
      </trkpt>
      <trkpt lat="42.54040553234517574310302734375" lon="-8.70411920361220836639404296875">
        <ele>51.40000152587890625</ele>
        <time>2022-11-01T08:34:00.000Z</time>
      </trkpt>
      <trkpt lat="42.5403199531137943267822265625" lon="-8.70406589470803737640380859375">
        <ele>51.40000152587890625</ele>
        <time>2022-11-01T08:34:01.000Z</time>
      </trkpt>
      <trkpt lat="42.54023537971079349517822265625" lon="-8.70401359163224697113037109375">
        <ele>51</ele>
        <time>2022-11-01T08:34:02.000Z</time>
      </trkpt>
      <trkpt lat="42.54015072248876094818115234375" lon="-8.70395944453775882720947265625">
        <ele>50.799999237060546875</ele>
        <time>2022-11-01T08:34:03.000Z</time>
      </trkpt>
      <trkpt lat="42.54006589762866497039794921875" lon="-8.703904710710048675537109375">
        <ele>50.799999237060546875</ele>
        <time>2022-11-01T08:34:04.000Z</time>
      </trkpt>
      <trkpt lat="42.53997973166406154632568359375" lon="-8.70385131798684597015380859375">
        <ele>50.59999847412109375</ele>
        <time>2022-11-01T08:34:05.000Z</time>
      </trkpt>
      <trkpt lat="42.53989306278526782989501953125" lon="-8.70379985310137271881103515625">
        <ele>50.59999847412109375</ele>
        <time>2022-11-01T08:34:06.000Z</time>
      </trkpt>
      <trkpt lat="42.53980656154453754425048828125" lon="-8.70374822057783603668212890625">
        <ele>50.59999847412109375</ele>
        <time>2022-11-01T08:34:07.000Z</time>
      </trkpt>
      <trkpt lat="42.53971955738961696624755859375" lon="-8.70369809679687023162841796875">
        <ele>50.40000152587890625</ele>
        <time>2022-11-01T08:34:08.000Z</time>
      </trkpt>
      <trkpt lat="42.539632134139537811279296875" lon="-8.70364688336849212646484375">
        <ele>50.200000762939453125</ele>
        <time>2022-11-01T08:34:09.000Z</time>
      </trkpt>
      <trkpt lat="42.5395439565181732177734375" lon="-8.70359684340655803680419921875">
        <ele>50</ele>
        <time>2022-11-01T08:34:10.000Z</time>
      </trkpt>
      <trkpt lat="42.53945468924939632415771484375" lon="-8.703544624149799346923828125">
        <ele>49.799999237060546875</ele>
        <time>2022-11-01T08:34:11.000Z</time>
      </trkpt>
      <trkpt lat="42.53936357796192169189453125" lon="-8.70349240489304065704345703125">
        <ele>49.799999237060546875</ele>
        <time>2022-11-01T08:34:12.000Z</time>
      </trkpt>
      <trkpt lat="42.5392703711986541748046875" lon="-8.70344110764563083648681640625">
        <ele>49.59999847412109375</ele>
        <time>2022-11-01T08:34:13.000Z</time>
      </trkpt>
      <trkpt lat="42.53917490132153034210205078125" lon="-8.703388385474681854248046875">
        <ele>49.40000152587890625</ele>
        <time>2022-11-01T08:34:14.000Z</time>
      </trkpt>
      <trkpt lat="42.53907985053956508636474609375" lon="-8.70333197526633739471435546875">
        <ele>49.200000762939453125</ele>
        <time>2022-11-01T08:34:15.000Z</time>
      </trkpt>
      <trkpt lat="42.5389835424721240997314453125" lon="-8.70327615179121494293212890625">
        <ele>48.59999847412109375</ele>
        <time>2022-11-01T08:34:16.000Z</time>
      </trkpt>
      <trkpt lat="42.53888673149049282073974609375" lon="-8.703218735754489898681640625">
        <ele>48.40000152587890625</ele>
        <time>2022-11-01T08:34:17.000Z</time>
      </trkpt>
      <trkpt lat="42.5387884117662906646728515625" lon="-8.703161738812923431396484375">
        <ele>47.799999237060546875</ele>
        <time>2022-11-01T08:34:18.000Z</time>
      </trkpt>
      <trkpt lat="42.538690008223056793212890625" lon="-8.7031062506139278411865234375">
        <ele>47.59999847412109375</ele>
        <time>2022-11-01T08:34:19.000Z</time>
      </trkpt>
      <trkpt lat="42.5385899282991886138916015625" lon="-8.70305000804364681243896484375">
        <ele>47.200000762939453125</ele>
        <time>2022-11-01T08:34:20.000Z</time>
      </trkpt>
      <trkpt lat="42.53848892636597156524658203125" lon="-8.702993094921112060546875">
        <ele>47</ele>
        <time>2022-11-01T08:34:21.000Z</time>
      </trkpt>
      <trkpt lat="42.5383857451379299163818359375" lon="-8.7029359303414821624755859375">
        <ele>46.59999847412109375</ele>
        <time>2022-11-01T08:34:22.000Z</time>
      </trkpt>
      <trkpt lat="42.538263536989688873291015625" lon="-8.70286594144999980926513671875">
        <ele>46.40000152587890625</ele>
        <time>2022-11-01T08:34:23.000Z</time>
      </trkpt>
      <trkpt lat="42.5381805561482906341552734375" lon="-8.70281833223998546600341796875">
        <ele>45.799999237060546875</ele>
        <time>2022-11-01T08:34:24.000Z</time>
      </trkpt>
      <trkpt lat="42.5380759499967098236083984375" lon="-8.70275965891778469085693359375">
        <ele>45.40000152587890625</ele>
        <time>2022-11-01T08:34:25.000Z</time>
      </trkpt>
      <trkpt lat="42.53797159530222415924072265625" lon="-8.70269964449107646942138671875">
        <ele>45.200000762939453125</ele>
        <time>2022-11-01T08:34:26.000Z</time>
      </trkpt>
      <trkpt lat="42.53786916844546794891357421875" lon="-8.7026392109692096710205078125">
        <ele>44.799999237060546875</ele>
        <time>2022-11-01T08:34:27.000Z</time>
      </trkpt>
      <trkpt lat="42.537763975560665130615234375" lon="-8.7025808729231357574462890625">
        <ele>44.59999847412109375</ele>
        <time>2022-11-01T08:34:28.000Z</time>
      </trkpt>
      <trkpt lat="42.53765911795198917388916015625" lon="-8.70252328924834728240966796875">
        <ele>44.40000152587890625</ele>
        <time>2022-11-01T08:34:29.000Z</time>
      </trkpt>
      <trkpt lat="42.53755551762878894805908203125" lon="-8.7024655379354953765869140625">
        <ele>44.40000152587890625</ele>
        <time>2022-11-01T08:34:30.000Z</time>
      </trkpt>
      <trkpt lat="42.53745116293430328369140625" lon="-8.7024068646132946014404296875">
        <ele>43.59999847412109375</ele>
        <time>2022-11-01T08:34:31.000Z</time>
      </trkpt>
      <trkpt lat="42.5373463891446590423583984375" lon="-8.7023485265672206878662109375">
        <ele>43.40000152587890625</ele>
        <time>2022-11-01T08:34:32.000Z</time>
      </trkpt>
      <trkpt lat="42.53724203445017337799072265625" lon="-8.7022918649017810821533203125">
        <ele>42.799999237060546875</ele>
        <time>2022-11-01T08:34:33.000Z</time>
      </trkpt>
      <trkpt lat="42.53713709302246570587158203125" lon="-8.70223377831280231475830078125">
        <ele>42.59999847412109375</ele>
        <time>2022-11-01T08:34:34.000Z</time>
      </trkpt>
      <trkpt lat="42.53703407943248748779296875" lon="-8.70217594318091869354248046875">
        <ele>42.40000152587890625</ele>
        <time>2022-11-01T08:34:35.000Z</time>
      </trkpt>
      <trkpt lat="42.5369306467473506927490234375" lon="-8.7021168507635593414306640625">
        <ele>41.59999847412109375</ele>
        <time>2022-11-01T08:34:36.000Z</time>
      </trkpt>
      <trkpt lat="42.536825872957706451416015625" lon="-8.7020588479936122894287109375">
        <ele>41.40000152587890625</ele>
        <time>2022-11-01T08:34:37.000Z</time>
      </trkpt>
      <trkpt lat="42.536721937358379364013671875" lon="-8.70199992321431636810302734375">
        <ele>41</ele>
        <time>2022-11-01T08:34:38.000Z</time>
      </trkpt>
      <trkpt lat="42.536619007587432861328125" lon="-8.70194108225405216217041015625">
        <ele>40.799999237060546875</ele>
        <time>2022-11-01T08:34:39.000Z</time>
      </trkpt>
      <trkpt lat="42.53651448525488376617431640625" lon="-8.7018813192844390869140625">
        <ele>40.59999847412109375</ele>
        <time>2022-11-01T08:34:40.000Z</time>
      </trkpt>
      <trkpt lat="42.53641239367425441741943359375" lon="-8.70182306505739688873291015625">
        <ele>40.40000152587890625</ele>
        <time>2022-11-01T08:34:41.000Z</time>
      </trkpt>
      <trkpt lat="42.5363107211887836456298828125" lon="-8.70176606811583042144775390625">
        <ele>40.200000762939453125</ele>
        <time>2022-11-01T08:34:42.000Z</time>
      </trkpt>
      <trkpt lat="42.5362094677984714508056640625" lon="-8.70170923881232738494873046875">
        <ele>40</ele>
        <time>2022-11-01T08:34:43.000Z</time>
      </trkpt>
      <trkpt lat="42.536107711493968963623046875" lon="-8.70165123604238033294677734375">
        <ele>40</ele>
        <time>2022-11-01T08:34:44.000Z</time>
      </trkpt>
      <trkpt lat="42.536007128655910491943359375" lon="-8.70159474201500415802001953125">
        <ele>39.799999237060546875</ele>
        <time>2022-11-01T08:34:45.000Z</time>
      </trkpt>
      <trkpt lat="42.535907886922359466552734375" lon="-8.70153866708278656005859375">
        <ele>39.40000152587890625</ele>
        <time>2022-11-01T08:34:46.000Z</time>
      </trkpt>
      <trkpt lat="42.53580839373171329498291015625" lon="-8.7014841847121715545654296875">
        <ele>38.799999237060546875</ele>
        <time>2022-11-01T08:34:47.000Z</time>
      </trkpt>
      <trkpt lat="42.53570948727428913116455078125" lon="-8.7014298699796199798583984375">
        <ele>38.59999847412109375</ele>
        <time>2022-11-01T08:34:48.000Z</time>
      </trkpt>
      <trkpt lat="42.53560940735042095184326171875" lon="-8.70137530378997325897216796875">
        <ele>38.40000152587890625</ele>
        <time>2022-11-01T08:34:49.000Z</time>
      </trkpt>
      <trkpt lat="42.535509578883647918701171875" lon="-8.7013188935816287994384765625">
        <ele>38.40000152587890625</ele>
        <time>2022-11-01T08:34:50.000Z</time>
      </trkpt>
      <trkpt lat="42.5354105047881603240966796875" lon="-8.70126114226877689361572265625">
        <ele>38.200000762939453125</ele>
        <time>2022-11-01T08:34:51.000Z</time>
      </trkpt>
      <trkpt lat="42.53531277179718017578125" lon="-8.7012028880417346954345703125">
        <ele>38.200000762939453125</ele>
        <time>2022-11-01T08:34:52.000Z</time>
      </trkpt>
      <trkpt lat="42.5352143682539463043212890625" lon="-8.7011452205479145050048828125">
        <ele>38</ele>
        <time>2022-11-01T08:34:53.000Z</time>
      </trkpt>
      <trkpt lat="42.53511772491037845611572265625" lon="-8.7010885588824748992919921875">
        <ele>38</ele>
        <time>2022-11-01T08:34:54.000Z</time>
      </trkpt>
      <trkpt lat="42.5350217521190643310546875" lon="-8.701037429273128509521484375">
        <ele>37.799999237060546875</ele>
        <time>2022-11-01T08:34:55.000Z</time>
      </trkpt>
      <trkpt lat="42.53492577932775020599365234375" lon="-8.700988478958606719970703125">
        <ele>37.799999237060546875</ele>
        <time>2022-11-01T08:34:56.000Z</time>
      </trkpt>
      <trkpt lat="42.53483206965029239654541015625" lon="-8.70094053447246551513671875">
        <ele>37.799999237060546875</ele>
        <time>2022-11-01T08:34:57.000Z</time>
      </trkpt>
      <trkpt lat="42.5347389467060565948486328125" lon="-8.70089225471019744873046875">
        <ele>37.799999237060546875</ele>
        <time>2022-11-01T08:34:58.000Z</time>
      </trkpt>
      <trkpt lat="42.534643895924091339111328125" lon="-8.7008401192724704742431640625">
        <ele>37.799999237060546875</ele>
        <time>2022-11-01T08:34:59.000Z</time>
      </trkpt>
      <trkpt lat="42.53455027006566524505615234375" lon="-8.70078622363507747650146484375">
        <ele>37.799999237060546875</ele>
        <time>2022-11-01T08:35:00.000Z</time>
      </trkpt>
      <trkpt lat="42.5344573147594928741455078125" lon="-8.70073408819735050201416015625">
        <ele>37.799999237060546875</ele>
        <time>2022-11-01T08:35:01.000Z</time>
      </trkpt>
      <trkpt lat="42.53436503000557422637939453125" lon="-8.70068295858800411224365234375">
        <ele>37.799999237060546875</ele>
        <time>2022-11-01T08:35:02.000Z</time>
      </trkpt>
      <trkpt lat="42.5342742539942264556884765625" lon="-8.70063300244510173797607421875">
        <ele>37.799999237060546875</ele>
        <time>2022-11-01T08:35:03.000Z</time>
      </trkpt>
      <trkpt lat="42.53418146632611751556396484375" lon="-8.700582124292850494384765625">
        <ele>37.59999847412109375</ele>
        <time>2022-11-01T08:35:04.000Z</time>
      </trkpt>
      <trkpt lat="42.53408960066735744476318359375" lon="-8.7005320005118846893310546875">
        <ele>37.59999847412109375</ele>
        <time>2022-11-01T08:35:05.000Z</time>
      </trkpt>
      <trkpt lat="42.53399915993213653564453125" lon="-8.70048397220671176910400390625">
        <ele>37.799999237060546875</ele>
        <time>2022-11-01T08:35:06.000Z</time>
      </trkpt>
      <trkpt lat="42.533909976482391357421875" lon="-8.70043787173926830291748046875">
        <ele>37.799999237060546875</ele>
        <time>2022-11-01T08:35:07.000Z</time>
      </trkpt>
      <trkpt lat="42.5338228046894073486328125" lon="-8.70038892142474651336669921875">
        <ele>37.799999237060546875</ele>
        <time>2022-11-01T08:35:08.000Z</time>
      </trkpt>
      <trkpt lat="42.53373739309608936309814453125" lon="-8.7003418989479541778564453125">
        <ele>37.799999237060546875</ele>
        <time>2022-11-01T08:35:09.000Z</time>
      </trkpt>
      <trkpt lat="42.53365189768373966217041015625" lon="-8.70029387064278125762939453125">
        <ele>37.799999237060546875</ele>
        <time>2022-11-01T08:35:10.000Z</time>
      </trkpt>
      <trkpt lat="42.53356589935719966888427734375" lon="-8.70024408213794231414794921875">
        <ele>37.799999237060546875</ele>
        <time>2022-11-01T08:35:11.000Z</time>
      </trkpt>
      <trkpt lat="42.53348124213516712188720703125" lon="-8.7001950480043888092041015625">
        <ele>37.799999237060546875</ele>
        <time>2022-11-01T08:35:12.000Z</time>
      </trkpt>
      <trkpt lat="42.5333954952657222747802734375" lon="-8.700145594775676727294921875">
        <ele>38</ele>
        <time>2022-11-01T08:35:13.000Z</time>
      </trkpt>
      <trkpt lat="42.53330941312015056610107421875" lon="-8.70009572245180606842041015625">
        <ele>38.200000762939453125</ele>
        <time>2022-11-01T08:35:14.000Z</time>
      </trkpt>
      <trkpt lat="42.53322391770780086517333984375" lon="-8.70004526339471340179443359375">
        <ele>38.40000152587890625</ele>
        <time>2022-11-01T08:35:15.000Z</time>
      </trkpt>
      <trkpt lat="42.5331401824951171875" lon="-8.6999938823282718658447265625">
        <ele>38.40000152587890625</ele>
        <time>2022-11-01T08:35:16.000Z</time>
      </trkpt>
      <trkpt lat="42.53305275924503803253173828125" lon="-8.69994266889989376068115234375">
        <ele>38.59999847412109375</ele>
        <time>2022-11-01T08:35:17.000Z</time>
      </trkpt>
      <trkpt lat="42.53296458162367343902587890625" lon="-8.6998929642140865325927734375">
        <ele>38.59999847412109375</ele>
        <time>2022-11-01T08:35:18.000Z</time>
      </trkpt>
      <trkpt lat="42.532878331840038299560546875" lon="-8.699843846261501312255859375">
        <ele>38.59999847412109375</ele>
        <time>2022-11-01T08:35:19.000Z</time>
      </trkpt>
      <trkpt lat="42.5327896513044834136962890625" lon="-8.69979313574731349945068359375">
        <ele>38.59999847412109375</ele>
        <time>2022-11-01T08:35:20.000Z</time>
      </trkpt>
      <trkpt lat="42.5327018089592456817626953125" lon="-8.69974049739539623260498046875">
        <ele>38.59999847412109375</ele>
        <time>2022-11-01T08:35:21.000Z</time>
      </trkpt>
      <trkpt lat="42.53261438570916652679443359375" lon="-8.69968735612928867340087890625">
        <ele>38.59999847412109375</ele>
        <time>2022-11-01T08:35:22.000Z</time>
      </trkpt>
      <trkpt lat="42.53252687864005565643310546875" lon="-8.6996381543576717376708984375">
        <ele>38.40000152587890625</ele>
        <time>2022-11-01T08:35:23.000Z</time>
      </trkpt>
      <trkpt lat="42.53243836574256420135498046875" lon="-8.69958844967186450958251953125">
        <ele>38.200000762939453125</ele>
        <time>2022-11-01T08:35:24.000Z</time>
      </trkpt>
      <trkpt lat="42.5323527865111827850341796875" lon="-8.6995392479002475738525390625">
        <ele>38.200000762939453125</ele>
        <time>2022-11-01T08:35:25.000Z</time>
      </trkpt>
      <trkpt lat="42.53226754255592823028564453125" lon="-8.6994899623095989227294921875">
        <ele>38</ele>
        <time>2022-11-01T08:35:26.000Z</time>
      </trkpt>
      <trkpt lat="42.53218087367713451385498046875" lon="-8.69943925179541110992431640625">
        <ele>38</ele>
        <time>2022-11-01T08:35:27.000Z</time>
      </trkpt>
      <trkpt lat="42.53209554590284824371337890625" lon="-8.69938912801444530487060546875">
        <ele>37.799999237060546875</ele>
        <time>2022-11-01T08:35:28.000Z</time>
      </trkpt>
      <trkpt lat="42.53200820647180080413818359375" lon="-8.69933984242379665374755859375">
        <ele>37.799999237060546875</ele>
        <time>2022-11-01T08:35:29.000Z</time>
      </trkpt>
      <trkpt lat="42.531923465430736541748046875" lon="-8.6992928199470043182373046875">
        <ele>37.59999847412109375</ele>
        <time>2022-11-01T08:35:30.000Z</time>
      </trkpt>
      <trkpt lat="42.53183939494192600250244140625" lon="-8.69924671947956085205078125">
        <ele>37.59999847412109375</ele>
        <time>2022-11-01T08:35:31.000Z</time>
      </trkpt>
      <trkpt lat="42.53175524063408374786376953125" lon="-8.69920036755502223968505859375">
        <ele>37.59999847412109375</ele>
        <time>2022-11-01T08:35:32.000Z</time>
      </trkpt>
      <trkpt lat="42.531670667231082916259765625" lon="-8.69915292598307132720947265625">
        <ele>37.59999847412109375</ele>
        <time>2022-11-01T08:35:33.000Z</time>
      </trkpt>
      <trkpt lat="42.53158743493258953094482421875" lon="-8.6991047300398349761962890625">
        <ele>37.59999847412109375</ele>
        <time>2022-11-01T08:35:34.000Z</time>
      </trkpt>
      <trkpt lat="42.53150395117700099945068359375" lon="-8.6990551091730594635009765625">
        <ele>37.59999847412109375</ele>
        <time>2022-11-01T08:35:35.000Z</time>
      </trkpt>
      <trkpt lat="42.53141962923109531402587890625" lon="-8.6990074999630451202392578125">
        <ele>37.40000152587890625</ele>
        <time>2022-11-01T08:35:36.000Z</time>
      </trkpt>
      <trkpt lat="42.53133581019937992095947265625" lon="-8.69896315969526767730712890625">
        <ele>37.40000152587890625</ele>
        <time>2022-11-01T08:35:37.000Z</time>
      </trkpt>
      <trkpt lat="42.53125098533928394317626953125" lon="-8.6989199928939342498779296875">
        <ele>37.200000762939453125</ele>
        <time>2022-11-01T08:35:38.000Z</time>
      </trkpt>
      <trkpt lat="42.53116716630756855010986328125" lon="-8.698875904083251953125">
        <ele>37.200000762939453125</ele>
        <time>2022-11-01T08:35:39.000Z</time>
      </trkpt>
      <trkpt lat="42.5310844369232654571533203125" lon="-8.698831312358379364013671875">
        <ele>37.200000762939453125</ele>
        <time>2022-11-01T08:35:40.000Z</time>
      </trkpt>
      <trkpt lat="42.531002126634120941162109375" lon="-8.6987875588238239288330078125">
        <ele>37.40000152587890625</ele>
        <time>2022-11-01T08:35:41.000Z</time>
      </trkpt>
      <trkpt lat="42.5309181399643421173095703125" lon="-8.69874246418476104736328125">
        <ele>37.59999847412109375</ele>
        <time>2022-11-01T08:35:42.000Z</time>
      </trkpt>
      <trkpt lat="42.530835829675197601318359375" lon="-8.698696196079254150390625">
        <ele>37.59999847412109375</ele>
        <time>2022-11-01T08:35:43.000Z</time>
      </trkpt>
      <trkpt lat="42.5307543575763702392578125" lon="-8.6986507661640644073486328125">
        <ele>37.799999237060546875</ele>
        <time>2022-11-01T08:35:44.000Z</time>
      </trkpt>
      <trkpt lat="42.53067196346819400787353515625" lon="-8.69860525242984294891357421875">
        <ele>37.799999237060546875</ele>
        <time>2022-11-01T08:35:45.000Z</time>
      </trkpt>
      <trkpt lat="42.53059116192162036895751953125" lon="-8.69856133125722408294677734375">
        <ele>38</ele>
        <time>2022-11-01T08:35:46.000Z</time>
      </trkpt>
      <trkpt lat="42.53051237203180789947509765625" lon="-8.69851573370397090911865234375">
        <ele>38</ele>
        <time>2022-11-01T08:35:47.000Z</time>
      </trkpt>
      <trkpt lat="42.53043408505618572235107421875" lon="-8.69847130961716175079345703125">
        <ele>38</ele>
        <time>2022-11-01T08:35:48.000Z</time>
      </trkpt>
      <trkpt lat="42.53035697154700756072998046875" lon="-8.69842805899679660797119140625">
        <ele>38</ele>
        <time>2022-11-01T08:35:49.000Z</time>
      </trkpt>
      <trkpt lat="42.53028027713298797607421875" lon="-8.6983845569193363189697265625">
        <ele>38.200000762939453125</ele>
        <time>2022-11-01T08:35:50.000Z</time>
      </trkpt>
      <trkpt lat="42.53020458854734897613525390625" lon="-8.69834306649863719940185546875">
        <ele>38.200000762939453125</ele>
        <time>2022-11-01T08:35:51.000Z</time>
      </trkpt>
      <trkpt lat="42.53013066016137599945068359375" lon="-8.69830165989696979522705078125">
        <ele>38.40000152587890625</ele>
        <time>2022-11-01T08:35:52.000Z</time>
      </trkpt>
      <trkpt lat="42.53005656413733959197998046875" lon="-8.69825966656208038330078125">
        <ele>38.40000152587890625</ele>
        <time>2022-11-01T08:35:53.000Z</time>
      </trkpt>
      <trkpt lat="42.52998263575136661529541015625" lon="-8.6982159130275249481201171875">
        <ele>38.59999847412109375</ele>
        <time>2022-11-01T08:35:54.000Z</time>
      </trkpt>
      <trkpt lat="42.529910467565059661865234375" lon="-8.69817526079714298248291015625">
        <ele>38.799999237060546875</ele>
        <time>2022-11-01T08:35:55.000Z</time>
      </trkpt>
      <trkpt lat="42.529838718473911285400390625" lon="-8.6981361173093318939208984375">
        <ele>39</ele>
        <time>2022-11-01T08:35:56.000Z</time>
      </trkpt>
      <trkpt lat="42.5297673046588897705078125" lon="-8.69809747673571109771728515625">
        <ele>39.40000152587890625</ele>
        <time>2022-11-01T08:35:57.000Z</time>
      </trkpt>
      <trkpt lat="42.52969580702483654022216796875" lon="-8.69805741123855113983154296875">
        <ele>39.59999847412109375</ele>
        <time>2022-11-01T08:35:58.000Z</time>
      </trkpt>
      <trkpt lat="42.52962313592433929443359375" lon="-8.69801550172269344329833984375">
        <ele>39.799999237060546875</ele>
        <time>2022-11-01T08:35:59.000Z</time>
      </trkpt>
      <trkpt lat="42.52955197356641292572021484375" lon="-8.69797543622553348541259765625">
        <ele>40</ele>
        <time>2022-11-01T08:36:00.000Z</time>
      </trkpt>
      <trkpt lat="42.5294811464846134185791015625" lon="-8.69793553836643695831298828125">
        <ele>40.200000762939453125</ele>
        <time>2022-11-01T08:36:01.000Z</time>
      </trkpt>
      <trkpt lat="42.529409565031528472900390625" lon="-8.69789488613605499267578125">
        <ele>40.40000152587890625</ele>
        <time>2022-11-01T08:36:02.000Z</time>
      </trkpt>
      <trkpt lat="42.5293389894068241119384765625" lon="-8.6978544853627681732177734375">
        <ele>40.59999847412109375</ele>
        <time>2022-11-01T08:36:03.000Z</time>
      </trkpt>
      <trkpt lat="42.5292679108679294586181640625" lon="-8.69781441986560821533203125">
        <ele>40.59999847412109375</ele>
        <time>2022-11-01T08:36:04.000Z</time>
      </trkpt>
      <trkpt lat="42.5291964970529079437255859375" lon="-8.69777477346360683441162109375">
        <ele>40.799999237060546875</ele>
        <time>2022-11-01T08:36:05.000Z</time>
      </trkpt>
      <trkpt lat="42.52912868745625019073486328125" lon="-8.69773688726127147674560546875">
        <ele>41</ele>
        <time>2022-11-01T08:36:06.000Z</time>
      </trkpt>
      <trkpt lat="42.529061548411846160888671875" lon="-8.69770034216344356536865234375">
        <ele>41.200000762939453125</ele>
        <time>2022-11-01T08:36:07.000Z</time>
      </trkpt>
      <trkpt lat="42.52899507991969585418701171875" lon="-8.697661198675632476806640625">
        <ele>41.59999847412109375</ele>
        <time>2022-11-01T08:36:08.000Z</time>
      </trkpt>
      <trkpt lat="42.52892844378948211669921875" lon="-8.69762171991169452667236328125">
        <ele>41.59999847412109375</ele>
        <time>2022-11-01T08:36:09.000Z</time>
      </trkpt>
      <trkpt lat="42.52886197529733180999755859375" lon="-8.6975825764238834381103515625">
        <ele>41.799999237060546875</ele>
        <time>2022-11-01T08:36:10.000Z</time>
      </trkpt>
      <trkpt lat="42.52878385595977306365966796875" lon="-8.6975356377661228179931640625">
        <ele>41.799999237060546875</ele>
        <time>2022-11-01T08:36:11.000Z</time>
      </trkpt>
      <trkpt lat="42.52873054705560207366943359375" lon="-8.69750537909567356109619140625">
        <ele>42</ele>
        <time>2022-11-01T08:36:12.000Z</time>
      </trkpt>
      <trkpt lat="42.52866424620151519775390625" lon="-8.69746983982622623443603515625">
        <ele>42</ele>
        <time>2022-11-01T08:36:13.000Z</time>
      </trkpt>
      <trkpt lat="42.5285980291664600372314453125" lon="-8.69743480347096920013427734375">
        <ele>42.40000152587890625</ele>
        <time>2022-11-01T08:36:14.000Z</time>
      </trkpt>
      <trkpt lat="42.5285343267023563385009765625" lon="-8.69739691726863384246826171875">
        <ele>42.59999847412109375</ele>
        <time>2022-11-01T08:36:15.000Z</time>
      </trkpt>
      <trkpt lat="42.52846819348633289337158203125" lon="-8.69735718704760074615478515625">
        <ele>42.59999847412109375</ele>
        <time>2022-11-01T08:36:16.000Z</time>
      </trkpt>
      <trkpt lat="42.52840398810803890228271484375" lon="-8.69731863029301166534423828125">
        <ele>42.799999237060546875</ele>
        <time>2022-11-01T08:36:17.000Z</time>
      </trkpt>
      <trkpt lat="42.5283395312726497650146484375" lon="-8.6972798220813274383544921875">
        <ele>43.200000762939453125</ele>
        <time>2022-11-01T08:36:18.000Z</time>
      </trkpt>
      <trkpt lat="42.52827524207532405853271484375" lon="-8.697243444621562957763671875">
        <ele>43.59999847412109375</ele>
        <time>2022-11-01T08:36:19.000Z</time>
      </trkpt>
      <trkpt lat="42.5282101146876811981201171875" lon="-8.69720958173274993896484375">
        <ele>43.799999237060546875</ele>
        <time>2022-11-01T08:36:20.000Z</time>
      </trkpt>
      <trkpt lat="42.5281447358429431915283203125" lon="-8.6971772275865077972412109375">
        <ele>44.200000762939453125</ele>
        <time>2022-11-01T08:36:21.000Z</time>
      </trkpt>
      <trkpt lat="42.52808011136949062347412109375" lon="-8.69714328087866306304931640625">
        <ele>44.200000762939453125</ele>
        <time>2022-11-01T08:36:22.000Z</time>
      </trkpt>
      <trkpt lat="42.52801640890538692474365234375" lon="-8.69710673578083515167236328125">
        <ele>44.59999847412109375</ele>
        <time>2022-11-01T08:36:23.000Z</time>
      </trkpt>
      <trkpt lat="42.5279539637267589569091796875" lon="-8.69707203470170497894287109375">
        <ele>44.799999237060546875</ele>
        <time>2022-11-01T08:36:24.000Z</time>
      </trkpt>
      <trkpt lat="42.527891434729099273681640625" lon="-8.6970377527177333831787109375">
        <ele>44.799999237060546875</ele>
        <time>2022-11-01T08:36:25.000Z</time>
      </trkpt>
      <trkpt lat="42.52783066593110561370849609375" lon="-8.69700246490538120269775390625">
        <ele>45</ele>
        <time>2022-11-01T08:36:26.000Z</time>
      </trkpt>
      <trkpt lat="42.52776981331408023834228515625" lon="-8.69696575216948986053466796875">
        <ele>45</ele>
        <time>2022-11-01T08:36:27.000Z</time>
      </trkpt>
      <trkpt lat="42.52770661376416683197021484375" lon="-8.69692987762391567230224609375">
        <ele>45</ele>
        <time>2022-11-01T08:36:28.000Z</time>
      </trkpt>
      <trkpt lat="42.52764442004263401031494140625" lon="-8.696893751621246337890625">
        <ele>45.200000762939453125</ele>
        <time>2022-11-01T08:36:29.000Z</time>
      </trkpt>
      <trkpt lat="42.52758289687335491180419921875" lon="-8.69685645215213298797607421875">
        <ele>45.40000152587890625</ele>
        <time>2022-11-01T08:36:30.000Z</time>
      </trkpt>
      <trkpt lat="42.5275217927992343902587890625" lon="-8.6968214996159076690673828125">
        <ele>45.59999847412109375</ele>
        <time>2022-11-01T08:36:31.000Z</time>
      </trkpt>
      <trkpt lat="42.52746119163930416107177734375" lon="-8.69678755290806293487548828125">
        <ele>46</ele>
        <time>2022-11-01T08:36:32.000Z</time>
      </trkpt>
      <trkpt lat="42.52740385942161083221435546875" lon="-8.696753941476345062255859375">
        <ele>46.200000762939453125</ele>
        <time>2022-11-01T08:36:33.000Z</time>
      </trkpt>
      <trkpt lat="42.5273457728326320648193359375" lon="-8.696720413863658905029296875">
        <ele>46.59999847412109375</ele>
        <time>2022-11-01T08:36:34.000Z</time>
      </trkpt>
      <trkpt lat="42.52728751860558986663818359375" lon="-8.69668680243194103240966796875">
        <ele>46.799999237060546875</ele>
        <time>2022-11-01T08:36:35.000Z</time>
      </trkpt>
      <trkpt lat="42.5272285938262939453125" lon="-8.69665361009538173675537109375">
        <ele>47</ele>
        <time>2022-11-01T08:36:36.000Z</time>
      </trkpt>
      <trkpt lat="42.52716899849474430084228515625" lon="-8.69661890901625156402587890625">
        <ele>47.200000762939453125</ele>
        <time>2022-11-01T08:36:37.000Z</time>
      </trkpt>
      <trkpt lat="42.527110911905765533447265625" lon="-8.6965834535658359527587890625">
        <ele>47.40000152587890625</ele>
        <time>2022-11-01T08:36:38.000Z</time>
      </trkpt>
      <trkpt lat="42.52705282531678676605224609375" lon="-8.696547411382198333740234375">
        <ele>47.59999847412109375</ele>
        <time>2022-11-01T08:36:39.000Z</time>
      </trkpt>
      <trkpt lat="42.5269964151084423065185546875" lon="-8.6965137161314487457275390625">
        <ele>47.799999237060546875</ele>
        <time>2022-11-01T08:36:40.000Z</time>
      </trkpt>
      <trkpt lat="42.52693958580493927001953125" lon="-8.696481026709079742431640625">
        <ele>47.799999237060546875</ele>
        <time>2022-11-01T08:36:41.000Z</time>
      </trkpt>
      <trkpt lat="42.5268830917775630950927734375" lon="-8.6964463256299495697021484375">
        <ele>48</ele>
        <time>2022-11-01T08:36:42.000Z</time>
      </trkpt>
      <trkpt lat="42.5268150307238101959228515625" lon="-8.69640584103763103485107421875">
        <ele>48.200000762939453125</ele>
        <time>2022-11-01T08:36:43.000Z</time>
      </trkpt>
      <trkpt lat="42.52676918171346187591552734375" lon="-8.69638136588037014007568359375">
        <ele>48.200000762939453125</ele>
        <time>2022-11-01T08:36:44.000Z</time>
      </trkpt>
      <trkpt lat="42.52671025693416595458984375" lon="-8.6963511072099208831787109375">
        <ele>48.59999847412109375</ele>
        <time>2022-11-01T08:36:45.000Z</time>
      </trkpt>
      <trkpt lat="42.52665149979293346405029296875" lon="-8.69631732814013957977294921875">
        <ele>48.799999237060546875</ele>
        <time>2022-11-01T08:36:46.000Z</time>
      </trkpt>
      <trkpt lat="42.52659416757524013519287109375" lon="-8.6962830461561679840087890625">
        <ele>49</ele>
        <time>2022-11-01T08:36:47.000Z</time>
      </trkpt>
      <trkpt lat="42.52653650008141994476318359375" lon="-8.69624977000057697296142578125">
        <ele>49.200000762939453125</ele>
        <time>2022-11-01T08:36:48.000Z</time>
      </trkpt>
      <trkpt lat="42.526479251682758331298828125" lon="-8.69621875695884227752685546875">
        <ele>49.40000152587890625</ele>
        <time>2022-11-01T08:36:49.000Z</time>
      </trkpt>
      <trkpt lat="42.52642150036990642547607421875" lon="-8.69618807919323444366455078125">
        <ele>49.59999847412109375</ele>
        <time>2022-11-01T08:36:50.000Z</time>
      </trkpt>
      <trkpt lat="42.5263640843331813812255859375" lon="-8.69616008363664150238037109375">
        <ele>50</ele>
        <time>2022-11-01T08:36:51.000Z</time>
      </trkpt>
      <trkpt lat="42.52630666829645633697509765625" lon="-8.696130327880382537841796875">
        <ele>50.200000762939453125</ele>
        <time>2022-11-01T08:36:52.000Z</time>
      </trkpt>
      <trkpt lat="42.52624715678393840789794921875" lon="-8.696102835237979888916015625">
        <ele>50.40000152587890625</ele>
        <time>2022-11-01T08:36:53.000Z</time>
      </trkpt>
      <trkpt lat="42.5261880643665790557861328125" lon="-8.6960788629949092864990234375">
        <ele>50.799999237060546875</ele>
        <time>2022-11-01T08:36:54.000Z</time>
      </trkpt>
      <trkpt lat="42.5261280499398708343505859375" lon="-8.69605430401861667633056640625">
        <ele>50.799999237060546875</ele>
        <time>2022-11-01T08:36:55.000Z</time>
      </trkpt>
      <trkpt lat="42.5260700471699237823486328125" lon="-8.6960285715758800506591796875">
        <ele>51.200000762939453125</ele>
        <time>2022-11-01T08:36:56.000Z</time>
      </trkpt>
      <trkpt lat="42.5259986333549022674560546875" lon="-8.6959977261722087860107421875">
        <ele>51.200000762939453125</ele>
        <time>2022-11-01T08:36:57.000Z</time>
      </trkpt>
      <trkpt lat="42.52595094032585620880126953125" lon="-8.69597769342362880706787109375">
        <ele>51.40000152587890625</ele>
        <time>2022-11-01T08:36:58.000Z</time>
      </trkpt>
      <trkpt lat="42.52588950097560882568359375" lon="-8.69595305062830448150634765625">
        <ele>51.40000152587890625</ele>
        <time>2022-11-01T08:36:59.000Z</time>
      </trkpt>
      <trkpt lat="42.525827474892139434814453125" lon="-8.6959273181855678558349609375">
        <ele>51.59999847412109375</ele>
        <time>2022-11-01T08:37:00.000Z</time>
      </trkpt>
      <trkpt lat="42.525767125189304351806640625" lon="-8.6959025077521800994873046875">
        <ele>51.59999847412109375</ele>
        <time>2022-11-01T08:37:01.000Z</time>
      </trkpt>
      <trkpt lat="42.52570669166743755340576171875" lon="-8.6958776973187923431396484375">
        <ele>51.799999237060546875</ele>
        <time>2022-11-01T08:37:02.000Z</time>
      </trkpt>
      <trkpt lat="42.52564609050750732421875" lon="-8.69585414417088031768798828125">
        <ele>51.799999237060546875</ele>
        <time>2022-11-01T08:37:03.000Z</time>
      </trkpt>
      <trkpt lat="42.525582052767276763916015625" lon="-8.69583151303231716156005859375">
        <ele>51.799999237060546875</ele>
        <time>2022-11-01T08:37:04.000Z</time>
      </trkpt>
      <trkpt lat="42.525517009198665618896484375" lon="-8.69580946862697601318359375">
        <ele>52</ele>
        <time>2022-11-01T08:37:05.000Z</time>
      </trkpt>
      <trkpt lat="42.5254521332681179046630859375" lon="-8.695788681507110595703125">
        <ele>52</ele>
        <time>2022-11-01T08:37:06.000Z</time>
      </trkpt>
      <trkpt lat="42.525385580956935882568359375" lon="-8.69576663710176944732666015625">
        <ele>52.200000762939453125</ele>
        <time>2022-11-01T08:37:07.000Z</time>
      </trkpt>
      <trkpt lat="42.52531777136027812957763671875" lon="-8.6957445926964282989501953125">
        <ele>52.200000762939453125</ele>
        <time>2022-11-01T08:37:08.000Z</time>
      </trkpt>
      <trkpt lat="42.52524669282138347625732421875" lon="-8.69572254829108715057373046875">
        <ele>52.200000762939453125</ele>
        <time>2022-11-01T08:37:09.000Z</time>
      </trkpt>
      <trkpt lat="42.5251745246350765228271484375" lon="-8.695699162781238555908203125">
        <ele>52.40000152587890625</ele>
        <time>2022-11-01T08:37:10.000Z</time>
      </trkpt>
      <trkpt lat="42.5251017697155475616455078125" lon="-8.695675022900104522705078125">
        <ele>52.40000152587890625</ele>
        <time>2022-11-01T08:37:11.000Z</time>
      </trkpt>
      <trkpt lat="42.5250300206243991851806640625" lon="-8.695651553571224212646484375">
        <ele>52.40000152587890625</ele>
        <time>2022-11-01T08:37:12.000Z</time>
      </trkpt>
      <trkpt lat="42.52495567314326763153076171875" lon="-8.6956272460520267486572265625">
        <ele>52.40000152587890625</ele>
        <time>2022-11-01T08:37:13.000Z</time>
      </trkpt>
      <trkpt lat="42.52488057129085063934326171875" lon="-8.69560034014284610748291015625">
        <ele>52.40000152587890625</ele>
        <time>2022-11-01T08:37:14.000Z</time>
      </trkpt>
      <trkpt lat="42.5248060561716556549072265625" lon="-8.69557418860495090484619140625">
        <ele>52.200000762939453125</ele>
        <time>2022-11-01T08:37:15.000Z</time>
      </trkpt>
      <trkpt lat="42.52473053522408008575439453125" lon="-8.69555004872381687164306640625">
        <ele>52.200000762939453125</ele>
        <time>2022-11-01T08:37:16.000Z</time>
      </trkpt>
      <trkpt lat="42.52465300261974334716796875" lon="-8.69552724994719028472900390625">
        <ele>52</ele>
        <time>2022-11-01T08:37:17.000Z</time>
      </trkpt>
      <trkpt lat="42.52457295544445514678955078125" lon="-8.69550344534218311309814453125">
        <ele>51.799999237060546875</ele>
        <time>2022-11-01T08:37:18.000Z</time>
      </trkpt>
      <trkpt lat="42.524491064250469207763671875" lon="-8.69547679089009761810302734375">
        <ele>51.59999847412109375</ele>
        <time>2022-11-01T08:37:19.000Z</time>
      </trkpt>
      <trkpt lat="42.52440623939037322998046875" lon="-8.6954475380480289459228515625">
        <ele>51.40000152587890625</ele>
        <time>2022-11-01T08:37:20.000Z</time>
      </trkpt>
      <trkpt lat="42.524320743978023529052734375" lon="-8.6954183690249919891357421875">
        <ele>51.200000762939453125</ele>
        <time>2022-11-01T08:37:21.000Z</time>
      </trkpt>
      <trkpt lat="42.524234913289546966552734375" lon="-8.6953892000019550323486328125">
        <ele>51.200000762939453125</ele>
        <time>2022-11-01T08:37:22.000Z</time>
      </trkpt>
      <trkpt lat="42.52414832822978496551513671875" lon="-8.69535961188375949859619140625">
        <ele>51</ele>
        <time>2022-11-01T08:37:23.000Z</time>
      </trkpt>
      <trkpt lat="42.5240620784461498260498046875" lon="-8.6953286826610565185546875">
        <ele>50.59999847412109375</ele>
        <time>2022-11-01T08:37:24.000Z</time>
      </trkpt>
      <trkpt lat="42.523974739015102386474609375" lon="-8.69529725052416324615478515625">
        <ele>50.59999847412109375</ele>
        <time>2022-11-01T08:37:25.000Z</time>
      </trkpt>
      <trkpt lat="42.5238900817930698394775390625" lon="-8.69526724331080913543701171875">
        <ele>50</ele>
        <time>2022-11-01T08:37:26.000Z</time>
      </trkpt>
      <trkpt lat="42.52380634658038616180419921875" lon="-8.69523857720196247100830078125">
        <ele>50</ele>
        <time>2022-11-01T08:37:27.000Z</time>
      </trkpt>
      <trkpt lat="42.52372152172029018402099609375" lon="-8.6952084861695766448974609375">
        <ele>49.799999237060546875</ele>
        <time>2022-11-01T08:37:28.000Z</time>
      </trkpt>
      <trkpt lat="42.52363719977438449859619140625" lon="-8.69517906568944454193115234375">
        <ele>49.799999237060546875</ele>
        <time>2022-11-01T08:37:29.000Z</time>
      </trkpt>
      <trkpt lat="42.523554302752017974853515625" lon="-8.69514822028577327728271484375">
        <ele>49.799999237060546875</ele>
        <time>2022-11-01T08:37:30.000Z</time>
      </trkpt>
      <trkpt lat="42.52347392030060291290283203125" lon="-8.69511871598660945892333984375">
        <ele>49.799999237060546875</ele>
        <time>2022-11-01T08:37:31.000Z</time>
      </trkpt>
      <trkpt lat="42.5233932025730609893798828125" lon="-8.69509139098227024078369140625">
        <ele>49.59999847412109375</ele>
        <time>2022-11-01T08:37:32.000Z</time>
      </trkpt>
      <trkpt lat="42.52331298775970935821533203125" lon="-8.69506523944437503814697265625">
        <ele>49.59999847412109375</ele>
        <time>2022-11-01T08:37:33.000Z</time>
      </trkpt>
      <trkpt lat="42.52323411405086517333984375" lon="-8.69503791444003582000732421875">
        <ele>49.59999847412109375</ele>
        <time>2022-11-01T08:37:34.000Z</time>
      </trkpt>
      <trkpt lat="42.52315624617040157318115234375" lon="-8.6950120143592357635498046875">
        <ele>49.59999847412109375</ele>
        <time>2022-11-01T08:37:35.000Z</time>
      </trkpt>
      <trkpt lat="42.52308231778442859649658203125" lon="-8.69498779065907001495361328125">
        <ele>49.59999847412109375</ele>
        <time>2022-11-01T08:37:36.000Z</time>
      </trkpt>
      <trkpt lat="42.52300956286489963531494140625" lon="-8.69496616534888744354248046875">
        <ele>49.59999847412109375</ele>
        <time>2022-11-01T08:37:37.000Z</time>
      </trkpt>
      <trkpt lat="42.52293781377375125885009765625" lon="-8.6949439533054828643798828125">
        <ele>49.59999847412109375</ele>
        <time>2022-11-01T08:37:38.000Z</time>
      </trkpt>
      <trkpt lat="42.5228695012629032135009765625" lon="-8.694921992719173431396484375">
        <ele>49.59999847412109375</ele>
        <time>2022-11-01T08:37:39.000Z</time>
      </trkpt>
      <trkpt lat="42.5228037871420383453369140625" lon="-8.69490128941833972930908203125">
        <ele>49.799999237060546875</ele>
        <time>2022-11-01T08:37:40.000Z</time>
      </trkpt>
      <trkpt lat="42.5227377377450466156005859375" lon="-8.69488083757460117340087890625">
        <ele>50</ele>
        <time>2022-11-01T08:37:41.000Z</time>
      </trkpt>
      <trkpt lat="42.52267487347126007080078125" lon="-8.69486122392117977142333984375">
        <ele>50.40000152587890625</ele>
        <time>2022-11-01T08:37:42.000Z</time>
      </trkpt>
      <trkpt lat="42.52261293120682239532470703125" lon="-8.69484010152518749237060546875">
        <ele>50.59999847412109375</ele>
        <time>2022-11-01T08:37:43.000Z</time>
      </trkpt>
      <trkpt lat="42.52255149185657501220703125" lon="-8.6948188953101634979248046875">
        <ele>51</ele>
        <time>2022-11-01T08:37:44.000Z</time>
      </trkpt>
      <trkpt lat="42.52249156124889850616455078125" lon="-8.694798611104488372802734375">
        <ele>51</ele>
        <time>2022-11-01T08:37:45.000Z</time>
      </trkpt>
      <trkpt lat="42.52243255265057086944580078125" lon="-8.69477757252752780914306640625">
        <ele>51.40000152587890625</ele>
        <time>2022-11-01T08:37:46.000Z</time>
      </trkpt>
      <trkpt lat="42.52237438224256038665771484375" lon="-8.6947548575699329376220703125">
        <ele>51.40000152587890625</ele>
        <time>2022-11-01T08:37:47.000Z</time>
      </trkpt>
      <trkpt lat="42.522315792739391326904296875" lon="-8.69473583064973354339599609375">
        <ele>51.799999237060546875</ele>
        <time>2022-11-01T08:37:48.000Z</time>
      </trkpt>
      <trkpt lat="42.52225770615041255950927734375" lon="-8.694716133177280426025390625">
        <ele>52.200000762939453125</ele>
        <time>2022-11-01T08:37:49.000Z</time>
      </trkpt>
      <trkpt lat="42.5221999548375606536865234375" lon="-8.6947008781135082244873046875">
        <ele>52.799999237060546875</ele>
        <time>2022-11-01T08:37:50.000Z</time>
      </trkpt>
      <trkpt lat="42.52214245498180389404296875" lon="-8.6946844495832920074462890625">
        <ele>53</ele>
        <time>2022-11-01T08:37:51.000Z</time>
      </trkpt>
      <trkpt lat="42.52208671532571315765380859375" lon="-8.69466776959598064422607421875">
        <ele>53.40000152587890625</ele>
        <time>2022-11-01T08:37:52.000Z</time>
      </trkpt>
      <trkpt lat="42.5220318138599395751953125" lon="-8.6946505866944789886474609375">
        <ele>54.200000762939453125</ele>
        <time>2022-11-01T08:37:53.000Z</time>
      </trkpt>
      <trkpt lat="42.52197775058448314666748046875" lon="-8.6946365050971508026123046875">
        <ele>54.40000152587890625</ele>
        <time>2022-11-01T08:37:54.000Z</time>
      </trkpt>
      <trkpt lat="42.5219218432903289794921875" lon="-8.69461965747177600860595703125">
        <ele>54.799999237060546875</ele>
        <time>2022-11-01T08:37:55.000Z</time>
      </trkpt>
      <trkpt lat="42.52186618745326995849609375" lon="-8.6946043185889720916748046875">
        <ele>55</ele>
        <time>2022-11-01T08:37:56.000Z</time>
      </trkpt>
      <trkpt lat="42.521810196340084075927734375" lon="-8.694588057696819305419921875">
        <ele>55.200000762939453125</ele>
        <time>2022-11-01T08:37:57.000Z</time>
      </trkpt>
      <trkpt lat="42.52175378613173961639404296875" lon="-8.69456886313855648040771484375">
        <ele>55.40000152587890625</ele>
        <time>2022-11-01T08:37:58.000Z</time>
      </trkpt>
      <trkpt lat="42.52169729210436344146728515625" lon="-8.69455008767545223236083984375">
        <ele>55.799999237060546875</ele>
        <time>2022-11-01T08:37:59.000Z</time>
      </trkpt>
      <trkpt lat="42.52164163626730442047119140625" lon="-8.69453114457428455352783203125">
        <ele>56</ele>
        <time>2022-11-01T08:38:00.000Z</time>
      </trkpt>
      <trkpt lat="42.52158681862056255340576171875" lon="-8.694512955844402313232421875">
        <ele>56.40000152587890625</ele>
        <time>2022-11-01T08:38:01.000Z</time>
      </trkpt>
      <trkpt lat="42.52153233624994754791259765625" lon="-8.69449409656226634979248046875">
        <ele>56.40000152587890625</ele>
        <time>2022-11-01T08:38:02.000Z</time>
      </trkpt>
      <trkpt lat="42.52147869206964969635009765625" lon="-8.69447599165141582489013671875">
        <ele>56.799999237060546875</ele>
        <time>2022-11-01T08:38:03.000Z</time>
      </trkpt>
      <trkpt lat="42.52142655663192272186279296875" lon="-8.6944598145782947540283203125">
        <ele>57.40000152587890625</ele>
        <time>2022-11-01T08:38:04.000Z</time>
      </trkpt>
      <trkpt lat="42.52137224189937114715576171875" lon="-8.69444380514323711395263671875">
        <ele>57.59999847412109375</ele>
        <time>2022-11-01T08:38:05.000Z</time>
      </trkpt>
      <trkpt lat="42.5213181786239147186279296875" lon="-8.69442737661302089691162109375">
        <ele>58</ele>
        <time>2022-11-01T08:38:06.000Z</time>
      </trkpt>
      <trkpt lat="42.52126344479620456695556640625" lon="-8.69441027753055095672607421875">
        <ele>58.40000152587890625</ele>
        <time>2022-11-01T08:38:07.000Z</time>
      </trkpt>
      <trkpt lat="42.521208040416240692138671875" lon="-8.69438932277262210845947265625">
        <ele>59</ele>
        <time>2022-11-01T08:38:08.000Z</time>
      </trkpt>
      <trkpt lat="42.521153725683689117431640625" lon="-8.69436912238597869873046875">
        <ele>59.200000762939453125</ele>
        <time>2022-11-01T08:38:09.000Z</time>
      </trkpt>
      <trkpt lat="42.52110150642693042755126953125" lon="-8.694349341094493865966796875">
        <ele>59.40000152587890625</ele>
        <time>2022-11-01T08:38:10.000Z</time>
      </trkpt>
      <trkpt lat="42.52105037681758403778076171875" lon="-8.69432754814624786376953125">
        <ele>59.40000152587890625</ele>
        <time>2022-11-01T08:38:11.000Z</time>
      </trkpt>
      <trkpt lat="42.5209991633892059326171875" lon="-8.694301731884479522705078125">
        <ele>59.799999237060546875</ele>
        <time>2022-11-01T08:38:12.000Z</time>
      </trkpt>
      <trkpt lat="42.52095079980790615081787109375" lon="-8.69427633471786975860595703125">
        <ele>60</ele>
        <time>2022-11-01T08:38:13.000Z</time>
      </trkpt>
      <trkpt lat="42.5209007598459720611572265625" lon="-8.69425001554191112518310546875">
        <ele>60.40000152587890625</ele>
        <time>2022-11-01T08:38:14.000Z</time>
      </trkpt>
      <trkpt lat="42.52085105516016483306884765625" lon="-8.6942261271178722381591796875">
        <ele>60.59999847412109375</ele>
        <time>2022-11-01T08:38:15.000Z</time>
      </trkpt>
      <trkpt lat="42.52080076374113559722900390625" lon="-8.69420014321804046630859375">
        <ele>60.799999237060546875</ele>
        <time>2022-11-01T08:38:16.000Z</time>
      </trkpt>
      <trkpt lat="42.52075063996016979217529296875" lon="-8.69417558424174785614013671875">
        <ele>61</ele>
        <time>2022-11-01T08:38:17.000Z</time>
      </trkpt>
      <trkpt lat="42.52070210874080657958984375" lon="-8.69415186345577239990234375">
        <ele>61</ele>
        <time>2022-11-01T08:38:18.000Z</time>
      </trkpt>
      <trkpt lat="42.52065374515950679779052734375" lon="-8.69412411935627460479736328125">
        <ele>61.200000762939453125</ele>
        <time>2022-11-01T08:38:19.000Z</time>
      </trkpt>
      <trkpt lat="42.520603872835636138916015625" lon="-8.69409444741904735565185546875">
        <ele>61.40000152587890625</ele>
        <time>2022-11-01T08:38:20.000Z</time>
      </trkpt>
      <trkpt lat="42.52055450342595577239990234375" lon="-8.69406402111053466796875">
        <ele>61.799999237060546875</ele>
        <time>2022-11-01T08:38:21.000Z</time>
      </trkpt>
      <trkpt lat="42.5205068103969097137451171875" lon="-8.6940330080687999725341796875">
        <ele>61.799999237060546875</ele>
        <time>2022-11-01T08:38:22.000Z</time>
      </trkpt>
      <trkpt lat="42.52045962028205394744873046875" lon="-8.6940001510083675384521484375">
        <ele>62</ele>
        <time>2022-11-01T08:38:23.000Z</time>
      </trkpt>
      <trkpt lat="42.52041167579591274261474609375" lon="-8.69396838359534740447998046875">
        <ele>62.40000152587890625</ele>
        <time>2022-11-01T08:38:24.000Z</time>
      </trkpt>
      <trkpt lat="42.52036406658589839935302734375" lon="-8.69393787346780300140380859375">
        <ele>62.59999847412109375</ele>
        <time>2022-11-01T08:38:25.000Z</time>
      </trkpt>
      <trkpt lat="42.52031511627137660980224609375" lon="-8.693905435502529144287109375">
        <ele>62.799999237060546875</ele>
        <time>2022-11-01T08:38:26.000Z</time>
      </trkpt>
      <trkpt lat="42.52026717178523540496826171875" lon="-8.69387182407081127166748046875">
        <ele>63.200000762939453125</ele>
        <time>2022-11-01T08:38:27.000Z</time>
      </trkpt>
      <trkpt lat="42.52021973021328449249267578125" lon="-8.69384164921939373016357421875">
        <ele>63.40000152587890625</ele>
        <time>2022-11-01T08:38:28.000Z</time>
      </trkpt>
      <trkpt lat="42.52017279155552387237548828125" lon="-8.69380979798734188079833984375">
        <ele>63.40000152587890625</ele>
        <time>2022-11-01T08:38:29.000Z</time>
      </trkpt>
      <trkpt lat="42.52012652345001697540283203125" lon="-8.69377828203141689300537109375">
        <ele>63.59999847412109375</ele>
        <time>2022-11-01T08:38:30.000Z</time>
      </trkpt>
      <trkpt lat="42.52008075825870037078857421875" lon="-8.6937460117042064666748046875">
        <ele>63.799999237060546875</ele>
        <time>2022-11-01T08:38:31.000Z</time>
      </trkpt>
      <trkpt lat="42.5200362503528594970703125" lon="-8.693718351423740386962890625">
        <ele>64.1999969482421875</ele>
        <time>2022-11-01T08:38:32.000Z</time>
      </trkpt>
      <trkpt lat="42.519990988075733184814453125" lon="-8.69369345717132091522216796875">
        <ele>64.40000152587890625</ele>
        <time>2022-11-01T08:38:33.000Z</time>
      </trkpt>
      <trkpt lat="42.5199435465037822723388671875" lon="-8.69366713799536228179931640625">
        <ele>64.59999847412109375</ele>
        <time>2022-11-01T08:38:34.000Z</time>
      </trkpt>
      <trkpt lat="42.5198972783982753753662109375" lon="-8.693637549877166748046875">
        <ele>64.8000030517578125</ele>
        <time>2022-11-01T08:38:35.000Z</time>
      </trkpt>
      <trkpt lat="42.5198516808450222015380859375" lon="-8.6936031840741634368896484375">
        <ele>65</ele>
        <time>2022-11-01T08:38:36.000Z</time>
      </trkpt>
      <trkpt lat="42.519809938967227935791015625" lon="-8.6935699917376041412353515625">
        <ele>65.1999969482421875</ele>
        <time>2022-11-01T08:38:37.000Z</time>
      </trkpt>
      <trkpt lat="42.51976543106138706207275390625" lon="-8.69353671558201313018798828125">
        <ele>65.59999847412109375</ele>
        <time>2022-11-01T08:38:38.000Z</time>
      </trkpt>
      <trkpt lat="42.51971882767975330352783203125" lon="-8.69350402615964412689208984375">
        <ele>65.8000030517578125</ele>
        <time>2022-11-01T08:38:39.000Z</time>
      </trkpt>
      <trkpt lat="42.51966233365237712860107421875" lon="-8.6934660561382770538330078125">
        <ele>66</ele>
        <time>2022-11-01T08:38:40.000Z</time>
      </trkpt>
      <trkpt lat="42.51962411217391490936279296875" lon="-8.69343915022909641265869140625">
        <ele>66.40000152587890625</ele>
        <time>2022-11-01T08:38:41.000Z</time>
      </trkpt>
      <trkpt lat="42.5195780955255031585693359375" lon="-8.6934067122638225555419921875">
        <ele>66.59999847412109375</ele>
        <time>2022-11-01T08:38:42.000Z</time>
      </trkpt>
      <trkpt lat="42.519535012543201446533203125" lon="-8.6933721788227558135986328125">
        <ele>66.8000030517578125</ele>
        <time>2022-11-01T08:38:43.000Z</time>
      </trkpt>
      <trkpt lat="42.519491426646709442138671875" lon="-8.69333722628653049468994140625">
        <ele>67</ele>
        <time>2022-11-01T08:38:44.000Z</time>
      </trkpt>
      <trkpt lat="42.519445158541202545166015625" lon="-8.6933036148548126220703125">
        <ele>67.1999969482421875</ele>
        <time>2022-11-01T08:38:45.000Z</time>
      </trkpt>
      <trkpt lat="42.519399560987949371337890625" lon="-8.6932726018130779266357421875">
        <ele>67.1999969482421875</ele>
        <time>2022-11-01T08:38:46.000Z</time>
      </trkpt>
      <trkpt lat="42.5193524546921253204345703125" lon="-8.693245612084865570068359375">
        <ele>67.59999847412109375</ele>
        <time>2022-11-01T08:38:47.000Z</time>
      </trkpt>
      <trkpt lat="42.51930811442434787750244140625" lon="-8.69321635924279689788818359375">
        <ele>67.59999847412109375</ele>
        <time>2022-11-01T08:38:48.000Z</time>
      </trkpt>
      <trkpt lat="42.51926503144204616546630859375" lon="-8.6931817419826984405517578125">
        <ele>67.8000030517578125</ele>
        <time>2022-11-01T08:38:49.000Z</time>
      </trkpt>
      <trkpt lat="42.519222535192966461181640625" lon="-8.69314796291291713714599609375">
        <ele>67.8000030517578125</ele>
        <time>2022-11-01T08:38:50.000Z</time>
      </trkpt>
      <trkpt lat="42.519181631505489349365234375" lon="-8.6931158602237701416015625">
        <ele>68.40000152587890625</ele>
        <time>2022-11-01T08:38:51.000Z</time>
      </trkpt>
      <trkpt lat="42.5191372074186801910400390625" lon="-8.6930838413536548614501953125">
        <ele>68.8000030517578125</ele>
        <time>2022-11-01T08:38:52.000Z</time>
      </trkpt>
      <trkpt lat="42.5190895982086658477783203125" lon="-8.69305081665515899658203125">
        <ele>69</ele>
        <time>2022-11-01T08:38:53.000Z</time>
      </trkpt>
      <trkpt lat="42.5190411508083343505859375" lon="-8.69302122853696346282958984375">
        <ele>69.1999969482421875</ele>
        <time>2022-11-01T08:38:54.000Z</time>
      </trkpt>
      <trkpt lat="42.51899479888379573822021484375" lon="-8.69299205951392650604248046875">
        <ele>69.40000152587890625</ele>
        <time>2022-11-01T08:38:55.000Z</time>
      </trkpt>
      <trkpt lat="42.51895305700600147247314453125" lon="-8.692960627377033233642578125">
        <ele>69.59999847412109375</ele>
        <time>2022-11-01T08:38:56.000Z</time>
      </trkpt>
      <trkpt lat="42.51891047693789005279541015625" lon="-8.69292466901242733001708984375">
        <ele>69.8000030517578125</ele>
        <time>2022-11-01T08:38:57.000Z</time>
      </trkpt>
      <trkpt lat="42.51886622048914432525634765625" lon="-8.69288711808621883392333984375">
        <ele>70.1999969482421875</ele>
        <time>2022-11-01T08:38:58.000Z</time>
      </trkpt>
      <trkpt lat="42.51882414333522319793701171875" lon="-8.69285325519740581512451171875">
        <ele>70.40000152587890625</ele>
        <time>2022-11-01T08:38:59.000Z</time>
      </trkpt>
      <trkpt lat="42.51878072507679462432861328125" lon="-8.69281972758471965789794921875">
        <ele>70.8000030517578125</ele>
        <time>2022-11-01T08:39:00.000Z</time>
      </trkpt>
      <trkpt lat="42.5187385641038417816162109375" lon="-8.69278653524816036224365234375">
        <ele>70.8000030517578125</ele>
        <time>2022-11-01T08:39:01.000Z</time>
      </trkpt>
      <trkpt lat="42.518697492778301239013671875" lon="-8.69275585748255252838134765625">
        <ele>71.1999969482421875</ele>
        <time>2022-11-01T08:39:02.000Z</time>
      </trkpt>
      <trkpt lat="42.5186544097959995269775390625" lon="-8.692723922431468963623046875">
        <ele>71.40000152587890625</ele>
        <time>2022-11-01T08:39:03.000Z</time>
      </trkpt>
      <trkpt lat="42.518611662089824676513671875" lon="-8.6926912330090999603271484375">
        <ele>71.59999847412109375</ele>
        <time>2022-11-01T08:39:04.000Z</time>
      </trkpt>
      <trkpt lat="42.518568746745586395263671875" lon="-8.692661225795745849609375">
        <ele>72</ele>
        <time>2022-11-01T08:39:05.000Z</time>
      </trkpt>
      <trkpt lat="42.51852415502071380615234375" lon="-8.69262996129691600799560546875">
        <ele>72</ele>
        <time>2022-11-01T08:39:06.000Z</time>
      </trkpt>
      <trkpt lat="42.518472857773303985595703125" lon="-8.69259123690426349639892578125">
        <ele>72.1999969482421875</ele>
        <time>2022-11-01T08:39:07.000Z</time>
      </trkpt>
      <trkpt lat="42.51844293437898159027099609375" lon="-8.69256273843348026275634765625">
        <ele>72.40000152587890625</ele>
        <time>2022-11-01T08:39:08.000Z</time>
      </trkpt>
      <trkpt lat="42.51840454526245594024658203125" lon="-8.69252434931695461273193359375">
        <ele>73</ele>
        <time>2022-11-01T08:39:09.000Z</time>
      </trkpt>
      <trkpt lat="42.5183654017746448516845703125" lon="-8.69248545728623867034912109375">
        <ele>73</ele>
        <time>2022-11-01T08:39:10.000Z</time>
      </trkpt>
      <trkpt lat="42.5183241628110408782958984375" lon="-8.6924461461603641510009765625">
        <ele>73.59999847412109375</ele>
        <time>2022-11-01T08:39:11.000Z</time>
      </trkpt>
      <trkpt lat="42.518281079828739166259765625" lon="-8.6924089305102825164794921875">
        <ele>73.8000030517578125</ele>
        <time>2022-11-01T08:39:12.000Z</time>
      </trkpt>
      <trkpt lat="42.518235482275485992431640625" lon="-8.69237381033599376678466796875">
        <ele>74.40000152587890625</ele>
        <time>2022-11-01T08:39:13.000Z</time>
      </trkpt>
      <trkpt lat="42.51818996854126453399658203125" lon="-8.692335672676563262939453125">
        <ele>74.59999847412109375</ele>
        <time>2022-11-01T08:39:14.000Z</time>
      </trkpt>
      <trkpt lat="42.51814822666347026824951171875" lon="-8.69229351170361042022705078125">
        <ele>74.8000030517578125</ele>
        <time>2022-11-01T08:39:15.000Z</time>
      </trkpt>
      <trkpt lat="42.51810715533792972564697265625" lon="-8.69225160218775272369384765625">
        <ele>75</ele>
        <time>2022-11-01T08:39:16.000Z</time>
      </trkpt>
      <trkpt lat="42.5180542655289173126220703125" lon="-8.6922067590057849884033203125">
        <ele>75.1999969482421875</ele>
        <time>2022-11-01T08:39:17.000Z</time>
      </trkpt>
      <trkpt lat="42.51801813952624797821044921875" lon="-8.69218320585787296295166015625">
        <ele>75.40000152587890625</ele>
        <time>2022-11-01T08:39:18.000Z</time>
      </trkpt>
      <trkpt lat="42.51797254197299480438232421875" lon="-8.6921544559299945831298828125">
        <ele>75.59999847412109375</ele>
        <time>2022-11-01T08:39:19.000Z</time>
      </trkpt>
      <trkpt lat="42.51792660914361476898193359375" lon="-8.69211673736572265625">
        <ele>75.8000030517578125</ele>
        <time>2022-11-01T08:39:20.000Z</time>
      </trkpt>
      <trkpt lat="42.51788310706615447998046875" lon="-8.6920733191072940826416015625">
        <ele>76</ele>
        <time>2022-11-01T08:39:21.000Z</time>
      </trkpt>
      <trkpt lat="42.5178376771509647369384765625" lon="-8.69203518144786357879638671875">
        <ele>76.1999969482421875</ele>
        <time>2022-11-01T08:39:22.000Z</time>
      </trkpt>
      <trkpt lat="42.5177880562841892242431640625" lon="-8.69200198911130428314208984375">
        <ele>76.1999969482421875</ele>
        <time>2022-11-01T08:39:23.000Z</time>
      </trkpt>
      <trkpt lat="42.51774036325514316558837890625" lon="-8.6919693835079669952392578125">
        <ele>76.8000030517578125</ele>
        <time>2022-11-01T08:39:24.000Z</time>
      </trkpt>
      <trkpt lat="42.51769007183611392974853515625" lon="-8.6919274739921092987060546875">
        <ele>77</ele>
        <time>2022-11-01T08:39:25.000Z</time>
      </trkpt>
      <trkpt lat="42.5176576338708400726318359375" lon="-8.69189654476940631866455078125">
        <ele>77.1999969482421875</ele>
        <time>2022-11-01T08:39:26.000Z</time>
      </trkpt>
      <trkpt lat="42.51761564053595066070556640625" lon="-8.69185966439545154571533203125">
        <ele>77.59999847412109375</ele>
        <time>2022-11-01T08:39:27.000Z</time>
      </trkpt>
      <trkpt lat="42.51756937243044376373291015625" lon="-8.691822700202465057373046875">
        <ele>77.8000030517578125</ele>
        <time>2022-11-01T08:39:28.000Z</time>
      </trkpt>
      <trkpt lat="42.51751363277435302734375" lon="-8.69177903048694133758544921875">
        <ele>78</ele>
        <time>2022-11-01T08:39:29.000Z</time>
      </trkpt>
      <trkpt lat="42.51747884787619113922119140625" lon="-8.69175287894904613494873046875">
        <ele>78.1999969482421875</ele>
        <time>2022-11-01T08:39:30.000Z</time>
      </trkpt>
      <trkpt lat="42.51743610017001628875732421875" lon="-8.6917192675173282623291015625">
        <ele>78.40000152587890625</ele>
        <time>2022-11-01T08:39:31.000Z</time>
      </trkpt>
      <trkpt lat="42.51739184372127056121826171875" lon="-8.6916820518672466278076171875">
        <ele>78.59999847412109375</ele>
        <time>2022-11-01T08:39:32.000Z</time>
      </trkpt>
      <trkpt lat="42.5173501856625080108642578125" lon="-8.69164223782718181610107421875">
        <ele>78.8000030517578125</ele>
        <time>2022-11-01T08:39:33.000Z</time>
      </trkpt>
      <trkpt lat="42.517308779060840606689453125" lon="-8.691603429615497589111328125">
        <ele>78.8000030517578125</ele>
        <time>2022-11-01T08:39:34.000Z</time>
      </trkpt>
      <trkpt lat="42.51726561225950717926025390625" lon="-8.6915653757750988006591796875">
        <ele>79.59999847412109375</ele>
        <time>2022-11-01T08:39:35.000Z</time>
      </trkpt>
      <trkpt lat="42.5172221101820468902587890625" lon="-8.69153025560081005096435546875">
        <ele>79.8000030517578125</ele>
        <time>2022-11-01T08:39:36.000Z</time>
      </trkpt>
      <trkpt lat="42.517176680266857147216796875" lon="-8.6914956383407115936279296875">
        <ele>80.1999969482421875</ele>
        <time>2022-11-01T08:39:37.000Z</time>
      </trkpt>
      <trkpt lat="42.51713267527520656585693359375" lon="-8.69146018289029598236083984375">
        <ele>80.8000030517578125</ele>
        <time>2022-11-01T08:39:38.000Z</time>
      </trkpt>
      <trkpt lat="42.5170890055596828460693359375" lon="-8.6914225481450557708740234375">
        <ele>80.8000030517578125</ele>
        <time>2022-11-01T08:39:39.000Z</time>
      </trkpt>
      <trkpt lat="42.517045252025127410888671875" lon="-8.69138290174305438995361328125">
        <ele>81.1999969482421875</ele>
        <time>2022-11-01T08:39:40.000Z</time>
      </trkpt>
      <trkpt lat="42.51700359396636486053466796875" lon="-8.69134434498846530914306640625">
        <ele>81.40000152587890625</ele>
        <time>2022-11-01T08:39:41.000Z</time>
      </trkpt>
      <trkpt lat="42.51696235500276088714599609375" lon="-8.6913048662245273590087890625">
        <ele>82</ele>
        <time>2022-11-01T08:39:42.000Z</time>
      </trkpt>
      <trkpt lat="42.5169223733246326446533203125" lon="-8.69126555509865283966064453125">
        <ele>82</ele>
        <time>2022-11-01T08:39:43.000Z</time>
      </trkpt>
      <trkpt lat="42.51688130199909210205078125" lon="-8.69122632779181003570556640625">
        <ele>82.40000152587890625</ele>
        <time>2022-11-01T08:39:44.000Z</time>
      </trkpt>
      <trkpt lat="42.5168405659496784210205078125" lon="-8.69118542410433292388916015625">
        <ele>82.59999847412109375</ele>
        <time>2022-11-01T08:39:45.000Z</time>
      </trkpt>
      <trkpt lat="42.516799829900264739990234375" lon="-8.69114267639815807342529296875">
        <ele>83</ele>
        <time>2022-11-01T08:39:46.000Z</time>
      </trkpt>
      <trkpt lat="42.516759596765041351318359375" lon="-8.6910996772348880767822265625">
        <ele>83.1999969482421875</ele>
        <time>2022-11-01T08:39:47.000Z</time>
      </trkpt>
      <trkpt lat="42.51672196201980113983154296875" lon="-8.69105583988130092620849609375">
        <ele>83.40000152587890625</ele>
        <time>2022-11-01T08:39:48.000Z</time>
      </trkpt>
      <trkpt lat="42.51668415963649749755859375" lon="-8.6910094879567623138427734375">
        <ele>83.8000030517578125</ele>
        <time>2022-11-01T08:39:49.000Z</time>
      </trkpt>
      <trkpt lat="42.51664585433900356292724609375" lon="-8.69096380658447742462158203125">
        <ele>83.8000030517578125</ele>
        <time>2022-11-01T08:39:50.000Z</time>
      </trkpt>
      <trkpt lat="42.51660771667957305908203125" lon="-8.69091670028865337371826171875">
        <ele>84</ele>
        <time>2022-11-01T08:39:51.000Z</time>
      </trkpt>
      <trkpt lat="42.51656924374401569366455078125" lon="-8.69087026454508304595947265625">
        <ele>84</ele>
        <time>2022-11-01T08:39:52.000Z</time>
      </trkpt>
      <trkpt lat="42.5165307708084583282470703125" lon="-8.69082265533506870269775390625">
        <ele>84</ele>
        <time>2022-11-01T08:39:53.000Z</time>
      </trkpt>
      <trkpt lat="42.516492716968059539794921875" lon="-8.6907714419066905975341796875">
        <ele>84.1999969482421875</ele>
        <time>2022-11-01T08:39:54.000Z</time>
      </trkpt>
      <trkpt lat="42.51645625568926334381103515625" lon="-8.6907201446592807769775390625">
        <ele>84.1999969482421875</ele>
        <time>2022-11-01T08:39:55.000Z</time>
      </trkpt>
      <trkpt lat="42.51641862094402313232421875" lon="-8.69066792540252208709716796875">
        <ele>84.40000152587890625</ele>
        <time>2022-11-01T08:39:56.000Z</time>
      </trkpt>
      <trkpt lat="42.516381405293941497802734375" lon="-8.690615035593509674072265625">
        <ele>84.59999847412109375</ele>
        <time>2022-11-01T08:39:57.000Z</time>
      </trkpt>
      <trkpt lat="42.51634351909160614013671875" lon="-8.69055979885160923004150390625">
        <ele>84.59999847412109375</ele>
        <time>2022-11-01T08:39:58.000Z</time>
      </trkpt>
      <trkpt lat="42.5163064710795879364013671875" lon="-8.69050204753875732421875">
        <ele>84.8000030517578125</ele>
        <time>2022-11-01T08:39:59.000Z</time>
      </trkpt>
      <trkpt lat="42.516270764172077178955078125" lon="-8.69044060818850994110107421875">
        <ele>84.8000030517578125</ele>
        <time>2022-11-01T08:40:00.000Z</time>
      </trkpt>
      <trkpt lat="42.51623765565454959869384765625" lon="-8.69038059376180171966552734375">
        <ele>85</ele>
        <time>2022-11-01T08:40:01.000Z</time>
      </trkpt>
      <trkpt lat="42.51620463095605373382568359375" lon="-8.6903184838593006134033203125">
        <ele>85.1999969482421875</ele>
        <time>2022-11-01T08:40:02.000Z</time>
      </trkpt>
      <trkpt lat="42.51617294736206531524658203125" lon="-8.690256290137767791748046875">
        <ele>85.1999969482421875</ele>
        <time>2022-11-01T08:40:03.000Z</time>
      </trkpt>
      <trkpt lat="42.5161425210535526275634765625" lon="-8.69019116275012493133544921875">
        <ele>85.1999969482421875</ele>
        <time>2022-11-01T08:40:04.000Z</time>
      </trkpt>
      <trkpt lat="42.5161110050976276397705078125" lon="-8.69012762792408466339111328125">
        <ele>85.1999969482421875</ele>
        <time>2022-11-01T08:40:05.000Z</time>
      </trkpt>
      <trkpt lat="42.51608208753168582916259765625" lon="-8.69006241671741008758544921875">
        <ele>85.40000152587890625</ele>
        <time>2022-11-01T08:40:06.000Z</time>
      </trkpt>
      <trkpt lat="42.51605451107025146484375" lon="-8.68999418802559375762939453125">
        <ele>85.40000152587890625</ele>
        <time>2022-11-01T08:40:07.000Z</time>
      </trkpt>
      <trkpt lat="42.51602726988494396209716796875" lon="-8.689924366772174835205078125">
        <ele>85.40000152587890625</ele>
        <time>2022-11-01T08:40:08.000Z</time>
      </trkpt>
      <trkpt lat="42.51599944196641445159912109375" lon="-8.6898534558713436126708984375">
        <ele>85.40000152587890625</ele>
        <time>2022-11-01T08:40:09.000Z</time>
      </trkpt>
      <trkpt lat="42.515972368419170379638671875" lon="-8.68978195823729038238525390625">
        <ele>85.40000152587890625</ele>
        <time>2022-11-01T08:40:10.000Z</time>
      </trkpt>
      <trkpt lat="42.51594722270965576171875" lon="-8.6897094547748565673828125">
        <ele>85.40000152587890625</ele>
        <time>2022-11-01T08:40:11.000Z</time>
      </trkpt>
      <trkpt lat="42.5159219093620777130126953125" lon="-8.68963544256985187530517578125">
        <ele>85.40000152587890625</ele>
        <time>2022-11-01T08:40:12.000Z</time>
      </trkpt>
      <trkpt lat="42.5158960931003093719482421875" lon="-8.68956151418387889862060546875">
        <ele>85.40000152587890625</ele>
        <time>2022-11-01T08:40:13.000Z</time>
      </trkpt>
      <trkpt lat="42.51586876809597015380859375" lon="-8.6894880048930644989013671875">
        <ele>85.59999847412109375</ele>
        <time>2022-11-01T08:40:14.000Z</time>
      </trkpt>
      <trkpt lat="42.5158411078155040740966796875" lon="-8.68941633962094783782958984375">
        <ele>85.59999847412109375</ele>
        <time>2022-11-01T08:40:15.000Z</time>
      </trkpt>
      <trkpt lat="42.51581269316375255584716796875" lon="-8.68934425525367259979248046875">
        <ele>85.59999847412109375</ele>
        <time>2022-11-01T08:40:16.000Z</time>
      </trkpt>
      <trkpt lat="42.5157857872545719146728515625" lon="-8.689275272190570831298828125">
        <ele>85.8000030517578125</ele>
        <time>2022-11-01T08:40:17.000Z</time>
      </trkpt>
      <trkpt lat="42.51575854606926441192626953125" lon="-8.68920813314616680145263671875">
        <ele>85.8000030517578125</ele>
        <time>2022-11-01T08:40:18.000Z</time>
      </trkpt>
      <trkpt lat="42.51572920940816402435302734375" lon="-8.6891426704823970794677734375">
        <ele>85.8000030517578125</ele>
        <time>2022-11-01T08:40:19.000Z</time>
      </trkpt>
      <trkpt lat="42.51569584943354129791259765625" lon="-8.6890789680182933807373046875">
        <ele>85.8000030517578125</ele>
        <time>2022-11-01T08:40:20.000Z</time>
      </trkpt>
      <trkpt lat="42.5156627409160137176513671875" lon="-8.689019121229648590087890625">
        <ele>85.8000030517578125</ele>
        <time>2022-11-01T08:40:21.000Z</time>
      </trkpt>
      <trkpt lat="42.51563097350299358367919921875" lon="-8.68895634077489376068115234375">
        <ele>85.8000030517578125</ele>
        <time>2022-11-01T08:40:22.000Z</time>
      </trkpt>
      <trkpt lat="42.51560457050800323486328125" lon="-8.68889029137790203094482421875">
        <ele>85.8000030517578125</ele>
        <time>2022-11-01T08:40:23.000Z</time>
      </trkpt>
      <trkpt lat="42.51558839343488216400146484375" lon="-8.68882139213383197784423828125">
        <ele>85.8000030517578125</ele>
        <time>2022-11-01T08:40:24.000Z</time>
      </trkpt>
      <trkpt lat="42.5155852921307086944580078125" lon="-8.68875316344201564788818359375">
        <ele>85.8000030517578125</ele>
        <time>2022-11-01T08:40:25.000Z</time>
      </trkpt>
      <trkpt lat="42.51559342257678508758544921875" lon="-8.68868711404502391815185546875">
        <ele>86</ele>
        <time>2022-11-01T08:40:26.000Z</time>
      </trkpt>
      <trkpt lat="42.51561152748763561248779296875" lon="-8.68862827308475971221923828125">
        <ele>86</ele>
        <time>2022-11-01T08:40:27.000Z</time>
      </trkpt>
      <trkpt lat="42.515641115605831146240234375" lon="-8.6885763891041278839111328125">
        <ele>86.1999969482421875</ele>
        <time>2022-11-01T08:40:28.000Z</time>
      </trkpt>
      <trkpt lat="42.51567891798913478851318359375" lon="-8.6885331384837627410888671875">
        <ele>86.40000152587890625</ele>
        <time>2022-11-01T08:40:29.000Z</time>
      </trkpt>
      <trkpt lat="42.51572401262819766998291015625" lon="-8.68849969469010829925537109375">
        <ele>86.59999847412109375</ele>
        <time>2022-11-01T08:40:30.000Z</time>
      </trkpt>
      <trkpt lat="42.5157737173140048980712890625" lon="-8.68847656063735485076904296875">
        <ele>86.8000030517578125</ele>
        <time>2022-11-01T08:40:31.000Z</time>
      </trkpt>
      <trkpt lat="42.51582761295139789581298828125" lon="-8.68845795281231403350830078125">
        <ele>87.1999969482421875</ele>
        <time>2022-11-01T08:40:32.000Z</time>
      </trkpt>
      <trkpt lat="42.5158840231597423553466796875" lon="-8.68844001553952693939208984375">
        <ele>87.40000152587890625</ele>
        <time>2022-11-01T08:40:33.000Z</time>
      </trkpt>
      <trkpt lat="42.51594076864421367645263671875" lon="-8.68842006660997867584228515625">
        <ele>87.8000030517578125</ele>
        <time>2022-11-01T08:40:34.000Z</time>
      </trkpt>
      <trkpt lat="42.51599751412868499755859375" lon="-8.68839919567108154296875">
        <ele>87.8000030517578125</ele>
        <time>2022-11-01T08:40:35.000Z</time>
      </trkpt>
      <trkpt lat="42.516052164137363433837890625" lon="-8.688374049961566925048828125">
        <ele>87.8000030517578125</ele>
        <time>2022-11-01T08:40:36.000Z</time>
      </trkpt>
      <trkpt lat="42.51610170118510723114013671875" lon="-8.68834345601499080657958984375">
        <ele>88</ele>
        <time>2022-11-01T08:40:37.000Z</time>
      </trkpt>
      <trkpt lat="42.51614646054804325103759765625" lon="-8.68831177242100238800048828125">
        <ele>88</ele>
        <time>2022-11-01T08:40:38.000Z</time>
      </trkpt>
      <trkpt lat="42.5161857716739177703857421875" lon="-8.68827648460865020751953125">
        <ele>88</ele>
        <time>2022-11-01T08:40:39.000Z</time>
      </trkpt>
      <trkpt lat="42.51622013747692108154296875" lon="-8.68823952041566371917724609375">
        <ele>88.1999969482421875</ele>
        <time>2022-11-01T08:40:40.000Z</time>
      </trkpt>
      <trkpt lat="42.516253329813480377197265625" lon="-8.68820540606975555419921875">
        <ele>88.1999969482421875</ele>
        <time>2022-11-01T08:40:41.000Z</time>
      </trkpt>
      <trkpt lat="42.51628182828426361083984375" lon="-8.68816710077226161956787109375">
        <ele>88.40000152587890625</ele>
        <time>2022-11-01T08:40:42.000Z</time>
      </trkpt>
      <trkpt lat="42.5163081474602222442626953125" lon="-8.68812569417059421539306640625">
        <ele>88.59999847412109375</ele>
        <time>2022-11-01T08:40:43.000Z</time>
      </trkpt>
      <trkpt lat="42.51633354462683200836181640625" lon="-8.68808479048311710357666015625">
        <ele>89</ele>
        <time>2022-11-01T08:40:44.000Z</time>
      </trkpt>
      <trkpt lat="42.516357935965061187744140625" lon="-8.688044138252735137939453125">
        <ele>89.59999847412109375</ele>
        <time>2022-11-01T08:40:45.000Z</time>
      </trkpt>
      <trkpt lat="42.5163798965513706207275390625" lon="-8.68800315074622631072998046875">
        <ele>90</ele>
        <time>2022-11-01T08:40:46.000Z</time>
      </trkpt>
      <trkpt lat="42.51640127040445804595947265625" lon="-8.687962330877780914306640625">
        <ele>90</ele>
        <time>2022-11-01T08:40:47.000Z</time>
      </trkpt>
      <trkpt lat="42.516421638429164886474609375" lon="-8.6879189126193523406982421875">
        <ele>90.59999847412109375</ele>
        <time>2022-11-01T08:40:48.000Z</time>
      </trkpt>
      <trkpt lat="42.5164412520825862884521484375" lon="-8.68787842802703380584716796875">
        <ele>90.8000030517578125</ele>
        <time>2022-11-01T08:40:49.000Z</time>
      </trkpt>
      <trkpt lat="42.51645944081246852874755859375" lon="-8.687839619815349578857421875">
        <ele>91.1999969482421875</ele>
        <time>2022-11-01T08:40:50.000Z</time>
      </trkpt>
      <trkpt lat="42.5164744444191455841064453125" lon="-8.6877943575382232666015625">
        <ele>91.40000152587890625</ele>
        <time>2022-11-01T08:40:51.000Z</time>
      </trkpt>
      <trkpt lat="42.5164876878261566162109375" lon="-8.6877501010894775390625">
        <ele>92</ele>
        <time>2022-11-01T08:40:52.000Z</time>
      </trkpt>
      <trkpt lat="42.51649917103350162506103515625" lon="-8.6877086944878101348876953125">
        <ele>92.40000152587890625</ele>
        <time>2022-11-01T08:40:53.000Z</time>
      </trkpt>
      <trkpt lat="42.5165096484124660491943359375" lon="-8.687664605677127838134765625">
        <ele>92.8000030517578125</ele>
        <time>2022-11-01T08:40:54.000Z</time>
      </trkpt>
      <trkpt lat="42.5165187008678913116455078125" lon="-8.6876181699335575103759765625">
        <ele>93.1999969482421875</ele>
        <time>2022-11-01T08:40:55.000Z</time>
      </trkpt>
      <trkpt lat="42.516524903476238250732421875" lon="-8.68757114745676517486572265625">
        <ele>93.59999847412109375</ele>
        <time>2022-11-01T08:40:56.000Z</time>
      </trkpt>
      <trkpt lat="42.51652984879910945892333984375" lon="-8.68752605281770229339599609375">
        <ele>93.8000030517578125</ele>
        <time>2022-11-01T08:40:57.000Z</time>
      </trkpt>
      <trkpt lat="42.51653286628425121307373046875" lon="-8.68748179636895656585693359375">
        <ele>94.1999969482421875</ele>
        <time>2022-11-01T08:40:58.000Z</time>
      </trkpt>
      <trkpt lat="42.516534291207790374755859375" lon="-8.68743636645376682281494140625">
        <ele>94.8000030517578125</ele>
        <time>2022-11-01T08:40:59.000Z</time>
      </trkpt>
      <trkpt lat="42.51653529703617095947265625" lon="-8.687391020357608795166015625">
        <ele>95</ele>
        <time>2022-11-01T08:41:00.000Z</time>
      </trkpt>
      <trkpt lat="42.51653152517974376678466796875" lon="-8.68734399788081645965576171875">
        <ele>95.40000152587890625</ele>
        <time>2022-11-01T08:41:01.000Z</time>
      </trkpt>
      <trkpt lat="42.51652465201914310455322265625" lon="-8.6872981488704681396484375">
        <ele>95.59999847412109375</ele>
        <time>2022-11-01T08:41:02.000Z</time>
      </trkpt>
      <trkpt lat="42.51651828177273273468017578125" lon="-8.6872507072985172271728515625">
        <ele>96</ele>
        <time>2022-11-01T08:41:03.000Z</time>
      </trkpt>
      <trkpt lat="42.51651274971663951873779296875" lon="-8.68720225989818572998046875">
        <ele>96.40000152587890625</ele>
        <time>2022-11-01T08:41:04.000Z</time>
      </trkpt>
      <trkpt lat="42.51650805585086345672607421875" lon="-8.68715691380202770233154296875">
        <ele>96.8000030517578125</ele>
        <time>2022-11-01T08:41:05.000Z</time>
      </trkpt>
      <trkpt lat="42.51650252379477024078369140625" lon="-8.68711232207715511322021484375">
        <ele>97</ele>
        <time>2022-11-01T08:41:06.000Z</time>
      </trkpt>
      <trkpt lat="42.51649439334869384765625" lon="-8.68706412613391876220703125">
        <ele>97.40000152587890625</ele>
        <time>2022-11-01T08:41:07.000Z</time>
      </trkpt>
      <trkpt lat="42.51648324541747570037841796875" lon="-8.68701525963842868804931640625">
        <ele>97.59999847412109375</ele>
        <time>2022-11-01T08:41:08.000Z</time>
      </trkpt>
      <trkpt lat="42.516470588743686676025390625" lon="-8.6869709193706512451171875">
        <ele>98.1999969482421875</ele>
        <time>2022-11-01T08:41:09.000Z</time>
      </trkpt>
      <trkpt lat="42.5164555013179779052734375" lon="-8.68692993186414241790771484375">
        <ele>98.8000030517578125</ele>
        <time>2022-11-01T08:41:10.000Z</time>
      </trkpt>
      <trkpt lat="42.5164394080638885498046875" lon="-8.68688441812992095947265625">
        <ele>99</ele>
        <time>2022-11-01T08:41:11.000Z</time>
      </trkpt>
      <trkpt lat="42.516427002847194671630859375" lon="-8.68683345615863800048828125">
        <ele>99.59999847412109375</ele>
        <time>2022-11-01T08:41:12.000Z</time>
      </trkpt>
      <trkpt lat="42.51641702838242053985595703125" lon="-8.6867873556911945343017578125">
        <ele>99.8000030517578125</ele>
        <time>2022-11-01T08:41:13.000Z</time>
      </trkpt>
      <trkpt lat="42.5164073891937732696533203125" lon="-8.68674703873693943023681640625">
        <ele>100.40000152587890625</ele>
        <time>2022-11-01T08:41:14.000Z</time>
      </trkpt>
      <trkpt lat="42.5163953192532062530517578125" lon="-8.686705045402050018310546875">
        <ele>100.8000030517578125</ele>
        <time>2022-11-01T08:41:15.000Z</time>
      </trkpt>
      <trkpt lat="42.51637981273233890533447265625" lon="-8.6866579391062259674072265625">
        <ele>101.1999969482421875</ele>
        <time>2022-11-01T08:41:16.000Z</time>
      </trkpt>
      <trkpt lat="42.5163617916405200958251953125" lon="-8.68661276064813137054443359375">
        <ele>101.40000152587890625</ele>
        <time>2022-11-01T08:41:17.000Z</time>
      </trkpt>
      <trkpt lat="42.5163453631103038787841796875" lon="-8.686576299369335174560546875">
        <ele>101.8000030517578125</ele>
        <time>2022-11-01T08:41:18.000Z</time>
      </trkpt>
      <trkpt lat="42.51632834784686565399169921875" lon="-8.68653841316699981689453125">
        <ele>102</ele>
        <time>2022-11-01T08:41:19.000Z</time>
      </trkpt>
      <trkpt lat="42.5163104943931102752685546875" lon="-8.6864929832518100738525390625">
        <ele>102.59999847412109375</ele>
        <time>2022-11-01T08:41:20.000Z</time>
      </trkpt>
      <trkpt lat="42.51629331149160861968994140625" lon="-8.68645065464079380035400390625">
        <ele>103.1999969482421875</ele>
        <time>2022-11-01T08:41:21.000Z</time>
      </trkpt>
      <trkpt lat="42.51627537421882152557373046875" lon="-8.6864064820110797882080078125">
        <ele>103.40000152587890625</ele>
        <time>2022-11-01T08:41:22.000Z</time>
      </trkpt>
      <trkpt lat="42.51625525765120983123779296875" lon="-8.6863639019429683685302734375">
        <ele>103.8000030517578125</ele>
        <time>2022-11-01T08:41:23.000Z</time>
      </trkpt>
      <trkpt lat="42.516233883798122406005859375" lon="-8.68631989695131778717041015625">
        <ele>104</ele>
        <time>2022-11-01T08:41:24.000Z</time>
      </trkpt>
      <trkpt lat="42.5162112526595592498779296875" lon="-8.68627279065549373626708984375">
        <ele>104.59999847412109375</ele>
        <time>2022-11-01T08:41:25.000Z</time>
      </trkpt>
      <trkpt lat="42.51618820242583751678466796875" lon="-8.68622593581676483154296875">
        <ele>105</ele>
        <time>2022-11-01T08:41:26.000Z</time>
      </trkpt>
      <trkpt lat="42.51616506837308406829833984375" lon="-8.68618109263479709625244140625">
        <ele>105.40000152587890625</ele>
        <time>2022-11-01T08:41:27.000Z</time>
      </trkpt>
      <trkpt lat="42.5161421857774257659912109375" lon="-8.6861412785947322845458984375">
        <ele>105.40000152587890625</ele>
        <time>2022-11-01T08:41:28.000Z</time>
      </trkpt>
      <trkpt lat="42.51611997373402118682861328125" lon="-8.68610464967787265777587890625">
        <ele>105.8000030517578125</ele>
        <time>2022-11-01T08:41:29.000Z</time>
      </trkpt>
      <trkpt lat="42.5160965882241725921630859375" lon="-8.68606994859874248504638671875">
        <ele>106</ele>
        <time>2022-11-01T08:41:30.000Z</time>
      </trkpt>
      <trkpt lat="42.516073621809482574462890625" lon="-8.6860366724431514739990234375">
        <ele>106.40000152587890625</ele>
        <time>2022-11-01T08:41:31.000Z</time>
      </trkpt>
      <trkpt lat="42.5160496495664119720458984375" lon="-8.68600557558238506317138671875">
        <ele>106.59999847412109375</ele>
        <time>2022-11-01T08:41:32.000Z</time>
      </trkpt>
      <trkpt lat="42.51602123491466045379638671875" lon="-8.6859790049493312835693359375">
        <ele>106.8000030517578125</ele>
        <time>2022-11-01T08:41:33.000Z</time>
      </trkpt>
      <trkpt lat="42.5159887969493865966796875" lon="-8.68595545180141925811767578125">
        <ele>107.1999969482421875</ele>
        <time>2022-11-01T08:41:34.000Z</time>
      </trkpt>
      <trkpt lat="42.51595401205122470855712890625" lon="-8.68593491613864898681640625">
        <ele>107.40000152587890625</ele>
        <time>2022-11-01T08:41:35.000Z</time>
      </trkpt>
      <trkpt lat="42.51591796986758708953857421875" lon="-8.6859206669032573699951171875">
        <ele>107.8000030517578125</ele>
        <time>2022-11-01T08:41:36.000Z</time>
      </trkpt>
      <trkpt lat="42.5158796645700931549072265625" lon="-8.685913123190402984619140625">
        <ele>108</ele>
        <time>2022-11-01T08:41:37.000Z</time>
      </trkpt>
      <trkpt lat="42.5158385932445526123046875" lon="-8.68591287173330783843994140625">
        <ele>108.1999969482421875</ele>
        <time>2022-11-01T08:41:38.000Z</time>
      </trkpt>
      <trkpt lat="42.51579408533871173858642578125" lon="-8.68591882288455963134765625">
        <ele>108.1999969482421875</ele>
        <time>2022-11-01T08:41:39.000Z</time>
      </trkpt>
      <trkpt lat="42.515749745070934295654296875" lon="-8.68592678569257259368896484375">
        <ele>108.59999847412109375</ele>
        <time>2022-11-01T08:41:40.000Z</time>
      </trkpt>
      <trkpt lat="42.5157049857079982757568359375" lon="-8.6859320662915706634521484375">
        <ele>108.59999847412109375</ele>
        <time>2022-11-01T08:41:41.000Z</time>
      </trkpt>
      <trkpt lat="42.51565913669764995574951171875" lon="-8.685937933623790740966796875">
        <ele>108.8000030517578125</ele>
        <time>2022-11-01T08:41:42.000Z</time>
      </trkpt>
      <trkpt lat="42.51561203040182590484619140625" lon="-8.68594430387020111083984375">
        <ele>108.8000030517578125</ele>
        <time>2022-11-01T08:41:43.000Z</time>
      </trkpt>
      <trkpt lat="42.5155648402869701385498046875" lon="-8.68594774045050144195556640625">
        <ele>108.8000030517578125</ele>
        <time>2022-11-01T08:41:44.000Z</time>
      </trkpt>
      <trkpt lat="42.5155168958008289337158203125" lon="-8.68594656698405742645263671875">
        <ele>109</ele>
        <time>2022-11-01T08:41:45.000Z</time>
      </trkpt>
      <trkpt lat="42.51546635292470455169677734375" lon="-8.68594254367053508758544921875">
        <ele>109</ele>
        <time>2022-11-01T08:41:46.000Z</time>
      </trkpt>
      <trkpt lat="42.51541949808597564697265625" lon="-8.68593692779541015625">
        <ele>109</ele>
        <time>2022-11-01T08:41:47.000Z</time>
      </trkpt>
      <trkpt lat="42.5153733976185321807861328125" lon="-8.685925193130970001220703125">
        <ele>109</ele>
        <time>2022-11-01T08:41:48.000Z</time>
      </trkpt>
      <trkpt lat="42.51532671041786670684814453125" lon="-8.685908429324626922607421875">
        <ele>109</ele>
        <time>2022-11-01T08:41:49.000Z</time>
      </trkpt>
      <trkpt lat="42.51527859829366207122802734375" lon="-8.68588755838572978973388671875">
        <ele>109</ele>
        <time>2022-11-01T08:41:50.000Z</time>
      </trkpt>
      <trkpt lat="42.5152315758168697357177734375" lon="-8.68586190976202487945556640625">
        <ele>109.1999969482421875</ele>
        <time>2022-11-01T08:41:51.000Z</time>
      </trkpt>
      <trkpt lat="42.51518673263490200042724609375" lon="-8.68583341129124164581298828125">
        <ele>109.1999969482421875</ele>
        <time>2022-11-01T08:41:52.000Z</time>
      </trkpt>
      <trkpt lat="42.51514465548098087310791015625" lon="-8.68580281734466552734375">
        <ele>109.1999969482421875</ele>
        <time>2022-11-01T08:41:53.000Z</time>
      </trkpt>
      <trkpt lat="42.51510291360318660736083984375" lon="-8.685770966112613677978515625">
        <ele>109.40000152587890625</ele>
        <time>2022-11-01T08:41:54.000Z</time>
      </trkpt>
      <trkpt lat="42.51506117172539234161376953125" lon="-8.685738109052181243896484375">
        <ele>109.40000152587890625</ele>
        <time>2022-11-01T08:41:55.000Z</time>
      </trkpt>
      <trkpt lat="42.5150206871330738067626953125" lon="-8.68570248596370220184326171875">
        <ele>109.59999847412109375</ele>
        <time>2022-11-01T08:41:56.000Z</time>
      </trkpt>
      <trkpt lat="42.5149834714829921722412109375" lon="-8.6856631748378276824951171875">
        <ele>109.59999847412109375</ele>
        <time>2022-11-01T08:41:57.000Z</time>
      </trkpt>
      <trkpt lat="42.51494818367063999176025390625" lon="-8.685618080198764801025390625">
        <ele>109.8000030517578125</ele>
        <time>2022-11-01T08:41:58.000Z</time>
      </trkpt>
      <trkpt lat="42.51491390168666839599609375" lon="-8.685570470988750457763671875">
        <ele>110</ele>
        <time>2022-11-01T08:41:59.000Z</time>
      </trkpt>
      <trkpt lat="42.51488297246396541595458984375" lon="-8.685522861778736114501953125">
        <ele>110.1999969482421875</ele>
        <time>2022-11-01T08:42:00.000Z</time>
      </trkpt>
      <trkpt lat="42.51485229469835758209228515625" lon="-8.68547164835035800933837890625">
        <ele>110.40000152587890625</ele>
        <time>2022-11-01T08:42:01.000Z</time>
      </trkpt>
      <trkpt lat="42.5148225389420986175537109375" lon="-8.6854179203510284423828125">
        <ele>110.59999847412109375</ele>
        <time>2022-11-01T08:42:02.000Z</time>
      </trkpt>
      <trkpt lat="42.51479177735745906829833984375" lon="-8.685365952551364898681640625">
        <ele>110.59999847412109375</ele>
        <time>2022-11-01T08:42:03.000Z</time>
      </trkpt>
      <trkpt lat="42.51475992612540721893310546875" lon="-8.6853159964084625244140625">
        <ele>110.8000030517578125</ele>
        <time>2022-11-01T08:42:04.000Z</time>
      </trkpt>
      <trkpt lat="42.51472589559853076934814453125" lon="-8.68527048267424106597900390625">
        <ele>110.8000030517578125</ele>
        <time>2022-11-01T08:42:05.000Z</time>
      </trkpt>
      <trkpt lat="42.5146879255771636962890625" lon="-8.68522949516773223876953125">
        <ele>111</ele>
        <time>2022-11-01T08:42:06.000Z</time>
      </trkpt>
      <trkpt lat="42.514646686613559722900390625" lon="-8.6851941235363483428955078125">
        <ele>111.1999969482421875</ele>
        <time>2022-11-01T08:42:07.000Z</time>
      </trkpt>
      <trkpt lat="42.5146029330790042877197265625" lon="-8.68516487069427967071533203125">
        <ele>111.1999969482421875</ele>
        <time>2022-11-01T08:42:08.000Z</time>
      </trkpt>
      <trkpt lat="42.5145586766302585601806640625" lon="-8.68514190427958965301513671875">
        <ele>111.40000152587890625</ele>
        <time>2022-11-01T08:42:09.000Z</time>
      </trkpt>
      <trkpt lat="42.514513246715068817138671875" lon="-8.685121871531009674072265625">
        <ele>111.40000152587890625</ele>
        <time>2022-11-01T08:42:10.000Z</time>
      </trkpt>
      <trkpt lat="42.5144671462476253509521484375" lon="-8.68510343134403228759765625">
        <ele>111.59999847412109375</ele>
        <time>2022-11-01T08:42:11.000Z</time>
      </trkpt>
      <trkpt lat="42.514419369399547576904296875" lon="-8.68508733808994293212890625">
        <ele>111.59999847412109375</ele>
        <time>2022-11-01T08:42:12.000Z</time>
      </trkpt>
      <trkpt lat="42.5143705867230892181396484375" lon="-8.685075938701629638671875">
        <ele>112</ele>
        <time>2022-11-01T08:42:13.000Z</time>
      </trkpt>
      <trkpt lat="42.51432373188436031341552734375" lon="-8.68507199920713901519775390625">
        <ele>112.1999969482421875</ele>
        <time>2022-11-01T08:42:14.000Z</time>
      </trkpt>
      <trkpt lat="42.514276206493377685546875" lon="-8.6850633658468723297119140625">
        <ele>112.40000152587890625</ele>
        <time>2022-11-01T08:42:15.000Z</time>
      </trkpt>
      <trkpt lat="42.514227926731109619140625" lon="-8.68504953570663928985595703125">
        <ele>112.59999847412109375</ele>
        <time>2022-11-01T08:42:16.000Z</time>
      </trkpt>
      <trkpt lat="42.514177970588207244873046875" lon="-8.68503662757575511932373046875">
        <ele>112.8000030517578125</ele>
        <time>2022-11-01T08:42:17.000Z</time>
      </trkpt>
      <trkpt lat="42.5141295231878757476806640625" lon="-8.685025312006473541259765625">
        <ele>112.8000030517578125</ele>
        <time>2022-11-01T08:42:18.000Z</time>
      </trkpt>
      <trkpt lat="42.5140817463397979736328125" lon="-8.68501357734203338623046875">
        <ele>112.8000030517578125</ele>
        <time>2022-11-01T08:42:19.000Z</time>
      </trkpt>
      <trkpt lat="42.5140329636633396148681640625" lon="-8.68499957956373691558837890625">
        <ele>112.8000030517578125</ele>
        <time>2022-11-01T08:42:20.000Z</time>
      </trkpt>
      <trkpt lat="42.5139836780726909637451171875" lon="-8.68498499505221843719482421875">
        <ele>113</ele>
        <time>2022-11-01T08:42:21.000Z</time>
      </trkpt>
      <trkpt lat="42.5139353983104228973388671875" lon="-8.68497175164520740509033203125">
        <ele>113.1999969482421875</ele>
        <time>2022-11-01T08:42:22.000Z</time>
      </trkpt>
      <trkpt lat="42.5138857774436473846435546875" lon="-8.68495582602918148040771484375">
        <ele>113.40000152587890625</ele>
        <time>2022-11-01T08:42:23.000Z</time>
      </trkpt>
      <trkpt lat="42.5138349831104278564453125" lon="-8.6849379725754261016845703125">
        <ele>113.59999847412109375</ele>
        <time>2022-11-01T08:42:24.000Z</time>
      </trkpt>
      <trkpt lat="42.51378410495817661285400390625" lon="-8.68492213077843189239501953125">
        <ele>113.8000030517578125</ele>
        <time>2022-11-01T08:42:25.000Z</time>
      </trkpt>
      <trkpt lat="42.5137342326343059539794921875" lon="-8.68490503169596195220947265625">
        <ele>114</ele>
        <time>2022-11-01T08:42:26.000Z</time>
      </trkpt>
      <trkpt lat="42.5136847794055938720703125" lon="-8.68488508276641368865966796875">
        <ele>114.1999969482421875</ele>
        <time>2022-11-01T08:42:27.000Z</time>
      </trkpt>
      <trkpt lat="42.51363457180559635162353515625" lon="-8.6848635412752628326416015625">
        <ele>114.40000152587890625</ele>
        <time>2022-11-01T08:42:28.000Z</time>
      </trkpt>
      <trkpt lat="42.51358411274850368499755859375" lon="-8.68484334088861942291259765625">
        <ele>114.59999847412109375</ele>
        <time>2022-11-01T08:42:29.000Z</time>
      </trkpt>
      <trkpt lat="42.51353390514850616455078125" lon="-8.6848233081400394439697265625">
        <ele>114.59999847412109375</ele>
        <time>2022-11-01T08:42:30.000Z</time>
      </trkpt>
      <trkpt lat="42.5134841166436672210693359375" lon="-8.684802688658237457275390625">
        <ele>114.59999847412109375</ele>
        <time>2022-11-01T08:42:31.000Z</time>
      </trkpt>
      <trkpt lat="42.51343390904366970062255859375" lon="-8.68478014133870601654052734375">
        <ele>114.59999847412109375</ele>
        <time>2022-11-01T08:42:32.000Z</time>
      </trkpt>
      <trkpt lat="42.5133838690817356109619140625" lon="-8.6847589351236820220947265625">
        <ele>114.59999847412109375</ele>
        <time>2022-11-01T08:42:33.000Z</time>
      </trkpt>
      <trkpt lat="42.51333416439592838287353515625" lon="-8.6847388185560703277587890625">
        <ele>114.8000030517578125</ele>
        <time>2022-11-01T08:42:34.000Z</time>
      </trkpt>
      <trkpt lat="42.5132849626243114471435546875" lon="-8.6847166903316974639892578125">
        <ele>115</ele>
        <time>2022-11-01T08:42:35.000Z</time>
      </trkpt>
      <trkpt lat="42.51323576085269451141357421875" lon="-8.68469364009797573089599609375">
        <ele>115</ele>
        <time>2022-11-01T08:42:36.000Z</time>
      </trkpt>
      <trkpt lat="42.51318697817623615264892578125" lon="-8.6846700869500637054443359375">
        <ele>115.1999969482421875</ele>
        <time>2022-11-01T08:42:37.000Z</time>
      </trkpt>
      <trkpt lat="42.51313936896622180938720703125" lon="-8.6846452765166759490966796875">
        <ele>115.1999969482421875</ele>
        <time>2022-11-01T08:42:38.000Z</time>
      </trkpt>
      <trkpt lat="42.5130812823772430419921875" lon="-8.68461283855140209197998046875">
        <ele>115.40000152587890625</ele>
        <time>2022-11-01T08:42:39.000Z</time>
      </trkpt>
      <trkpt lat="42.5130438990890979766845703125" lon="-8.6845923028886318206787109375">
        <ele>115.59999847412109375</ele>
        <time>2022-11-01T08:42:40.000Z</time>
      </trkpt>
      <trkpt lat="42.5129946134984493255615234375" lon="-8.684566654264926910400390625">
        <ele>115.8000030517578125</ele>
        <time>2022-11-01T08:42:41.000Z</time>
      </trkpt>
      <trkpt lat="42.512944154441356658935546875" lon="-8.68454142473638057708740234375">
        <ele>116</ele>
        <time>2022-11-01T08:42:42.000Z</time>
      </trkpt>
      <trkpt lat="42.51289361156523227691650390625" lon="-8.684515021741390228271484375">
        <ele>116.1999969482421875</ele>
        <time>2022-11-01T08:42:43.000Z</time>
      </trkpt>
      <trkpt lat="42.5128447450697422027587890625" lon="-8.6844843439757823944091796875">
        <ele>116.40000152587890625</ele>
        <time>2022-11-01T08:42:44.000Z</time>
      </trkpt>
      <trkpt lat="42.512795962393283843994140625" lon="-8.684453330934047698974609375">
        <ele>116.40000152587890625</ele>
        <time>2022-11-01T08:42:45.000Z</time>
      </trkpt>
      <trkpt lat="42.51274893991649150848388671875" lon="-8.684425838291645050048828125">
        <ele>116.59999847412109375</ele>
        <time>2022-11-01T08:42:46.000Z</time>
      </trkpt>
      <trkpt lat="42.51269797794520854949951171875" lon="-8.68439423851668834686279296875">
        <ele>116.59999847412109375</ele>
        <time>2022-11-01T08:42:47.000Z</time>
      </trkpt>
      <trkpt lat="42.512648105621337890625" lon="-8.684360124170780181884765625">
        <ele>116.8000030517578125</ele>
        <time>2022-11-01T08:42:48.000Z</time>
      </trkpt>
      <trkpt lat="42.51259915530681610107421875" lon="-8.68432533927261829376220703125">
        <ele>116.8000030517578125</ele>
        <time>2022-11-01T08:42:49.000Z</time>
      </trkpt>
      <trkpt lat="42.51255012117326259613037109375" lon="-8.68428862653672695159912109375">
        <ele>116.8000030517578125</ele>
        <time>2022-11-01T08:42:50.000Z</time>
      </trkpt>
      <trkpt lat="42.51250402070581912994384765625" lon="-8.68425023742020130157470703125">
        <ele>116.8000030517578125</ele>
        <time>2022-11-01T08:42:51.000Z</time>
      </trkpt>
      <trkpt lat="42.51245842315256595611572265625" lon="-8.6842127703130245208740234375">
        <ele>117</ele>
        <time>2022-11-01T08:42:52.000Z</time>
      </trkpt>
      <trkpt lat="42.5124125741422176361083984375" lon="-8.68417530320584774017333984375">
        <ele>117</ele>
        <time>2022-11-01T08:42:53.000Z</time>
      </trkpt>
      <trkpt lat="42.51236638985574245452880859375" lon="-8.684140183031558990478515625">
        <ele>117</ele>
        <time>2022-11-01T08:42:54.000Z</time>
      </trkpt>
      <trkpt lat="42.5123210437595844268798828125" lon="-8.6841068230569362640380859375">
        <ele>117</ele>
        <time>2022-11-01T08:42:55.000Z</time>
      </trkpt>
      <trkpt lat="42.51227653585374355316162109375" lon="-8.68407304398715496063232421875">
        <ele>117.1999969482421875</ele>
        <time>2022-11-01T08:42:56.000Z</time>
      </trkpt>
      <trkpt lat="42.5122328661382198333740234375" lon="-8.6840397678315639495849609375">
        <ele>117.59999847412109375</ele>
        <time>2022-11-01T08:42:57.000Z</time>
      </trkpt>
      <trkpt lat="42.51219003461301326751708984375" lon="-8.68400883860886096954345703125">
        <ele>117.8000030517578125</ele>
        <time>2022-11-01T08:42:58.000Z</time>
      </trkpt>
      <trkpt lat="42.512148879468441009521484375" lon="-8.6839753948152065277099609375">
        <ele>118</ele>
        <time>2022-11-01T08:42:59.000Z</time>
      </trkpt>
      <trkpt lat="42.51210990361869335174560546875" lon="-8.6839408613741397857666015625">
        <ele>118</ele>
        <time>2022-11-01T08:43:00.000Z</time>
      </trkpt>
      <trkpt lat="42.51207117922604084014892578125" lon="-8.68390842340886592864990234375">
        <ele>118.1999969482421875</ele>
        <time>2022-11-01T08:43:01.000Z</time>
      </trkpt>
      <trkpt lat="42.51203295774757862091064453125" lon="-8.68387766182422637939453125">
        <ele>118.59999847412109375</ele>
        <time>2022-11-01T08:43:02.000Z</time>
      </trkpt>
      <trkpt lat="42.51199456863105297088623046875" lon="-8.683849163353443145751953125">
        <ele>118.8000030517578125</ele>
        <time>2022-11-01T08:43:03.000Z</time>
      </trkpt>
      <trkpt lat="42.51195735298097133636474609375" lon="-8.683823682367801666259765625">
        <ele>119.1999969482421875</ele>
        <time>2022-11-01T08:43:04.000Z</time>
      </trkpt>
      <trkpt lat="42.51192231662571430206298828125" lon="-8.683796189725399017333984375">
        <ele>119.1999969482421875</ele>
        <time>2022-11-01T08:43:05.000Z</time>
      </trkpt>
      <trkpt lat="42.51188929192721843719482421875" lon="-8.6837675236165523529052734375">
        <ele>119.59999847412109375</ele>
        <time>2022-11-01T08:43:06.000Z</time>
      </trkpt>
      <trkpt lat="42.511858530342578887939453125" lon="-8.68373927660286426544189453125">
        <ele>119.59999847412109375</ele>
        <time>2022-11-01T08:43:07.000Z</time>
      </trkpt>
      <trkpt lat="42.5118260085582733154296875" lon="-8.68371010757982730865478515625">
        <ele>120.1999969482421875</ele>
        <time>2022-11-01T08:43:08.000Z</time>
      </trkpt>
      <trkpt lat="42.51179474405944347381591796875" lon="-8.68368077091872692108154296875">
        <ele>120.59999847412109375</ele>
        <time>2022-11-01T08:43:09.000Z</time>
      </trkpt>
      <trkpt lat="42.511764653027057647705078125" lon="-8.68365235626697540283203125">
        <ele>121</ele>
        <time>2022-11-01T08:43:10.000Z</time>
      </trkpt>
      <trkpt lat="42.51173808239400386810302734375" lon="-8.6836273781955242156982421875">
        <ele>121.1999969482421875</ele>
        <time>2022-11-01T08:43:11.000Z</time>
      </trkpt>
      <trkpt lat="42.51171427778899669647216796875" lon="-8.68360005319118499755859375">
        <ele>121.59999847412109375</ele>
        <time>2022-11-01T08:43:12.000Z</time>
      </trkpt>
      <trkpt lat="42.51169349066913127899169921875" lon="-8.6835710518062114715576171875">
        <ele>122.1999969482421875</ele>
        <time>2022-11-01T08:43:13.000Z</time>
      </trkpt>
      <trkpt lat="42.5116712786257266998291015625" lon="-8.68353861384093761444091796875">
        <ele>122.1999969482421875</ele>
        <time>2022-11-01T08:43:14.000Z</time>
      </trkpt>
      <trkpt lat="42.511645294725894927978515625" lon="-8.68350374512374401092529296875">
        <ele>122.59999847412109375</ele>
        <time>2022-11-01T08:43:15.000Z</time>
      </trkpt>
      <trkpt lat="42.51161704771220684051513671875" lon="-8.683470301330089569091796875">
        <ele>122.8000030517578125</ele>
        <time>2022-11-01T08:43:16.000Z</time>
      </trkpt>
      <trkpt lat="42.51158821396529674530029296875" lon="-8.6834411323070526123046875">
        <ele>123.1999969482421875</ele>
        <time>2022-11-01T08:43:17.000Z</time>
      </trkpt>
      <trkpt lat="42.5115599669516086578369140625" lon="-8.6834143102169036865234375">
        <ele>123.1999969482421875</ele>
        <time>2022-11-01T08:43:18.000Z</time>
      </trkpt>
      <trkpt lat="42.5115348212420940399169921875" lon="-8.68338388390839099884033203125">
        <ele>123.40000152587890625</ele>
        <time>2022-11-01T08:43:19.000Z</time>
      </trkpt>
      <trkpt lat="42.51151311211287975311279296875" lon="-8.68334901519119739532470703125">
        <ele>123.59999847412109375</ele>
        <time>2022-11-01T08:43:20.000Z</time>
      </trkpt>
      <trkpt lat="42.51149165444076061248779296875" lon="-8.6833122186362743377685546875">
        <ele>124</ele>
        <time>2022-11-01T08:43:21.000Z</time>
      </trkpt>
      <trkpt lat="42.51146701164543628692626953125" lon="-8.6832760088145732879638671875">
        <ele>124</ele>
        <time>2022-11-01T08:43:22.000Z</time>
      </trkpt>
      <trkpt lat="42.51143834553658962249755859375" lon="-8.68324424140155315399169921875">
        <ele>124.40000152587890625</ele>
        <time>2022-11-01T08:43:23.000Z</time>
      </trkpt>
      <trkpt lat="42.5114070810377597808837890625" lon="-8.68321808986365795135498046875">
        <ele>124.8000030517578125</ele>
        <time>2022-11-01T08:43:24.000Z</time>
      </trkpt>
      <trkpt lat="42.51137615181505680084228515625" lon="-8.68318690918385982513427734375">
        <ele>125</ele>
        <time>2022-11-01T08:43:25.000Z</time>
      </trkpt>
      <trkpt lat="42.51135058701038360595703125" lon="-8.68315103463828563690185546875">
        <ele>125.1999969482421875</ele>
        <time>2022-11-01T08:43:26.000Z</time>
      </trkpt>
      <trkpt lat="42.51132820732891559600830078125" lon="-8.6831147409975528717041015625">
        <ele>125.40000152587890625</ele>
        <time>2022-11-01T08:43:27.000Z</time>
      </trkpt>
      <trkpt lat="42.511301301419734954833984375" lon="-8.68308096192777156829833984375">
        <ele>125.59999847412109375</ele>
        <time>2022-11-01T08:43:28.000Z</time>
      </trkpt>
      <trkpt lat="42.51127188093960285186767578125" lon="-8.68304793722927570343017578125">
        <ele>125.8000030517578125</ele>
        <time>2022-11-01T08:43:29.000Z</time>
      </trkpt>
      <trkpt lat="42.51124463975429534912109375" lon="-8.68301533162593841552734375">
        <ele>126.1999969482421875</ele>
        <time>2022-11-01T08:43:30.000Z</time>
      </trkpt>
      <trkpt lat="42.51121890731155872344970703125" lon="-8.68298222310841083526611328125">
        <ele>126.1999969482421875</ele>
        <time>2022-11-01T08:43:31.000Z</time>
      </trkpt>
      <trkpt lat="42.511193342506885528564453125" lon="-8.682940900325775146484375">
        <ele>126.40000152587890625</ele>
        <time>2022-11-01T08:43:32.000Z</time>
      </trkpt>
      <trkpt lat="42.5111703760921955108642578125" lon="-8.68290175683796405792236328125">
        <ele>127</ele>
        <time>2022-11-01T08:43:33.000Z</time>
      </trkpt>
      <trkpt lat="42.51114866696298122406005859375" lon="-8.68286554701626300811767578125">
        <ele>127.40000152587890625</ele>
        <time>2022-11-01T08:43:34.000Z</time>
      </trkpt>
      <trkpt lat="42.511126287281513214111328125" lon="-8.6828290857374668121337890625">
        <ele>127.8000030517578125</ele>
        <time>2022-11-01T08:43:35.000Z</time>
      </trkpt>
      <trkpt lat="42.51110516488552093505859375" lon="-8.68279363028705120086669921875">
        <ele>128</ele>
        <time>2022-11-01T08:43:36.000Z</time>
      </trkpt>
      <trkpt lat="42.5110821984708309173583984375" lon="-8.68275557644665241241455078125">
        <ele>128.1999969482421875</ele>
        <time>2022-11-01T08:43:37.000Z</time>
      </trkpt>
      <trkpt lat="42.5110590644180774688720703125" lon="-8.68271618150174617767333984375">
        <ele>128.399993896484375</ele>
        <time>2022-11-01T08:43:38.000Z</time>
      </trkpt>
      <trkpt lat="42.51103852875530719757080078125" lon="-8.68267695419490337371826171875">
        <ele>128.8000030517578125</ele>
        <time>2022-11-01T08:43:39.000Z</time>
      </trkpt>
      <trkpt lat="42.511016987264156341552734375" lon="-8.6826342903077602386474609375">
        <ele>129.1999969482421875</ele>
        <time>2022-11-01T08:43:40.000Z</time>
      </trkpt>
      <trkpt lat="42.510994859039783477783203125" lon="-8.68259430862963199615478515625">
        <ele>129.399993896484375</ele>
        <time>2022-11-01T08:43:41.000Z</time>
      </trkpt>
      <trkpt lat="42.51097231172025203704833984375" lon="-8.68255357258021831512451171875">
        <ele>129.600006103515625</ele>
        <time>2022-11-01T08:43:42.000Z</time>
      </trkpt>
      <trkpt lat="42.5109490938484668731689453125" lon="-8.6825104057788848876953125">
        <ele>130.1999969482421875</ele>
        <time>2022-11-01T08:43:43.000Z</time>
      </trkpt>
      <trkpt lat="42.51092554070055484771728515625" lon="-8.68246941827237606048583984375">
        <ele>130.399993896484375</ele>
        <time>2022-11-01T08:43:44.000Z</time>
      </trkpt>
      <trkpt lat="42.51090073026716709136962890625" lon="-8.6824331246316432952880859375">
        <ele>130.600006103515625</ele>
        <time>2022-11-01T08:43:45.000Z</time>
      </trkpt>
      <trkpt lat="42.5108749978244304656982421875" lon="-8.68239582516252994537353515625">
        <ele>130.8000030517578125</ele>
        <time>2022-11-01T08:43:46.000Z</time>
      </trkpt>
      <trkpt lat="42.5108515284955501556396484375" lon="-8.682357184588909149169921875">
        <ele>131.1999969482421875</ele>
        <time>2022-11-01T08:43:47.000Z</time>
      </trkpt>
      <trkpt lat="42.5108297355473041534423828125" lon="-8.6823172867298126220703125">
        <ele>131.600006103515625</ele>
        <time>2022-11-01T08:43:48.000Z</time>
      </trkpt>
      <trkpt lat="42.5108096189796924591064453125" lon="-8.68227730505168437957763671875">
        <ele>132</ele>
        <time>2022-11-01T08:43:49.000Z</time>
      </trkpt>
      <trkpt lat="42.51078807748854160308837890625" lon="-8.68223506025969982147216796875">
        <ele>132.399993896484375</ele>
        <time>2022-11-01T08:43:50.000Z</time>
      </trkpt>
      <trkpt lat="42.510766871273517608642578125" lon="-8.68219113908708095550537109375">
        <ele>132.399993896484375</ele>
        <time>2022-11-01T08:43:51.000Z</time>
      </trkpt>
      <trkpt lat="42.51074566505849361419677734375" lon="-8.68214839138090610504150390625">
        <ele>132.8000030517578125</ele>
        <time>2022-11-01T08:43:52.000Z</time>
      </trkpt>
      <trkpt lat="42.5107241235673427581787109375" lon="-8.68210732005536556243896484375">
        <ele>132.8000030517578125</ele>
        <time>2022-11-01T08:43:53.000Z</time>
      </trkpt>
      <trkpt lat="42.5107026658952236175537109375" lon="-8.68206574581563472747802734375">
        <ele>133</ele>
        <time>2022-11-01T08:43:54.000Z</time>
      </trkpt>
      <trkpt lat="42.5106832198798656463623046875" lon="-8.6820240877568721771240234375">
        <ele>133.399993896484375</ele>
        <time>2022-11-01T08:43:55.000Z</time>
      </trkpt>
      <trkpt lat="42.51066452823579311370849609375" lon="-8.681980669498443603515625">
        <ele>133.399993896484375</ele>
        <time>2022-11-01T08:43:56.000Z</time>
      </trkpt>
      <trkpt lat="42.5106449984014034271240234375" lon="-8.68193482048809528350830078125">
        <ele>133.600006103515625</ele>
        <time>2022-11-01T08:43:57.000Z</time>
      </trkpt>
      <trkpt lat="42.51062613911926746368408203125" lon="-8.68189014494419097900390625">
        <ele>133.8000030517578125</ele>
        <time>2022-11-01T08:43:58.000Z</time>
      </trkpt>
      <trkpt lat="42.51060518436133861541748046875" lon="-8.6818453855812549591064453125">
        <ele>134.1999969482421875</ele>
        <time>2022-11-01T08:43:59.000Z</time>
      </trkpt>
      <trkpt lat="42.5105829723179340362548828125" lon="-8.6818021349608898162841796875">
        <ele>134.1999969482421875</ele>
        <time>2022-11-01T08:44:00.000Z</time>
      </trkpt>
      <trkpt lat="42.51056109555065631866455078125" lon="-8.68175812996923923492431640625">
        <ele>134.600006103515625</ele>
        <time>2022-11-01T08:44:01.000Z</time>
      </trkpt>
      <trkpt lat="42.5105403922498226165771484375" lon="-8.68171270005404949188232421875">
        <ele>134.8000030517578125</ele>
        <time>2022-11-01T08:44:02.000Z</time>
      </trkpt>
      <trkpt lat="42.51052086241543292999267578125" lon="-8.68166710250079631805419921875">
        <ele>135</ele>
        <time>2022-11-01T08:44:03.000Z</time>
      </trkpt>
      <trkpt lat="42.510499656200408935546875" lon="-8.68161882273852825164794921875">
        <ele>135.1999969482421875</ele>
        <time>2022-11-01T08:44:04.000Z</time>
      </trkpt>
      <trkpt lat="42.51047811470925807952880859375" lon="-8.68156987242400646209716796875">
        <ele>135.399993896484375</ele>
        <time>2022-11-01T08:44:05.000Z</time>
      </trkpt>
      <trkpt lat="42.5104572437703609466552734375" lon="-8.6815205030143260955810546875">
        <ele>135.8000030517578125</ele>
        <time>2022-11-01T08:44:06.000Z</time>
      </trkpt>
      <trkpt lat="42.51043704338371753692626953125" lon="-8.6814708821475505828857421875">
        <ele>135.8000030517578125</ele>
        <time>2022-11-01T08:44:07.000Z</time>
      </trkpt>
      <trkpt lat="42.51041860319674015045166015625" lon="-8.68142302148044109344482421875">
        <ele>136.1999969482421875</ele>
        <time>2022-11-01T08:44:08.000Z</time>
      </trkpt>
      <trkpt lat="42.51039966009557247161865234375" lon="-8.68137608282268047332763671875">
        <ele>136.1999969482421875</ele>
        <time>2022-11-01T08:44:09.000Z</time>
      </trkpt>
      <trkpt lat="42.51038071699440479278564453125" lon="-8.6813280545175075531005859375">
        <ele>136.399993896484375</ele>
        <time>2022-11-01T08:44:10.000Z</time>
      </trkpt>
      <trkpt lat="42.51036085188388824462890625" lon="-8.6812801100313663482666015625">
        <ele>136.399993896484375</ele>
        <time>2022-11-01T08:44:11.000Z</time>
      </trkpt>
      <trkpt lat="42.51034249551594257354736328125" lon="-8.68123191408812999725341796875">
        <ele>136.600006103515625</ele>
        <time>2022-11-01T08:44:12.000Z</time>
      </trkpt>
      <trkpt lat="42.51032355241477489471435546875" lon="-8.68118430487811565399169921875">
        <ele>136.8000030517578125</ele>
        <time>2022-11-01T08:44:13.000Z</time>
      </trkpt>
      <trkpt lat="42.5103036873042583465576171875" lon="-8.68113669566810131072998046875">
        <ele>137</ele>
        <time>2022-11-01T08:44:14.000Z</time>
      </trkpt>
      <trkpt lat="42.510283403098583221435546875" lon="-8.6810886673629283905029296875">
        <ele>137.1999969482421875</ele>
        <time>2022-11-01T08:44:15.000Z</time>
      </trkpt>
      <trkpt lat="42.51026295125484466552734375" lon="-8.681039549410343170166015625">
        <ele>137.600006103515625</ele>
        <time>2022-11-01T08:44:16.000Z</time>
      </trkpt>
      <trkpt lat="42.51024325378239154815673828125" lon="-8.6809890903532505035400390625">
        <ele>137.8000030517578125</ele>
        <time>2022-11-01T08:44:17.000Z</time>
      </trkpt>
      <trkpt lat="42.51022397540509700775146484375" lon="-8.68093938566744327545166015625">
        <ele>138</ele>
        <time>2022-11-01T08:44:18.000Z</time>
      </trkpt>
      <trkpt lat="42.5102041102945804595947265625" lon="-8.68088808842003345489501953125">
        <ele>138</ele>
        <time>2022-11-01T08:44:19.000Z</time>
      </trkpt>
      <trkpt lat="42.51018340699374675750732421875" lon="-8.68083612062036991119384765625">
        <ele>138.1999969482421875</ele>
        <time>2022-11-01T08:44:20.000Z</time>
      </trkpt>
      <trkpt lat="42.51016463153064250946044921875" lon="-8.6807855777442455291748046875">
        <ele>138.600006103515625</ele>
        <time>2022-11-01T08:44:21.000Z</time>
      </trkpt>
      <trkpt lat="42.510146610438823699951171875" lon="-8.68073252029716968536376953125">
        <ele>138.8000030517578125</ele>
        <time>2022-11-01T08:44:22.000Z</time>
      </trkpt>
      <trkpt lat="42.51012842170894145965576171875" lon="-8.6806762777268886566162109375">
        <ele>139</ele>
        <time>2022-11-01T08:44:23.000Z</time>
      </trkpt>
      <trkpt lat="42.51011048443615436553955078125" lon="-8.68062271736562252044677734375">
        <ele>139.1999969482421875</ele>
        <time>2022-11-01T08:44:24.000Z</time>
      </trkpt>
      <trkpt lat="42.5100934691727161407470703125" lon="-8.68057192303240299224853515625">
        <ele>139.399993896484375</ele>
        <time>2022-11-01T08:44:25.000Z</time>
      </trkpt>
      <trkpt lat="42.51007678918540477752685546875" lon="-8.6805228888988494873046875">
        <ele>139.399993896484375</ele>
        <time>2022-11-01T08:44:26.000Z</time>
      </trkpt>
      <trkpt lat="42.5100611150264739990234375" lon="-8.68047125637531280517578125">
        <ele>139.600006103515625</ele>
        <time>2022-11-01T08:44:27.000Z</time>
      </trkpt>
      <trkpt lat="42.51004301011562347412109375" lon="-8.68041836656630039215087890625">
        <ele>139.8000030517578125</ele>
        <time>2022-11-01T08:44:28.000Z</time>
      </trkpt>
      <trkpt lat="42.51002649776637554168701171875" lon="-8.6803684942424297332763671875">
        <ele>140</ele>
        <time>2022-11-01T08:44:29.000Z</time>
      </trkpt>
      <trkpt lat="42.51001040451228618621826171875" lon="-8.68031702935695648193359375">
        <ele>140.1999969482421875</ele>
        <time>2022-11-01T08:44:30.000Z</time>
      </trkpt>
      <trkpt lat="42.5099945627152919769287109375" lon="-8.6802652291953563690185546875">
        <ele>140.399993896484375</ele>
        <time>2022-11-01T08:44:31.000Z</time>
      </trkpt>
      <trkpt lat="42.5099798105657100677490234375" lon="-8.6802129261195659637451171875">
        <ele>140.8000030517578125</ele>
        <time>2022-11-01T08:44:32.000Z</time>
      </trkpt>
      <trkpt lat="42.50996313057839870452880859375" lon="-8.68016070686280727386474609375">
        <ele>140.8000030517578125</ele>
        <time>2022-11-01T08:44:33.000Z</time>
      </trkpt>
      <trkpt lat="42.5099482946097850799560546875" lon="-8.680108822882175445556640625">
        <ele>141</ele>
        <time>2022-11-01T08:44:34.000Z</time>
      </trkpt>
      <trkpt lat="42.50993178226053714752197265625" lon="-8.680056519806385040283203125">
        <ele>141</ele>
        <time>2022-11-01T08:44:35.000Z</time>
      </trkpt>
      <trkpt lat="42.5099164433777332305908203125" lon="-8.68000664748251438140869140625">
        <ele>141.600006103515625</ele>
        <time>2022-11-01T08:44:36.000Z</time>
      </trkpt>
      <trkpt lat="42.50990546308457851409912109375" lon="-8.679953254759311676025390625">
        <ele>141.8000030517578125</ele>
        <time>2022-11-01T08:44:37.000Z</time>
      </trkpt>
      <trkpt lat="42.50989473424851894378662109375" lon="-8.6798987723886966705322265625">
        <ele>142.1999969482421875</ele>
        <time>2022-11-01T08:44:38.000Z</time>
      </trkpt>
      <trkpt lat="42.5098815746605396270751953125" lon="-8.67984605021774768829345703125">
        <ele>142.399993896484375</ele>
        <time>2022-11-01T08:44:39.000Z</time>
      </trkpt>
      <trkpt lat="42.509869001805782318115234375" lon="-8.679791651666164398193359375">
        <ele>142.600006103515625</ele>
        <time>2022-11-01T08:44:40.000Z</time>
      </trkpt>
      <trkpt lat="42.5098567642271518707275390625" lon="-8.67973574437201023101806640625">
        <ele>142.8000030517578125</ele>
        <time>2022-11-01T08:44:41.000Z</time>
      </trkpt>
      <trkpt lat="42.50984318554401397705078125" lon="-8.6796779930591583251953125">
        <ele>142.8000030517578125</ele>
        <time>2022-11-01T08:44:42.000Z</time>
      </trkpt>
      <trkpt lat="42.5098289363086223602294921875" lon="-8.6796184815466403961181640625">
        <ele>143.1999969482421875</ele>
        <time>2022-11-01T08:44:43.000Z</time>
      </trkpt>
      <trkpt lat="42.50981577672064304351806640625" lon="-8.67955972440540790557861328125">
        <ele>143.399993896484375</ele>
        <time>2022-11-01T08:44:44.000Z</time>
      </trkpt>
      <trkpt lat="42.50980521552264690399169921875" lon="-8.6794994585216045379638671875">
        <ele>143.399993896484375</ele>
        <time>2022-11-01T08:44:45.000Z</time>
      </trkpt>
      <trkpt lat="42.509793899953365325927734375" lon="-8.67943701334297657012939453125">
        <ele>143.600006103515625</ele>
        <time>2022-11-01T08:44:46.000Z</time>
      </trkpt>
      <trkpt lat="42.50978208146989345550537109375" lon="-8.6793749034404754638671875">
        <ele>144</ele>
        <time>2022-11-01T08:44:47.000Z</time>
      </trkpt>
      <trkpt lat="42.50976917333900928497314453125" lon="-8.6793140508234500885009765625">
        <ele>144.1999969482421875</ele>
        <time>2022-11-01T08:44:48.000Z</time>
      </trkpt>
      <trkpt lat="42.5097558461129665374755859375" lon="-8.67925479076802730560302734375">
        <ele>144.600006103515625</ele>
        <time>2022-11-01T08:44:49.000Z</time>
      </trkpt>
      <trkpt lat="42.50974402762949466705322265625" lon="-8.67919318377971649169921875">
        <ele>145</ele>
        <time>2022-11-01T08:44:50.000Z</time>
      </trkpt>
      <trkpt lat="42.50973313115537166595458984375" lon="-8.67913191206753253936767578125">
        <ele>145.1999969482421875</ele>
        <time>2022-11-01T08:44:51.000Z</time>
      </trkpt>
      <trkpt lat="42.50972223468124866485595703125" lon="-8.67907256819307804107666015625">
        <ele>145.399993896484375</ele>
        <time>2022-11-01T08:44:52.000Z</time>
      </trkpt>
      <trkpt lat="42.50971309840679168701171875" lon="-8.67901255376636981964111328125">
        <ele>145.399993896484375</ele>
        <time>2022-11-01T08:44:53.000Z</time>
      </trkpt>
      <trkpt lat="42.50970714725553989410400390625" lon="-8.67895220406353473663330078125">
        <ele>145.600006103515625</ele>
        <time>2022-11-01T08:44:54.000Z</time>
      </trkpt>
      <trkpt lat="42.509698681533336639404296875" lon="-8.6788922734558582305908203125">
        <ele>145.8000030517578125</ele>
        <time>2022-11-01T08:44:55.000Z</time>
      </trkpt>
      <trkpt lat="42.50968971289694309234619140625" lon="-8.6788325943052768707275390625">
        <ele>146.1999969482421875</ele>
        <time>2022-11-01T08:44:56.000Z</time>
      </trkpt>
      <trkpt lat="42.50967730768024921417236328125" lon="-8.678775094449520111083984375">
        <ele>146.1999969482421875</ele>
        <time>2022-11-01T08:44:57.000Z</time>
      </trkpt>
      <trkpt lat="42.5096639804542064666748046875" lon="-8.67871784605085849761962890625">
        <ele>146.600006103515625</ele>
        <time>2022-11-01T08:44:58.000Z</time>
      </trkpt>
      <trkpt lat="42.5096525810658931732177734375" lon="-8.67865934036672115325927734375">
        <ele>146.8000030517578125</ele>
        <time>2022-11-01T08:44:59.000Z</time>
      </trkpt>
      <trkpt lat="42.5096421875059604644775390625" lon="-8.6785995773971080780029296875">
        <ele>147.1999969482421875</ele>
        <time>2022-11-01T08:45:00.000Z</time>
      </trkpt>
      <trkpt lat="42.50963397324085235595703125" lon="-8.6785398982465267181396484375">
        <ele>147.399993896484375</ele>
        <time>2022-11-01T08:45:01.000Z</time>
      </trkpt>
      <trkpt lat="42.5096250884234905242919921875" lon="-8.67848047055304050445556640625">
        <ele>147.600006103515625</ele>
        <time>2022-11-01T08:45:02.000Z</time>
      </trkpt>
      <trkpt lat="42.50961477868258953094482421875" lon="-8.6784212104976177215576171875">
        <ele>148</ele>
        <time>2022-11-01T08:45:03.000Z</time>
      </trkpt>
      <trkpt lat="42.50960446894168853759765625" lon="-8.6783637106418609619140625">
        <ele>148.1999969482421875</ele>
        <time>2022-11-01T08:45:04.000Z</time>
      </trkpt>
      <trkpt lat="42.50959449447691440582275390625" lon="-8.67830512113869190216064453125">
        <ele>148.600006103515625</ele>
        <time>2022-11-01T08:45:05.000Z</time>
      </trkpt>
      <trkpt lat="42.509585358202457427978515625" lon="-8.67824695073068141937255859375">
        <ele>148.8000030517578125</ele>
        <time>2022-11-01T08:45:06.000Z</time>
      </trkpt>
      <trkpt lat="42.50957789830863475799560546875" lon="-8.6781885288655757904052734375">
        <ele>149.399993896484375</ele>
        <time>2022-11-01T08:45:07.000Z</time>
      </trkpt>
      <trkpt lat="42.509567253291606903076171875" lon="-8.67812843061983585357666015625">
        <ele>149.600006103515625</ele>
        <time>2022-11-01T08:45:08.000Z</time>
      </trkpt>
      <trkpt lat="42.50955711118876934051513671875" lon="-8.6780695058405399322509765625">
        <ele>149.8000030517578125</ele>
        <time>2022-11-01T08:45:09.000Z</time>
      </trkpt>
      <trkpt lat="42.50954839400947093963623046875" lon="-8.67800672538578510284423828125">
        <ele>149.8000030517578125</ele>
        <time>2022-11-01T08:45:10.000Z</time>
      </trkpt>
      <trkpt lat="42.50953800044953823089599609375" lon="-8.67794117890298366546630859375">
        <ele>150</ele>
        <time>2022-11-01T08:45:11.000Z</time>
      </trkpt>
      <trkpt lat="42.50952643342316150665283203125" lon="-8.67787512950599193572998046875">
        <ele>150.1999969482421875</ele>
        <time>2022-11-01T08:45:12.000Z</time>
      </trkpt>
      <trkpt lat="42.50951620750129222869873046875" lon="-8.6778076551854610443115234375">
        <ele>150.1999969482421875</ele>
        <time>2022-11-01T08:45:13.000Z</time>
      </trkpt>
      <trkpt lat="42.50950631685554981231689453125" lon="-8.677737414836883544921875">
        <ele>150.399993896484375</ele>
        <time>2022-11-01T08:45:14.000Z</time>
      </trkpt>
      <trkpt lat="42.50949575565755367279052734375" lon="-8.67767061106860637664794921875">
        <ele>150.600006103515625</ele>
        <time>2022-11-01T08:45:15.000Z</time>
      </trkpt>
      <trkpt lat="42.5094852782785892486572265625" lon="-8.67760640569031238555908203125">
        <ele>150.8000030517578125</ele>
        <time>2022-11-01T08:45:16.000Z</time>
      </trkpt>
      <trkpt lat="42.50947429798543453216552734375" lon="-8.6775414459407329559326171875">
        <ele>150.8000030517578125</ele>
        <time>2022-11-01T08:45:17.000Z</time>
      </trkpt>
      <trkpt lat="42.509462647140026092529296875" lon="-8.6774737201631069183349609375">
        <ele>151</ele>
        <time>2022-11-01T08:45:18.000Z</time>
      </trkpt>
      <trkpt lat="42.509453594684600830078125" lon="-8.677404820919036865234375">
        <ele>151</ele>
        <time>2022-11-01T08:45:19.000Z</time>
      </trkpt>
      <trkpt lat="42.50944479368627071380615234375" lon="-8.67733734659850597381591796875">
        <ele>151.399993896484375</ele>
        <time>2022-11-01T08:45:20.000Z</time>
      </trkpt>
      <trkpt lat="42.50943540595471858978271484375" lon="-8.6772708781063556671142578125">
        <ele>151.600006103515625</ele>
        <time>2022-11-01T08:45:21.000Z</time>
      </trkpt>
      <trkpt lat="42.50942752696573734283447265625" lon="-8.67720223031938076019287109375">
        <ele>151.600006103515625</ele>
        <time>2022-11-01T08:45:22.000Z</time>
      </trkpt>
      <trkpt lat="42.50941914506256580352783203125" lon="-8.67713282816112041473388671875">
        <ele>152</ele>
        <time>2022-11-01T08:45:23.000Z</time>
      </trkpt>
      <trkpt lat="42.50940958969295024871826171875" lon="-8.67706493474543094635009765625">
        <ele>152.1999969482421875</ele>
        <time>2022-11-01T08:45:24.000Z</time>
      </trkpt>
      <trkpt lat="42.50939684920012950897216796875" lon="-8.67699620313942432403564453125">
        <ele>152.399993896484375</ele>
        <time>2022-11-01T08:45:25.000Z</time>
      </trkpt>
      <trkpt lat="42.50938377343118190765380859375" lon="-8.676927722990512847900390625">
        <ele>152.399993896484375</ele>
        <time>2022-11-01T08:45:26.000Z</time>
      </trkpt>
      <trkpt lat="42.50937379896640777587890625" lon="-8.67685991339385509490966796875">
        <ele>152.399993896484375</ele>
        <time>2022-11-01T08:45:27.000Z</time>
      </trkpt>
      <trkpt lat="42.50936415977776050567626953125" lon="-8.67679386399686336517333984375">
        <ele>152.399993896484375</ele>
        <time>2022-11-01T08:45:28.000Z</time>
      </trkpt>
      <trkpt lat="42.5093531794846057891845703125" lon="-8.67672823369503021240234375">
        <ele>152.399993896484375</ele>
        <time>2022-11-01T08:45:29.000Z</time>
      </trkpt>
      <trkpt lat="42.50934236682951450347900390625" lon="-8.6766620166599750518798828125">
        <ele>152.399993896484375</ele>
        <time>2022-11-01T08:45:30.000Z</time>
      </trkpt>
      <trkpt lat="42.50933147035539150238037109375" lon="-8.67659605108201503753662109375">
        <ele>152.399993896484375</ele>
        <time>2022-11-01T08:45:31.000Z</time>
      </trkpt>
      <trkpt lat="42.5093206577003002166748046875" lon="-8.676526732742786407470703125">
        <ele>152.600006103515625</ele>
        <time>2022-11-01T08:45:32.000Z</time>
      </trkpt>
      <trkpt lat="42.50931085087358951568603515625" lon="-8.67645741440355777740478515625">
        <ele>152.600006103515625</ele>
        <time>2022-11-01T08:45:33.000Z</time>
      </trkpt>
      <trkpt lat="42.509299702942371368408203125" lon="-8.676387928426265716552734375">
        <ele>152.600006103515625</ele>
        <time>2022-11-01T08:45:34.000Z</time>
      </trkpt>
      <trkpt lat="42.509287633001804351806640625" lon="-8.6763190291821956634521484375">
        <ele>152.600006103515625</ele>
        <time>2022-11-01T08:45:35.000Z</time>
      </trkpt>
      <trkpt lat="42.50927455723285675048828125" lon="-8.6762486211955547332763671875">
        <ele>152.600006103515625</ele>
        <time>2022-11-01T08:45:36.000Z</time>
      </trkpt>
      <trkpt lat="42.50926156528294086456298828125" lon="-8.67617645300924777984619140625">
        <ele>152.600006103515625</ele>
        <time>2022-11-01T08:45:37.000Z</time>
      </trkpt>
      <trkpt lat="42.50924848951399326324462890625" lon="-8.67610386572778224945068359375">
        <ele>152.600006103515625</ele>
        <time>2022-11-01T08:45:38.000Z</time>
      </trkpt>
      <trkpt lat="42.50923692248761653900146484375" lon="-8.67603194899857044219970703125">
        <ele>152.8000030517578125</ele>
        <time>2022-11-01T08:45:39.000Z</time>
      </trkpt>
      <trkpt lat="42.5092251040041446685791015625" lon="-8.67595919407904148101806640625">
        <ele>152.8000030517578125</ele>
        <time>2022-11-01T08:45:40.000Z</time>
      </trkpt>
      <trkpt lat="42.50921077094972133636474609375" lon="-8.67588627152144908905029296875">
        <ele>152.8000030517578125</ele>
        <time>2022-11-01T08:45:41.000Z</time>
      </trkpt>
      <trkpt lat="42.50919819809496402740478515625" lon="-8.675811924040317535400390625">
        <ele>152.8000030517578125</ele>
        <time>2022-11-01T08:45:42.000Z</time>
      </trkpt>
      <trkpt lat="42.50918428413569927215576171875" lon="-8.6757379956543445587158203125">
        <ele>152.8000030517578125</ele>
        <time>2022-11-01T08:45:43.000Z</time>
      </trkpt>
      <trkpt lat="42.50916919670999050140380859375" lon="-8.6756638996303081512451171875">
        <ele>152.8000030517578125</ele>
        <time>2022-11-01T08:45:44.000Z</time>
      </trkpt>
      <trkpt lat="42.50915494747459888458251953125" lon="-8.67558821104466915130615234375">
        <ele>152.600006103515625</ele>
        <time>2022-11-01T08:45:45.000Z</time>
      </trkpt>
      <trkpt lat="42.509140111505985260009765625" lon="-8.6755125224590301513671875">
        <ele>152.600006103515625</ele>
        <time>2022-11-01T08:45:46.000Z</time>
      </trkpt>
      <trkpt lat="42.50912644900381565093994140625" lon="-8.67543817497789859771728515625">
        <ele>152.600006103515625</ele>
        <time>2022-11-01T08:45:47.000Z</time>
      </trkpt>
      <trkpt lat="42.50911454670131206512451171875" lon="-8.67536357603967189788818359375">
        <ele>152.600006103515625</ele>
        <time>2022-11-01T08:45:48.000Z</time>
      </trkpt>
      <trkpt lat="42.509102560579776763916015625" lon="-8.67529232986271381378173828125">
        <ele>152.600006103515625</ele>
        <time>2022-11-01T08:45:49.000Z</time>
      </trkpt>
      <trkpt lat="42.50908889807760715484619140625" lon="-8.6752209998667240142822265625">
        <ele>152.399993896484375</ele>
        <time>2022-11-01T08:45:50.000Z</time>
      </trkpt>
      <trkpt lat="42.5090759061276912689208984375" lon="-8.67515117861330509185791015625">
        <ele>152.600006103515625</ele>
        <time>2022-11-01T08:45:51.000Z</time>
      </trkpt>
      <trkpt lat="42.50906408764421939849853515625" lon="-8.6750832013785839080810546875">
        <ele>152.600006103515625</ele>
        <time>2022-11-01T08:45:52.000Z</time>
      </trkpt>
      <trkpt lat="42.50904950313270092010498046875" lon="-8.67501371540129184722900390625">
        <ele>152.399993896484375</ele>
        <time>2022-11-01T08:45:53.000Z</time>
      </trkpt>
      <trkpt lat="42.50903642736375331878662109375" lon="-8.67494682781398296356201171875">
        <ele>152.399993896484375</ele>
        <time>2022-11-01T08:45:54.000Z</time>
      </trkpt>
      <trkpt lat="42.50902502797544002532958984375" lon="-8.67488111369311809539794921875">
        <ele>152.399993896484375</ele>
        <time>2022-11-01T08:45:55.000Z</time>
      </trkpt>
      <trkpt lat="42.50901228748261928558349609375" lon="-8.67482076399028301239013671875">
        <ele>152</ele>
        <time>2022-11-01T08:45:56.000Z</time>
      </trkpt>
      <trkpt lat="42.50899854116141796112060546875" lon="-8.674767203629016876220703125">
        <ele>152</ele>
        <time>2022-11-01T08:45:57.000Z</time>
      </trkpt>
      <trkpt lat="42.5089840404689311981201171875" lon="-8.6747227795422077178955078125">
        <ele>152</ele>
        <time>2022-11-01T08:45:58.000Z</time>
      </trkpt>
      <trkpt lat="42.5089667737483978271484375" lon="-8.67468598298728466033935546875">
        <ele>152</ele>
        <time>2022-11-01T08:45:59.000Z</time>
      </trkpt>
      <trkpt lat="42.50895026139914989471435546875" lon="-8.6746610887348651885986328125">
        <ele>151.8000030517578125</ele>
        <time>2022-11-01T08:46:00.000Z</time>
      </trkpt>
      <trkpt lat="42.508941628038883209228515625" lon="-8.67464457638561725616455078125">
        <ele>151.8000030517578125</ele>
        <time>2022-11-01T08:46:01.000Z</time>
      </trkpt>
      <trkpt lat="42.5089399516582489013671875" lon="-8.67463787086308002471923828125">
        <ele>151.8000030517578125</ele>
        <time>2022-11-01T08:46:02.000Z</time>
      </trkpt>
      <trkpt lat="42.5089399516582489013671875" lon="-8.67463787086308002471923828125">
        <ele>151.8000030517578125</ele>
        <time>2022-11-01T08:46:03.000Z</time>
      </trkpt>
      <trkpt lat="42.50891287811100482940673828125" lon="-8.67454734630882740020751953125">
        <ele>153</ele>
        <time>2022-11-01T08:46:20.000Z</time>
      </trkpt>
      <trkpt lat="42.50890231691300868988037109375" lon="-8.6745192669332027435302734375">
        <ele>151.8000030517578125</ele>
        <time>2022-11-01T08:46:21.000Z</time>
      </trkpt>
      <trkpt lat="42.50888940878212451934814453125" lon="-8.67448498494923114776611328125">
        <ele>151.8000030517578125</ele>
        <time>2022-11-01T08:46:22.000Z</time>
      </trkpt>
      <trkpt lat="42.50887633301317691802978515625" lon="-8.6744458414614200592041015625">
        <ele>151.600006103515625</ele>
        <time>2022-11-01T08:46:23.000Z</time>
      </trkpt>
      <trkpt lat="42.50886325724422931671142578125" lon="-8.6744042672216892242431640625">
        <ele>151.600006103515625</ele>
        <time>2022-11-01T08:46:24.000Z</time>
      </trkpt>
      <trkpt lat="42.50884674489498138427734375" lon="-8.67435741238296031951904296875">
        <ele>151.600006103515625</ele>
        <time>2022-11-01T08:46:25.000Z</time>
      </trkpt>
      <trkpt lat="42.5088288076221942901611328125" lon="-8.674307875335216522216796875">
        <ele>151.600006103515625</ele>
        <time>2022-11-01T08:46:26.000Z</time>
      </trkpt>
      <trkpt lat="42.5088093616068363189697265625" lon="-8.67425548844039440155029296875">
        <ele>151.399993896484375</ele>
        <time>2022-11-01T08:46:27.000Z</time>
      </trkpt>
      <trkpt lat="42.50878782011568546295166015625" lon="-8.6741990782320499420166015625">
        <ele>151.399993896484375</ele>
        <time>2022-11-01T08:46:28.000Z</time>
      </trkpt>
      <trkpt lat="42.5087657757103443145751953125" lon="-8.67413948290050029754638671875">
        <ele>151.1999969482421875</ele>
        <time>2022-11-01T08:46:29.000Z</time>
      </trkpt>
      <trkpt lat="42.50874482095241546630859375" lon="-8.674074523150920867919921875">
        <ele>151.1999969482421875</ele>
        <time>2022-11-01T08:46:30.000Z</time>
      </trkpt>
      <trkpt lat="42.50872445292770862579345703125" lon="-8.67400838993489742279052734375">
        <ele>151</ele>
        <time>2022-11-01T08:46:31.000Z</time>
      </trkpt>
      <trkpt lat="42.50869830138981342315673828125" lon="-8.67393915541470050811767578125">
        <ele>151</ele>
        <time>2022-11-01T08:46:32.000Z</time>
      </trkpt>
      <trkpt lat="42.50867097638547420501708984375" lon="-8.67386656813323497772216796875">
        <ele>150.8000030517578125</ele>
        <time>2022-11-01T08:46:33.000Z</time>
      </trkpt>
      <trkpt lat="42.50864281319081783294677734375" lon="-8.67379129864275455474853515625">
        <ele>150.8000030517578125</ele>
        <time>2022-11-01T08:46:34.000Z</time>
      </trkpt>
      <trkpt lat="42.50861314125359058380126953125" lon="-8.6737129278481006622314453125">
        <ele>150.600006103515625</ele>
        <time>2022-11-01T08:46:35.000Z</time>
      </trkpt>
      <trkpt lat="42.50858229584991931915283203125" lon="-8.6736324615776538848876953125">
        <ele>150.600006103515625</ele>
        <time>2022-11-01T08:46:36.000Z</time>
      </trkpt>
      <trkpt lat="42.50855111517012119293212890625" lon="-8.673548810184001922607421875">
        <ele>150.399993896484375</ele>
        <time>2022-11-01T08:46:37.000Z</time>
      </trkpt>
      <trkpt lat="42.50852010212838649749755859375" lon="-8.67346465587615966796875">
        <ele>150.1999969482421875</ele>
        <time>2022-11-01T08:46:38.000Z</time>
      </trkpt>
      <trkpt lat="42.50848925672471523284912109375" lon="-8.6733830161392688751220703125">
        <ele>150</ele>
        <time>2022-11-01T08:46:39.000Z</time>
      </trkpt>
      <trkpt lat="42.5084569863975048065185546875" lon="-8.67330045439302921295166015625">
        <ele>150</ele>
        <time>2022-11-01T08:46:40.000Z</time>
      </trkpt>
      <trkpt lat="42.50842488370835781097412109375" lon="-8.67321680299937725067138671875">
        <ele>149.8000030517578125</ele>
        <time>2022-11-01T08:46:41.000Z</time>
      </trkpt>
      <trkpt lat="42.50839320011436939239501953125" lon="-8.67313348688185214996337890625">
        <ele>149.8000030517578125</ele>
        <time>2022-11-01T08:46:42.000Z</time>
      </trkpt>
      <trkpt lat="42.508361600339412689208984375" lon="-8.6730500869452953338623046875">
        <ele>149.8000030517578125</ele>
        <time>2022-11-01T08:46:43.000Z</time>
      </trkpt>
      <trkpt lat="42.50833067111670970916748046875" lon="-8.6729662679135799407958984375">
        <ele>149.600006103515625</ele>
        <time>2022-11-01T08:46:44.000Z</time>
      </trkpt>
      <trkpt lat="42.5082989037036895751953125" lon="-8.67288194596767425537109375">
        <ele>149.399993896484375</ele>
        <time>2022-11-01T08:46:45.000Z</time>
      </trkpt>
      <trkpt lat="42.50826663337647914886474609375" lon="-8.67279603146016597747802734375">
        <ele>149.399993896484375</ele>
        <time>2022-11-01T08:46:46.000Z</time>
      </trkpt>
      <trkpt lat="42.50823251903057098388671875" lon="-8.672707937657833099365234375">
        <ele>149.1999969482421875</ele>
        <time>2022-11-01T08:46:47.000Z</time>
      </trkpt>
      <trkpt lat="42.5081994943320751190185546875" lon="-8.67262118496000766754150390625">
        <ele>149</ele>
        <time>2022-11-01T08:46:48.000Z</time>
      </trkpt>
      <trkpt lat="42.50816605053842067718505859375" lon="-8.672534935176372528076171875">
        <ele>148.8000030517578125</ele>
        <time>2022-11-01T08:46:49.000Z</time>
      </trkpt>
      <trkpt lat="42.50813470222055912017822265625" lon="-8.67244876921176910400390625">
        <ele>148.8000030517578125</ele>
        <time>2022-11-01T08:46:50.000Z</time>
      </trkpt>
      <trkpt lat="42.50810536555945873260498046875" lon="-8.67236235179007053375244140625">
        <ele>148.600006103515625</ele>
        <time>2022-11-01T08:46:51.000Z</time>
      </trkpt>
      <trkpt lat="42.508074939250946044921875" lon="-8.6722766049206256866455078125">
        <ele>148.600006103515625</ele>
        <time>2022-11-01T08:46:52.000Z</time>
      </trkpt>
      <trkpt lat="42.50804367475211620330810546875" lon="-8.67219270206987857818603515625">
        <ele>148.1999969482421875</ele>
        <time>2022-11-01T08:46:53.000Z</time>
      </trkpt>
      <trkpt lat="42.50801132060587406158447265625" lon="-8.6721109785139560699462890625">
        <ele>148.1999969482421875</ele>
        <time>2022-11-01T08:46:54.000Z</time>
      </trkpt>
      <trkpt lat="42.50797913409769535064697265625" lon="-8.67202632129192352294921875">
        <ele>148</ele>
        <time>2022-11-01T08:46:55.000Z</time>
      </trkpt>
      <trkpt lat="42.50794812105596065521240234375" lon="-8.671941496431827545166015625">
        <ele>148</ele>
        <time>2022-11-01T08:46:56.000Z</time>
      </trkpt>
      <trkpt lat="42.5079166889190673828125" lon="-8.671857677400112152099609375">
        <ele>147.600006103515625</ele>
        <time>2022-11-01T08:46:57.000Z</time>
      </trkpt>
      <trkpt lat="42.50788408331573009490966796875" lon="-8.67177377454936504364013671875">
        <ele>147.600006103515625</ele>
        <time>2022-11-01T08:46:58.000Z</time>
      </trkpt>
      <trkpt lat="42.5078514777123928070068359375" lon="-8.67168878205120563507080078125">
        <ele>147.8000030517578125</ele>
        <time>2022-11-01T08:46:59.000Z</time>
      </trkpt>
      <trkpt lat="42.5078223086893558502197265625" lon="-8.67160211317241191864013671875">
        <ele>147.8000030517578125</ele>
        <time>2022-11-01T08:47:00.000Z</time>
      </trkpt>
      <trkpt lat="42.5077914632856845855712890625" lon="-8.6715158633887767791748046875">
        <ele>147.8000030517578125</ele>
        <time>2022-11-01T08:47:01.000Z</time>
      </trkpt>
      <trkpt lat="42.5077616237103939056396484375" lon="-8.67142978124320507049560546875">
        <ele>147.8000030517578125</ele>
        <time>2022-11-01T08:47:02.000Z</time>
      </trkpt>
      <trkpt lat="42.50773220323026180267333984375" lon="-8.67134235799312591552734375">
        <ele>147.8000030517578125</ele>
        <time>2022-11-01T08:47:03.000Z</time>
      </trkpt>
      <trkpt lat="42.507705800235271453857421875" lon="-8.6712533421814441680908203125">
        <ele>147.8000030517578125</ele>
        <time>2022-11-01T08:47:04.000Z</time>
      </trkpt>
      <trkpt lat="42.50768174417316913604736328125" lon="-8.67116424255073070526123046875">
        <ele>147.8000030517578125</ele>
        <time>2022-11-01T08:47:05.000Z</time>
      </trkpt>
      <trkpt lat="42.50765810720622539520263671875" lon="-8.67107623256742954254150390625">
        <ele>147.600006103515625</ele>
        <time>2022-11-01T08:47:06.000Z</time>
      </trkpt>
      <trkpt lat="42.50763715244829654693603515625" lon="-8.67098839022219181060791015625">
        <ele>147.600006103515625</ele>
        <time>2022-11-01T08:47:07.000Z</time>
      </trkpt>
      <trkpt lat="42.5076184608042240142822265625" lon="-8.670897446572780609130859375">
        <ele>147.1999969482421875</ele>
        <time>2022-11-01T08:47:08.000Z</time>
      </trkpt>
      <trkpt lat="42.50760144554078578948974609375" lon="-8.6708070896565914154052734375">
        <ele>147.1999969482421875</ele>
        <time>2022-11-01T08:47:09.000Z</time>
      </trkpt>
      <trkpt lat="42.5075849331915378570556640625" lon="-8.67071614600718021392822265625">
        <ele>147</ele>
        <time>2022-11-01T08:47:10.000Z</time>
      </trkpt>
      <trkpt lat="42.50757076777517795562744140625" lon="-8.67062428034842014312744140625">
        <ele>147</ele>
        <time>2022-11-01T08:47:11.000Z</time>
      </trkpt>
      <trkpt lat="42.5075594522058963775634765625" lon="-8.67053207941353321075439453125">
        <ele>147</ele>
        <time>2022-11-01T08:47:12.000Z</time>
      </trkpt>
      <trkpt lat="42.507548891007900238037109375" lon="-8.67043702863156795501708984375">
        <ele>147</ele>
        <time>2022-11-01T08:47:13.000Z</time>
      </trkpt>
      <trkpt lat="42.50753925181925296783447265625" lon="-8.67033896036446094512939453125">
        <ele>147</ele>
        <time>2022-11-01T08:47:14.000Z</time>
      </trkpt>
      <trkpt lat="42.50753221102058887481689453125" lon="-8.67024122737348079681396484375">
        <ele>147.1999969482421875</ele>
        <time>2022-11-01T08:47:15.000Z</time>
      </trkpt>
      <trkpt lat="42.50752634368836879730224609375" lon="-8.67014341056346893310546875">
        <ele>147.1999969482421875</ele>
        <time>2022-11-01T08:47:16.000Z</time>
      </trkpt>
      <trkpt lat="42.5075222365558147430419921875" lon="-8.67004710249602794647216796875">
        <ele>147.399993896484375</ele>
        <time>2022-11-01T08:47:17.000Z</time>
      </trkpt>
      <trkpt lat="42.50751980580389499664306640625" lon="-8.66994920186698436737060546875">
        <ele>147.1999969482421875</ele>
        <time>2022-11-01T08:47:18.000Z</time>
      </trkpt>
      <trkpt lat="42.507518716156482696533203125" lon="-8.6698522232472896575927734375">
        <ele>147.1999969482421875</ele>
        <time>2022-11-01T08:47:19.000Z</time>
      </trkpt>
      <trkpt lat="42.5075202248990535736083984375" lon="-8.66975625045597553253173828125">
        <ele>147.1999969482421875</ele>
        <time>2022-11-01T08:47:20.000Z</time>
      </trkpt>
      <trkpt lat="42.5075192190706729888916015625" lon="-8.66965751163661479949951171875">
        <ele>147.1999969482421875</ele>
        <time>2022-11-01T08:47:21.000Z</time>
      </trkpt>
      <trkpt lat="42.5075155310332775115966796875" lon="-8.669559694826602935791015625">
        <ele>147.1999969482421875</ele>
        <time>2022-11-01T08:47:22.000Z</time>
      </trkpt>
      <trkpt lat="42.5075115077197551727294921875" lon="-8.6694614589214324951171875">
        <ele>147.1999969482421875</ele>
        <time>2022-11-01T08:47:23.000Z</time>
      </trkpt>
      <trkpt lat="42.50750740058720111846923828125" lon="-8.66936213336884975433349609375">
        <ele>147.1999969482421875</ele>
        <time>2022-11-01T08:47:24.000Z</time>
      </trkpt>
      <trkpt lat="42.5075007788836956024169921875" lon="-8.66926339454948902130126953125">
        <ele>147.1999969482421875</ele>
        <time>2022-11-01T08:47:25.000Z</time>
      </trkpt>
      <trkpt lat="42.50749080441892147064208984375" lon="-8.66916649974882602691650390625">
        <ele>147</ele>
        <time>2022-11-01T08:47:26.000Z</time>
      </trkpt>
      <trkpt lat="42.507479153573513031005859375" lon="-8.669071532785892486572265625">
        <ele>147</ele>
        <time>2022-11-01T08:47:27.000Z</time>
      </trkpt>
      <trkpt lat="42.5074660778045654296875" lon="-8.6689778231084346771240234375">
        <ele>147</ele>
        <time>2022-11-01T08:47:28.000Z</time>
      </trkpt>
      <trkpt lat="42.50745191238820552825927734375" lon="-8.66888587363064289093017578125">
        <ele>147</ele>
        <time>2022-11-01T08:47:29.000Z</time>
      </trkpt>
      <trkpt lat="42.50743799842894077301025390625" lon="-8.66879694163799285888671875">
        <ele>147</ele>
        <time>2022-11-01T08:47:30.000Z</time>
      </trkpt>
      <trkpt lat="42.50742425210773944854736328125" lon="-8.66871555335819721221923828125">
        <ele>147</ele>
        <time>2022-11-01T08:47:31.000Z</time>
      </trkpt>
      <trkpt lat="42.50740530900657176971435546875" lon="-8.6686341650784015655517578125">
        <ele>147</ele>
        <time>2022-11-01T08:47:32.000Z</time>
      </trkpt>
      <trkpt lat="42.507382594048976898193359375" lon="-8.6685473285615444183349609375">
        <ele>147</ele>
        <time>2022-11-01T08:47:33.000Z</time>
      </trkpt>
      <trkpt lat="42.50735853798687458038330078125" lon="-8.66846024058759212493896484375">
        <ele>147</ele>
        <time>2022-11-01T08:47:34.000Z</time>
      </trkpt>
      <trkpt lat="42.50733272172510623931884765625" lon="-8.66837256588041782379150390625">
        <ele>147.399993896484375</ele>
        <time>2022-11-01T08:47:35.000Z</time>
      </trkpt>
      <trkpt lat="42.5073066540062427520751953125" lon="-8.6682898364961147308349609375">
        <ele>147.600006103515625</ele>
        <time>2022-11-01T08:47:36.000Z</time>
      </trkpt>
      <trkpt lat="42.50728276558220386505126953125" lon="-8.66820794530212879180908203125">
        <ele>147.8000030517578125</ele>
        <time>2022-11-01T08:47:37.000Z</time>
      </trkpt>
      <trkpt lat="42.507260553538799285888671875" lon="-8.66812563501298427581787109375">
        <ele>148</ele>
        <time>2022-11-01T08:47:38.000Z</time>
      </trkpt>
      <trkpt lat="42.507238425314426422119140625" lon="-8.6680413968861103057861328125">
        <ele>148.1999969482421875</ele>
        <time>2022-11-01T08:47:39.000Z</time>
      </trkpt>
      <trkpt lat="42.50721671618521213531494140625" lon="-8.66795464418828487396240234375">
        <ele>148.1999969482421875</ele>
        <time>2022-11-01T08:47:40.000Z</time>
      </trkpt>
      <trkpt lat="42.50719316303730010986328125" lon="-8.667869232594966888427734375">
        <ele>148.1999969482421875</ele>
        <time>2022-11-01T08:47:41.000Z</time>
      </trkpt>
      <trkpt lat="42.507168017327785491943359375" lon="-8.66778482683002948760986328125">
        <ele>148.399993896484375</ele>
        <time>2022-11-01T08:47:42.000Z</time>
      </trkpt>
      <trkpt lat="42.50714329071342945098876953125" lon="-8.66769949905574321746826171875">
        <ele>148.399993896484375</ele>
        <time>2022-11-01T08:47:43.000Z</time>
      </trkpt>
      <trkpt lat="42.507121749222278594970703125" lon="-8.66761685349047183990478515625">
        <ele>148.399993896484375</ele>
        <time>2022-11-01T08:47:44.000Z</time>
      </trkpt>
      <trkpt lat="42.50709928572177886962890625" lon="-8.66753051988780498504638671875">
        <ele>148.399993896484375</ele>
        <time>2022-11-01T08:47:45.000Z</time>
      </trkpt>
      <trkpt lat="42.507077492773532867431640625" lon="-8.6674442701041698455810546875">
        <ele>148.399993896484375</ele>
        <time>2022-11-01T08:47:46.000Z</time>
      </trkpt>
      <trkpt lat="42.50705712474882602691650390625" lon="-8.6673581041395664215087890625">
        <ele>148.399993896484375</ele>
        <time>2022-11-01T08:47:47.000Z</time>
      </trkpt>
      <trkpt lat="42.5070370920002460479736328125" lon="-8.66727302782237529754638671875">
        <ele>148.399993896484375</ele>
        <time>2022-11-01T08:47:48.000Z</time>
      </trkpt>
      <trkpt lat="42.5070149637758731842041015625" lon="-8.667188622057437896728515625">
        <ele>148.399993896484375</ele>
        <time>2022-11-01T08:47:49.000Z</time>
      </trkpt>
      <trkpt lat="42.50699811615049839019775390625" lon="-8.667120896279811859130859375">
        <ele>148.600006103515625</ele>
        <time>2022-11-01T08:47:50.000Z</time>
      </trkpt>
      <trkpt lat="42.5069712102413177490234375" lon="-8.6670161224901676177978515625">
        <ele>148.8000030517578125</ele>
        <time>2022-11-01T08:47:51.000Z</time>
      </trkpt>
      <trkpt lat="42.50695285387337207794189453125" lon="-8.66693037562072277069091796875">
        <ele>148.8000030517578125</ele>
        <time>2022-11-01T08:47:52.000Z</time>
      </trkpt>
      <trkpt lat="42.506934665143489837646484375" lon="-8.66684303618967533111572265625">
        <ele>149</ele>
        <time>2022-11-01T08:47:53.000Z</time>
      </trkpt>
      <trkpt lat="42.50691354274749755859375" lon="-8.66675469093024730682373046875">
        <ele>149</ele>
        <time>2022-11-01T08:47:54.000Z</time>
      </trkpt>
      <trkpt lat="42.5068919174373149871826171875" lon="-8.66666735149919986724853515625">
        <ele>149.1999969482421875</ele>
        <time>2022-11-01T08:47:55.000Z</time>
      </trkpt>
      <trkpt lat="42.5068677775561809539794921875" lon="-8.66657900623977184295654296875">
        <ele>149.1999969482421875</ele>
        <time>2022-11-01T08:47:56.000Z</time>
      </trkpt>
      <trkpt lat="42.50684447586536407470703125" lon="-8.66649485193192958831787109375">
        <ele>149.1999969482421875</ele>
        <time>2022-11-01T08:47:57.000Z</time>
      </trkpt>
      <trkpt lat="42.50681689940392971038818359375" lon="-8.6664082668721675872802734375">
        <ele>149.1999969482421875</ele>
        <time>2022-11-01T08:47:58.000Z</time>
      </trkpt>
      <trkpt lat="42.50678655691444873809814453125" lon="-8.66632260382175445556640625">
        <ele>149.399993896484375</ele>
        <time>2022-11-01T08:47:59.000Z</time>
      </trkpt>
      <trkpt lat="42.50675504095852375030517578125" lon="-8.66623685695230960845947265625">
        <ele>149.399993896484375</ele>
        <time>2022-11-01T08:48:00.000Z</time>
      </trkpt>
      <trkpt lat="42.506721429526805877685546875" lon="-8.66615236736834049224853515625">
        <ele>149.600006103515625</ele>
        <time>2022-11-01T08:48:01.000Z</time>
      </trkpt>
      <trkpt lat="42.50668681226670742034912109375" lon="-8.66607022471725940704345703125">
        <ele>149.8000030517578125</ele>
        <time>2022-11-01T08:48:02.000Z</time>
      </trkpt>
      <trkpt lat="42.5066498480737209320068359375" lon="-8.66598741151392459869384765625">
        <ele>149.8000030517578125</ele>
        <time>2022-11-01T08:48:03.000Z</time>
      </trkpt>
      <trkpt lat="42.50661171041429042816162109375" lon="-8.6659046821296215057373046875">
        <ele>150</ele>
        <time>2022-11-01T08:48:04.000Z</time>
      </trkpt>
      <trkpt lat="42.50657223165035247802734375" lon="-8.66582329384982585906982421875">
        <ele>150</ele>
        <time>2022-11-01T08:48:05.000Z</time>
      </trkpt>
      <trkpt lat="42.5065345130860805511474609375" lon="-8.6657440848648548126220703125">
        <ele>150.1999969482421875</ele>
        <time>2022-11-01T08:48:06.000Z</time>
      </trkpt>
      <trkpt lat="42.50649386085569858551025390625" lon="-8.66566437296569347381591796875">
        <ele>150.1999969482421875</ele>
        <time>2022-11-01T08:48:07.000Z</time>
      </trkpt>
      <trkpt lat="42.5064508616924285888671875" lon="-8.6655843257904052734375">
        <ele>150.399993896484375</ele>
        <time>2022-11-01T08:48:08.000Z</time>
      </trkpt>
      <trkpt lat="42.50640803016722202301025390625" lon="-8.66550411097705364227294921875">
        <ele>150.399993896484375</ele>
        <time>2022-11-01T08:48:09.000Z</time>
      </trkpt>
      <trkpt lat="42.50636628828942775726318359375" lon="-8.66542431525886058807373046875">
        <ele>150.399993896484375</ele>
        <time>2022-11-01T08:48:10.000Z</time>
      </trkpt>
      <trkpt lat="42.5063256360590457916259765625" lon="-8.66534552536904811859130859375">
        <ele>150.399993896484375</ele>
        <time>2022-11-01T08:48:11.000Z</time>
      </trkpt>
      <trkpt lat="42.50628263689577579498291015625" lon="-8.6652646400034427642822265625">
        <ele>150.399993896484375</ele>
        <time>2022-11-01T08:48:12.000Z</time>
      </trkpt>
      <trkpt lat="42.5062387995421886444091796875" lon="-8.66518442519009113311767578125">
        <ele>150.600006103515625</ele>
        <time>2022-11-01T08:48:13.000Z</time>
      </trkpt>
      <trkpt lat="42.5061968900263309478759765625" lon="-8.6651050485670566558837890625">
        <ele>150.600006103515625</ele>
        <time>2022-11-01T08:48:14.000Z</time>
      </trkpt>
      <trkpt lat="42.50615489669144153594970703125" lon="-8.66502575576305389404296875">
        <ele>150.8000030517578125</ele>
        <time>2022-11-01T08:48:15.000Z</time>
      </trkpt>
      <trkpt lat="42.506113909184932708740234375" lon="-8.6649454571306705474853515625">
        <ele>151</ele>
        <time>2022-11-01T08:48:16.000Z</time>
      </trkpt>
      <trkpt lat="42.5060711614787578582763671875" lon="-8.66486608050763607025146484375">
        <ele>151</ele>
        <time>2022-11-01T08:48:17.000Z</time>
      </trkpt>
      <trkpt lat="42.50602866522967815399169921875" lon="-8.664790056645870208740234375">
        <ele>151</ele>
        <time>2022-11-01T08:48:18.000Z</time>
      </trkpt>
      <trkpt lat="42.50598591752350330352783203125" lon="-8.6647147871553897857666015625">
        <ele>151.1999969482421875</ele>
        <time>2022-11-01T08:48:19.000Z</time>
      </trkpt>
      <trkpt lat="42.505946271121501922607421875" lon="-8.66464245133101940155029296875">
        <ele>151.1999969482421875</ele>
        <time>2022-11-01T08:48:20.000Z</time>
      </trkpt>
      <trkpt lat="42.50590645708143711090087890625" lon="-8.66456818766891956329345703125">
        <ele>151.399993896484375</ele>
        <time>2022-11-01T08:48:21.000Z</time>
      </trkpt>
      <trkpt lat="42.50586588867008686065673828125" lon="-8.66449207998812198638916015625">
        <ele>151.399993896484375</ele>
        <time>2022-11-01T08:48:22.000Z</time>
      </trkpt>
      <trkpt lat="42.50582523643970489501953125" lon="-8.66441748104989528656005859375">
        <ele>151.600006103515625</ele>
        <time>2022-11-01T08:48:23.000Z</time>
      </trkpt>
      <trkpt lat="42.505784668028354644775390625" lon="-8.6643429659307003021240234375">
        <ele>151.8000030517578125</ele>
        <time>2022-11-01T08:48:24.000Z</time>
      </trkpt>
      <trkpt lat="42.505743764340877532958984375" lon="-8.66426895372569561004638671875">
        <ele>151.8000030517578125</ele>
        <time>2022-11-01T08:48:25.000Z</time>
      </trkpt>
      <trkpt lat="42.5057043693959712982177734375" lon="-8.66419854573905467987060546875">
        <ele>152</ele>
        <time>2022-11-01T08:48:26.000Z</time>
      </trkpt>
      <trkpt lat="42.5056654773652553558349609375" lon="-8.66412612609565258026123046875">
        <ele>152</ele>
        <time>2022-11-01T08:48:27.000Z</time>
      </trkpt>
      <trkpt lat="42.5056269206106662750244140625" lon="-8.6640546284615993499755859375">
        <ele>152</ele>
        <time>2022-11-01T08:48:28.000Z</time>
      </trkpt>
      <trkpt lat="42.5055876933038234710693359375" lon="-8.6639832146465778350830078125">
        <ele>152.1999969482421875</ele>
        <time>2022-11-01T08:48:29.000Z</time>
      </trkpt>
      <trkpt lat="42.50554838217794895172119140625" lon="-8.66391171701252460479736328125">
        <ele>152.399993896484375</ele>
        <time>2022-11-01T08:48:30.000Z</time>
      </trkpt>
      <trkpt lat="42.5055092386901378631591796875" lon="-8.66384030319750308990478515625">
        <ele>152.399993896484375</ele>
        <time>2022-11-01T08:48:31.000Z</time>
      </trkpt>
      <trkpt lat="42.50546892173588275909423828125" lon="-8.6637698113918304443359375">
        <ele>152.399993896484375</ele>
        <time>2022-11-01T08:48:32.000Z</time>
      </trkpt>
      <trkpt lat="42.5054260902106761932373046875" lon="-8.66369940340518951416015625">
        <ele>152.600006103515625</ele>
        <time>2022-11-01T08:48:33.000Z</time>
      </trkpt>
      <trkpt lat="42.50538359396159648895263671875" lon="-8.663631342351436614990234375">
        <ele>152.600006103515625</ele>
        <time>2022-11-01T08:48:34.000Z</time>
      </trkpt>
      <trkpt lat="42.50534084625542163848876953125" lon="-8.66356085054576396942138671875">
        <ele>152.600006103515625</ele>
        <time>2022-11-01T08:48:35.000Z</time>
      </trkpt>
      <trkpt lat="42.505297176539897918701171875" lon="-8.6634903587400913238525390625">
        <ele>152.8000030517578125</ele>
        <time>2022-11-01T08:48:36.000Z</time>
      </trkpt>
      <trkpt lat="42.50525350682437419891357421875" lon="-8.66342472843825817108154296875">
        <ele>152.8000030517578125</ele>
        <time>2022-11-01T08:48:37.000Z</time>
      </trkpt>
      <trkpt lat="42.505208663642406463623046875" lon="-8.663360774517059326171875">
        <ele>153</ele>
        <time>2022-11-01T08:48:38.000Z</time>
      </trkpt>
      <trkpt lat="42.50516138970851898193359375" lon="-8.6632969044148921966552734375">
        <ele>153</ele>
        <time>2022-11-01T08:48:39.000Z</time>
      </trkpt>
      <trkpt lat="42.505113445222377777099609375" lon="-8.6632345430552959442138671875">
        <ele>153</ele>
        <time>2022-11-01T08:48:40.000Z</time>
      </trkpt>
      <trkpt lat="42.5050619803369045257568359375" lon="-8.663170002400875091552734375">
        <ele>153</ele>
        <time>2022-11-01T08:48:41.000Z</time>
      </trkpt>
      <trkpt lat="42.50501009635627269744873046875" lon="-8.663102276623249053955078125">
        <ele>153</ele>
        <time>2022-11-01T08:48:42.000Z</time>
      </trkpt>
      <trkpt lat="42.504967935383319854736328125" lon="-8.66304695606231689453125">
        <ele>153</ele>
        <time>2022-11-01T08:48:43.000Z</time>
      </trkpt>
      <trkpt lat="42.50490347854793071746826171875" lon="-8.6629646457731723785400390625">
        <ele>153</ele>
        <time>2022-11-01T08:48:44.000Z</time>
      </trkpt>
      <trkpt lat="42.50484815798699855804443359375" lon="-8.66289515979588031768798828125">
        <ele>153</ele>
        <time>2022-11-01T08:48:45.000Z</time>
      </trkpt>
      <trkpt lat="42.50480490736663341522216796875" lon="-8.66284252144396305084228515625">
        <ele>153</ele>
        <time>2022-11-01T08:48:46.000Z</time>
      </trkpt>
      <trkpt lat="42.5047488324344158172607421875" lon="-8.66277270019054412841796875">
        <ele>153</ele>
        <time>2022-11-01T08:48:47.000Z</time>
      </trkpt>
      <trkpt lat="42.5046770833432674407958984375" lon="-8.6626833491027355194091796875">
        <ele>152.8000030517578125</ele>
        <time>2022-11-01T08:48:48.000Z</time>
      </trkpt>
      <trkpt lat="42.5046160630881786346435546875" lon="-8.66260581649839878082275390625">
        <ele>152.600006103515625</ele>
        <time>2022-11-01T08:48:49.000Z</time>
      </trkpt>
      <trkpt lat="42.50455529429018497467041015625" lon="-8.66252937354147434234619140625">
        <ele>152.399993896484375</ele>
        <time>2022-11-01T08:48:50.000Z</time>
      </trkpt>
      <trkpt lat="42.50449310056865215301513671875" lon="-8.66245075128972530364990234375">
        <ele>152.1999969482421875</ele>
        <time>2022-11-01T08:48:51.000Z</time>
      </trkpt>
      <trkpt lat="42.50442855991423130035400390625" lon="-8.6623691953718662261962890625">
        <ele>151.8000030517578125</ele>
        <time>2022-11-01T08:48:52.000Z</time>
      </trkpt>
      <trkpt lat="42.5043636001646518707275390625" lon="-8.66228797473013401031494140625">
        <ele>151.1999969482421875</ele>
        <time>2022-11-01T08:48:53.000Z</time>
      </trkpt>
      <trkpt lat="42.5042975507676601409912109375" lon="-8.6622060835361480712890625">
        <ele>151.1999969482421875</ele>
        <time>2022-11-01T08:48:54.000Z</time>
      </trkpt>
      <trkpt lat="42.5042308308184146881103515625" lon="-8.66212050430476665496826171875">
        <ele>150.8000030517578125</ele>
        <time>2022-11-01T08:48:55.000Z</time>
      </trkpt>
      <trkpt lat="42.50416335649788379669189453125" lon="-8.66203383542597293853759765625">
        <ele>150.600006103515625</ele>
        <time>2022-11-01T08:48:56.000Z</time>
      </trkpt>
      <trkpt lat="42.504092864692211151123046875" lon="-8.66194632835686206817626953125">
        <ele>150</ele>
        <time>2022-11-01T08:48:57.000Z</time>
      </trkpt>
      <trkpt lat="42.504022456705570220947265625" lon="-8.6618589051067829132080078125">
        <ele>149.8000030517578125</ele>
        <time>2022-11-01T08:48:58.000Z</time>
      </trkpt>
      <trkpt lat="42.503950707614421844482421875" lon="-8.6617717333137989044189453125">
        <ele>149.399993896484375</ele>
        <time>2022-11-01T08:48:59.000Z</time>
      </trkpt>
      <trkpt lat="42.50387803651392459869384765625" lon="-8.66168431006371974945068359375">
        <ele>149.1999969482421875</ele>
        <time>2022-11-01T08:49:00.000Z</time>
      </trkpt>
      <trkpt lat="42.5038060359656810760498046875" lon="-8.6615967191755771636962890625">
        <ele>148.8000030517578125</ele>
        <time>2022-11-01T08:49:01.000Z</time>
      </trkpt>
      <trkpt lat="42.503732107579708099365234375" lon="-8.66150426678359508514404296875">
        <ele>148.399993896484375</ele>
        <time>2022-11-01T08:49:02.000Z</time>
      </trkpt>
      <trkpt lat="42.50365641899406909942626953125" lon="-8.661410808563232421875">
        <ele>147.8000030517578125</ele>
        <time>2022-11-01T08:49:03.000Z</time>
      </trkpt>
      <trkpt lat="42.5035780481994152069091796875" lon="-8.66131835617125034332275390625">
        <ele>147.399993896484375</ele>
        <time>2022-11-01T08:49:04.000Z</time>
      </trkpt>
      <trkpt lat="42.5034989230334758758544921875" lon="-8.66122431121766567230224609375">
        <ele>147.1999969482421875</ele>
        <time>2022-11-01T08:49:05.000Z</time>
      </trkpt>
      <trkpt lat="42.50342071987688541412353515625" lon="-8.66112691350281238555908203125">
        <ele>147</ele>
        <time>2022-11-01T08:49:06.000Z</time>
      </trkpt>
      <trkpt lat="42.50334209762513637542724609375" lon="-8.661028258502483367919921875">
        <ele>146.8000030517578125</ele>
        <time>2022-11-01T08:49:07.000Z</time>
      </trkpt>
      <trkpt lat="42.5032622180879116058349609375" lon="-8.66092893294990062713623046875">
        <ele>146</ele>
        <time>2022-11-01T08:49:08.000Z</time>
      </trkpt>
      <trkpt lat="42.50318116508424282073974609375" lon="-8.6608292721211910247802734375">
        <ele>145.8000030517578125</ele>
        <time>2022-11-01T08:49:09.000Z</time>
      </trkpt>
      <trkpt lat="42.50309768132865428924560546875" lon="-8.66072726435959339141845703125">
        <ele>145.1999969482421875</ele>
        <time>2022-11-01T08:49:10.000Z</time>
      </trkpt>
      <trkpt lat="42.50301453284919261932373046875" lon="-8.6606247536838054656982421875">
        <ele>145</ele>
        <time>2022-11-01T08:49:11.000Z</time>
      </trkpt>
      <trkpt lat="42.50294722616672515869140625" lon="-8.6605416052043437957763671875">
        <ele>144.1999969482421875</ele>
        <time>2022-11-01T08:49:12.000Z</time>
      </trkpt>
      <trkpt lat="42.50284655950963497161865234375" lon="-8.66041361354291439056396484375">
        <ele>143.8000030517578125</ele>
        <time>2022-11-01T08:49:13.000Z</time>
      </trkpt>
      <trkpt lat="42.5027626566588878631591796875" lon="-8.66030783392488956451416015625">
        <ele>143</ele>
        <time>2022-11-01T08:49:14.000Z</time>
      </trkpt>
      <trkpt lat="42.50267875380814075469970703125" lon="-8.6602012999355792999267578125">
        <ele>142.399993896484375</ele>
        <time>2022-11-01T08:49:15.000Z</time>
      </trkpt>
      <trkpt lat="42.502594850957393646240234375" lon="-8.660094849765300750732421875">
        <ele>142.1999969482421875</ele>
        <time>2022-11-01T08:49:16.000Z</time>
      </trkpt>
      <trkpt lat="42.50251262448728084564208984375" lon="-8.6599887348711490631103515625">
        <ele>141.600006103515625</ele>
        <time>2022-11-01T08:49:17.000Z</time>
      </trkpt>
      <trkpt lat="42.5024303980171680450439453125" lon="-8.659880943596363067626953125">
        <ele>141.1999969482421875</ele>
        <time>2022-11-01T08:49:18.000Z</time>
      </trkpt>
      <trkpt lat="42.502348423004150390625" lon="-8.6597701348364353179931640625">
        <ele>140.8000030517578125</ele>
        <time>2022-11-01T08:49:19.000Z</time>
      </trkpt>
      <trkpt lat="42.50226619653403759002685546875" lon="-8.6596558056771755218505859375">
        <ele>140.600006103515625</ele>
        <time>2022-11-01T08:49:20.000Z</time>
      </trkpt>
      <trkpt lat="42.50218589790165424346923828125" lon="-8.6595374532043933868408203125">
        <ele>139.8000030517578125</ele>
        <time>2022-11-01T08:49:21.000Z</time>
      </trkpt>
      <trkpt lat="42.502108700573444366455078125" lon="-8.659412562847137451171875">
        <ele>139.399993896484375</ele>
        <time>2022-11-01T08:49:22.000Z</time>
      </trkpt>
      <trkpt lat="42.50203569419682025909423828125" lon="-8.65928323008120059967041015625">
        <ele>138.600006103515625</ele>
        <time>2022-11-01T08:49:23.000Z</time>
      </trkpt>
      <trkpt lat="42.5019680522382259368896484375" lon="-8.6591475270688533782958984375">
        <ele>138</ele>
        <time>2022-11-01T08:49:24.000Z</time>
      </trkpt>
      <trkpt lat="42.50190560705959796905517578125" lon="-8.6590067110955715179443359375">
        <ele>137.399993896484375</ele>
        <time>2022-11-01T08:49:25.000Z</time>
      </trkpt>
      <trkpt lat="42.5018493644893169403076171875" lon="-8.65885994397103786468505859375">
        <ele>136.600006103515625</ele>
        <time>2022-11-01T08:49:26.000Z</time>
      </trkpt>
      <trkpt lat="42.5017987377941608428955078125" lon="-8.65870621986687183380126953125">
        <ele>136</ele>
        <time>2022-11-01T08:49:27.000Z</time>
      </trkpt>
      <trkpt lat="42.50175272114574909210205078125" lon="-8.65855090320110321044921875">
        <ele>135.1999969482421875</ele>
        <time>2022-11-01T08:49:28.000Z</time>
      </trkpt>
      <trkpt lat="42.50171332620084285736083984375" lon="-8.6583958379924297332763671875">
        <ele>134.8000030517578125</ele>
        <time>2022-11-01T08:49:29.000Z</time>
      </trkpt>
      <trkpt lat="42.5016817264258861541748046875" lon="-8.6582409404218196868896484375">
        <ele>134.1999969482421875</ele>
        <time>2022-11-01T08:49:30.000Z</time>
      </trkpt>
      <trkpt lat="42.50165850855410099029541015625" lon="-8.6580860428512096405029296875">
        <ele>133.8000030517578125</ele>
        <time>2022-11-01T08:49:31.000Z</time>
      </trkpt>
      <trkpt lat="42.5016414932906627655029296875" lon="-8.65793273784220218658447265625">
        <ele>133.399993896484375</ele>
        <time>2022-11-01T08:49:32.000Z</time>
      </trkpt>
      <trkpt lat="42.5016295909881591796875" lon="-8.65777901373803615570068359375">
        <ele>133.1999969482421875</ele>
        <time>2022-11-01T08:49:33.000Z</time>
      </trkpt>
      <trkpt lat="42.5016250647604465484619140625" lon="-8.65762528963387012481689453125">
        <ele>132.8000030517578125</ele>
        <time>2022-11-01T08:49:34.000Z</time>
      </trkpt>
      <trkpt lat="42.50162565149366855621337890625" lon="-8.6574711464345455169677734375">
        <ele>132.399993896484375</ele>
        <time>2022-11-01T08:49:35.000Z</time>
      </trkpt>
      <trkpt lat="42.50163151882588863372802734375" lon="-8.65731951780617237091064453125">
        <ele>132.1999969482421875</ele>
        <time>2022-11-01T08:49:36.000Z</time>
      </trkpt>
      <trkpt lat="42.50164224766194820404052734375" lon="-8.657170571386814117431640625">
        <ele>131.8000030517578125</ele>
        <time>2022-11-01T08:49:37.000Z</time>
      </trkpt>
      <trkpt lat="42.50165565870702266693115234375" lon="-8.65702338516712188720703125">
        <ele>131.8000030517578125</ele>
        <time>2022-11-01T08:49:38.000Z</time>
      </trkpt>
      <trkpt lat="42.501670159399509429931640625" lon="-8.65688080899417400360107421875">
        <ele>131.600006103515625</ele>
        <time>2022-11-01T08:49:39.000Z</time>
      </trkpt>
      <trkpt lat="42.50168524682521820068359375" lon="-8.65674267522990703582763671875">
        <ele>131.399993896484375</ele>
        <time>2022-11-01T08:49:40.000Z</time>
      </trkpt>
      <trkpt lat="42.50169731676578521728515625" lon="-8.6566057987511157989501953125">
        <ele>131.399993896484375</ele>
        <time>2022-11-01T08:49:41.000Z</time>
      </trkpt>
      <trkpt lat="42.501708380877971649169921875" lon="-8.6564747057855129241943359375">
        <ele>131.399993896484375</ele>
        <time>2022-11-01T08:49:42.000Z</time>
      </trkpt>
      <trkpt lat="42.5017165951430797576904296875" lon="-8.65634520538151264190673828125">
        <ele>131.399993896484375</ele>
        <time>2022-11-01T08:49:43.000Z</time>
      </trkpt>
      <trkpt lat="42.5017206184566020965576171875" lon="-8.65621746517717838287353515625">
        <ele>131.399993896484375</ele>
        <time>2022-11-01T08:49:44.000Z</time>
      </trkpt>
      <trkpt lat="42.50172137282788753509521484375" lon="-8.656090982258319854736328125">
        <ele>131.600006103515625</ele>
        <time>2022-11-01T08:49:45.000Z</time>
      </trkpt>
      <trkpt lat="42.501714415848255157470703125" lon="-8.655964247882366180419921875">
        <ele>131.8000030517578125</ele>
        <time>2022-11-01T08:49:46.000Z</time>
      </trkpt>
      <trkpt lat="42.50170075334608554840087890625" lon="-8.65583918988704681396484375">
        <ele>131.8000030517578125</ele>
        <time>2022-11-01T08:49:47.000Z</time>
      </trkpt>
      <trkpt lat="42.5016834028065204620361328125" lon="-8.65571622736752033233642578125">
        <ele>132</ele>
        <time>2022-11-01T08:49:48.000Z</time>
      </trkpt>
      <trkpt lat="42.50166068784892559051513671875" lon="-8.655600138008594512939453125">
        <ele>132</ele>
        <time>2022-11-01T08:49:49.000Z</time>
      </trkpt>
      <trkpt lat="42.5016317702829837799072265625" lon="-8.65549025125801563262939453125">
        <ele>132.1999969482421875</ele>
        <time>2022-11-01T08:49:50.000Z</time>
      </trkpt>
      <trkpt lat="42.50160084106028079986572265625" lon="-8.655386231839656829833984375">
        <ele>132</ele>
        <time>2022-11-01T08:49:51.000Z</time>
      </trkpt>
      <trkpt lat="42.5015677325427532196044921875" lon="-8.655287325382232666015625">
        <ele>132.399993896484375</ele>
        <time>2022-11-01T08:49:52.000Z</time>
      </trkpt>
      <trkpt lat="42.501531355082988739013671875" lon="-8.65519453771412372589111328125">
        <ele>132.399993896484375</ele>
        <time>2022-11-01T08:49:53.000Z</time>
      </trkpt>
      <trkpt lat="42.5014922954142093658447265625" lon="-8.65510568954050540924072265625">
        <ele>132.399993896484375</ele>
        <time>2022-11-01T08:49:54.000Z</time>
      </trkpt>
      <trkpt lat="42.50145197845995426177978515625" lon="-8.65501918829977512359619140625">
        <ele>132.1999969482421875</ele>
        <time>2022-11-01T08:49:55.000Z</time>
      </trkpt>
      <trkpt lat="42.5014114938676357269287109375" lon="-8.65493469871580600738525390625">
        <ele>132.399993896484375</ele>
        <time>2022-11-01T08:49:56.000Z</time>
      </trkpt>
      <trkpt lat="42.501371093094348907470703125" lon="-8.654853813350200653076171875">
        <ele>132.600006103515625</ele>
        <time>2022-11-01T08:49:57.000Z</time>
      </trkpt>
      <trkpt lat="42.50133245252072811126708984375" lon="-8.65477477200329303741455078125">
        <ele>132.600006103515625</ele>
        <time>2022-11-01T08:49:58.000Z</time>
      </trkpt>
      <trkpt lat="42.501293309032917022705078125" lon="-8.6546958982944488525390625">
        <ele>132.600006103515625</ele>
        <time>2022-11-01T08:49:59.000Z</time>
      </trkpt>
      <trkpt lat="42.501253075897693634033203125" lon="-8.65461744368076324462890625">
        <ele>132.600006103515625</ele>
        <time>2022-11-01T08:50:00.000Z</time>
      </trkpt>
      <trkpt lat="42.50121451914310455322265625" lon="-8.65454007871448993682861328125">
        <ele>132.8000030517578125</ele>
        <time>2022-11-01T08:50:01.000Z</time>
      </trkpt>
      <trkpt lat="42.50117369927465915679931640625" lon="-8.654461540281772613525390625">
        <ele>133</ele>
        <time>2022-11-01T08:50:02.000Z</time>
      </trkpt>
      <trkpt lat="42.501133047044277191162109375" lon="-8.65438585169613361358642578125">
        <ele>133.1999969482421875</ele>
        <time>2022-11-01T08:50:03.000Z</time>
      </trkpt>
      <trkpt lat="42.5010892935097217559814453125" lon="-8.65430823527276515960693359375">
        <ele>133.1999969482421875</ele>
        <time>2022-11-01T08:50:04.000Z</time>
      </trkpt>
      <trkpt lat="42.50105316750705242156982421875" lon="-8.6542491428554058074951171875">
        <ele>133.1999969482421875</ele>
        <time>2022-11-01T08:50:05.000Z</time>
      </trkpt>
      <trkpt lat="42.50099650584161281585693359375" lon="-8.6541710235178470611572265625">
        <ele>133.600006103515625</ele>
        <time>2022-11-01T08:50:06.000Z</time>
      </trkpt>
      <trkpt lat="42.50093766488134860992431640625" lon="-8.654120899736881256103515625">
        <ele>133.8000030517578125</ele>
        <time>2022-11-01T08:50:07.000Z</time>
      </trkpt>
      <trkpt lat="42.50087882392108440399169921875" lon="-8.65407831966876983642578125">
        <ele>134.1999969482421875</ele>
        <time>2022-11-01T08:50:08.000Z</time>
      </trkpt>
      <trkpt lat="42.50082802958786487579345703125" lon="-8.65402861498296260833740234375">
        <ele>134.399993896484375</ele>
        <time>2022-11-01T08:50:09.000Z</time>
      </trkpt>
      <trkpt lat="42.50079332850873470306396484375" lon="-8.65397798828780651092529296875">
        <ele>134.600006103515625</ele>
        <time>2022-11-01T08:50:10.000Z</time>
      </trkpt>
      <trkpt lat="42.500757537782192230224609375" lon="-8.6538981087505817413330078125">
        <ele>134.600006103515625</ele>
        <time>2022-11-01T08:50:11.000Z</time>
      </trkpt>
      <trkpt lat="42.5007243454456329345703125" lon="-8.653787635266780853271484375">
        <ele>134.8000030517578125</ele>
        <time>2022-11-01T08:50:12.000Z</time>
      </trkpt>
      <trkpt lat="42.50070129521191120147705078125" lon="-8.65369065664708614349365234375">
        <ele>134.8000030517578125</ele>
        <time>2022-11-01T08:50:13.000Z</time>
      </trkpt>
      <trkpt lat="42.50067397020757198333740234375" lon="-8.65359476767480373382568359375">
        <ele>134.8000030517578125</ele>
        <time>2022-11-01T08:50:14.000Z</time>
      </trkpt>
      <trkpt lat="42.50064848922193050384521484375" lon="-8.65352385677397251129150390625">
        <ele>134.8000030517578125</ele>
        <time>2022-11-01T08:50:15.000Z</time>
      </trkpt>
      <trkpt lat="42.500605992972850799560546875" lon="-8.65342092700302600860595703125">
        <ele>134.8000030517578125</ele>
        <time>2022-11-01T08:50:16.000Z</time>
      </trkpt>
      <trkpt lat="42.5005568750202655792236328125" lon="-8.65333492867648601531982421875">
        <ele>134.8000030517578125</ele>
        <time>2022-11-01T08:50:17.000Z</time>
      </trkpt>
      <trkpt lat="42.50050348229706287384033203125" lon="-8.65325178019702434539794921875">
        <ele>134.8000030517578125</ele>
        <time>2022-11-01T08:50:18.000Z</time>
      </trkpt>
      <trkpt lat="42.50044564716517925262451171875" lon="-8.65317114628851413726806640625">
        <ele>134.8000030517578125</ele>
        <time>2022-11-01T08:50:19.000Z</time>
      </trkpt>
      <trkpt lat="42.5003835372626781463623046875" lon="-8.6530910991132259368896484375">
        <ele>134.600006103515625</ele>
        <time>2022-11-01T08:50:20.000Z</time>
      </trkpt>
      <trkpt lat="42.50032997690141201019287109375" lon="-8.6530287377536296844482421875">
        <ele>134.600006103515625</ele>
        <time>2022-11-01T08:50:21.000Z</time>
      </trkpt>
      <trkpt lat="42.50024347566068172454833984375" lon="-8.6529385484755039215087890625">
        <ele>134.600006103515625</ele>
        <time>2022-11-01T08:50:22.000Z</time>
      </trkpt>
      <trkpt lat="42.50016468577086925506591796875" lon="-8.65286654792726039886474609375">
        <ele>134.399993896484375</ele>
        <time>2022-11-01T08:50:23.000Z</time>
      </trkpt>
      <trkpt lat="42.5000831298530101776123046875" lon="-8.652798235416412353515625">
        <ele>134.1999969482421875</ele>
        <time>2022-11-01T08:50:24.000Z</time>
      </trkpt>
      <trkpt lat="42.4999956227838993072509765625" lon="-8.6527347005903720855712890625">
        <ele>134</ele>
        <time>2022-11-01T08:50:25.000Z</time>
      </trkpt>
      <trkpt lat="42.49990317039191722869873046875" lon="-8.65267527289688587188720703125">
        <ele>133.8000030517578125</ele>
        <time>2022-11-01T08:50:26.000Z</time>
      </trkpt>
      <trkpt lat="42.49980761669576168060302734375" lon="-8.6526257358491420745849609375">
        <ele>133.399993896484375</ele>
        <time>2022-11-01T08:50:27.000Z</time>
      </trkpt>
      <trkpt lat="42.4997079558670520782470703125" lon="-8.652582652866840362548828125">
        <ele>133</ele>
        <time>2022-11-01T08:50:28.000Z</time>
      </trkpt>
      <trkpt lat="42.49960544519126415252685546875" lon="-8.65254753269255161285400390625">
        <ele>132.600006103515625</ele>
        <time>2022-11-01T08:50:29.000Z</time>
      </trkpt>
      <trkpt lat="42.49950117431581020355224609375" lon="-8.65252071060240268707275390625">
        <ele>132</ele>
        <time>2022-11-01T08:50:30.000Z</time>
      </trkpt>
      <trkpt lat="42.4993904493749141693115234375" lon="-8.6524976603686809539794921875">
        <ele>131.8000030517578125</ele>
        <time>2022-11-01T08:50:31.000Z</time>
      </trkpt>
      <trkpt lat="42.4992781318724155426025390625" lon="-8.65248433314263820648193359375">
        <ele>131</ele>
        <time>2022-11-01T08:50:32.000Z</time>
      </trkpt>
      <trkpt lat="42.49916237778961658477783203125" lon="-8.65247796289622783660888671875">
        <ele>130.600006103515625</ele>
        <time>2022-11-01T08:50:33.000Z</time>
      </trkpt>
      <trkpt lat="42.49904536642134189605712890625" lon="-8.6524772085249423980712890625">
        <ele>129.8000030517578125</ele>
        <time>2022-11-01T08:50:34.000Z</time>
      </trkpt>
      <trkpt lat="42.49892801977694034576416015625" lon="-8.652478046715259552001953125">
        <ele>129.399993896484375</ele>
        <time>2022-11-01T08:50:35.000Z</time>
      </trkpt>
      <trkpt lat="42.49881050549447536468505859375" lon="-8.6524748615920543670654296875">
        <ele>128.399993896484375</ele>
        <time>2022-11-01T08:50:36.000Z</time>
      </trkpt>
      <trkpt lat="42.49869332648813724517822265625" lon="-8.65247343666851520538330078125">
        <ele>128.1999969482421875</ele>
        <time>2022-11-01T08:50:37.000Z</time>
      </trkpt>
      <trkpt lat="42.49858017079532146453857421875" lon="-8.65247494541108608245849609375">
        <ele>127.40000152587890625</ele>
        <time>2022-11-01T08:50:38.000Z</time>
      </trkpt>
      <trkpt lat="42.49846718274056911468505859375" lon="-8.652474693953990936279296875">
        <ele>127.1999969482421875</ele>
        <time>2022-11-01T08:50:39.000Z</time>
      </trkpt>
      <trkpt lat="42.49835436232388019561767578125" lon="-8.65247075445950031280517578125">
        <ele>126.40000152587890625</ele>
        <time>2022-11-01T08:50:40.000Z</time>
      </trkpt>
      <trkpt lat="42.4982431344687938690185546875" lon="-8.65246455185115337371826171875">
        <ele>125.59999847412109375</ele>
        <time>2022-11-01T08:50:41.000Z</time>
      </trkpt>
      <trkpt lat="42.49813257716596126556396484375" lon="-8.65245298482477664947509765625">
        <ele>125.40000152587890625</ele>
        <time>2022-11-01T08:50:42.000Z</time>
      </trkpt>
      <trkpt lat="42.49802378006279468536376953125" lon="-8.65243270061910152435302734375">
        <ele>124.8000030517578125</ele>
        <time>2022-11-01T08:50:43.000Z</time>
      </trkpt>
      <trkpt lat="42.4979162402451038360595703125" lon="-8.65240403451025485992431640625">
        <ele>124.40000152587890625</ele>
        <time>2022-11-01T08:50:44.000Z</time>
      </trkpt>
      <trkpt lat="42.4978096224367618560791015625" lon="-8.6523695848882198333740234375">
        <ele>123.8000030517578125</ele>
        <time>2022-11-01T08:50:45.000Z</time>
      </trkpt>
      <trkpt lat="42.49770510010421276092529296875" lon="-8.652331531047821044921875">
        <ele>123.59999847412109375</ele>
        <time>2022-11-01T08:50:46.000Z</time>
      </trkpt>
      <trkpt lat="42.49760233797132968902587890625" lon="-8.652288950979709625244140625">
        <ele>123.40000152587890625</ele>
        <time>2022-11-01T08:50:47.000Z</time>
      </trkpt>
      <trkpt lat="42.49750007875263690948486328125" lon="-8.652238659560680389404296875">
        <ele>123.40000152587890625</ele>
        <time>2022-11-01T08:50:48.000Z</time>
      </trkpt>
      <trkpt lat="42.49740167520940303802490234375" lon="-8.65218333899974822998046875">
        <ele>123</ele>
        <time>2022-11-01T08:50:49.000Z</time>
      </trkpt>
      <trkpt lat="42.49730545096099376678466796875" lon="-8.65212944336235523223876953125">
        <ele>122.8000030517578125</ele>
        <time>2022-11-01T08:50:50.000Z</time>
      </trkpt>
      <trkpt lat="42.49721006490290164947509765625" lon="-8.6520778946578502655029296875">
        <ele>122.59999847412109375</ele>
        <time>2022-11-01T08:50:51.000Z</time>
      </trkpt>
      <trkpt lat="42.49711501412093639373779296875" lon="-8.65202508866786956787109375">
        <ele>122.1999969482421875</ele>
        <time>2022-11-01T08:50:52.000Z</time>
      </trkpt>
      <trkpt lat="42.4970202147960662841796875" lon="-8.65197270177304744720458984375">
        <ele>122</ele>
        <time>2022-11-01T08:50:53.000Z</time>
      </trkpt>
      <trkpt lat="42.49692508019506931304931640625" lon="-8.651921488344669342041015625">
        <ele>121.59999847412109375</ele>
        <time>2022-11-01T08:50:54.000Z</time>
      </trkpt>
      <trkpt lat="42.49682843685150146484375" lon="-8.65186926908791065216064453125">
        <ele>121.59999847412109375</ele>
        <time>2022-11-01T08:50:55.000Z</time>
      </trkpt>
      <trkpt lat="42.49673388898372650146484375" lon="-8.65181797184050083160400390625">
        <ele>121.40000152587890625</ele>
        <time>2022-11-01T08:50:56.000Z</time>
      </trkpt>
      <trkpt lat="42.496636994183063507080078125" lon="-8.65176952444016933441162109375">
        <ele>121.1999969482421875</ele>
        <time>2022-11-01T08:50:57.000Z</time>
      </trkpt>
      <trkpt lat="42.49653968028724193572998046875" lon="-8.65172677673399448394775390625">
        <ele>120.8000030517578125</ele>
        <time>2022-11-01T08:50:58.000Z</time>
      </trkpt>
      <trkpt lat="42.49644161202013492584228515625" lon="-8.6516916565597057342529296875">
        <ele>120.8000030517578125</ele>
        <time>2022-11-01T08:50:59.000Z</time>
      </trkpt>
      <trkpt lat="42.49634270556271076202392578125" lon="-8.65166240371763706207275390625">
        <ele>120.59999847412109375</ele>
        <time>2022-11-01T08:51:00.000Z</time>
      </trkpt>
      <trkpt lat="42.4962418712675571441650390625" lon="-8.65163809619843959808349609375">
        <ele>120.59999847412109375</ele>
        <time>2022-11-01T08:51:01.000Z</time>
      </trkpt>
      <trkpt lat="42.49614019878208637237548828125" lon="-8.65161982364952564239501953125">
        <ele>120.40000152587890625</ele>
        <time>2022-11-01T08:51:02.000Z</time>
      </trkpt>
      <trkpt lat="42.4960373528301715850830078125" lon="-8.6516054905951023101806640625">
        <ele>120.40000152587890625</ele>
        <time>2022-11-01T08:51:03.000Z</time>
      </trkpt>
      <trkpt lat="42.495935596525669097900390625" lon="-8.6515964381396770477294921875">
        <ele>120.40000152587890625</ele>
        <time>2022-11-01T08:51:04.000Z</time>
      </trkpt>
      <trkpt lat="42.49583241529762744903564453125" lon="-8.6515890620648860931396484375">
        <ele>120</ele>
        <time>2022-11-01T08:51:05.000Z</time>
      </trkpt>
      <trkpt lat="42.49572998844087123870849609375" lon="-8.6515830270946025848388671875">
        <ele>119.8000030517578125</ele>
        <time>2022-11-01T08:51:06.000Z</time>
      </trkpt>
      <trkpt lat="42.495626471936702728271484375" lon="-8.6515786685049533843994140625">
        <ele>119.59999847412109375</ele>
        <time>2022-11-01T08:51:07.000Z</time>
      </trkpt>
      <trkpt lat="42.49552262015640735626220703125" lon="-8.65157640539109706878662109375">
        <ele>119.1999969482421875</ele>
        <time>2022-11-01T08:51:08.000Z</time>
      </trkpt>
      <trkpt lat="42.49541801400482654571533203125" lon="-8.651575148105621337890625">
        <ele>118.40000152587890625</ele>
        <time>2022-11-01T08:51:09.000Z</time>
      </trkpt>
      <trkpt lat="42.49531173147261142730712890625" lon="-8.6515726335346698760986328125">
        <ele>118.1999969482421875</ele>
        <time>2022-11-01T08:51:10.000Z</time>
      </trkpt>
      <trkpt lat="42.49520410783588886260986328125" lon="-8.651570118963718414306640625">
        <ele>117.8000030517578125</ele>
        <time>2022-11-01T08:51:11.000Z</time>
      </trkpt>
      <trkpt lat="42.495096735656261444091796875" lon="-8.6515676043927669525146484375">
        <ele>117.40000152587890625</ele>
        <time>2022-11-01T08:51:12.000Z</time>
      </trkpt>
      <trkpt lat="42.494988776743412017822265625" lon="-8.65156349726021289825439453125">
        <ele>117.1999969482421875</ele>
        <time>2022-11-01T08:51:13.000Z</time>
      </trkpt>
      <trkpt lat="42.4948776327073574066162109375" lon="-8.65155796520411968231201171875">
        <ele>116.8000030517578125</ele>
        <time>2022-11-01T08:51:14.000Z</time>
      </trkpt>
      <trkpt lat="42.4947683326900005340576171875" lon="-8.65155461244285106658935546875">
        <ele>116.59999847412109375</ele>
        <time>2022-11-01T08:51:15.000Z</time>
      </trkpt>
      <trkpt lat="42.49465777538716793060302734375" lon="-8.65155243314802646636962890625">
        <ele>116.40000152587890625</ele>
        <time>2022-11-01T08:51:16.000Z</time>
      </trkpt>
      <trkpt lat="42.494548223912715911865234375" lon="-8.65155159495770931243896484375">
        <ele>116.1999969482421875</ele>
        <time>2022-11-01T08:51:17.000Z</time>
      </trkpt>
      <trkpt lat="42.4944412708282470703125" lon="-8.65155578590929508209228515625">
        <ele>115.8000030517578125</ele>
        <time>2022-11-01T08:51:18.000Z</time>
      </trkpt>
      <trkpt lat="42.494328953325748443603515625" lon="-8.6515565402805805206298828125">
        <ele>115.59999847412109375</ele>
        <time>2022-11-01T08:51:19.000Z</time>
      </trkpt>
      <trkpt lat="42.49421269632875919342041015625" lon="-8.65155444480478763580322265625">
        <ele>115.1999969482421875</ele>
        <time>2022-11-01T08:51:20.000Z</time>
      </trkpt>
      <trkpt lat="42.4940992891788482666015625" lon="-8.6515541933476924896240234375">
        <ele>114.8000030517578125</ele>
        <time>2022-11-01T08:51:21.000Z</time>
      </trkpt>
      <trkpt lat="42.493987977504730224609375" lon="-8.65155980922281742095947265625">
        <ele>114.40000152587890625</ele>
        <time>2022-11-01T08:51:22.000Z</time>
      </trkpt>
      <trkpt lat="42.49387389980256557464599609375" lon="-8.6515659280121326446533203125">
        <ele>113.8000030517578125</ele>
        <time>2022-11-01T08:51:23.000Z</time>
      </trkpt>
      <trkpt lat="42.49375998973846435546875" lon="-8.65157472901046276092529296875">
        <ele>113.59999847412109375</ele>
        <time>2022-11-01T08:51:24.000Z</time>
      </trkpt>
      <trkpt lat="42.49364532530307769775390625" lon="-8.6515853740274906158447265625">
        <ele>113</ele>
        <time>2022-11-01T08:51:25.000Z</time>
      </trkpt>
      <trkpt lat="42.49353091232478618621826171875" lon="-8.6515979468822479248046875">
        <ele>112.8000030517578125</ele>
        <time>2022-11-01T08:51:26.000Z</time>
      </trkpt>
      <trkpt lat="42.49341591261327266693115234375" lon="-8.65161412395536899566650390625">
        <ele>112.1999969482421875</ele>
        <time>2022-11-01T08:51:27.000Z</time>
      </trkpt>
      <trkpt lat="42.4933001585304737091064453125" lon="-8.65163256414234638214111328125">
        <ele>112</ele>
        <time>2022-11-01T08:51:28.000Z</time>
      </trkpt>
      <trkpt lat="42.49318557791411876678466796875" lon="-8.65165335126221179962158203125">
        <ele>111.40000152587890625</ele>
        <time>2022-11-01T08:51:29.000Z</time>
      </trkpt>
      <trkpt lat="42.49307225458323955535888671875" lon="-8.65167732350528240203857421875">
        <ele>110.8000030517578125</ele>
        <time>2022-11-01T08:51:30.000Z</time>
      </trkpt>
      <trkpt lat="42.49296027235686779022216796875" lon="-8.65170464850962162017822265625">
        <ele>109.8000030517578125</ele>
        <time>2022-11-01T08:51:31.000Z</time>
      </trkpt>
      <trkpt lat="42.49284862540662288665771484375" lon="-8.65173398517072200775146484375">
        <ele>109.59999847412109375</ele>
        <time>2022-11-01T08:51:32.000Z</time>
      </trkpt>
      <trkpt lat="42.49273647554218769073486328125" lon="-8.651763908565044403076171875">
        <ele>109.1999969482421875</ele>
        <time>2022-11-01T08:51:33.000Z</time>
      </trkpt>
      <trkpt lat="42.4926245771348476409912109375" lon="-8.651794753968715667724609375">
        <ele>108.59999847412109375</ele>
        <time>2022-11-01T08:51:34.000Z</time>
      </trkpt>
      <trkpt lat="42.49251703731715679168701171875" lon="-8.65182836540043354034423828125">
        <ele>108.40000152587890625</ele>
        <time>2022-11-01T08:51:35.000Z</time>
      </trkpt>
      <trkpt lat="42.4924116767942905426025390625" lon="-8.6518660001456737518310546875">
        <ele>107.8000030517578125</ele>
        <time>2022-11-01T08:51:36.000Z</time>
      </trkpt>
      <trkpt lat="42.49230690300464630126953125" lon="-8.65190497599542140960693359375">
        <ele>107.40000152587890625</ele>
        <time>2022-11-01T08:51:37.000Z</time>
      </trkpt>
      <trkpt lat="42.49220489524304866790771484375" lon="-8.65194772370159626007080078125">
        <ele>107.1999969482421875</ele>
        <time>2022-11-01T08:51:38.000Z</time>
      </trkpt>
      <trkpt lat="42.4921045638620853424072265625" lon="-8.65199550054967403411865234375">
        <ele>107</ele>
        <time>2022-11-01T08:51:39.000Z</time>
      </trkpt>
      <trkpt lat="42.49200875870883464813232421875" lon="-8.6520520783960819244384765625">
        <ele>107</ele>
        <time>2022-11-01T08:51:40.000Z</time>
      </trkpt>
      <trkpt lat="42.49191974289715290069580078125" lon="-8.65211896598339080810546875">
        <ele>106.8000030517578125</ele>
        <time>2022-11-01T08:51:41.000Z</time>
      </trkpt>
      <trkpt lat="42.4918373487889766693115234375" lon="-8.6521972529590129852294921875">
        <ele>106.59999847412109375</ele>
        <time>2022-11-01T08:51:42.000Z</time>
      </trkpt>
      <trkpt lat="42.49175596050918102264404296875" lon="-8.6522797308862209320068359375">
        <ele>106.40000152587890625</ele>
        <time>2022-11-01T08:51:43.000Z</time>
      </trkpt>
      <trkpt lat="42.49166409485042095184326171875" lon="-8.6523427627980709075927734375">
        <ele>106.1999969482421875</ele>
        <time>2022-11-01T08:51:44.000Z</time>
      </trkpt>
      <trkpt lat="42.49156451784074306488037109375" lon="-8.6523796431720256805419921875">
        <ele>106</ele>
        <time>2022-11-01T08:51:45.000Z</time>
      </trkpt>
      <trkpt lat="42.49146200716495513916015625" lon="-8.652395568788051605224609375">
        <ele>106</ele>
        <time>2022-11-01T08:51:46.000Z</time>
      </trkpt>
      <trkpt lat="42.49135899357497692108154296875" lon="-8.65241141058504581451416015625">
        <ele>105.8000030517578125</ele>
        <time>2022-11-01T08:51:47.000Z</time>
      </trkpt>
      <trkpt lat="42.49125539325177669525146484375" lon="-8.65244208835065364837646484375">
        <ele>105.8000030517578125</ele>
        <time>2022-11-01T08:51:48.000Z</time>
      </trkpt>
      <trkpt lat="42.491171322762966156005859375" lon="-8.6524758674204349517822265625">
        <ele>105.59999847412109375</ele>
        <time>2022-11-01T08:51:49.000Z</time>
      </trkpt>
      <trkpt lat="42.49104760587215423583984375" lon="-8.6525367200374603271484375">
        <ele>105.40000152587890625</ele>
        <time>2022-11-01T08:51:50.000Z</time>
      </trkpt>
      <trkpt lat="42.4909471906721591949462890625" lon="-8.65259815938770771026611328125">
        <ele>105.1999969482421875</ele>
        <time>2022-11-01T08:51:51.000Z</time>
      </trkpt>
      <trkpt lat="42.49084803275763988494873046875" lon="-8.65266689099371433258056640625">
        <ele>105.1999969482421875</ele>
        <time>2022-11-01T08:51:52.000Z</time>
      </trkpt>
      <trkpt lat="42.4907497130334377288818359375" lon="-8.652738891541957855224609375">
        <ele>104.59999847412109375</ele>
        <time>2022-11-01T08:51:53.000Z</time>
      </trkpt>
      <trkpt lat="42.49067184515297412872314453125" lon="-8.65279764868319034576416015625">
        <ele>104.1999969482421875</ele>
        <time>2022-11-01T08:51:54.000Z</time>
      </trkpt>
      <trkpt lat="42.4905539117753505706787109375" lon="-8.65288783796131610870361328125">
        <ele>103.59999847412109375</ele>
        <time>2022-11-01T08:51:55.000Z</time>
      </trkpt>
      <trkpt lat="42.4904553405940532684326171875" lon="-8.65296386182308197021484375">
        <ele>103.40000152587890625</ele>
        <time>2022-11-01T08:51:56.000Z</time>
      </trkpt>
      <trkpt lat="42.49035601504147052764892578125" lon="-8.65304189734160900115966796875">
        <ele>103.1999969482421875</ele>
        <time>2022-11-01T08:51:57.000Z</time>
      </trkpt>
      <trkpt lat="42.490258030593395233154296875" lon="-8.65312320180237293243408203125">
        <ele>102.40000152587890625</ele>
        <time>2022-11-01T08:51:58.000Z</time>
      </trkpt>
      <trkpt lat="42.49015987850725650787353515625" lon="-8.653205595910549163818359375">
        <ele>102.1999969482421875</ele>
        <time>2022-11-01T08:51:59.000Z</time>
      </trkpt>
      <trkpt lat="42.49006231315433979034423828125" lon="-8.653289414942264556884765625">
        <ele>101.8000030517578125</ele>
        <time>2022-11-01T08:52:00.000Z</time>
      </trkpt>
      <trkpt lat="42.48996458016335964202880859375" lon="-8.65337298251688480377197265625">
        <ele>101.59999847412109375</ele>
        <time>2022-11-01T08:52:01.000Z</time>
      </trkpt>
      <trkpt lat="42.48986500315368175506591796875" lon="-8.653454370796680450439453125">
        <ele>101</ele>
        <time>2022-11-01T08:52:02.000Z</time>
      </trkpt>
      <trkpt lat="42.489764504134654998779296875" lon="-8.65353559143841266632080078125">
        <ele>100.8000030517578125</ele>
        <time>2022-11-01T08:52:03.000Z</time>
      </trkpt>
      <trkpt lat="42.48966626822948455810546875" lon="-8.65361857227981090545654296875">
        <ele>100</ele>
        <time>2022-11-01T08:52:04.000Z</time>
      </trkpt>
      <trkpt lat="42.489568032324314117431640625" lon="-8.65370155312120914459228515625">
        <ele>99.8000030517578125</ele>
        <time>2022-11-01T08:52:05.000Z</time>
      </trkpt>
      <trkpt lat="42.48946778476238250732421875" lon="-8.65378470160067081451416015625">
        <ele>99.40000152587890625</ele>
        <time>2022-11-01T08:52:06.000Z</time>
      </trkpt>
      <trkpt lat="42.489367537200450897216796875" lon="-8.65386634133756160736083984375">
        <ele>99.1999969482421875</ele>
        <time>2022-11-01T08:52:07.000Z</time>
      </trkpt>
      <trkpt lat="42.48926636762917041778564453125" lon="-8.653948567807674407958984375">
        <ele>98.59999847412109375</ele>
        <time>2022-11-01T08:52:08.000Z</time>
      </trkpt>
      <trkpt lat="42.4891668744385242462158203125" lon="-8.65403003990650177001953125">
        <ele>98.1999969482421875</ele>
        <time>2022-11-01T08:52:09.000Z</time>
      </trkpt>
      <trkpt lat="42.4890662916004657745361328125" lon="-8.65411276929080486297607421875">
        <ele>98</ele>
        <time>2022-11-01T08:52:10.000Z</time>
      </trkpt>
      <trkpt lat="42.48896612785756587982177734375" lon="-8.6541954986751079559326171875">
        <ele>97.40000152587890625</ele>
        <time>2022-11-01T08:52:11.000Z</time>
      </trkpt>
      <trkpt lat="42.4888647906482219696044921875" lon="-8.65427755750715732574462890625">
        <ele>97</ele>
        <time>2022-11-01T08:52:12.000Z</time>
      </trkpt>
      <trkpt lat="42.4887611903250217437744140625" lon="-8.65435651503503322601318359375">
        <ele>96.59999847412109375</ele>
        <time>2022-11-01T08:52:13.000Z</time>
      </trkpt>
      <trkpt lat="42.48865775763988494873046875" lon="-8.65443513728678226470947265625">
        <ele>96.1999969482421875</ele>
        <time>2022-11-01T08:52:14.000Z</time>
      </trkpt>
      <trkpt lat="42.4885529838502407073974609375" lon="-8.6545130051672458648681640625">
        <ele>95.59999847412109375</ele>
        <time>2022-11-01T08:52:15.000Z</time>
      </trkpt>
      <trkpt lat="42.488446533679962158203125" lon="-8.65458886139094829559326171875">
        <ele>95.40000152587890625</ele>
        <time>2022-11-01T08:52:16.000Z</time>
      </trkpt>
      <trkpt lat="42.488339580595493316650390625" lon="-8.65466295741498470306396484375">
        <ele>94.8000030517578125</ele>
        <time>2022-11-01T08:52:17.000Z</time>
      </trkpt>
      <trkpt lat="42.48823220841586589813232421875" lon="-8.6547383107244968414306640625">
        <ele>94.59999847412109375</ele>
        <time>2022-11-01T08:52:18.000Z</time>
      </trkpt>
      <trkpt lat="42.48812475241720676422119140625" lon="-8.6548124067485332489013671875">
        <ele>93.8000030517578125</ele>
        <time>2022-11-01T08:52:19.000Z</time>
      </trkpt>
      <trkpt lat="42.4880202300846576690673828125" lon="-8.6548918671905994415283203125">
        <ele>93.1999969482421875</ele>
        <time>2022-11-01T08:52:20.000Z</time>
      </trkpt>
      <trkpt lat="42.48791302554309368133544921875" lon="-8.654971830546855926513671875">
        <ele>92.8000030517578125</ele>
        <time>2022-11-01T08:52:21.000Z</time>
      </trkpt>
      <trkpt lat="42.48780347406864166259765625" lon="-8.65504936315119266510009765625">
        <ele>92</ele>
        <time>2022-11-01T08:52:22.000Z</time>
      </trkpt>
      <trkpt lat="42.48769191093742847442626953125" lon="-8.65512496791779994964599609375">
        <ele>91.40000152587890625</ele>
        <time>2022-11-01T08:52:23.000Z</time>
      </trkpt>
      <trkpt lat="42.48757825233042240142822265625" lon="-8.65519319660961627960205078125">
        <ele>90.59999847412109375</ele>
        <time>2022-11-01T08:52:24.000Z</time>
      </trkpt>
      <trkpt lat="42.48746057040989398956298828125" lon="-8.6552506126463413238525390625">
        <ele>90.40000152587890625</ele>
        <time>2022-11-01T08:52:25.000Z</time>
      </trkpt>
      <trkpt lat="42.48734037391841411590576171875" lon="-8.6552978865802288055419921875">
        <ele>89.40000152587890625</ele>
        <time>2022-11-01T08:52:26.000Z</time>
      </trkpt>
      <trkpt lat="42.487216405570507049560546875" lon="-8.655335269868373870849609375">
        <ele>89</ele>
        <time>2022-11-01T08:52:27.000Z</time>
      </trkpt>
      <trkpt lat="42.4870901741087436676025390625" lon="-8.65535748191177845001220703125">
        <ele>88.40000152587890625</ele>
        <time>2022-11-01T08:52:28.000Z</time>
      </trkpt>
      <trkpt lat="42.4869632720947265625" lon="-8.6553696356713771820068359375">
        <ele>88.1999969482421875</ele>
        <time>2022-11-01T08:52:29.000Z</time>
      </trkpt>
      <trkpt lat="42.48683829791843891143798828125" lon="-8.65537793375551700592041015625">
        <ele>87.59999847412109375</ele>
        <time>2022-11-01T08:52:30.000Z</time>
      </trkpt>
      <trkpt lat="42.48671223409473896026611328125" lon="-8.65538145415484905242919921875">
        <ele>87</ele>
        <time>2022-11-01T08:52:31.000Z</time>
      </trkpt>
      <trkpt lat="42.48658549971878528594970703125" lon="-8.6553820408880710601806640625">
        <ele>86.8000030517578125</ele>
        <time>2022-11-01T08:52:32.000Z</time>
      </trkpt>
      <trkpt lat="42.4864585138857364654541015625" lon="-8.6553813703358173370361328125">
        <ele>85.59999847412109375</ele>
        <time>2022-11-01T08:52:33.000Z</time>
      </trkpt>
      <trkpt lat="42.486329935491085052490234375" lon="-8.65537860430777072906494140625">
        <ele>85</ele>
        <time>2022-11-01T08:52:34.000Z</time>
      </trkpt>
      <trkpt lat="42.48620060272514820098876953125" lon="-8.655372150242328643798828125">
        <ele>83.8000030517578125</ele>
        <time>2022-11-01T08:52:35.000Z</time>
      </trkpt>
      <trkpt lat="42.486070431768894195556640625" lon="-8.655366115272045135498046875">
        <ele>82.8000030517578125</ele>
        <time>2022-11-01T08:52:36.000Z</time>
      </trkpt>
      <trkpt lat="42.48593808151781558990478515625" lon="-8.65536016412079334259033203125">
        <ele>81.40000152587890625</ele>
        <time>2022-11-01T08:52:37.000Z</time>
      </trkpt>
      <trkpt lat="42.48580447398126125335693359375" lon="-8.65535429678857326507568359375">
        <ele>80.8000030517578125</ele>
        <time>2022-11-01T08:52:38.000Z</time>
      </trkpt>
      <trkpt lat="42.48567153699696063995361328125" lon="-8.65534859709441661834716796875">
        <ele>79.8000030517578125</ele>
        <time>2022-11-01T08:52:39.000Z</time>
      </trkpt>
      <trkpt lat="42.48553860001266002655029296875" lon="-8.6553431488573551177978515625">
        <ele>79.1999969482421875</ele>
        <time>2022-11-01T08:52:40.000Z</time>
      </trkpt>
      <trkpt lat="42.48540516011416912078857421875" lon="-8.655339963734149932861328125">
        <ele>78.59999847412109375</ele>
        <time>2022-11-01T08:52:41.000Z</time>
      </trkpt>
      <trkpt lat="42.48527146875858306884765625" lon="-8.65533820353448390960693359375">
        <ele>78</ele>
        <time>2022-11-01T08:52:42.000Z</time>
      </trkpt>
      <trkpt lat="42.48513643629848957061767578125" lon="-8.65533770062029361724853515625">
        <ele>77.59999847412109375</ele>
        <time>2022-11-01T08:52:43.000Z</time>
      </trkpt>
      <trkpt lat="42.48499997891485691070556640625" lon="-8.65533987991511821746826171875">
        <ele>76.59999847412109375</ele>
        <time>2022-11-01T08:52:44.000Z</time>
      </trkpt>
      <trkpt lat="42.48486519791185855865478515625" lon="-8.65534910000860691070556640625">
        <ele>76.1999969482421875</ele>
        <time>2022-11-01T08:52:45.000Z</time>
      </trkpt>
      <trkpt lat="42.4847294948995113372802734375" lon="-8.655360750854015350341796875">
        <ele>75</ele>
        <time>2022-11-01T08:52:46.000Z</time>
      </trkpt>
      <trkpt lat="42.4845920316874980926513671875" lon="-8.6553760059177875518798828125">
        <ele>74.59999847412109375</ele>
        <time>2022-11-01T08:52:47.000Z</time>
      </trkpt>
      <trkpt lat="42.484455741941928863525390625" lon="-8.6553961224853992462158203125">
        <ele>73.59999847412109375</ele>
        <time>2022-11-01T08:52:48.000Z</time>
      </trkpt>
      <trkpt lat="42.4843207933008670806884765625" lon="-8.65542076528072357177734375">
        <ele>73.1999969482421875</ele>
        <time>2022-11-01T08:52:49.000Z</time>
      </trkpt>
      <trkpt lat="42.4841845035552978515625" lon="-8.65544834174215793609619140625">
        <ele>72</ele>
        <time>2022-11-01T08:52:50.000Z</time>
      </trkpt>
      <trkpt lat="42.48404796235263347625732421875" lon="-8.65547801367938518524169921875">
        <ele>71</ele>
        <time>2022-11-01T08:52:51.000Z</time>
      </trkpt>
      <trkpt lat="42.48391318134963512420654296875" lon="-8.65551137365400791168212890625">
        <ele>70.40000152587890625</ele>
        <time>2022-11-01T08:52:52.000Z</time>
      </trkpt>
      <trkpt lat="42.48377772979438304901123046875" lon="-8.65554573945701122283935546875">
        <ele>69.40000152587890625</ele>
        <time>2022-11-01T08:52:53.000Z</time>
      </trkpt>
      <trkpt lat="42.48364378698170185089111328125" lon="-8.65557876415550708770751953125">
        <ele>68.8000030517578125</ele>
        <time>2022-11-01T08:52:54.000Z</time>
      </trkpt>
      <trkpt lat="42.48351084999740123748779296875" lon="-8.65560709498822689056396484375">
        <ele>67.40000152587890625</ele>
        <time>2022-11-01T08:52:55.000Z</time>
      </trkpt>
      <trkpt lat="42.48337942175567150115966796875" lon="-8.6556279659271240234375">
        <ele>66.59999847412109375</ele>
        <time>2022-11-01T08:52:56.000Z</time>
      </trkpt>
      <trkpt lat="42.48324497602880001068115234375" lon="-8.655633665621280670166015625">
        <ele>65.59999847412109375</ele>
        <time>2022-11-01T08:52:57.000Z</time>
      </trkpt>
      <trkpt lat="42.48311103321611881256103515625" lon="-8.65562402643263339996337890625">
        <ele>65</ele>
        <time>2022-11-01T08:52:58.000Z</time>
      </trkpt>
      <trkpt lat="42.48297742567956447601318359375" lon="-8.65560181438922882080078125">
        <ele>64.1999969482421875</ele>
        <time>2022-11-01T08:52:59.000Z</time>
      </trkpt>
      <trkpt lat="42.48284541070461273193359375" lon="-8.65556971170008182525634765625">
        <ele>64</ele>
        <time>2022-11-01T08:53:00.000Z</time>
      </trkpt>
      <trkpt lat="42.48271708376705646514892578125" lon="-8.65552880801260471343994140625">
        <ele>63.40000152587890625</ele>
        <time>2022-11-01T08:53:01.000Z</time>
      </trkpt>
      <trkpt lat="42.48259336687624454498291015625" lon="-8.6554777622222900390625">
        <ele>63.200000762939453125</ele>
        <time>2022-11-01T08:53:02.000Z</time>
      </trkpt>
      <trkpt lat="42.482474260032176971435546875" lon="-8.65541816689074039459228515625">
        <ele>62.59999847412109375</ele>
        <time>2022-11-01T08:53:03.000Z</time>
      </trkpt>
      <trkpt lat="42.48235850594937801361083984375" lon="-8.65534826181828975677490234375">
        <ele>61.799999237060546875</ele>
        <time>2022-11-01T08:53:04.000Z</time>
      </trkpt>
      <trkpt lat="42.48225398361682891845703125" lon="-8.655277602374553680419921875">
        <ele>61.40000152587890625</ele>
        <time>2022-11-01T08:53:05.000Z</time>
      </trkpt>
      <trkpt lat="42.4821515567600727081298828125" lon="-8.655197136104106903076171875">
        <ele>60.799999237060546875</ele>
        <time>2022-11-01T08:53:06.000Z</time>
      </trkpt>
      <trkpt lat="42.482047788798809051513671875" lon="-8.6551047675311565399169921875">
        <ele>60.59999847412109375</ele>
        <time>2022-11-01T08:53:07.000Z</time>
      </trkpt>
      <trkpt lat="42.481944859027862548828125" lon="-8.65501751191914081573486328125">
        <ele>60.40000152587890625</ele>
        <time>2022-11-01T08:53:08.000Z</time>
      </trkpt>
      <trkpt lat="42.48184201307594776153564453125" lon="-8.654932267963886260986328125">
        <ele>60.200000762939453125</ele>
        <time>2022-11-01T08:53:09.000Z</time>
      </trkpt>
      <trkpt lat="42.4817369878292083740234375" lon="-8.65484836511313915252685546875">
        <ele>60</ele>
        <time>2022-11-01T08:53:10.000Z</time>
      </trkpt>
      <trkpt lat="42.48163037002086639404296875" lon="-8.65477141924202442169189453125">
        <ele>60</ele>
        <time>2022-11-01T08:53:11.000Z</time>
      </trkpt>
      <trkpt lat="42.481521405279636383056640625" lon="-8.6547054536640644073486328125">
        <ele>59.799999237060546875</ele>
        <time>2022-11-01T08:53:12.000Z</time>
      </trkpt>
      <trkpt lat="42.481408417224884033203125" lon="-8.65464820526540279388427734375">
        <ele>59.799999237060546875</ele>
        <time>2022-11-01T08:53:13.000Z</time>
      </trkpt>
      <trkpt lat="42.4812949262559413909912109375" lon="-8.65459959022700786590576171875">
        <ele>59.59999847412109375</ele>
        <time>2022-11-01T08:53:14.000Z</time>
      </trkpt>
      <trkpt lat="42.4811795912683010101318359375" lon="-8.65456203930079936981201171875">
        <ele>59.200000762939453125</ele>
        <time>2022-11-01T08:53:15.000Z</time>
      </trkpt>
      <trkpt lat="42.4810632504522800445556640625" lon="-8.65453354083001613616943359375">
        <ele>59.200000762939453125</ele>
        <time>2022-11-01T08:53:16.000Z</time>
      </trkpt>
      <trkpt lat="42.48094581998884677886962890625" lon="-8.6545146815478801727294921875">
        <ele>59</ele>
        <time>2022-11-01T08:53:17.000Z</time>
      </trkpt>
      <trkpt lat="42.480829060077667236328125" lon="-8.6545029468834400177001953125">
        <ele>58.799999237060546875</ele>
        <time>2022-11-01T08:53:18.000Z</time>
      </trkpt>
      <trkpt lat="42.48071439564228057861328125" lon="-8.65449917502701282501220703125">
        <ele>58.59999847412109375</ele>
        <time>2022-11-01T08:53:19.000Z</time>
      </trkpt>
      <trkpt lat="42.4805978871881961822509765625" lon="-8.6544992588460445404052734375">
        <ele>58.59999847412109375</ele>
        <time>2022-11-01T08:53:20.000Z</time>
      </trkpt>
      <trkpt lat="42.4804802052676677703857421875" lon="-8.65449934266507625579833984375">
        <ele>58.200000762939453125</ele>
        <time>2022-11-01T08:53:21.000Z</time>
      </trkpt>
      <trkpt lat="42.48036436736583709716796875" lon="-8.6544972471892833709716796875">
        <ele>58</ele>
        <time>2022-11-01T08:53:22.000Z</time>
      </trkpt>
      <trkpt lat="42.48024743981659412384033203125" lon="-8.65449381060898303985595703125">
        <ele>57.59999847412109375</ele>
        <time>2022-11-01T08:53:23.000Z</time>
      </trkpt>
      <trkpt lat="42.4801330268383026123046875" lon="-8.65449347533285617828369140625">
        <ele>57.40000152587890625</ele>
        <time>2022-11-01T08:53:24.000Z</time>
      </trkpt>
      <trkpt lat="42.4800181947648525238037109375" lon="-8.65449112839996814727783203125">
        <ele>57</ele>
        <time>2022-11-01T08:53:25.000Z</time>
      </trkpt>
      <trkpt lat="42.4798996746540069580078125" lon="-8.654480315744876861572265625">
        <ele>56.59999847412109375</ele>
        <time>2022-11-01T08:53:26.000Z</time>
      </trkpt>
      <trkpt lat="42.47977972961962223052978515625" lon="-8.65446262992918491363525390625">
        <ele>56.40000152587890625</ele>
        <time>2022-11-01T08:53:27.000Z</time>
      </trkpt>
      <trkpt lat="42.4796594493091106414794921875" lon="-8.65443614311516284942626953125">
        <ele>56</ele>
        <time>2022-11-01T08:53:28.000Z</time>
      </trkpt>
      <trkpt lat="42.4795377440750598907470703125" lon="-8.65440395660698413848876953125">
        <ele>55.59999847412109375</ele>
        <time>2022-11-01T08:53:29.000Z</time>
      </trkpt>
      <trkpt lat="42.47941746376454830169677734375" lon="-8.65436539985239505767822265625">
        <ele>55</ele>
        <time>2022-11-01T08:53:30.000Z</time>
      </trkpt>
      <trkpt lat="42.47929709963500499725341796875" lon="-8.65431259386241436004638671875">
        <ele>54.59999847412109375</ele>
        <time>2022-11-01T08:53:31.000Z</time>
      </trkpt>
      <trkpt lat="42.47917908243834972381591796875" lon="-8.6542451195418834686279296875">
        <ele>54</ele>
        <time>2022-11-01T08:53:32.000Z</time>
      </trkpt>
      <trkpt lat="42.4790867976844310760498046875" lon="-8.65418267436325550079345703125">
        <ele>53.59999847412109375</ele>
        <time>2022-11-01T08:53:33.000Z</time>
      </trkpt>
      <trkpt lat="42.47894874773919582366943359375" lon="-8.6540798284113407135009765625">
        <ele>52.40000152587890625</ele>
        <time>2022-11-01T08:53:34.000Z</time>
      </trkpt>
      <trkpt lat="42.47883408330380916595458984375" lon="-8.6539859510958194732666015625">
        <ele>51.799999237060546875</ele>
        <time>2022-11-01T08:53:35.000Z</time>
      </trkpt>
      <trkpt lat="42.478720508515834808349609375" lon="-8.653880842030048370361328125">
        <ele>51</ele>
        <time>2022-11-01T08:53:36.000Z</time>
      </trkpt>
      <trkpt lat="42.47863107360899448394775390625" lon="-8.65378973074257373809814453125">
        <ele>49.799999237060546875</ele>
        <time>2022-11-01T08:53:37.000Z</time>
      </trkpt>
      <trkpt lat="42.47852160595357418060302734375" lon="-8.6536744795739650726318359375">
        <ele>49.40000152587890625</ele>
        <time>2022-11-01T08:53:38.000Z</time>
      </trkpt>
      <trkpt lat="42.4783890880644321441650390625" lon="-8.65353559143841266632080078125">
        <ele>47.799999237060546875</ele>
        <time>2022-11-01T08:53:39.000Z</time>
      </trkpt>
      <trkpt lat="42.47827492654323577880859375" lon="-8.6534176580607891082763671875">
        <ele>47</ele>
        <time>2022-11-01T08:53:40.000Z</time>
      </trkpt>
      <trkpt lat="42.47816017828881740570068359375" lon="-8.65329888649284839630126953125">
        <ele>45.799999237060546875</ele>
        <time>2022-11-01T08:53:41.000Z</time>
      </trkpt>
      <trkpt lat="42.478044927120208740234375" lon="-8.65317801944911479949951171875">
        <ele>45</ele>
        <time>2022-11-01T08:53:42.000Z</time>
      </trkpt>
      <trkpt lat="42.47793017886579036712646484375" lon="-8.6530565656721591949462890625">
        <ele>43.799999237060546875</ele>
        <time>2022-11-01T08:53:43.000Z</time>
      </trkpt>
      <trkpt lat="42.47781584970653057098388671875" lon="-8.6529351957142353057861328125">
        <ele>43.200000762939453125</ele>
        <time>2022-11-01T08:53:44.000Z</time>
      </trkpt>
      <trkpt lat="42.47770219109952449798583984375" lon="-8.652815334498882293701171875">
        <ele>42.200000762939453125</ele>
        <time>2022-11-01T08:53:45.000Z</time>
      </trkpt>
      <trkpt lat="42.47758786194026470184326171875" lon="-8.65269606001675128936767578125">
        <ele>41.200000762939453125</ele>
        <time>2022-11-01T08:53:46.000Z</time>
      </trkpt>
      <trkpt lat="42.47747361660003662109375" lon="-8.6525796353816986083984375">
        <ele>39.200000762939453125</ele>
        <time>2022-11-01T08:53:47.000Z</time>
      </trkpt>
      <trkpt lat="42.47738217003643512725830078125" lon="-8.652491457760334014892578125">
        <ele>38</ele>
        <time>2022-11-01T08:53:48.000Z</time>
      </trkpt>
      <trkpt lat="42.4772421084344387054443359375" lon="-8.652369081974029541015625">
        <ele>37.59999847412109375</ele>
        <time>2022-11-01T08:53:49.000Z</time>
      </trkpt>
      <trkpt lat="42.4771230854094028472900390625" lon="-8.65227520465850830078125">
        <ele>36.799999237060546875</ele>
        <time>2022-11-01T08:53:50.000Z</time>
      </trkpt>
      <trkpt lat="42.477002553641796112060546875" lon="-8.6521880328655242919921875">
        <ele>35.799999237060546875</ele>
        <time>2022-11-01T08:53:51.000Z</time>
      </trkpt>
      <trkpt lat="42.4768803454935550689697265625" lon="-8.65210915915668010711669921875">
        <ele>35</ele>
        <time>2022-11-01T08:53:52.000Z</time>
      </trkpt>
      <trkpt lat="42.4767562933266162872314453125" lon="-8.652034141123294830322265625">
        <ele>34.59999847412109375</ele>
        <time>2022-11-01T08:53:53.000Z</time>
      </trkpt>
      <trkpt lat="42.4766332469880580902099609375" lon="-8.65196197293698787689208984375">
        <ele>34</ele>
        <time>2022-11-01T08:53:54.000Z</time>
      </trkpt>
      <trkpt lat="42.4765098653733730316162109375" lon="-8.65189759992063045501708984375">
        <ele>33.799999237060546875</ele>
        <time>2022-11-01T08:53:55.000Z</time>
      </trkpt>
      <trkpt lat="42.47638857923448085784912109375" lon="-8.65183926187455654144287109375">
        <ele>33.40000152587890625</ele>
        <time>2022-11-01T08:53:56.000Z</time>
      </trkpt>
      <trkpt lat="42.47626754455268383026123046875" lon="-8.65178377367556095123291015625">
        <ele>33.40000152587890625</ele>
        <time>2022-11-01T08:53:57.000Z</time>
      </trkpt>
      <trkpt lat="42.47616914100944995880126953125" lon="-8.65173901431262493133544921875">
        <ele>33</ele>
        <time>2022-11-01T08:53:58.000Z</time>
      </trkpt>
      <trkpt lat="42.4760475195944309234619140625" lon="-8.651686124503612518310546875">
        <ele>32.59999847412109375</ele>
        <time>2022-11-01T08:53:59.000Z</time>
      </trkpt>
      <trkpt lat="42.4759010039269924163818359375" lon="-8.65161948837339878082275390625">
        <ele>32.40000152587890625</ele>
        <time>2022-11-01T08:54:00.000Z</time>
      </trkpt>
      <trkpt lat="42.47577753849327564239501953125" lon="-8.6515662632882595062255859375">
        <ele>32.200000762939453125</ele>
        <time>2022-11-01T08:54:01.000Z</time>
      </trkpt>
      <trkpt lat="42.475656084716320037841796875" lon="-8.65151412785053253173828125">
        <ele>32</ele>
        <time>2022-11-01T08:54:02.000Z</time>
      </trkpt>
      <trkpt lat="42.47555659152567386627197265625" lon="-8.65147531963884830474853515625">
        <ele>31.6000003814697265625</ele>
        <time>2022-11-01T08:54:03.000Z</time>
      </trkpt>
      <trkpt lat="42.47543505392968654632568359375" lon="-8.65143366158008575439453125">
        <ele>31.200000762939453125</ele>
        <time>2022-11-01T08:54:04.000Z</time>
      </trkpt>
      <trkpt lat="42.475286610424518585205078125" lon="-8.651387393474578857421875">
        <ele>30.6000003814697265625</ele>
        <time>2022-11-01T08:54:05.000Z</time>
      </trkpt>
      <trkpt lat="42.475161217153072357177734375" lon="-8.65135596133768558502197265625">
        <ele>30.200000762939453125</ele>
        <time>2022-11-01T08:54:06.000Z</time>
      </trkpt>
      <trkpt lat="42.47503272257745265960693359375" lon="-8.651332743465900421142578125">
        <ele>29.6000003814697265625</ele>
        <time>2022-11-01T08:54:07.000Z</time>
      </trkpt>
      <trkpt lat="42.47490464709699153900146484375" lon="-8.65132109262049198150634765625">
        <ele>29.200000762939453125</ele>
        <time>2022-11-01T08:54:08.000Z</time>
      </trkpt>
      <trkpt lat="42.47478009201586246490478515625" lon="-8.6513195000588893890380859375">
        <ele>28.6000003814697265625</ele>
        <time>2022-11-01T08:54:09.000Z</time>
      </trkpt>
      <trkpt lat="42.47465620748698711395263671875" lon="-8.65132033824920654296875">
        <ele>28</ele>
        <time>2022-11-01T08:54:10.000Z</time>
      </trkpt>
      <trkpt lat="42.47453349642455577850341796875" lon="-8.65132377482950687408447265625">
        <ele>27.799999237060546875</ele>
        <time>2022-11-01T08:54:11.000Z</time>
      </trkpt>
      <trkpt lat="42.4744100309908390045166015625" lon="-8.65132863633334636688232421875">
        <ele>27.6000003814697265625</ele>
        <time>2022-11-01T08:54:12.000Z</time>
      </trkpt>
      <trkpt lat="42.4742859788239002227783203125" lon="-8.65134020335972309112548828125">
        <ele>27.3999996185302734375</ele>
        <time>2022-11-01T08:54:13.000Z</time>
      </trkpt>
      <trkpt lat="42.474161423742771148681640625" lon="-8.65135679952800273895263671875">
        <ele>27</ele>
        <time>2022-11-01T08:54:14.000Z</time>
      </trkpt>
      <trkpt lat="42.4740378744900226593017578125" lon="-8.6513748206198215484619140625">
        <ele>26.799999237060546875</ele>
        <time>2022-11-01T08:54:15.000Z</time>
      </trkpt>
      <trkpt lat="42.47391474433243274688720703125" lon="-8.65139384754002094268798828125">
        <ele>26.3999996185302734375</ele>
        <time>2022-11-01T08:54:16.000Z</time>
      </trkpt>
      <trkpt lat="42.4737914465367794036865234375" lon="-8.65140943787992000579833984375">
        <ele>26.200000762939453125</ele>
        <time>2022-11-01T08:54:17.000Z</time>
      </trkpt>
      <trkpt lat="42.473692707717418670654296875" lon="-8.65141999907791614532470703125">
        <ele>25.799999237060546875</ele>
        <time>2022-11-01T08:54:18.000Z</time>
      </trkpt>
      <trkpt lat="42.47354485094547271728515625" lon="-8.65142829716205596923828125">
        <ele>25.6000003814697265625</ele>
        <time>2022-11-01T08:54:19.000Z</time>
      </trkpt>
      <trkpt lat="42.47342239134013652801513671875" lon="-8.65142972208559513092041015625">
        <ele>24.6000003814697265625</ele>
        <time>2022-11-01T08:54:20.000Z</time>
      </trkpt>
      <trkpt lat="42.473299093544483184814453125" lon="-8.65142159163951873779296875">
        <ele>24.200000762939453125</ele>
        <time>2022-11-01T08:54:21.000Z</time>
      </trkpt>
      <trkpt lat="42.47317814268171787261962890625" lon="-8.65140792913734912872314453125">
        <ele>24</ele>
        <time>2022-11-01T08:54:22.000Z</time>
      </trkpt>
      <trkpt lat="42.47305626980960369110107421875" lon="-8.65138269960880279541015625">
        <ele>23.200000762939453125</ele>
        <time>2022-11-01T08:54:23.000Z</time>
      </trkpt>
      <trkpt lat="42.47293674387037754058837890625" lon="-8.65134439431130886077880859375">
        <ele>22.799999237060546875</ele>
        <time>2022-11-01T08:54:24.000Z</time>
      </trkpt>
      <trkpt lat="42.47281797230243682861328125" lon="-8.6513002216815948486328125">
        <ele>22.200000762939453125</ele>
        <time>2022-11-01T08:54:25.000Z</time>
      </trkpt>
      <trkpt lat="42.4727017991244792938232421875" lon="-8.65124858915805816650390625">
        <ele>22</ele>
        <time>2022-11-01T08:54:26.000Z</time>
      </trkpt>
      <trkpt lat="42.47258721850812435150146484375" lon="-8.6511887423694133758544921875">
        <ele>21.6000003814697265625</ele>
        <time>2022-11-01T08:54:27.000Z</time>
      </trkpt>
      <trkpt lat="42.47247322462499141693115234375" lon="-8.65112244151532649993896484375">
        <ele>21.3999996185302734375</ele>
        <time>2022-11-01T08:54:28.000Z</time>
      </trkpt>
      <trkpt lat="42.4723599851131439208984375" lon="-8.65105144679546356201171875">
        <ele>20.799999237060546875</ele>
        <time>2022-11-01T08:54:29.000Z</time>
      </trkpt>
      <trkpt lat="42.4722471646964550018310546875" lon="-8.65097542293369770050048828125">
        <ele>20.3999996185302734375</ele>
        <time>2022-11-01T08:54:30.000Z</time>
      </trkpt>
      <trkpt lat="42.47213669121265411376953125" lon="-8.65089696832001209259033203125">
        <ele>20</ele>
        <time>2022-11-01T08:54:31.000Z</time>
      </trkpt>
      <trkpt lat="42.4720262177288532257080078125" lon="-8.65081935189664363861083984375">
        <ele>19.799999237060546875</ele>
        <time>2022-11-01T08:54:32.000Z</time>
      </trkpt>
      <trkpt lat="42.4719149060547351837158203125" lon="-8.6507423222064971923828125">
        <ele>19.3999996185302734375</ele>
        <time>2022-11-01T08:54:33.000Z</time>
      </trkpt>
      <trkpt lat="42.4718035943806171417236328125" lon="-8.65066562779247760772705078125">
        <ele>18.6000003814697265625</ele>
        <time>2022-11-01T08:54:34.000Z</time>
      </trkpt>
      <trkpt lat="42.47169144451618194580078125" lon="-8.65058901719748973846435546875">
        <ele>18.200000762939453125</ele>
        <time>2022-11-01T08:54:35.000Z</time>
      </trkpt>
      <trkpt lat="42.471578456461429595947265625" lon="-8.6505145020782947540283203125">
        <ele>17.799999237060546875</ele>
        <time>2022-11-01T08:54:36.000Z</time>
      </trkpt>
      <trkpt lat="42.4714847467839717864990234375" lon="-8.65045876242220401763916015625">
        <ele>17.200000762939453125</ele>
        <time>2022-11-01T08:54:37.000Z</time>
      </trkpt>
      <trkpt lat="42.471345104277133941650390625" lon="-8.6503829061985015869140625">
        <ele>16.3999996185302734375</ele>
        <time>2022-11-01T08:54:38.000Z</time>
      </trkpt>
      <trkpt lat="42.47122465632855892181396484375" lon="-8.65033102221786975860595703125">
        <ele>16</ele>
        <time>2022-11-01T08:54:39.000Z</time>
      </trkpt>
      <trkpt lat="42.47110060416162014007568359375" lon="-8.65028995089232921600341796875">
        <ele>15.19999980926513671875</ele>
        <time>2022-11-01T08:54:40.000Z</time>
      </trkpt>
      <trkpt lat="42.47099985368549823760986328125" lon="-8.6502647213637828826904296875">
        <ele>14.80000019073486328125</ele>
        <time>2022-11-01T08:54:41.000Z</time>
      </trkpt>
      <trkpt lat="42.4708725325763225555419921875" lon="-8.65023680962622165679931640625">
        <ele>14</ele>
        <time>2022-11-01T08:54:42.000Z</time>
      </trkpt>
      <trkpt lat="42.47074604965746402740478515625" lon="-8.65021585486829280853271484375">
        <ele>13</ele>
        <time>2022-11-01T08:54:43.000Z</time>
      </trkpt>
      <trkpt lat="42.47059500776231288909912109375" lon="-8.65020227618515491485595703125">
        <ele>12.6000003814697265625</ele>
        <time>2022-11-01T08:54:44.000Z</time>
      </trkpt>
      <trkpt lat="42.470470033586025238037109375" lon="-8.65020445547997951507568359375">
        <ele>11.80000019073486328125</ele>
        <time>2022-11-01T08:54:45.000Z</time>
      </trkpt>
      <trkpt lat="42.47034690342843532562255859375" lon="-8.6502191238105297088623046875">
        <ele>11.6000003814697265625</ele>
        <time>2022-11-01T08:54:46.000Z</time>
      </trkpt>
      <trkpt lat="42.47025101445615291595458984375" lon="-8.6502382345497608184814453125">
        <ele>11</ele>
        <time>2022-11-01T08:54:47.000Z</time>
      </trkpt>
      <trkpt lat="42.4701315723359584808349609375" lon="-8.65026061423122882843017578125">
        <ele>10.6000003814697265625</ele>
        <time>2022-11-01T08:54:48.000Z</time>
      </trkpt>
      <trkpt lat="42.46998849324882030487060546875" lon="-8.65028810687363147735595703125">
        <ele>10</ele>
        <time>2022-11-01T08:54:49.000Z</time>
      </trkpt>
      <trkpt lat="42.46987156569957733154296875" lon="-8.6503146775066852569580078125">
        <ele>9.80000019073486328125</ele>
        <time>2022-11-01T08:54:50.000Z</time>
      </trkpt>
      <trkpt lat="42.46975581161677837371826171875" lon="-8.65034401416778564453125">
        <ele>9.6000003814697265625</ele>
        <time>2022-11-01T08:54:51.000Z</time>
      </trkpt>
      <trkpt lat="42.4696670472621917724609375" lon="-8.65037209354341030120849609375">
        <ele>9.3999996185302734375</ele>
        <time>2022-11-01T08:54:52.000Z</time>
      </trkpt>
      <trkpt lat="42.4695528857409954071044921875" lon="-8.6504055373370647430419921875">
        <ele>9.19999980926513671875</ele>
        <time>2022-11-01T08:54:53.000Z</time>
      </trkpt>
      <trkpt lat="42.4694194458425045013427734375" lon="-8.6504484526813030242919921875">
        <ele>9</ele>
        <time>2022-11-01T08:54:54.000Z</time>
      </trkpt>
      <trkpt lat="42.46930905617773532867431640625" lon="-8.65048541687428951263427734375">
        <ele>8.80000019073486328125</ele>
        <time>2022-11-01T08:54:55.000Z</time>
      </trkpt>
      <trkpt lat="42.469200678169727325439453125" lon="-8.65052548237144947052001953125">
        <ele>8.80000019073486328125</ele>
        <time>2022-11-01T08:54:56.000Z</time>
      </trkpt>
      <trkpt lat="42.4691133387386798858642578125" lon="-8.6505570821464061737060546875">
        <ele>8.6000003814697265625</ele>
        <time>2022-11-01T08:54:57.000Z</time>
      </trkpt>
      <trkpt lat="42.4689822457730770111083984375" lon="-8.650604188442230224609375">
        <ele>8.3999996185302734375</ele>
        <time>2022-11-01T08:54:58.000Z</time>
      </trkpt>
      <trkpt lat="42.46887403540313243865966796875" lon="-8.65064484067261219024658203125">
        <ele>8.19999980926513671875</ele>
        <time>2022-11-01T08:54:59.000Z</time>
      </trkpt>
      <trkpt lat="42.4687653221189975738525390625" lon="-8.650682978332042694091796875">
        <ele>8</ele>
        <time>2022-11-01T08:55:00.000Z</time>
      </trkpt>
      <trkpt lat="42.4686774797737598419189453125" lon="-8.65071323700249195098876953125">
        <ele>8</ele>
        <time>2022-11-01T08:55:01.000Z</time>
      </trkpt>
      <trkpt lat="42.4685691855847835540771484375" lon="-8.6507505364716053009033203125">
        <ele>7.80000019073486328125</ele>
        <time>2022-11-01T08:55:02.000Z</time>
      </trkpt>
      <trkpt lat="42.46846139430999755859375" lon="-8.65078716538846492767333984375">
        <ele>7.599999904632568359375</ele>
        <time>2022-11-01T08:55:03.000Z</time>
      </trkpt>
      <trkpt lat="42.4683559499680995941162109375" lon="-8.6508273147046566009521484375">
        <ele>7.19999980926513671875</ele>
        <time>2022-11-01T08:55:04.000Z</time>
      </trkpt>
      <trkpt lat="42.4682285450398921966552734375" lon="-8.6508764326572418212890625">
        <ele>6.80000019073486328125</ele>
        <time>2022-11-01T08:55:05.000Z</time>
      </trkpt>
      <trkpt lat="42.4681443907320499420166015625" lon="-8.6509067751467227935791015625">
        <ele>6.599999904632568359375</ele>
        <time>2022-11-01T08:55:06.000Z</time>
      </trkpt>
      <trkpt lat="42.4680391140282154083251953125" lon="-8.65094172768294811248779296875">
        <ele>6.400000095367431640625</ele>
        <time>2022-11-01T08:55:07.000Z</time>
      </trkpt>
      <trkpt lat="42.4679331667721271514892578125" lon="-8.65097642876207828521728515625">
        <ele>6.400000095367431640625</ele>
        <time>2022-11-01T08:55:08.000Z</time>
      </trkpt>
      <trkpt lat="42.46780668385326862335205078125" lon="-8.6510174162685871124267578125">
        <ele>6.19999980926513671875</ele>
        <time>2022-11-01T08:55:09.000Z</time>
      </trkpt>
      <trkpt lat="42.46770392172038555145263671875" lon="-8.65105370990931987762451171875">
        <ele>6.19999980926513671875</ele>
        <time>2022-11-01T08:55:10.000Z</time>
      </trkpt>
      <trkpt lat="42.4676009081304073333740234375" lon="-8.65108899772167205810546875">
        <ele>6</ele>
        <time>2022-11-01T08:55:11.000Z</time>
      </trkpt>
      <trkpt lat="42.46751792728900909423828125" lon="-8.651114813983440399169921875">
        <ele>6</ele>
        <time>2022-11-01T08:55:12.000Z</time>
      </trkpt>
      <trkpt lat="42.4674175120890140533447265625" lon="-8.6511485092341899871826171875">
        <ele>5.80000019073486328125</ele>
        <time>2022-11-01T08:55:13.000Z</time>
      </trkpt>
      <trkpt lat="42.46731701306998729705810546875" lon="-8.65118061192333698272705078125">
        <ele>5.80000019073486328125</ele>
        <time>2022-11-01T08:55:14.000Z</time>
      </trkpt>
      <trkpt lat="42.46721710078418254852294921875" lon="-8.651213385164737701416015625">
        <ele>5.599999904632568359375</ele>
        <time>2022-11-01T08:55:15.000Z</time>
      </trkpt>
      <trkpt lat="42.467118613421916961669921875" lon="-8.651248253881931304931640625">
        <ele>5.599999904632568359375</ele>
        <time>2022-11-01T08:55:16.000Z</time>
      </trkpt>
      <trkpt lat="42.46702096424996852874755859375" lon="-8.651281781494617462158203125">
        <ele>5.599999904632568359375</ele>
        <time>2022-11-01T08:55:17.000Z</time>
      </trkpt>
      <trkpt lat="42.46692490763962268829345703125" lon="-8.65131120197474956512451171875">
        <ele>5.400000095367431640625</ele>
        <time>2022-11-01T08:55:18.000Z</time>
      </trkpt>
      <trkpt lat="42.4668292701244354248046875" lon="-8.65134003572165966033935546875">
        <ele>5.400000095367431640625</ele>
        <time>2022-11-01T08:55:19.000Z</time>
      </trkpt>
      <trkpt lat="42.46673597954213619232177734375" lon="-8.6513721384108066558837890625">
        <ele>5.400000095367431640625</ele>
        <time>2022-11-01T08:55:20.000Z</time>
      </trkpt>
      <trkpt lat="42.4666281044483184814453125" lon="-8.65142016671597957611083984375">
        <ele>5.400000095367431640625</ele>
        <time>2022-11-01T08:55:21.000Z</time>
      </trkpt>
      <trkpt lat="42.4665369093418121337890625" lon="-8.65146174095571041107177734375">
        <ele>5.400000095367431640625</ele>
        <time>2022-11-01T08:55:22.000Z</time>
      </trkpt>
      <trkpt lat="42.46644529514014720916748046875" lon="-8.6515002138912677764892578125">
        <ele>5.400000095367431640625</ele>
        <time>2022-11-01T08:55:23.000Z</time>
      </trkpt>
      <trkpt lat="42.466363571584224700927734375" lon="-8.651539273560047149658203125">
        <ele>5.400000095367431640625</ele>
        <time>2022-11-01T08:55:24.000Z</time>
      </trkpt>
      <trkpt lat="42.46628738008439540863037109375" lon="-8.6515746451914310455322265625">
        <ele>5.400000095367431640625</ele>
        <time>2022-11-01T08:55:25.000Z</time>
      </trkpt>
      <trkpt lat="42.466205656528472900390625" lon="-8.65160456858575344085693359375">
        <ele>5.400000095367431640625</ele>
        <time>2022-11-01T08:55:26.000Z</time>
      </trkpt>
      <trkpt lat="42.466123513877391815185546875" lon="-8.65163340233266353607177734375">
        <ele>5.400000095367431640625</ele>
        <time>2022-11-01T08:55:27.000Z</time>
      </trkpt>
      <trkpt lat="42.4660623259842395782470703125" lon="-8.65165938623249530792236328125">
        <ele>5.599999904632568359375</ele>
        <time>2022-11-01T08:55:28.000Z</time>
      </trkpt>
      <trkpt lat="42.46598697267472743988037109375" lon="-8.6516918241977691650390625">
        <ele>5.599999904632568359375</ele>
        <time>2022-11-01T08:55:29.000Z</time>
      </trkpt>
      <trkpt lat="42.4658960290253162384033203125" lon="-8.65172979421913623809814453125">
        <ele>5.80000019073486328125</ele>
        <time>2022-11-01T08:55:30.000Z</time>
      </trkpt>
      <trkpt lat="42.46582210063934326171875" lon="-8.65175946615636348724365234375">
        <ele>5.80000019073486328125</ele>
        <time>2022-11-01T08:55:31.000Z</time>
      </trkpt>
      <trkpt lat="42.46575043536722660064697265625" lon="-8.65179215557873249053955078125">
        <ele>6</ele>
        <time>2022-11-01T08:55:32.000Z</time>
      </trkpt>
      <trkpt lat="42.4656831286847591400146484375" lon="-8.65183188579976558685302734375">
        <ele>6.400000095367431640625</ele>
        <time>2022-11-01T08:55:33.000Z</time>
      </trkpt>
      <trkpt lat="42.4656190909445285797119140625" lon="-8.6518760584294795989990234375">
        <ele>6.599999904632568359375</ele>
        <time>2022-11-01T08:55:34.000Z</time>
      </trkpt>
      <trkpt lat="42.46555631048977375030517578125" lon="-8.65191888995468616485595703125">
        <ele>6.80000019073486328125</ele>
        <time>2022-11-01T08:55:35.000Z</time>
      </trkpt>
      <trkpt lat="42.46549596078693866729736328125" lon="-8.65196398459374904632568359375">
        <ele>7</ele>
        <time>2022-11-01T08:55:36.000Z</time>
      </trkpt>
      <trkpt lat="42.46544918976724147796630859375" lon="-8.6519997753202915191650390625">
        <ele>7.80000019073486328125</ele>
        <time>2022-11-01T08:55:37.000Z</time>
      </trkpt>
      <trkpt lat="42.4653904326260089874267578125" lon="-8.6520436964929103851318359375">
        <ele>8</ele>
        <time>2022-11-01T08:55:38.000Z</time>
      </trkpt>
      <trkpt lat="42.4653203599154949188232421875" lon="-8.65209759213030338287353515625">
        <ele>8.3999996185302734375</ele>
        <time>2022-11-01T08:55:39.000Z</time>
      </trkpt>
      <trkpt lat="42.46526311151683330535888671875" lon="-8.65214218385517597198486328125">
        <ele>8.6000003814697265625</ele>
        <time>2022-11-01T08:55:40.000Z</time>
      </trkpt>
      <trkpt lat="42.4652063660323619842529296875" lon="-8.65218241699039936065673828125">
        <ele>8.80000019073486328125</ele>
        <time>2022-11-01T08:55:41.000Z</time>
      </trkpt>
      <trkpt lat="42.46516118757426738739013671875" lon="-8.6522136814892292022705078125">
        <ele>9</ele>
        <time>2022-11-01T08:55:42.000Z</time>
      </trkpt>
      <trkpt lat="42.46510620228946208953857421875" lon="-8.65225483663380146026611328125">
        <ele>9</ele>
        <time>2022-11-01T08:55:43.000Z</time>
      </trkpt>
      <trkpt lat="42.46505004353821277618408203125" lon="-8.65229657851159572601318359375">
        <ele>9.3999996185302734375</ele>
        <time>2022-11-01T08:55:44.000Z</time>
      </trkpt>
      <trkpt lat="42.46499539352953433990478515625" lon="-8.65233697928488254547119140625">
        <ele>9.6000003814697265625</ele>
        <time>2022-11-01T08:55:45.000Z</time>
      </trkpt>
      <trkpt lat="42.4649294279515743255615234375" lon="-8.65238425321877002716064453125">
        <ele>10.19999980926513671875</ele>
        <time>2022-11-01T08:55:46.000Z</time>
      </trkpt>
      <trkpt lat="42.4648757837712764739990234375" lon="-8.65242473781108856201171875">
        <ele>10.3999996185302734375</ele>
        <time>2022-11-01T08:55:47.000Z</time>
      </trkpt>
      <trkpt lat="42.46483379043638706207275390625" lon="-8.65245558321475982666015625">
        <ele>10.80000019073486328125</ele>
        <time>2022-11-01T08:55:48.000Z</time>
      </trkpt>
      <trkpt lat="42.46478115208446979522705078125" lon="-8.65249288268387317657470703125">
        <ele>10.80000019073486328125</ele>
        <time>2022-11-01T08:55:49.000Z</time>
      </trkpt>
      <trkpt lat="42.4647183716297149658203125" lon="-8.65253881551325321197509765625">
        <ele>11</ele>
        <time>2022-11-01T08:55:50.000Z</time>
      </trkpt>
      <trkpt lat="42.4646675772964954376220703125" lon="-8.65257770754396915435791015625">
        <ele>11.19999980926513671875</ele>
        <time>2022-11-01T08:55:51.000Z</time>
      </trkpt>
      <trkpt lat="42.46461887843906879425048828125" lon="-8.65261517465114593505859375">
        <ele>11.3999996185302734375</ele>
        <time>2022-11-01T08:55:52.000Z</time>
      </trkpt>
      <trkpt lat="42.4645837582647800445556640625" lon="-8.65264459513127803802490234375">
        <ele>11.3999996185302734375</ele>
        <time>2022-11-01T08:55:53.000Z</time>
      </trkpt>
      <trkpt lat="42.46454360894858837127685546875" lon="-8.652681224048137664794921875">
        <ele>11.3999996185302734375</ele>
        <time>2022-11-01T08:55:54.000Z</time>
      </trkpt>
      <trkpt lat="42.4644985981285572052001953125" lon="-8.65272246301174163818359375">
        <ele>11.80000019073486328125</ele>
        <time>2022-11-01T08:55:55.000Z</time>
      </trkpt>
      <trkpt lat="42.46446046046912670135498046875" lon="-8.65275305695831775665283203125">
        <ele>12.19999980926513671875</ele>
        <time>2022-11-01T08:55:56.000Z</time>
      </trkpt>
      <trkpt lat="42.46442810632288455963134765625" lon="-8.6527732573449611663818359375">
        <ele>12.19999980926513671875</ele>
        <time>2022-11-01T08:55:57.000Z</time>
      </trkpt>
      <trkpt lat="42.4643859453499317169189453125" lon="-8.6527943797409534454345703125">
        <ele>12.19999980926513671875</ele>
        <time>2022-11-01T08:55:58.000Z</time>
      </trkpt>
      <trkpt lat="42.4643440358340740203857421875" lon="-8.65281625650823116302490234375">
        <ele>12.3999996185302734375</ele>
        <time>2022-11-01T08:55:59.000Z</time>
      </trkpt>
      <trkpt lat="42.46430271305143833160400390625" lon="-8.65284274332225322723388671875">
        <ele>12.80000019073486328125</ele>
        <time>2022-11-01T08:56:00.000Z</time>
      </trkpt>
      <trkpt lat="42.4642508290708065032958984375" lon="-8.65287979133427143096923828125">
        <ele>13</ele>
        <time>2022-11-01T08:56:01.000Z</time>
      </trkpt>
      <trkpt lat="42.4642059020698070526123046875" lon="-8.65291197784245014190673828125">
        <ele>13.19999980926513671875</ele>
        <time>2022-11-01T08:56:02.000Z</time>
      </trkpt>
      <trkpt lat="42.4641703628003597259521484375" lon="-8.65293997339904308319091796875">
        <ele>13.3999996185302734375</ele>
        <time>2022-11-01T08:56:03.000Z</time>
      </trkpt>
      <trkpt lat="42.46412367559969425201416015625" lon="-8.6529744230210781097412109375">
        <ele>13.6000003814697265625</ele>
        <time>2022-11-01T08:56:04.000Z</time>
      </trkpt>
      <trkpt lat="42.4640697799623012542724609375" lon="-8.653018176555633544921875">
        <ele>13.80000019073486328125</ele>
        <time>2022-11-01T08:56:05.000Z</time>
      </trkpt>
      <trkpt lat="42.46402493678033351898193359375" lon="-8.653053380548954010009765625">
        <ele>14</ele>
        <time>2022-11-01T08:56:06.000Z</time>
      </trkpt>
      <trkpt lat="42.46397967450320720672607421875" lon="-8.65308632142841815948486328125">
        <ele>14</ele>
        <time>2022-11-01T08:56:07.000Z</time>
      </trkpt>
      <trkpt lat="42.46394396759569644927978515625" lon="-8.65311264060437679290771484375">
        <ele>14</ele>
        <time>2022-11-01T08:56:08.000Z</time>
      </trkpt>
      <trkpt lat="42.46390038169920444488525390625" lon="-8.65314491093158721923828125">
        <ele>14.19999980926513671875</ele>
        <time>2022-11-01T08:56:09.000Z</time>
      </trkpt>
      <trkpt lat="42.4638481624424457550048828125" lon="-8.65318371914327144622802734375">
        <ele>14.19999980926513671875</ele>
        <time>2022-11-01T08:56:10.000Z</time>
      </trkpt>
      <trkpt lat="42.46380306780338287353515625" lon="-8.653216324746608734130859375">
        <ele>14.3999996185302734375</ele>
        <time>2022-11-01T08:56:11.000Z</time>
      </trkpt>
      <trkpt lat="42.46375939808785915374755859375" lon="-8.6532480083405971527099609375">
        <ele>14.80000019073486328125</ele>
        <time>2022-11-01T08:56:12.000Z</time>
      </trkpt>
      <trkpt lat="42.46372587047517299652099609375" lon="-8.653272651135921478271484375">
        <ele>14.80000019073486328125</ele>
        <time>2022-11-01T08:56:13.000Z</time>
      </trkpt>
      <trkpt lat="42.463674657046794891357421875" lon="-8.6533103697001934051513671875">
        <ele>15</ele>
        <time>2022-11-01T08:56:14.000Z</time>
      </trkpt>
      <trkpt lat="42.46363115496933460235595703125" lon="-8.6533418856561183929443359375">
        <ele>15.3999996185302734375</ele>
        <time>2022-11-01T08:56:15.000Z</time>
      </trkpt>
      <trkpt lat="42.46358656324446201324462890625" lon="-8.65337247960269451141357421875">
        <ele>15.3999996185302734375</ele>
        <time>2022-11-01T08:56:16.000Z</time>
      </trkpt>
      <trkpt lat="42.46354264207184314727783203125" lon="-8.6534030735492706298828125">
        <ele>15.3999996185302734375</ele>
        <time>2022-11-01T08:56:17.000Z</time>
      </trkpt>
      <trkpt lat="42.463507354259490966796875" lon="-8.6534267105162143707275390625">
        <ele>15.3999996185302734375</ele>
        <time>2022-11-01T08:56:18.000Z</time>
      </trkpt>
      <trkpt lat="42.46346284635365009307861328125" lon="-8.65345579572021961212158203125">
        <ele>15.80000019073486328125</ele>
        <time>2022-11-01T08:56:19.000Z</time>
      </trkpt>
      <trkpt lat="42.46340878307819366455078125" lon="-8.65348814986646175384521484375">
        <ele>15.80000019073486328125</ele>
        <time>2022-11-01T08:56:20.000Z</time>
      </trkpt>
      <trkpt lat="42.463362514972686767578125" lon="-8.653513379395008087158203125">
        <ele>16</ele>
        <time>2022-11-01T08:56:21.000Z</time>
      </trkpt>
      <trkpt lat="42.463317252695560455322265625" lon="-8.6535366810858249664306640625">
        <ele>16</ele>
        <time>2022-11-01T08:56:22.000Z</time>
      </trkpt>
      <trkpt lat="42.46328146196901798248291015625" lon="-8.65355797111988067626953125">
        <ele>16.3999996185302734375</ele>
        <time>2022-11-01T08:56:23.000Z</time>
      </trkpt>
      <trkpt lat="42.46323888190090656280517578125" lon="-8.65358504466712474822998046875">
        <ele>16.3999996185302734375</ele>
        <time>2022-11-01T08:56:24.000Z</time>
      </trkpt>
      <trkpt lat="42.463187165558338165283203125" lon="-8.6536149680614471435546875">
        <ele>17</ele>
        <time>2022-11-01T08:56:25.000Z</time>
      </trkpt>
      <trkpt lat="42.4631440825760364532470703125" lon="-8.65364111959934234619140625">
        <ele>17.200000762939453125</ele>
        <time>2022-11-01T08:56:26.000Z</time>
      </trkpt>
      <trkpt lat="42.463101334869861602783203125" lon="-8.6536677740514278411865234375">
        <ele>17.200000762939453125</ele>
        <time>2022-11-01T08:56:27.000Z</time>
      </trkpt>
      <trkpt lat="42.46305850334465503692626953125" lon="-8.6536939255893230438232421875">
        <ele>17.3999996185302734375</ele>
        <time>2022-11-01T08:56:28.000Z</time>
      </trkpt>
      <trkpt lat="42.46301583945751190185546875" lon="-8.6537200771272182464599609375">
        <ele>17.6000003814697265625</ele>
        <time>2022-11-01T08:56:29.000Z</time>
      </trkpt>
      <trkpt lat="42.46297250501811504364013671875" lon="-8.65374413318932056427001953125">
        <ele>17.799999237060546875</ele>
        <time>2022-11-01T08:56:30.000Z</time>
      </trkpt>
      <trkpt lat="42.46292975731194019317626953125" lon="-8.6537670157849788665771484375">
        <ele>17.799999237060546875</ele>
        <time>2022-11-01T08:56:31.000Z</time>
      </trkpt>
      <trkpt lat="42.4628864228725433349609375" lon="-8.65378771908581256866455078125">
        <ele>18.200000762939453125</ele>
        <time>2022-11-01T08:56:32.000Z</time>
      </trkpt>
      <trkpt lat="42.46284275315701961517333984375" lon="-8.653807751834392547607421875">
        <ele>18.200000762939453125</ele>
        <time>2022-11-01T08:56:33.000Z</time>
      </trkpt>
      <trkpt lat="42.462799251079559326171875" lon="-8.65382753312587738037109375">
        <ele>18.6000003814697265625</ele>
        <time>2022-11-01T08:56:34.000Z</time>
      </trkpt>
      <trkpt lat="42.46275625191628932952880859375" lon="-8.6538458056747913360595703125">
        <ele>18.6000003814697265625</ele>
        <time>2022-11-01T08:56:35.000Z</time>
      </trkpt>
      <trkpt lat="42.4627115763723850250244140625" lon="-8.65386064164340496063232421875">
        <ele>18.799999237060546875</ele>
        <time>2022-11-01T08:56:36.000Z</time>
      </trkpt>
      <trkpt lat="42.4626770429313182830810546875" lon="-8.653872124850749969482421875">
        <ele>19</ele>
        <time>2022-11-01T08:56:37.000Z</time>
      </trkpt>
      <trkpt lat="42.4626347981393337249755859375" lon="-8.6538860388100147247314453125">
        <ele>19.200000762939453125</ele>
        <time>2022-11-01T08:56:38.000Z</time>
      </trkpt>
      <trkpt lat="42.462590038776397705078125" lon="-8.65389718674123287200927734375">
        <ele>19.3999996185302734375</ele>
        <time>2022-11-01T08:56:39.000Z</time>
      </trkpt>
      <trkpt lat="42.46253765188157558441162109375" lon="-8.65391227416694164276123046875">
        <ele>19.3999996185302734375</ele>
        <time>2022-11-01T08:56:40.000Z</time>
      </trkpt>
      <trkpt lat="42.46249440126121044158935546875" lon="-8.6539252661168575286865234375">
        <ele>19.6000003814697265625</ele>
        <time>2022-11-01T08:56:41.000Z</time>
      </trkpt>
      <trkpt lat="42.4624594487249851226806640625" lon="-8.65393540821969509124755859375">
        <ele>19.799999237060546875</ele>
        <time>2022-11-01T08:56:42.000Z</time>
      </trkpt>
      <trkpt lat="42.4624178744852542877197265625" lon="-8.65394957363605499267578125">
        <ele>20</ele>
        <time>2022-11-01T08:56:43.000Z</time>
      </trkpt>
      <trkpt lat="42.46237554587423801422119140625" lon="-8.65396340377628803253173828125">
        <ele>20.200000762939453125</ele>
        <time>2022-11-01T08:56:44.000Z</time>
      </trkpt>
      <trkpt lat="42.4623263441026210784912109375" lon="-8.65399005822837352752685546875">
        <ele>20.3999996185302734375</ele>
        <time>2022-11-01T08:56:45.000Z</time>
      </trkpt>
      <trkpt lat="42.4622891284525394439697265625" lon="-8.654022999107837677001953125">
        <ele>20.6000003814697265625</ele>
        <time>2022-11-01T08:56:46.000Z</time>
      </trkpt>
      <trkpt lat="42.4622547626495361328125" lon="-8.65406130440533161163330078125">
        <ele>20.799999237060546875</ele>
        <time>2022-11-01T08:56:47.000Z</time>
      </trkpt>
      <trkpt lat="42.46222785674035549163818359375" lon="-8.65409307181835174560546875">
        <ele>21</ele>
        <time>2022-11-01T08:56:48.000Z</time>
      </trkpt>
      <trkpt lat="42.4621917307376861572265625" lon="-8.65413188003003597259521484375">
        <ele>21.200000762939453125</ele>
        <time>2022-11-01T08:56:49.000Z</time>
      </trkpt>
      <trkpt lat="42.4621463008224964141845703125" lon="-8.65417211316525936126708984375">
        <ele>21.3999996185302734375</ele>
        <time>2022-11-01T08:56:50.000Z</time>
      </trkpt>
      <trkpt lat="42.4621050618588924407958984375" lon="-8.65419692359864711761474609375">
        <ele>21.3999996185302734375</ele>
        <time>2022-11-01T08:56:51.000Z</time>
      </trkpt>
      <trkpt lat="42.46206231415271759033203125" lon="-8.65421150811016559600830078125">
        <ele>21.799999237060546875</ele>
        <time>2022-11-01T08:56:52.000Z</time>
      </trkpt>
      <trkpt lat="42.46202853508293628692626953125" lon="-8.65421452559530735015869140625">
        <ele>22</ele>
        <time>2022-11-01T08:56:53.000Z</time>
      </trkpt>
      <trkpt lat="42.46197539381682872772216796875" lon="-8.65420580841600894927978515625">
        <ele>22.3999996185302734375</ele>
        <time>2022-11-01T08:56:54.000Z</time>
      </trkpt>
      <trkpt lat="42.46193381957709789276123046875" lon="-8.65418560802936553955078125">
        <ele>22.6000003814697265625</ele>
        <time>2022-11-01T08:56:55.000Z</time>
      </trkpt>
      <trkpt lat="42.46189341880381107330322265625" lon="-8.65415853448212146759033203125">
        <ele>22.799999237060546875</ele>
        <time>2022-11-01T08:56:56.000Z</time>
      </trkpt>
      <trkpt lat="42.4618522636592388153076171875" lon="-8.654128946363925933837890625">
        <ele>23</ele>
        <time>2022-11-01T08:56:57.000Z</time>
      </trkpt>
      <trkpt lat="42.46181043796241283416748046875" lon="-8.654098100960254669189453125">
        <ele>23.200000762939453125</ele>
        <time>2022-11-01T08:56:58.000Z</time>
      </trkpt>
      <trkpt lat="42.46177724562585353851318359375" lon="-8.65407161414623260498046875">
        <ele>23.200000762939453125</ele>
        <time>2022-11-01T08:56:59.000Z</time>
      </trkpt>
      <trkpt lat="42.46172762475907802581787109375" lon="-8.654037415981292724609375">
        <ele>23.3999996185302734375</ele>
        <time>2022-11-01T08:57:00.000Z</time>
      </trkpt>
      <trkpt lat="42.46168521232903003692626953125" lon="-8.65401570685207843780517578125">
        <ele>23.6000003814697265625</ele>
        <time>2022-11-01T08:57:01.000Z</time>
      </trkpt>
      <trkpt lat="42.4616407044231891632080078125" lon="-8.6539990268647670745849609375">
        <ele>23.6000003814697265625</ele>
        <time>2022-11-01T08:57:02.000Z</time>
      </trkpt>
      <trkpt lat="42.46160508133471012115478515625" lon="-8.65398637019097805023193359375">
        <ele>24</ele>
        <time>2022-11-01T08:57:03.000Z</time>
      </trkpt>
      <trkpt lat="42.46156116016209125518798828125" lon="-8.6539742164313793182373046875">
        <ele>24</ele>
        <time>2022-11-01T08:57:04.000Z</time>
      </trkpt>
      <trkpt lat="42.46150801889598369598388671875" lon="-8.653959967195987701416015625">
        <ele>24.200000762939453125</ele>
        <time>2022-11-01T08:57:05.000Z</time>
      </trkpt>
      <trkpt lat="42.46146426536142826080322265625" lon="-8.653949908912181854248046875">
        <ele>24.3999996185302734375</ele>
        <time>2022-11-01T08:57:06.000Z</time>
      </trkpt>
      <trkpt lat="42.46141992509365081787109375" lon="-8.65393758751451969146728515625">
        <ele>24.3999996185302734375</ele>
        <time>2022-11-01T08:57:07.000Z</time>
      </trkpt>
      <trkpt lat="42.46138312853872776031494140625" lon="-8.653927110135555267333984375">
        <ele>24.6000003814697265625</ele>
        <time>2022-11-01T08:57:08.000Z</time>
      </trkpt>
      <trkpt lat="42.46133149601519107818603515625" lon="-8.6539155431091785430908203125">
        <ele>25</ele>
        <time>2022-11-01T08:57:09.000Z</time>
      </trkpt>
      <trkpt lat="42.46128673665225505828857421875" lon="-8.65390121005475521087646484375">
        <ele>25</ele>
        <time>2022-11-01T08:57:10.000Z</time>
      </trkpt>
      <trkpt lat="42.46124331839382648468017578125" lon="-8.65388561971485614776611328125">
        <ele>25.3999996185302734375</ele>
        <time>2022-11-01T08:57:11.000Z</time>
      </trkpt>
      <trkpt lat="42.46120073832571506500244140625" lon="-8.65387153811752796173095703125">
        <ele>25.799999237060546875</ele>
        <time>2022-11-01T08:57:12.000Z</time>
      </trkpt>
      <trkpt lat="42.461167462170124053955078125" lon="-8.65386349149048328399658203125">
        <ele>26</ele>
        <time>2022-11-01T08:57:13.000Z</time>
      </trkpt>
      <trkpt lat="42.46112228371202945709228515625" lon="-8.6538501642644405364990234375">
        <ele>26.3999996185302734375</ele>
        <time>2022-11-01T08:57:14.000Z</time>
      </trkpt>
      <trkpt lat="42.4610697291791439056396484375" lon="-8.6538347415626049041748046875">
        <ele>26.6000003814697265625</ele>
        <time>2022-11-01T08:57:15.000Z</time>
      </trkpt>
      <trkpt lat="42.46102756820619106292724609375" lon="-8.6538250185549259185791015625">
        <ele>26.799999237060546875</ele>
        <time>2022-11-01T08:57:16.000Z</time>
      </trkpt>
      <trkpt lat="42.460983060300350189208984375" lon="-8.6538122780621051788330078125">
        <ele>26.799999237060546875</ele>
        <time>2022-11-01T08:57:17.000Z</time>
      </trkpt>
      <trkpt lat="42.46093922294676303863525390625" lon="-8.65380113013088703155517578125">
        <ele>27</ele>
        <time>2022-11-01T08:57:18.000Z</time>
      </trkpt>
      <trkpt lat="42.460903935134410858154296875" lon="-8.6537881381809711456298828125">
        <ele>27</ele>
        <time>2022-11-01T08:57:19.000Z</time>
      </trkpt>
      <trkpt lat="42.4608506262302398681640625" lon="-8.65376726724207401275634765625">
        <ele>27.3999996185302734375</ele>
        <time>2022-11-01T08:57:20.000Z</time>
      </trkpt>
      <trkpt lat="42.4608062021434307098388671875" lon="-8.6537544429302215576171875">
        <ele>27.3999996185302734375</ele>
        <time>2022-11-01T08:57:21.000Z</time>
      </trkpt>
      <trkpt lat="42.4607629515230655670166015625" lon="-8.6537445522844791412353515625">
        <ele>27.799999237060546875</ele>
        <time>2022-11-01T08:57:22.000Z</time>
      </trkpt>
      <trkpt lat="42.460728250443935394287109375" lon="-8.65373524837195873260498046875">
        <ele>27.799999237060546875</ele>
        <time>2022-11-01T08:57:23.000Z</time>
      </trkpt>
      <trkpt lat="42.46068541891872882843017578125" lon="-8.6537220887839794158935546875">
        <ele>28</ele>
        <time>2022-11-01T08:57:24.000Z</time>
      </trkpt>
      <trkpt lat="42.4606348760426044464111328125" lon="-8.653706498444080352783203125">
        <ele>28</ele>
        <time>2022-11-01T08:57:25.000Z</time>
      </trkpt>
      <trkpt lat="42.46059087105095386505126953125" lon="-8.65369317121803760528564453125">
        <ele>28.200000762939453125</ele>
        <time>2022-11-01T08:57:26.000Z</time>
      </trkpt>
      <trkpt lat="42.46054820716381072998046875" lon="-8.6536838673055171966552734375">
        <ele>28.3999996185302734375</ele>
        <time>2022-11-01T08:57:27.000Z</time>
      </trkpt>
      <trkpt lat="42.46050487272441387176513671875" lon="-8.65367338992655277252197265625">
        <ele>28.3999996185302734375</ele>
        <time>2022-11-01T08:57:28.000Z</time>
      </trkpt>
      <trkpt lat="42.46046103537082672119140625" lon="-8.653663583099842071533203125">
        <ele>28.799999237060546875</ele>
        <time>2022-11-01T08:57:29.000Z</time>
      </trkpt>
      <trkpt lat="42.46041686274111270904541015625" lon="-8.653650842607021331787109375">
        <ele>29</ele>
        <time>2022-11-01T08:57:30.000Z</time>
      </trkpt>
      <trkpt lat="42.46037445031106472015380859375" lon="-8.65364204160869121551513671875">
        <ele>29.200000762939453125</ele>
        <time>2022-11-01T08:57:31.000Z</time>
      </trkpt>
      <trkpt lat="42.46033187024295330047607421875" lon="-8.65363164804875850677490234375">
        <ele>29.3999996185302734375</ele>
        <time>2022-11-01T08:57:32.000Z</time>
      </trkpt>
      <trkpt lat="42.46029700152575969696044921875" lon="-8.65362276323139667510986328125">
        <ele>29.6000003814697265625</ele>
        <time>2022-11-01T08:57:33.000Z</time>
      </trkpt>
      <trkpt lat="42.460245788097381591796875" lon="-8.65361027419567108154296875">
        <ele>29.799999237060546875</ele>
        <time>2022-11-01T08:57:34.000Z</time>
      </trkpt>
      <trkpt lat="42.4602037109434604644775390625" lon="-8.65359677933156490325927734375">
        <ele>30</ele>
        <time>2022-11-01T08:57:35.000Z</time>
      </trkpt>
      <trkpt lat="42.4601597897708415985107421875" lon="-8.6535800993442535400390625">
        <ele>30.3999996185302734375</ele>
        <time>2022-11-01T08:57:36.000Z</time>
      </trkpt>
      <trkpt lat="42.46011578477919101715087890625" lon="-8.65356559865176677703857421875">
        <ele>30.3999996185302734375</ele>
        <time>2022-11-01T08:57:37.000Z</time>
      </trkpt>
      <trkpt lat="42.4600799940526485443115234375" lon="-8.65355269052088260650634765625">
        <ele>30.6000003814697265625</ele>
        <time>2022-11-01T08:57:38.000Z</time>
      </trkpt>
      <trkpt lat="42.46002710424363613128662109375" lon="-8.6535376869142055511474609375">
        <ele>31</ele>
        <time>2022-11-01T08:57:39.000Z</time>
      </trkpt>
      <trkpt lat="42.4599815905094146728515625" lon="-8.65352285094559192657470703125">
        <ele>31.3999996185302734375</ele>
        <time>2022-11-01T08:57:40.000Z</time>
      </trkpt>
      <trkpt lat="42.45993557386100292205810546875" lon="-8.65350491367280483245849609375">
        <ele>31.3999996185302734375</ele>
        <time>2022-11-01T08:57:41.000Z</time>
      </trkpt>
      <trkpt lat="42.45988980866968631744384765625" lon="-8.6534887365996837615966796875">
        <ele>31.6000003814697265625</ele>
        <time>2022-11-01T08:57:42.000Z</time>
      </trkpt>
      <trkpt lat="42.45985594578087329864501953125" lon="-8.65348018705844879150390625">
        <ele>31.799999237060546875</ele>
        <time>2022-11-01T08:57:43.000Z</time>
      </trkpt>
      <trkpt lat="42.45980984531342983245849609375" lon="-8.6534659378230571746826171875">
        <ele>32</ele>
        <time>2022-11-01T08:57:44.000Z</time>
      </trkpt>
      <trkpt lat="42.4597541056573390960693359375" lon="-8.65344506688416004180908203125">
        <ele>32.200000762939453125</ele>
        <time>2022-11-01T08:57:45.000Z</time>
      </trkpt>
      <trkpt lat="42.4597068317234516143798828125" lon="-8.653428889811038970947265625">
        <ele>32.40000152587890625</ele>
        <time>2022-11-01T08:57:46.000Z</time>
      </trkpt>
      <trkpt lat="42.45966098271310329437255859375" lon="-8.65341640077531337738037109375">
        <ele>32.59999847412109375</ele>
        <time>2022-11-01T08:57:47.000Z</time>
      </trkpt>
      <trkpt lat="42.45961488224565982818603515625" lon="-8.6534005589783191680908203125">
        <ele>32.59999847412109375</ele>
        <time>2022-11-01T08:57:48.000Z</time>
      </trkpt>
      <trkpt lat="42.45957858860492706298828125" lon="-8.65338672883808612823486328125">
        <ele>33</ele>
        <time>2022-11-01T08:57:49.000Z</time>
      </trkpt>
      <trkpt lat="42.459526620805263519287109375" lon="-8.65336996503174304962158203125">
        <ele>33</ele>
        <time>2022-11-01T08:57:50.000Z</time>
      </trkpt>
      <trkpt lat="42.45948395691812038421630859375" lon="-8.6533599905669689178466796875">
        <ele>33.200000762939453125</ele>
        <time>2022-11-01T08:57:51.000Z</time>
      </trkpt>
      <trkpt lat="42.4594396166503429412841796875" lon="-8.6533467471599578857421875">
        <ele>33.40000152587890625</ele>
        <time>2022-11-01T08:57:52.000Z</time>
      </trkpt>
      <trkpt lat="42.45940625667572021484375" lon="-8.65333844907581806182861328125">
        <ele>33.59999847412109375</ele>
        <time>2022-11-01T08:57:53.000Z</time>
      </trkpt>
      <trkpt lat="42.45936409570276737213134765625" lon="-8.6533279716968536376953125">
        <ele>33.799999237060546875</ele>
        <time>2022-11-01T08:57:54.000Z</time>
      </trkpt>
      <trkpt lat="42.45931078679859638214111328125" lon="-8.65331389009952545166015625">
        <ele>34</ele>
        <time>2022-11-01T08:57:55.000Z</time>
      </trkpt>
      <trkpt lat="42.45926619507372379302978515625" lon="-8.65329821594059467315673828125">
        <ele>34</ele>
        <time>2022-11-01T08:57:56.000Z</time>
      </trkpt>
      <trkpt lat="42.459223531186580657958984375" lon="-8.65328581072390079498291015625">
        <ele>34.40000152587890625</ele>
        <time>2022-11-01T08:57:57.000Z</time>
      </trkpt>
      <trkpt lat="42.45918841101229190826416015625" lon="-8.65327508188784122467041015625">
        <ele>34.59999847412109375</ele>
        <time>2022-11-01T08:57:58.000Z</time>
      </trkpt>
      <trkpt lat="42.45914348401129245758056640625" lon="-8.6532590724527835845947265625">
        <ele>34.799999237060546875</ele>
        <time>2022-11-01T08:57:59.000Z</time>
      </trkpt>
      <trkpt lat="42.4590899236500263214111328125" lon="-8.65324121899902820587158203125">
        <ele>35</ele>
        <time>2022-11-01T08:58:00.000Z</time>
      </trkpt>
      <trkpt lat="42.4590456672012805938720703125" lon="-8.6532275564968585968017578125">
        <ele>35.200000762939453125</ele>
        <time>2022-11-01T08:58:01.000Z</time>
      </trkpt>
      <trkpt lat="42.45900099165737628936767578125" lon="-8.6532131396234035491943359375">
        <ele>35.40000152587890625</ele>
        <time>2022-11-01T08:58:02.000Z</time>
      </trkpt>
      <trkpt lat="42.45896645821630954742431640625" lon="-8.65320249460637569427490234375">
        <ele>35.59999847412109375</ele>
        <time>2022-11-01T08:58:03.000Z</time>
      </trkpt>
      <trkpt lat="42.4589216150343418121337890625" lon="-8.65318740718066692352294921875">
        <ele>35.799999237060546875</ele>
        <time>2022-11-01T08:58:04.000Z</time>
      </trkpt>
      <trkpt lat="42.458867467939853668212890625" lon="-8.6531695537269115447998046875">
        <ele>35.799999237060546875</ele>
        <time>2022-11-01T08:58:05.000Z</time>
      </trkpt>
      <trkpt lat="42.45882262475788593292236328125" lon="-8.653154633939266204833984375">
        <ele>36.200000762939453125</ele>
        <time>2022-11-01T08:58:06.000Z</time>
      </trkpt>
      <trkpt lat="42.45877820067107677459716796875" lon="-8.65313954651355743408203125">
        <ele>36.200000762939453125</ele>
        <time>2022-11-01T08:58:07.000Z</time>
      </trkpt>
      <trkpt lat="42.45873327367007732391357421875" lon="-8.65312169305980205535888671875">
        <ele>36.59999847412109375</ele>
        <time>2022-11-01T08:58:08.000Z</time>
      </trkpt>
      <trkpt lat="42.458697147667407989501953125" lon="-8.65310476161539554595947265625">
        <ele>37</ele>
        <time>2022-11-01T08:58:09.000Z</time>
      </trkpt>
      <trkpt lat="42.45864258147776126861572265625" lon="-8.65308028645813465118408203125">
        <ele>37.200000762939453125</ele>
        <time>2022-11-01T08:58:10.000Z</time>
      </trkpt>
      <trkpt lat="42.45859614573419094085693359375" lon="-8.65306050516664981842041015625">
        <ele>37.40000152587890625</ele>
        <time>2022-11-01T08:58:11.000Z</time>
      </trkpt>
      <trkpt lat="42.45854996144771575927734375" lon="-8.65304298698902130126953125">
        <ele>37.59999847412109375</ele>
        <time>2022-11-01T08:58:12.000Z</time>
      </trkpt>
      <trkpt lat="42.45850310660898685455322265625" lon="-8.65302228368818759918212890625">
        <ele>37.59999847412109375</ele>
        <time>2022-11-01T08:58:13.000Z</time>
      </trkpt>
      <trkpt lat="42.45845667086541652679443359375" lon="-8.6529992334544658660888671875">
        <ele>37.799999237060546875</ele>
        <time>2022-11-01T08:58:14.000Z</time>
      </trkpt>
      <trkpt lat="42.45840805582702159881591796875" lon="-8.65297324955463409423828125">
        <ele>37.59999847412109375</ele>
        <time>2022-11-01T08:58:15.000Z</time>
      </trkpt>
      <trkpt lat="42.4583586864173412322998046875" lon="-8.6529449187219142913818359375">
        <ele>37.59999847412109375</ele>
        <time>2022-11-01T08:58:16.000Z</time>
      </trkpt>
      <trkpt lat="42.45830981992185115814208984375" lon="-8.65291750989854335784912109375">
        <ele>37.799999237060546875</ele>
        <time>2022-11-01T08:58:17.000Z</time>
      </trkpt>
      <trkpt lat="42.458260618150234222412109375" lon="-8.6528892628848552703857421875">
        <ele>38</ele>
        <time>2022-11-01T08:58:18.000Z</time>
      </trkpt>
      <trkpt lat="42.45821896009147167205810546875" lon="-8.6528627760708332061767578125">
        <ele>38</ele>
        <time>2022-11-01T08:58:19.000Z</time>
      </trkpt>
      <trkpt lat="42.458161376416683197021484375" lon="-8.65282572805881500244140625">
        <ele>38.200000762939453125</ele>
        <time>2022-11-01T08:58:20.000Z</time>
      </trkpt>
      <trkpt lat="42.45811485685408115386962890625" lon="-8.6527943797409534454345703125">
        <ele>38.200000762939453125</ele>
        <time>2022-11-01T08:58:21.000Z</time>
      </trkpt>
      <trkpt lat="42.45806691236793994903564453125" lon="-8.6527618579566478729248046875">
        <ele>38.200000762939453125</ele>
        <time>2022-11-01T08:58:22.000Z</time>
      </trkpt>
      <trkpt lat="42.45802718214690685272216796875" lon="-8.6527340300381183624267578125">
        <ele>38.200000762939453125</ele>
        <time>2022-11-01T08:58:23.000Z</time>
      </trkpt>
      <trkpt lat="42.4579674191772937774658203125" lon="-8.65269287489354610443115234375">
        <ele>38.40000152587890625</ele>
        <time>2022-11-01T08:58:24.000Z</time>
      </trkpt>
      <trkpt lat="42.45791654102504253387451171875" lon="-8.65265683270990848541259765625">
        <ele>38.40000152587890625</ele>
        <time>2022-11-01T08:58:25.000Z</time>
      </trkpt>
      <trkpt lat="42.45786591432988643646240234375" lon="-8.65262045525014400482177734375">
        <ele>38.59999847412109375</ele>
        <time>2022-11-01T08:58:26.000Z</time>
      </trkpt>
      <trkpt lat="42.45781361125409603118896484375" lon="-8.652582652866840362548828125">
        <ele>38.59999847412109375</ele>
        <time>2022-11-01T08:58:27.000Z</time>
      </trkpt>
      <trkpt lat="42.457761056721210479736328125" lon="-8.652541749179363250732421875">
        <ele>38.59999847412109375</ele>
        <time>2022-11-01T08:58:28.000Z</time>
      </trkpt>
      <trkpt lat="42.4577095918357372283935546875" lon="-8.65250159986317157745361328125">
        <ele>38.59999847412109375</ele>
        <time>2022-11-01T08:58:29.000Z</time>
      </trkpt>
      <trkpt lat="42.4576589651405811309814453125" lon="-8.65245969034731388092041015625">
        <ele>38.59999847412109375</ele>
        <time>2022-11-01T08:58:30.000Z</time>
      </trkpt>
      <trkpt lat="42.4576083384454250335693359375" lon="-8.65241711027920246124267578125">
        <ele>38.59999847412109375</ele>
        <time>2022-11-01T08:58:31.000Z</time>
      </trkpt>
      <trkpt lat="42.45755528099834918975830078125" lon="-8.65237033925950527191162109375">
        <ele>38.59999847412109375</ele>
        <time>2022-11-01T08:58:32.000Z</time>
      </trkpt>
      <trkpt lat="42.45750314556062221527099609375" lon="-8.65232281386852264404296875">
        <ele>38.59999847412109375</ele>
        <time>2022-11-01T08:58:33.000Z</time>
      </trkpt>
      <trkpt lat="42.45745159685611724853515625" lon="-8.6522763781249523162841796875">
        <ele>38.59999847412109375</ele>
        <time>2022-11-01T08:58:34.000Z</time>
      </trkpt>
      <trkpt lat="42.457398287951946258544921875" lon="-8.652227930724620819091796875">
        <ele>38.40000152587890625</ele>
        <time>2022-11-01T08:58:35.000Z</time>
      </trkpt>
      <trkpt lat="42.4573424644768238067626953125" lon="-8.6521764658391475677490234375">
        <ele>38.40000152587890625</ele>
        <time>2022-11-01T08:58:36.000Z</time>
      </trkpt>
      <trkpt lat="42.45729762129485607147216796875" lon="-8.652134053409099578857421875">
        <ele>38.200000762939453125</ele>
        <time>2022-11-01T08:58:37.000Z</time>
      </trkpt>
      <trkpt lat="42.45722972787916660308837890625" lon="-8.65207077004015445709228515625">
        <ele>38</ele>
        <time>2022-11-01T08:58:38.000Z</time>
      </trkpt>
      <trkpt lat="42.457170970737934112548828125" lon="-8.6520182155072689056396484375">
        <ele>37.799999237060546875</ele>
        <time>2022-11-01T08:58:39.000Z</time>
      </trkpt>
      <trkpt lat="42.4571104533970355987548828125" lon="-8.651966750621795654296875">
        <ele>37.799999237060546875</ele>
        <time>2022-11-01T08:58:40.000Z</time>
      </trkpt>
      <trkpt lat="42.457047589123249053955078125" lon="-8.6519159562885761260986328125">
        <ele>37.59999847412109375</ele>
        <time>2022-11-01T08:58:41.000Z</time>
      </trkpt>
      <trkpt lat="42.456994615495204925537109375" lon="-8.6518737114965915679931640625">
        <ele>37.40000152587890625</ele>
        <time>2022-11-01T08:58:42.000Z</time>
      </trkpt>
      <trkpt lat="42.45692697353661060333251953125" lon="-8.65182132460176944732666015625">
        <ele>37.200000762939453125</ele>
        <time>2022-11-01T08:58:43.000Z</time>
      </trkpt>
      <trkpt lat="42.45684248395264148712158203125" lon="-8.65175393410027027130126953125">
        <ele>37.200000762939453125</ele>
        <time>2022-11-01T08:58:44.000Z</time>
      </trkpt>
      <trkpt lat="42.45676822029054164886474609375" lon="-8.6516963504254817962646484375">
        <ele>36.799999237060546875</ele>
        <time>2022-11-01T08:58:45.000Z</time>
      </trkpt>
      <trkpt lat="42.4566863290965557098388671875" lon="-8.65164346061646938323974609375">
        <ele>36.40000152587890625</ele>
        <time>2022-11-01T08:58:46.000Z</time>
      </trkpt>
      <trkpt lat="42.45660041458904743194580078125" lon="-8.65159249864518642425537109375">
        <ele>36.200000762939453125</ele>
        <time>2022-11-01T08:58:47.000Z</time>
      </trkpt>
      <trkpt lat="42.45653017424046993255615234375" lon="-8.65155276842415332794189453125">
        <ele>35.799999237060546875</ele>
        <time>2022-11-01T08:58:48.000Z</time>
      </trkpt>
      <trkpt lat="42.45643679983913898468017578125" lon="-8.65150784142315387725830078125">
        <ele>35.59999847412109375</ele>
        <time>2022-11-01T08:58:49.000Z</time>
      </trkpt>
      <trkpt lat="42.45633923448622226715087890625" lon="-8.65146559663116931915283203125">
        <ele>35.200000762939453125</ele>
        <time>2022-11-01T08:58:50.000Z</time>
      </trkpt>
      <trkpt lat="42.45621903799474239349365234375" lon="-8.6514177359640598297119140625">
        <ele>35</ele>
        <time>2022-11-01T08:58:51.000Z</time>
      </trkpt>
      <trkpt lat="42.4561197124421596527099609375" lon="-8.6513842083513736724853515625">
        <ele>34.40000152587890625</ele>
        <time>2022-11-01T08:58:52.000Z</time>
      </trkpt>
      <trkpt lat="42.45603740215301513671875" lon="-8.65135529078543186187744140625">
        <ele>34.200000762939453125</ele>
        <time>2022-11-01T08:58:53.000Z</time>
      </trkpt>
      <trkpt lat="42.45593455620110034942626953125" lon="-8.651316650211811065673828125">
        <ele>33.40000152587890625</ele>
        <time>2022-11-01T08:58:54.000Z</time>
      </trkpt>
      <trkpt lat="42.45581486262381076812744140625" lon="-8.65127272903919219970703125">
        <ele>33.200000762939453125</ele>
        <time>2022-11-01T08:58:55.000Z</time>
      </trkpt>
      <trkpt lat="42.45571486651897430419921875" lon="-8.651237189769744873046875">
        <ele>32.799999237060546875</ele>
        <time>2022-11-01T08:58:56.000Z</time>
      </trkpt>
      <trkpt lat="42.455611266195774078369140625" lon="-8.6512011475861072540283203125">
        <ele>32.200000762939453125</ele>
        <time>2022-11-01T08:58:57.000Z</time>
      </trkpt>
      <trkpt lat="42.4555081687867641448974609375" lon="-8.65116770379245281219482421875">
        <ele>31.799999237060546875</ele>
        <time>2022-11-01T08:58:58.000Z</time>
      </trkpt>
      <trkpt lat="42.4554230086505413055419921875" lon="-8.651138953864574432373046875">
        <ele>31.3999996185302734375</ele>
        <time>2022-11-01T08:58:59.000Z</time>
      </trkpt>
      <trkpt lat="42.4552959389984607696533203125" lon="-8.65109612233936786651611328125">
        <ele>31</ele>
        <time>2022-11-01T08:59:00.000Z</time>
      </trkpt>
      <trkpt lat="42.45518756099045276641845703125" lon="-8.65106083452701568603515625">
        <ele>30.3999996185302734375</ele>
        <time>2022-11-01T08:59:01.000Z</time>
      </trkpt>
      <trkpt lat="42.45507909916341304779052734375" lon="-8.65102487616240978240966796875">
        <ele>30</ele>
        <time>2022-11-01T08:59:02.000Z</time>
      </trkpt>
      <trkpt lat="42.45499092154204845428466796875" lon="-8.65099486894905567169189453125">
        <ele>29.3999996185302734375</ele>
        <time>2022-11-01T08:59:03.000Z</time>
      </trkpt>
      <trkpt lat="42.45488346554338932037353515625" lon="-8.65096435882151126861572265625">
        <ele>29.200000762939453125</ele>
        <time>2022-11-01T08:59:04.000Z</time>
      </trkpt>
      <trkpt lat="42.45475404895842075347900390625" lon="-8.65092412568628787994384765625">
        <ele>28.799999237060546875</ele>
        <time>2022-11-01T08:59:05.000Z</time>
      </trkpt>
      <trkpt lat="42.45464474894106388092041015625" lon="-8.65088925696909427642822265625">
        <ele>28.6000003814697265625</ele>
        <time>2022-11-01T08:59:06.000Z</time>
      </trkpt>
      <trkpt lat="42.45453511364758014678955078125" lon="-8.6508554778993129730224609375">
        <ele>28</ele>
        <time>2022-11-01T08:59:07.000Z</time>
      </trkpt>
      <trkpt lat="42.45444609783589839935302734375" lon="-8.65082706324756145477294921875">
        <ele>27.3999996185302734375</ele>
        <time>2022-11-01T08:59:08.000Z</time>
      </trkpt>
      <trkpt lat="42.4543355405330657958984375" lon="-8.650790937244892120361328125">
        <ele>27.200000762939453125</ele>
        <time>2022-11-01T08:59:09.000Z</time>
      </trkpt>
      <trkpt lat="42.45420302264392375946044921875" lon="-8.65074877627193927764892578125">
        <ele>26.6000003814697265625</ele>
        <time>2022-11-01T08:59:10.000Z</time>
      </trkpt>
      <trkpt lat="42.4540919624269008636474609375" lon="-8.650716505944728851318359375">
        <ele>26.200000762939453125</ele>
        <time>2022-11-01T08:59:11.000Z</time>
      </trkpt>
      <trkpt lat="42.45397939346730709075927734375" lon="-8.6506811343133449554443359375">
        <ele>25.799999237060546875</ele>
        <time>2022-11-01T08:59:12.000Z</time>
      </trkpt>
      <trkpt lat="42.4538891203701496124267578125" lon="-8.65065204910933971405029296875">
        <ele>25.3999996185302734375</ele>
        <time>2022-11-01T08:59:13.000Z</time>
      </trkpt>
      <trkpt lat="42.45377772487699985504150390625" lon="-8.65061449818313121795654296875">
        <ele>24.799999237060546875</ele>
        <time>2022-11-01T08:59:14.000Z</time>
      </trkpt>
      <trkpt lat="42.45364529080688953399658203125" lon="-8.6505745165050029754638671875">
        <ele>24.6000003814697265625</ele>
        <time>2022-11-01T08:59:15.000Z</time>
      </trkpt>
      <trkpt lat="42.4535327218472957611083984375" lon="-8.6505376361310482025146484375">
        <ele>23.799999237060546875</ele>
        <time>2022-11-01T08:59:16.000Z</time>
      </trkpt>
      <trkpt lat="42.4534210748970508575439453125" lon="-8.6505007557570934295654296875">
        <ele>23.6000003814697265625</ele>
        <time>2022-11-01T08:59:17.000Z</time>
      </trkpt>
      <trkpt lat="42.4533318914473056793212890625" lon="-8.65047116763889789581298828125">
        <ele>23.3999996185302734375</ele>
        <time>2022-11-01T08:59:18.000Z</time>
      </trkpt>
      <trkpt lat="42.45322099886834621429443359375" lon="-8.65043512545526027679443359375">
        <ele>23.200000762939453125</ele>
        <time>2022-11-01T08:59:19.000Z</time>
      </trkpt>
      <trkpt lat="42.45308822952210903167724609375" lon="-8.650391288101673126220703125">
        <ele>23</ele>
        <time>2022-11-01T08:59:20.000Z</time>
      </trkpt>
      <trkpt lat="42.4529808573424816131591796875" lon="-8.65035633556544780731201171875">
        <ele>22.799999237060546875</ele>
        <time>2022-11-01T08:59:21.000Z</time>
      </trkpt>
      <trkpt lat="42.45287382043898105621337890625" lon="-8.6503212153911590576171875">
        <ele>22.6000003814697265625</ele>
        <time>2022-11-01T08:59:22.000Z</time>
      </trkpt>
      <trkpt lat="42.45278882794082164764404296875" lon="-8.65029506385326385498046875">
        <ele>22.200000762939453125</ele>
        <time>2022-11-01T08:59:23.000Z</time>
      </trkpt>
      <trkpt lat="42.45268204249441623687744140625" lon="-8.65026296116411685943603515625">
        <ele>21.799999237060546875</ele>
        <time>2022-11-01T08:59:24.000Z</time>
      </trkpt>
      <trkpt lat="42.45255128480494022369384765625" lon="-8.65022323094308376312255859375">
        <ele>21</ele>
        <time>2022-11-01T08:59:25.000Z</time>
      </trkpt>
      <trkpt lat="42.4524434097111225128173828125" lon="-8.650188446044921875">
        <ele>20.799999237060546875</ele>
        <time>2022-11-01T08:59:26.000Z</time>
      </trkpt>
      <trkpt lat="42.45233570225536823272705078125" lon="-8.65015693008899688720703125">
        <ele>20.3999996185302734375</ele>
        <time>2022-11-01T08:59:27.000Z</time>
      </trkpt>
      <trkpt lat="42.45222707279026508331298828125" lon="-8.65012516267597675323486328125">
        <ele>20.200000762939453125</ele>
        <time>2022-11-01T08:59:28.000Z</time>
      </trkpt>
      <trkpt lat="42.4521393142640590667724609375" lon="-8.6501011066138744354248046875">
        <ele>20</ele>
        <time>2022-11-01T08:59:29.000Z</time>
      </trkpt>
      <trkpt lat="42.452007718384265899658203125" lon="-8.65006707608699798583984375">
        <ele>19.799999237060546875</ele>
        <time>2022-11-01T08:59:30.000Z</time>
      </trkpt>
      <trkpt lat="42.45189716108143329620361328125" lon="-8.650041259825229644775390625">
        <ele>19.6000003814697265625</ele>
        <time>2022-11-01T08:59:31.000Z</time>
      </trkpt>
      <trkpt lat="42.451785765588283538818359375" lon="-8.65002022124826908111572265625">
        <ele>19.6000003814697265625</ele>
        <time>2022-11-01T08:59:32.000Z</time>
      </trkpt>
      <trkpt lat="42.4516739509999752044677734375" lon="-8.65000463090837001800537109375">
        <ele>19.3999996185302734375</ele>
        <time>2022-11-01T08:59:33.000Z</time>
      </trkpt>
      <trkpt lat="42.45158434845507144927978515625" lon="-8.64999541081488132476806640625">
        <ele>19.200000762939453125</ele>
        <time>2022-11-01T08:59:34.000Z</time>
      </trkpt>
      <trkpt lat="42.4514509923756122589111328125" lon="-8.64998585544526576995849609375">
        <ele>19</ele>
        <time>2022-11-01T08:59:35.000Z</time>
      </trkpt>
      <trkpt lat="42.451337166130542755126953125" lon="-8.6499814130365848541259765625">
        <ele>18.799999237060546875</ele>
        <time>2022-11-01T08:59:36.000Z</time>
      </trkpt>
      <trkpt lat="42.4512478150427341461181640625" lon="-8.6499845981597900390625">
        <ele>18.6000003814697265625</ele>
        <time>2022-11-01T08:59:37.000Z</time>
      </trkpt>
      <trkpt lat="42.45113558135926723480224609375" lon="-8.64999105222523212432861328125">
        <ele>18.200000762939453125</ele>
        <time>2022-11-01T08:59:38.000Z</time>
      </trkpt>
      <trkpt lat="42.4510047398507595062255859375" lon="-8.65000245161354541778564453125">
        <ele>17.799999237060546875</ele>
        <time>2022-11-01T08:59:39.000Z</time>
      </trkpt>
      <trkpt lat="42.4508977867662906646728515625" lon="-8.6500146053731441497802734375">
        <ele>17.3999996185302734375</ele>
        <time>2022-11-01T08:59:40.000Z</time>
      </trkpt>
      <trkpt lat="42.4507871456444263458251953125" lon="-8.65001971833407878875732421875">
        <ele>17.200000762939453125</ele>
        <time>2022-11-01T08:59:41.000Z</time>
      </trkpt>
      <trkpt lat="42.45067558251321315765380859375" lon="-8.65002441219985485076904296875">
        <ele>16.6000003814697265625</ele>
        <time>2022-11-01T08:59:42.000Z</time>
      </trkpt>
      <trkpt lat="42.450584806501865386962890625" lon="-8.650027848780155181884765625">
        <ele>16.3999996185302734375</ele>
        <time>2022-11-01T08:59:43.000Z</time>
      </trkpt>
      <trkpt lat="42.45047248899936676025390625" lon="-8.65003463812172412872314453125">
        <ele>16.200000762939453125</ele>
        <time>2022-11-01T08:59:44.000Z</time>
      </trkpt>
      <trkpt lat="42.4503351934254169464111328125" lon="-8.65004025399684906005859375">
        <ele>16</ele>
        <time>2022-11-01T08:59:45.000Z</time>
      </trkpt>
      <trkpt lat="42.45022027753293514251708984375" lon="-8.65004637278616428375244140625">
        <ele>15.80000019073486328125</ele>
        <time>2022-11-01T08:59:46.000Z</time>
      </trkpt>
      <trkpt lat="42.45011030696332454681396484375" lon="-8.6500645615160465240478515625">
        <ele>15.6000003814697265625</ele>
        <time>2022-11-01T08:59:47.000Z</time>
      </trkpt>
      <trkpt lat="42.45000016875565052032470703125" lon="-8.65008627064526081085205078125">
        <ele>15.6000003814697265625</ele>
        <time>2022-11-01T08:59:48.000Z</time>
      </trkpt>
      <trkpt lat="42.4499114044010639190673828125" lon="-8.65010554902255535125732421875">
        <ele>15.6000003814697265625</ele>
        <time>2022-11-01T08:59:49.000Z</time>
      </trkpt>
      <trkpt lat="42.4497816525399684906005859375" lon="-8.65014075301587581634521484375">
        <ele>15.3999996185302734375</ele>
        <time>2022-11-01T08:59:50.000Z</time>
      </trkpt>
      <trkpt lat="42.44967830367386341094970703125" lon="-8.6501809023320674896240234375">
        <ele>15.19999980926513671875</ele>
        <time>2022-11-01T08:59:51.000Z</time>
      </trkpt>
      <trkpt lat="42.44957470335066318511962890625" lon="-8.650220967829227447509765625">
        <ele>15</ele>
        <time>2022-11-01T08:59:52.000Z</time>
      </trkpt>
      <trkpt lat="42.44949272833764553070068359375" lon="-8.650251813232898712158203125">
        <ele>14.80000019073486328125</ele>
        <time>2022-11-01T08:59:53.000Z</time>
      </trkpt>
      <trkpt lat="42.44937169365584850311279296875" lon="-8.6503002606332302093505859375">
        <ele>14.6000003814697265625</ele>
        <time>2022-11-01T08:59:54.000Z</time>
      </trkpt>
      <trkpt lat="42.44927228428423404693603515625" lon="-8.65034158341586589813232421875">
        <ele>14.19999980926513671875</ele>
        <time>2022-11-01T08:59:55.000Z</time>
      </trkpt>
      <trkpt lat="42.44917438365519046783447265625" lon="-8.65038684569299221038818359375">
        <ele>13.80000019073486328125</ele>
        <time>2022-11-01T08:59:56.000Z</time>
      </trkpt>
      <trkpt lat="42.4490782432258129119873046875" lon="-8.6504357121884822845458984375">
        <ele>13.80000019073486328125</ele>
        <time>2022-11-01T08:59:57.000Z</time>
      </trkpt>
      <trkpt lat="42.4489820189774036407470703125" lon="-8.65048290230333805084228515625">
        <ele>13.6000003814697265625</ele>
        <time>2022-11-01T08:59:58.000Z</time>
      </trkpt>
      <trkpt lat="42.44890465401113033294677734375" lon="-8.650518693029880523681640625">
        <ele>13.3999996185302734375</ele>
        <time>2022-11-01T08:59:59.000Z</time>
      </trkpt>
      <trkpt lat="42.44878898374736309051513671875" lon="-8.650571666657924652099609375">
        <ele>13.3999996185302734375</ele>
        <time>2022-11-01T09:00:00.000Z</time>
      </trkpt>
      <trkpt lat="42.448693849146366119384765625" lon="-8.65061550401151180267333984375">
        <ele>13.19999980926513671875</ele>
        <time>2022-11-01T09:00:01.000Z</time>
      </trkpt>
      <trkpt lat="42.44859821163117885589599609375" lon="-8.65065825171768665313720703125">
        <ele>13.19999980926513671875</ele>
        <time>2022-11-01T09:00:02.000Z</time>
      </trkpt>
      <trkpt lat="42.44852118194103240966796875" lon="-8.65068993531167507171630859375">
        <ele>13.19999980926513671875</ele>
        <time>2022-11-01T09:00:03.000Z</time>
      </trkpt>
      <trkpt lat="42.448424957692623138427734375" lon="-8.6507270671427249908447265625">
        <ele>13.19999980926513671875</ele>
        <time>2022-11-01T09:00:04.000Z</time>
      </trkpt>
      <trkpt lat="42.448308281600475311279296875" lon="-8.65076855756342411041259765625">
        <ele>13.19999980926513671875</ele>
        <time>2022-11-01T09:00:05.000Z</time>
      </trkpt>
      <trkpt lat="42.44821063242852687835693359375" lon="-8.6508014984428882598876953125">
        <ele>13.19999980926513671875</ele>
        <time>2022-11-01T09:00:06.000Z</time>
      </trkpt>
      <trkpt lat="42.448113150894641876220703125" lon="-8.650833182036876678466796875">
        <ele>13.19999980926513671875</ele>
        <time>2022-11-01T09:00:07.000Z</time>
      </trkpt>
      <trkpt lat="42.448034696280956268310546875" lon="-8.65085589699447154998779296875">
        <ele>13.19999980926513671875</ele>
        <time>2022-11-01T09:00:08.000Z</time>
      </trkpt>
      <trkpt lat="42.44793654419481754302978515625" lon="-8.65088204853236675262451171875">
        <ele>13</ele>
        <time>2022-11-01T09:00:09.000Z</time>
      </trkpt>
      <trkpt lat="42.44781768880784511566162109375" lon="-8.65090836770832538604736328125">
        <ele>13</ele>
        <time>2022-11-01T09:00:10.000Z</time>
      </trkpt>
      <trkpt lat="42.44771794416010379791259765625" lon="-8.6509275622665882110595703125">
        <ele>13</ele>
        <time>2022-11-01T09:00:11.000Z</time>
      </trkpt>
      <trkpt lat="42.44761719368398189544677734375" lon="-8.65094122476875782012939453125">
        <ele>12.80000019073486328125</ele>
        <time>2022-11-01T09:00:12.000Z</time>
      </trkpt>
      <trkpt lat="42.44751543737947940826416015625" lon="-8.650951199233531951904296875">
        <ele>12.3999996185302734375</ele>
        <time>2022-11-01T09:00:13.000Z</time>
      </trkpt>
      <trkpt lat="42.447415105998516082763671875" lon="-8.65095949731767177581787109375">
        <ele>12.3999996185302734375</ele>
        <time>2022-11-01T09:00:14.000Z</time>
      </trkpt>
      <trkpt lat="42.447335310280323028564453125" lon="-8.650961928069591522216796875">
        <ele>12.19999980926513671875</ele>
        <time>2022-11-01T09:00:15.000Z</time>
      </trkpt>
      <trkpt lat="42.44721494615077972412109375" lon="-8.65096067078411579132080078125">
        <ele>12.19999980926513671875</ele>
        <time>2022-11-01T09:00:16.000Z</time>
      </trkpt>
      <trkpt lat="42.4471145309507846832275390625" lon="-8.6509533785283565521240234375">
        <ele>12</ele>
        <time>2022-11-01T09:00:17.000Z</time>
      </trkpt>
      <trkpt lat="42.44701570831239223480224609375" lon="-8.650944493710994720458984375">
        <ele>12</ele>
        <time>2022-11-01T09:00:18.000Z</time>
      </trkpt>
      <trkpt lat="42.44693574495613574981689453125" lon="-8.65093435160815715789794921875">
        <ele>12</ele>
        <time>2022-11-01T09:00:19.000Z</time>
      </trkpt>
      <trkpt lat="42.44683583267033100128173828125" lon="-8.65091892890632152557373046875">
        <ele>12</ele>
        <time>2022-11-01T09:00:20.000Z</time>
      </trkpt>
      <trkpt lat="42.4467162229120731353759765625" lon="-8.65089763887226581573486328125">
        <ele>11.80000019073486328125</ele>
        <time>2022-11-01T09:00:21.000Z</time>
      </trkpt>
      <trkpt lat="42.4466173164546489715576171875" lon="-8.6508732475340366363525390625">
        <ele>11.80000019073486328125</ele>
        <time>2022-11-01T09:00:22.000Z</time>
      </trkpt>
      <trkpt lat="42.4465190805494785308837890625" lon="-8.65084315650165081024169921875">
        <ele>11.80000019073486328125</ele>
        <time>2022-11-01T09:00:23.000Z</time>
      </trkpt>
      <trkpt lat="42.44644205085933208465576171875" lon="-8.65081750787794589996337890625">
        <ele>11.6000003814697265625</ele>
        <time>2022-11-01T09:00:24.000Z</time>
      </trkpt>
      <trkpt lat="42.44634616188704967498779296875" lon="-8.650784231722354888916015625">
        <ele>11.6000003814697265625</ele>
        <time>2022-11-01T09:00:25.000Z</time>
      </trkpt>
      <trkpt lat="42.4462330900132656097412109375" lon="-8.65074098110198974609375">
        <ele>11.6000003814697265625</ele>
        <time>2022-11-01T09:00:26.000Z</time>
      </trkpt>
      <trkpt lat="42.44613795541226863861083984375" lon="-8.65069764666259288787841796875">
        <ele>11.6000003814697265625</ele>
        <time>2022-11-01T09:00:27.000Z</time>
      </trkpt>
      <trkpt lat="42.4460450001060962677001953125" lon="-8.6506543122231960296630859375">
        <ele>11.3999996185302734375</ele>
        <time>2022-11-01T09:00:28.000Z</time>
      </trkpt>
      <trkpt lat="42.44595162570476531982421875" lon="-8.65060745738446712493896484375">
        <ele>11.3999996185302734375</ele>
        <time>2022-11-01T09:00:29.000Z</time>
      </trkpt>
      <trkpt lat="42.4458592571318149566650390625" lon="-8.6505599319934844970703125">
        <ele>11.3999996185302734375</ele>
        <time>2022-11-01T09:00:30.000Z</time>
      </trkpt>
      <trkpt lat="42.4457670561969280242919921875" lon="-8.65050888620316982269287109375">
        <ele>11.3999996185302734375</ele>
        <time>2022-11-01T09:00:31.000Z</time>
      </trkpt>
      <trkpt lat="42.44567544199526309967041015625" lon="-8.6504551582038402557373046875">
        <ele>11.3999996185302734375</ele>
        <time>2022-11-01T09:00:32.000Z</time>
      </trkpt>
      <trkpt lat="42.4455829896032810211181640625" lon="-8.650399334728717803955078125">
        <ele>11.19999980926513671875</ele>
        <time>2022-11-01T09:00:33.000Z</time>
      </trkpt>
      <trkpt lat="42.44550981558859348297119140625" lon="-8.65035398863255977630615234375">
        <ele>11.19999980926513671875</ele>
        <time>2022-11-01T09:00:34.000Z</time>
      </trkpt>
      <trkpt lat="42.445400096476078033447265625" lon="-8.65028760395944118499755859375">
        <ele>11</ele>
        <time>2022-11-01T09:00:35.000Z</time>
      </trkpt>
      <trkpt lat="42.44530655443668365478515625" lon="-8.6502321995794773101806640625">
        <ele>11</ele>
        <time>2022-11-01T09:00:36.000Z</time>
      </trkpt>
      <trkpt lat="42.44521309621632099151611328125" lon="-8.6501775495707988739013671875">
        <ele>10.80000019073486328125</ele>
        <time>2022-11-01T09:00:37.000Z</time>
      </trkpt>
      <trkpt lat="42.44511804543435573577880859375" lon="-8.6501215584576129913330078125">
        <ele>10.6000003814697265625</ele>
        <time>2022-11-01T09:00:38.000Z</time>
      </trkpt>
      <trkpt lat="42.44502383284270763397216796875" lon="-8.6500638909637928009033203125">
        <ele>10.3999996185302734375</ele>
        <time>2022-11-01T09:00:39.000Z</time>
      </trkpt>
      <trkpt lat="42.44492928497493267059326171875" lon="-8.65000630728900432586669921875">
        <ele>10.19999980926513671875</ele>
        <time>2022-11-01T09:00:40.000Z</time>
      </trkpt>
      <trkpt lat="42.444835491478443145751953125" lon="-8.6499495618045330047607421875">
        <ele>10</ele>
        <time>2022-11-01T09:00:41.000Z</time>
      </trkpt>
      <trkpt lat="42.444741614162921905517578125" lon="-8.64989097230136394500732421875">
        <ele>10</ele>
        <time>2022-11-01T09:00:42.000Z</time>
      </trkpt>
      <trkpt lat="42.44464564137160778045654296875" lon="-8.64983104169368743896484375">
        <ele>9.80000019073486328125</ele>
        <time>2022-11-01T09:00:43.000Z</time>
      </trkpt>
      <trkpt lat="42.44454992003738880157470703125" lon="-8.64977077580988407135009765625">
        <ele>9.6000003814697265625</ele>
        <time>2022-11-01T09:00:44.000Z</time>
      </trkpt>
      <trkpt lat="42.444453947246074676513671875" lon="-8.64971076138317584991455078125">
        <ele>9.6000003814697265625</ele>
        <time>2022-11-01T09:00:45.000Z</time>
      </trkpt>
      <trkpt lat="42.44435780681669712066650390625" lon="-8.64965208806097507476806640625">
        <ele>9.3999996185302734375</ele>
        <time>2022-11-01T09:00:46.000Z</time>
      </trkpt>
      <trkpt lat="42.44428136385977268218994140625" lon="-8.64960649050772190093994140625">
        <ele>9</ele>
        <time>2022-11-01T09:00:47.000Z</time>
      </trkpt>
      <trkpt lat="42.44416586123406887054443359375" lon="-8.64953608252108097076416015625">
        <ele>8.3999996185302734375</ele>
        <time>2022-11-01T09:00:48.000Z</time>
      </trkpt>
      <trkpt lat="42.444069720804691314697265625" lon="-8.6494808457791805267333984375">
        <ele>8.19999980926513671875</ele>
        <time>2022-11-01T09:00:49.000Z</time>
      </trkpt>
      <trkpt lat="42.44396972469985485076904296875" lon="-8.649428375065326690673828125">
        <ele>7.599999904632568359375</ele>
        <time>2022-11-01T09:00:50.000Z</time>
      </trkpt>
      <trkpt lat="42.4438687227666378021240234375" lon="-8.64938721992075443267822265625">
        <ele>7.400000095367431640625</ele>
        <time>2022-11-01T09:00:51.000Z</time>
      </trkpt>
      <trkpt lat="42.44376294314861297607421875" lon="-8.64936475642025470733642578125">
        <ele>6.80000019073486328125</ele>
        <time>2022-11-01T09:00:52.000Z</time>
      </trkpt>
      <trkpt lat="42.44365297257900238037109375" lon="-8.64935587160289287567138671875">
        <ele>6.599999904632568359375</ele>
        <time>2022-11-01T09:00:53.000Z</time>
      </trkpt>
      <trkpt lat="42.44354560039937496185302734375" lon="-8.64933550357818603515625">
        <ele>6.400000095367431640625</ele>
        <time>2022-11-01T09:00:54.000Z</time>
      </trkpt>
      <trkpt lat="42.44344267062842845916748046875" lon="-8.64928789436817169189453125">
        <ele>6.19999980926513671875</ele>
        <time>2022-11-01T09:00:55.000Z</time>
      </trkpt>
      <trkpt lat="42.44334527291357517242431640625" lon="-8.649218492209911346435546875">
        <ele>6</ele>
        <time>2022-11-01T09:00:56.000Z</time>
      </trkpt>
      <trkpt lat="42.44324536062777042388916015625" lon="-8.64914481528103351593017578125">
        <ele>5.80000019073486328125</ele>
        <time>2022-11-01T09:00:57.000Z</time>
      </trkpt>
      <trkpt lat="42.44314067065715789794921875" lon="-8.649084381759166717529296875">
        <ele>5.599999904632568359375</ele>
        <time>2022-11-01T09:00:58.000Z</time>
      </trkpt>
      <trkpt lat="42.44302994571626186370849609375" lon="-8.649036772549152374267578125">
        <ele>5.400000095367431640625</ele>
        <time>2022-11-01T09:00:59.000Z</time>
      </trkpt>
      <trkpt lat="42.4429158680140972137451171875" lon="-8.649000227451324462890625">
        <ele>5.19999980926513671875</ele>
        <time>2022-11-01T09:01:00.000Z</time>
      </trkpt>
      <trkpt lat="42.44280095212161540985107421875" lon="-8.6489752493798732757568359375">
        <ele>4.599999904632568359375</ele>
        <time>2022-11-01T09:01:01.000Z</time>
      </trkpt>
      <trkpt lat="42.442683689296245574951171875" lon="-8.64895655773580074310302734375">
        <ele>4.19999980926513671875</ele>
        <time>2022-11-01T09:01:02.000Z</time>
      </trkpt>
      <trkpt lat="42.4425685219466686248779296875" lon="-8.64894591271877288818359375">
        <ele>3.400000095367431640625</ele>
        <time>2022-11-01T09:01:03.000Z</time>
      </trkpt>
      <trkpt lat="42.44245226494967937469482421875" lon="-8.64894113503396511077880859375">
        <ele>3</ele>
        <time>2022-11-01T09:01:04.000Z</time>
      </trkpt>
      <trkpt lat="42.44233869016170501708984375" lon="-8.6489430628716945648193359375">
        <ele>2.599999904632568359375</ele>
        <time>2022-11-01T09:01:05.000Z</time>
      </trkpt>
      <trkpt lat="42.44224841706454753875732421875" lon="-8.6489450745284557342529296875">
        <ele>2.400000095367431640625</ele>
        <time>2022-11-01T09:01:06.000Z</time>
      </trkpt>
      <trkpt lat="42.44211128912866115570068359375" lon="-8.64895052276551723480224609375">
        <ele>2.2000000476837158203125</ele>
        <time>2022-11-01T09:01:07.000Z</time>
      </trkpt>
      <trkpt lat="42.44199427776038646697998046875" lon="-8.64896393381059169769287109375">
        <ele>2</ele>
        <time>2022-11-01T09:01:08.000Z</time>
      </trkpt>
      <trkpt lat="42.44188045151531696319580078125" lon="-8.64898958243429660797119140625">
        <ele>2</ele>
        <time>2022-11-01T09:01:09.000Z</time>
      </trkpt>
      <trkpt lat="42.4417668767273426055908203125" lon="-8.64902059547603130340576171875">
        <ele>1.60000002384185791015625</ele>
        <time>2022-11-01T09:01:10.000Z</time>
      </trkpt>
      <trkpt lat="42.44165279902517795562744140625" lon="-8.64905714057385921478271484375">
        <ele>1.2000000476837158203125</ele>
        <time>2022-11-01T09:01:11.000Z</time>
      </trkpt>
      <trkpt lat="42.4415392242372035980224609375" lon="-8.64909745752811431884765625">
        <ele>0.60000002384185791015625</ele>
        <time>2022-11-01T09:01:12.000Z</time>
      </trkpt>
      <trkpt lat="42.44142808020114898681640625" lon="-8.64914448000490665435791015625">
        <ele>0.60000002384185791015625</ele>
        <time>2022-11-01T09:01:13.000Z</time>
      </trkpt>
      <trkpt lat="42.4413192830979824066162109375" lon="-8.64919963292777538299560546875">
        <ele>0.20000000298023223876953125</ele>
        <time>2022-11-01T09:01:14.000Z</time>
      </trkpt>
      <trkpt lat="42.44121492840349674224853515625" lon="-8.64926048554480075836181640625">
        <ele>0.20000000298023223876953125</ele>
        <time>2022-11-01T09:01:15.000Z</time>
      </trkpt>
      <trkpt lat="42.44111283682286739349365234375" lon="-8.649325110018253326416015625">
        <ele>0</ele>
        <time>2022-11-01T09:01:16.000Z</time>
      </trkpt>
      <trkpt lat="42.4410130083560943603515625" lon="-8.6493960209190845489501953125">
        <ele>-0.20000000298023223876953125</ele>
        <time>2022-11-01T09:01:17.000Z</time>
      </trkpt>
      <trkpt lat="42.44091418571770191192626953125" lon="-8.649472631514072418212890625">
        <ele>-0.800000011920928955078125</ele>
        <time>2022-11-01T09:01:18.000Z</time>
      </trkpt>
      <trkpt lat="42.44081745855510234832763671875" lon="-8.649551086127758026123046875">
        <ele>-1.2000000476837158203125</ele>
        <time>2022-11-01T09:01:19.000Z</time>
      </trkpt>
      <trkpt lat="42.440722994506359100341796875" lon="-8.64963121712207794189453125">
        <ele>-1.39999997615814208984375</ele>
        <time>2022-11-01T09:01:20.000Z</time>
      </trkpt>
      <trkpt lat="42.44062970392405986785888671875" lon="-8.64971042610704898834228515625">
        <ele>-1.60000002384185791015625</ele>
        <time>2022-11-01T09:01:21.000Z</time>
      </trkpt>
      <trkpt lat="42.44053800590336322784423828125" lon="-8.649793155491352081298828125">
        <ele>-1.7999999523162841796875</ele>
        <time>2022-11-01T09:01:22.000Z</time>
      </trkpt>
      <trkpt lat="42.44044505059719085693359375" lon="-8.64987387321889400482177734375">
        <ele>-2.2000000476837158203125</ele>
        <time>2022-11-01T09:01:23.000Z</time>
      </trkpt>
      <trkpt lat="42.4403533525764942169189453125" lon="-8.6499519087374210357666015625">
        <ele>-2.2000000476837158203125</ele>
        <time>2022-11-01T09:01:24.000Z</time>
      </trkpt>
      <trkpt lat="42.440263330936431884765625" lon="-8.65003061480820178985595703125">
        <ele>-2.599999904632568359375</ele>
        <time>2022-11-01T09:01:25.000Z</time>
      </trkpt>
      <trkpt lat="42.4401746504008769989013671875" lon="-8.65010906942188739776611328125">
        <ele>-2.599999904632568359375</ele>
        <time>2022-11-01T09:01:26.000Z</time>
      </trkpt>
      <trkpt lat="42.4400858022272586822509765625" lon="-8.65018551237881183624267578125">
        <ele>-2.599999904632568359375</ele>
        <time>2022-11-01T09:01:27.000Z</time>
      </trkpt>
      <trkpt lat="42.4399991333484649658203125" lon="-8.65026346407830715179443359375">
        <ele>-2.599999904632568359375</ele>
        <time>2022-11-01T09:01:28.000Z</time>
      </trkpt>
      <trkpt lat="42.4399151466786861419677734375" lon="-8.6503428407013416290283203125">
        <ele>-2.599999904632568359375</ele>
        <time>2022-11-01T09:01:29.000Z</time>
      </trkpt>
      <trkpt lat="42.43983157910406589508056640625" lon="-8.6504206247627735137939453125">
        <ele>-2.7999999523162841796875</ele>
        <time>2022-11-01T09:01:30.000Z</time>
      </trkpt>
      <trkpt lat="42.43975102901458740234375" lon="-8.6505004204809665679931640625">
        <ele>-2.7999999523162841796875</ele>
        <time>2022-11-01T09:01:31.000Z</time>
      </trkpt>
      <trkpt lat="42.43967249058187007904052734375" lon="-8.6505825631320476531982421875">
        <ele>-2.7999999523162841796875</ele>
        <time>2022-11-01T09:01:32.000Z</time>
      </trkpt>
      <trkpt lat="42.43959453888237476348876953125" lon="-8.65066395141184329986572265625">
        <ele>-2.7999999523162841796875</ele>
        <time>2022-11-01T09:01:33.000Z</time>
      </trkpt>
      <trkpt lat="42.4395201914012432098388671875" lon="-8.65074793808162212371826171875">
        <ele>-2.7999999523162841796875</ele>
        <time>2022-11-01T09:01:34.000Z</time>
      </trkpt>
      <trkpt lat="42.43944534100592136383056640625" lon="-8.65083091892302036285400390625">
        <ele>-2.599999904632568359375</ele>
        <time>2022-11-01T09:01:35.000Z</time>
      </trkpt>
      <trkpt lat="42.4393730051815509796142578125" lon="-8.65091624669730663299560546875">
        <ele>-2.599999904632568359375</ele>
        <time>2022-11-01T09:01:36.000Z</time>
      </trkpt>
      <trkpt lat="42.4393046088516712188720703125" lon="-8.6510051786899566650390625">
        <ele>-2.599999904632568359375</ele>
        <time>2022-11-01T09:01:37.000Z</time>
      </trkpt>
      <trkpt lat="42.43923746980726718902587890625" lon="-8.65109595470130443572998046875">
        <ele>-2.599999904632568359375</ele>
        <time>2022-11-01T09:01:38.000Z</time>
      </trkpt>
      <trkpt lat="42.43917225860059261322021484375" lon="-8.65118832327425479888916015625">
        <ele>-2.599999904632568359375</ele>
        <time>2022-11-01T09:01:39.000Z</time>
      </trkpt>
      <trkpt lat="42.4391054548323154449462890625" lon="-8.65127901546657085418701171875">
        <ele>-2.599999904632568359375</ele>
        <time>2022-11-01T09:01:40.000Z</time>
      </trkpt>
      <trkpt lat="42.4390387348830699920654296875" lon="-8.65137037821114063262939453125">
        <ele>-2.599999904632568359375</ele>
        <time>2022-11-01T09:01:41.000Z</time>
      </trkpt>
      <trkpt lat="42.4389730207622051239013671875" lon="-8.65146140567958354949951171875">
        <ele>-2.599999904632568359375</ele>
        <time>2022-11-01T09:01:42.000Z</time>
      </trkpt>
      <trkpt lat="42.43890755809843540191650390625" lon="-8.651554025709629058837890625">
        <ele>-2.599999904632568359375</ele>
        <time>2022-11-01T09:01:43.000Z</time>
      </trkpt>
      <trkpt lat="42.43884167633950710296630859375" lon="-8.6516447179019451141357421875">
        <ele>-2.400000095367431640625</ele>
        <time>2022-11-01T09:01:44.000Z</time>
      </trkpt>
      <trkpt lat="42.43877512402832508087158203125" lon="-8.65173214115202426910400390625">
        <ele>-2.400000095367431640625</ele>
        <time>2022-11-01T09:01:45.000Z</time>
      </trkpt>
      <trkpt lat="42.43872416205704212188720703125" lon="-8.65180472843348979949951171875">
        <ele>-2.400000095367431640625</ele>
        <time>2022-11-01T09:01:46.000Z</time>
      </trkpt>
      <trkpt lat="42.43866146542131900787353515625" lon="-8.65189458243548870086669921875">
        <ele>-2.400000095367431640625</ele>
        <time>2022-11-01T09:01:47.000Z</time>
      </trkpt>
      <trkpt lat="42.438585944473743438720703125" lon="-8.65200036205351352691650390625">
        <ele>-2.400000095367431640625</ele>
        <time>2022-11-01T09:01:48.000Z</time>
      </trkpt>
      <trkpt lat="42.4385237507522106170654296875" lon="-8.65208543837070465087890625">
        <ele>-2.400000095367431640625</ele>
        <time>2022-11-01T09:01:49.000Z</time>
      </trkpt>
      <trkpt lat="42.43845887482166290283203125" lon="-8.6521677486598491668701171875">
        <ele>-2.400000095367431640625</ele>
        <time>2022-11-01T09:01:50.000Z</time>
      </trkpt>
      <trkpt lat="42.4384059011936187744140625" lon="-8.65223430097103118896484375">
        <ele>-2.400000095367431640625</ele>
        <time>2022-11-01T09:01:51.000Z</time>
      </trkpt>
      <trkpt lat="42.4383383430540561676025390625" lon="-8.65231585688889026641845703125">
        <ele>-2.2000000476837158203125</ele>
        <time>2022-11-01T09:01:52.000Z</time>
      </trkpt>
      <trkpt lat="42.4382578767836093902587890625" lon="-8.65241275168955326080322265625">
        <ele>-2.2000000476837158203125</ele>
        <time>2022-11-01T09:01:53.000Z</time>
      </trkpt>
      <trkpt lat="42.438188977539539337158203125" lon="-8.65249103866517543792724609375">
        <ele>-2</ele>
        <time>2022-11-01T09:01:54.000Z</time>
      </trkpt>
      <trkpt lat="42.43811647407710552215576171875" lon="-8.6525643803179264068603515625">
        <ele>-1.7999999523162841796875</ele>
        <time>2022-11-01T09:01:55.000Z</time>
      </trkpt>
      <trkpt lat="42.43804254569113254547119140625" lon="-8.6526321060955524444580078125">
        <ele>-1.7999999523162841796875</ele>
        <time>2022-11-01T09:01:56.000Z</time>
      </trkpt>
      <trkpt lat="42.43796761147677898406982421875" lon="-8.6526948027312755584716796875">
        <ele>-1.7999999523162841796875</ele>
        <time>2022-11-01T09:01:57.000Z</time>
      </trkpt>
      <trkpt lat="42.4378907494246959686279296875" lon="-8.65275138057768344879150390625">
        <ele>-1.7999999523162841796875</ele>
        <time>2022-11-01T09:01:58.000Z</time>
      </trkpt>
      <trkpt lat="42.4378136359155178070068359375" lon="-8.6528044380247592926025390625">
        <ele>-1.7999999523162841796875</ele>
        <time>2022-11-01T09:01:59.000Z</time>
      </trkpt>
      <trkpt lat="42.4377499334514141082763671875" lon="-8.6528443358838558197021484375">
        <ele>-1.60000002384185791015625</ele>
        <time>2022-11-01T09:02:00.000Z</time>
      </trkpt>
      <trkpt lat="42.43766955099999904632568359375" lon="-8.65289018489420413970947265625">
        <ele>-1.60000002384185791015625</ele>
        <time>2022-11-01T09:02:01.000Z</time>
      </trkpt>
      <trkpt lat="42.437570393085479736328125" lon="-8.6529398895800113677978515625">
        <ele>-1.60000002384185791015625</ele>
        <time>2022-11-01T09:02:02.000Z</time>
      </trkpt>
      <trkpt lat="42.43748766370117664337158203125" lon="-8.65297953598201274871826171875">
        <ele>-1.60000002384185791015625</ele>
        <time>2022-11-01T09:02:03.000Z</time>
      </trkpt>
      <trkpt lat="42.437405101954936981201171875" lon="-8.6530196852982044219970703125">
        <ele>-1.60000002384185791015625</ele>
        <time>2022-11-01T09:02:04.000Z</time>
      </trkpt>
      <trkpt lat="42.43733863346278667449951171875" lon="-8.653049357235431671142578125">
        <ele>-1.60000002384185791015625</ele>
        <time>2022-11-01T09:02:05.000Z</time>
      </trkpt>
      <trkpt lat="42.43725590407848358154296875" lon="-8.65308590233325958251953125">
        <ele>-1.60000002384185791015625</ele>
        <time>2022-11-01T09:02:06.000Z</time>
      </trkpt>
      <trkpt lat="42.43715465068817138671875" lon="-8.65312672220170497894287109375">
        <ele>-1.60000002384185791015625</ele>
        <time>2022-11-01T09:02:07.000Z</time>
      </trkpt>
      <trkpt lat="42.4370706640183925628662109375" lon="-8.6531584896147251129150390625">
        <ele>-1.7999999523162841796875</ele>
        <time>2022-11-01T09:02:08.000Z</time>
      </trkpt>
      <trkpt lat="42.43698843754827976226806640625" lon="-8.6531910113990306854248046875">
        <ele>-1.60000002384185791015625</ele>
        <time>2022-11-01T09:02:09.000Z</time>
      </trkpt>
      <trkpt lat="42.4369253218173980712890625" lon="-8.65321791730821132659912109375">
        <ele>-1.60000002384185791015625</ele>
        <time>2022-11-01T09:02:10.000Z</time>
      </trkpt>
      <trkpt lat="42.4368473701179027557373046875" lon="-8.65325345657765865325927734375">
        <ele>-1.60000002384185791015625</ele>
        <time>2022-11-01T09:02:11.000Z</time>
      </trkpt>
      <trkpt lat="42.436770759522914886474609375" lon="-8.65328949876129627227783203125">
        <ele>-1.39999997615814208984375</ele>
        <time>2022-11-01T09:02:12.000Z</time>
      </trkpt>
      <trkpt lat="42.436694987118244171142578125" lon="-8.653324954211711883544921875">
        <ele>-1.39999997615814208984375</ele>
        <time>2022-11-01T09:02:13.000Z</time>
      </trkpt>
      <trkpt lat="42.43660680949687957763671875" lon="-8.65336887538433074951171875">
        <ele>-1.2000000476837158203125</ele>
        <time>2022-11-01T09:02:14.000Z</time>
      </trkpt>
      <trkpt lat="42.436534725129604339599609375" lon="-8.65340600721538066864013671875">
        <ele>-1</ele>
        <time>2022-11-01T09:02:15.000Z</time>
      </trkpt>
      <trkpt lat="42.43646389804780483245849609375" lon="-8.65344406105577945709228515625">
        <ele>-1</ele>
        <time>2022-11-01T09:02:16.000Z</time>
      </trkpt>
      <trkpt lat="42.43639617227017879486083984375" lon="-8.6534803546965122222900390625">
        <ele>-0.800000011920928955078125</ele>
        <time>2022-11-01T09:02:17.000Z</time>
      </trkpt>
      <trkpt lat="42.4363293685019016265869140625" lon="-8.6535185761749744415283203125">
        <ele>-0.4000000059604644775390625</ele>
        <time>2022-11-01T09:02:18.000Z</time>
      </trkpt>
      <trkpt lat="42.43626323528587818145751953125" lon="-8.65355654619634151458740234375">
        <ele>-0.20000000298023223876953125</ele>
        <time>2022-11-01T09:02:19.000Z</time>
      </trkpt>
      <trkpt lat="42.4361999519169330596923828125" lon="-8.653596527874469757080078125">
        <ele>0.20000000298023223876953125</ele>
        <time>2022-11-01T09:02:20.000Z</time>
      </trkpt>
      <trkpt lat="42.43613717146217823028564453125" lon="-8.65363282151520252227783203125">
        <ele>0.4000000059604644775390625</ele>
        <time>2022-11-01T09:02:21.000Z</time>
      </trkpt>
      <trkpt lat="42.43607514537870883941650390625" lon="-8.6536686122417449951171875">
        <ele>0.800000011920928955078125</ele>
        <time>2022-11-01T09:02:22.000Z</time>
      </trkpt>
      <trkpt lat="42.436016388237476348876953125" lon="-8.65370574407279491424560546875">
        <ele>0.800000011920928955078125</ele>
        <time>2022-11-01T09:02:23.000Z</time>
      </trkpt>
      <trkpt lat="42.4359597265720367431640625" lon="-8.65374279208481311798095703125">
        <ele>1.2000000476837158203125</ele>
        <time>2022-11-01T09:02:24.000Z</time>
      </trkpt>
      <trkpt lat="42.43590415455400943756103515625" lon="-8.653780929744243621826171875">
        <ele>1.39999997615814208984375</ele>
        <time>2022-11-01T09:02:25.000Z</time>
      </trkpt>
      <trkpt lat="42.435846067965030670166015625" lon="-8.6538169719278812408447265625">
        <ele>1.7999999523162841796875</ele>
        <time>2022-11-01T09:02:26.000Z</time>
      </trkpt>
      <trkpt lat="42.4357905797660350799560546875" lon="-8.65385360084474086761474609375">
        <ele>2</ele>
        <time>2022-11-01T09:02:27.000Z</time>
      </trkpt>
      <trkpt lat="42.43573509156703948974609375" lon="-8.653890900313854217529296875">
        <ele>2.599999904632568359375</ele>
        <time>2022-11-01T09:02:28.000Z</time>
      </trkpt>
      <trkpt lat="42.43568287231028079986572265625" lon="-8.65392887033522129058837890625">
        <ele>3</ele>
        <time>2022-11-01T09:02:29.000Z</time>
      </trkpt>
      <trkpt lat="42.43562989868223667144775390625" lon="-8.65396675653755664825439453125">
        <ele>3.2000000476837158203125</ele>
        <time>2022-11-01T09:02:30.000Z</time>
      </trkpt>
      <trkpt lat="42.4355760030448436737060546875" lon="-8.65400112234055995941162109375">
        <ele>3.400000095367431640625</ele>
        <time>2022-11-01T09:02:31.000Z</time>
      </trkpt>
      <trkpt lat="42.43552051484584808349609375" lon="-8.65403473377227783203125">
        <ele>3.599999904632568359375</ele>
        <time>2022-11-01T09:02:32.000Z</time>
      </trkpt>
      <trkpt lat="42.435467541217803955078125" lon="-8.65406800992786884307861328125">
        <ele>4</ele>
        <time>2022-11-01T09:02:33.000Z</time>
      </trkpt>
      <trkpt lat="42.4354147352278232574462890625" lon="-8.65410002879798412322998046875">
        <ele>4</ele>
        <time>2022-11-01T09:02:34.000Z</time>
      </trkpt>
      <trkpt lat="42.43536226451396942138671875" lon="-8.654130958020687103271484375">
        <ele>4.400000095367431640625</ele>
        <time>2022-11-01T09:02:35.000Z</time>
      </trkpt>
      <trkpt lat="42.43531004525721073150634765625" lon="-8.6541602946817874908447265625">
        <ele>4.599999904632568359375</ele>
        <time>2022-11-01T09:02:36.000Z</time>
      </trkpt>
      <trkpt lat="42.435258328914642333984375" lon="-8.65419005043804645538330078125">
        <ele>4.80000019073486328125</ele>
        <time>2022-11-01T09:02:37.000Z</time>
      </trkpt>
      <trkpt lat="42.43520778603851795196533203125" lon="-8.65422056056559085845947265625">
        <ele>5</ele>
        <time>2022-11-01T09:02:38.000Z</time>
      </trkpt>
      <trkpt lat="42.43515573441982269287109375" lon="-8.6542501486837863922119140625">
        <ele>5.19999980926513671875</ele>
        <time>2022-11-01T09:02:39.000Z</time>
      </trkpt>
      <trkpt lat="42.4351052753627300262451171875" lon="-8.65427973680198192596435546875">
        <ele>5.599999904632568359375</ele>
        <time>2022-11-01T09:02:40.000Z</time>
      </trkpt>
      <trkpt lat="42.435055486857891082763671875" lon="-8.654305636882781982421875">
        <ele>5.80000019073486328125</ele>
        <time>2022-11-01T09:02:41.000Z</time>
      </trkpt>
      <trkpt lat="42.435006536543369293212890625" lon="-8.65433069877326488494873046875">
        <ele>6.19999980926513671875</ele>
        <time>2022-11-01T09:02:42.000Z</time>
      </trkpt>
      <trkpt lat="42.43495800532400608062744140625" lon="-8.65435249172151088714599609375">
        <ele>6.19999980926513671875</ele>
        <time>2022-11-01T09:02:43.000Z</time>
      </trkpt>
      <trkpt lat="42.43490855209529399871826171875" lon="-8.65436992608010768890380859375">
        <ele>6.80000019073486328125</ele>
        <time>2022-11-01T09:02:44.000Z</time>
      </trkpt>
      <trkpt lat="42.43485909886658191680908203125" lon="-8.65438618697226047515869140625">
        <ele>7</ele>
        <time>2022-11-01T09:02:45.000Z</time>
      </trkpt>
      <trkpt lat="42.4348090589046478271484375" lon="-8.65440295077860355377197265625">
        <ele>7.19999980926513671875</ele>
        <time>2022-11-01T09:02:46.000Z</time>
      </trkpt>
      <trkpt lat="42.4347589351236820220947265625" lon="-8.65441820584237575531005859375">
        <ele>7.19999980926513671875</ele>
        <time>2022-11-01T09:02:47.000Z</time>
      </trkpt>
      <trkpt lat="42.43470772169530391693115234375" lon="-8.654430024325847625732421875">
        <ele>7.599999904632568359375</ele>
        <time>2022-11-01T09:02:48.000Z</time>
      </trkpt>
      <trkpt lat="42.4346543289721012115478515625" lon="-8.6544379033148288726806640625">
        <ele>7.80000019073486328125</ele>
        <time>2022-11-01T09:02:49.000Z</time>
      </trkpt>
      <trkpt lat="42.43460043333470821380615234375" lon="-8.65444670431315898895263671875">
        <ele>8.19999980926513671875</ele>
        <time>2022-11-01T09:02:50.000Z</time>
      </trkpt>
      <trkpt lat="42.43454628624022006988525390625" lon="-8.65445625968277454376220703125">
        <ele>8.3999996185302734375</ele>
        <time>2022-11-01T09:02:51.000Z</time>
      </trkpt>
      <trkpt lat="42.43449381552636623382568359375" lon="-8.65446698851883411407470703125">
        <ele>8.80000019073486328125</ele>
        <time>2022-11-01T09:02:52.000Z</time>
      </trkpt>
      <trkpt lat="42.4344417639076709747314453125" lon="-8.65447520278394222259521484375">
        <ele>9</ele>
        <time>2022-11-01T09:02:53.000Z</time>
      </trkpt>
      <trkpt lat="42.434390969574451446533203125" lon="-8.65448123775422573089599609375">
        <ele>9</ele>
        <time>2022-11-01T09:02:54.000Z</time>
      </trkpt>
      <trkpt lat="42.434341348707675933837890625" lon="-8.65448676981031894683837890625">
        <ele>9.19999980926513671875</ele>
        <time>2022-11-01T09:02:55.000Z</time>
      </trkpt>
      <trkpt lat="42.43429005146026611328125" lon="-8.65448744036257266998291015625">
        <ele>9.3999996185302734375</ele>
        <time>2022-11-01T09:02:56.000Z</time>
      </trkpt>
      <trkpt lat="42.43423984386026859283447265625" lon="-8.65448492579162120819091796875">
        <ele>9.3999996185302734375</ele>
        <time>2022-11-01T09:02:57.000Z</time>
      </trkpt>
      <trkpt lat="42.43419223465025424957275390625" lon="-8.654472939670085906982421875">
        <ele>9.6000003814697265625</ele>
        <time>2022-11-01T09:02:58.000Z</time>
      </trkpt>
      <trkpt lat="42.4341497384011745452880859375" lon="-8.65445273928344249725341796875">
        <ele>9.6000003814697265625</ele>
        <time>2022-11-01T09:02:59.000Z</time>
      </trkpt>
      <trkpt lat="42.43411361239850521087646484375" lon="-8.6544177867472171783447265625">
        <ele>9.80000019073486328125</ele>
        <time>2022-11-01T09:03:00.000Z</time>
      </trkpt>
      <trkpt lat="42.434088550508022308349609375" lon="-8.6543651483952999114990234375">
        <ele>10</ele>
        <time>2022-11-01T09:03:01.000Z</time>
      </trkpt>
      <trkpt lat="42.43407388217747211456298828125" lon="-8.6543027870357036590576171875">
        <ele>10</ele>
        <time>2022-11-01T09:03:02.000Z</time>
      </trkpt>
      <trkpt lat="42.43406265042722225189208984375" lon="-8.654232211410999298095703125">
        <ele>10</ele>
        <time>2022-11-01T09:03:03.000Z</time>
      </trkpt>
      <trkpt lat="42.43405443616211414337158203125" lon="-8.65417093969881534576416015625">
        <ele>10</ele>
        <time>2022-11-01T09:03:04.000Z</time>
      </trkpt>
      <trkpt lat="42.434043623507022857666015625" lon="-8.65409466437995433807373046875">
        <ele>10</ele>
        <time>2022-11-01T09:03:05.000Z</time>
      </trkpt>
      <trkpt lat="42.4340300448238849639892578125" lon="-8.6540171317756175994873046875">
        <ele>9.80000019073486328125</ele>
        <time>2022-11-01T09:03:06.000Z</time>
      </trkpt>
      <trkpt lat="42.43400498293340206146240234375" lon="-8.653923757374286651611328125">
        <ele>9.80000019073486328125</ele>
        <time>2022-11-01T09:03:07.000Z</time>
      </trkpt>
      <trkpt lat="42.43398235179483890533447265625" lon="-8.65386315621435642242431640625">
        <ele>9.80000019073486328125</ele>
        <time>2022-11-01T09:03:08.000Z</time>
      </trkpt>
      <trkpt lat="42.433949410915374755859375" lon="-8.65379023365676403045654296875">
        <ele>9.80000019073486328125</ele>
        <time>2022-11-01T09:03:09.000Z</time>
      </trkpt>
      <trkpt lat="42.43391009978950023651123046875" lon="-8.65372083149850368499755859375">
        <ele>9.6000003814697265625</ele>
        <time>2022-11-01T09:03:10.000Z</time>
      </trkpt>
      <trkpt lat="42.43385511450469493865966796875" lon="-8.6536429636180400848388671875">
        <ele>9.6000003814697265625</ele>
        <time>2022-11-01T09:03:11.000Z</time>
      </trkpt>
      <trkpt lat="42.43380364961922168731689453125" lon="-8.65358387120068073272705078125">
        <ele>9.6000003814697265625</ele>
        <time>2022-11-01T09:03:12.000Z</time>
      </trkpt>
      <trkpt lat="42.43376106955111026763916015625" lon="-8.65354120731353759765625">
        <ele>9.3999996185302734375</ele>
        <time>2022-11-01T09:03:13.000Z</time>
      </trkpt>
      <trkpt lat="42.43370658718049526214599609375" lon="-8.65349150262773036956787109375">
        <ele>9.19999980926513671875</ele>
        <time>2022-11-01T09:03:14.000Z</time>
      </trkpt>
      <trkpt lat="42.433638274669647216796875" lon="-8.65343115292489528656005859375">
        <ele>9</ele>
        <time>2022-11-01T09:03:15.000Z</time>
      </trkpt>
      <trkpt lat="42.43359108455479145050048828125" lon="-8.6533878184854984283447265625">
        <ele>9</ele>
        <time>2022-11-01T09:03:16.000Z</time>
      </trkpt>
      <trkpt lat="42.433521263301372528076171875" lon="-8.65332461893558502197265625">
        <ele>9</ele>
        <time>2022-11-01T09:03:17.000Z</time>
      </trkpt>
      <trkpt lat="42.43347357027232646942138671875" lon="-8.653282709419727325439453125">
        <ele>9</ele>
        <time>2022-11-01T09:03:18.000Z</time>
      </trkpt>
      <trkpt lat="42.4334121309220790863037109375" lon="-8.65323099307715892791748046875">
        <ele>9</ele>
        <time>2022-11-01T09:03:19.000Z</time>
      </trkpt>
      <trkpt lat="42.4333524517714977264404296875" lon="-8.65318137221038341522216796875">
        <ele>9</ele>
        <time>2022-11-01T09:03:20.000Z</time>
      </trkpt>
      <trkpt lat="42.43329252116382122039794921875" lon="-8.65312839858233928680419921875">
        <ele>9</ele>
        <time>2022-11-01T09:03:21.000Z</time>
      </trkpt>
      <trkpt lat="42.43323351256549358367919921875" lon="-8.65307525731623172760009765625">
        <ele>9</ele>
        <time>2022-11-01T09:03:22.000Z</time>
      </trkpt>
      <trkpt lat="42.43317224085330963134765625" lon="-8.65301960147917270660400390625">
        <ele>9</ele>
        <time>2022-11-01T09:03:23.000Z</time>
      </trkpt>
      <trkpt lat="42.433109544217586517333984375" lon="-8.6529636941850185394287109375">
        <ele>9</ele>
        <time>2022-11-01T09:03:24.000Z</time>
      </trkpt>
      <trkpt lat="42.4330453388392925262451171875" lon="-8.65290711633861064910888671875">
        <ele>8.80000019073486328125</ele>
        <time>2022-11-01T09:03:25.000Z</time>
      </trkpt>
      <trkpt lat="42.4329719133675098419189453125" lon="-8.65284106694161891937255859375">
        <ele>8.80000019073486328125</ele>
        <time>2022-11-01T09:03:26.000Z</time>
      </trkpt>
      <trkpt lat="42.43291013874113559722900390625" lon="-8.65278256125748157501220703125">
        <ele>8.80000019073486328125</ele>
        <time>2022-11-01T09:03:27.000Z</time>
      </trkpt>
      <trkpt lat="42.43286202661693096160888671875" lon="-8.65273914299905300140380859375">
        <ele>9.19999980926513671875</ele>
        <time>2022-11-01T09:03:28.000Z</time>
      </trkpt>
      <trkpt lat="42.43280285038053989410400390625" lon="-8.65268985740840435028076171875">
        <ele>9.19999980926513671875</ele>
        <time>2022-11-01T09:03:29.000Z</time>
      </trkpt>
      <trkpt lat="42.43272825144231319427490234375" lon="-8.652626574039459228515625">
        <ele>9</ele>
        <time>2022-11-01T09:03:30.000Z</time>
      </trkpt>
      <trkpt lat="42.4326671473681926727294921875" lon="-8.6525720916688442230224609375">
        <ele>9</ele>
        <time>2022-11-01T09:03:31.000Z</time>
      </trkpt>
      <trkpt lat="42.43260939605534076690673828125" lon="-8.65252154879271984100341796875">
        <ele>9</ele>
        <time>2022-11-01T09:03:32.000Z</time>
      </trkpt>
      <trkpt lat="42.4325491301715373992919921875" lon="-8.65247159264981746673583984375">
        <ele>9</ele>
        <time>2022-11-01T09:03:33.000Z</time>
      </trkpt>
      <trkpt lat="42.43249959312379360198974609375" lon="-8.65242549218237400054931640625">
        <ele>9.19999980926513671875</ele>
        <time>2022-11-01T09:03:34.000Z</time>
      </trkpt>
      <trkpt lat="42.43243706412613391876220703125" lon="-8.65236983634531497955322265625">
        <ele>9.19999980926513671875</ele>
        <time>2022-11-01T09:03:35.000Z</time>
      </trkpt>
      <trkpt lat="42.43236078880727291107177734375" lon="-8.6523052118718624114990234375">
        <ele>9.19999980926513671875</ele>
        <time>2022-11-01T09:03:36.000Z</time>
      </trkpt>
      <trkpt lat="42.43230915628373622894287109375" lon="-8.65226422436535358428955078125">
        <ele>9.19999980926513671875</ele>
        <time>2022-11-01T09:03:37.000Z</time>
      </trkpt>
      <trkpt lat="42.432243861258029937744140625" lon="-8.65221644751727581024169921875">
        <ele>9.19999980926513671875</ele>
        <time>2022-11-01T09:03:38.000Z</time>
      </trkpt>
      <trkpt lat="42.43216230534017086029052734375" lon="-8.6521638929843902587890625">
        <ele>9.3999996185302734375</ele>
        <time>2022-11-01T09:03:39.000Z</time>
      </trkpt>
      <trkpt lat="42.43210740387439727783203125" lon="-8.6521338857710361480712890625">
        <ele>9.3999996185302734375</ele>
        <time>2022-11-01T09:03:40.000Z</time>
      </trkpt>
      <trkpt lat="42.4320244230329990386962890625" lon="-8.6520914733409881591796875">
        <ele>9.3999996185302734375</ele>
        <time>2022-11-01T09:03:41.000Z</time>
      </trkpt>
      <trkpt lat="42.431968264281749725341796875" lon="-8.65206800401210784912109375">
        <ele>9.3999996185302734375</ele>
        <time>2022-11-01T09:03:42.000Z</time>
      </trkpt>
      <trkpt lat="42.43190045468509197235107421875" lon="-8.6520349793136119842529296875">
        <ele>9.6000003814697265625</ele>
        <time>2022-11-01T09:03:43.000Z</time>
      </trkpt>
      <trkpt lat="42.43183708749711513519287109375" lon="-8.65200052969157695770263671875">
        <ele>9.6000003814697265625</ele>
        <time>2022-11-01T09:03:44.000Z</time>
      </trkpt>
      <trkpt lat="42.43176282383501529693603515625" lon="-8.65196264348924160003662109375">
        <ele>9.6000003814697265625</ele>
        <time>2022-11-01T09:03:45.000Z</time>
      </trkpt>
      <trkpt lat="42.43170063011348247528076171875" lon="-8.65193733014166355133056640625">
        <ele>9.6000003814697265625</ele>
        <time>2022-11-01T09:03:46.000Z</time>
      </trkpt>
      <trkpt lat="42.4316495843231678009033203125" lon="-8.6519199796020984649658203125">
        <ele>9.6000003814697265625</ele>
        <time>2022-11-01T09:03:47.000Z</time>
      </trkpt>
      <trkpt lat="42.431586720049381256103515625" lon="-8.651892654597759246826171875">
        <ele>9.6000003814697265625</ele>
        <time>2022-11-01T09:03:48.000Z</time>
      </trkpt>
      <trkpt lat="42.4315265379846096038818359375" lon="-8.651864826679229736328125">
        <ele>9.80000019073486328125</ele>
        <time>2022-11-01T09:03:49.000Z</time>
      </trkpt>
      <trkpt lat="42.43145160377025604248046875" lon="-8.6518304608762264251708984375">
        <ele>9.80000019073486328125</ele>
        <time>2022-11-01T09:03:50.000Z</time>
      </trkpt>
      <trkpt lat="42.43139527738094329833984375" lon="-8.65180104039609432220458984375">
        <ele>9.80000019073486328125</ele>
        <time>2022-11-01T09:03:51.000Z</time>
      </trkpt>
      <trkpt lat="42.4313545413315296173095703125" lon="-8.65177673287689685821533203125">
        <ele>9.80000019073486328125</ele>
        <time>2022-11-01T09:03:52.000Z</time>
      </trkpt>
      <trkpt lat="42.431309111416339874267578125" lon="-8.65175418555736541748046875">
        <ele>9.80000019073486328125</ele>
        <time>2022-11-01T09:03:53.000Z</time>
      </trkpt>
      <trkpt lat="42.43126695044338703155517578125" lon="-8.65173448808491230010986328125">
        <ele>10</ele>
        <time>2022-11-01T09:03:54.000Z</time>
      </trkpt>
      <trkpt lat="42.43123141117393970489501953125" lon="-8.65171395242214202880859375">
        <ele>10</ele>
        <time>2022-11-01T09:03:55.000Z</time>
      </trkpt>
      <trkpt lat="42.43119033984839916229248046875" lon="-8.651685453951358795166015625">
        <ele>10</ele>
        <time>2022-11-01T09:03:56.000Z</time>
      </trkpt>
      <trkpt lat="42.4311329238116741180419921875" lon="-8.65164279006421566009521484375">
        <ele>10</ele>
        <time>2022-11-01T09:03:57.000Z</time>
      </trkpt>
      <trkpt lat="42.43107265792787075042724609375" lon="-8.65159819833934307098388671875">
        <ele>10.19999980926513671875</ele>
        <time>2022-11-01T09:03:58.000Z</time>
      </trkpt>
      <trkpt lat="42.43100426159799098968505859375" lon="-8.65155260078608989715576171875">
        <ele>10.19999980926513671875</ele>
        <time>2022-11-01T09:03:59.000Z</time>
      </trkpt>
      <trkpt lat="42.4309461750090122222900390625" lon="-8.65152225829660892486572265625">
        <ele>10.3999996185302734375</ele>
        <time>2022-11-01T09:04:00.000Z</time>
      </trkpt>
      <trkpt lat="42.4308928661048412322998046875" lon="-8.65149124525487422943115234375">
        <ele>10.6000003814697265625</ele>
        <time>2022-11-01T09:04:01.000Z</time>
      </trkpt>
      <trkpt lat="42.4308407306671142578125" lon="-8.65145185030996799468994140625">
        <ele>10.6000003814697265625</ele>
        <time>2022-11-01T09:04:02.000Z</time>
      </trkpt>
      <trkpt lat="42.43079312145709991455078125" lon="-8.651413209736347198486328125">
        <ele>10.6000003814697265625</ele>
        <time>2022-11-01T09:04:03.000Z</time>
      </trkpt>
      <trkpt lat="42.4307258985936641693115234375" lon="-8.651354201138019561767578125">
        <ele>10.6000003814697265625</ele>
        <time>2022-11-01T09:04:04.000Z</time>
      </trkpt>
      <trkpt lat="42.430668734014034271240234375" lon="-8.65129821002483367919921875">
        <ele>10.6000003814697265625</ele>
        <time>2022-11-01T09:04:05.000Z</time>
      </trkpt>
      <trkpt lat="42.43061651475727558135986328125" lon="-8.65123727358877658843994140625">
        <ele>10.3999996185302734375</ele>
        <time>2022-11-01T09:04:06.000Z</time>
      </trkpt>
      <trkpt lat="42.43056806735694408416748046875" lon="-8.65117021836340427398681640625">
        <ele>10.3999996185302734375</ele>
        <time>2022-11-01T09:04:07.000Z</time>
      </trkpt>
      <trkpt lat="42.43052146397531032562255859375" lon="-8.6511119641363620758056640625">
        <ele>10.3999996185302734375</ele>
        <time>2022-11-01T09:04:08.000Z</time>
      </trkpt>
      <trkpt lat="42.43048324249684810638427734375" lon="-8.65105270408093929290771484375">
        <ele>10.3999996185302734375</ele>
        <time>2022-11-01T09:04:09.000Z</time>
      </trkpt>
      <trkpt lat="42.43043982423841953277587890625" lon="-8.65099755115807056427001953125">
        <ele>10.19999980926513671875</ele>
        <time>2022-11-01T09:04:10.000Z</time>
      </trkpt>
      <trkpt lat="42.4303876049816608428955078125" lon="-8.65094072185456752777099609375">
        <ele>10.19999980926513671875</ele>
        <time>2022-11-01T09:04:11.000Z</time>
      </trkpt>
      <trkpt lat="42.430336140096187591552734375" lon="-8.65087936632335186004638671875">
        <ele>10</ele>
        <time>2022-11-01T09:04:12.000Z</time>
      </trkpt>
      <trkpt lat="42.4302873574197292327880859375" lon="-8.6508192680776119232177734375">
        <ele>10</ele>
        <time>2022-11-01T09:04:13.000Z</time>
      </trkpt>
      <trkpt lat="42.43023094721138477325439453125" lon="-8.6507535539567470550537109375">
        <ele>9.80000019073486328125</ele>
        <time>2022-11-01T09:04:14.000Z</time>
      </trkpt>
      <trkpt lat="42.43017629720270633697509765625" lon="-8.65071256645023822784423828125">
        <ele>9.6000003814697265625</ele>
        <time>2022-11-01T09:04:15.000Z</time>
      </trkpt>
      <trkpt lat="42.43011259473860263824462890625" lon="-8.650676272809505462646484375">
        <ele>9.19999980926513671875</ele>
        <time>2022-11-01T09:04:16.000Z</time>
      </trkpt>
      <trkpt lat="42.430043779313564300537109375" lon="-8.65065573714673519134521484375">
        <ele>9</ele>
        <time>2022-11-01T09:04:17.000Z</time>
      </trkpt>
      <trkpt lat="42.42998653091490268707275390625" lon="-8.650693707168102264404296875">
        <ele>8.80000019073486328125</ele>
        <time>2022-11-01T09:04:18.000Z</time>
      </trkpt>
      <trkpt lat="42.42993389256298542022705078125" lon="-8.65075631998479366302490234375">
        <ele>8.80000019073486328125</ele>
        <time>2022-11-01T09:04:19.000Z</time>
      </trkpt>
      <trkpt lat="42.429888881742954254150390625" lon="-8.65083293057978153228759765625">
        <ele>8.3999996185302734375</ele>
        <time>2022-11-01T09:04:20.000Z</time>
      </trkpt>
      <trkpt lat="42.42984990589320659637451171875" lon="-8.65091691724956035614013671875">
        <ele>8.19999980926513671875</ele>
        <time>2022-11-01T09:04:21.000Z</time>
      </trkpt>
      <trkpt lat="42.42981554009020328521728515625" lon="-8.65097994916141033172607421875">
        <ele>7.80000019073486328125</ele>
        <time>2022-11-01T09:04:22.000Z</time>
      </trkpt>
      <trkpt lat="42.42976575158536434173583984375" lon="-8.65106829442083835601806640625">
        <ele>7.19999980926513671875</ele>
        <time>2022-11-01T09:04:23.000Z</time>
      </trkpt>
      <trkpt lat="42.42971210740506649017333984375" lon="-8.65115295164287090301513671875">
        <ele>6.599999904632568359375</ele>
        <time>2022-11-01T09:04:24.000Z</time>
      </trkpt>
      <trkpt lat="42.42965091951191425323486328125" lon="-8.6512360163033008575439453125">
        <ele>6</ele>
        <time>2022-11-01T09:04:25.000Z</time>
      </trkpt>
      <trkpt lat="42.42957330308854579925537109375" lon="-8.65133282728493213653564453125">
        <ele>5.80000019073486328125</ele>
        <time>2022-11-01T09:04:26.000Z</time>
      </trkpt>
      <trkpt lat="42.42951982654631137847900390625" lon="-8.65139652974903583526611328125">
        <ele>5.400000095367431640625</ele>
        <time>2022-11-01T09:04:27.000Z</time>
      </trkpt>
      <trkpt lat="42.42944925092160701751708984375" lon="-8.65147414617240428924560546875">
        <ele>5</ele>
        <time>2022-11-01T09:04:28.000Z</time>
      </trkpt>
      <trkpt lat="42.42935637943446636199951171875" lon="-8.65157053805887699127197265625">
        <ele>4.599999904632568359375</ele>
        <time>2022-11-01T09:04:29.000Z</time>
      </trkpt>
      <trkpt lat="42.42927289567887783050537109375" lon="-8.651653937995433807373046875">
        <ele>4.19999980926513671875</ele>
        <time>2022-11-01T09:04:30.000Z</time>
      </trkpt>
      <trkpt lat="42.429203577339649200439453125" lon="-8.65171856246888637542724609375">
        <ele>3.400000095367431640625</ele>
        <time>2022-11-01T09:04:31.000Z</time>
      </trkpt>
      <trkpt lat="42.42911749519407749176025390625" lon="-8.6517942510545253753662109375">
        <ele>2.599999904632568359375</ele>
        <time>2022-11-01T09:04:32.000Z</time>
      </trkpt>
      <trkpt lat="42.4290320836007595062255859375" lon="-8.65189776755869388580322265625">
        <ele>1.2000000476837158203125</ele>
        <time>2022-11-01T09:04:33.000Z</time>
      </trkpt>
      <trkpt lat="42.428974919021129608154296875" lon="-8.6519908905029296875">
        <ele>0.800000011920928955078125</ele>
        <time>2022-11-01T09:04:34.000Z</time>
      </trkpt>
      <trkpt lat="42.42891347967088222503662109375" lon="-8.652069680392742156982421875">
        <ele>-0.4000000059604644775390625</ele>
        <time>2022-11-01T09:04:35.000Z</time>
      </trkpt>
      <trkpt lat="42.4288637749850749969482421875" lon="-8.65211452357470989227294921875">
        <ele>-1.60000002384185791015625</ele>
        <time>2022-11-01T09:04:36.000Z</time>
      </trkpt>
      <trkpt lat="42.428799234330654144287109375" lon="-8.65215157158672809600830078125">
        <ele>-2</ele>
        <time>2022-11-01T09:04:37.000Z</time>
      </trkpt>
      <trkpt lat="42.42873511277139186859130859375" lon="-8.65214486606419086456298828125">
        <ele>-2.599999904632568359375</ele>
        <time>2022-11-01T09:04:38.000Z</time>
      </trkpt>
      <trkpt lat="42.428686581552028656005859375" lon="-8.6521141044795513153076171875">
        <ele>-2.7999999523162841796875</ele>
        <time>2022-11-01T09:04:39.000Z</time>
      </trkpt>
      <trkpt lat="42.428650371730327606201171875" lon="-8.6520829237997531890869140625">
        <ele>-3</ele>
        <time>2022-11-01T09:04:40.000Z</time>
      </trkpt>
      <trkpt lat="42.42862799204885959625244140625" lon="-8.65206205286085605621337890625">
        <ele>-3</ele>
        <time>2022-11-01T09:04:41.000Z</time>
      </trkpt>
      <trkpt lat="42.4286103062331676483154296875" lon="-8.65204646252095699310302734375">
        <ele>-3.2000000476837158203125</ele>
        <time>2022-11-01T09:04:42.000Z</time>
      </trkpt>
      <trkpt lat="42.42859228514134883880615234375" lon="-8.65203036926686763763427734375">
        <ele>-3.400000095367431640625</ele>
        <time>2022-11-01T09:04:43.000Z</time>
      </trkpt>
      <trkpt lat="42.428575269877910614013671875" lon="-8.65201435983180999755859375">
        <ele>-3.400000095367431640625</ele>
        <time>2022-11-01T09:04:44.000Z</time>
      </trkpt>
      <trkpt lat="42.42855624295771121978759765625" lon="-8.65200254134833812713623046875">
        <ele>-3.2000000476837158203125</ele>
        <time>2022-11-01T09:04:45.000Z</time>
      </trkpt>
      <trkpt lat="42.428537718951702117919921875" lon="-8.6519923992455005645751953125">
        <ele>-3.2000000476837158203125</ele>
        <time>2022-11-01T09:04:46.000Z</time>
      </trkpt>
      <trkpt lat="42.42851466871798038482666015625" lon="-8.65197907201945781707763671875">
        <ele>-3.2000000476837158203125</ele>
        <time>2022-11-01T09:04:47.000Z</time>
      </trkpt>
      <trkpt lat="42.42847435176372528076171875" lon="-8.6519555188715457916259765625">
        <ele>-3.2000000476837158203125</ele>
        <time>2022-11-01T09:04:48.000Z</time>
      </trkpt>
      <trkpt lat="42.42843252606689929962158203125" lon="-8.65193883888423442840576171875">
        <ele>-3.2000000476837158203125</ele>
        <time>2022-11-01T09:04:49.000Z</time>
      </trkpt>
      <trkpt lat="42.42839179001748561859130859375" lon="-8.65192308090627193450927734375">
        <ele>-3.2000000476837158203125</ele>
        <time>2022-11-01T09:04:50.000Z</time>
      </trkpt>
      <trkpt lat="42.42835038341581821441650390625" lon="-8.65190849639475345611572265625">
        <ele>-3.2000000476837158203125</ele>
        <time>2022-11-01T09:04:51.000Z</time>
      </trkpt>
      <trkpt lat="42.4283125810325145721435546875" lon="-8.6519018746912479400634765625">
        <ele>-3.2000000476837158203125</ele>
        <time>2022-11-01T09:04:52.000Z</time>
      </trkpt>
      <trkpt lat="42.4282515607774257659912109375" lon="-8.65189768373966217041015625">
        <ele>-3.2000000476837158203125</ele>
        <time>2022-11-01T09:04:53.000Z</time>
      </trkpt>
      <trkpt lat="42.42819531820714473724365234375" lon="-8.6518961749970912933349609375">
        <ele>-3.2000000476837158203125</ele>
        <time>2022-11-01T09:04:54.000Z</time>
      </trkpt>
      <trkpt lat="42.42813915945589542388916015625" lon="-8.65190363489091396331787109375">
        <ele>-3.2000000476837158203125</ele>
        <time>2022-11-01T09:04:55.000Z</time>
      </trkpt>
      <trkpt lat="42.42809473536908626556396484375" lon="-8.6519189737737178802490234375">
        <ele>-3.2000000476837158203125</ele>
        <time>2022-11-01T09:04:56.000Z</time>
      </trkpt>
      <trkpt lat="42.42802835069596767425537109375" lon="-8.6519504897296428680419921875">
        <ele>-3.2000000476837158203125</ele>
        <time>2022-11-01T09:04:57.000Z</time>
      </trkpt>
      <trkpt lat="42.42797286249697208404541015625" lon="-8.65198393352329730987548828125">
        <ele>-3.2000000476837158203125</ele>
        <time>2022-11-01T09:04:58.000Z</time>
      </trkpt>
      <trkpt lat="42.42791620083153247833251953125" lon="-8.6520205624401569366455078125">
        <ele>-3.2000000476837158203125</ele>
        <time>2022-11-01T09:04:59.000Z</time>
      </trkpt>
      <trkpt lat="42.4278586171567440032958984375" lon="-8.6520561017096042633056640625">
        <ele>-3.400000095367431640625</ele>
        <time>2022-11-01T09:05:00.000Z</time>
      </trkpt>
      <trkpt lat="42.42781394161283969879150390625" lon="-8.652085773646831512451171875">
        <ele>-3.400000095367431640625</ele>
        <time>2022-11-01T09:05:01.000Z</time>
      </trkpt>
      <trkpt lat="42.427758537232875823974609375" lon="-8.65212407894432544708251953125">
        <ele>-3.599999904632568359375</ele>
        <time>2022-11-01T09:05:02.000Z</time>
      </trkpt>
      <trkpt lat="42.4276906438171863555908203125" lon="-8.6521714366972446441650390625">
        <ele>-3.599999904632568359375</ele>
        <time>2022-11-01T09:05:03.000Z</time>
      </trkpt>
      <trkpt lat="42.42763389833271503448486328125" lon="-8.65220773033797740936279296875">
        <ele>-3.400000095367431640625</ele>
        <time>2022-11-01T09:05:04.000Z</time>
      </trkpt>
      <trkpt lat="42.42757639847695827484130859375" lon="-8.65224427543580532073974609375">
        <ele>-3.400000095367431640625</ele>
        <time>2022-11-01T09:05:05.000Z</time>
      </trkpt>
      <trkpt lat="42.4275303818285465240478515625" lon="-8.65227545611560344696044921875">
        <ele>-3.599999904632568359375</ele>
        <time>2022-11-01T09:05:06.000Z</time>
      </trkpt>
      <trkpt lat="42.4274747259914875030517578125" lon="-8.65231418050825595855712890625">
        <ele>-3.7999999523162841796875</ele>
        <time>2022-11-01T09:05:07.000Z</time>
      </trkpt>
      <trkpt lat="42.4274096824228763580322265625" lon="-8.65236229263246059417724609375">
        <ele>-3.7999999523162841796875</ele>
        <time>2022-11-01T09:05:08.000Z</time>
      </trkpt>
      <trkpt lat="42.427352853119373321533203125" lon="-8.65239950828254222869873046875">
        <ele>-3.7999999523162841796875</ele>
        <time>2022-11-01T09:05:09.000Z</time>
      </trkpt>
      <trkpt lat="42.427295185625553131103515625" lon="-8.65243655629456043243408203125">
        <ele>-3.7999999523162841796875</ele>
        <time>2022-11-01T09:05:10.000Z</time>
      </trkpt>
      <trkpt lat="42.42724849842488765716552734375" lon="-8.65246555767953395843505859375">
        <ele>-3.7999999523162841796875</ele>
        <time>2022-11-01T09:05:11.000Z</time>
      </trkpt>
      <trkpt lat="42.42718865163624286651611328125" lon="-8.65250042639672756195068359375">
        <ele>-3.7999999523162841796875</ele>
        <time>2022-11-01T09:05:12.000Z</time>
      </trkpt>
      <trkpt lat="42.42711489088833332061767578125" lon="-8.65253227762877941131591796875">
        <ele>-3.7999999523162841796875</ele>
        <time>2022-11-01T09:05:13.000Z</time>
      </trkpt>
      <trkpt lat="42.4270529486238956451416015625" lon="-8.6525278352200984954833984375">
        <ele>-3.7999999523162841796875</ele>
        <time>2022-11-01T09:05:14.000Z</time>
      </trkpt>
      <trkpt lat="42.4269957840442657470703125" lon="-8.65250076167285442352294921875">
        <ele>-4</ele>
        <time>2022-11-01T09:05:15.000Z</time>
      </trkpt>
      <trkpt lat="42.4269550479948520660400390625" lon="-8.6524527333676815032958984375">
        <ele>-4</ele>
        <time>2022-11-01T09:05:16.000Z</time>
      </trkpt>
      <trkpt lat="42.4269352667033672332763671875" lon="-8.6523940600454807281494140625">
        <ele>-4</ele>
        <time>2022-11-01T09:05:17.000Z</time>
      </trkpt>
      <trkpt lat="42.426924370229244232177734375" lon="-8.6523221433162689208984375">
        <ele>-4</ele>
        <time>2022-11-01T09:05:18.000Z</time>
      </trkpt>
      <trkpt lat="42.42691456340253353118896484375" lon="-8.65224494598805904388427734375">
        <ele>-4.19999980926513671875</ele>
        <time>2022-11-01T09:05:19.000Z</time>
      </trkpt>
      <trkpt lat="42.4269020743668079376220703125" lon="-8.6521700955927371978759765625">
        <ele>-4.19999980926513671875</ele>
        <time>2022-11-01T09:05:20.000Z</time>
      </trkpt>
      <trkpt lat="42.4268812872469425201416015625" lon="-8.6520976759493350982666015625">
        <ele>-4.19999980926513671875</ele>
        <time>2022-11-01T09:05:21.000Z</time>
      </trkpt>
      <trkpt lat="42.4268571473658084869384765625" lon="-8.652028776705265045166015625">
        <ele>-4.19999980926513671875</ele>
        <time>2022-11-01T09:05:22.000Z</time>
      </trkpt>
      <trkpt lat="42.42683158256113529205322265625" lon="-8.65196147002279758453369140625">
        <ele>-4.19999980926513671875</ele>
        <time>2022-11-01T09:05:23.000Z</time>
      </trkpt>
      <trkpt lat="42.4268075264990329742431640625" lon="-8.65189424715936183929443359375">
        <ele>-4.19999980926513671875</ele>
        <time>2022-11-01T09:05:24.000Z</time>
      </trkpt>
      <trkpt lat="42.42678590118885040283203125" lon="-8.65183087997138500213623046875">
        <ele>-4.19999980926513671875</ele>
        <time>2022-11-01T09:05:25.000Z</time>
      </trkpt>
      <trkpt lat="42.42676888592541217803955078125" lon="-8.6517831869423389434814453125">
        <ele>-4</ele>
        <time>2022-11-01T09:05:26.000Z</time>
      </trkpt>
      <trkpt lat="42.42674776352941989898681640625" lon="-8.65172124467790126800537109375">
        <ele>-4</ele>
        <time>2022-11-01T09:05:27.000Z</time>
      </trkpt>
      <trkpt lat="42.42671289481222629547119140625" lon="-8.65164714865386486053466796875">
        <ele>-3.7999999523162841796875</ele>
        <time>2022-11-01T09:05:28.000Z</time>
      </trkpt>
      <trkpt lat="42.42668774910271167755126953125" lon="-8.6515897326171398162841796875">
        <ele>-3.7999999523162841796875</ele>
        <time>2022-11-01T09:05:29.000Z</time>
      </trkpt>
      <trkpt lat="42.4266727454960346221923828125" lon="-8.65154539234936237335205078125">
        <ele>-3.599999904632568359375</ele>
        <time>2022-11-01T09:05:30.000Z</time>
      </trkpt>
      <trkpt lat="42.4266586638987064361572265625" lon="-8.65151136182248592376708984375">
        <ele>-3.599999904632568359375</ele>
        <time>2022-11-01T09:05:31.000Z</time>
      </trkpt>
      <trkpt lat="42.42664030753076076507568359375" lon="-8.65146526135504245758056640625">
        <ele>-3.400000095367431640625</ele>
        <time>2022-11-01T09:05:32.000Z</time>
      </trkpt>
      <trkpt lat="42.4266177602112293243408203125" lon="-8.65141781978309154510498046875">
        <ele>-3.2000000476837158203125</ele>
        <time>2022-11-01T09:05:33.000Z</time>
      </trkpt>
      <trkpt lat="42.4265899322926998138427734375" lon="-8.65135445259511470794677734375">
        <ele>-3</ele>
        <time>2022-11-01T09:05:34.000Z</time>
      </trkpt>
      <trkpt lat="42.426573000848293304443359375" lon="-8.6513149738311767578125">
        <ele>-2.7999999523162841796875</ele>
        <time>2022-11-01T09:05:35.000Z</time>
      </trkpt>
      <trkpt lat="42.42655833251774311065673828125" lon="-8.65126476623117923736572265625">
        <ele>-2.599999904632568359375</ele>
        <time>2022-11-01T09:05:36.000Z</time>
      </trkpt>
      <trkpt lat="42.42654626257717609405517578125" lon="-8.65121397189795970916748046875">
        <ele>-2.400000095367431640625</ele>
        <time>2022-11-01T09:05:37.000Z</time>
      </trkpt>
      <trkpt lat="42.42652840912342071533203125" lon="-8.65115261636674404144287109375">
        <ele>-2</ele>
        <time>2022-11-01T09:05:38.000Z</time>
      </trkpt>
      <trkpt lat="42.42650887928903102874755859375" lon="-8.651100732386112213134765625">
        <ele>-1.60000002384185791015625</ele>
        <time>2022-11-01T09:05:39.000Z</time>
      </trkpt>
      <trkpt lat="42.426491193473339080810546875" lon="-8.6510606668889522552490234375">
        <ele>-1.39999997615814208984375</ele>
        <time>2022-11-01T09:05:40.000Z</time>
      </trkpt>
      <trkpt lat="42.42647417820990085601806640625" lon="-8.65101330913603305816650390625">
        <ele>-1.2000000476837158203125</ele>
        <time>2022-11-01T09:05:41.000Z</time>
      </trkpt>
      <trkpt lat="42.42645573802292346954345703125" lon="-8.65095580928027629852294921875">
        <ele>-0.800000011920928955078125</ele>
        <time>2022-11-01T09:05:42.000Z</time>
      </trkpt>
      <trkpt lat="42.4264363758265972137451171875" lon="-8.65090618841350078582763671875">
        <ele>-0.60000002384185791015625</ele>
        <time>2022-11-01T09:05:43.000Z</time>
      </trkpt>
      <trkpt lat="42.42640770971775054931640625" lon="-8.6508424021303653717041015625">
        <ele>-0.4000000059604644775390625</ele>
        <time>2022-11-01T09:05:44.000Z</time>
      </trkpt>
      <trkpt lat="42.42637895978987216949462890625" lon="-8.65080040879547595977783203125">
        <ele>0</ele>
        <time>2022-11-01T09:05:45.000Z</time>
      </trkpt>
      <trkpt lat="42.42635414935648441314697265625" lon="-8.65075481124222278594970703125">
        <ele>0.4000000059604644775390625</ele>
        <time>2022-11-01T09:05:46.000Z</time>
      </trkpt>
      <trkpt lat="42.4263170175254344940185546875" lon="-8.6507277376949787139892578125">
        <ele>0.4000000059604644775390625</ele>
        <time>2022-11-01T09:05:47.000Z</time>
      </trkpt>
      <trkpt lat="42.4262811429798603057861328125" lon="-8.65071709267795085906982421875">
        <ele>0.800000011920928955078125</ele>
        <time>2022-11-01T09:05:48.000Z</time>
      </trkpt>
      <trkpt lat="42.426237724721431732177734375" lon="-8.65071751177310943603515625">
        <ele>1</ele>
        <time>2022-11-01T09:05:49.000Z</time>
      </trkpt>
      <trkpt lat="42.42620277218520641326904296875" lon="-8.65073134191334247589111328125">
        <ele>1.2000000476837158203125</ele>
        <time>2022-11-01T09:05:50.000Z</time>
      </trkpt>
      <trkpt lat="42.426165975630283355712890625" lon="-8.65075615234673023223876953125">
        <ele>1.39999997615814208984375</ele>
        <time>2022-11-01T09:05:51.000Z</time>
      </trkpt>
      <trkpt lat="42.42613420821726322174072265625" lon="-8.65080342628061771392822265625">
        <ele>1.60000002384185791015625</ele>
        <time>2022-11-01T09:05:52.000Z</time>
      </trkpt>
      <trkpt lat="42.4261067993938922882080078125" lon="-8.650853633880615234375">
        <ele>1.60000002384185791015625</ele>
        <time>2022-11-01T09:05:53.000Z</time>
      </trkpt>
      <trkpt lat="42.4260709248483180999755859375" lon="-8.65090258419513702392578125">
        <ele>1.60000002384185791015625</ele>
        <time>2022-11-01T09:05:54.000Z</time>
      </trkpt>
      <trkpt lat="42.42603798396885395050048828125" lon="-8.65094608627259731292724609375">
        <ele>1.7999999523162841796875</ele>
        <time>2022-11-01T09:05:55.000Z</time>
      </trkpt>
      <trkpt lat="42.42599691264331340789794921875" lon="-8.6510003171861171722412109375">
        <ele>1.7999999523162841796875</ele>
        <time>2022-11-01T09:05:56.000Z</time>
      </trkpt>
      <trkpt lat="42.4259418435394763946533203125" lon="-8.65106108598411083221435546875">
        <ele>1.7999999523162841796875</ele>
        <time>2022-11-01T09:05:57.000Z</time>
      </trkpt>
      <trkpt lat="42.4258959107100963592529296875" lon="-8.65111581981182098388671875">
        <ele>1.7999999523162841796875</ele>
        <time>2022-11-01T09:05:58.000Z</time>
      </trkpt>
      <trkpt lat="42.4258477985858917236328125" lon="-8.65117524750530719757080078125">
        <ele>1.7999999523162841796875</ele>
        <time>2022-11-01T09:05:59.000Z</time>
      </trkpt>
      <trkpt lat="42.42580748163163661956787109375" lon="-8.6512293107807636260986328125">
        <ele>1.60000002384185791015625</ele>
        <time>2022-11-01T09:06:00.000Z</time>
      </trkpt>
      <trkpt lat="42.42575769312679767608642578125" lon="-8.6512970365583896636962890625">
        <ele>1.39999997615814208984375</ele>
        <time>2022-11-01T09:06:01.000Z</time>
      </trkpt>
      <trkpt lat="42.42569097317755222320556640625" lon="-8.6513728089630603790283203125">
        <ele>1.39999997615814208984375</ele>
        <time>2022-11-01T09:06:02.000Z</time>
      </trkpt>
      <trkpt lat="42.42563682608306407928466796875" lon="-8.65143927745521068572998046875">
        <ele>1.2000000476837158203125</ele>
        <time>2022-11-01T09:06:03.000Z</time>
      </trkpt>
      <trkpt lat="42.425583936274051666259765625" lon="-8.6515025608241558074951171875">
        <ele>1.2000000476837158203125</ele>
        <time>2022-11-01T09:06:04.000Z</time>
      </trkpt>
      <trkpt lat="42.42554412223398685455322265625" lon="-8.65155578590929508209228515625">
        <ele>1</ele>
        <time>2022-11-01T09:06:05.000Z</time>
      </trkpt>
      <trkpt lat="42.42549232207238674163818359375" lon="-8.6516256071627140045166015625">
        <ele>0.800000011920928955078125</ele>
        <time>2022-11-01T09:06:06.000Z</time>
      </trkpt>
      <trkpt lat="42.42542744614183902740478515625" lon="-8.65170833654701709747314453125">
        <ele>0.60000002384185791015625</ele>
        <time>2022-11-01T09:06:07.000Z</time>
      </trkpt>
      <trkpt lat="42.4253837764263153076171875" lon="-8.6517674289643764495849609375">
        <ele>0.4000000059604644775390625</ele>
        <time>2022-11-01T09:06:08.000Z</time>
      </trkpt>
      <trkpt lat="42.4253195710480213165283203125" lon="-8.65185082890093326568603515625">
        <ele>0.20000000298023223876953125</ele>
        <time>2022-11-01T09:06:09.000Z</time>
      </trkpt>
      <trkpt lat="42.42527556605637073516845703125" lon="-8.65190262906253337860107421875">
        <ele>0</ele>
        <time>2022-11-01T09:06:10.000Z</time>
      </trkpt>
      <trkpt lat="42.425219826400279998779296875" lon="-8.6519722826778888702392578125">
        <ele>-0.20000000298023223876953125</ele>
        <time>2022-11-01T09:06:11.000Z</time>
      </trkpt>
      <trkpt lat="42.42515302263200283050537109375" lon="-8.65206188522279262542724609375">
        <ele>-0.60000002384185791015625</ele>
        <time>2022-11-01T09:06:12.000Z</time>
      </trkpt>
      <trkpt lat="42.4250922538340091705322265625" lon="-8.6521402560174465179443359375">
        <ele>-0.60000002384185791015625</ele>
        <time>2022-11-01T09:06:13.000Z</time>
      </trkpt>
      <trkpt lat="42.42503182031214237213134765625" lon="-8.65222164429724216461181640625">
        <ele>-0.800000011920928955078125</ele>
        <time>2022-11-01T09:06:14.000Z</time>
      </trkpt>
      <trkpt lat="42.424982450902462005615234375" lon="-8.65228735841810703277587890625">
        <ele>-0.800000011920928955078125</ele>
        <time>2022-11-01T09:06:15.000Z</time>
      </trkpt>
      <trkpt lat="42.42492151446640491485595703125" lon="-8.65236648358404636383056640625">
        <ele>-1.2000000476837158203125</ele>
        <time>2022-11-01T09:06:16.000Z</time>
      </trkpt>
      <trkpt lat="42.4248500168323516845703125" lon="-8.65246388129889965057373046875">
        <ele>-1.2000000476837158203125</ele>
        <time>2022-11-01T09:06:17.000Z</time>
      </trkpt>
      <trkpt lat="42.4247901700437068939208984375" lon="-8.65254585631191730499267578125">
        <ele>-1.39999997615814208984375</ele>
        <time>2022-11-01T09:06:18.000Z</time>
      </trkpt>
      <trkpt lat="42.42473292164504528045654296875" lon="-8.65263168700039386749267578125">
        <ele>-1.39999997615814208984375</ele>
        <time>2022-11-01T09:06:19.000Z</time>
      </trkpt>
      <trkpt lat="42.42468313314020633697509765625" lon="-8.65270175971090793609619140625">
        <ele>-1.60000002384185791015625</ele>
        <time>2022-11-01T09:06:20.000Z</time>
      </trkpt>
      <trkpt lat="42.42462395690381526947021484375" lon="-8.65278541110455989837646484375">
        <ele>-1.60000002384185791015625</ele>
        <time>2022-11-01T09:06:21.000Z</time>
      </trkpt>
      <trkpt lat="42.4245538003742694854736328125" lon="-8.65287928842008113861083984375">
        <ele>-1.60000002384185791015625</ele>
        <time>2022-11-01T09:06:22.000Z</time>
      </trkpt>
      <trkpt lat="42.42449521087110042572021484375" lon="-8.65295791067183017730712890625">
        <ele>-1.60000002384185791015625</ele>
        <time>2022-11-01T09:06:23.000Z</time>
      </trkpt>
      <trkpt lat="42.4244476854801177978515625" lon="-8.653019182384014129638671875">
        <ele>-1.60000002384185791015625</ele>
        <time>2022-11-01T09:06:24.000Z</time>
      </trkpt>
      <trkpt lat="42.42439060471951961517333984375" lon="-8.653096295893192291259765625">
        <ele>-1.60000002384185791015625</ele>
        <time>2022-11-01T09:06:25.000Z</time>
      </trkpt>
      <trkpt lat="42.4243365414440631866455078125" lon="-8.65317215211689472198486328125">
        <ele>-1.60000002384185791015625</ele>
        <time>2022-11-01T09:06:26.000Z</time>
      </trkpt>
      <trkpt lat="42.42427258752286434173583984375" lon="-8.65326158702373504638671875">
        <ele>-1.2000000476837158203125</ele>
        <time>2022-11-01T09:06:27.000Z</time>
      </trkpt>
      <trkpt lat="42.4242181889712810516357421875" lon="-8.65333844907581806182861328125">
        <ele>-1</ele>
        <time>2022-11-01T09:06:28.000Z</time>
      </trkpt>
      <trkpt lat="42.4241759441792964935302734375" lon="-8.65339837968349456787109375">
        <ele>-0.60000002384185791015625</ele>
        <time>2022-11-01T09:06:29.000Z</time>
      </trkpt>
      <trkpt lat="42.424121797084808349609375" lon="-8.653471805155277252197265625">
        <ele>-0.4000000059604644775390625</ele>
        <time>2022-11-01T09:06:30.000Z</time>
      </trkpt>
      <trkpt lat="42.42406077682971954345703125" lon="-8.65356241352856159210205078125">
        <ele>-0.20000000298023223876953125</ele>
        <time>2022-11-01T09:06:31.000Z</time>
      </trkpt>
      <trkpt lat="42.42400721646845340728759765625" lon="-8.65363399498164653778076171875">
        <ele>0.20000000298023223876953125</ele>
        <time>2022-11-01T09:06:32.000Z</time>
      </trkpt>
      <trkpt lat="42.4239519797265529632568359375" lon="-8.65370792336761951446533203125">
        <ele>0.4000000059604644775390625</ele>
        <time>2022-11-01T09:06:33.000Z</time>
      </trkpt>
      <trkpt lat="42.423906885087490081787109375" lon="-8.65376492030918598175048828125">
        <ele>0.60000002384185791015625</ele>
        <time>2022-11-01T09:06:34.000Z</time>
      </trkpt>
      <trkpt lat="42.4238560907542705535888671875" lon="-8.6538337357342243194580078125">
        <ele>0.60000002384185791015625</ele>
        <time>2022-11-01T09:06:35.000Z</time>
      </trkpt>
      <trkpt lat="42.423797585070133209228515625" lon="-8.65391059778630733489990234375">
        <ele>1</ele>
        <time>2022-11-01T09:06:36.000Z</time>
      </trkpt>
      <trkpt lat="42.42374788038432598114013671875" lon="-8.65397446788847446441650390625">
        <ele>1.2000000476837158203125</ele>
        <time>2022-11-01T09:06:37.000Z</time>
      </trkpt>
      <trkpt lat="42.42369943298399448394775390625" lon="-8.65404102019965648651123046875">
        <ele>1.60000002384185791015625</ele>
        <time>2022-11-01T09:06:38.000Z</time>
      </trkpt>
      <trkpt lat="42.42366188205778598785400390625" lon="-8.65409617312252521514892578125">
        <ele>1.7999999523162841796875</ele>
        <time>2022-11-01T09:06:39.000Z</time>
      </trkpt>
      <trkpt lat="42.42361687123775482177734375" lon="-8.65416591055691242218017578125">
        <ele>2</ele>
        <time>2022-11-01T09:06:40.000Z</time>
      </trkpt>
      <trkpt lat="42.423561550676822662353515625" lon="-8.6542478017508983612060546875">
        <ele>2</ele>
        <time>2022-11-01T09:06:41.000Z</time>
      </trkpt>
      <trkpt lat="42.42351452820003032684326171875" lon="-8.6543190479278564453125">
        <ele>2.2000000476837158203125</ele>
        <time>2022-11-01T09:06:42.000Z</time>
      </trkpt>
      <trkpt lat="42.42346406914293766021728515625" lon="-8.6543902941048145294189453125">
        <ele>2.2000000476837158203125</ele>
        <time>2022-11-01T09:06:43.000Z</time>
      </trkpt>
      <trkpt lat="42.42341972887516021728515625" lon="-8.6544509790837764739990234375">
        <ele>2.2000000476837158203125</ele>
        <time>2022-11-01T09:06:44.000Z</time>
      </trkpt>
      <trkpt lat="42.4233640730381011962890625" lon="-8.65452532656490802764892578125">
        <ele>2</ele>
        <time>2022-11-01T09:06:45.000Z</time>
      </trkpt>
      <trkpt lat="42.423298694193363189697265625" lon="-8.6546162702143192291259765625">
        <ele>2</ele>
        <time>2022-11-01T09:06:46.000Z</time>
      </trkpt>
      <trkpt lat="42.42324278689920902252197265625" lon="-8.65469531156122684478759765625">
        <ele>2</ele>
        <time>2022-11-01T09:06:47.000Z</time>
      </trkpt>
      <trkpt lat="42.4231852032244205474853515625" lon="-8.6547738499939441680908203125">
        <ele>2</ele>
        <time>2022-11-01T09:06:48.000Z</time>
      </trkpt>
      <trkpt lat="42.42313918657600879669189453125" lon="-8.65483663044869899749755859375">
        <ele>2</ele>
        <time>2022-11-01T09:06:49.000Z</time>
      </trkpt>
      <trkpt lat="42.423082776367664337158203125" lon="-8.65491391159594058990478515625">
        <ele>1.7999999523162841796875</ele>
        <time>2022-11-01T09:06:50.000Z</time>
      </trkpt>
      <trkpt lat="42.42302301339805126190185546875" lon="-8.6549911089241504669189453125">
        <ele>1.60000002384185791015625</ele>
        <time>2022-11-01T09:06:51.000Z</time>
      </trkpt>
      <trkpt lat="42.42295763455331325531005859375" lon="-8.65506093017756938934326171875">
        <ele>1.60000002384185791015625</ele>
        <time>2022-11-01T09:06:52.000Z</time>
      </trkpt>
      <trkpt lat="42.42287163622677326202392578125" lon="-8.6551309190690517425537109375">
        <ele>1.39999997615814208984375</ele>
        <time>2022-11-01T09:06:53.000Z</time>
      </trkpt>
      <trkpt lat="42.42280776612460613250732421875" lon="-8.6551667936146259307861328125">
        <ele>1.2000000476837158203125</ele>
        <time>2022-11-01T09:06:54.000Z</time>
      </trkpt>
      <trkpt lat="42.42272545583546161651611328125" lon="-8.6552043445408344268798828125">
        <ele>1.2000000476837158203125</ele>
        <time>2022-11-01T09:06:55.000Z</time>
      </trkpt>
      <trkpt lat="42.42263853549957275390625" lon="-8.65523359738290309906005859375">
        <ele>1</ele>
        <time>2022-11-01T09:06:56.000Z</time>
      </trkpt>
      <trkpt lat="42.4225307442247867584228515625" lon="-8.655264861881732940673828125">
        <ele>0.800000011920928955078125</ele>
        <time>2022-11-01T09:06:57.000Z</time>
      </trkpt>
      <trkpt lat="42.42243804037570953369140625" lon="-8.655291683971881866455078125">
        <ele>0.60000002384185791015625</ele>
        <time>2022-11-01T09:06:58.000Z</time>
      </trkpt>
      <trkpt lat="42.42234575562179088592529296875" lon="-8.65532043389976024627685546875">
        <ele>0.60000002384185791015625</ele>
        <time>2022-11-01T09:06:59.000Z</time>
      </trkpt>
      <trkpt lat="42.422258667647838592529296875" lon="-8.6553582362830638885498046875">
        <ele>0</ele>
        <time>2022-11-01T09:07:00.000Z</time>
      </trkpt>
      <trkpt lat="42.42217258550226688385009765625" lon="-8.6554045043885707855224609375">
        <ele>0</ele>
        <time>2022-11-01T09:07:01.000Z</time>
      </trkpt>
      <trkpt lat="42.4220828153192996978759765625" lon="-8.655461333692073822021484375">
        <ele>-0.60000002384185791015625</ele>
        <time>2022-11-01T09:07:02.000Z</time>
      </trkpt>
      <trkpt lat="42.42199321277439594268798828125" lon="-8.65552679635584354400634765625">
        <ele>-0.800000011920928955078125</ele>
        <time>2022-11-01T09:07:03.000Z</time>
      </trkpt>
      <trkpt lat="42.42190855555236339569091796875" lon="-8.65560189820826053619384765625">
        <ele>-1</ele>
        <time>2022-11-01T09:07:04.000Z</time>
      </trkpt>
      <trkpt lat="42.42182926274836063385009765625" lon="-8.65568496286869049072265625">
        <ele>-1.2000000476837158203125</ele>
        <time>2022-11-01T09:07:05.000Z</time>
      </trkpt>
      <trkpt lat="42.42175483144819736480712890625" lon="-8.65577322430908679962158203125">
        <ele>-1.39999997615814208984375</ele>
        <time>2022-11-01T09:07:06.000Z</time>
      </trkpt>
      <trkpt lat="42.42168366909027099609375" lon="-8.655871711671352386474609375">
        <ele>-1.39999997615814208984375</ele>
        <time>2022-11-01T09:07:07.000Z</time>
      </trkpt>
      <trkpt lat="42.421615608036518096923828125" lon="-8.65597237832844257354736328125">
        <ele>-1.60000002384185791015625</ele>
        <time>2022-11-01T09:07:08.000Z</time>
      </trkpt>
      <trkpt lat="42.4215500615537166595458984375" lon="-8.65607497282326221466064453125">
        <ele>-1.60000002384185791015625</ele>
        <time>2022-11-01T09:07:09.000Z</time>
      </trkpt>
      <trkpt lat="42.42149800993502140045166015625" lon="-8.65615778602659702301025390625">
        <ele>-1.7999999523162841796875</ele>
        <time>2022-11-01T09:07:10.000Z</time>
      </trkpt>
      <trkpt lat="42.42143355309963226318359375" lon="-8.65625903941690921783447265625">
        <ele>-1.7999999523162841796875</ele>
        <time>2022-11-01T09:07:11.000Z</time>
      </trkpt>
      <trkpt lat="42.42136172018945217132568359375" lon="-8.6563811637461185455322265625">
        <ele>-1.7999999523162841796875</ele>
        <time>2022-11-01T09:07:12.000Z</time>
      </trkpt>
      <trkpt lat="42.42131629027426242828369140625" lon="-8.65646288730204105377197265625">
        <ele>-1.7999999523162841796875</ele>
        <time>2022-11-01T09:07:13.000Z</time>
      </trkpt>
      <trkpt lat="42.421264909207820892333984375" lon="-8.65656682290136814117431640625">
        <ele>-1.7999999523162841796875</ele>
        <time>2022-11-01T09:07:14.000Z</time>
      </trkpt>
      <trkpt lat="42.4212147854268550872802734375" lon="-8.656692467629909515380859375">
        <ele>-1.7999999523162841796875</ele>
        <time>2022-11-01T09:07:15.000Z</time>
      </trkpt>
      <trkpt lat="42.42118352092802524566650390625" lon="-8.65679799579083919525146484375">
        <ele>-1.7999999523162841796875</ele>
        <time>2022-11-01T09:07:16.000Z</time>
      </trkpt>
      <trkpt lat="42.42116390727460384368896484375" lon="-8.6569075472652912139892578125">
        <ele>-1.60000002384185791015625</ele>
        <time>2022-11-01T09:07:17.000Z</time>
      </trkpt>
      <trkpt lat="42.421154268085956573486328125" lon="-8.65699362941086292266845703125">
        <ele>-1.60000002384185791015625</ele>
        <time>2022-11-01T09:07:18.000Z</time>
      </trkpt>
      <trkpt lat="42.42114655673503875732421875" lon="-8.657100498676300048828125">
        <ele>-1.60000002384185791015625</ele>
        <time>2022-11-01T09:07:19.000Z</time>
      </trkpt>
      <trkpt lat="42.42114580236375331878662109375" lon="-8.65722429938614368438720703125">
        <ele>-1.2000000476837158203125</ele>
        <time>2022-11-01T09:07:20.000Z</time>
      </trkpt>
      <trkpt lat="42.4211517535150051116943359375" lon="-8.6573209427297115325927734375">
        <ele>-1.2000000476837158203125</ele>
        <time>2022-11-01T09:07:21.000Z</time>
      </trkpt>
      <trkpt lat="42.421161644160747528076171875" lon="-8.657416664063930511474609375">
        <ele>-1</ele>
        <time>2022-11-01T09:07:22.000Z</time>
      </trkpt>
      <trkpt lat="42.42117195390164852142333984375" lon="-8.65749084390699863433837890625">
        <ele>-0.800000011920928955078125</ele>
        <time>2022-11-01T09:07:23.000Z</time>
      </trkpt>
      <trkpt lat="42.4211896397173404693603515625" lon="-8.65758153609931468963623046875">
        <ele>-0.4000000059604644775390625</ele>
        <time>2022-11-01T09:07:24.000Z</time>
      </trkpt>
      <trkpt lat="42.42121369577944278717041015625" lon="-8.65768262185156345367431640625">
        <ele>-0.4000000059604644775390625</ele>
        <time>2022-11-01T09:07:25.000Z</time>
      </trkpt>
      <trkpt lat="42.42123917676508426666259765625" lon="-8.6577616631984710693359375">
        <ele>-0.20000000298023223876953125</ele>
        <time>2022-11-01T09:07:26.000Z</time>
      </trkpt>
      <trkpt lat="42.4212724529206752777099609375" lon="-8.65783475339412689208984375">
        <ele>0</ele>
        <time>2022-11-01T09:07:27.000Z</time>
      </trkpt>
      <trkpt lat="42.4213019572198390960693359375" lon="-8.6578929238021373748779296875">
        <ele>0.4000000059604644775390625</ele>
        <time>2022-11-01T09:07:28.000Z</time>
      </trkpt>
      <trkpt lat="42.42133690975606441497802734375" lon="-8.6579720489680767059326171875">
        <ele>1</ele>
        <time>2022-11-01T09:07:29.000Z</time>
      </trkpt>
      <trkpt lat="42.42137848399579524993896484375" lon="-8.65807212889194488525390625">
        <ele>1</ele>
        <time>2022-11-01T09:07:30.000Z</time>
      </trkpt>
      <trkpt lat="42.42140413261950016021728515625" lon="-8.6581398546695709228515625">
        <ele>1.2000000476837158203125</ele>
        <time>2022-11-01T09:07:31.000Z</time>
      </trkpt>
      <trkpt lat="42.42143623530864715576171875" lon="-8.658224008977413177490234375">
        <ele>1.39999997615814208984375</ele>
        <time>2022-11-01T09:07:32.000Z</time>
      </trkpt>
      <trkpt lat="42.42146498523652553558349609375" lon="-8.65831159986555576324462890625">
        <ele>1.60000002384185791015625</ele>
        <time>2022-11-01T09:07:33.000Z</time>
      </trkpt>
      <trkpt lat="42.42148987948894500732421875" lon="-8.65840128622949123382568359375">
        <ele>1.7999999523162841796875</ele>
        <time>2022-11-01T09:07:34.000Z</time>
      </trkpt>
      <trkpt lat="42.4215138517320156097412109375" lon="-8.65849549882113933563232421875">
        <ele>2</ele>
        <time>2022-11-01T09:07:35.000Z</time>
      </trkpt>
      <trkpt lat="42.4215346388518810272216796875" lon="-8.65860966034233570098876953125">
        <ele>2.2000000476837158203125</ele>
        <time>2022-11-01T09:07:36.000Z</time>
      </trkpt>
      <trkpt lat="42.42154444567859172821044921875" lon="-8.65868710912764072418212890625">
        <ele>2.400000095367431640625</ele>
        <time>2022-11-01T09:07:37.000Z</time>
      </trkpt>
      <trkpt lat="42.421549893915653228759765625" lon="-8.6587834171950817108154296875">
        <ele>2.599999904632568359375</ele>
        <time>2022-11-01T09:07:38.000Z</time>
      </trkpt>
      <trkpt lat="42.42155601270496845245361328125" lon="-8.65888039581477642059326171875">
        <ele>2.7999999523162841796875</ele>
        <time>2022-11-01T09:07:39.000Z</time>
      </trkpt>
      <trkpt lat="42.42156439460813999176025390625" lon="-8.6589976586401462554931640625">
        <ele>2.7999999523162841796875</ele>
        <time>2022-11-01T09:07:40.000Z</time>
      </trkpt>
      <trkpt lat="42.42156992666423320770263671875" lon="-8.6590947210788726806640625">
        <ele>3</ele>
        <time>2022-11-01T09:07:41.000Z</time>
      </trkpt>
      <trkpt lat="42.4215745367109775543212890625" lon="-8.65917258895933628082275390625">
        <ele>3.2000000476837158203125</ele>
        <time>2022-11-01T09:07:42.000Z</time>
      </trkpt>
      <trkpt lat="42.42157914675772190093994140625" lon="-8.65926462225615978240966796875">
        <ele>3.400000095367431640625</ele>
        <time>2022-11-01T09:07:43.000Z</time>
      </trkpt>
      <trkpt lat="42.42158266715705394744873046875" lon="-8.65935984067618846893310546875">
        <ele>3.7999999523162841796875</ele>
        <time>2022-11-01T09:07:44.000Z</time>
      </trkpt>
      <trkpt lat="42.42158853448927402496337890625" lon="-8.65947425365447998046875">
        <ele>3.7999999523162841796875</ele>
        <time>2022-11-01T09:07:45.000Z</time>
      </trkpt>
      <trkpt lat="42.42159524001181125640869140625" lon="-8.6595694720745086669921875">
        <ele>4</ele>
        <time>2022-11-01T09:07:46.000Z</time>
      </trkpt>
      <trkpt lat="42.42160026915371417999267578125" lon="-8.659646920859813690185546875">
        <ele>4</ele>
        <time>2022-11-01T09:07:47.000Z</time>
      </trkpt>
      <trkpt lat="42.42160647176206111907958984375" lon="-8.65974255837500095367431640625">
        <ele>4.19999980926513671875</ele>
        <time>2022-11-01T09:07:48.000Z</time>
      </trkpt>
      <trkpt lat="42.42161326110363006591796875" lon="-8.6598376929759979248046875">
        <ele>4.19999980926513671875</ele>
        <time>2022-11-01T09:07:49.000Z</time>
      </trkpt>
      <trkpt lat="42.42162290029227733612060546875" lon="-8.6599511839449405670166015625">
        <ele>4.19999980926513671875</ele>
        <time>2022-11-01T09:07:50.000Z</time>
      </trkpt>
      <trkpt lat="42.421631701290607452392578125" lon="-8.66004514507949352264404296875">
        <ele>4.400000095367431640625</ele>
        <time>2022-11-01T09:07:51.000Z</time>
      </trkpt>
      <trkpt lat="42.42163698188960552215576171875" lon="-8.660121001303195953369140625">
        <ele>4.400000095367431640625</ele>
        <time>2022-11-01T09:07:52.000Z</time>
      </trkpt>
      <trkpt lat="42.42164184339344501495361328125" lon="-8.66021362133324146270751953125">
        <ele>4.599999904632568359375</ele>
        <time>2022-11-01T09:07:53.000Z</time>
      </trkpt>
      <trkpt lat="42.42165056057274341583251953125" lon="-8.6603236757218837738037109375">
        <ele>4.599999904632568359375</ele>
        <time>2022-11-01T09:07:54.000Z</time>
      </trkpt>
      <trkpt lat="42.42165617644786834716796875" lon="-8.6604148708283901214599609375">
        <ele>5</ele>
        <time>2022-11-01T09:07:55.000Z</time>
      </trkpt>
      <trkpt lat="42.421663217246532440185546875" lon="-8.6605077423155307769775390625">
        <ele>5</ele>
        <time>2022-11-01T09:07:56.000Z</time>
      </trkpt>
      <trkpt lat="42.4216680787503719329833984375" lon="-8.660582341253757476806640625">
        <ele>5.19999980926513671875</ele>
        <time>2022-11-01T09:07:57.000Z</time>
      </trkpt>
      <trkpt lat="42.42167235352098941802978515625" lon="-8.6606773920357227325439453125">
        <ele>5.400000095367431640625</ele>
        <time>2022-11-01T09:07:58.000Z</time>
      </trkpt>
      <trkpt lat="42.4216744489967823028564453125" lon="-8.66079029627144336700439453125">
        <ele>5.400000095367431640625</ele>
        <time>2022-11-01T09:07:59.000Z</time>
      </trkpt>
      <trkpt lat="42.421675287187099456787109375" lon="-8.66086707450449466705322265625">
        <ele>5.599999904632568359375</ele>
        <time>2022-11-01T09:08:00.000Z</time>
      </trkpt>
      <trkpt lat="42.42167335934937000274658203125" lon="-8.66098425351083278656005859375">
        <ele>5.599999904632568359375</ele>
        <time>2022-11-01T09:08:01.000Z</time>
      </trkpt>
      <trkpt lat="42.4216677434742450714111328125" lon="-8.661064468324184417724609375">
        <ele>5.599999904632568359375</ele>
        <time>2022-11-01T09:08:02.000Z</time>
      </trkpt>
      <trkpt lat="42.42165458388626575469970703125" lon="-8.66116379387676715850830078125">
        <ele>5.599999904632568359375</ele>
        <time>2022-11-01T09:08:03.000Z</time>
      </trkpt>
      <trkpt lat="42.4216345511376857757568359375" lon="-8.661284409463405609130859375">
        <ele>5.599999904632568359375</ele>
        <time>2022-11-01T09:08:04.000Z</time>
      </trkpt>
      <trkpt lat="42.42161904461681842803955078125" lon="-8.66136395372450351715087890625">
        <ele>5.599999904632568359375</ele>
        <time>2022-11-01T09:08:05.000Z</time>
      </trkpt>
      <trkpt lat="42.42159607820212841033935546875" lon="-8.66146168671548366546630859375">
        <ele>5.400000095367431640625</ele>
        <time>2022-11-01T09:08:06.000Z</time>
      </trkpt>
      <trkpt lat="42.42157168686389923095703125" lon="-8.66155765950679779052734375">
        <ele>5.400000095367431640625</ele>
        <time>2022-11-01T09:08:07.000Z</time>
      </trkpt>
      <trkpt lat="42.4215473793447017669677734375" lon="-8.66165556013584136962890625">
        <ele>5.400000095367431640625</ele>
        <time>2022-11-01T09:08:08.000Z</time>
      </trkpt>
      <trkpt lat="42.42151795886456966400146484375" lon="-8.661774583160877227783203125">
        <ele>5.19999980926513671875</ele>
        <time>2022-11-01T09:08:09.000Z</time>
      </trkpt>
      <trkpt lat="42.4214917235076427459716796875" lon="-8.66187441162765026092529296875">
        <ele>5</ele>
        <time>2022-11-01T09:08:10.000Z</time>
      </trkpt>
      <trkpt lat="42.4214645661413669586181640625" lon="-8.6619727313518524169921875">
        <ele>4.80000019073486328125</ele>
        <time>2022-11-01T09:08:11.000Z</time>
      </trkpt>
      <trkpt lat="42.42144159972667694091796875" lon="-8.662052862346172332763671875">
        <ele>4.599999904632568359375</ele>
        <time>2022-11-01T09:08:12.000Z</time>
      </trkpt>
      <trkpt lat="42.42141335271298885345458984375" lon="-8.662153780460357666015625">
        <ele>4.400000095367431640625</ele>
        <time>2022-11-01T09:08:13.000Z</time>
      </trkpt>
      <trkpt lat="42.42138451896607875823974609375" lon="-8.66225503385066986083984375">
        <ele>4.19999980926513671875</ele>
        <time>2022-11-01T09:08:14.000Z</time>
      </trkpt>
      <trkpt lat="42.42135568521916866302490234375" lon="-8.6623577959835529327392578125">
        <ele>4.19999980926513671875</ele>
        <time>2022-11-01T09:08:15.000Z</time>
      </trkpt>
      <trkpt lat="42.42132685147225856781005859375" lon="-8.66246148012578487396240234375">
        <ele>4</ele>
        <time>2022-11-01T09:08:16.000Z</time>
      </trkpt>
      <trkpt lat="42.42129332385957241058349609375" lon="-8.66258620284497737884521484375">
        <ele>3.7999999523162841796875</ele>
        <time>2022-11-01T09:08:17.000Z</time>
      </trkpt>
      <trkpt lat="42.42126993834972381591796875" lon="-8.6626699380576610565185546875">
        <ele>3.7999999523162841796875</ele>
        <time>2022-11-01T09:08:18.000Z</time>
      </trkpt>
      <trkpt lat="42.42123381234705448150634765625" lon="-8.662795163691043853759765625">
        <ele>3.599999904632568359375</ele>
        <time>2022-11-01T09:08:19.000Z</time>
      </trkpt>
      <trkpt lat="42.42120648734271526336669921875" lon="-8.66290186531841754913330078125">
        <ele>3.400000095367431640625</ele>
        <time>2022-11-01T09:08:20.000Z</time>
      </trkpt>
      <trkpt lat="42.42117849178612232208251953125" lon="-8.66300915367901325225830078125">
        <ele>3.2000000476837158203125</ele>
        <time>2022-11-01T09:08:21.000Z</time>
      </trkpt>
      <trkpt lat="42.4211530946195125579833984375" lon="-8.66309716366231441497802734375">
        <ele>3.2000000476837158203125</ele>
        <time>2022-11-01T09:08:22.000Z</time>
      </trkpt>
      <trkpt lat="42.42111931554973125457763671875" lon="-8.66320495493710041046142578125">
        <ele>3</ele>
        <time>2022-11-01T09:08:23.000Z</time>
      </trkpt>
      <trkpt lat="42.42108310572803020477294921875" lon="-8.66331182420253753662109375">
        <ele>3</ele>
        <time>2022-11-01T09:08:24.000Z</time>
      </trkpt>
      <trkpt lat="42.42104270495474338531494140625" lon="-8.66341785527765750885009765625">
        <ele>2.7999999523162841796875</ele>
        <time>2022-11-01T09:08:25.000Z</time>
      </trkpt>
      <trkpt lat="42.42099191062152385711669921875" lon="-8.66351567208766937255859375">
        <ele>2.599999904632568359375</ele>
        <time>2022-11-01T09:08:26.000Z</time>
      </trkpt>
      <trkpt lat="42.4209318123757839202880859375" lon="-8.6636066995561122894287109375">
        <ele>2.599999904632568359375</ele>
        <time>2022-11-01T09:08:27.000Z</time>
      </trkpt>
      <trkpt lat="42.42086517624557018280029296875" lon="-8.66368993185460567474365234375">
        <ele>2.2000000476837158203125</ele>
        <time>2022-11-01T09:08:28.000Z</time>
      </trkpt>
      <trkpt lat="42.42079242132604122161865234375" lon="-8.6637659557163715362548828125">
        <ele>2.2000000476837158203125</ele>
        <time>2022-11-01T09:08:29.000Z</time>
      </trkpt>
      <trkpt lat="42.42069753818213939666748046875" lon="-8.66385337896645069122314453125">
        <ele>1.7999999523162841796875</ele>
        <time>2022-11-01T09:08:30.000Z</time>
      </trkpt>
      <trkpt lat="42.4206129647791385650634765625" lon="-8.66392428986728191375732421875">
        <ele>1.60000002384185791015625</ele>
        <time>2022-11-01T09:08:31.000Z</time>
      </trkpt>
      <trkpt lat="42.42054515518248081207275390625" lon="-8.6639845557510852813720703125">
        <ele>1.39999997615814208984375</ele>
        <time>2022-11-01T09:08:32.000Z</time>
      </trkpt>
      <trkpt lat="42.42045831866562366485595703125" lon="-8.66406108252704143524169921875">
        <ele>1.2000000476837158203125</ele>
        <time>2022-11-01T09:08:33.000Z</time>
      </trkpt>
      <trkpt lat="42.42036913521587848663330078125" lon="-8.664138615131378173828125">
        <ele>0.800000011920928955078125</ele>
        <time>2022-11-01T09:08:34.000Z</time>
      </trkpt>
      <trkpt lat="42.42025782354176044464111328125" lon="-8.66422972641885280609130859375">
        <ele>0.60000002384185791015625</ele>
        <time>2022-11-01T09:08:35.000Z</time>
      </trkpt>
      <trkpt lat="42.42018406279385089874267578125" lon="-8.66428789682686328887939453125">
        <ele>0.20000000298023223876953125</ele>
        <time>2022-11-01T09:08:36.000Z</time>
      </trkpt>
      <trkpt lat="42.42009001784026622772216796875" lon="-8.66436266340315341949462890625">
        <ele>0</ele>
        <time>2022-11-01T09:08:37.000Z</time>
      </trkpt>
      <trkpt lat="42.41999882273375988006591796875" lon="-8.66443759761750698089599609375">
        <ele>-0.60000002384185791015625</ele>
        <time>2022-11-01T09:08:38.000Z</time>
      </trkpt>
      <trkpt lat="42.419889606535434722900390625" lon="-8.664530217647552490234375">
        <ele>-1</ele>
        <time>2022-11-01T09:08:39.000Z</time>
      </trkpt>
      <trkpt lat="42.419797740876674652099609375" lon="-8.6646081693470478057861328125">
        <ele>-1.2000000476837158203125</ele>
        <time>2022-11-01T09:08:40.000Z</time>
      </trkpt>
      <trkpt lat="42.41972423158586025238037109375" lon="-8.66467036306858062744140625">
        <ele>-1.39999997615814208984375</ele>
        <time>2022-11-01T09:08:41.000Z</time>
      </trkpt>
      <trkpt lat="42.41963320411741733551025390625" lon="-8.6647476442158222198486328125">
        <ele>-1.39999997615814208984375</ele>
        <time>2022-11-01T09:08:42.000Z</time>
      </trkpt>
      <trkpt lat="42.419542931020259857177734375" lon="-8.66482467390596866607666015625">
        <ele>-1.60000002384185791015625</ele>
        <time>2022-11-01T09:08:43.000Z</time>
      </trkpt>
      <trkpt lat="42.4194341339170932769775390625" lon="-8.6649176292121410369873046875">
        <ele>-1.7999999523162841796875</ele>
        <time>2022-11-01T09:08:44.000Z</time>
      </trkpt>
      <trkpt lat="42.41934436373412609100341796875" lon="-8.664993904531002044677734375">
        <ele>-1.7999999523162841796875</ele>
        <time>2022-11-01T09:08:45.000Z</time>
      </trkpt>
      <trkpt lat="42.41927060298621654510498046875" lon="-8.66505551151931285858154296875">
        <ele>-1.7999999523162841796875</ele>
        <time>2022-11-01T09:08:46.000Z</time>
      </trkpt>
      <trkpt lat="42.41917756386101245880126953125" lon="-8.6651318706572055816650390625">
        <ele>-1.7999999523162841796875</ele>
        <time>2022-11-01T09:08:47.000Z</time>
      </trkpt>
      <trkpt lat="42.41906776092946529388427734375" lon="-8.66522683762013912200927734375">
        <ele>-1.7999999523162841796875</ele>
        <time>2022-11-01T09:08:48.000Z</time>
      </trkpt>
      <trkpt lat="42.4189778231084346771240234375" lon="-8.66530462168157100677490234375">
        <ele>-1.7999999523162841796875</ele>
        <time>2022-11-01T09:08:49.000Z</time>
      </trkpt>
      <trkpt lat="42.41888402961194515228271484375" lon="-8.66538525559008121490478515625">
        <ele>-1.60000002384185791015625</ele>
        <time>2022-11-01T09:08:50.000Z</time>
      </trkpt>
      <trkpt lat="42.41880624555051326751708984375" lon="-8.665449209511280059814453125">
        <ele>-1.60000002384185791015625</ele>
        <time>2022-11-01T09:08:51.000Z</time>
      </trkpt>
      <trkpt lat="42.41871069185435771942138671875" lon="-8.6655271612107753753662109375">
        <ele>-1.60000002384185791015625</ele>
        <time>2022-11-01T09:08:52.000Z</time>
      </trkpt>
      <trkpt lat="42.41859535686671733856201171875" lon="-8.6656213738024234771728515625">
        <ele>-1.60000002384185791015625</ele>
        <time>2022-11-01T09:08:53.000Z</time>
      </trkpt>
      <trkpt lat="42.41850164718925952911376953125" lon="-8.6656991578638553619384765625">
        <ele>-1.60000002384185791015625</ele>
        <time>2022-11-01T09:08:54.000Z</time>
      </trkpt>
      <trkpt lat="42.41842788644134998321533203125" lon="-8.6657635308802127838134765625">
        <ele>-1.60000002384185791015625</ele>
        <time>2022-11-01T09:08:55.000Z</time>
      </trkpt>
      <trkpt lat="42.4183357693254947662353515625" lon="-8.665842153131961822509765625">
        <ele>-1.60000002384185791015625</ele>
        <time>2022-11-01T09:08:56.000Z</time>
      </trkpt>
      <trkpt lat="42.41824666969478130340576171875" lon="-8.66592052392661571502685546875">
        <ele>-1.60000002384185791015625</ele>
        <time>2022-11-01T09:08:57.000Z</time>
      </trkpt>
      <trkpt lat="42.41814558394253253936767578125" lon="-8.66601289249956607818603515625">
        <ele>-1.60000002384185791015625</ele>
        <time>2022-11-01T09:08:58.000Z</time>
      </trkpt>
      <trkpt lat="42.418065033853054046630859375" lon="-8.66608581505715847015380859375">
        <ele>-1.39999997615814208984375</ele>
        <time>2022-11-01T09:08:59.000Z</time>
      </trkpt>
      <trkpt lat="42.41798750124871730804443359375" lon="-8.666152618825435638427734375">
        <ele>-1.2000000476837158203125</ele>
        <time>2022-11-01T09:09:00.000Z</time>
      </trkpt>
      <trkpt lat="42.41792388260364532470703125" lon="-8.66620768792927265167236328125">
        <ele>-0.800000011920928955078125</ele>
        <time>2022-11-01T09:09:01.000Z</time>
      </trkpt>
      <trkpt lat="42.41784400306642055511474609375" lon="-8.66627457551658153533935546875">
        <ele>-0.800000011920928955078125</ele>
        <time>2022-11-01T09:09:02.000Z</time>
      </trkpt>
      <trkpt lat="42.4177497066557407379150390625" lon="-8.6663526110351085662841796875">
        <ele>-0.4000000059604644775390625</ele>
        <time>2022-11-01T09:09:03.000Z</time>
      </trkpt>
      <trkpt lat="42.41767284460365772247314453125" lon="-8.66641690023243427276611328125">
        <ele>-0.20000000298023223876953125</ele>
        <time>2022-11-01T09:09:04.000Z</time>
      </trkpt>
      <trkpt lat="42.4176115728914737701416015625" lon="-8.66646668873727321624755859375">
        <ele>0.4000000059604644775390625</ele>
        <time>2022-11-01T09:09:05.000Z</time>
      </trkpt>
      <trkpt lat="42.4175381474196910858154296875" lon="-8.6665286310017108917236328125">
        <ele>0.60000002384185791015625</ele>
        <time>2022-11-01T09:09:06.000Z</time>
      </trkpt>
      <trkpt lat="42.417464889585971832275390625" lon="-8.66657850332558155059814453125">
        <ele>1</ele>
        <time>2022-11-01T09:09:07.000Z</time>
      </trkpt>
      <trkpt lat="42.41739272139966487884521484375" lon="-8.6666451394557952880859375">
        <ele>1</ele>
        <time>2022-11-01T09:09:08.000Z</time>
      </trkpt>
      <trkpt lat="42.41733673028647899627685546875" lon="-8.66669350303709506988525390625">
        <ele>1.39999997615814208984375</ele>
        <time>2022-11-01T09:09:09.000Z</time>
      </trkpt>
      <trkpt lat="42.417273111641407012939453125" lon="-8.6667470633983612060546875">
        <ele>1.39999997615814208984375</ele>
        <time>2022-11-01T09:09:10.000Z</time>
      </trkpt>
      <trkpt lat="42.41721921600401401519775390625" lon="-8.6667901463806629180908203125">
        <ele>1.7999999523162841796875</ele>
        <time>2022-11-01T09:09:11.000Z</time>
      </trkpt>
      <trkpt lat="42.41714000701904296875" lon="-8.6668538488447666168212890625">
        <ele>2.2000000476837158203125</ele>
        <time>2022-11-01T09:09:12.000Z</time>
      </trkpt>
      <trkpt lat="42.417073287069797515869140625" lon="-8.66690673865377902984619140625">
        <ele>2.2000000476837158203125</ele>
        <time>2022-11-01T09:09:13.000Z</time>
      </trkpt>
      <trkpt lat="42.41700648330152034759521484375" lon="-8.66696231067180633544921875">
        <ele>2.400000095367431640625</ele>
        <time>2022-11-01T09:09:14.000Z</time>
      </trkpt>
      <trkpt lat="42.4169504083693027496337890625" lon="-8.6670087464153766632080078125">
        <ele>2.599999904632568359375</ele>
        <time>2022-11-01T09:09:15.000Z</time>
      </trkpt>
      <trkpt lat="42.41687991656363010406494140625" lon="-8.6670674197375774383544921875">
        <ele>2.599999904632568359375</ele>
        <time>2022-11-01T09:09:16.000Z</time>
      </trkpt>
      <trkpt lat="42.416796348989009857177734375" lon="-8.667134977877140045166015625">
        <ele>2.599999904632568359375</ele>
        <time>2022-11-01T09:09:17.000Z</time>
      </trkpt>
      <trkpt lat="42.4167257733643054962158203125" lon="-8.667193315923213958740234375">
        <ele>2.7999999523162841796875</ele>
        <time>2022-11-01T09:09:18.000Z</time>
      </trkpt>
      <trkpt lat="42.416657544672489166259765625" lon="-8.66725207306444644927978515625">
        <ele>2.7999999523162841796875</ele>
        <time>2022-11-01T09:09:19.000Z</time>
      </trkpt>
      <trkpt lat="42.41660515777766704559326171875" lon="-8.667300604283809661865234375">
        <ele>2.7999999523162841796875</ele>
        <time>2022-11-01T09:09:20.000Z</time>
      </trkpt>
      <trkpt lat="42.4165433831512928009033203125" lon="-8.6673624627292156219482421875">
        <ele>2.7999999523162841796875</ele>
        <time>2022-11-01T09:09:21.000Z</time>
      </trkpt>
      <trkpt lat="42.4164763279259204864501953125" lon="-8.667434714734554290771484375">
        <ele>3</ele>
        <time>2022-11-01T09:09:22.000Z</time>
      </trkpt>
      <trkpt lat="42.41642913781106472015380859375" lon="-8.66747234947979450225830078125">
        <ele>3</ele>
        <time>2022-11-01T09:09:23.000Z</time>
      </trkpt>
      <trkpt lat="42.4163676984608173370361328125" lon="-8.66751710884273052215576171875">
        <ele>3</ele>
        <time>2022-11-01T09:09:24.000Z</time>
      </trkpt>
      <trkpt lat="42.4163046665489673614501953125" lon="-8.66756714880466461181640625">
        <ele>3.2000000476837158203125</ele>
        <time>2022-11-01T09:09:25.000Z</time>
      </trkpt>
      <trkpt lat="42.41623518057167530059814453125" lon="-8.66762070916593074798583984375">
        <ele>3.2000000476837158203125</ele>
        <time>2022-11-01T09:09:26.000Z</time>
      </trkpt>
      <trkpt lat="42.41614582948386669158935546875" lon="-8.66768726147711277008056640625">
        <ele>3.2000000476837158203125</ele>
        <time>2022-11-01T09:09:27.000Z</time>
      </trkpt>
      <trkpt lat="42.416073493659496307373046875" lon="-8.66774258203804492950439453125">
        <ele>3.400000095367431640625</ele>
        <time>2022-11-01T09:09:28.000Z</time>
      </trkpt>
      <trkpt lat="42.4160148203372955322265625" lon="-8.66778616793453693389892578125">
        <ele>3.400000095367431640625</ele>
        <time>2022-11-01T09:09:29.000Z</time>
      </trkpt>
      <trkpt lat="42.415938042104244232177734375" lon="-8.6678425781428813934326171875">
        <ele>3.599999904632568359375</ele>
        <time>2022-11-01T09:09:30.000Z</time>
      </trkpt>
      <trkpt lat="42.4158641137182712554931640625" lon="-8.66790150292217731475830078125">
        <ele>3.599999904632568359375</ele>
        <time>2022-11-01T09:09:31.000Z</time>
      </trkpt>
      <trkpt lat="42.4157742597162723541259765625" lon="-8.6679736711084842681884765625">
        <ele>3.599999904632568359375</ele>
        <time>2022-11-01T09:09:32.000Z</time>
      </trkpt>
      <trkpt lat="42.41569706238806247711181640625" lon="-8.668033182621002197265625">
        <ele>3.599999904632568359375</ele>
        <time>2022-11-01T09:09:33.000Z</time>
      </trkpt>
      <trkpt lat="42.41561852395534515380859375" lon="-8.668089173734188079833984375">
        <ele>3.599999904632568359375</ele>
        <time>2022-11-01T09:09:34.000Z</time>
      </trkpt>
      <trkpt lat="42.415553145110607147216796875" lon="-8.66813032887876033782958984375">
        <ele>3.599999904632568359375</ele>
        <time>2022-11-01T09:09:35.000Z</time>
      </trkpt>
      <trkpt lat="42.41547527723014354705810546875" lon="-8.668179027736186981201171875">
        <ele>3.599999904632568359375</ele>
        <time>2022-11-01T09:09:36.000Z</time>
      </trkpt>
      <trkpt lat="42.41539766080677509307861328125" lon="-8.66822973825037479400634765625">
        <ele>3.599999904632568359375</ele>
        <time>2022-11-01T09:09:37.000Z</time>
      </trkpt>
      <trkpt lat="42.41532088257372379302978515625" lon="-8.66827617399394512176513671875">
        <ele>3.599999904632568359375</ele>
        <time>2022-11-01T09:09:38.000Z</time>
      </trkpt>
      <trkpt lat="42.41523974575102329254150390625" lon="-8.6683099530637264251708984375">
        <ele>3.599999904632568359375</ele>
        <time>2022-11-01T09:09:39.000Z</time>
      </trkpt>
      <trkpt lat="42.41515575908124446868896484375" lon="-8.66834188811480998992919921875">
        <ele>3.400000095367431640625</ele>
        <time>2022-11-01T09:09:40.000Z</time>
      </trkpt>
      <trkpt lat="42.415069006383419036865234375" lon="-8.66835831664502620697021484375">
        <ele>3.400000095367431640625</ele>
        <time>2022-11-01T09:09:41.000Z</time>
      </trkpt>
      <trkpt lat="42.41497839801013469696044921875" lon="-8.668362759053707122802734375">
        <ele>3.400000095367431640625</ele>
        <time>2022-11-01T09:09:42.000Z</time>
      </trkpt>
      <trkpt lat="42.41488653235137462615966796875" lon="-8.66835705935955047607421875">
        <ele>3.400000095367431640625</ele>
        <time>2022-11-01T09:09:43.000Z</time>
      </trkpt>
      <trkpt lat="42.41479550488293170928955078125" lon="-8.6683475039899349212646484375">
        <ele>3.2000000476837158203125</ele>
        <time>2022-11-01T09:09:44.000Z</time>
      </trkpt>
      <trkpt lat="42.41470347158610820770263671875" lon="-8.6683349311351776123046875">
        <ele>3.2000000476837158203125</ele>
        <time>2022-11-01T09:09:45.000Z</time>
      </trkpt>
      <trkpt lat="42.414610348641872406005859375" lon="-8.66832260973751544952392578125">
        <ele>3.2000000476837158203125</ele>
        <time>2022-11-01T09:09:46.000Z</time>
      </trkpt>
      <trkpt lat="42.41451554931700229644775390625" lon="-8.66831003688275814056396484375">
        <ele>3.2000000476837158203125</ele>
        <time>2022-11-01T09:09:47.000Z</time>
      </trkpt>
      <trkpt lat="42.4144190736114978790283203125" lon="-8.66829947568476200103759765625">
        <ele>3</ele>
        <time>2022-11-01T09:09:48.000Z</time>
      </trkpt>
      <trkpt lat="42.41432226262986660003662109375" lon="-8.66828656755387783050537109375">
        <ele>2.7999999523162841796875</ele>
        <time>2022-11-01T09:09:49.000Z</time>
      </trkpt>
      <trkpt lat="42.41422570310533046722412109375" lon="-8.66827064193785190582275390625">
        <ele>2.7999999523162841796875</ele>
        <time>2022-11-01T09:09:50.000Z</time>
      </trkpt>
      <trkpt lat="42.4141287244856357574462890625" lon="-8.66825538687407970428466796875">
        <ele>2.400000095367431640625</ele>
        <time>2022-11-01T09:09:51.000Z</time>
      </trkpt>
      <trkpt lat="42.4140311591327190399169921875" lon="-8.66824172437191009521484375">
        <ele>2.2000000476837158203125</ele>
        <time>2022-11-01T09:09:52.000Z</time>
      </trkpt>
      <trkpt lat="42.41391356103122234344482421875" lon="-8.66822898387908935546875">
        <ele>1.7999999523162841796875</ele>
        <time>2022-11-01T09:09:53.000Z</time>
      </trkpt>
      <trkpt lat="42.41383493877947330474853515625" lon="-8.6682268045842647552490234375">
        <ele>1.60000002384185791015625</ele>
        <time>2022-11-01T09:09:54.000Z</time>
      </trkpt>
      <trkpt lat="42.41373536176979541778564453125" lon="-8.6682271398603916168212890625">
        <ele>1.2000000476837158203125</ele>
        <time>2022-11-01T09:09:55.000Z</time>
      </trkpt>
      <trkpt lat="42.41363813169300556182861328125" lon="-8.66823560558259487152099609375">
        <ele>1.2000000476837158203125</ele>
        <time>2022-11-01T09:09:56.000Z</time>
      </trkpt>
      <trkpt lat="42.41352112032473087310791015625" lon="-8.66824683733284473419189453125">
        <ele>1</ele>
        <time>2022-11-01T09:09:57.000Z</time>
      </trkpt>
      <trkpt lat="42.41344383917748928070068359375" lon="-8.66825915873050689697265625">
        <ele>0.60000002384185791015625</ele>
        <time>2022-11-01T09:09:58.000Z</time>
      </trkpt>
      <trkpt lat="42.413347028195858001708984375" lon="-8.66827919147908687591552734375">
        <ele>0.60000002384185791015625</ele>
        <time>2022-11-01T09:09:59.000Z</time>
      </trkpt>
      <trkpt lat="42.41325080394744873046875" lon="-8.66830467246472835540771484375">
        <ele>0.60000002384185791015625</ele>
        <time>2022-11-01T09:10:00.000Z</time>
      </trkpt>
      <trkpt lat="42.41315516643226146697998046875" lon="-8.6683340929448604583740234375">
        <ele>0.20000000298023223876953125</ele>
        <time>2022-11-01T09:10:01.000Z</time>
      </trkpt>
      <trkpt lat="42.41304100491106510162353515625" lon="-8.66837440989911556243896484375">
        <ele>0.4000000059604644775390625</ele>
        <time>2022-11-01T09:10:02.000Z</time>
      </trkpt>
      <trkpt lat="42.4129488877952098846435546875" lon="-8.66841011680662631988525390625">
        <ele>0.4000000059604644775390625</ele>
        <time>2022-11-01T09:10:03.000Z</time>
      </trkpt>
      <trkpt lat="42.41287739016115665435791015625" lon="-8.66843895055353641510009765625">
        <ele>0.20000000298023223876953125</ele>
        <time>2022-11-01T09:10:04.000Z</time>
      </trkpt>
      <trkpt lat="42.4127889610826969146728515625" lon="-8.6684775911271572113037109375">
        <ele>0.20000000298023223876953125</ele>
        <time>2022-11-01T09:10:05.000Z</time>
      </trkpt>
      <trkpt lat="42.412701286375522613525390625" lon="-8.66851489059627056121826171875">
        <ele>0</ele>
        <time>2022-11-01T09:10:06.000Z</time>
      </trkpt>
      <trkpt lat="42.41261486895382404327392578125" lon="-8.6685543693602085113525390625">
        <ele>-0.20000000298023223876953125</ele>
        <time>2022-11-01T09:10:07.000Z</time>
      </trkpt>
      <trkpt lat="42.4125252664089202880859375" lon="-8.66859217174351215362548828125">
        <ele>-0.20000000298023223876953125</ele>
        <time>2022-11-01T09:10:08.000Z</time>
      </trkpt>
      <trkpt lat="42.412416972219944000244140625" lon="-8.66864137351512908935546875">
        <ele>-0.20000000298023223876953125</ele>
        <time>2022-11-01T09:10:09.000Z</time>
      </trkpt>
      <trkpt lat="42.4123437143862247467041015625" lon="-8.66867498494684696197509765625">
        <ele>-0.20000000298023223876953125</ele>
        <time>2022-11-01T09:10:10.000Z</time>
      </trkpt>
      <trkpt lat="42.41223466582596302032470703125" lon="-8.66872477345168590545654296875">
        <ele>-0.20000000298023223876953125</ele>
        <time>2022-11-01T09:10:11.000Z</time>
      </trkpt>
      <trkpt lat="42.41214430890977382659912109375" lon="-8.668764419853687286376953125">
        <ele>-0.20000000298023223876953125</ele>
        <time>2022-11-01T09:10:12.000Z</time>
      </trkpt>
      <trkpt lat="42.4120714701712131500244140625" lon="-8.66879618726670742034912109375">
        <ele>-0.4000000059604644775390625</ele>
        <time>2022-11-01T09:10:13.000Z</time>
      </trkpt>
      <trkpt lat="42.41198035888373851776123046875" lon="-8.6688353307545185089111328125">
        <ele>-0.4000000059604644775390625</ele>
        <time>2022-11-01T09:10:14.000Z</time>
      </trkpt>
      <trkpt lat="42.41188799031078815460205078125" lon="-8.668875060975551605224609375">
        <ele>-0.4000000059604644775390625</ele>
        <time>2022-11-01T09:10:15.000Z</time>
      </trkpt>
      <trkpt lat="42.4117938615381717681884765625" lon="-8.66891638375818729400634765625">
        <ele>-0.4000000059604644775390625</ele>
        <time>2022-11-01T09:10:16.000Z</time>
      </trkpt>
      <trkpt lat="42.41169939748942852020263671875" lon="-8.66895862855017185211181640625">
        <ele>-0.800000011920928955078125</ele>
        <time>2022-11-01T09:10:17.000Z</time>
      </trkpt>
      <trkpt lat="42.41160468198359012603759765625" lon="-8.66899902932345867156982421875">
        <ele>-0.800000011920928955078125</ele>
        <time>2022-11-01T09:10:18.000Z</time>
      </trkpt>
      <trkpt lat="42.411512397229671478271484375" lon="-8.669039346277713775634765625">
        <ele>-1</ele>
        <time>2022-11-01T09:10:19.000Z</time>
      </trkpt>
      <trkpt lat="42.4114203639328479766845703125" lon="-8.66908050142228603363037109375">
        <ele>-1</ele>
        <time>2022-11-01T09:10:20.000Z</time>
      </trkpt>
      <trkpt lat="42.4113278277218341827392578125" lon="-8.66912358440458774566650390625">
        <ele>-1.2000000476837158203125</ele>
        <time>2022-11-01T09:10:21.000Z</time>
      </trkpt>
      <trkpt lat="42.41123504005372524261474609375" lon="-8.66916649974882602691650390625">
        <ele>-1.2000000476837158203125</ele>
        <time>2022-11-01T09:10:22.000Z</time>
      </trkpt>
      <trkpt lat="42.41112506948411464691162109375" lon="-8.6692195571959018707275390625">
        <ele>-1.2000000476837158203125</ele>
        <time>2022-11-01T09:10:23.000Z</time>
      </trkpt>
      <trkpt lat="42.4110532365739345550537109375" lon="-8.6692576110363006591796875">
        <ele>-1.2000000476837158203125</ele>
        <time>2022-11-01T09:10:24.000Z</time>
      </trkpt>
      <trkpt lat="42.41096413694322109222412109375" lon="-8.669304884970188140869140625">
        <ele>-1.2000000476837158203125</ele>
        <time>2022-11-01T09:10:25.000Z</time>
      </trkpt>
      <trkpt lat="42.4108752049505710601806640625" lon="-8.66935140453279018402099609375">
        <ele>-1</ele>
        <time>2022-11-01T09:10:26.000Z</time>
      </trkpt>
      <trkpt lat="42.41076984442770481109619140625" lon="-8.6694036237895488739013671875">
        <ele>-1</ele>
        <time>2022-11-01T09:10:27.000Z</time>
      </trkpt>
      <trkpt lat="42.41068451665341854095458984375" lon="-8.66945098154246807098388671875">
        <ele>-1</ele>
        <time>2022-11-01T09:10:28.000Z</time>
      </trkpt>
      <trkpt lat="42.4105996079742908477783203125" lon="-8.66950194351375102996826171875">
        <ele>-1</ele>
        <time>2022-11-01T09:10:29.000Z</time>
      </trkpt>
      <trkpt lat="42.4105164594948291778564453125" lon="-8.669551312923431396484375">
        <ele>-1</ele>
        <time>2022-11-01T09:10:30.000Z</time>
      </trkpt>
      <trkpt lat="42.41043758578598499298095703125" lon="-8.66959766484797000885009765625">
        <ele>-1</ele>
        <time>2022-11-01T09:10:31.000Z</time>
      </trkpt>
      <trkpt lat="42.4103602208197116851806640625" lon="-8.6696456931531429290771484375">
        <ele>-1</ele>
        <time>2022-11-01T09:10:32.000Z</time>
      </trkpt>
      <trkpt lat="42.410283945500850677490234375" lon="-8.66969414055347442626953125">
        <ele>-0.800000011920928955078125</ele>
        <time>2022-11-01T09:10:33.000Z</time>
      </trkpt>
      <trkpt lat="42.41020926274359226226806640625" lon="-8.6697459407150745391845703125">
        <ele>-0.800000011920928955078125</ele>
        <time>2022-11-01T09:10:34.000Z</time>
      </trkpt>
      <trkpt lat="42.41013684310019016265869140625" lon="-8.66979849524796009063720703125">
        <ele>-0.800000011920928955078125</ele>
        <time>2022-11-01T09:10:35.000Z</time>
      </trkpt>
      <trkpt lat="42.4100665189325809478759765625" lon="-8.6698515526950359344482421875">
        <ele>-0.800000011920928955078125</ele>
        <time>2022-11-01T09:10:36.000Z</time>
      </trkpt>
      <trkpt lat="42.40999971516430377960205078125" lon="-8.66990863345563411712646484375">
        <ele>-0.60000002384185791015625</ele>
        <time>2022-11-01T09:10:37.000Z</time>
      </trkpt>
      <trkpt lat="42.40993634797632694244384765625" lon="-8.66997267119586467742919921875">
        <ele>-0.4000000059604644775390625</ele>
        <time>2022-11-01T09:10:38.000Z</time>
      </trkpt>
      <trkpt lat="42.40987884812057018280029296875" lon="-8.6700433306396007537841796875">
        <ele>-0.4000000059604644775390625</ele>
        <time>2022-11-01T09:10:39.000Z</time>
      </trkpt>
      <trkpt lat="42.4098251201212406158447265625" lon="-8.670116253197193145751953125">
        <ele>-0.4000000059604644775390625</ele>
        <time>2022-11-01T09:10:40.000Z</time>
      </trkpt>
      <trkpt lat="42.409788072109222412109375" lon="-8.67017735727131366729736328125">
        <ele>0</ele>
        <time>2022-11-01T09:10:41.000Z</time>
      </trkpt>
      <trkpt lat="42.40974457003176212310791015625" lon="-8.67025882937014102935791015625">
        <ele>0.20000000298023223876953125</ele>
        <time>2022-11-01T09:10:42.000Z</time>
      </trkpt>
      <trkpt lat="42.4097057618200778961181640625" lon="-8.67034214548766613006591796875">
        <ele>0.4000000059604644775390625</ele>
        <time>2022-11-01T09:10:43.000Z</time>
      </trkpt>
      <trkpt lat="42.40967298857867717742919921875" lon="-8.67042797617614269256591796875">
        <ele>0.4000000059604644775390625</ele>
        <time>2022-11-01T09:10:44.000Z</time>
      </trkpt>
      <trkpt lat="42.40964599885046482086181640625" lon="-8.67051489651203155517578125">
        <ele>0.60000002384185791015625</ele>
        <time>2022-11-01T09:10:45.000Z</time>
      </trkpt>
      <trkpt lat="42.40961934439837932586669921875" lon="-8.67061656899750232696533203125">
        <ele>0.800000011920928955078125</ele>
        <time>2022-11-01T09:10:46.000Z</time>
      </trkpt>
      <trkpt lat="42.40959922783076763153076171875" lon="-8.67070189677178859710693359375">
        <ele>1</ele>
        <time>2022-11-01T09:10:47.000Z</time>
      </trkpt>
      <trkpt lat="42.4095850624144077301025390625" lon="-8.67077062837779521942138671875">
        <ele>1.39999997615814208984375</ele>
        <time>2022-11-01T09:10:48.000Z</time>
      </trkpt>
      <trkpt lat="42.40956771187484264373779296875" lon="-8.67085427977144718170166015625">
        <ele>1.60000002384185791015625</ele>
        <time>2022-11-01T09:10:49.000Z</time>
      </trkpt>
      <trkpt lat="42.40954709239304065704345703125" lon="-8.670951761305332183837890625">
        <ele>2</ele>
        <time>2022-11-01T09:10:50.000Z</time>
      </trkpt>
      <trkpt lat="42.4095292389392852783203125" lon="-8.67103046737611293792724609375">
        <ele>2.2000000476837158203125</ele>
        <time>2022-11-01T09:10:51.000Z</time>
      </trkpt>
      <trkpt lat="42.40951390005648136138916015625" lon="-8.67111026309430599212646484375">
        <ele>2.599999904632568359375</ele>
        <time>2022-11-01T09:10:52.000Z</time>
      </trkpt>
      <trkpt lat="42.40949663333594799041748046875" lon="-8.6711941659450531005859375">
        <ele>3</ele>
        <time>2022-11-01T09:10:53.000Z</time>
      </trkpt>
      <trkpt lat="42.40948037244379520416259765625" lon="-8.67127957753837108612060546875">
        <ele>3.2000000476837158203125</ele>
        <time>2022-11-01T09:10:54.000Z</time>
      </trkpt>
      <trkpt lat="42.40946645848453044891357421875" lon="-8.671366162598133087158203125">
        <ele>3.599999904632568359375</ele>
        <time>2022-11-01T09:10:55.000Z</time>
      </trkpt>
      <trkpt lat="42.40945220924913883209228515625" lon="-8.671451322734355926513671875">
        <ele>3.7999999523162841796875</ele>
        <time>2022-11-01T09:10:56.000Z</time>
      </trkpt>
      <trkpt lat="42.40943511016666889190673828125" lon="-8.671535812318325042724609375">
        <ele>4</ele>
        <time>2022-11-01T09:10:57.000Z</time>
      </trkpt>
      <trkpt lat="42.40941834636032581329345703125" lon="-8.6716204695403575897216796875">
        <ele>4</ele>
        <time>2022-11-01T09:10:58.000Z</time>
      </trkpt>
      <trkpt lat="42.4094036780297756195068359375" lon="-8.6717056296765804290771484375">
        <ele>4.19999980926513671875</ele>
        <time>2022-11-01T09:10:59.000Z</time>
      </trkpt>
      <trkpt lat="42.40938984788954257965087890625" lon="-8.67179087363183498382568359375">
        <ele>4.400000095367431640625</ele>
        <time>2022-11-01T09:11:00.000Z</time>
      </trkpt>
      <trkpt lat="42.40937610156834125518798828125" lon="-8.6718752793967723846435546875">
        <ele>4.80000019073486328125</ele>
        <time>2022-11-01T09:11:01.000Z</time>
      </trkpt>
      <trkpt lat="42.40936000831425189971923828125" lon="-8.67196035571396350860595703125">
        <ele>4.80000019073486328125</ele>
        <time>2022-11-01T09:11:02.000Z</time>
      </trkpt>
      <trkpt lat="42.40934290923178195953369140625" lon="-8.67204375565052032470703125">
        <ele>5.19999980926513671875</ele>
        <time>2022-11-01T09:11:03.000Z</time>
      </trkpt>
      <trkpt lat="42.4093295820057392120361328125" lon="-8.67211072705686092376708984375">
        <ele>5.19999980926513671875</ele>
        <time>2022-11-01T09:11:04.000Z</time>
      </trkpt>
      <trkpt lat="42.40930921398103237152099609375" lon="-8.6722115613520145416259765625">
        <ele>5.19999980926513671875</ele>
        <time>2022-11-01T09:11:05.000Z</time>
      </trkpt>
      <trkpt lat="42.40929479710757732391357421875" lon="-8.6722992360591888427734375">
        <ele>5.400000095367431640625</ele>
        <time>2022-11-01T09:11:06.000Z</time>
      </trkpt>
      <trkpt lat="42.4092789553105831146240234375" lon="-8.672390766441822052001953125">
        <ele>5.400000095367431640625</ele>
        <time>2022-11-01T09:11:07.000Z</time>
      </trkpt>
      <trkpt lat="42.409260012209415435791015625" lon="-8.67248171009123325347900390625">
        <ele>5.400000095367431640625</ele>
        <time>2022-11-01T09:11:08.000Z</time>
      </trkpt>
      <trkpt lat="42.4092434160411357879638671875" lon="-8.6725753359496593475341796875">
        <ele>5.400000095367431640625</ele>
        <time>2022-11-01T09:11:09.000Z</time>
      </trkpt>
      <trkpt lat="42.4092276580631732940673828125" lon="-8.6726695485413074493408203125">
        <ele>5.400000095367431640625</ele>
        <time>2022-11-01T09:11:10.000Z</time>
      </trkpt>
      <trkpt lat="42.40921047516167163848876953125" lon="-8.67276501841843128204345703125">
        <ele>5.599999904632568359375</ele>
        <time>2022-11-01T09:11:11.000Z</time>
      </trkpt>
      <trkpt lat="42.40919387899339199066162109375" lon="-8.67286191321909427642822265625">
        <ele>5.599999904632568359375</ele>
        <time>2022-11-01T09:11:12.000Z</time>
      </trkpt>
      <trkpt lat="42.40917795337736606597900390625" lon="-8.67295880801975727081298828125">
        <ele>5.599999904632568359375</ele>
        <time>2022-11-01T09:11:13.000Z</time>
      </trkpt>
      <trkpt lat="42.40916110575199127197265625" lon="-8.67305704392492771148681640625">
        <ele>5.599999904632568359375</ele>
        <time>2022-11-01T09:11:14.000Z</time>
      </trkpt>
      <trkpt lat="42.40914207883179187774658203125" lon="-8.67315419018268585205078125">
        <ele>5.599999904632568359375</ele>
        <time>2022-11-01T09:11:15.000Z</time>
      </trkpt>
      <trkpt lat="42.4091215431690216064453125" lon="-8.67325334809720516204833984375">
        <ele>5.599999904632568359375</ele>
        <time>2022-11-01T09:11:16.000Z</time>
      </trkpt>
      <trkpt lat="42.40909807384014129638671875" lon="-8.673351667821407318115234375">
        <ele>5.599999904632568359375</ele>
        <time>2022-11-01T09:11:17.000Z</time>
      </trkpt>
      <trkpt lat="42.40907167084515094757080078125" lon="-8.6734504066407680511474609375">
        <ele>5.599999904632568359375</ele>
        <time>2022-11-01T09:11:18.000Z</time>
      </trkpt>
      <trkpt lat="42.40904484875500202178955078125" lon="-8.67355115711688995361328125">
        <ele>5.400000095367431640625</ele>
        <time>2022-11-01T09:11:19.000Z</time>
      </trkpt>
      <trkpt lat="42.4090164341032505035400390625" lon="-8.67365400306880474090576171875">
        <ele>5.400000095367431640625</ele>
        <time>2022-11-01T09:11:20.000Z</time>
      </trkpt>
      <trkpt lat="42.40898869000375270843505859375" lon="-8.6737612076103687286376953125">
        <ele>5.19999980926513671875</ele>
        <time>2022-11-01T09:11:21.000Z</time>
      </trkpt>
      <trkpt lat="42.4089674837887287139892578125" lon="-8.6738483794033527374267578125">
        <ele>5.19999980926513671875</ele>
        <time>2022-11-01T09:11:22.000Z</time>
      </trkpt>
      <trkpt lat="42.408940829336643218994140625" lon="-8.67395860143005847930908203125">
        <ele>5</ele>
        <time>2022-11-01T09:11:23.000Z</time>
      </trkpt>
      <trkpt lat="42.40891073830425739288330078125" lon="-8.67409187369048595428466796875">
        <ele>4.80000019073486328125</ele>
        <time>2022-11-01T09:11:24.000Z</time>
      </trkpt>
      <trkpt lat="42.4088856764137744903564453125" lon="-8.674203269183635711669921875">
        <ele>5</ele>
        <time>2022-11-01T09:11:25.000Z</time>
      </trkpt>
      <trkpt lat="42.40886279381811618804931640625" lon="-8.67431466467678546905517578125">
        <ele>5</ele>
        <time>2022-11-01T09:11:26.000Z</time>
      </trkpt>
      <trkpt lat="42.40884192287921905517578125" lon="-8.67442555725574493408203125">
        <ele>4.80000019073486328125</ele>
        <time>2022-11-01T09:11:27.000Z</time>
      </trkpt>
      <trkpt lat="42.40882507525384426116943359375" lon="-8.67453661747276782989501953125">
        <ele>4.599999904632568359375</ele>
        <time>2022-11-01T09:11:28.000Z</time>
      </trkpt>
      <trkpt lat="42.40880747325718402862548828125" lon="-8.67465061135590076446533203125">
        <ele>4.400000095367431640625</ele>
        <time>2022-11-01T09:11:29.000Z</time>
      </trkpt>
      <trkpt lat="42.40879087708890438079833984375" lon="-8.67476359941065311431884765625">
        <ele>4.599999904632568359375</ele>
        <time>2022-11-01T09:11:30.000Z</time>
      </trkpt>
      <trkpt lat="42.40877629257738590240478515625" lon="-8.67487608455121517181396484375">
        <ele>4.599999904632568359375</ele>
        <time>2022-11-01T09:11:31.000Z</time>
      </trkpt>
      <trkpt lat="42.40876137278974056243896484375" lon="-8.67498722858726978302001953125">
        <ele>4.400000095367431640625</ele>
        <time>2022-11-01T09:11:32.000Z</time>
      </trkpt>
      <trkpt lat="42.4087498895823955535888671875" lon="-8.6750744841992855072021484375">
        <ele>4.400000095367431640625</ele>
        <time>2022-11-01T09:11:33.000Z</time>
      </trkpt>
      <trkpt lat="42.40873203612864017486572265625" lon="-8.67520415224134922027587890625">
        <ele>4.599999904632568359375</ele>
        <time>2022-11-01T09:11:34.000Z</time>
      </trkpt>
      <trkpt lat="42.4087183736264705657958984375" lon="-8.67531177587807178497314453125">
        <ele>4.599999904632568359375</ele>
        <time>2022-11-01T09:11:35.000Z</time>
      </trkpt>
      <trkpt lat="42.40870647132396697998046875" lon="-8.67539358325302600860595703125">
        <ele>4.599999904632568359375</ele>
        <time>2022-11-01T09:11:36.000Z</time>
      </trkpt>
      <trkpt lat="42.408694066107273101806640625" lon="-8.67549818940460681915283203125">
        <ele>4.599999904632568359375</ele>
        <time>2022-11-01T09:11:37.000Z</time>
      </trkpt>
      <trkpt lat="42.40868191234767436981201171875" lon="-8.67560296319425106048583984375">
        <ele>4.80000019073486328125</ele>
        <time>2022-11-01T09:11:38.000Z</time>
      </trkpt>
      <trkpt lat="42.40866850130259990692138671875" lon="-8.67570622824132442474365234375">
        <ele>5</ele>
        <time>2022-11-01T09:11:39.000Z</time>
      </trkpt>
      <trkpt lat="42.40865190513432025909423828125" lon="-8.67582944221794605255126953125">
        <ele>5</ele>
        <time>2022-11-01T09:11:40.000Z</time>
      </trkpt>
      <trkpt lat="42.4086399190127849578857421875" lon="-8.67593086324632167816162109375">
        <ele>5</ele>
        <time>2022-11-01T09:11:41.000Z</time>
      </trkpt>
      <trkpt lat="42.408629022538661956787109375" lon="-8.67601082660257816314697265625">
        <ele>5.19999980926513671875</ele>
        <time>2022-11-01T09:11:42.000Z</time>
      </trkpt>
      <trkpt lat="42.40861569531261920928955078125" lon="-8.67611023597419261932373046875">
        <ele>5.400000095367431640625</ele>
        <time>2022-11-01T09:11:43.000Z</time>
      </trkpt>
      <trkpt lat="42.40860278718173503875732421875" lon="-8.67621014825999736785888671875">
        <ele>5.400000095367431640625</ele>
        <time>2022-11-01T09:11:44.000Z</time>
      </trkpt>
      <trkpt lat="42.4085872806608676910400390625" lon="-8.67632749490439891815185546875">
        <ele>5.80000019073486328125</ele>
        <time>2022-11-01T09:11:45.000Z</time>
      </trkpt>
      <trkpt lat="42.40857445634901523590087890625" lon="-8.67642388679087162017822265625">
        <ele>6</ele>
        <time>2022-11-01T09:11:46.000Z</time>
      </trkpt>
      <trkpt lat="42.40856138058006763458251953125" lon="-8.6765198595821857452392578125">
        <ele>6.19999980926513671875</ele>
        <time>2022-11-01T09:11:47.000Z</time>
      </trkpt>
      <trkpt lat="42.40855165757238864898681640625" lon="-8.6765973083674907684326171875">
        <ele>6.400000095367431640625</ele>
        <time>2022-11-01T09:11:48.000Z</time>
      </trkpt>
      <trkpt lat="42.4085395038127899169921875" lon="-8.6766900122165679931640625">
        <ele>6.80000019073486328125</ele>
        <time>2022-11-01T09:11:49.000Z</time>
      </trkpt>
      <trkpt lat="42.40852399729192256927490234375" lon="-8.67680358700454235076904296875">
        <ele>7</ele>
        <time>2022-11-01T09:11:50.000Z</time>
      </trkpt>
      <trkpt lat="42.40851058624684810638427734375" lon="-8.67689511738717555999755859375">
        <ele>7.19999980926513671875</ele>
        <time>2022-11-01T09:11:51.000Z</time>
      </trkpt>
      <trkpt lat="42.40849583409726619720458984375" lon="-8.6769885756075382232666015625">
        <ele>7.80000019073486328125</ele>
        <time>2022-11-01T09:11:52.000Z</time>
      </trkpt>
      <trkpt lat="42.4084826745092868804931640625" lon="-8.6770633421838283538818359375">
        <ele>8.19999980926513671875</ele>
        <time>2022-11-01T09:11:53.000Z</time>
      </trkpt>
      <trkpt lat="42.40845861844718456268310546875" lon="-8.6771746538579463958740234375">
        <ele>8.19999980926513671875</ele>
        <time>2022-11-01T09:11:54.000Z</time>
      </trkpt>
      <trkpt lat="42.40843431092798709869384765625" lon="-8.6772695370018482208251953125">
        <ele>8.6000003814697265625</ele>
        <time>2022-11-01T09:11:55.000Z</time>
      </trkpt>
      <trkpt lat="42.40840765647590160369873046875" lon="-8.67736316286027431488037109375">
        <ele>8.6000003814697265625</ele>
        <time>2022-11-01T09:11:56.000Z</time>
      </trkpt>
      <trkpt lat="42.40837513469159603118896484375" lon="-8.6774529330432415008544921875">
        <ele>8.6000003814697265625</ele>
        <time>2022-11-01T09:11:57.000Z</time>
      </trkpt>
      <trkpt lat="42.4083395116031169891357421875" lon="-8.67753968574106693267822265625">
        <ele>8.6000003814697265625</ele>
        <time>2022-11-01T09:11:58.000Z</time>
      </trkpt>
      <trkpt lat="42.4082986079156398773193359375" lon="-8.67762409150600433349609375">
        <ele>8.6000003814697265625</ele>
        <time>2022-11-01T09:11:59.000Z</time>
      </trkpt>
      <trkpt lat="42.4082533456385135650634765625" lon="-8.6777074076235294342041015625">
        <ele>8.3999996185302734375</ele>
        <time>2022-11-01T09:12:00.000Z</time>
      </trkpt>
      <trkpt lat="42.408215291798114776611328125" lon="-8.67777421139180660247802734375">
        <ele>8.3999996185302734375</ele>
        <time>2022-11-01T09:12:01.000Z</time>
      </trkpt>
      <trkpt lat="42.4081554450094699859619140625" lon="-8.67787328548729419708251953125">
        <ele>8.6000003814697265625</ele>
        <time>2022-11-01T09:12:02.000Z</time>
      </trkpt>
      <trkpt lat="42.40810054354369640350341796875" lon="-8.67794997990131378173828125">
        <ele>8.3999996185302734375</ele>
        <time>2022-11-01T09:12:03.000Z</time>
      </trkpt>
      <trkpt lat="42.40804103203117847442626953125" lon="-8.67802365683019161224365234375">
        <ele>8.19999980926513671875</ele>
        <time>2022-11-01T09:12:04.000Z</time>
      </trkpt>
      <trkpt lat="42.40799157880246639251708984375" lon="-8.67808015085756778717041015625">
        <ele>8</ele>
        <time>2022-11-01T09:12:05.000Z</time>
      </trkpt>
      <trkpt lat="42.40792728960514068603515625" lon="-8.6781464517116546630859375">
        <ele>7.80000019073486328125</ele>
        <time>2022-11-01T09:12:06.000Z</time>
      </trkpt>
      <trkpt lat="42.40785889327526092529296875" lon="-8.678207807242870330810546875">
        <ele>7.599999904632568359375</ele>
        <time>2022-11-01T09:12:07.000Z</time>
      </trkpt>
      <trkpt lat="42.40777147002518177032470703125" lon="-8.67827712558209896087646484375">
        <ele>7.599999904632568359375</ele>
        <time>2022-11-01T09:12:08.000Z</time>
      </trkpt>
      <trkpt lat="42.40769385360181331634521484375" lon="-8.6783347092568874359130859375">
        <ele>7.19999980926513671875</ele>
        <time>2022-11-01T09:12:09.000Z</time>
      </trkpt>
      <trkpt lat="42.40763065405189990997314453125" lon="-8.67838541977107524871826171875">
        <ele>7</ele>
        <time>2022-11-01T09:12:10.000Z</time>
      </trkpt>
      <trkpt lat="42.4075509421527385711669921875" lon="-8.67845130153000354766845703125">
        <ele>6.599999904632568359375</ele>
        <time>2022-11-01T09:12:11.000Z</time>
      </trkpt>
      <trkpt lat="42.40746997296810150146484375" lon="-8.67851835675537586212158203125">
        <ele>6.400000095367431640625</ele>
        <time>2022-11-01T09:12:12.000Z</time>
      </trkpt>
      <trkpt lat="42.40738741122186183929443359375" lon="-8.67858474142849445343017578125">
        <ele>6.19999980926513671875</ele>
        <time>2022-11-01T09:12:13.000Z</time>
      </trkpt>
      <trkpt lat="42.40730342455208301544189453125" lon="-8.67865313775837421417236328125">
        <ele>5.599999904632568359375</ele>
        <time>2022-11-01T09:12:14.000Z</time>
      </trkpt>
      <trkpt lat="42.40720083005726337432861328125" lon="-8.67873779498040676116943359375">
        <ele>5.19999980926513671875</ele>
        <time>2022-11-01T09:12:15.000Z</time>
      </trkpt>
      <trkpt lat="42.40713025443255901336669921875" lon="-8.67879345081746578216552734375">
        <ele>4.400000095367431640625</ele>
        <time>2022-11-01T09:12:16.000Z</time>
      </trkpt>
      <trkpt lat="42.40704081952571868896484375" lon="-8.678862266242504119873046875">
        <ele>4.19999980926513671875</ele>
        <time>2022-11-01T09:12:17.000Z</time>
      </trkpt>
      <trkpt lat="42.4069531448185443878173828125" lon="-8.67893259041011333465576171875">
        <ele>3.7999999523162841796875</ele>
        <time>2022-11-01T09:12:18.000Z</time>
      </trkpt>
      <trkpt lat="42.40686622448265552520751953125" lon="-8.67900316603481769561767578125">
        <ele>3.599999904632568359375</ele>
        <time>2022-11-01T09:12:19.000Z</time>
      </trkpt>
      <trkpt lat="42.406763546168804168701171875" lon="-8.679090254008769989013671875">
        <ele>3.2000000476837158203125</ele>
        <time>2022-11-01T09:12:20.000Z</time>
      </trkpt>
      <trkpt lat="42.40669456310570240020751953125" lon="-8.67914716713130474090576171875">
        <ele>3</ele>
        <time>2022-11-01T09:12:21.000Z</time>
      </trkpt>
      <trkpt lat="42.40660772658884525299072265625" lon="-8.679215647280216217041015625">
        <ele>2.7999999523162841796875</ele>
        <time>2022-11-01T09:12:22.000Z</time>
      </trkpt>
      <trkpt lat="42.4065209738910198211669921875" lon="-8.67928446270525455474853515625">
        <ele>2.599999904632568359375</ele>
        <time>2022-11-01T09:12:23.000Z</time>
      </trkpt>
      <trkpt lat="42.40643464028835296630859375" lon="-8.67935352958738803863525390625">
        <ele>2.400000095367431640625</ele>
        <time>2022-11-01T09:12:24.000Z</time>
      </trkpt>
      <trkpt lat="42.4063493125140666961669921875" lon="-8.67942309938371181488037109375">
        <ele>2.400000095367431640625</ele>
        <time>2022-11-01T09:12:25.000Z</time>
      </trkpt>
      <trkpt lat="42.4062641523778438568115234375" lon="-8.67949233390390872955322265625">
        <ele>2.2000000476837158203125</ele>
        <time>2022-11-01T09:12:26.000Z</time>
      </trkpt>
      <trkpt lat="42.4061796627938747406005859375" lon="-8.6795614846050739288330078125">
        <ele>2.2000000476837158203125</ele>
        <time>2022-11-01T09:12:27.000Z</time>
      </trkpt>
      <trkpt lat="42.40609609521925449371337890625" lon="-8.6796288751065731048583984375">
        <ele>2.2000000476837158203125</ele>
        <time>2022-11-01T09:12:28.000Z</time>
      </trkpt>
      <trkpt lat="42.40599651820957660675048828125" lon="-8.679708503186702728271484375">
        <ele>2</ele>
        <time>2022-11-01T09:12:29.000Z</time>
      </trkpt>
      <trkpt lat="42.4059154652059078216552734375" lon="-8.67977782152593135833740234375">
        <ele>2</ele>
        <time>2022-11-01T09:12:30.000Z</time>
      </trkpt>
      <trkpt lat="42.405834160745143890380859375" lon="-8.67984772659838199615478515625">
        <ele>1.7999999523162841796875</ele>
        <time>2022-11-01T09:12:31.000Z</time>
      </trkpt>
      <trkpt lat="42.405769787728786468505859375" lon="-8.6799034662544727325439453125">
        <ele>1.7999999523162841796875</ele>
        <time>2022-11-01T09:12:32.000Z</time>
      </trkpt>
      <trkpt lat="42.40568839944899082183837890625" lon="-8.679972030222415924072265625">
        <ele>1.60000002384185791015625</ele>
        <time>2022-11-01T09:12:33.000Z</time>
      </trkpt>
      <trkpt lat="42.4055902473628520965576171875" lon="-8.680054508149623870849609375">
        <ele>1.39999997615814208984375</ele>
        <time>2022-11-01T09:12:34.000Z</time>
      </trkpt>
      <trkpt lat="42.4055094458162784576416015625" lon="-8.68012885563075542449951171875">
        <ele>1.39999997615814208984375</ele>
        <time>2022-11-01T09:12:35.000Z</time>
      </trkpt>
      <trkpt lat="42.405449263751506805419921875" lon="-8.68019188754260540008544921875">
        <ele>1.39999997615814208984375</ele>
        <time>2022-11-01T09:12:36.000Z</time>
      </trkpt>
      <trkpt lat="42.40537558682262897491455078125" lon="-8.680273108184337615966796875">
        <ele>1.39999997615814208984375</ele>
        <time>2022-11-01T09:12:37.000Z</time>
      </trkpt>
      <trkpt lat="42.405303753912448883056640625" lon="-8.68035969324409961700439453125">
        <ele>1.2000000476837158203125</ele>
        <time>2022-11-01T09:12:38.000Z</time>
      </trkpt>
      <trkpt lat="42.40523711778223514556884765625" lon="-8.68045357055962085723876953125">
        <ele>1.2000000476837158203125</ele>
        <time>2022-11-01T09:12:39.000Z</time>
      </trkpt>
      <trkpt lat="42.405162267386913299560546875" lon="-8.68057577870786190032958984375">
        <ele>1</ele>
        <time>2022-11-01T09:12:40.000Z</time>
      </trkpt>
      <trkpt lat="42.40511708892881870269775390625" lon="-8.68066328577697277069091796875">
        <ele>1</ele>
        <time>2022-11-01T09:12:41.000Z</time>
      </trkpt>
      <trkpt lat="42.40506612695753574371337890625" lon="-8.68077828548848628997802734375">
        <ele>0.800000011920928955078125</ele>
        <time>2022-11-01T09:12:42.000Z</time>
      </trkpt>
      <trkpt lat="42.4050219543278217315673828125" lon="-8.68089864961802959442138671875">
        <ele>0.800000011920928955078125</ele>
        <time>2022-11-01T09:12:43.000Z</time>
      </trkpt>
      <trkpt lat="42.4049823917448520660400390625" lon="-8.681022115051746368408203125">
        <ele>0.800000011920928955078125</ele>
        <time>2022-11-01T09:12:44.000Z</time>
      </trkpt>
      <trkpt lat="42.4049411527812480926513671875" lon="-8.681175671517848968505859375">
        <ele>0.60000002384185791015625</ele>
        <time>2022-11-01T09:12:45.000Z</time>
      </trkpt>
      <trkpt lat="42.40491785109043121337890625" lon="-8.681278936564922332763671875">
        <ele>0.4000000059604644775390625</ele>
        <time>2022-11-01T09:12:46.000Z</time>
      </trkpt>
      <trkpt lat="42.4048863351345062255859375" lon="-8.6814080178737640380859375">
        <ele>0.4000000059604644775390625</ele>
        <time>2022-11-01T09:12:47.000Z</time>
      </trkpt>
      <trkpt lat="42.4048482812941074371337890625" lon="-8.6815635859966278076171875">
        <ele>0.4000000059604644775390625</ele>
        <time>2022-11-01T09:12:48.000Z</time>
      </trkpt>
      <trkpt lat="42.40482238121330738067626953125" lon="-8.6816660128533840179443359375">
        <ele>0</ele>
        <time>2022-11-01T09:12:49.000Z</time>
      </trkpt>
      <trkpt lat="42.40479270927608013153076171875" lon="-8.6817944236099720001220703125">
        <ele>-0.20000000298023223876953125</ele>
        <time>2022-11-01T09:12:50.000Z</time>
      </trkpt>
      <trkpt lat="42.40476387552917003631591796875" lon="-8.6819238401949405670166015625">
        <ele>-0.4000000059604644775390625</ele>
        <time>2022-11-01T09:12:51.000Z</time>
      </trkpt>
      <trkpt lat="42.4047359637916088104248046875" lon="-8.68205241858959197998046875">
        <ele>-0.60000002384185791015625</ele>
        <time>2022-11-01T09:12:52.000Z</time>
      </trkpt>
      <trkpt lat="42.4047004245221614837646484375" lon="-8.68220656178891658782958984375">
        <ele>-0.60000002384185791015625</ele>
        <time>2022-11-01T09:12:53.000Z</time>
      </trkpt>
      <trkpt lat="42.404675781726837158203125" lon="-8.6823090724647045135498046875">
        <ele>-0.60000002384185791015625</ele>
        <time>2022-11-01T09:12:54.000Z</time>
      </trkpt>
      <trkpt lat="42.404639236629009246826171875" lon="-8.682461120188236236572265625">
        <ele>-0.800000011920928955078125</ele>
        <time>2022-11-01T09:12:55.000Z</time>
      </trkpt>
      <trkpt lat="42.40461476147174835205078125" lon="-8.68255943991243839263916015625">
        <ele>-1</ele>
        <time>2022-11-01T09:12:56.000Z</time>
      </trkpt>
      <trkpt lat="42.40458483807742595672607421875" lon="-8.68268164806067943572998046875">
        <ele>-1</ele>
        <time>2022-11-01T09:12:57.000Z</time>
      </trkpt>
      <trkpt lat="42.40455801598727703094482421875" lon="-8.68280452676117420196533203125">
        <ele>-0.800000011920928955078125</ele>
        <time>2022-11-01T09:12:58.000Z</time>
      </trkpt>
      <trkpt lat="42.404525913298130035400390625" lon="-8.68294961750507354736328125">
        <ele>-1</ele>
        <time>2022-11-01T09:12:59.000Z</time>
      </trkpt>
      <trkpt lat="42.40450068376958370208740234375" lon="-8.68306620977818965911865234375">
        <ele>-0.800000011920928955078125</ele>
        <time>2022-11-01T09:13:00.000Z</time>
      </trkpt>
      <trkpt lat="42.40447998046875" lon="-8.68315673433244228363037109375">
        <ele>-0.800000011920928955078125</ele>
        <time>2022-11-01T09:13:01.000Z</time>
      </trkpt>
      <trkpt lat="42.40445382893085479736328125" lon="-8.68326083756983280181884765625">
        <ele>-0.800000011920928955078125</ele>
        <time>2022-11-01T09:13:02.000Z</time>
      </trkpt>
      <trkpt lat="42.4044278450310230255126953125" lon="-8.68336175568401813507080078125">
        <ele>-0.800000011920928955078125</ele>
        <time>2022-11-01T09:13:03.000Z</time>
      </trkpt>
      <trkpt lat="42.4043983407318592071533203125" lon="-8.68347574956715106964111328125">
        <ele>-0.4000000059604644775390625</ele>
        <time>2022-11-01T09:13:04.000Z</time>
      </trkpt>
      <trkpt lat="42.4043772183358669281005859375" lon="-8.68356510065495967864990234375">
        <ele>-0.20000000298023223876953125</ele>
        <time>2022-11-01T09:13:05.000Z</time>
      </trkpt>
      <trkpt lat="42.4043661542236804962158203125" lon="-8.68363089859485626220703125">
        <ele>0</ele>
        <time>2022-11-01T09:13:06.000Z</time>
      </trkpt>
      <trkpt lat="42.40435726940631866455078125" lon="-8.6837004683911800384521484375">
        <ele>0.20000000298023223876953125</ele>
        <time>2022-11-01T09:13:07.000Z</time>
      </trkpt>
      <trkpt lat="42.4043571017682552337646484375" lon="-8.68376090191304683685302734375">
        <ele>0.4000000059604644775390625</ele>
        <time>2022-11-01T09:13:08.000Z</time>
      </trkpt>
      <trkpt lat="42.40436556749045848846435546875" lon="-8.6838218383491039276123046875">
        <ele>0.60000002384185791015625</ele>
        <time>2022-11-01T09:13:09.000Z</time>
      </trkpt>
      <trkpt lat="42.40437109954655170440673828125" lon="-8.683863915503025054931640625">
        <ele>0.60000002384185791015625</ele>
        <time>2022-11-01T09:13:10.000Z</time>
      </trkpt>
      <trkpt lat="42.40436841733753681182861328125" lon="-8.6839234270155429840087890625">
        <ele>0.60000002384185791015625</ele>
        <time>2022-11-01T09:13:11.000Z</time>
      </trkpt>
      <trkpt lat="42.4043493904173374176025390625" lon="-8.6839831061661243438720703125">
        <ele>0.800000011920928955078125</ele>
        <time>2022-11-01T09:13:12.000Z</time>
      </trkpt>
      <trkpt lat="42.40430421195924282073974609375" lon="-8.68404186330735683441162109375">
        <ele>1</ele>
        <time>2022-11-01T09:13:13.000Z</time>
      </trkpt>
      <trkpt lat="42.40426247008144855499267578125" lon="-8.68406600318849086761474609375">
        <ele>1</ele>
        <time>2022-11-01T09:13:14.000Z</time>
      </trkpt>
      <trkpt lat="42.404205389320850372314453125" lon="-8.68408829905092716217041015625">
        <ele>0.800000011920928955078125</ele>
        <time>2022-11-01T09:13:15.000Z</time>
      </trkpt>
      <trkpt lat="42.4041433632373809814453125" lon="-8.68410288356244564056396484375">
        <ele>0.60000002384185791015625</ele>
        <time>2022-11-01T09:13:16.000Z</time>
      </trkpt>
      <trkpt lat="42.40407907404005527496337890625" lon="-8.68410958908498287200927734375">
        <ele>0.60000002384185791015625</ele>
        <time>2022-11-01T09:13:17.000Z</time>
      </trkpt>
      <trkpt lat="42.40399827249348163604736328125" lon="-8.68411637842655181884765625">
        <ele>0.4000000059604644775390625</ele>
        <time>2022-11-01T09:13:18.000Z</time>
      </trkpt>
      <trkpt lat="42.4039299599826335906982421875" lon="-8.6841237545013427734375">
        <ele>0.20000000298023223876953125</ele>
        <time>2022-11-01T09:13:19.000Z</time>
      </trkpt>
      <trkpt lat="42.40386198274791240692138671875" lon="-8.68413448333740234375">
        <ele>0</ele>
        <time>2022-11-01T09:13:20.000Z</time>
      </trkpt>
      <trkpt lat="42.403807081282138824462890625" lon="-8.68414680473506450653076171875">
        <ele>0</ele>
        <time>2022-11-01T09:13:21.000Z</time>
      </trkpt>
      <trkpt lat="42.40373809821903705596923828125" lon="-8.68416759185492992401123046875">
        <ele>0</ele>
        <time>2022-11-01T09:13:22.000Z</time>
      </trkpt>
      <trkpt lat="42.40367607213556766510009765625" lon="-8.684201538562774658203125">
        <ele>0</ele>
        <time>2022-11-01T09:13:23.000Z</time>
      </trkpt>
      <trkpt lat="42.40362376905977725982666015625" lon="-8.68426331318914890289306640625">
        <ele>-0.20000000298023223876953125</ele>
        <time>2022-11-01T09:13:24.000Z</time>
      </trkpt>
      <trkpt lat="42.40360197611153125762939453125" lon="-8.68432668037712574005126953125">
        <ele>-0.4000000059604644775390625</ele>
        <time>2022-11-01T09:13:25.000Z</time>
      </trkpt>
      <trkpt lat="42.40360164083540439605712890625" lon="-8.68438753299415111541748046875">
        <ele>-0.60000002384185791015625</ele>
        <time>2022-11-01T09:13:26.000Z</time>
      </trkpt>
      <trkpt lat="42.40361589007079601287841796875" lon="-8.68447269313037395477294921875">
        <ele>-0.800000011920928955078125</ele>
        <time>2022-11-01T09:13:27.000Z</time>
      </trkpt>
      <trkpt lat="42.40363030694425106048583984375" lon="-8.68457637727260589599609375">
        <ele>-1.2000000476837158203125</ele>
        <time>2022-11-01T09:13:28.000Z</time>
      </trkpt>
      <trkpt lat="42.4036295525729656219482421875" lon="-8.6846747808158397674560546875">
        <ele>-1.39999997615814208984375</ele>
        <time>2022-11-01T09:13:29.000Z</time>
      </trkpt>
      <trkpt lat="42.40360851399600505828857421875" lon="-8.6847787164151668548583984375">
        <ele>-1.60000002384185791015625</ele>
        <time>2022-11-01T09:13:30.000Z</time>
      </trkpt>
      <trkpt lat="42.4035712145268917083740234375" lon="-8.684842251241207122802734375">
        <ele>-1.7999999523162841796875</ele>
        <time>2022-11-01T09:13:31.000Z</time>
      </trkpt>
      <trkpt lat="42.40350575186312198638916015625" lon="-8.68490151129662990570068359375">
        <ele>-1.7999999523162841796875</ele>
        <time>2022-11-01T09:13:32.000Z</time>
      </trkpt>
      <trkpt lat="42.40341304801404476165771484375" lon="-8.684950880706310272216796875">
        <ele>-2.2000000476837158203125</ele>
        <time>2022-11-01T09:13:33.000Z</time>
      </trkpt>
      <trkpt lat="42.40333291701972484588623046875" lon="-8.684983067214488983154296875">
        <ele>-2.400000095367431640625</ele>
        <time>2022-11-01T09:13:34.000Z</time>
      </trkpt>
      <trkpt lat="42.40325463004410266876220703125" lon="-8.68502019904553890228271484375">
        <ele>-2.599999904632568359375</ele>
        <time>2022-11-01T09:13:35.000Z</time>
      </trkpt>
      <trkpt lat="42.4031946994364261627197265625" lon="-8.6850586719810962677001953125">
        <ele>-2.599999904632568359375</ele>
        <time>2022-11-01T09:13:36.000Z</time>
      </trkpt>
      <trkpt lat="42.4031236208975315093994140625" lon="-8.68511617183685302734375">
        <ele>-2.599999904632568359375</ele>
        <time>2022-11-01T09:13:37.000Z</time>
      </trkpt>
      <trkpt lat="42.403041981160640716552734375" lon="-8.68519085459411144256591796875">
        <ele>-2.599999904632568359375</ele>
        <time>2022-11-01T09:13:38.000Z</time>
      </trkpt>
      <trkpt lat="42.40299060009419918060302734375" lon="-8.68524282239377498626708984375">
        <ele>-2.599999904632568359375</ele>
        <time>2022-11-01T09:13:39.000Z</time>
      </trkpt>
      <trkpt lat="42.40292706526815891265869140625" lon="-8.68530853651463985443115234375">
        <ele>-2.400000095367431640625</ele>
        <time>2022-11-01T09:13:40.000Z</time>
      </trkpt>
      <trkpt lat="42.4028637818992137908935546875" lon="-8.6853751726448535919189453125">
        <ele>-2.400000095367431640625</ele>
        <time>2022-11-01T09:13:41.000Z</time>
      </trkpt>
      <trkpt lat="42.40280284546315670013427734375" lon="-8.685440719127655029296875">
        <ele>-2</ele>
        <time>2022-11-01T09:13:42.000Z</time>
      </trkpt>
      <trkpt lat="42.40273025818169116973876953125" lon="-8.68552126921713352203369140625">
        <ele>-2</ele>
        <time>2022-11-01T09:13:43.000Z</time>
      </trkpt>
      <trkpt lat="42.402667813003063201904296875" lon="-8.68558757007122039794921875">
        <ele>-1.60000002384185791015625</ele>
        <time>2022-11-01T09:13:44.000Z</time>
      </trkpt>
      <trkpt lat="42.4026176892220973968505859375" lon="-8.68563962168991565704345703125">
        <ele>-1.60000002384185791015625</ele>
        <time>2022-11-01T09:13:45.000Z</time>
      </trkpt>
      <trkpt lat="42.40255340002477169036865234375" lon="-8.68570835329592227935791015625">
        <ele>-1.60000002384185791015625</ele>
        <time>2022-11-01T09:13:46.000Z</time>
      </trkpt>
      <trkpt lat="42.40248684771358966827392578125" lon="-8.68578278459608554840087890625">
        <ele>-1.39999997615814208984375</ele>
        <time>2022-11-01T09:13:47.000Z</time>
      </trkpt>
      <trkpt lat="42.40241669118404388427734375" lon="-8.6858589760959148406982421875">
        <ele>-1.39999997615814208984375</ele>
        <time>2022-11-01T09:13:48.000Z</time>
      </trkpt>
      <trkpt lat="42.4023444391787052154541015625" lon="-8.68593567050993442535400390625">
        <ele>-1.39999997615814208984375</ele>
        <time>2022-11-01T09:13:49.000Z</time>
      </trkpt>
      <trkpt lat="42.40227076224982738494873046875" lon="-8.6860128678381443023681640625">
        <ele>-1.39999997615814208984375</ele>
        <time>2022-11-01T09:13:50.000Z</time>
      </trkpt>
      <trkpt lat="42.40218057297170162200927734375" lon="-8.68610632605850696563720703125">
        <ele>-1.39999997615814208984375</ele>
        <time>2022-11-01T09:13:51.000Z</time>
      </trkpt>
      <trkpt lat="42.40212055854499340057373046875" lon="-8.68616919033229351043701171875">
        <ele>-1.60000002384185791015625</ele>
        <time>2022-11-01T09:13:52.000Z</time>
      </trkpt>
      <trkpt lat="42.40202802233397960662841796875" lon="-8.68626474402844905853271484375">
        <ele>-1.60000002384185791015625</ele>
        <time>2022-11-01T09:13:53.000Z</time>
      </trkpt>
      <trkpt lat="42.40195577032864093780517578125" lon="-8.686348982155323028564453125">
        <ele>-1.7999999523162841796875</ele>
        <time>2022-11-01T09:13:54.000Z</time>
      </trkpt>
      <trkpt lat="42.40189894102513790130615234375" lon="-8.686416707932949066162109375">
        <ele>-2.2000000476837158203125</ele>
        <time>2022-11-01T09:13:55.000Z</time>
      </trkpt>
      <trkpt lat="42.40182769484817981719970703125" lon="-8.68649994023144245147705078125">
        <ele>-2.2000000476837158203125</ele>
        <time>2022-11-01T09:13:56.000Z</time>
      </trkpt>
      <trkpt lat="42.40175678394734859466552734375" lon="-8.68658023886382579803466796875">
        <ele>-2.400000095367431640625</ele>
        <time>2022-11-01T09:13:57.000Z</time>
      </trkpt>
      <trkpt lat="42.40168637596070766448974609375" lon="-8.68665902875363826751708984375">
        <ele>-2.599999904632568359375</ele>
        <time>2022-11-01T09:13:58.000Z</time>
      </trkpt>
      <trkpt lat="42.4016034789383411407470703125" lon="-8.6867541633546352386474609375">
        <ele>-2.599999904632568359375</ele>
        <time>2022-11-01T09:13:59.000Z</time>
      </trkpt>
      <trkpt lat="42.40153600461781024932861328125" lon="-8.6868319474160671234130859375">
        <ele>-2.7999999523162841796875</ele>
        <time>2022-11-01T09:14:00.000Z</time>
      </trkpt>
      <trkpt lat="42.40148336626589298248291015625" lon="-8.6868926323950290679931640625">
        <ele>-2.7999999523162841796875</ele>
        <time>2022-11-01T09:14:01.000Z</time>
      </trkpt>
      <trkpt lat="42.40141815505921840667724609375" lon="-8.6869677342474460601806640625">
        <ele>-2.7999999523162841796875</ele>
        <time>2022-11-01T09:14:02.000Z</time>
      </trkpt>
      <trkpt lat="42.40135478787124156951904296875" lon="-8.687042333185672760009765625">
        <ele>-2.7999999523162841796875</ele>
        <time>2022-11-01T09:14:03.000Z</time>
      </trkpt>
      <trkpt lat="42.4012923426926136016845703125" lon="-8.6871172674000263214111328125">
        <ele>-2.7999999523162841796875</ele>
        <time>2022-11-01T09:14:04.000Z</time>
      </trkpt>
      <trkpt lat="42.4012316577136516571044921875" lon="-8.68719412945210933685302734375">
        <ele>-2.7999999523162841796875</ele>
        <time>2022-11-01T09:14:05.000Z</time>
      </trkpt>
      <trkpt lat="42.401173822581768035888671875" lon="-8.68727459572255611419677734375">
        <ele>-2.7999999523162841796875</ele>
        <time>2022-11-01T09:14:06.000Z</time>
      </trkpt>
      <trkpt lat="42.4011151492595672607421875" lon="-8.68735522963106632232666015625">
        <ele>-2.7999999523162841796875</ele>
        <time>2022-11-01T09:14:07.000Z</time>
      </trkpt>
      <trkpt lat="42.4010563082993030548095703125" lon="-8.68743586353957653045654296875">
        <ele>-2.7999999523162841796875</ele>
        <time>2022-11-01T09:14:08.000Z</time>
      </trkpt>
      <trkpt lat="42.40099780261516571044921875" lon="-8.6875162459909915924072265625">
        <ele>-2.7999999523162841796875</ele>
        <time>2022-11-01T09:14:09.000Z</time>
      </trkpt>
      <trkpt lat="42.40093988366425037384033203125" lon="-8.6875983886420726776123046875">
        <ele>-2.7999999523162841796875</ele>
        <time>2022-11-01T09:14:10.000Z</time>
      </trkpt>
      <trkpt lat="42.40088523365557193756103515625" lon="-8.687683381140232086181640625">
        <ele>-2.7999999523162841796875</ele>
        <time>2022-11-01T09:14:11.000Z</time>
      </trkpt>
      <trkpt lat="42.40083259530365467071533203125" lon="-8.6877697147428989410400390625">
        <ele>-2.7999999523162841796875</ele>
        <time>2022-11-01T09:14:12.000Z</time>
      </trkpt>
      <trkpt lat="42.4007825553417205810546875" lon="-8.68786233477294445037841796875">
        <ele>-2.599999904632568359375</ele>
        <time>2022-11-01T09:14:13.000Z</time>
      </trkpt>
      <trkpt lat="42.40073251537978649139404296875" lon="-8.687954954802989959716796875">
        <ele>-2.599999904632568359375</ele>
        <time>2022-11-01T09:14:14.000Z</time>
      </trkpt>
      <trkpt lat="42.400682978332042694091796875" lon="-8.68804556317627429962158203125">
        <ele>-2.599999904632568359375</ele>
        <time>2022-11-01T09:14:15.000Z</time>
      </trkpt>
      <trkpt lat="42.40063310600817203521728515625" lon="-8.68813407607376575469970703125">
        <ele>-2.599999904632568359375</ele>
        <time>2022-11-01T09:14:16.000Z</time>
      </trkpt>
      <trkpt lat="42.40058608353137969970703125" lon="-8.68822552263736724853515625">
        <ele>-2.599999904632568359375</ele>
        <time>2022-11-01T09:14:17.000Z</time>
      </trkpt>
      <trkpt lat="42.4005389772355556488037109375" lon="-8.68831847794353961944580078125">
        <ele>-2.599999904632568359375</ele>
        <time>2022-11-01T09:14:18.000Z</time>
      </trkpt>
      <trkpt lat="42.40049363113939762115478515625" lon="-8.68841336108744144439697265625">
        <ele>-2.599999904632568359375</ele>
        <time>2022-11-01T09:14:19.000Z</time>
      </trkpt>
      <trkpt lat="42.40044870413839817047119140625" lon="-8.6885096691548824310302734375">
        <ele>-2.599999904632568359375</ele>
        <time>2022-11-01T09:14:20.000Z</time>
      </trkpt>
      <trkpt lat="42.400404028594493865966796875" lon="-8.68860363028943538665771484375">
        <ele>-2.599999904632568359375</ele>
        <time>2022-11-01T09:14:21.000Z</time>
      </trkpt>
      <trkpt lat="42.40036069415509700775146484375" lon="-8.6886980943381786346435546875">
        <ele>-2.599999904632568359375</ele>
        <time>2022-11-01T09:14:22.000Z</time>
      </trkpt>
      <trkpt lat="42.40031828172504901885986328125" lon="-8.688792474567890167236328125">
        <ele>-2.599999904632568359375</ele>
        <time>2022-11-01T09:14:23.000Z</time>
      </trkpt>
      <trkpt lat="42.400275282561779022216796875" lon="-8.68888777680695056915283203125">
        <ele>-2.599999904632568359375</ele>
        <time>2022-11-01T09:14:24.000Z</time>
      </trkpt>
      <trkpt lat="42.40022205747663974761962890625" lon="-8.688999004662036895751953125">
        <ele>-2.599999904632568359375</ele>
        <time>2022-11-01T09:14:25.000Z</time>
      </trkpt>
      <trkpt lat="42.400186099112033843994140625" lon="-8.689074106514453887939453125">
        <ele>-2.599999904632568359375</ele>
        <time>2022-11-01T09:14:26.000Z</time>
      </trkpt>
      <trkpt lat="42.40014293231070041656494140625" lon="-8.689166642725467681884765625">
        <ele>-2.599999904632568359375</ele>
        <time>2022-11-01T09:14:27.000Z</time>
      </trkpt>
      <trkpt lat="42.40009264089167118072509765625" lon="-8.6892774514853954315185546875">
        <ele>-2.599999904632568359375</ele>
        <time>2022-11-01T09:14:28.000Z</time>
      </trkpt>
      <trkpt lat="42.40006095729768276214599609375" lon="-8.68935179896652698516845703125">
        <ele>-2.599999904632568359375</ele>
        <time>2022-11-01T09:14:29.000Z</time>
      </trkpt>
      <trkpt lat="42.40002122707664966583251953125" lon="-8.68944383226335048675537109375">
        <ele>-2.599999904632568359375</ele>
        <time>2022-11-01T09:14:30.000Z</time>
      </trkpt>
      <trkpt lat="42.39998032338917255401611328125" lon="-8.68953418917953968048095703125">
        <ele>-2.599999904632568359375</ele>
        <time>2022-11-01T09:14:31.000Z</time>
      </trkpt>
      <trkpt lat="42.39993807859718799591064453125" lon="-8.68962354026734828948974609375">
        <ele>-2.400000095367431640625</ele>
        <time>2022-11-01T09:14:32.000Z</time>
      </trkpt>
      <trkpt lat="42.39989499561488628387451171875" lon="-8.6897121369838714599609375">
        <ele>-2.400000095367431640625</ele>
        <time>2022-11-01T09:14:33.000Z</time>
      </trkpt>
      <trkpt lat="42.39984906278550624847412109375" lon="-8.68979805149137973785400390625">
        <ele>-2.400000095367431640625</ele>
        <time>2022-11-01T09:14:34.000Z</time>
      </trkpt>
      <trkpt lat="42.3997882939875125885009765625" lon="-8.68989913724362850189208984375">
        <ele>-2.400000095367431640625</ele>
        <time>2022-11-01T09:14:35.000Z</time>
      </trkpt>
      <trkpt lat="42.3997453786432743072509765625" lon="-8.68996225297451019287109375">
        <ele>-2.400000095367431640625</ele>
        <time>2022-11-01T09:14:36.000Z</time>
      </trkpt>
      <trkpt lat="42.39968930371105670928955078125" lon="-8.690040372312068939208984375">
        <ele>-2.400000095367431640625</ele>
        <time>2022-11-01T09:14:37.000Z</time>
      </trkpt>
      <trkpt lat="42.3996166326105594635009765625" lon="-8.69012779556214809417724609375">
        <ele>-2.400000095367431640625</ele>
        <time>2022-11-01T09:14:38.000Z</time>
      </trkpt>
      <trkpt lat="42.39956659264862537384033203125" lon="-8.6901820264756679534912109375">
        <ele>-2.400000095367431640625</ele>
        <time>2022-11-01T09:14:39.000Z</time>
      </trkpt>
      <trkpt lat="42.39950372837483882904052734375" lon="-8.69024614803493022918701171875">
        <ele>-2.400000095367431640625</ele>
        <time>2022-11-01T09:14:40.000Z</time>
      </trkpt>
      <trkpt lat="42.3994387686252593994140625" lon="-8.69030867703258991241455078125">
        <ele>-2.400000095367431640625</ele>
        <time>2022-11-01T09:14:41.000Z</time>
      </trkpt>
      <trkpt lat="42.399372719228267669677734375" lon="-8.69036986492574214935302734375">
        <ele>-2.400000095367431640625</ele>
        <time>2022-11-01T09:14:42.000Z</time>
      </trkpt>
      <trkpt lat="42.3993081785738468170166015625" lon="-8.690432645380496978759765625">
        <ele>-2.2000000476837158203125</ele>
        <time>2022-11-01T09:14:43.000Z</time>
      </trkpt>
      <trkpt lat="42.3992335796356201171875" lon="-8.69051101617515087127685546875">
        <ele>-2.400000095367431640625</ele>
        <time>2022-11-01T09:14:44.000Z</time>
      </trkpt>
      <trkpt lat="42.3991851322352886199951171875" lon="-8.69056331925094127655029296875">
        <ele>-2.400000095367431640625</ele>
        <time>2022-11-01T09:14:45.000Z</time>
      </trkpt>
      <trkpt lat="42.399122603237628936767578125" lon="-8.69062266312539577484130859375">
        <ele>-2.400000095367431640625</ele>
        <time>2022-11-01T09:14:46.000Z</time>
      </trkpt>
      <trkpt lat="42.39905781112611293792724609375" lon="-8.69068108499050140380859375">
        <ele>-2.400000095367431640625</ele>
        <time>2022-11-01T09:14:47.000Z</time>
      </trkpt>
      <trkpt lat="42.3989782668650150299072265625" lon="-8.6907519958913326263427734375">
        <ele>-2.400000095367431640625</ele>
        <time>2022-11-01T09:14:48.000Z</time>
      </trkpt>
      <trkpt lat="42.3989117145538330078125" lon="-8.6908116750419139862060546875">
        <ele>-2.400000095367431640625</ele>
        <time>2022-11-01T09:14:49.000Z</time>
      </trkpt>
      <trkpt lat="42.39884541369974613189697265625" lon="-8.6908713541924953460693359375">
        <ele>-2.400000095367431640625</ele>
        <time>2022-11-01T09:14:50.000Z</time>
      </trkpt>
      <trkpt lat="42.39879168570041656494140625" lon="-8.6909162811934947967529296875">
        <ele>-2.7999999523162841796875</ele>
        <time>2022-11-01T09:14:51.000Z</time>
      </trkpt>
      <trkpt lat="42.3987244628369808197021484375" lon="-8.69096942245960235595703125">
        <ele>-2.7999999523162841796875</ele>
        <time>2022-11-01T09:14:52.000Z</time>
      </trkpt>
      <trkpt lat="42.3986429907381534576416015625" lon="-8.69103454984724521636962890625">
        <ele>-2.7999999523162841796875</ele>
        <time>2022-11-01T09:14:53.000Z</time>
      </trkpt>
      <trkpt lat="42.39858641289174556732177734375" lon="-8.69107813574373722076416015625">
        <ele>-2.7999999523162841796875</ele>
        <time>2022-11-01T09:14:54.000Z</time>
      </trkpt>
      <trkpt lat="42.398515082895755767822265625" lon="-8.69113127700984477996826171875">
        <ele>-2.7999999523162841796875</ele>
        <time>2022-11-01T09:14:55.000Z</time>
      </trkpt>
      <trkpt lat="42.398443333804607391357421875" lon="-8.69118475355207920074462890625">
        <ele>-2.7999999523162841796875</ele>
        <time>2022-11-01T09:14:56.000Z</time>
      </trkpt>
      <trkpt lat="42.39837200380861759185791015625" lon="-8.69124124757945537567138671875">
        <ele>-2.7999999523162841796875</ele>
        <time>2022-11-01T09:14:57.000Z</time>
      </trkpt>
      <trkpt lat="42.3983020149171352386474609375" lon="-8.6912971548736095428466796875">
        <ele>-2.7999999523162841796875</ele>
        <time>2022-11-01T09:14:58.000Z</time>
      </trkpt>
      <trkpt lat="42.3982312716543674468994140625" lon="-8.69135289452970027923583984375">
        <ele>-2.7999999523162841796875</ele>
        <time>2022-11-01T09:14:59.000Z</time>
      </trkpt>
      <trkpt lat="42.39816044457256793975830078125" lon="-8.69140662252902984619140625">
        <ele>-2.7999999523162841796875</ele>
        <time>2022-11-01T09:15:00.000Z</time>
      </trkpt>
      <trkpt lat="42.39809095859527587890625" lon="-8.6914631165564060211181640625">
        <ele>-2.7999999523162841796875</ele>
        <time>2022-11-01T09:15:01.000Z</time>
      </trkpt>
      <trkpt lat="42.39802247844636440277099609375" lon="-8.6915197782218456268310546875">
        <ele>-2.7999999523162841796875</ele>
        <time>2022-11-01T09:15:02.000Z</time>
      </trkpt>
      <trkpt lat="42.39793899469077587127685546875" lon="-8.69158406741917133331298828125">
        <ele>-2.599999904632568359375</ele>
        <time>2022-11-01T09:15:03.000Z</time>
      </trkpt>
      <trkpt lat="42.39787168800830841064453125" lon="-8.6916357837617397308349609375">
        <ele>-2.599999904632568359375</ele>
        <time>2022-11-01T09:15:04.000Z</time>
      </trkpt>
      <trkpt lat="42.39780689589679241180419921875" lon="-8.69168758392333984375">
        <ele>-2.599999904632568359375</ele>
        <time>2022-11-01T09:15:05.000Z</time>
      </trkpt>
      <trkpt lat="42.397754006087779998779296875" lon="-8.6917303316295146942138671875">
        <ele>-2.599999904632568359375</ele>
        <time>2022-11-01T09:15:06.000Z</time>
      </trkpt>
      <trkpt lat="42.3976861126720905303955078125" lon="-8.69178338907659053802490234375">
        <ele>-2.599999904632568359375</ele>
        <time>2022-11-01T09:15:07.000Z</time>
      </trkpt>
      <trkpt lat="42.39761687815189361572265625" lon="-8.69183468632400035858154296875">
        <ele>-3</ele>
        <time>2022-11-01T09:15:08.000Z</time>
      </trkpt>
      <trkpt lat="42.39754739217460155487060546875" lon="-8.69188615120947360992431640625">
        <ele>-3</ele>
        <time>2022-11-01T09:15:09.000Z</time>
      </trkpt>
      <trkpt lat="42.3974799178540706634521484375" lon="-8.69193627499043941497802734375">
        <ele>-3</ele>
        <time>2022-11-01T09:15:10.000Z</time>
      </trkpt>
      <trkpt lat="42.39741261117160320281982421875" lon="-8.69198338128626346588134765625">
        <ele>-3</ele>
        <time>2022-11-01T09:15:11.000Z</time>
      </trkpt>
      <trkpt lat="42.39734371192753314971923828125" lon="-8.69203149341046810150146484375">
        <ele>-3</ele>
        <time>2022-11-01T09:15:12.000Z</time>
      </trkpt>
      <trkpt lat="42.39727280102670192718505859375" lon="-8.69207692332565784454345703125">
        <ele>-3</ele>
        <time>2022-11-01T09:15:13.000Z</time>
      </trkpt>
      <trkpt lat="42.3972023092210292816162109375" lon="-8.69211950339376926422119140625">
        <ele>-3</ele>
        <time>2022-11-01T09:15:14.000Z</time>
      </trkpt>
      <trkpt lat="42.39711706526577472686767578125" lon="-8.692171387374401092529296875">
        <ele>-3</ele>
        <time>2022-11-01T09:15:15.000Z</time>
      </trkpt>
      <trkpt lat="42.3970450647175312042236328125" lon="-8.69221866130828857421875">
        <ele>-3</ele>
        <time>2022-11-01T09:15:16.000Z</time>
      </trkpt>
      <trkpt lat="42.396987564861774444580078125" lon="-8.692254535853862762451171875">
        <ele>-3</ele>
        <time>2022-11-01T09:15:17.000Z</time>
      </trkpt>
      <trkpt lat="42.3969153128564357757568359375" lon="-8.69230088777840137481689453125">
        <ele>-3</ele>
        <time>2022-11-01T09:15:18.000Z</time>
      </trkpt>
      <trkpt lat="42.39682923071086406707763671875" lon="-8.69235620833933353424072265625">
        <ele>-3</ele>
        <time>2022-11-01T09:15:19.000Z</time>
      </trkpt>
      <trkpt lat="42.396759577095508575439453125" lon="-8.69240348227322101593017578125">
        <ele>-3</ele>
        <time>2022-11-01T09:15:20.000Z</time>
      </trkpt>
      <trkpt lat="42.39669092930853366851806640625" lon="-8.69245092384517192840576171875">
        <ele>-3</ele>
        <time>2022-11-01T09:15:21.000Z</time>
      </trkpt>
      <trkpt lat="42.396634519100189208984375" lon="-8.69248579256236553192138671875">
        <ele>-3</ele>
        <time>2022-11-01T09:15:22.000Z</time>
      </trkpt>
      <trkpt lat="42.39656352438032627105712890625" lon="-8.6925303004682064056396484375">
        <ele>-3</ele>
        <time>2022-11-01T09:15:23.000Z</time>
      </trkpt>
      <trkpt lat="42.39647786132991313934326171875" lon="-8.69258344173431396484375">
        <ele>-2.7999999523162841796875</ele>
        <time>2022-11-01T09:15:24.000Z</time>
      </trkpt>
      <trkpt lat="42.3964070342481136322021484375" lon="-8.69263063184916973114013671875">
        <ele>-2.7999999523162841796875</ele>
        <time>2022-11-01T09:15:25.000Z</time>
      </trkpt>
      <trkpt lat="42.39633721299469470977783203125" lon="-8.69267857633531093597412109375">
        <ele>-2.7999999523162841796875</ele>
        <time>2022-11-01T09:15:26.000Z</time>
      </trkpt>
      <trkpt lat="42.3962818086147308349609375" lon="-8.69271763600409030914306640625">
        <ele>-2.7999999523162841796875</ele>
        <time>2022-11-01T09:15:27.000Z</time>
      </trkpt>
      <trkpt lat="42.39621181972324848175048828125" lon="-8.6927680112421512603759765625">
        <ele>-2.7999999523162841796875</ele>
        <time>2022-11-01T09:15:28.000Z</time>
      </trkpt>
      <trkpt lat="42.39612515084445476531982421875" lon="-8.69282727129757404327392578125">
        <ele>-2.7999999523162841796875</ele>
        <time>2022-11-01T09:15:29.000Z</time>
      </trkpt>
      <trkpt lat="42.3960526473820209503173828125" lon="-8.6928749643266201019287109375">
        <ele>-2.7999999523162841796875</ele>
        <time>2022-11-01T09:15:30.000Z</time>
      </trkpt>
      <trkpt lat="42.39598073065280914306640625" lon="-8.6929235793650150299072265625">
        <ele>-2.7999999523162841796875</ele>
        <time>2022-11-01T09:15:31.000Z</time>
      </trkpt>
      <trkpt lat="42.39592264406383037567138671875" lon="-8.69296289049088954925537109375">
        <ele>-2.7999999523162841796875</ele>
        <time>2022-11-01T09:15:32.000Z</time>
      </trkpt>
      <trkpt lat="42.39584938623011112213134765625" lon="-8.6930107511579990386962890625">
        <ele>-2.7999999523162841796875</ele>
        <time>2022-11-01T09:15:33.000Z</time>
      </trkpt>
      <trkpt lat="42.39577612839639186859130859375" lon="-8.69305676780641078948974609375">
        <ele>-2.7999999523162841796875</ele>
        <time>2022-11-01T09:15:34.000Z</time>
      </trkpt>
      <trkpt lat="42.39570337347686290740966796875" lon="-8.69310177862644195556640625">
        <ele>-3</ele>
        <time>2022-11-01T09:15:35.000Z</time>
      </trkpt>
      <trkpt lat="42.39563095383346080780029296875" lon="-8.69314947165548801422119140625">
        <ele>-3.2000000476837158203125</ele>
        <time>2022-11-01T09:15:36.000Z</time>
      </trkpt>
      <trkpt lat="42.39555937238037586212158203125" lon="-8.6931968294084072113037109375">
        <ele>-3.2000000476837158203125</ele>
        <time>2022-11-01T09:15:37.000Z</time>
      </trkpt>
      <trkpt lat="42.39547354169189929962158203125" lon="-8.69325357489287853240966796875">
        <ele>-3.2000000476837158203125</ele>
        <time>2022-11-01T09:15:38.000Z</time>
      </trkpt>
      <trkpt lat="42.3954028822481632232666015625" lon="-8.69330017827451229095458984375">
        <ele>-3</ele>
        <time>2022-11-01T09:15:39.000Z</time>
      </trkpt>
      <trkpt lat="42.39534697495400905609130859375" lon="-8.69333806447684764862060546875">
        <ele>-3</ele>
        <time>2022-11-01T09:15:40.000Z</time>
      </trkpt>
      <trkpt lat="42.39527790807187557220458984375" lon="-8.693389780819416046142578125">
        <ele>-3</ele>
        <time>2022-11-01T09:15:41.000Z</time>
      </trkpt>
      <trkpt lat="42.3952087573707103729248046875" lon="-8.6934435926377773284912109375">
        <ele>-3</ele>
        <time>2022-11-01T09:15:42.000Z</time>
      </trkpt>
      <trkpt lat="42.39512636326253414154052734375" lon="-8.69351224042475223541259765625">
        <ele>-3</ele>
        <time>2022-11-01T09:15:43.000Z</time>
      </trkpt>
      <trkpt lat="42.39505981095135211944580078125" lon="-8.69357242248952388763427734375">
        <ele>-3</ele>
        <time>2022-11-01T09:15:44.000Z</time>
      </trkpt>
      <trkpt lat="42.39500700496137142181396484375" lon="-8.6936222948133945465087890625">
        <ele>-3</ele>
        <time>2022-11-01T09:15:45.000Z</time>
      </trkpt>
      <trkpt lat="42.394940368831157684326171875" lon="-8.69368541054427623748779296875">
        <ele>-3</ele>
        <time>2022-11-01T09:15:46.000Z</time>
      </trkpt>
      <trkpt lat="42.39487423561513423919677734375" lon="-8.6937493644654750823974609375">
        <ele>-2.7999999523162841796875</ele>
        <time>2022-11-01T09:15:47.000Z</time>
      </trkpt>
      <trkpt lat="42.39479527808725833892822265625" lon="-8.69382723234593868255615234375">
        <ele>-2.7999999523162841796875</ele>
        <time>2022-11-01T09:15:48.000Z</time>
      </trkpt>
      <trkpt lat="42.39474448375403881072998046875" lon="-8.6938787810504436492919921875">
        <ele>-2.599999904632568359375</ele>
        <time>2022-11-01T09:15:49.000Z</time>
      </trkpt>
      <trkpt lat="42.3946703039109706878662109375" lon="-8.693961761891841888427734375">
        <ele>-2.599999904632568359375</ele>
        <time>2022-11-01T09:15:50.000Z</time>
      </trkpt>
      <trkpt lat="42.3946223594248294830322265625" lon="-8.69401984848082065582275390625">
        <ele>-2.7999999523162841796875</ele>
        <time>2022-11-01T09:15:51.000Z</time>
      </trkpt>
      <trkpt lat="42.39456242881715297698974609375" lon="-8.694093860685825347900390625">
        <ele>-2.7999999523162841796875</ele>
        <time>2022-11-01T09:15:52.000Z</time>
      </trkpt>
      <trkpt lat="42.3945040069520473480224609375" lon="-8.69416971690952777862548828125">
        <ele>-2.7999999523162841796875</ele>
        <time>2022-11-01T09:15:53.000Z</time>
      </trkpt>
      <trkpt lat="42.39444709382951259613037109375" lon="-8.69424481876194477081298828125">
        <ele>-2.7999999523162841796875</ele>
        <time>2022-11-01T09:15:54.000Z</time>
      </trkpt>
      <trkpt lat="42.3943906836211681365966796875" lon="-8.69431941770017147064208984375">
        <ele>-2.7999999523162841796875</ele>
        <time>2022-11-01T09:15:55.000Z</time>
      </trkpt>
      <trkpt lat="42.39433293230831623077392578125" lon="-8.69439317844808101654052734375">
        <ele>-2.7999999523162841796875</ele>
        <time>2022-11-01T09:15:56.000Z</time>
      </trkpt>
      <trkpt lat="42.3942753486335277557373046875" lon="-8.6944661848247051239013671875">
        <ele>-2.7999999523162841796875</ele>
        <time>2022-11-01T09:15:57.000Z</time>
      </trkpt>
      <trkpt lat="42.39421784877777099609375" lon="-8.6945389397442340850830078125">
        <ele>-2.7999999523162841796875</ele>
        <time>2022-11-01T09:15:58.000Z</time>
      </trkpt>
      <trkpt lat="42.39414886571466922760009765625" lon="-8.69462653063237667083740234375">
        <ele>-2.7999999523162841796875</ele>
        <time>2022-11-01T09:15:59.000Z</time>
      </trkpt>
      <trkpt lat="42.39409354515373706817626953125" lon="-8.6947008781135082244873046875">
        <ele>-3</ele>
        <time>2022-11-01T09:16:00.000Z</time>
      </trkpt>
      <trkpt lat="42.39404912106692790985107421875" lon="-8.6947608925402164459228515625">
        <ele>-3</ele>
        <time>2022-11-01T09:16:01.000Z</time>
      </trkpt>
      <trkpt lat="42.39399597980082035064697265625" lon="-8.69483649730682373046875">
        <ele>-3</ele>
        <time>2022-11-01T09:16:02.000Z</time>
      </trkpt>
      <trkpt lat="42.3939340375363826751708984375" lon="-8.69492660276591777801513671875">
        <ele>-3</ele>
        <time>2022-11-01T09:16:03.000Z</time>
      </trkpt>
      <trkpt lat="42.39388416521251201629638671875" lon="-8.6949969269335269927978515625">
        <ele>-2.7999999523162841796875</ele>
        <time>2022-11-01T09:16:04.000Z</time>
      </trkpt>
      <trkpt lat="42.393834292888641357421875" lon="-8.6950643174350261688232421875">
        <ele>-2.7999999523162841796875</ele>
        <time>2022-11-01T09:16:05.000Z</time>
      </trkpt>
      <trkpt lat="42.3937851749360561370849609375" lon="-8.6951273493468761444091796875">
        <ele>-2.7999999523162841796875</ele>
        <time>2022-11-01T09:16:06.000Z</time>
      </trkpt>
      <trkpt lat="42.3937363922595977783203125" lon="-8.69518895633518695831298828125">
        <ele>-2.7999999523162841796875</ele>
        <time>2022-11-01T09:16:07.000Z</time>
      </trkpt>
      <trkpt lat="42.39368819631636142730712890625" lon="-8.69525399990379810333251953125">
        <ele>-2.7999999523162841796875</ele>
        <time>2022-11-01T09:16:08.000Z</time>
      </trkpt>
      <trkpt lat="42.39364075474441051483154296875" lon="-8.69532055221498012542724609375">
        <ele>-2.7999999523162841796875</ele>
        <time>2022-11-01T09:16:09.000Z</time>
      </trkpt>
      <trkpt lat="42.39359281025826930999755859375" lon="-8.6953865177929401397705078125">
        <ele>-2.7999999523162841796875</ele>
        <time>2022-11-01T09:16:10.000Z</time>
      </trkpt>
      <trkpt lat="42.39354335702955722808837890625" lon="-8.69545541703701019287109375">
        <ele>-2.7999999523162841796875</ele>
        <time>2022-11-01T09:16:11.000Z</time>
      </trkpt>
      <trkpt lat="42.39349574781954288482666015625" lon="-8.69552590884268283843994140625">
        <ele>-2.7999999523162841796875</ele>
        <time>2022-11-01T09:16:12.000Z</time>
      </trkpt>
      <trkpt lat="42.3934485577046871185302734375" lon="-8.6955974064767360687255859375">
        <ele>-2.7999999523162841796875</ele>
        <time>2022-11-01T09:16:13.000Z</time>
      </trkpt>
      <trkpt lat="42.39340086467564105987548828125" lon="-8.69566856883466243743896484375">
        <ele>-2.7999999523162841796875</ele>
        <time>2022-11-01T09:16:14.000Z</time>
      </trkpt>
      <trkpt lat="42.39335241727530956268310546875" lon="-8.69573713280260562896728515625">
        <ele>-2.7999999523162841796875</ele>
        <time>2022-11-01T09:16:15.000Z</time>
      </trkpt>
      <trkpt lat="42.3933112621307373046875" lon="-8.69578843005001544952392578125">
        <ele>-2.7999999523162841796875</ele>
        <time>2022-11-01T09:16:16.000Z</time>
      </trkpt>
      <trkpt lat="42.3932670056819915771484375" lon="-8.69586269371211528778076171875">
        <ele>-2.7999999523162841796875</ele>
        <time>2022-11-01T09:16:17.000Z</time>
      </trkpt>
      <trkpt lat="42.39322216250002384185791015625" lon="-8.69593779556453227996826171875">
        <ele>-2.7999999523162841796875</ele>
        <time>2022-11-01T09:16:18.000Z</time>
      </trkpt>
      <trkpt lat="42.3931793309748172760009765625" lon="-8.69601675309240818023681640625">
        <ele>-2.7999999523162841796875</ele>
        <time>2022-11-01T09:16:19.000Z</time>
      </trkpt>
      <trkpt lat="42.39313566125929355621337890625" lon="-8.69609923101961612701416015625">
        <ele>-2.7999999523162841796875</ele>
        <time>2022-11-01T09:16:20.000Z</time>
      </trkpt>
      <trkpt lat="42.39309526048600673675537109375" lon="-8.6961834691464900970458984375">
        <ele>-2.7999999523162841796875</ele>
        <time>2022-11-01T09:16:21.000Z</time>
      </trkpt>
      <trkpt lat="42.39305846393108367919921875" lon="-8.6962669529020786285400390625">
        <ele>-2.7999999523162841796875</ele>
        <time>2022-11-01T09:16:22.000Z</time>
      </trkpt>
      <trkpt lat="42.39302418194711208343505859375" lon="-8.6963561363518238067626953125">
        <ele>-2.599999904632568359375</ele>
        <time>2022-11-01T09:16:23.000Z</time>
      </trkpt>
      <trkpt lat="42.39299383945763111114501953125" lon="-8.69645110331475734710693359375">
        <ele>-2.599999904632568359375</ele>
        <time>2022-11-01T09:16:24.000Z</time>
      </trkpt>
      <trkpt lat="42.392960898578166961669921875" lon="-8.6965663544833660125732421875">
        <ele>-2.599999904632568359375</ele>
        <time>2022-11-01T09:16:25.000Z</time>
      </trkpt>
      <trkpt lat="42.39294270984828472137451171875" lon="-8.69664573110640048980712890625">
        <ele>-2.599999904632568359375</ele>
        <time>2022-11-01T09:16:26.000Z</time>
      </trkpt>
      <trkpt lat="42.39292158745229244232177734375" lon="-8.69674748741090297698974609375">
        <ele>-2.7999999523162841796875</ele>
        <time>2022-11-01T09:16:27.000Z</time>
      </trkpt>
      <trkpt lat="42.39290180616080760955810546875" lon="-8.69684974662959575653076171875">
        <ele>-2.7999999523162841796875</ele>
        <time>2022-11-01T09:16:28.000Z</time>
      </trkpt>
      <trkpt lat="42.39288747310638427734375" lon="-8.696954436600208282470703125">
        <ele>-2.7999999523162841796875</ele>
        <time>2022-11-01T09:16:29.000Z</time>
      </trkpt>
      <trkpt lat="42.39287498407065868377685546875" lon="-8.697057701647281646728515625">
        <ele>-2.7999999523162841796875</ele>
        <time>2022-11-01T09:16:30.000Z</time>
      </trkpt>
      <trkpt lat="42.39286266267299652099609375" lon="-8.69716130197048187255859375">
        <ele>-2.7999999523162841796875</ele>
        <time>2022-11-01T09:16:31.000Z</time>
      </trkpt>
      <trkpt lat="42.39285218529403209686279296875" lon="-8.69726012460887432098388671875">
        <ele>-3</ele>
        <time>2022-11-01T09:16:32.000Z</time>
      </trkpt>
      <trkpt lat="42.39284254610538482666015625" lon="-8.6973559297621250152587890625">
        <ele>-3</ele>
        <time>2022-11-01T09:16:33.000Z</time>
      </trkpt>
      <trkpt lat="42.392833493649959564208984375" lon="-8.69747201912105083465576171875">
        <ele>-3.2000000476837158203125</ele>
        <time>2022-11-01T09:16:34.000Z</time>
      </trkpt>
      <trkpt lat="42.3928299732506275177001953125" lon="-8.6975534074008464813232421875">
        <ele>-3.2000000476837158203125</ele>
        <time>2022-11-01T09:16:35.000Z</time>
      </trkpt>
      <trkpt lat="42.39283072762191295623779296875" lon="-8.69765507988631725311279296875">
        <ele>-3.2000000476837158203125</ele>
        <time>2022-11-01T09:16:36.000Z</time>
      </trkpt>
      <trkpt lat="42.3928370140492916107177734375" lon="-8.697755746543407440185546875">
        <ele>-3.2000000476837158203125</ele>
        <time>2022-11-01T09:16:37.000Z</time>
      </trkpt>
      <trkpt lat="42.3928504250943660736083984375" lon="-8.6978746019303798675537109375">
        <ele>-3.2000000476837158203125</ele>
        <time>2022-11-01T09:16:38.000Z</time>
      </trkpt>
      <trkpt lat="42.39286601543426513671875" lon="-8.69797040708363056182861328125">
        <ele>-3.2000000476837158203125</ele>
        <time>2022-11-01T09:16:39.000Z</time>
      </trkpt>
      <trkpt lat="42.39288152195513248443603515625" lon="-8.6980657093226909637451171875">
        <ele>-3.2000000476837158203125</ele>
        <time>2022-11-01T09:16:40.000Z</time>
      </trkpt>
      <trkpt lat="42.3928940109908580780029296875" lon="-8.6981421522796154022216796875">
        <ele>-3.2000000476837158203125</ele>
        <time>2022-11-01T09:16:41.000Z</time>
      </trkpt>
      <trkpt lat="42.39290960133075714111328125" lon="-8.69823753833770751953125">
        <ele>-3</ele>
        <time>2022-11-01T09:16:42.000Z</time>
      </trkpt>
      <trkpt lat="42.3929236829280853271484375" lon="-8.69833250530064105987548828125">
        <ele>-2.7999999523162841796875</ele>
        <time>2022-11-01T09:16:43.000Z</time>
      </trkpt>
      <trkpt lat="42.39293751306831836700439453125" lon="-8.6984274722635746002197265625">
        <ele>-2.7999999523162841796875</ele>
        <time>2022-11-01T09:16:44.000Z</time>
      </trkpt>
      <trkpt lat="42.39295142702758312225341796875" lon="-8.69852629490196704864501953125">
        <ele>-2.599999904632568359375</ele>
        <time>2022-11-01T09:16:45.000Z</time>
      </trkpt>
      <trkpt lat="42.392966933548450469970703125" lon="-8.69862712919712066650390625">
        <ele>-2.599999904632568359375</ele>
        <time>2022-11-01T09:16:46.000Z</time>
      </trkpt>
      <trkpt lat="42.39298227243125438690185546875" lon="-8.698728717863559722900390625">
        <ele>-2.599999904632568359375</ele>
        <time>2022-11-01T09:16:47.000Z</time>
      </trkpt>
      <trkpt lat="42.393000461161136627197265625" lon="-8.69885151274502277374267578125">
        <ele>-2.599999904632568359375</ele>
        <time>2022-11-01T09:16:48.000Z</time>
      </trkpt>
      <trkpt lat="42.393015883862972259521484375" lon="-8.6989523470401763916015625">
        <ele>-2.400000095367431640625</ele>
        <time>2022-11-01T09:16:49.000Z</time>
      </trkpt>
      <trkpt lat="42.39303055219352245330810546875" lon="-8.69905619882047176361083984375">
        <ele>-2.599999904632568359375</ele>
        <time>2022-11-01T09:16:50.000Z</time>
      </trkpt>
      <trkpt lat="42.39304262213408946990966796875" lon="-8.69913716800510883331298828125">
        <ele>-2.599999904632568359375</ele>
        <time>2022-11-01T09:16:51.000Z</time>
      </trkpt>
      <trkpt lat="42.39305712282657623291015625" lon="-8.69923925958573818206787109375">
        <ele>-2.599999904632568359375</ele>
        <time>2022-11-01T09:16:52.000Z</time>
      </trkpt>
      <trkpt lat="42.39307296462357044219970703125" lon="-8.69936465285718441009521484375">
        <ele>-2.7999999523162841796875</ele>
        <time>2022-11-01T09:16:53.000Z</time>
      </trkpt>
      <trkpt lat="42.393084950745105743408203125" lon="-8.69946858845651149749755859375">
        <ele>-2.7999999523162841796875</ele>
        <time>2022-11-01T09:16:54.000Z</time>
      </trkpt>
      <trkpt lat="42.39309375174343585968017578125" lon="-8.69955106638371944427490234375">
        <ele>-2.7999999523162841796875</ele>
        <time>2022-11-01T09:16:55.000Z</time>
      </trkpt>
      <trkpt lat="42.39310498349368572235107421875" lon="-8.69965307414531707763671875">
        <ele>-2.7999999523162841796875</ele>
        <time>2022-11-01T09:16:56.000Z</time>
      </trkpt>
      <trkpt lat="42.3931156285107135772705078125" lon="-8.6997568421065807342529296875">
        <ele>-2.7999999523162841796875</ele>
        <time>2022-11-01T09:16:57.000Z</time>
      </trkpt>
      <trkpt lat="42.3931307159364223480224609375" lon="-8.69987946934998035430908203125">
        <ele>-2.7999999523162841796875</ele>
        <time>2022-11-01T09:16:58.000Z</time>
      </trkpt>
      <trkpt lat="42.39314471371471881866455078125" lon="-8.69998340494930744171142578125">
        <ele>-2.7999999523162841796875</ele>
        <time>2022-11-01T09:16:59.000Z</time>
      </trkpt>
      <trkpt lat="42.39315846003592014312744140625" lon="-8.7000882625579833984375">
        <ele>-2.7999999523162841796875</ele>
        <time>2022-11-01T09:17:00.000Z</time>
      </trkpt>
      <trkpt lat="42.39316751249134540557861328125" lon="-8.70017618872225284576416015625">
        <ele>-2.7999999523162841796875</ele>
        <time>2022-11-01T09:17:01.000Z</time>
      </trkpt>
      <trkpt lat="42.39318184554576873779296875" lon="-8.700284399092197418212890625">
        <ele>-2.7999999523162841796875</ele>
        <time>2022-11-01T09:17:02.000Z</time>
      </trkpt>
      <trkpt lat="42.39319953136146068572998046875" lon="-8.7004143185913562774658203125">
        <ele>-2.7999999523162841796875</ele>
        <time>2022-11-01T09:17:03.000Z</time>
      </trkpt>
      <trkpt lat="42.39321361295878887176513671875" lon="-8.700520433485507965087890625">
        <ele>-3</ele>
        <time>2022-11-01T09:17:04.000Z</time>
      </trkpt>
      <trkpt lat="42.39322476089000701904296875" lon="-8.70060115121304988861083984375">
        <ele>-3</ele>
        <time>2022-11-01T09:17:05.000Z</time>
      </trkpt>
      <trkpt lat="42.39323859103024005889892578125" lon="-8.70070558972656726837158203125">
        <ele>-3</ele>
        <time>2022-11-01T09:17:06.000Z</time>
      </trkpt>
      <trkpt lat="42.39325216971337795257568359375" lon="-8.700809441506862640380859375">
        <ele>-3</ele>
        <time>2022-11-01T09:17:07.000Z</time>
      </trkpt>
      <trkpt lat="42.39326742477715015411376953125" lon="-8.70091513730585575103759765625">
        <ele>-3</ele>
        <time>2022-11-01T09:17:08.000Z</time>
      </trkpt>
      <trkpt lat="42.3932866193354129791259765625" lon="-8.7010396085679531097412109375">
        <ele>-3</ele>
        <time>2022-11-01T09:17:09.000Z</time>
      </trkpt>
      <trkpt lat="42.39329927600920200347900390625" lon="-8.70112049393355846405029296875">
        <ele>-3.2000000476837158203125</ele>
        <time>2022-11-01T09:17:10.000Z</time>
      </trkpt>
      <trkpt lat="42.393313609063625335693359375" lon="-8.70122107677161693572998046875">
        <ele>-3.2000000476837158203125</ele>
        <time>2022-11-01T09:17:11.000Z</time>
      </trkpt>
      <trkpt lat="42.39332911558449268341064453125" lon="-8.70134144090116024017333984375">
        <ele>-3.2000000476837158203125</ele>
        <time>2022-11-01T09:17:12.000Z</time>
      </trkpt>
      <trkpt lat="42.39334269426763057708740234375" lon="-8.70144269429147243499755859375">
        <ele>-3</ele>
        <time>2022-11-01T09:17:13.000Z</time>
      </trkpt>
      <trkpt lat="42.39335627295076847076416015625" lon="-8.70154277421534061431884765625">
        <ele>-3</ele>
        <time>2022-11-01T09:17:14.000Z</time>
      </trkpt>
      <trkpt lat="42.39337085746228694915771484375" lon="-8.70164268650114536285400390625">
        <ele>-3</ele>
        <time>2022-11-01T09:17:15.000Z</time>
      </trkpt>
      <trkpt lat="42.39338343031704425811767578125" lon="-8.7017235718667507171630859375">
        <ele>-3</ele>
        <time>2022-11-01T09:17:16.000Z</time>
      </trkpt>
      <trkpt lat="42.3934012837707996368408203125" lon="-8.7018254958093166351318359375">
        <ele>-3</ele>
        <time>2022-11-01T09:17:17.000Z</time>
      </trkpt>
      <trkpt lat="42.3934200592339038848876953125" lon="-8.70192767120897769927978515625">
        <ele>-2.7999999523162841796875</ele>
        <time>2022-11-01T09:17:18.000Z</time>
      </trkpt>
      <trkpt lat="42.39343908615410327911376953125" lon="-8.70202892459928989410400390625">
        <ele>-2.7999999523162841796875</ele>
        <time>2022-11-01T09:17:19.000Z</time>
      </trkpt>
      <trkpt lat="42.39346238784492015838623046875" lon="-8.70215230621397495269775390625">
        <ele>-2.7999999523162841796875</ele>
        <time>2022-11-01T09:17:20.000Z</time>
      </trkpt>
      <trkpt lat="42.39347755908966064453125" lon="-8.7022352032363414764404296875">
        <ele>-2.7999999523162841796875</ele>
        <time>2022-11-01T09:17:21.000Z</time>
      </trkpt>
      <trkpt lat="42.39350077696144580841064453125" lon="-8.70233662426471710205078125">
        <ele>-2.7999999523162841796875</ele>
        <time>2022-11-01T09:17:22.000Z</time>
      </trkpt>
      <trkpt lat="42.39352692849934101104736328125" lon="-8.70243377052247524261474609375">
        <ele>-2.7999999523162841796875</ele>
        <time>2022-11-01T09:17:23.000Z</time>
      </trkpt>
      <trkpt lat="42.393556348979473114013671875" lon="-8.70255279354751110076904296875">
        <ele>-2.7999999523162841796875</ele>
        <time>2022-11-01T09:17:24.000Z</time>
      </trkpt>
      <trkpt lat="42.39357219077646732330322265625" lon="-8.702633343636989593505859375">
        <ele>-2.7999999523162841796875</ele>
        <time>2022-11-01T09:17:25.000Z</time>
      </trkpt>
      <trkpt lat="42.39358375780284404754638671875" lon="-8.702734597027301788330078125">
        <ele>-2.7999999523162841796875</ele>
        <time>2022-11-01T09:17:26.000Z</time>
      </trkpt>
      <trkpt lat="42.3935816623270511627197265625" lon="-8.70283593423664569854736328125">
        <ele>-2.7999999523162841796875</ele>
        <time>2022-11-01T09:17:27.000Z</time>
      </trkpt>
      <trkpt lat="42.3935672454535961151123046875" lon="-8.70295881293714046478271484375">
        <ele>-2.7999999523162841796875</ele>
        <time>2022-11-01T09:17:28.000Z</time>
      </trkpt>
      <trkpt lat="42.39355559460818767547607421875" lon="-8.70306040160357952117919921875">
        <ele>-3</ele>
        <time>2022-11-01T09:17:29.000Z</time>
      </trkpt>
      <trkpt lat="42.393548302352428436279296875" lon="-8.70316634885966777801513671875">
        <ele>-3</ele>
        <time>2022-11-01T09:17:30.000Z</time>
      </trkpt>
      <trkpt lat="42.3935540020465850830078125" lon="-8.703245557844638824462890625">
        <ele>-3</ele>
        <time>2022-11-01T09:17:31.000Z</time>
      </trkpt>
      <trkpt lat="42.39357478916645050048828125" lon="-8.703360892832279205322265625">
        <ele>-3</ele>
        <time>2022-11-01T09:17:32.000Z</time>
      </trkpt>
      <trkpt lat="42.3935907147824764251708984375" lon="-8.703439347445964813232421875">
        <ele>-3.2000000476837158203125</ele>
        <time>2022-11-01T09:17:33.000Z</time>
      </trkpt>
      <trkpt lat="42.39360990934073925018310546875" lon="-8.7035605497658252716064453125">
        <ele>-3.2000000476837158203125</ele>
        <time>2022-11-01T09:17:34.000Z</time>
      </trkpt>
      <trkpt lat="42.3936202190816402435302734375" lon="-8.70364286005496978759765625">
        <ele>-3.2000000476837158203125</ele>
        <time>2022-11-01T09:17:35.000Z</time>
      </trkpt>
      <trkpt lat="42.3936386592686176300048828125" lon="-8.70374302379786968231201171875">
        <ele>-3</ele>
        <time>2022-11-01T09:17:36.000Z</time>
      </trkpt>
      <trkpt lat="42.3936587758362293243408203125" lon="-8.70386523194611072540283203125">
        <ele>-3.2000000476837158203125</ele>
        <time>2022-11-01T09:17:37.000Z</time>
      </trkpt>
      <trkpt lat="42.393671013414859771728515625" lon="-8.70394536294043064117431640625">
        <ele>-3.2000000476837158203125</ele>
        <time>2022-11-01T09:17:38.000Z</time>
      </trkpt>
      <trkpt lat="42.39368836395442485809326171875" lon="-8.70404393412172794342041015625">
        <ele>-3.2000000476837158203125</ele>
        <time>2022-11-01T09:17:39.000Z</time>
      </trkpt>
      <trkpt lat="42.3937070555984973907470703125" lon="-8.70414351113140583038330078125">
        <ele>-3.2000000476837158203125</ele>
        <time>2022-11-01T09:17:40.000Z</time>
      </trkpt>
      <trkpt lat="42.39372474141418933868408203125" lon="-8.70424392633140087127685546875">
        <ele>-3.2000000476837158203125</ele>
        <time>2022-11-01T09:17:41.000Z</time>
      </trkpt>
      <trkpt lat="42.3937449418008327484130859375" lon="-8.70436814613640308380126953125">
        <ele>-3.2000000476837158203125</ele>
        <time>2022-11-01T09:17:42.000Z</time>
      </trkpt>
      <trkpt lat="42.3937618732452392578125" lon="-8.7044691480696201324462890625">
        <ele>-3.2000000476837158203125</ele>
        <time>2022-11-01T09:17:43.000Z</time>
      </trkpt>
      <trkpt lat="42.3937774635851383209228515625" lon="-8.7045704014599323272705078125">
        <ele>-3.2000000476837158203125</ele>
        <time>2022-11-01T09:17:44.000Z</time>
      </trkpt>
      <trkpt lat="42.3937915451824665069580078125" lon="-8.7046493589878082275390625">
        <ele>-3.2000000476837158203125</ele>
        <time>2022-11-01T09:17:45.000Z</time>
      </trkpt>
      <trkpt lat="42.393808476626873016357421875" lon="-8.704747259616851806640625">
        <ele>-3.2000000476837158203125</ele>
        <time>2022-11-01T09:17:46.000Z</time>
      </trkpt>
      <trkpt lat="42.39382834173738956451416015625" lon="-8.7048558890819549560546875">
        <ele>-3.2000000476837158203125</ele>
        <time>2022-11-01T09:17:47.000Z</time>
      </trkpt>
      <trkpt lat="42.3938478715717792510986328125" lon="-8.70493836700916290283203125">
        <ele>-3.2000000476837158203125</ele>
        <time>2022-11-01T09:17:48.000Z</time>
      </trkpt>
      <trkpt lat="42.3938691616058349609375" lon="-8.70500785298645496368408203125">
        <ele>-3</ele>
        <time>2022-11-01T09:17:49.000Z</time>
      </trkpt>
      <trkpt lat="42.39387997426092624664306640625" lon="-8.70505931787192821502685546875">
        <ele>-3</ele>
        <time>2022-11-01T09:17:50.000Z</time>
      </trkpt>
      <trkpt lat="42.3938865959644317626953125" lon="-8.70511715300381183624267578125">
        <ele>-2.599999904632568359375</ele>
        <time>2022-11-01T09:17:51.000Z</time>
      </trkpt>
      <trkpt lat="42.39388315938413143157958984375" lon="-8.7051712162792682647705078125">
        <ele>-2.2000000476837158203125</ele>
        <time>2022-11-01T09:17:52.000Z</time>
      </trkpt>
      <trkpt lat="42.3938713409006595611572265625" lon="-8.70522678829729557037353515625">
        <ele>-1.60000002384185791015625</ele>
        <time>2022-11-01T09:17:53.000Z</time>
      </trkpt>
      <trkpt lat="42.393845357000827789306640625" lon="-8.7052935920655727386474609375">
        <ele>-1.2000000476837158203125</ele>
        <time>2022-11-01T09:17:54.000Z</time>
      </trkpt>
      <trkpt lat="42.3938123323023319244384765625" lon="-8.70533156208693981170654296875">
        <ele>-0.60000002384185791015625</ele>
        <time>2022-11-01T09:17:55.000Z</time>
      </trkpt>
      <trkpt lat="42.3937771283090114593505859375" lon="-8.70536240749061107635498046875">
        <ele>-0.20000000298023223876953125</ele>
        <time>2022-11-01T09:17:56.000Z</time>
      </trkpt>
      <trkpt lat="42.39374603144824504852294921875" lon="-8.70539492927491664886474609375">
        <ele>0.60000002384185791015625</ele>
        <time>2022-11-01T09:17:57.000Z</time>
      </trkpt>
      <trkpt lat="42.39371334202587604522705078125" lon="-8.70542745105922222137451171875">
        <ele>0.800000011920928955078125</ele>
        <time>2022-11-01T09:17:58.000Z</time>
      </trkpt>
      <trkpt lat="42.3936829157173633575439453125" lon="-8.70545444078743457794189453125">
        <ele>1.2000000476837158203125</ele>
        <time>2022-11-01T09:17:59.000Z</time>
      </trkpt>
      <trkpt lat="42.3936446942389011383056640625" lon="-8.70548696257174015045166015625">
        <ele>2.2000000476837158203125</ele>
        <time>2022-11-01T09:18:00.000Z</time>
      </trkpt>
      <trkpt lat="42.393610663712024688720703125" lon="-8.7055111862719058990478515625">
        <ele>2.400000095367431640625</ele>
        <time>2022-11-01T09:18:01.000Z</time>
      </trkpt>
      <trkpt lat="42.39357554353773593902587890625" lon="-8.7055343203246593475341796875">
        <ele>2.7999999523162841796875</ele>
        <time>2022-11-01T09:18:02.000Z</time>
      </trkpt>
      <trkpt lat="42.39354670979082584381103515625" lon="-8.70556290261447429656982421875">
        <ele>3.2000000476837158203125</ele>
        <time>2022-11-01T09:18:03.000Z</time>
      </trkpt>
      <trkpt lat="42.393520809710025787353515625" lon="-8.7055943347513675689697265625">
        <ele>3.400000095367431640625</ele>
        <time>2022-11-01T09:18:04.000Z</time>
      </trkpt>
      <trkpt lat="42.3934918083250522613525390625" lon="-8.7056194804608821868896484375">
        <ele>3.7999999523162841796875</ele>
        <time>2022-11-01T09:18:05.000Z</time>
      </trkpt>
      <trkpt lat="42.3934626393020153045654296875" lon="-8.7056536786258220672607421875">
        <ele>4.19999980926513671875</ele>
        <time>2022-11-01T09:18:06.000Z</time>
      </trkpt>
      <trkpt lat="42.3934306204319000244140625" lon="-8.70570757426321506500244140625">
        <ele>4.400000095367431640625</ele>
        <time>2022-11-01T09:18:07.000Z</time>
      </trkpt>
      <trkpt lat="42.39340807311236858367919921875" lon="-8.70575778186321258544921875">
        <ele>5</ele>
        <time>2022-11-01T09:18:08.000Z</time>
      </trkpt>
      <trkpt lat="42.3933818377554416656494140625" lon="-8.7057901360094547271728515625">
        <ele>5.19999980926513671875</ele>
        <time>2022-11-01T09:18:09.000Z</time>
      </trkpt>
      <trkpt lat="42.3933550156652927398681640625" lon="-8.70582743547856807708740234375">
        <ele>5.80000019073486328125</ele>
        <time>2022-11-01T09:18:10.000Z</time>
      </trkpt>
      <trkpt lat="42.39332542754709720611572265625" lon="-8.70586381293833255767822265625">
        <ele>6</ele>
        <time>2022-11-01T09:18:11.000Z</time>
      </trkpt>
      <trkpt lat="42.3933007009327411651611328125" lon="-8.70590262115001678466796875">
        <ele>6.19999980926513671875</ele>
        <time>2022-11-01T09:18:12.000Z</time>
      </trkpt>
      <trkpt lat="42.3932698555290699005126953125" lon="-8.70594964362680912017822265625">
        <ele>6.599999904632568359375</ele>
        <time>2022-11-01T09:18:13.000Z</time>
      </trkpt>
      <trkpt lat="42.393247894942760467529296875" lon="-8.70598317123949527740478515625">
        <ele>6.599999904632568359375</ele>
        <time>2022-11-01T09:18:14.000Z</time>
      </trkpt>
      <trkpt lat="42.3932185582816600799560546875" lon="-8.7060241587460041046142578125">
        <ele>7</ele>
        <time>2022-11-01T09:18:15.000Z</time>
      </trkpt>
      <trkpt lat="42.39319047890603542327880859375" lon="-8.7060697562992572784423828125">
        <ele>7.19999980926513671875</ele>
        <time>2022-11-01T09:18:16.000Z</time>
      </trkpt>
      <trkpt lat="42.39315846003592014312744140625" lon="-8.70612214319407939910888671875">
        <ele>7.599999904632568359375</ele>
        <time>2022-11-01T09:18:17.000Z</time>
      </trkpt>
      <trkpt lat="42.39312996156513690948486328125" lon="-8.70615265332162380218505859375">
        <ele>7.80000019073486328125</ele>
        <time>2022-11-01T09:18:18.000Z</time>
      </trkpt>
      <trkpt lat="42.393107749521732330322265625" lon="-8.7061867676675319671630859375">
        <ele>8</ele>
        <time>2022-11-01T09:18:19.000Z</time>
      </trkpt>
      <trkpt lat="42.3930871300399303436279296875" lon="-8.706231527030467987060546875">
        <ele>8</ele>
        <time>2022-11-01T09:18:20.000Z</time>
      </trkpt>
      <trkpt lat="42.39308754913508892059326171875" lon="-8.7062739394605159759521484375">
        <ele>8.6000003814697265625</ele>
        <time>2022-11-01T09:18:21.000Z</time>
      </trkpt>
      <trkpt lat="42.3931022174656391143798828125" lon="-8.70631031692028045654296875">
        <ele>9</ele>
        <time>2022-11-01T09:18:22.000Z</time>
      </trkpt>
      <trkpt lat="42.393124513328075408935546875" lon="-8.7063418328762054443359375">
        <ele>9.19999980926513671875</ele>
        <time>2022-11-01T09:18:23.000Z</time>
      </trkpt>
      <trkpt lat="42.39315309561789035797119140625" lon="-8.70637091808021068572998046875">
        <ele>10</ele>
        <time>2022-11-01T09:18:24.000Z</time>
      </trkpt>
      <trkpt lat="42.39318746142089366912841796875" lon="-8.706403858959674835205078125">
        <ele>10.19999980926513671875</ele>
        <time>2022-11-01T09:18:25.000Z</time>
      </trkpt>
      <trkpt lat="42.39321964792907238006591796875" lon="-8.70643763802945613861083984375">
        <ele>10.6000003814697265625</ele>
        <time>2022-11-01T09:18:26.000Z</time>
      </trkpt>
      <trkpt lat="42.39325284026563167572021484375" lon="-8.7064707465469837188720703125">
        <ele>11</ele>
        <time>2022-11-01T09:18:27.000Z</time>
      </trkpt>
      <trkpt lat="42.3932876251637935638427734375" lon="-8.70650318451225757598876953125">
        <ele>11.3999996185302734375</ele>
        <time>2022-11-01T09:18:28.000Z</time>
      </trkpt>
      <trkpt lat="42.39332425408065319061279296875" lon="-8.7065364606678485870361328125">
        <ele>11.3999996185302734375</ele>
        <time>2022-11-01T09:18:29.000Z</time>
      </trkpt>
      <trkpt lat="42.39336448721587657928466796875" lon="-8.706567473709583282470703125">
        <ele>11.80000019073486328125</ele>
        <time>2022-11-01T09:18:30.000Z</time>
      </trkpt>
      <trkpt lat="42.39340941421687602996826171875" lon="-8.70659597218036651611328125">
        <ele>11.80000019073486328125</ele>
        <time>2022-11-01T09:18:31.000Z</time>
      </trkpt>
      <trkpt lat="42.39345517940819263458251953125" lon="-8.70662874542176723480224609375">
        <ele>12</ele>
        <time>2022-11-01T09:18:32.000Z</time>
      </trkpt>
      <trkpt lat="42.39350236952304840087890625" lon="-8.706662021577358245849609375">
        <ele>12.19999980926513671875</ele>
        <time>2022-11-01T09:18:33.000Z</time>
      </trkpt>
      <trkpt lat="42.39355064928531646728515625" lon="-8.70669613592326641082763671875">
        <ele>12.19999980926513671875</ele>
        <time>2022-11-01T09:18:34.000Z</time>
      </trkpt>
      <trkpt lat="42.3935974203050136566162109375" lon="-8.7067322619259357452392578125">
        <ele>12.3999996185302734375</ele>
        <time>2022-11-01T09:18:35.000Z</time>
      </trkpt>
      <trkpt lat="42.39364393986761569976806640625" lon="-8.70676687918603420257568359375">
        <ele>12.3999996185302734375</ele>
        <time>2022-11-01T09:18:36.000Z</time>
      </trkpt>
      <trkpt lat="42.39369104616343975067138671875" lon="-8.70680191554129123687744140625">
        <ele>12.6000003814697265625</ele>
        <time>2022-11-01T09:18:37.000Z</time>
      </trkpt>
      <trkpt lat="42.39373815245926380157470703125" lon="-8.70683343149721622467041015625">
        <ele>12.6000003814697265625</ele>
        <time>2022-11-01T09:18:38.000Z</time>
      </trkpt>
      <trkpt lat="42.39379297010600566864013671875" lon="-8.7068720720708370208740234375">
        <ele>12.6000003814697265625</ele>
        <time>2022-11-01T09:18:39.000Z</time>
      </trkpt>
      <trkpt lat="42.39382867701351642608642578125" lon="-8.70689906179904937744140625">
        <ele>12.6000003814697265625</ele>
        <time>2022-11-01T09:18:40.000Z</time>
      </trkpt>
      <trkpt lat="42.39387377165257930755615234375" lon="-8.70693451724946498870849609375">
        <ele>12.6000003814697265625</ele>
        <time>2022-11-01T09:18:41.000Z</time>
      </trkpt>
      <trkpt lat="42.393917776644229888916015625" lon="-8.70696879923343658447265625">
        <ele>12.6000003814697265625</ele>
        <time>2022-11-01T09:18:42.000Z</time>
      </trkpt>
      <trkpt lat="42.3939616978168487548828125" lon="-8.70700308121740818023681640625">
        <ele>12.6000003814697265625</ele>
        <time>2022-11-01T09:18:43.000Z</time>
      </trkpt>
      <trkpt lat="42.39400335587561130523681640625" lon="-8.707039542496204376220703125">
        <ele>12.80000019073486328125</ele>
        <time>2022-11-01T09:18:44.000Z</time>
      </trkpt>
      <trkpt lat="42.39404560066759586334228515625" lon="-8.70707952417433261871337890625">
        <ele>12.80000019073486328125</ele>
        <time>2022-11-01T09:18:45.000Z</time>
      </trkpt>
      <trkpt lat="42.3940829001367092132568359375" lon="-8.70712093077600002288818359375">
        <ele>12.80000019073486328125</ele>
        <time>2022-11-01T09:18:46.000Z</time>
      </trkpt>
      <trkpt lat="42.394116260111331939697265625" lon="-8.707170970737934112548828125">
        <ele>13</ele>
        <time>2022-11-01T09:18:47.000Z</time>
      </trkpt>
      <trkpt lat="42.3941469378769397735595703125" lon="-8.707228638231754302978515625">
        <ele>13.19999980926513671875</ele>
        <time>2022-11-01T09:18:48.000Z</time>
      </trkpt>
      <trkpt lat="42.394178621470928192138671875" lon="-8.70730281807482242584228515625">
        <ele>13.19999980926513671875</ele>
        <time>2022-11-01T09:18:49.000Z</time>
      </trkpt>
      <trkpt lat="42.39419261924922466278076171875" lon="-8.7073572166264057159423828125">
        <ele>13.3999996185302734375</ele>
        <time>2022-11-01T09:18:50.000Z</time>
      </trkpt>
      <trkpt lat="42.394209802150726318359375" lon="-8.7074279598891735076904296875">
        <ele>13.3999996185302734375</ele>
        <time>2022-11-01T09:18:51.000Z</time>
      </trkpt>
      <trkpt lat="42.39422120153903961181640625" lon="-8.70749719440937042236328125">
        <ele>13.80000019073486328125</ele>
        <time>2022-11-01T09:18:52.000Z</time>
      </trkpt>
      <trkpt lat="42.39422614686191082000732421875" lon="-8.7075704522430896759033203125">
        <ele>14</ele>
        <time>2022-11-01T09:18:53.000Z</time>
      </trkpt>
      <trkpt lat="42.3942245543003082275390625" lon="-8.707645051181316375732421875">
        <ele>14</ele>
        <time>2022-11-01T09:18:54.000Z</time>
      </trkpt>
      <trkpt lat="42.3942163400352001190185546875" lon="-8.707719482481479644775390625">
        <ele>14.19999980926513671875</ele>
        <time>2022-11-01T09:18:55.000Z</time>
      </trkpt>
      <trkpt lat="42.3942039348185062408447265625" lon="-8.7077920697629451751708984375">
        <ele>14.19999980926513671875</ele>
        <time>2022-11-01T09:18:56.000Z</time>
      </trkpt>
      <trkpt lat="42.3941901884973049163818359375" lon="-8.70786256156861782073974609375">
        <ele>14.3999996185302734375</ele>
        <time>2022-11-01T09:18:57.000Z</time>
      </trkpt>
      <trkpt lat="42.3941764421761035919189453125" lon="-8.70793196372687816619873046875">
        <ele>14.3999996185302734375</ele>
        <time>2022-11-01T09:18:58.000Z</time>
      </trkpt>
      <trkpt lat="42.39416219294071197509765625" lon="-8.708003796637058258056640625">
        <ele>14.6000003814697265625</ele>
        <time>2022-11-01T09:18:59.000Z</time>
      </trkpt>
      <trkpt lat="42.39414517767727375030517578125" lon="-8.70807512663304805755615234375">
        <ele>14.80000019073486328125</ele>
        <time>2022-11-01T09:19:00.000Z</time>
      </trkpt>
      <trkpt lat="42.3941305093467235565185546875" lon="-8.70814469642937183380126953125">
        <ele>15</ele>
        <time>2022-11-01T09:19:01.000Z</time>
      </trkpt>
      <trkpt lat="42.394116260111331939697265625" lon="-8.7082151882350444793701171875">
        <ele>15</ele>
        <time>2022-11-01T09:19:02.000Z</time>
      </trkpt>
      <trkpt lat="42.39410226233303546905517578125" lon="-8.70828299783170223236083984375">
        <ele>15.19999980926513671875</ele>
        <time>2022-11-01T09:19:03.000Z</time>
      </trkpt>
      <trkpt lat="42.394088096916675567626953125" lon="-8.70835156179964542388916015625">
        <ele>15.3999996185302734375</ele>
        <time>2022-11-01T09:19:04.000Z</time>
      </trkpt>
      <trkpt lat="42.39407242275774478912353515625" lon="-8.7084190361201763153076171875">
        <ele>15.3999996185302734375</ele>
        <time>2022-11-01T09:19:05.000Z</time>
      </trkpt>
      <trkpt lat="42.39405683241784572601318359375" lon="-8.70848868973553180694580078125">
        <ele>15.6000003814697265625</ele>
        <time>2022-11-01T09:19:06.000Z</time>
      </trkpt>
      <trkpt lat="42.39404224790632724761962890625" lon="-8.70856077410280704498291015625">
        <ele>15.80000019073486328125</ele>
        <time>2022-11-01T09:19:07.000Z</time>
      </trkpt>
      <trkpt lat="42.394028417766094207763671875" lon="-8.7086279131472110748291015625">
        <ele>16</ele>
        <time>2022-11-01T09:19:08.000Z</time>
      </trkpt>
      <trkpt lat="42.39401374943554401397705078125" lon="-8.70869421400129795074462890625">
        <ele>16.200000762939453125</ele>
        <time>2022-11-01T09:19:09.000Z</time>
      </trkpt>
      <trkpt lat="42.3939987458288669586181640625" lon="-8.70876143686473369598388671875">
        <ele>16.3999996185302734375</ele>
        <time>2022-11-01T09:19:10.000Z</time>
      </trkpt>
      <trkpt lat="42.39398340694606304168701171875" lon="-8.7088277377188205718994140625">
        <ele>16.3999996185302734375</ele>
        <time>2022-11-01T09:19:11.000Z</time>
      </trkpt>
      <trkpt lat="42.39396949298679828643798828125" lon="-8.70889236219227313995361328125">
        <ele>16.799999237060546875</ele>
        <time>2022-11-01T09:19:12.000Z</time>
      </trkpt>
      <trkpt lat="42.39395541138947010040283203125" lon="-8.7089703977108001708984375">
        <ele>17.200000762939453125</ele>
        <time>2022-11-01T09:19:13.000Z</time>
      </trkpt>
      <trkpt lat="42.3939464427530765533447265625" lon="-8.7090366147458553314208984375">
        <ele>17.6000003814697265625</ele>
        <time>2022-11-01T09:19:14.000Z</time>
      </trkpt>
      <trkpt lat="42.39393948577344417572021484375" lon="-8.70908900164067745208740234375">
        <ele>17.799999237060546875</ele>
        <time>2022-11-01T09:19:15.000Z</time>
      </trkpt>
      <trkpt lat="42.39393294788897037506103515625" lon="-8.70914901606738567352294921875">
        <ele>18.200000762939453125</ele>
        <time>2022-11-01T09:19:16.000Z</time>
      </trkpt>
      <trkpt lat="42.39392188377678394317626953125" lon="-8.70921037159860134124755859375">
        <ele>18.3999996185302734375</ele>
        <time>2022-11-01T09:19:17.000Z</time>
      </trkpt>
      <trkpt lat="42.39389807917177677154541015625" lon="-8.70929134078323841094970703125">
        <ele>18.3999996185302734375</ele>
        <time>2022-11-01T09:19:18.000Z</time>
      </trkpt>
      <trkpt lat="42.3938743583858013153076171875" lon="-8.70935060083866119384765625">
        <ele>18.3999996185302734375</ele>
        <time>2022-11-01T09:19:19.000Z</time>
      </trkpt>
      <trkpt lat="42.39384041167795658111572265625" lon="-8.7094265408813953399658203125">
        <ele>18.3999996185302734375</ele>
        <time>2022-11-01T09:19:20.000Z</time>
      </trkpt>
      <trkpt lat="42.39380545914173126220703125" lon="-8.709505833685398101806640625">
        <ele>18.3999996185302734375</ele>
        <time>2022-11-01T09:19:21.000Z</time>
      </trkpt>
      <trkpt lat="42.39376883022487163543701171875" lon="-8.709588311612606048583984375">
        <ele>18.3999996185302734375</ele>
        <time>2022-11-01T09:19:22.000Z</time>
      </trkpt>
      <trkpt lat="42.39372826181352138519287109375" lon="-8.70967003516852855682373046875">
        <ele>18.3999996185302734375</ele>
        <time>2022-11-01T09:19:23.000Z</time>
      </trkpt>
      <trkpt lat="42.39368534646928310394287109375" lon="-8.70975603349506855010986328125">
        <ele>18.200000762939453125</ele>
        <time>2022-11-01T09:19:24.000Z</time>
      </trkpt>
      <trkpt lat="42.39363974891602993011474609375" lon="-8.70984387584030628204345703125">
        <ele>18</ele>
        <time>2022-11-01T09:19:25.000Z</time>
      </trkpt>
      <trkpt lat="42.39358484745025634765625" lon="-8.70992735959589481353759765625">
        <ele>17.3999996185302734375</ele>
        <time>2022-11-01T09:19:26.000Z</time>
      </trkpt>
      <trkpt lat="42.393519468605518341064453125" lon="-8.71000665239989757537841796875">
        <ele>17.200000762939453125</ele>
        <time>2022-11-01T09:19:27.000Z</time>
      </trkpt>
      <trkpt lat="42.39344730041921138763427734375" lon="-8.71007471345365047454833984375">
        <ele>16.3999996185302734375</ele>
        <time>2022-11-01T09:19:28.000Z</time>
      </trkpt>
      <trkpt lat="42.39337253384292125701904296875" lon="-8.7101356498897075653076171875">
        <ele>16</ele>
        <time>2022-11-01T09:19:29.000Z</time>
      </trkpt>
      <trkpt lat="42.39328066818416118621826171875" lon="-8.71020781807601451873779296875">
        <ele>15.6000003814697265625</ele>
        <time>2022-11-01T09:19:30.000Z</time>
      </trkpt>
      <trkpt lat="42.39321830682456493377685546875" lon="-8.71025743894279003143310546875">
        <ele>15.3999996185302734375</ele>
        <time>2022-11-01T09:19:31.000Z</time>
      </trkpt>
      <trkpt lat="42.39314270205795764923095703125" lon="-8.71032281778752803802490234375">
        <ele>14.80000019073486328125</ele>
        <time>2022-11-01T09:19:32.000Z</time>
      </trkpt>
      <trkpt lat="42.39306919276714324951171875" lon="-8.710392974317073822021484375">
        <ele>14.6000003814697265625</ele>
        <time>2022-11-01T09:19:33.000Z</time>
      </trkpt>
      <trkpt lat="42.39298864267766475677490234375" lon="-8.7104876898229122161865234375">
        <ele>14</ele>
        <time>2022-11-01T09:19:34.000Z</time>
      </trkpt>
      <trkpt lat="42.39294606260955333709716796875" lon="-8.710563294589519500732421875">
        <ele>13.80000019073486328125</ele>
        <time>2022-11-01T09:19:35.000Z</time>
      </trkpt>
      <trkpt lat="42.39290029741823673248291015625" lon="-8.71066781692206859588623046875">
        <ele>13.19999980926513671875</ele>
        <time>2022-11-01T09:19:36.000Z</time>
      </trkpt>
      <trkpt lat="42.39285956136882305145263671875" lon="-8.71077963151037693023681640625">
        <ele>13</ele>
        <time>2022-11-01T09:19:37.000Z</time>
      </trkpt>
      <trkpt lat="42.39282184280455112457275390625" lon="-8.7108881771564483642578125">
        <ele>12.80000019073486328125</ele>
        <time>2022-11-01T09:19:38.000Z</time>
      </trkpt>
      <trkpt lat="42.39277859218418598175048828125" lon="-8.71101885102689266204833984375">
        <ele>12.6000003814697265625</ele>
        <time>2022-11-01T09:19:39.000Z</time>
      </trkpt>
      <trkpt lat="42.39274255000054836273193359375" lon="-8.71112513355910778045654296875">
        <ele>12.3999996185302734375</ele>
        <time>2022-11-01T09:19:40.000Z</time>
      </trkpt>
      <trkpt lat="42.3927136324346065521240234375" lon="-8.711209036409854888916015625">
        <ele>12.19999980926513671875</ele>
        <time>2022-11-01T09:19:41.000Z</time>
      </trkpt>
      <trkpt lat="42.3926688730716705322265625" lon="-8.71133334003388881683349609375">
        <ele>12.19999980926513671875</ele>
        <time>2022-11-01T09:19:42.000Z</time>
      </trkpt>
      <trkpt lat="42.39264247007668018341064453125" lon="-8.71141531504690647125244140625">
        <ele>12</ele>
        <time>2022-11-01T09:19:43.000Z</time>
      </trkpt>
      <trkpt lat="42.39261548034846782684326171875" lon="-8.7115203402936458587646484375">
        <ele>11.80000019073486328125</ele>
        <time>2022-11-01T09:19:44.000Z</time>
      </trkpt>
      <trkpt lat="42.39259687252342700958251953125" lon="-8.71162955649197101593017578125">
        <ele>11.80000019073486328125</ele>
        <time>2022-11-01T09:19:45.000Z</time>
      </trkpt>
      <trkpt lat="42.392585389316082000732421875" lon="-8.711744137108325958251953125">
        <ele>11.6000003814697265625</ele>
        <time>2022-11-01T09:19:46.000Z</time>
      </trkpt>
      <trkpt lat="42.39257692359387874603271484375" lon="-8.7118616513907909393310546875">
        <ele>11.6000003814697265625</ele>
        <time>2022-11-01T09:19:47.000Z</time>
      </trkpt>
      <trkpt lat="42.39256904460489749908447265625" lon="-8.71198075823485851287841796875">
        <ele>11.19999980926513671875</ele>
        <time>2022-11-01T09:19:48.000Z</time>
      </trkpt>
      <trkpt lat="42.39255881868302822113037109375" lon="-8.71213339269161224365234375">
        <ele>11.19999980926513671875</ele>
        <time>2022-11-01T09:19:49.000Z</time>
      </trkpt>
      <trkpt lat="42.3925473354756832122802734375" lon="-8.7122388370335102081298828125">
        <ele>10.80000019073486328125</ele>
        <time>2022-11-01T09:19:50.000Z</time>
      </trkpt>
      <trkpt lat="42.39252269268035888671875" lon="-8.712369762361049652099609375">
        <ele>10.6000003814697265625</ele>
        <time>2022-11-01T09:19:51.000Z</time>
      </trkpt>
      <trkpt lat="42.39248405210673809051513671875" lon="-8.71252357028424739837646484375">
        <ele>10.19999980926513671875</ele>
        <time>2022-11-01T09:19:52.000Z</time>
      </trkpt>
      <trkpt lat="42.3924430646002292633056640625" lon="-8.71264276094734668731689453125">
        <ele>10</ele>
        <time>2022-11-01T09:19:53.000Z</time>
      </trkpt>
      <trkpt lat="42.39240509457886219024658203125" lon="-8.71275968849658966064453125">
        <ele>9.6000003814697265625</ele>
        <time>2022-11-01T09:19:54.000Z</time>
      </trkpt>
      <trkpt lat="42.39238179288804531097412109375" lon="-8.71285096742212772369384765625">
        <ele>9.6000003814697265625</ele>
        <time>2022-11-01T09:19:55.000Z</time>
      </trkpt>
      <trkpt lat="42.39236511290073394775390625" lon="-8.7129653804004192352294921875">
        <ele>9.3999996185302734375</ele>
        <time>2022-11-01T09:19:56.000Z</time>
      </trkpt>
      <trkpt lat="42.39236184395849704742431640625" lon="-8.71310359798371791839599609375">
        <ele>9.19999980926513671875</ele>
        <time>2022-11-01T09:19:57.000Z</time>
      </trkpt>
      <trkpt lat="42.39237257279455661773681640625" lon="-8.713197223842144012451171875">
        <ele>9</ele>
        <time>2022-11-01T09:19:58.000Z</time>
      </trkpt>
      <trkpt lat="42.3923864029347896575927734375" lon="-8.7133378721773624420166015625">
        <ele>9</ele>
        <time>2022-11-01T09:19:59.000Z</time>
      </trkpt>
      <trkpt lat="42.39237659610807895660400390625" lon="-8.7134575657546520233154296875">
        <ele>8.80000019073486328125</ele>
        <time>2022-11-01T09:20:00.000Z</time>
      </trkpt>
      <trkpt lat="42.3923434875905513763427734375" lon="-8.713580779731273651123046875">
        <ele>8.6000003814697265625</ele>
        <time>2022-11-01T09:20:01.000Z</time>
      </trkpt>
      <trkpt lat="42.39229403436183929443359375" lon="-8.7136986292898654937744140625">
        <ele>8.3999996185302734375</ele>
        <time>2022-11-01T09:20:02.000Z</time>
      </trkpt>
      <trkpt lat="42.392229996621608734130859375" lon="-8.71378471143543720245361328125">
        <ele>8</ele>
        <time>2022-11-01T09:20:03.000Z</time>
      </trkpt>
      <trkpt lat="42.39215464331209659576416015625" lon="-8.71384707279503345489501953125">
        <ele>7.80000019073486328125</ele>
        <time>2022-11-01T09:20:04.000Z</time>
      </trkpt>
      <trkpt lat="42.392071746289730072021484375" lon="-8.7138930894434452056884765625">
        <ele>7.80000019073486328125</ele>
        <time>2022-11-01T09:20:05.000Z</time>
      </trkpt>
      <trkpt lat="42.39198599942028522491455078125" lon="-8.71393726207315921783447265625">
        <ele>7.80000019073486328125</ele>
        <time>2022-11-01T09:20:06.000Z</time>
      </trkpt>
      <trkpt lat="42.39190385676920413970947265625" lon="-8.71399492956697940826416015625">
        <ele>7.599999904632568359375</ele>
        <time>2022-11-01T09:20:07.000Z</time>
      </trkpt>
      <trkpt lat="42.391825653612613677978515625" lon="-8.7140590511262416839599609375">
        <ele>7.400000095367431640625</ele>
        <time>2022-11-01T09:20:08.000Z</time>
      </trkpt>
      <trkpt lat="42.39175616763532161712646484375" lon="-8.71413440443575382232666015625">
        <ele>6.599999904632568359375</ele>
        <time>2022-11-01T09:20:09.000Z</time>
      </trkpt>
      <trkpt lat="42.39169112406671047210693359375" lon="-8.7142240069806575775146484375">
        <ele>6.400000095367431640625</ele>
        <time>2022-11-01T09:20:10.000Z</time>
      </trkpt>
      <trkpt lat="42.39162348210811614990234375" lon="-8.71431712992489337921142578125">
        <ele>6.19999980926513671875</ele>
        <time>2022-11-01T09:20:11.000Z</time>
      </trkpt>
      <trkpt lat="42.39154695533215999603271484375" lon="-8.7143976800143718719482421875">
        <ele>6</ele>
        <time>2022-11-01T09:20:12.000Z</time>
      </trkpt>
      <trkpt lat="42.391468249261379241943359375" lon="-8.71445492841303348541259765625">
        <ele>5.80000019073486328125</ele>
        <time>2022-11-01T09:20:13.000Z</time>
      </trkpt>
      <trkpt lat="42.39137730561196804046630859375" lon="-8.714490719139575958251953125">
        <ele>5.599999904632568359375</ele>
        <time>2022-11-01T09:20:14.000Z</time>
      </trkpt>
      <trkpt lat="42.3912799917161464691162109375" lon="-8.71449667029082775115966796875">
        <ele>5.400000095367431640625</ele>
        <time>2022-11-01T09:20:15.000Z</time>
      </trkpt>
      <trkpt lat="42.3911988548934459686279296875" lon="-8.71446129865944385528564453125">
        <ele>5.19999980926513671875</ele>
        <time>2022-11-01T09:20:16.000Z</time>
      </trkpt>
      <trkpt lat="42.39109081216156482696533203125" lon="-8.71439449489116668701171875">
        <ele>5</ele>
        <time>2022-11-01T09:20:17.000Z</time>
      </trkpt>
      <trkpt lat="42.39100665785372257232666015625" lon="-8.71433104388415813446044921875">
        <ele>4.19999980926513671875</ele>
        <time>2022-11-01T09:20:18.000Z</time>
      </trkpt>
      <trkpt lat="42.3909386806190013885498046875" lon="-8.71427622623741626739501953125">
        <ele>3.7999999523162841796875</ele>
        <time>2022-11-01T09:20:19.000Z</time>
      </trkpt>
      <trkpt lat="42.39085913635790348052978515625" lon="-8.714201711118221282958984375">
        <ele>3.2000000476837158203125</ele>
        <time>2022-11-01T09:20:20.000Z</time>
      </trkpt>
      <trkpt lat="42.3907747305929660797119140625" lon="-8.71412769891321659088134765625">
        <ele>2.599999904632568359375</ele>
        <time>2022-11-01T09:20:21.000Z</time>
      </trkpt>
      <trkpt lat="42.390682362020015716552734375" lon="-8.71407472528517246246337890625">
        <ele>2.400000095367431640625</ele>
        <time>2022-11-01T09:20:22.000Z</time>
      </trkpt>
      <trkpt lat="42.39059443585574626922607421875" lon="-8.71406550519168376922607421875">
        <ele>2</ele>
        <time>2022-11-01T09:20:23.000Z</time>
      </trkpt>
      <trkpt lat="42.39048915915191173553466796875" lon="-8.7141043134033679962158203125">
        <ele>1.7999999523162841796875</ele>
        <time>2022-11-01T09:20:24.000Z</time>
      </trkpt>
      <trkpt lat="42.3904109559953212738037109375" lon="-8.714157454669475555419921875">
        <ele>1.39999997615814208984375</ele>
        <time>2022-11-01T09:20:25.000Z</time>
      </trkpt>
      <trkpt lat="42.39032261073589324951171875" lon="-8.71422006748616695404052734375">
        <ele>1.39999997615814208984375</ele>
        <time>2022-11-01T09:20:26.000Z</time>
      </trkpt>
      <trkpt lat="42.39023401401937007904052734375" lon="-8.71428720653057098388671875">
        <ele>1.2000000476837158203125</ele>
        <time>2022-11-01T09:20:27.000Z</time>
      </trkpt>
      <trkpt lat="42.39014432765543460845947265625" lon="-8.71435333974659442901611328125">
        <ele>1.39999997615814208984375</ele>
        <time>2022-11-01T09:20:28.000Z</time>
      </trkpt>
      <trkpt lat="42.39004139788448810577392578125" lon="-8.71442140080034732818603515625">
        <ele>1.39999997615814208984375</ele>
        <time>2022-11-01T09:20:29.000Z</time>
      </trkpt>
      <trkpt lat="42.38996059633791446685791015625" lon="-8.714467920362949371337890625">
        <ele>1.39999997615814208984375</ele>
        <time>2022-11-01T09:20:30.000Z</time>
      </trkpt>
      <trkpt lat="42.38989270292222499847412109375" lon="-8.714520893990993499755859375">
        <ele>1.2000000476837158203125</ele>
        <time>2022-11-01T09:20:31.000Z</time>
      </trkpt>
      <trkpt lat="42.38979580812156200408935546875" lon="-8.71460999362170696258544921875">
        <ele>1.2000000476837158203125</ele>
        <time>2022-11-01T09:20:32.000Z</time>
      </trkpt>
      <trkpt lat="42.38972313702106475830078125" lon="-8.7146915495395660400390625">
        <ele>1.2000000476837158203125</ele>
        <time>2022-11-01T09:20:33.000Z</time>
      </trkpt>
      <trkpt lat="42.3896602727472782135009765625" lon="-8.71477846987545490264892578125">
        <ele>1.2000000476837158203125</ele>
        <time>2022-11-01T09:20:34.000Z</time>
      </trkpt>
      <trkpt lat="42.38960972987115383148193359375" lon="-8.71485306881368160247802734375">
        <ele>1.2000000476837158203125</ele>
        <time>2022-11-01T09:20:35.000Z</time>
      </trkpt>
      <trkpt lat="42.38954736851155757904052734375" lon="-8.71494107879698276519775390625">
        <ele>1.2000000476837158203125</ele>
        <time>2022-11-01T09:20:36.000Z</time>
      </trkpt>
      <trkpt lat="42.38947796635329723358154296875" lon="-8.71506278403103351593017578125">
        <ele>1.2000000476837158203125</ele>
        <time>2022-11-01T09:20:37.000Z</time>
      </trkpt>
      <trkpt lat="42.38942465744912624359130859375" lon="-8.71516873128712177276611328125">
        <ele>1.2000000476837158203125</ele>
        <time>2022-11-01T09:20:38.000Z</time>
      </trkpt>
      <trkpt lat="42.38939716480672359466552734375" lon="-8.7152680568397045135498046875">
        <ele>1.2000000476837158203125</ele>
        <time>2022-11-01T09:20:39.000Z</time>
      </trkpt>
      <trkpt lat="42.389370761811733245849609375" lon="-8.715342991054058074951171875">
        <ele>1.2000000476837158203125</ele>
        <time>2022-11-01T09:20:40.000Z</time>
      </trkpt>
      <trkpt lat="42.38934201188385486602783203125" lon="-8.71542982757091522216796875">
        <ele>1.2000000476837158203125</ele>
        <time>2022-11-01T09:20:41.000Z</time>
      </trkpt>
      <trkpt lat="42.389324493706226348876953125" lon="-8.7155278958380222320556640625">
        <ele>1.2000000476837158203125</ele>
        <time>2022-11-01T09:20:42.000Z</time>
      </trkpt>
      <trkpt lat="42.38931099884212017059326171875" lon="-8.715589083731174468994140625">
        <ele>1.39999997615814208984375</ele>
        <time>2022-11-01T09:20:43.000Z</time>
      </trkpt>
      <trkpt lat="42.389293648302555084228515625" lon="-8.7156549654901027679443359375">
        <ele>1.39999997615814208984375</ele>
        <time>2022-11-01T09:20:44.000Z</time>
      </trkpt>
      <trkpt lat="42.38928987644612789154052734375" lon="-8.71571791358292102813720703125">
        <ele>1.60000002384185791015625</ele>
        <time>2022-11-01T09:20:45.000Z</time>
      </trkpt>
      <trkpt lat="42.389273531734943389892578125" lon="-8.71578899212181568145751953125">
        <ele>1.7999999523162841796875</ele>
        <time>2022-11-01T09:20:46.000Z</time>
      </trkpt>
      <trkpt lat="42.38925316371023654937744140625" lon="-8.7158655188977718353271484375">
        <ele>2.400000095367431640625</ele>
        <time>2022-11-01T09:20:47.000Z</time>
      </trkpt>
      <trkpt lat="42.3892354778945446014404296875" lon="-8.71593064628541469573974609375">
        <ele>2.599999904632568359375</ele>
        <time>2022-11-01T09:20:48.000Z</time>
      </trkpt>
      <trkpt lat="42.38923036493360996246337890625" lon="-8.7159790098667144775390625">
        <ele>3.400000095367431640625</ele>
        <time>2022-11-01T09:20:49.000Z</time>
      </trkpt>
      <trkpt lat="42.389227934181690216064453125" lon="-8.7160138785839080810546875">
        <ele>3.7999999523162841796875</ele>
        <time>2022-11-01T09:20:50.000Z</time>
      </trkpt>
      <trkpt lat="42.3892230726778507232666015625" lon="-8.7160586379468441009521484375">
        <ele>4.599999904632568359375</ele>
        <time>2022-11-01T09:20:51.000Z</time>
      </trkpt>
      <trkpt lat="42.3892128467559814453125" lon="-8.7161220051348209381103515625">
        <ele>5.599999904632568359375</ele>
        <time>2022-11-01T09:20:52.000Z</time>
      </trkpt>
      <trkpt lat="42.3892073146998882293701171875" lon="-8.71616651304066181182861328125">
        <ele>6</ele>
        <time>2022-11-01T09:20:53.000Z</time>
      </trkpt>
      <trkpt lat="42.38919717259705066680908203125" lon="-8.71620523743331432342529296875">
        <ele>6.400000095367431640625</ele>
        <time>2022-11-01T09:20:54.000Z</time>
      </trkpt>
      <trkpt lat="42.38915509544312953948974609375" lon="-8.71630565263330936431884765625">
        <ele>6.80000019073486328125</ele>
        <time>2022-11-01T09:20:55.000Z</time>
      </trkpt>
      <trkpt lat="42.38915509544312953948974609375" lon="-8.71630565263330936431884765625">
        <ele>7.400000095367431640625</ele>
        <time>2022-11-01T09:20:56.000Z</time>
      </trkpt>
      <trkpt lat="42.38910086452960968017578125" lon="-8.71643423102796077728271484375">
        <ele>7.599999904632568359375</ele>
        <time>2022-11-01T09:20:57.000Z</time>
      </trkpt>
      <trkpt lat="42.38910086452960968017578125" lon="-8.71643423102796077728271484375">
        <ele>8.19999980926513671875</ele>
        <time>2022-11-01T09:20:58.000Z</time>
      </trkpt>
      <trkpt lat="42.389058955013751983642578125" lon="-8.71657387353479862213134765625">
        <ele>8.3999996185302734375</ele>
        <time>2022-11-01T09:20:59.000Z</time>
      </trkpt>
      <trkpt lat="42.3890393413603305816650390625" lon="-8.71662181802093982696533203125">
        <ele>8.80000019073486328125</ele>
        <time>2022-11-01T09:21:00.000Z</time>
      </trkpt>
      <trkpt lat="42.3890138603746891021728515625" lon="-8.7166819162666797637939453125">
        <ele>9.19999980926513671875</ele>
        <time>2022-11-01T09:21:01.000Z</time>
      </trkpt>
      <trkpt lat="42.3890138603746891021728515625" lon="-8.7166819162666797637939453125">
        <ele>9.6000003814697265625</ele>
        <time>2022-11-01T09:21:02.000Z</time>
      </trkpt>
      <trkpt lat="42.3889862000942230224609375" lon="-8.71675140224397182464599609375">
        <ele>10</ele>
        <time>2022-11-01T09:21:03.000Z</time>
      </trkpt>
      <trkpt lat="42.3889374174177646636962890625" lon="-8.7168706767261028289794921875">
        <ele>10</ele>
        <time>2022-11-01T09:21:04.000Z</time>
      </trkpt>
      <trkpt lat="42.38890816457569599151611328125" lon="-8.7169484607875347137451171875">
        <ele>10.3999996185302734375</ele>
        <time>2022-11-01T09:21:05.000Z</time>
      </trkpt>
      <trkpt lat="42.38890816457569599151611328125" lon="-8.7169484607875347137451171875">
        <ele>10.6000003814697265625</ele>
        <time>2022-11-01T09:21:06.000Z</time>
      </trkpt>
      <trkpt lat="42.38888226449489593505859375" lon="-8.717034794390201568603515625">
        <ele>11</ele>
        <time>2022-11-01T09:21:07.000Z</time>
      </trkpt>
      <trkpt lat="42.38885804079473018646240234375" lon="-8.71711559593677520751953125">
        <ele>11.19999980926513671875</ele>
        <time>2022-11-01T09:21:08.000Z</time>
      </trkpt>
      <trkpt lat="42.38882401026785373687744140625" lon="-8.71727543883025646209716796875">
        <ele>11.3999996185302734375</ele>
        <time>2022-11-01T09:21:09.000Z</time>
      </trkpt>
      <trkpt lat="42.38882401026785373687744140625" lon="-8.71727543883025646209716796875">
        <ele>11.6000003814697265625</ele>
        <time>2022-11-01T09:21:10.000Z</time>
      </trkpt>
      <trkpt lat="42.38879936747252941131591796875" lon="-8.71735858730971813201904296875">
        <ele>11.80000019073486328125</ele>
        <time>2022-11-01T09:21:11.000Z</time>
      </trkpt>
      <trkpt lat="42.38877925090491771697998046875" lon="-8.7174406461417675018310546875">
        <ele>11.80000019073486328125</ele>
        <time>2022-11-01T09:21:12.000Z</time>
      </trkpt>
      <trkpt lat="42.3887644149363040924072265625" lon="-8.7175294943153858184814453125">
        <ele>12</ele>
        <time>2022-11-01T09:21:13.000Z</time>
      </trkpt>
      <trkpt lat="42.3887533508241176605224609375" lon="-8.717702329158782958984375">
        <ele>12.19999980926513671875</ele>
        <time>2022-11-01T09:21:14.000Z</time>
      </trkpt>
      <trkpt lat="42.3887533508241176605224609375" lon="-8.717702329158782958984375">
        <ele>12.19999980926513671875</ele>
        <time>2022-11-01T09:21:15.000Z</time>
      </trkpt>
      <trkpt lat="42.3887513391673564910888671875" lon="-8.71787340380251407623291015625">
        <ele>12.19999980926513671875</ele>
        <time>2022-11-01T09:21:16.000Z</time>
      </trkpt>
      <trkpt lat="42.388748489320278167724609375" lon="-8.7179531157016754150390625">
        <ele>12.3999996185302734375</ele>
        <time>2022-11-01T09:21:17.000Z</time>
      </trkpt>
      <trkpt lat="42.388748824596405029296875" lon="-8.71802628971636295318603515625">
        <ele>12.6000003814697265625</ele>
        <time>2022-11-01T09:21:18.000Z</time>
      </trkpt>
      <trkpt lat="42.3887448012828826904296875" lon="-8.718101978302001953125">
        <ele>12.6000003814697265625</ele>
        <time>2022-11-01T09:21:19.000Z</time>
      </trkpt>
      <trkpt lat="42.3887448012828826904296875" lon="-8.718101978302001953125">
        <ele>13</ele>
        <time>2022-11-01T09:21:20.000Z</time>
      </trkpt>
      <trkpt lat="42.3887412808835506439208984375" lon="-8.7182513438165187835693359375">
        <ele>13</ele>
        <time>2022-11-01T09:21:21.000Z</time>
      </trkpt>
      <trkpt lat="42.38872845657169818878173828125" lon="-8.718326278030872344970703125">
        <ele>13.19999980926513671875</ele>
        <time>2022-11-01T09:21:22.000Z</time>
      </trkpt>
      <trkpt lat="42.38872845657169818878173828125" lon="-8.718326278030872344970703125">
        <ele>13.19999980926513671875</ele>
        <time>2022-11-01T09:21:23.000Z</time>
      </trkpt>
      <trkpt lat="42.38867917098104953765869140625" lon="-8.7184598855674266815185546875">
        <ele>13.19999980926513671875</ele>
        <time>2022-11-01T09:21:24.000Z</time>
      </trkpt>
      <trkpt lat="42.38867917098104953765869140625" lon="-8.7184598855674266815185546875">
        <ele>13.3999996185302734375</ele>
        <time>2022-11-01T09:21:25.000Z</time>
      </trkpt>
      <trkpt lat="42.3885894007980823516845703125" lon="-8.71858167462050914764404296875">
        <ele>13.3999996185302734375</ele>
        <time>2022-11-01T09:21:26.000Z</time>
      </trkpt>
      <trkpt lat="42.3885329067707061767578125" lon="-8.71863397769629955291748046875">
        <ele>13.3999996185302734375</ele>
        <time>2022-11-01T09:21:27.000Z</time>
      </trkpt>
      <trkpt lat="42.3884720541536808013916015625" lon="-8.718684352934360504150390625">
        <ele>13.3999996185302734375</ele>
        <time>2022-11-01T09:21:28.000Z</time>
      </trkpt>
      <trkpt lat="42.3884070105850696563720703125" lon="-8.7187311239540576934814453125">
        <ele>13.3999996185302734375</ele>
        <time>2022-11-01T09:21:29.000Z</time>
      </trkpt>
      <trkpt lat="42.3883412964642047882080078125" lon="-8.71877596713602542877197265625">
        <ele>13.3999996185302734375</ele>
        <time>2022-11-01T09:21:30.000Z</time>
      </trkpt>
      <trkpt lat="42.3882745765149593353271484375" lon="-8.7188219837844371795654296875">
        <ele>13.19999980926513671875</ele>
        <time>2022-11-01T09:21:31.000Z</time>
      </trkpt>
      <trkpt lat="42.388206012547016143798828125" lon="-8.7188702635467052459716796875">
        <ele>13.19999980926513671875</ele>
        <time>2022-11-01T09:21:32.000Z</time>
      </trkpt>
      <trkpt lat="42.3881518654525279998779296875" lon="-8.71891208924353122711181640625">
        <ele>12.80000019073486328125</ele>
        <time>2022-11-01T09:21:33.000Z</time>
      </trkpt>
      <trkpt lat="42.38809059374034404754638671875" lon="-8.71897310949862003326416015625">
        <ele>12.3999996185302734375</ele>
        <time>2022-11-01T09:21:34.000Z</time>
      </trkpt>
      <trkpt lat="42.38802135922014713287353515625" lon="-8.7190479598939418792724609375">
        <ele>12</ele>
        <time>2022-11-01T09:21:35.000Z</time>
      </trkpt>
      <trkpt lat="42.38796385936439037322998046875" lon="-8.71911694295704364776611328125">
        <ele>11.3999996185302734375</ele>
        <time>2022-11-01T09:21:36.000Z</time>
      </trkpt>
      <trkpt lat="42.38790652714669704437255859375" lon="-8.71918533928692340850830078125">
        <ele>11.19999980926513671875</ele>
        <time>2022-11-01T09:21:37.000Z</time>
      </trkpt>
      <trkpt lat="42.38785925321280956268310546875" lon="-8.7192427553236484527587890625">
        <ele>11</ele>
        <time>2022-11-01T09:21:38.000Z</time>
      </trkpt>
      <trkpt lat="42.38779856823384761810302734375" lon="-8.7193145044147968292236328125">
        <ele>10.80000019073486328125</ele>
        <time>2022-11-01T09:21:39.000Z</time>
      </trkpt>
      <trkpt lat="42.38771952688694000244140625" lon="-8.7193943001329898834228515625">
        <ele>10.6000003814697265625</ele>
        <time>2022-11-01T09:21:40.000Z</time>
      </trkpt>
      <trkpt lat="42.3876610212028026580810546875" lon="-8.719438724219799041748046875">
        <ele>10.6000003814697265625</ele>
        <time>2022-11-01T09:21:41.000Z</time>
      </trkpt>
      <trkpt lat="42.38758080638945102691650390625" lon="-8.7194859981536865234375">
        <ele>10.3999996185302734375</ele>
        <time>2022-11-01T09:21:42.000Z</time>
      </trkpt>
      <trkpt lat="42.38758080638945102691650390625" lon="-8.7194859981536865234375">
        <ele>10.3999996185302734375</ele>
        <time>2022-11-01T09:21:43.000Z</time>
      </trkpt>
      <trkpt lat="42.38749732263386249542236328125" lon="-8.71951860375702381134033203125">
        <ele>10.19999980926513671875</ele>
        <time>2022-11-01T09:21:44.000Z</time>
      </trkpt>
      <trkpt lat="42.38729682750999927520751953125" lon="-8.719546012580394744873046875">
        <ele>10.19999980926513671875</ele>
        <time>2022-11-01T09:21:45.000Z</time>
      </trkpt>
      <trkpt lat="42.38722004927694797515869140625" lon="-8.71954995207488536834716796875">
        <ele>9.6000003814697265625</ele>
        <time>2022-11-01T09:21:46.000Z</time>
      </trkpt>
      <trkpt lat="42.38712265156209468841552734375" lon="-8.719550706446170806884765625">
        <ele>9.19999980926513671875</ele>
        <time>2022-11-01T09:21:47.000Z</time>
      </trkpt>
      <trkpt lat="42.3870209790766239166259765625" lon="-8.71954911388456821441650390625">
        <ele>9</ele>
        <time>2022-11-01T09:21:48.000Z</time>
      </trkpt>
      <trkpt lat="42.38691561855375766754150390625" lon="-8.71954433619976043701171875">
        <ele>8.3999996185302734375</ele>
        <time>2022-11-01T09:21:49.000Z</time>
      </trkpt>
      <trkpt lat="42.38691561855375766754150390625" lon="-8.71954433619976043701171875">
        <ele>8</ele>
        <time>2022-11-01T09:21:50.000Z</time>
      </trkpt>
      <trkpt lat="42.386683188378810882568359375" lon="-8.71952916495501995086669921875">
        <ele>7.599999904632568359375</ele>
        <time>2022-11-01T09:21:51.000Z</time>
      </trkpt>
      <trkpt lat="42.3866017162799835205078125" lon="-8.7195196934044361114501953125">
        <ele>7</ele>
        <time>2022-11-01T09:21:52.000Z</time>
      </trkpt>
      <trkpt lat="42.38650121726095676422119140625" lon="-8.71950569562613964080810546875">
        <ele>6.400000095367431640625</ele>
        <time>2022-11-01T09:21:53.000Z</time>
      </trkpt>
      <trkpt lat="42.386402226984500885009765625" lon="-8.71948222629725933074951171875">
        <ele>6.19999980926513671875</ele>
        <time>2022-11-01T09:21:54.000Z</time>
      </trkpt>
      <trkpt lat="42.38628546707332134246826171875" lon="-8.7194415740668773651123046875">
        <ele>5.400000095367431640625</ele>
        <time>2022-11-01T09:21:55.000Z</time>
      </trkpt>
      <trkpt lat="42.38620944321155548095703125" lon="-8.7194050289690494537353515625">
        <ele>5</ele>
        <time>2022-11-01T09:21:56.000Z</time>
      </trkpt>
      <trkpt lat="42.38609720952808856964111328125" lon="-8.71934719383716583251953125">
        <ele>4.80000019073486328125</ele>
        <time>2022-11-01T09:21:57.000Z</time>
      </trkpt>
      <trkpt lat="42.38602571189403533935546875" lon="-8.71930469758808612823486328125">
        <ele>4</ele>
        <time>2022-11-01T09:21:58.000Z</time>
      </trkpt>
      <trkpt lat="42.38602571189403533935546875" lon="-8.71930469758808612823486328125">
        <ele>3.7999999523162841796875</ele>
        <time>2022-11-01T09:21:59.000Z</time>
      </trkpt>
      <trkpt lat="42.38586033694446086883544921875" lon="-8.71918399818241596221923828125">
        <ele>3.400000095367431640625</ele>
        <time>2022-11-01T09:22:00.000Z</time>
      </trkpt>
      <trkpt lat="42.3857851512730121612548828125" lon="-8.7191198766231536865234375">
        <ele>3.599999904632568359375</ele>
        <time>2022-11-01T09:22:01.000Z</time>
      </trkpt>
      <trkpt lat="42.3857851512730121612548828125" lon="-8.7191198766231536865234375">
        <ele>3.400000095367431640625</ele>
        <time>2022-11-01T09:22:02.000Z</time>
      </trkpt>
      <trkpt lat="42.38564609549939632415771484375" lon="-8.71899892576038837432861328125">
        <ele>3.400000095367431640625</ele>
        <time>2022-11-01T09:22:03.000Z</time>
      </trkpt>
      <trkpt lat="42.38557920791208744049072265625" lon="-8.71894083917140960693359375">
        <ele>3.2000000476837158203125</ele>
        <time>2022-11-01T09:22:04.000Z</time>
      </trkpt>
      <trkpt lat="42.38550175912678241729736328125" lon="-8.7188784778118133544921875">
        <ele>3.2000000476837158203125</ele>
        <time>2022-11-01T09:22:05.000Z</time>
      </trkpt>
      <trkpt lat="42.38550175912678241729736328125" lon="-8.7188784778118133544921875">
        <ele>3.2000000476837158203125</ele>
        <time>2022-11-01T09:22:06.000Z</time>
      </trkpt>
      <trkpt lat="42.38537033088505268096923828125" lon="-8.71878937818109989166259765625">
        <ele>3.400000095367431640625</ele>
        <time>2022-11-01T09:22:07.000Z</time>
      </trkpt>
      <trkpt lat="42.38537033088505268096923828125" lon="-8.71878937818109989166259765625">
        <ele>3.599999904632568359375</ele>
        <time>2022-11-01T09:22:08.000Z</time>
      </trkpt>
      <trkpt lat="42.38524845801293849945068359375" lon="-8.71872617863118648529052734375">
        <ele>3.599999904632568359375</ele>
        <time>2022-11-01T09:22:09.000Z</time>
      </trkpt>
      <trkpt lat="42.38524845801293849945068359375" lon="-8.71872617863118648529052734375">
        <ele>3.7999999523162841796875</ele>
        <time>2022-11-01T09:22:10.000Z</time>
      </trkpt>
      <trkpt lat="42.38510965369641780853271484375" lon="-8.71868334710597991943359375">
        <ele>4</ele>
        <time>2022-11-01T09:22:11.000Z</time>
      </trkpt>
      <trkpt lat="42.38503740169107913970947265625" lon="-8.7186751328408718109130859375">
        <ele>4</ele>
        <time>2022-11-01T09:22:12.000Z</time>
      </trkpt>
      <trkpt lat="42.3849655687808990478515625" lon="-8.71866733767092227935791015625">
        <ele>4.599999904632568359375</ele>
        <time>2022-11-01T09:22:13.000Z</time>
      </trkpt>
      <trkpt lat="42.38489516079425811767578125" lon="-8.7186587043106555938720703125">
        <ele>4.80000019073486328125</ele>
        <time>2022-11-01T09:22:14.000Z</time>
      </trkpt>
      <trkpt lat="42.38482248969376087188720703125" lon="-8.7186506576836109161376953125">
        <ele>5</ele>
        <time>2022-11-01T09:22:15.000Z</time>
      </trkpt>
      <trkpt lat="42.38474856130778789520263671875" lon="-8.718644790351390838623046875">
        <ele>5</ele>
        <time>2022-11-01T09:22:16.000Z</time>
      </trkpt>
      <trkpt lat="42.38467295654118061065673828125" lon="-8.71863716281950473785400390625">
        <ele>5.19999980926513671875</ele>
        <time>2022-11-01T09:22:17.000Z</time>
      </trkpt>
      <trkpt lat="42.38467295654118061065673828125" lon="-8.71863716281950473785400390625">
        <ele>5.19999980926513671875</ele>
        <time>2022-11-01T09:22:18.000Z</time>
      </trkpt>
      <trkpt lat="42.38452074117958545684814453125" lon="-8.71861939318478107452392578125">
        <ele>5.19999980926513671875</ele>
        <time>2022-11-01T09:22:19.000Z</time>
      </trkpt>
      <trkpt lat="42.38444530405104160308837890625" lon="-8.718611933290958404541015625">
        <ele>5.19999980926513671875</ele>
        <time>2022-11-01T09:22:20.000Z</time>
      </trkpt>
      <trkpt lat="42.38437003456056118011474609375" lon="-8.71860581450164318084716796875">
        <ele>5.19999980926513671875</ele>
        <time>2022-11-01T09:22:21.000Z</time>
      </trkpt>
      <trkpt lat="42.384280599653720855712890625" lon="-8.7185986898839473724365234375">
        <ele>5.400000095367431640625</ele>
        <time>2022-11-01T09:22:22.000Z</time>
      </trkpt>
      <trkpt lat="42.38420692272484302520751953125" lon="-8.7185926549136638641357421875">
        <ele>5.400000095367431640625</ele>
        <time>2022-11-01T09:22:23.000Z</time>
      </trkpt>
      <trkpt lat="42.38414891995489597320556640625" lon="-8.71858687140047550201416015625">
        <ele>5.400000095367431640625</ele>
        <time>2022-11-01T09:22:24.000Z</time>
      </trkpt>
      <trkpt lat="42.384075410664081573486328125" lon="-8.7185782380402088165283203125">
        <ele>5.400000095367431640625</ele>
        <time>2022-11-01T09:22:25.000Z</time>
      </trkpt>
      <trkpt lat="42.3840011470019817352294921875" lon="-8.7185742147266864776611328125">
        <ele>5.599999904632568359375</ele>
        <time>2022-11-01T09:22:26.000Z</time>
      </trkpt>
      <trkpt lat="42.38391037099063396453857421875" lon="-8.71857010759413242340087890625">
        <ele>5.599999904632568359375</ele>
        <time>2022-11-01T09:22:27.000Z</time>
      </trkpt>
      <trkpt lat="42.38383359275758266448974609375" lon="-8.71856491081416606903076171875">
        <ele>5.599999904632568359375</ele>
        <time>2022-11-01T09:22:28.000Z</time>
      </trkpt>
      <trkpt lat="42.38377324305474758148193359375" lon="-8.7185594625771045684814453125">
        <ele>5.599999904632568359375</ele>
        <time>2022-11-01T09:22:29.000Z</time>
      </trkpt>
      <trkpt lat="42.38369847647845745086669921875" lon="-8.7185507453978061676025390625">
        <ele>5.599999904632568359375</ele>
        <time>2022-11-01T09:22:30.000Z</time>
      </trkpt>
      <trkpt lat="42.38361029885709285736083984375" lon="-8.718548901379108428955078125">
        <ele>5.599999904632568359375</ele>
        <time>2022-11-01T09:22:31.000Z</time>
      </trkpt>
      <trkpt lat="42.3835374601185321807861328125" lon="-8.7185601331293582916259765625">
        <ele>5.599999904632568359375</ele>
        <time>2022-11-01T09:22:32.000Z</time>
      </trkpt>
      <trkpt lat="42.38347895443439483642578125" lon="-8.71857949532568454742431640625">
        <ele>5.599999904632568359375</ele>
        <time>2022-11-01T09:22:33.000Z</time>
      </trkpt>
      <trkpt lat="42.3834070377051830291748046875" lon="-8.71861654333770275115966796875">
        <ele>5.599999904632568359375</ele>
        <time>2022-11-01T09:22:34.000Z</time>
      </trkpt>
      <trkpt lat="42.38334157504141330718994140625" lon="-8.71867001987993717193603515625">
        <ele>5.599999904632568359375</ele>
        <time>2022-11-01T09:22:35.000Z</time>
      </trkpt>
      <trkpt lat="42.38328156061470508575439453125" lon="-8.71875417418777942657470703125">
        <ele>5.599999904632568359375</ele>
        <time>2022-11-01T09:22:36.000Z</time>
      </trkpt>
      <trkpt lat="42.38324417732656002044677734375" lon="-8.718839585781097412109375">
        <ele>5.599999904632568359375</ele>
        <time>2022-11-01T09:22:37.000Z</time>
      </trkpt>
      <trkpt lat="42.383218109607696533203125" lon="-8.71892633847892284393310546875">
        <ele>5.599999904632568359375</ele>
        <time>2022-11-01T09:22:38.000Z</time>
      </trkpt>
      <trkpt lat="42.38320210017263889312744140625" lon="-8.71899741701781749725341796875">
        <ele>5.80000019073486328125</ele>
        <time>2022-11-01T09:22:39.000Z</time>
      </trkpt>
      <trkpt lat="42.38320210017263889312744140625" lon="-8.71899741701781749725341796875">
        <ele>6</ele>
        <time>2022-11-01T09:22:40.000Z</time>
      </trkpt>
      <trkpt lat="42.3831817321479320526123046875" lon="-8.71918584220111370086669921875">
        <ele>6</ele>
        <time>2022-11-01T09:22:41.000Z</time>
      </trkpt>
      <trkpt lat="42.38317628391087055206298828125" lon="-8.7192709185183048248291015625">
        <ele>6</ele>
        <time>2022-11-01T09:22:42.000Z</time>
      </trkpt>
      <trkpt lat="42.3831713385879993438720703125" lon="-8.7193547375500202178955078125">
        <ele>6.19999980926513671875</ele>
        <time>2022-11-01T09:22:43.000Z</time>
      </trkpt>
      <trkpt lat="42.3831713385879993438720703125" lon="-8.7193547375500202178955078125">
        <ele>6.599999904632568359375</ele>
        <time>2022-11-01T09:22:44.000Z</time>
      </trkpt>
      <trkpt lat="42.3831619508564472198486328125" lon="-8.71949714608490467071533203125">
        <ele>6.80000019073486328125</ele>
        <time>2022-11-01T09:22:45.000Z</time>
      </trkpt>
      <trkpt lat="42.38315767608582973480224609375" lon="-8.7195854075253009796142578125">
        <ele>7</ele>
        <time>2022-11-01T09:22:46.000Z</time>
      </trkpt>
      <trkpt lat="42.3831555806100368499755859375" lon="-8.719658665359020233154296875">
        <ele>7.400000095367431640625</ele>
        <time>2022-11-01T09:22:47.000Z</time>
      </trkpt>
      <trkpt lat="42.3831535689532756805419921875" lon="-8.71973351575434207916259765625">
        <ele>7.80000019073486328125</ele>
        <time>2022-11-01T09:22:48.000Z</time>
      </trkpt>
      <trkpt lat="42.38315331749618053436279296875" lon="-8.7197922728955745697021484375">
        <ele>8</ele>
        <time>2022-11-01T09:22:49.000Z</time>
      </trkpt>
      <trkpt lat="42.383153736591339111328125" lon="-8.71986846439540386199951171875">
        <ele>8.3999996185302734375</ele>
        <time>2022-11-01T09:22:50.000Z</time>
      </trkpt>
      <trkpt lat="42.3831552453339099884033203125" lon="-8.71994440443813800811767578125">
        <ele>8.80000019073486328125</ele>
        <time>2022-11-01T09:22:51.000Z</time>
      </trkpt>
      <trkpt lat="42.3831575922667980194091796875" lon="-8.72002051211893558502197265625">
        <ele>9</ele>
        <time>2022-11-01T09:22:52.000Z</time>
      </trkpt>
      <trkpt lat="42.3831589333713054656982421875" lon="-8.72011036612093448638916015625">
        <ele>9.19999980926513671875</ele>
        <time>2022-11-01T09:22:53.000Z</time>
      </trkpt>
      <trkpt lat="42.38316136412322521209716796875" lon="-8.720186389982700347900390625">
        <ele>9.19999980926513671875</ele>
        <time>2022-11-01T09:22:54.000Z</time>
      </trkpt>
      <trkpt lat="42.38316287286579608917236328125" lon="-8.7202459014952182769775390625">
        <ele>9.3999996185302734375</ele>
        <time>2022-11-01T09:22:55.000Z</time>
      </trkpt>
      <trkpt lat="42.38316287286579608917236328125" lon="-8.7202459014952182769775390625">
        <ele>9.3999996185302734375</ele>
        <time>2022-11-01T09:22:56.000Z</time>
      </trkpt>
      <trkpt lat="42.3831696622073650360107421875" lon="-8.7203900702297687530517578125">
        <ele>9.6000003814697265625</ele>
        <time>2022-11-01T09:22:57.000Z</time>
      </trkpt>
      <trkpt lat="42.383173517882823944091796875" lon="-8.72047816403210163116455078125">
        <ele>9.80000019073486328125</ele>
        <time>2022-11-01T09:22:58.000Z</time>
      </trkpt>
      <trkpt lat="42.383173517882823944091796875" lon="-8.72047816403210163116455078125">
        <ele>10.3999996185302734375</ele>
        <time>2022-11-01T09:22:59.000Z</time>
      </trkpt>
      <trkpt lat="42.38317586481571197509765625" lon="-8.72053633444011211395263671875">
        <ele>10.6000003814697265625</ele>
        <time>2022-11-01T09:23:00.000Z</time>
      </trkpt>
      <trkpt lat="42.38317913375794887542724609375" lon="-8.72061059810221195220947265625">
        <ele>10.80000019073486328125</ele>
        <time>2022-11-01T09:23:01.000Z</time>
      </trkpt>
      <trkpt lat="42.38318952731788158416748046875" lon="-8.720755018293857574462890625">
        <ele>11.19999980926513671875</ele>
        <time>2022-11-01T09:23:02.000Z</time>
      </trkpt>
      <trkpt lat="42.383196987211704254150390625" lon="-8.7208262644708156585693359375">
        <ele>11.3999996185302734375</ele>
        <time>2022-11-01T09:23:03.000Z</time>
      </trkpt>
      <trkpt lat="42.38320696167647838592529296875" lon="-8.72089290060102939605712890625">
        <ele>11.6000003814697265625</ele>
        <time>2022-11-01T09:23:04.000Z</time>
      </trkpt>
      <trkpt lat="42.3832199536263942718505859375" lon="-8.7209566868841648101806640625">
        <ele>11.80000019073486328125</ele>
        <time>2022-11-01T09:23:05.000Z</time>
      </trkpt>
      <trkpt lat="42.3832199536263942718505859375" lon="-8.7209566868841648101806640625">
        <ele>12</ele>
        <time>2022-11-01T09:23:06.000Z</time>
      </trkpt>
      <trkpt lat="42.38325708545744419097900390625" lon="-8.7210988439619541168212890625">
        <ele>12.19999980926513671875</ele>
        <time>2022-11-01T09:23:07.000Z</time>
      </trkpt>
      <trkpt lat="42.38327644765377044677734375" lon="-8.72116045095026493072509765625">
        <ele>12.3999996185302734375</ele>
        <time>2022-11-01T09:23:08.000Z</time>
      </trkpt>
      <trkpt lat="42.383298575878143310546875" lon="-8.72122046537697315216064453125">
        <ele>12.3999996185302734375</ele>
        <time>2022-11-01T09:23:09.000Z</time>
      </trkpt>
      <trkpt lat="42.38332204520702362060546875" lon="-8.7212798930704593658447265625">
        <ele>12.6000003814697265625</ele>
        <time>2022-11-01T09:23:10.000Z</time>
      </trkpt>
      <trkpt lat="42.38334660418331623077392578125" lon="-8.7213382311165332794189453125">
        <ele>12.80000019073486328125</ele>
        <time>2022-11-01T09:23:11.000Z</time>
      </trkpt>
      <trkpt lat="42.38337141461670398712158203125" lon="-8.72139464132487773895263671875">
        <ele>13</ele>
        <time>2022-11-01T09:23:12.000Z</time>
      </trkpt>
      <trkpt lat="42.38339857198297977447509765625" lon="-8.7214508838951587677001953125">
        <ele>13.3999996185302734375</ele>
        <time>2022-11-01T09:23:13.000Z</time>
      </trkpt>
      <trkpt lat="42.383424304425716400146484375" lon="-8.72150595299899578094482421875">
        <ele>13.6000003814697265625</ele>
        <time>2022-11-01T09:23:14.000Z</time>
      </trkpt>
      <trkpt lat="42.38345238380134105682373046875" lon="-8.72155708260834217071533203125">
        <ele>14.19999980926513671875</ele>
        <time>2022-11-01T09:23:15.000Z</time>
      </trkpt>
      <trkpt lat="42.38345238380134105682373046875" lon="-8.72155708260834217071533203125">
        <ele>14.6000003814697265625</ele>
        <time>2022-11-01T09:23:16.000Z</time>
      </trkpt>
      <trkpt lat="42.3835129849612712860107421875" lon="-8.72165380977094173431396484375">
        <ele>15</ele>
        <time>2022-11-01T09:23:17.000Z</time>
      </trkpt>
      <trkpt lat="42.38354735076427459716796875" lon="-8.721699155867099761962890625">
        <ele>15.19999980926513671875</ele>
        <time>2022-11-01T09:23:18.000Z</time>
      </trkpt>
      <trkpt lat="42.383582890033721923828125" lon="-8.72174165211617946624755859375">
        <ele>15.3999996185302734375</ele>
        <time>2022-11-01T09:23:19.000Z</time>
      </trkpt>
      <trkpt lat="42.38361977040767669677734375" lon="-8.7217811308801174163818359375">
        <ele>15.3999996185302734375</ele>
        <time>2022-11-01T09:23:20.000Z</time>
      </trkpt>
      <trkpt lat="42.38361977040767669677734375" lon="-8.7217811308801174163818359375">
        <ele>16.200000762939453125</ele>
        <time>2022-11-01T09:23:21.000Z</time>
      </trkpt>
      <trkpt lat="42.3836920224130153656005859375" lon="-8.72185715474188327789306640625">
        <ele>16.6000003814697265625</ele>
        <time>2022-11-01T09:23:22.000Z</time>
      </trkpt>
      <trkpt lat="42.38373133353888988494873046875" lon="-8.72189487330615520477294921875">
        <ele>16.799999237060546875</ele>
        <time>2022-11-01T09:23:23.000Z</time>
      </trkpt>
      <trkpt lat="42.3837745003402233123779296875" lon="-8.7219335138797760009765625">
        <ele>17.200000762939453125</ele>
        <time>2022-11-01T09:23:24.000Z</time>
      </trkpt>
      <trkpt lat="42.3838073574006557464599609375" lon="-8.72195899486541748046875">
        <ele>17.3999996185302734375</ele>
        <time>2022-11-01T09:23:25.000Z</time>
      </trkpt>
      <trkpt lat="42.3838073574006557464599609375" lon="-8.72195899486541748046875">
        <ele>17.3999996185302734375</ele>
        <time>2022-11-01T09:23:26.000Z</time>
      </trkpt>
      <trkpt lat="42.3839002288877964019775390625" lon="-8.72203736566007137298583984375">
        <ele>17.6000003814697265625</ele>
        <time>2022-11-01T09:23:27.000Z</time>
      </trkpt>
      <trkpt lat="42.383942641317844390869140625" lon="-8.72207642532885074615478515625">
        <ele>17.799999237060546875</ele>
        <time>2022-11-01T09:23:28.000Z</time>
      </trkpt>
      <trkpt lat="42.38398748449981212615966796875" lon="-8.72211389243602752685546875">
        <ele>17.799999237060546875</ele>
        <time>2022-11-01T09:23:29.000Z</time>
      </trkpt>
      <trkpt lat="42.38403190858662128448486328125" lon="-8.72215203009545803070068359375">
        <ele>18</ele>
        <time>2022-11-01T09:23:30.000Z</time>
      </trkpt>
      <trkpt lat="42.38403190858662128448486328125" lon="-8.72215203009545803070068359375">
        <ele>18.200000762939453125</ele>
        <time>2022-11-01T09:23:31.000Z</time>
      </trkpt>
      <trkpt lat="42.3841206729412078857421875" lon="-8.7222213484346866607666015625">
        <ele>18.3999996185302734375</ele>
        <time>2022-11-01T09:23:32.000Z</time>
      </trkpt>
      <trkpt lat="42.3841661028563976287841796875" lon="-8.72225563041865825653076171875">
        <ele>18.6000003814697265625</ele>
        <time>2022-11-01T09:23:33.000Z</time>
      </trkpt>
      <trkpt lat="42.38420851528644561767578125" lon="-8.72229628264904022216796875">
        <ele>18.799999237060546875</ele>
        <time>2022-11-01T09:23:34.000Z</time>
      </trkpt>
      <trkpt lat="42.3842546157538890838623046875" lon="-8.72234095819294452667236328125">
        <ele>19</ele>
        <time>2022-11-01T09:23:35.000Z</time>
      </trkpt>
      <trkpt lat="42.38430331461131572723388671875" lon="-8.7223852984607219696044921875">
        <ele>19</ele>
        <time>2022-11-01T09:23:36.000Z</time>
      </trkpt>
      <trkpt lat="42.3843486607074737548828125" lon="-8.72243173420429229736328125">
        <ele>19.200000762939453125</ele>
        <time>2022-11-01T09:23:37.000Z</time>
      </trkpt>
      <trkpt lat="42.384393922984600067138671875" lon="-8.72247875668108463287353515625">
        <ele>19.200000762939453125</ele>
        <time>2022-11-01T09:23:38.000Z</time>
      </trkpt>
      <trkpt lat="42.38444496877491474151611328125" lon="-8.72252519242465496063232421875">
        <ele>19.200000762939453125</ele>
        <time>2022-11-01T09:23:39.000Z</time>
      </trkpt>
      <trkpt lat="42.38449509255588054656982421875" lon="-8.72257598675787448883056640625">
        <ele>19.200000762939453125</ele>
        <time>2022-11-01T09:23:40.000Z</time>
      </trkpt>
      <trkpt lat="42.38454085774719715118408203125" lon="-8.72262996621429920196533203125">
        <ele>19.200000762939453125</ele>
        <time>2022-11-01T09:23:41.000Z</time>
      </trkpt>
      <trkpt lat="42.38454085774719715118408203125" lon="-8.72262996621429920196533203125">
        <ele>19.200000762939453125</ele>
        <time>2022-11-01T09:23:42.000Z</time>
      </trkpt>
      <trkpt lat="42.3845955915749073028564453125" lon="-8.72275988571345806121826171875">
        <ele>19.200000762939453125</ele>
        <time>2022-11-01T09:23:43.000Z</time>
      </trkpt>
      <trkpt lat="42.38459785468876361846923828125" lon="-8.722847811877727508544921875">
        <ele>19</ele>
        <time>2022-11-01T09:23:44.000Z</time>
      </trkpt>
      <trkpt lat="42.3845927417278289794921875" lon="-8.7229321338236331939697265625">
        <ele>19</ele>
        <time>2022-11-01T09:23:45.000Z</time>
      </trkpt>
      <trkpt lat="42.38458226434886455535888671875" lon="-8.72303196229040622711181640625">
        <ele>18.799999237060546875</ele>
        <time>2022-11-01T09:23:46.000Z</time>
      </trkpt>
      <trkpt lat="42.3845647461712360382080078125" lon="-8.72314545325934886932373046875">
        <ele>18.799999237060546875</ele>
        <time>2022-11-01T09:23:47.000Z</time>
      </trkpt>
      <trkpt lat="42.38455913029611110687255859375" lon="-8.72323631308972835540771484375">
        <ele>18.6000003814697265625</ele>
        <time>2022-11-01T09:23:48.000Z</time>
      </trkpt>
      <trkpt lat="42.38456097431480884552001953125" lon="-8.723331280052661895751953125">
        <ele>18.6000003814697265625</ele>
        <time>2022-11-01T09:23:49.000Z</time>
      </trkpt>
      <trkpt lat="42.38456097431480884552001953125" lon="-8.723331280052661895751953125">
        <ele>18.3999996185302734375</ele>
        <time>2022-11-01T09:23:50.000Z</time>
      </trkpt>
      <trkpt lat="42.3845758102834224700927734375" lon="-8.72356018982827663421630859375">
        <ele>18.3999996185302734375</ele>
        <time>2022-11-01T09:23:51.000Z</time>
      </trkpt>
      <trkpt lat="42.384553849697113037109375" lon="-8.7237015925347805023193359375">
        <ele>18.200000762939453125</ele>
        <time>2022-11-01T09:23:52.000Z</time>
      </trkpt>
      <trkpt lat="42.38454722799360752105712890625" lon="-8.72386445291340351104736328125">
        <ele>18</ele>
        <time>2022-11-01T09:23:53.000Z</time>
      </trkpt>
      <trkpt lat="42.38454722799360752105712890625" lon="-8.72386445291340351104736328125">
        <ele>17.799999237060546875</ele>
        <time>2022-11-01T09:23:54.000Z</time>
      </trkpt>
      <trkpt lat="42.38459684886038303375244140625" lon="-8.724143318831920623779296875">
        <ele>16.799999237060546875</ele>
        <time>2022-11-01T09:23:55.000Z</time>
      </trkpt>
      <trkpt lat="42.3846423625946044921875" lon="-8.724294193089008331298828125">
        <ele>16.6000003814697265625</ele>
        <time>2022-11-01T09:23:56.000Z</time>
      </trkpt>
      <trkpt lat="42.384683601558208465576171875" lon="-8.724416904151439666748046875">
        <ele>16.200000762939453125</ele>
        <time>2022-11-01T09:23:57.000Z</time>
      </trkpt>
      <trkpt lat="42.3847414366900920867919921875" lon="-8.7245206721127033233642578125">
        <ele>16</ele>
        <time>2022-11-01T09:23:58.000Z</time>
      </trkpt>
      <trkpt lat="42.384792231023311614990234375" lon="-8.72460658662021160125732421875">
        <ele>15</ele>
        <time>2022-11-01T09:23:59.000Z</time>
      </trkpt>
      <trkpt lat="42.3848527483642101287841796875" lon="-8.72471052221953868865966796875">
        <ele>14.6000003814697265625</ele>
        <time>2022-11-01T09:24:00.000Z</time>
      </trkpt>
      <trkpt lat="42.38491267897188663482666015625" lon="-8.72482149861752986907958984375">
        <ele>13.80000019073486328125</ele>
        <time>2022-11-01T09:24:01.000Z</time>
      </trkpt>
      <trkpt lat="42.38493229262530803680419921875" lon="-8.72492224909365177154541015625">
        <ele>13.3999996185302734375</ele>
        <time>2022-11-01T09:24:02.000Z</time>
      </trkpt>
      <trkpt lat="42.38495509140193462371826171875" lon="-8.72501176781952381134033203125">
        <ele>12.3999996185302734375</ele>
        <time>2022-11-01T09:24:03.000Z</time>
      </trkpt>
      <trkpt lat="42.38496548496186733245849609375" lon="-8.72508569620549678802490234375">
        <ele>11.19999980926513671875</ele>
        <time>2022-11-01T09:24:04.000Z</time>
      </trkpt>
      <trkpt lat="42.38495391793549060821533203125" lon="-8.72518837451934814453125">
        <ele>10.3999996185302734375</ele>
        <time>2022-11-01T09:24:05.000Z</time>
      </trkpt>
      <trkpt lat="42.3849114216864109039306640625" lon="-8.72529423795640468597412109375">
        <ele>9.3999996185302734375</ele>
        <time>2022-11-01T09:24:06.000Z</time>
      </trkpt>
      <trkpt lat="42.38485299982130527496337890625" lon="-8.7253640592098236083984375">
        <ele>9.19999980926513671875</ele>
        <time>2022-11-01T09:24:07.000Z</time>
      </trkpt>
      <trkpt lat="42.38478644751012325286865234375" lon="-8.7254068069159984588623046875">
        <ele>8.80000019073486328125</ele>
        <time>2022-11-01T09:24:08.000Z</time>
      </trkpt>
      <trkpt lat="42.384717464447021484375" lon="-8.725430108606815338134765625">
        <ele>8.80000019073486328125</ele>
        <time>2022-11-01T09:24:09.000Z</time>
      </trkpt>
      <trkpt lat="42.38465242087841033935546875" lon="-8.7254564277827739715576171875">
        <ele>8.6000003814697265625</ele>
        <time>2022-11-01T09:24:10.000Z</time>
      </trkpt>
      <trkpt lat="42.3845908977091312408447265625" lon="-8.72547595761716365814208984375">
        <ele>8.6000003814697265625</ele>
        <time>2022-11-01T09:24:11.000Z</time>
      </trkpt>
      <trkpt lat="42.3845328949391841888427734375" lon="-8.72548601590096950531005859375">
        <ele>8.6000003814697265625</ele>
        <time>2022-11-01T09:24:12.000Z</time>
      </trkpt>
      <trkpt lat="42.3844789154827594757080078125" lon="-8.7255000136792659759521484375">
        <ele>8.6000003814697265625</ele>
        <time>2022-11-01T09:24:13.000Z</time>
      </trkpt>
      <trkpt lat="42.384426780045032501220703125" lon="-8.7255197949707508087158203125">
        <ele>8.6000003814697265625</ele>
        <time>2022-11-01T09:24:14.000Z</time>
      </trkpt>
      <trkpt lat="42.3843749798834323883056640625" lon="-8.72553639113903045654296875">
        <ele>8.80000019073486328125</ele>
        <time>2022-11-01T09:24:15.000Z</time>
      </trkpt>
      <trkpt lat="42.3843164741992950439453125" lon="-8.72555374167859554290771484375">
        <ele>9.19999980926513671875</ele>
        <time>2022-11-01T09:24:16.000Z</time>
      </trkpt>
      <trkpt lat="42.3843164741992950439453125" lon="-8.72555374167859554290771484375">
        <ele>10</ele>
        <time>2022-11-01T09:24:17.000Z</time>
      </trkpt>
      <trkpt lat="42.38421580754220485687255859375" lon="-8.72561124153435230255126953125">
        <ele>10.3999996185302734375</ele>
        <time>2022-11-01T09:24:18.000Z</time>
      </trkpt>
      <trkpt lat="42.38421580754220485687255859375" lon="-8.72561124153435230255126953125">
        <ele>11</ele>
        <time>2022-11-01T09:24:19.000Z</time>
      </trkpt>
      <trkpt lat="42.38409628160297870635986328125" lon="-8.72564041055738925933837890625">
        <ele>11.3999996185302734375</ele>
        <time>2022-11-01T09:24:20.000Z</time>
      </trkpt>
      <trkpt lat="42.38404146395623683929443359375" lon="-8.7256510555744171142578125">
        <ele>12.19999980926513671875</ele>
        <time>2022-11-01T09:24:21.000Z</time>
      </trkpt>
      <trkpt lat="42.383988909423351287841796875" lon="-8.72566186822950839996337890625">
        <ele>12.3999996185302734375</ele>
        <time>2022-11-01T09:24:22.000Z</time>
      </trkpt>
      <trkpt lat="42.383988909423351287841796875" lon="-8.72566186822950839996337890625">
        <ele>12.80000019073486328125</ele>
        <time>2022-11-01T09:24:23.000Z</time>
      </trkpt>
      <trkpt lat="42.38390249200165271759033203125" lon="-8.72571199201047420501708984375">
        <ele>13</ele>
        <time>2022-11-01T09:24:24.000Z</time>
      </trkpt>
      <trkpt lat="42.38386443816125392913818359375" lon="-8.72571769170463085174560546875">
        <ele>13.3999996185302734375</ele>
        <time>2022-11-01T09:24:25.000Z</time>
      </trkpt>
      <trkpt lat="42.38386443816125392913818359375" lon="-8.72571769170463085174560546875">
        <ele>13.80000019073486328125</ele>
        <time>2022-11-01T09:24:26.000Z</time>
      </trkpt>
      <trkpt lat="42.38376184366643428802490234375" lon="-8.72573127038776874542236328125">
        <ele>14</ele>
        <time>2022-11-01T09:24:27.000Z</time>
      </trkpt>
      <trkpt lat="42.38370501436293125152587890625" lon="-8.72573160566389560699462890625">
        <ele>14.3999996185302734375</ele>
        <time>2022-11-01T09:24:28.000Z</time>
      </trkpt>
      <trkpt lat="42.3836625181138515472412109375" lon="-8.725759685039520263671875">
        <ele>14.80000019073486328125</ele>
        <time>2022-11-01T09:24:29.000Z</time>
      </trkpt>
      <trkpt lat="42.3836625181138515472412109375" lon="-8.725759685039520263671875">
        <ele>15.3999996185302734375</ele>
        <time>2022-11-01T09:24:30.000Z</time>
      </trkpt>
      <trkpt lat="42.383551709353923797607421875" lon="-8.7257434241473674774169921875">
        <ele>15.6000003814697265625</ele>
        <time>2022-11-01T09:24:31.000Z</time>
      </trkpt>
      <trkpt lat="42.38350636325776576995849609375" lon="-8.72574116103351116180419921875">
        <ele>16</ele>
        <time>2022-11-01T09:24:32.000Z</time>
      </trkpt>
      <trkpt lat="42.3834496177732944488525390625" lon="-8.7257383950054645538330078125">
        <ele>16</ele>
        <time>2022-11-01T09:24:33.000Z</time>
      </trkpt>
      <trkpt lat="42.3834030143916606903076171875" lon="-8.72574384324252605438232421875">
        <ele>16.3999996185302734375</ele>
        <time>2022-11-01T09:24:34.000Z</time>
      </trkpt>
      <trkpt lat="42.3834030143916606903076171875" lon="-8.72574384324252605438232421875">
        <ele>16.6000003814697265625</ele>
        <time>2022-11-01T09:24:35.000Z</time>
      </trkpt>
      <trkpt lat="42.383312992751598358154296875" lon="-8.72575205750763416290283203125">
        <ele>17</ele>
        <time>2022-11-01T09:24:36.000Z</time>
      </trkpt>
      <trkpt lat="42.38326840102672576904296875" lon="-8.72573378495872020721435546875">
        <ele>17.3999996185302734375</ele>
        <time>2022-11-01T09:24:37.000Z</time>
      </trkpt>
      <trkpt lat="42.38322171382606029510498046875" lon="-8.7257135845720767974853515625">
        <ele>17.6000003814697265625</ele>
        <time>2022-11-01T09:24:38.000Z</time>
      </trkpt>
      <trkpt lat="42.38317318260669708251953125" lon="-8.72569573111832141876220703125">
        <ele>18</ele>
        <time>2022-11-01T09:24:39.000Z</time>
      </trkpt>
      <trkpt lat="42.3831327818334102630615234375" lon="-8.72569204308092594146728515625">
        <ele>18.200000762939453125</ele>
        <time>2022-11-01T09:24:40.000Z</time>
      </trkpt>
      <trkpt lat="42.3830987513065338134765625" lon="-8.72567988932132720947265625">
        <ele>18.6000003814697265625</ele>
        <time>2022-11-01T09:24:41.000Z</time>
      </trkpt>
      <trkpt lat="42.3830596916377544403076171875" lon="-8.72566740028560161590576171875">
        <ele>19</ele>
        <time>2022-11-01T09:24:42.000Z</time>
      </trkpt>
      <trkpt lat="42.38302038051187992095947265625" lon="-8.7256456911563873291015625">
        <ele>19.3999996185302734375</ele>
        <time>2022-11-01T09:24:43.000Z</time>
      </trkpt>
      <trkpt lat="42.382975704967975616455078125" lon="-8.7256156839430332183837890625">
        <ele>19.3999996185302734375</ele>
        <time>2022-11-01T09:24:44.000Z</time>
      </trkpt>
      <trkpt lat="42.382932119071483612060546875" lon="-8.725588023662567138671875">
        <ele>19.6000003814697265625</ele>
        <time>2022-11-01T09:24:45.000Z</time>
      </trkpt>
      <trkpt lat="42.38290118984878063201904296875" lon="-8.7255647219717502593994140625">
        <ele>19.6000003814697265625</ele>
        <time>2022-11-01T09:24:46.000Z</time>
      </trkpt>
      <trkpt lat="42.38287973217666149139404296875" lon="-8.72554334811866283416748046875">
        <ele>20.200000762939453125</ele>
        <time>2022-11-01T09:24:47.000Z</time>
      </trkpt>
      <trkpt lat="42.3828558437526226043701171875" lon="-8.725510574877262115478515625">
        <ele>20.6000003814697265625</ele>
        <time>2022-11-01T09:24:48.000Z</time>
      </trkpt>
      <trkpt lat="42.3828184604644775390625" lon="-8.7254705093801021575927734375">
        <ele>20.799999237060546875</ele>
        <time>2022-11-01T09:24:49.000Z</time>
      </trkpt>
      <trkpt lat="42.38277462311089038848876953125" lon="-8.72544310055673122406005859375">
        <ele>21.200000762939453125</ele>
        <time>2022-11-01T09:24:50.000Z</time>
      </trkpt>
      <trkpt lat="42.38277462311089038848876953125" lon="-8.72544310055673122406005859375">
        <ele>21.3999996185302734375</ele>
        <time>2022-11-01T09:24:51.000Z</time>
      </trkpt>
      <trkpt lat="42.38272198475897312164306640625" lon="-8.72537755407392978668212890625">
        <ele>21.799999237060546875</ele>
        <time>2022-11-01T09:24:52.000Z</time>
      </trkpt>
      <trkpt lat="42.38269843161106109619140625" lon="-8.72534603811800479888916015625">
        <ele>21.799999237060546875</ele>
        <time>2022-11-01T09:24:53.000Z</time>
      </trkpt>
      <trkpt lat="42.3826749622821807861328125" lon="-8.72531385160982608795166015625">
        <ele>22.200000762939453125</ele>
        <time>2022-11-01T09:24:54.000Z</time>
      </trkpt>
      <trkpt lat="42.3826508224010467529296875" lon="-8.72527361847460269927978515625">
        <ele>22.3999996185302734375</ele>
        <time>2022-11-01T09:24:55.000Z</time>
      </trkpt>
      <trkpt lat="42.38262626342475414276123046875" lon="-8.72523338533937931060791015625">
        <ele>22.799999237060546875</ele>
        <time>2022-11-01T09:24:56.000Z</time>
      </trkpt>
      <trkpt lat="42.3825983516871929168701171875" lon="-8.7251915596425533294677734375">
        <ele>23</ele>
        <time>2022-11-01T09:24:57.000Z</time>
      </trkpt>
      <trkpt lat="42.38257915712893009185791015625" lon="-8.72516482137143611907958984375">
        <ele>23.200000762939453125</ele>
        <time>2022-11-01T09:24:58.000Z</time>
      </trkpt>
      <trkpt lat="42.38254688680171966552734375" lon="-8.7251211516559123992919921875">
        <ele>23.6000003814697265625</ele>
        <time>2022-11-01T09:24:59.000Z</time>
      </trkpt>
      <trkpt lat="42.38251629285514354705810546875" lon="-8.72508108615875244140625">
        <ele>23.799999237060546875</ele>
        <time>2022-11-01T09:25:00.000Z</time>
      </trkpt>
      <trkpt lat="42.38248645327985286712646484375" lon="-8.7250624783337116241455078125">
        <ele>24</ele>
        <time>2022-11-01T09:25:01.000Z</time>
      </trkpt>
      <trkpt lat="42.3824528418481349945068359375" lon="-8.72501738369464874267578125">
        <ele>24.200000762939453125</ele>
        <time>2022-11-01T09:25:02.000Z</time>
      </trkpt>
      <trkpt lat="42.3824276961386203765869140625" lon="-8.72498494572937488555908203125">
        <ele>24.3999996185302734375</ele>
        <time>2022-11-01T09:25:03.000Z</time>
      </trkpt>
      <trkpt lat="42.3823951743543148040771484375" lon="-8.724945299327373504638671875">
        <ele>24.3999996185302734375</ele>
        <time>2022-11-01T09:25:04.000Z</time>
      </trkpt>
      <trkpt lat="42.3823542706668376922607421875" lon="-8.724906742572784423828125">
        <ele>24.6000003814697265625</ele>
        <time>2022-11-01T09:25:05.000Z</time>
      </trkpt>
      <trkpt lat="42.38232015632092952728271484375" lon="-8.7248824350535869598388671875">
        <ele>24.799999237060546875</ele>
        <time>2022-11-01T09:25:06.000Z</time>
      </trkpt>
      <trkpt lat="42.3822914063930511474609375" lon="-8.7248636595904827117919921875">
        <ele>24.799999237060546875</ele>
        <time>2022-11-01T09:25:07.000Z</time>
      </trkpt>
      <trkpt lat="42.38226265646517276763916015625" lon="-8.724852092564105987548828125">
        <ele>25.200000762939453125</ele>
        <time>2022-11-01T09:25:08.000Z</time>
      </trkpt>
      <trkpt lat="42.38222493790090084075927734375" lon="-8.72484480030834674835205078125">
        <ele>25.3999996185302734375</ele>
        <time>2022-11-01T09:25:09.000Z</time>
      </trkpt>
      <trkpt lat="42.382185123860836029052734375" lon="-8.72484211809933185577392578125">
        <ele>25.799999237060546875</ele>
        <time>2022-11-01T09:25:10.000Z</time>
      </trkpt>
      <trkpt lat="42.38213676027953624725341796875" lon="-8.724842704832553863525390625">
        <ele>26</ele>
        <time>2022-11-01T09:25:11.000Z</time>
      </trkpt>
      <trkpt lat="42.38209451548755168914794921875" lon="-8.72484530322253704071044921875">
        <ele>26.3999996185302734375</ele>
        <time>2022-11-01T09:25:12.000Z</time>
      </trkpt>
      <trkpt lat="42.38205579109489917755126953125" lon="-8.724847733974456787109375">
        <ele>26.6000003814697265625</ele>
        <time>2022-11-01T09:25:13.000Z</time>
      </trkpt>
      <trkpt lat="42.38200415857136249542236328125" lon="-8.72485334984958171844482421875">
        <ele>26.799999237060546875</ele>
        <time>2022-11-01T09:25:14.000Z</time>
      </trkpt>
      <trkpt lat="42.38195537589490413665771484375" lon="-8.7248576246201992034912109375">
        <ele>27</ele>
        <time>2022-11-01T09:25:15.000Z</time>
      </trkpt>
      <trkpt lat="42.381907515227794647216796875" lon="-8.724863827228546142578125">
        <ele>27.200000762939453125</ele>
        <time>2022-11-01T09:25:16.000Z</time>
      </trkpt>
      <trkpt lat="42.38184724934399127960205078125" lon="-8.7248737178742885589599609375">
        <ele>27.200000762939453125</ele>
        <time>2022-11-01T09:25:17.000Z</time>
      </trkpt>
      <trkpt lat="42.38181238062679767608642578125" lon="-8.724885284900665283203125">
        <ele>27.3999996185302734375</ele>
        <time>2022-11-01T09:25:18.000Z</time>
      </trkpt>
      <trkpt lat="42.38176242448389530181884765625" lon="-8.72490062378346920013427734375">
        <ele>27.6000003814697265625</ele>
        <time>2022-11-01T09:25:19.000Z</time>
      </trkpt>
      <trkpt lat="42.38176242448389530181884765625" lon="-8.72490062378346920013427734375">
        <ele>27.6000003814697265625</ele>
        <time>2022-11-01T09:25:20.000Z</time>
      </trkpt>
      <trkpt lat="42.38170743919909000396728515625" lon="-8.72491386719048023223876953125">
        <ele>27.6000003814697265625</ele>
        <time>2022-11-01T09:25:21.000Z</time>
      </trkpt>
      <trkpt lat="42.38157995045185089111328125" lon="-8.72495309449732303619384765625">
        <ele>27.6000003814697265625</ele>
        <time>2022-11-01T09:25:22.000Z</time>
      </trkpt>
      <trkpt lat="42.3815221153199672698974609375" lon="-8.7249509990215301513671875">
        <ele>27.799999237060546875</ele>
        <time>2022-11-01T09:25:23.000Z</time>
      </trkpt>
      <trkpt lat="42.381454892456531524658203125" lon="-8.72495057992637157440185546875">
        <ele>28</ele>
        <time>2022-11-01T09:25:24.000Z</time>
      </trkpt>
      <trkpt lat="42.381454892456531524658203125" lon="-8.72495057992637157440185546875">
        <ele>28</ele>
        <time>2022-11-01T09:25:25.000Z</time>
      </trkpt>
      <trkpt lat="42.3813115619122982025146484375" lon="-8.72496533207595348358154296875">
        <ele>28</ele>
        <time>2022-11-01T09:25:26.000Z</time>
      </trkpt>
      <trkpt lat="42.38124576397240161895751953125" lon="-8.72498595155775547027587890625">
        <ele>28.200000762939453125</ele>
        <time>2022-11-01T09:25:27.000Z</time>
      </trkpt>
      <trkpt lat="42.38119010813534259796142578125" lon="-8.72500187717378139495849609375">
        <ele>28.200000762939453125</ele>
        <time>2022-11-01T09:25:28.000Z</time>
      </trkpt>
      <trkpt lat="42.38113026134669780731201171875" lon="-8.72503884136676788330078125">
        <ele>28.200000762939453125</ele>
        <time>2022-11-01T09:25:29.000Z</time>
      </trkpt>
      <trkpt lat="42.38106739707291126251220703125" lon="-8.72507236897945404052734375">
        <ele>28.200000762939453125</ele>
        <time>2022-11-01T09:25:30.000Z</time>
      </trkpt>
      <trkpt lat="42.38099648617208003997802734375" lon="-8.72511687688529491424560546875">
        <ele>28.200000762939453125</ele>
        <time>2022-11-01T09:25:31.000Z</time>
      </trkpt>
      <trkpt lat="42.38093756139278411865234375" lon="-8.72515426017343997955322265625">
        <ele>28.200000762939453125</ele>
        <time>2022-11-01T09:25:32.000Z</time>
      </trkpt>
      <trkpt lat="42.3808934725821018218994140625" lon="-8.7251912243664264678955078125">
        <ele>28.200000762939453125</ele>
        <time>2022-11-01T09:25:33.000Z</time>
      </trkpt>
      <trkpt lat="42.38083924166858196258544921875" lon="-8.7252406775951385498046875">
        <ele>28</ele>
        <time>2022-11-01T09:25:34.000Z</time>
      </trkpt>
      <trkpt lat="42.3807881958782672882080078125" lon="-8.72529574669897556304931640625">
        <ele>28</ele>
        <time>2022-11-01T09:25:35.000Z</time>
      </trkpt>
      <trkpt lat="42.38074268214404582977294921875" lon="-8.725355006754398345947265625">
        <ele>28</ele>
        <time>2022-11-01T09:25:36.000Z</time>
      </trkpt>
      <trkpt lat="42.38070412538945674896240234375" lon="-8.72542080469429492950439453125">
        <ele>28</ele>
        <time>2022-11-01T09:25:37.000Z</time>
      </trkpt>
      <trkpt lat="42.3806681670248508453369140625" lon="-8.72548886574804782867431640625">
        <ele>28.200000762939453125</ele>
        <time>2022-11-01T09:25:38.000Z</time>
      </trkpt>
      <trkpt lat="42.3806286044418811798095703125" lon="-8.72557033784687519073486328125">
        <ele>28.200000762939453125</ele>
        <time>2022-11-01T09:25:39.000Z</time>
      </trkpt>
      <trkpt lat="42.38060404546558856964111328125" lon="-8.72562515549361705780029296875">
        <ele>28.200000762939453125</ele>
        <time>2022-11-01T09:25:40.000Z</time>
      </trkpt>
      <trkpt lat="42.38060404546558856964111328125" lon="-8.72562515549361705780029296875">
        <ele>28.3999996185302734375</ele>
        <time>2022-11-01T09:25:41.000Z</time>
      </trkpt>
      <trkpt lat="42.38053749315440654754638671875" lon="-8.7257583439350128173828125">
        <ele>28.3999996185302734375</ele>
        <time>2022-11-01T09:25:42.000Z</time>
      </trkpt>
      <trkpt lat="42.38050346262753009796142578125" lon="-8.7258255667984485626220703125">
        <ele>28.3999996185302734375</ele>
        <time>2022-11-01T09:25:43.000Z</time>
      </trkpt>
      <trkpt lat="42.3804693482816219329833984375" lon="-8.7258926220238208770751953125">
        <ele>28.6000003814697265625</ele>
        <time>2022-11-01T09:25:44.000Z</time>
      </trkpt>
      <trkpt lat="42.38043674267828464508056640625" lon="-8.7259606830775737762451171875">
        <ele>28.799999237060546875</ele>
        <time>2022-11-01T09:25:45.000Z</time>
      </trkpt>
      <trkpt lat="42.3804029636085033416748046875" lon="-8.7260240502655506134033203125">
        <ele>28.799999237060546875</ele>
        <time>2022-11-01T09:25:46.000Z</time>
      </trkpt>
      <trkpt lat="42.3803682625293731689453125" lon="-8.72608649544417858123779296875">
        <ele>29.200000762939453125</ele>
        <time>2022-11-01T09:25:47.000Z</time>
      </trkpt>
      <trkpt lat="42.38032861612737178802490234375" lon="-8.7261467613279819488525390625">
        <ele>29.200000762939453125</ele>
        <time>2022-11-01T09:25:48.000Z</time>
      </trkpt>
      <trkpt lat="42.38028285093605518341064453125" lon="-8.72620635665953159332275390625">
        <ele>29.3999996185302734375</ele>
        <time>2022-11-01T09:25:49.000Z</time>
      </trkpt>
      <trkpt lat="42.38023373298346996307373046875" lon="-8.72625924646854400634765625">
        <ele>29.6000003814697265625</ele>
        <time>2022-11-01T09:25:50.000Z</time>
      </trkpt>
      <trkpt lat="42.38018142990767955780029296875" lon="-8.72630408965051174163818359375">
        <ele>29.6000003814697265625</ele>
        <time>2022-11-01T09:25:51.000Z</time>
      </trkpt>
      <trkpt lat="42.38011001609265804290771484375" lon="-8.72635806910693645477294921875">
        <ele>29.6000003814697265625</ele>
        <time>2022-11-01T09:25:52.000Z</time>
      </trkpt>
      <trkpt lat="42.38005687482655048370361328125" lon="-8.72639075852930545806884765625">
        <ele>29.6000003814697265625</ele>
        <time>2022-11-01T09:25:53.000Z</time>
      </trkpt>
      <trkpt lat="42.38005687482655048370361328125" lon="-8.72639075852930545806884765625">
        <ele>29.6000003814697265625</ele>
        <time>2022-11-01T09:25:54.000Z</time>
      </trkpt>
      <trkpt lat="42.37999032251536846160888671875" lon="-8.72642956674098968505859375">
        <ele>29.6000003814697265625</ele>
        <time>2022-11-01T09:25:55.000Z</time>
      </trkpt>
      <trkpt lat="42.379849590361118316650390625" lon="-8.72652352787554264068603515625">
        <ele>29.6000003814697265625</ele>
        <time>2022-11-01T09:25:56.000Z</time>
      </trkpt>
      <trkpt lat="42.3797853849828243255615234375" lon="-8.72656962834298610687255859375">
        <ele>29.6000003814697265625</ele>
        <time>2022-11-01T09:25:57.000Z</time>
      </trkpt>
      <trkpt lat="42.37973199225962162017822265625" lon="-8.72660432942211627960205078125">
        <ele>29.200000762939453125</ele>
        <time>2022-11-01T09:25:58.000Z</time>
      </trkpt>
      <trkpt lat="42.3796452395617961883544921875" lon="-8.7266568839550018310546875">
        <ele>28.799999237060546875</ele>
        <time>2022-11-01T09:25:59.000Z</time>
      </trkpt>
      <trkpt lat="42.3796452395617961883544921875" lon="-8.7266568839550018310546875">
        <ele>28.200000762939453125</ele>
        <time>2022-11-01T09:26:00.000Z</time>
      </trkpt>
      <trkpt lat="42.37948237918317317962646484375" lon="-8.72672586701810359954833984375">
        <ele>27.799999237060546875</ele>
        <time>2022-11-01T09:26:01.000Z</time>
      </trkpt>
      <trkpt lat="42.3793954588472843170166015625" lon="-8.72675277292728424072265625">
        <ele>27.6000003814697265625</ele>
        <time>2022-11-01T09:26:02.000Z</time>
      </trkpt>
      <trkpt lat="42.37930409610271453857421875" lon="-8.7267740629613399505615234375">
        <ele>27</ele>
        <time>2022-11-01T09:26:03.000Z</time>
      </trkpt>
      <trkpt lat="42.379213906824588775634765625" lon="-8.72679191641509532928466796875">
        <ele>26.799999237060546875</ele>
        <time>2022-11-01T09:26:04.000Z</time>
      </trkpt>
      <trkpt lat="42.379213906824588775634765625" lon="-8.72679191641509532928466796875">
        <ele>26.3999996185302734375</ele>
        <time>2022-11-01T09:26:05.000Z</time>
      </trkpt>
      <trkpt lat="42.37904065288603305816650390625" lon="-8.72683516703546047210693359375">
        <ele>25.799999237060546875</ele>
        <time>2022-11-01T09:26:06.000Z</time>
      </trkpt>
      <trkpt lat="42.3789525590837001800537109375" lon="-8.726855032145977020263671875">
        <ele>25.200000762939453125</ele>
        <time>2022-11-01T09:26:07.000Z</time>
      </trkpt>
      <trkpt lat="42.378862537443637847900390625" lon="-8.7268749810755252838134765625">
        <ele>25</ele>
        <time>2022-11-01T09:26:08.000Z</time>
      </trkpt>
      <trkpt lat="42.3787876032292842864990234375" lon="-8.72688797302544116973876953125">
        <ele>24.6000003814697265625</ele>
        <time>2022-11-01T09:26:09.000Z</time>
      </trkpt>
      <trkpt lat="42.3787876032292842864990234375" lon="-8.72688797302544116973876953125">
        <ele>24.6000003814697265625</ele>
        <time>2022-11-01T09:26:10.000Z</time>
      </trkpt>
      <trkpt lat="42.37857076339423656463623046875" lon="-8.7269105203449726104736328125">
        <ele>24.200000762939453125</ele>
        <time>2022-11-01T09:26:11.000Z</time>
      </trkpt>
      <trkpt lat="42.3784744553267955780029296875" lon="-8.72691865079104900360107421875">
        <ele>23.6000003814697265625</ele>
        <time>2022-11-01T09:26:12.000Z</time>
      </trkpt>
      <trkpt lat="42.37837948836386203765869140625" lon="-8.72692837379872798919677734375">
        <ele>23.3999996185302734375</ele>
        <time>2022-11-01T09:26:13.000Z</time>
      </trkpt>
      <trkpt lat="42.37829960882663726806640625" lon="-8.72693306766450405120849609375">
        <ele>23</ele>
        <time>2022-11-01T09:26:14.000Z</time>
      </trkpt>
      <trkpt lat="42.37829960882663726806640625" lon="-8.72693306766450405120849609375">
        <ele>22.799999237060546875</ele>
        <time>2022-11-01T09:26:15.000Z</time>
      </trkpt>
      <trkpt lat="42.37810472957789897918701171875" lon="-8.72691965661942958831787109375">
        <ele>22.3999996185302734375</ele>
        <time>2022-11-01T09:26:16.000Z</time>
      </trkpt>
      <trkpt lat="42.378014288842678070068359375" lon="-8.72689601965248584747314453125">
        <ele>22.200000762939453125</ele>
        <time>2022-11-01T09:26:17.000Z</time>
      </trkpt>
      <trkpt lat="42.377933152019977569580078125" lon="-8.7268642522394657135009765625">
        <ele>22</ele>
        <time>2022-11-01T09:26:18.000Z</time>
      </trkpt>
      <trkpt lat="42.37786115147173404693603515625" lon="-8.726827204227447509765625">
        <ele>21.799999237060546875</ele>
        <time>2022-11-01T09:26:19.000Z</time>
      </trkpt>
      <trkpt lat="42.37779401242733001708984375" lon="-8.7267909944057464599609375">
        <ele>21.3999996185302734375</ele>
        <time>2022-11-01T09:26:20.000Z</time>
      </trkpt>
      <trkpt lat="42.3777289688587188720703125" lon="-8.72675553895533084869384765625">
        <ele>21.3999996185302734375</ele>
        <time>2022-11-01T09:26:21.000Z</time>
      </trkpt>
      <trkpt lat="42.37765319645404815673828125" lon="-8.72671362943947315216064453125">
        <ele>21.3999996185302734375</ele>
        <time>2022-11-01T09:26:22.000Z</time>
      </trkpt>
      <trkpt lat="42.37759443931281566619873046875" lon="-8.72668311931192874908447265625">
        <ele>21.6000003814697265625</ele>
        <time>2022-11-01T09:26:23.000Z</time>
      </trkpt>
      <trkpt lat="42.37754523754119873046875" lon="-8.72666685841977596282958984375">
        <ele>21.6000003814697265625</ele>
        <time>2022-11-01T09:26:24.000Z</time>
      </trkpt>
      <trkpt lat="42.3774790205061435699462890625" lon="-8.7266573868691921234130859375">
        <ele>21.799999237060546875</ele>
        <time>2022-11-01T09:26:25.000Z</time>
      </trkpt>
      <trkpt lat="42.3774097859859466552734375" lon="-8.72665763832628726959228515625">
        <ele>21.799999237060546875</ele>
        <time>2022-11-01T09:26:26.000Z</time>
      </trkpt>
      <trkpt lat="42.37732387147843837738037109375" lon="-8.72666954062879085540771484375">
        <ele>22</ele>
        <time>2022-11-01T09:26:27.000Z</time>
      </trkpt>
      <trkpt lat="42.3772506974637508392333984375" lon="-8.72669418342411518096923828125">
        <ele>22</ele>
        <time>2022-11-01T09:26:28.000Z</time>
      </trkpt>
      <trkpt lat="42.377193532884120941162109375" lon="-8.7267190776765346527099609375">
        <ele>22</ele>
        <time>2022-11-01T09:26:29.000Z</time>
      </trkpt>
      <trkpt lat="42.377193532884120941162109375" lon="-8.7267190776765346527099609375">
        <ele>22</ele>
        <time>2022-11-01T09:26:30.000Z</time>
      </trkpt>
      <trkpt lat="42.37705514766275882720947265625" lon="-8.726826198399066925048828125">
        <ele>22.200000762939453125</ele>
        <time>2022-11-01T09:26:31.000Z</time>
      </trkpt>
      <trkpt lat="42.37698071636259555816650390625" lon="-8.72691370546817779541015625">
        <ele>22.200000762939453125</ele>
        <time>2022-11-01T09:26:32.000Z</time>
      </trkpt>
      <trkpt lat="42.37693662755191326141357421875" lon="-8.72698201797902584075927734375">
        <ele>21.799999237060546875</ele>
        <time>2022-11-01T09:26:33.000Z</time>
      </trkpt>
      <trkpt lat="42.3768855817615985870361328125" lon="-8.72707254253327846527099609375">
        <ele>21.3999996185302734375</ele>
        <time>2022-11-01T09:26:34.000Z</time>
      </trkpt>
      <trkpt lat="42.3768855817615985870361328125" lon="-8.72707254253327846527099609375">
        <ele>21.200000762939453125</ele>
        <time>2022-11-01T09:26:35.000Z</time>
      </trkpt>
      <trkpt lat="42.3767957277595996856689453125" lon="-8.72727169655263423919677734375">
        <ele>20.799999237060546875</ele>
        <time>2022-11-01T09:26:36.000Z</time>
      </trkpt>
      <trkpt lat="42.37674535252153873443603515625" lon="-8.7273882888257503509521484375">
        <ele>20.6000003814697265625</ele>
        <time>2022-11-01T09:26:37.000Z</time>
      </trkpt>
      <trkpt lat="42.37671266309916973114013671875" lon="-8.72746682725846767425537109375">
        <ele>20.3999996185302734375</ele>
        <time>2022-11-01T09:26:38.000Z</time>
      </trkpt>
      <trkpt lat="42.37667209468781948089599609375" lon="-8.7275619618594646453857421875">
        <ele>20.200000762939453125</ele>
        <time>2022-11-01T09:26:39.000Z</time>
      </trkpt>
      <trkpt lat="42.37667209468781948089599609375" lon="-8.7275619618594646453857421875">
        <ele>20</ele>
        <time>2022-11-01T09:26:40.000Z</time>
      </trkpt>
      <trkpt lat="42.3765814863145351409912109375" lon="-8.72777427546679973602294921875">
        <ele>19.799999237060546875</ele>
        <time>2022-11-01T09:26:41.000Z</time>
      </trkpt>
      <trkpt lat="42.376541756093502044677734375" lon="-8.7278704158961772918701171875">
        <ele>19.3999996185302734375</ele>
        <time>2022-11-01T09:26:42.000Z</time>
      </trkpt>
      <trkpt lat="42.3765100724995136260986328125" lon="-8.72794761322438716888427734375">
        <ele>19.3999996185302734375</ele>
        <time>2022-11-01T09:26:43.000Z</time>
      </trkpt>
      <trkpt lat="42.37646766006946563720703125" lon="-8.72804484330117702484130859375">
        <ele>19.200000762939453125</ele>
        <time>2022-11-01T09:26:44.000Z</time>
      </trkpt>
      <trkpt lat="42.3764240741729736328125" lon="-8.72814542613923549652099609375">
        <ele>19</ele>
        <time>2022-11-01T09:26:45.000Z</time>
      </trkpt>
      <trkpt lat="42.376367747783660888671875" lon="-8.72826579026877880096435546875">
        <ele>18.799999237060546875</ele>
        <time>2022-11-01T09:26:46.000Z</time>
      </trkpt>
      <trkpt lat="42.37632818520069122314453125" lon="-8.72835715301334857940673828125">
        <ele>18.799999237060546875</ele>
        <time>2022-11-01T09:26:47.000Z</time>
      </trkpt>
      <trkpt lat="42.3762763850390911102294921875" lon="-8.72847399674355983734130859375">
        <ele>18.6000003814697265625</ele>
        <time>2022-11-01T09:26:48.000Z</time>
      </trkpt>
      <trkpt lat="42.37621955573558807373046875" lon="-8.7285865657031536102294921875">
        <ele>18.3999996185302734375</ele>
        <time>2022-11-01T09:26:49.000Z</time>
      </trkpt>
      <trkpt lat="42.37615392543375492095947265625" lon="-8.7286915071308612823486328125">
        <ele>18.3999996185302734375</ele>
        <time>2022-11-01T09:26:50.000Z</time>
      </trkpt>
      <trkpt lat="42.37605837173759937286376953125" lon="-8.7287984602153301239013671875">
        <ele>17.3999996185302734375</ele>
        <time>2022-11-01T09:26:51.000Z</time>
      </trkpt>
      <trkpt lat="42.37596399150788784027099609375" lon="-8.7288715504109859466552734375">
        <ele>17</ele>
        <time>2022-11-01T09:26:52.000Z</time>
      </trkpt>
      <trkpt lat="42.3758636601269245147705078125" lon="-8.72893097810447216033935546875">
        <ele>16.200000762939453125</ele>
        <time>2022-11-01T09:26:53.000Z</time>
      </trkpt>
      <trkpt lat="42.37575913779437541961669921875" lon="-8.72898596338927745819091796875">
        <ele>15.19999980926513671875</ele>
        <time>2022-11-01T09:26:54.000Z</time>
      </trkpt>
      <trkpt lat="42.37575913779437541961669921875" lon="-8.72898596338927745819091796875">
        <ele>14.80000019073486328125</ele>
        <time>2022-11-01T09:26:55.000Z</time>
      </trkpt>
      <trkpt lat="42.3755535297095775604248046875" lon="-8.72910398058593273162841796875">
        <ele>13.3999996185302734375</ele>
        <time>2022-11-01T09:26:56.000Z</time>
      </trkpt>
      <trkpt lat="42.375458143651485443115234375" lon="-8.7291749753057956695556640625">
        <ele>12.6000003814697265625</ele>
        <time>2022-11-01T09:26:57.000Z</time>
      </trkpt>
      <trkpt lat="42.37536904402077198028564453125" lon="-8.729250915348529815673828125">
        <ele>11.6000003814697265625</ele>
        <time>2022-11-01T09:26:58.000Z</time>
      </trkpt>
      <trkpt lat="42.37528807483613491058349609375" lon="-8.72933297418057918548583984375">
        <ele>11.19999980926513671875</ele>
        <time>2022-11-01T09:26:59.000Z</time>
      </trkpt>
      <trkpt lat="42.37528807483613491058349609375" lon="-8.72933297418057918548583984375">
        <ele>10.19999980926513671875</ele>
        <time>2022-11-01T09:27:00.000Z</time>
      </trkpt>
      <trkpt lat="42.37513770349323749542236328125" lon="-8.72949893586337566375732421875">
        <ele>10.3999996185302734375</ele>
        <time>2022-11-01T09:27:01.000Z</time>
      </trkpt>
      <trkpt lat="42.3750670440495014190673828125" lon="-8.72957956977188587188720703125">
        <ele>10</ele>
        <time>2022-11-01T09:27:02.000Z</time>
      </trkpt>
      <trkpt lat="42.37499889917671680450439453125" lon="-8.72965718619525432586669921875">
        <ele>10</ele>
        <time>2022-11-01T09:27:03.000Z</time>
      </trkpt>
      <trkpt lat="42.37493335269391536712646484375" lon="-8.7297333776950836181640625">
        <ele>9.80000019073486328125</ele>
        <time>2022-11-01T09:27:04.000Z</time>
      </trkpt>
      <trkpt lat="42.37487149424850940704345703125" lon="-8.72981191612780094146728515625">
        <ele>9.80000019073486328125</ele>
        <time>2022-11-01T09:27:05.000Z</time>
      </trkpt>
      <trkpt lat="42.37481298856437206268310546875" lon="-8.72989187948405742645263671875">
        <ele>10</ele>
        <time>2022-11-01T09:27:06.000Z</time>
      </trkpt>
      <trkpt lat="42.37475632689893245697021484375" lon="-8.72997008264064788818359375">
        <ele>10.19999980926513671875</ele>
        <time>2022-11-01T09:27:07.000Z</time>
      </trkpt>
      <trkpt lat="42.37470150925219058990478515625" lon="-8.7300503812730312347412109375">
        <ele>10.3999996185302734375</ele>
        <time>2022-11-01T09:27:08.000Z</time>
      </trkpt>
      <trkpt lat="42.37470150925219058990478515625" lon="-8.7300503812730312347412109375">
        <ele>11</ele>
        <time>2022-11-01T09:27:09.000Z</time>
      </trkpt>
      <trkpt lat="42.37459505908191204071044921875" lon="-8.7302129901945590972900390625">
        <ele>11.19999980926513671875</ele>
        <time>2022-11-01T09:27:10.000Z</time>
      </trkpt>
      <trkpt lat="42.37454242072999477386474609375" lon="-8.73029018752276897430419921875">
        <ele>11.6000003814697265625</ele>
        <time>2022-11-01T09:27:11.000Z</time>
      </trkpt>
      <trkpt lat="42.3744942247867584228515625" lon="-8.73037048615515232086181640625">
        <ele>11.80000019073486328125</ele>
        <time>2022-11-01T09:27:12.000Z</time>
      </trkpt>
      <trkpt lat="42.37444535829126834869384765625" lon="-8.73045296408236026763916015625">
        <ele>12.19999980926513671875</ele>
        <time>2022-11-01T09:27:13.000Z</time>
      </trkpt>
      <trkpt lat="42.3743981681764125823974609375" lon="-8.7305331788957118988037109375">
        <ele>12.19999980926513671875</ele>
        <time>2022-11-01T09:27:14.000Z</time>
      </trkpt>
      <trkpt lat="42.3743525706231594085693359375" lon="-8.730616830289363861083984375">
        <ele>12.19999980926513671875</ele>
        <time>2022-11-01T09:27:15.000Z</time>
      </trkpt>
      <trkpt lat="42.37430470995604991912841796875" lon="-8.73070232570171356201171875">
        <ele>12.19999980926513671875</ele>
        <time>2022-11-01T09:27:16.000Z</time>
      </trkpt>
      <trkpt lat="42.37425928004086017608642578125" lon="-8.73078807257115840911865234375">
        <ele>12.19999980926513671875</ele>
        <time>2022-11-01T09:27:17.000Z</time>
      </trkpt>
      <trkpt lat="42.3742124252021312713623046875" lon="-8.7308775074779987335205078125">
        <ele>12.19999980926513671875</ele>
        <time>2022-11-01T09:27:18.000Z</time>
      </trkpt>
      <trkpt lat="42.37416506744921207427978515625" lon="-8.7309750728309154510498046875">
        <ele>12.19999980926513671875</ele>
        <time>2022-11-01T09:27:19.000Z</time>
      </trkpt>
      <trkpt lat="42.37411712296307086944580078125" lon="-8.73106836341321468353271484375">
        <ele>12.19999980926513671875</ele>
        <time>2022-11-01T09:27:20.000Z</time>
      </trkpt>
      <trkpt lat="42.37406834028661251068115234375" lon="-8.73115905560553073883056640625">
        <ele>12.19999980926513671875</ele>
        <time>2022-11-01T09:27:21.000Z</time>
      </trkpt>
      <trkpt lat="42.37401972524821758270263671875" lon="-8.73124857433140277862548828125">
        <ele>12.19999980926513671875</ele>
        <time>2022-11-01T09:27:22.000Z</time>
      </trkpt>
      <trkpt lat="42.373970188200473785400390625" lon="-8.73133775778114795684814453125">
        <ele>12</ele>
        <time>2022-11-01T09:27:23.000Z</time>
      </trkpt>
      <trkpt lat="42.3739217408001422882080078125" lon="-8.73142895288765430450439453125">
        <ele>11.80000019073486328125</ele>
        <time>2022-11-01T09:27:24.000Z</time>
      </trkpt>
      <trkpt lat="42.3739217408001422882080078125" lon="-8.73142895288765430450439453125">
        <ele>11.80000019073486328125</ele>
        <time>2022-11-01T09:27:25.000Z</time>
      </trkpt>
      <trkpt lat="42.3738241754472255706787109375" lon="-8.73161025345325469970703125">
        <ele>11.6000003814697265625</ele>
        <time>2022-11-01T09:27:26.000Z</time>
      </trkpt>
      <trkpt lat="42.3737732134759426116943359375" lon="-8.73170019127428531646728515625">
        <ele>11.3999996185302734375</ele>
        <time>2022-11-01T09:27:27.000Z</time>
      </trkpt>
      <trkpt lat="42.37372116185724735260009765625" lon="-8.73179071582853794097900390625">
        <ele>11.3999996185302734375</ele>
        <time>2022-11-01T09:27:28.000Z</time>
      </trkpt>
      <trkpt lat="42.3736686073243618011474609375" lon="-8.731878809630870819091796875">
        <ele>11.19999980926513671875</ele>
        <time>2022-11-01T09:27:29.000Z</time>
      </trkpt>
      <trkpt lat="42.3736686073243618011474609375" lon="-8.731878809630870819091796875">
        <ele>11</ele>
        <time>2022-11-01T09:27:30.000Z</time>
      </trkpt>
      <trkpt lat="42.3735633306205272674560546875" lon="-8.73205223120748996734619140625">
        <ele>11</ele>
        <time>2022-11-01T09:27:31.000Z</time>
      </trkpt>
      <trkpt lat="42.37351211719214916229248046875" lon="-8.7321351282298564910888671875">
        <ele>10.80000019073486328125</ele>
        <time>2022-11-01T09:27:32.000Z</time>
      </trkpt>
      <trkpt lat="42.37346316687762737274169921875" lon="-8.732216097414493560791015625">
        <ele>10.80000019073486328125</ele>
        <time>2022-11-01T09:27:33.000Z</time>
      </trkpt>
      <trkpt lat="42.3734171502292156219482421875" lon="-8.732297904789447784423828125">
        <ele>10.80000019073486328125</ele>
        <time>2022-11-01T09:27:34.000Z</time>
      </trkpt>
      <trkpt lat="42.37337448634207248687744140625" lon="-8.73237895779311656951904296875">
        <ele>10.80000019073486328125</ele>
        <time>2022-11-01T09:27:35.000Z</time>
      </trkpt>
      <trkpt lat="42.37333073280751705169677734375" lon="-8.73246026225388050079345703125">
        <ele>10.80000019073486328125</ele>
        <time>2022-11-01T09:27:36.000Z</time>
      </trkpt>
      <trkpt lat="42.37328748218715190887451171875" lon="-8.7325401417911052703857421875">
        <ele>10.80000019073486328125</ele>
        <time>2022-11-01T09:27:37.000Z</time>
      </trkpt>
      <trkpt lat="42.373252697288990020751953125" lon="-8.732604347169399261474609375">
        <ele>10.80000019073486328125</ele>
        <time>2022-11-01T09:27:38.000Z</time>
      </trkpt>
      <trkpt lat="42.37321020103991031646728515625" lon="-8.73268623836338520050048828125">
        <ele>10.80000019073486328125</ele>
        <time>2022-11-01T09:27:39.000Z</time>
      </trkpt>
      <trkpt lat="42.37316644750535488128662109375" lon="-8.73276787810027599334716796875">
        <ele>11</ele>
        <time>2022-11-01T09:27:40.000Z</time>
      </trkpt>
      <trkpt lat="42.3731251247227191925048828125" lon="-8.73284851200878620147705078125">
        <ele>11</ele>
        <time>2022-11-01T09:27:41.000Z</time>
      </trkpt>
      <trkpt lat="42.37308262847363948822021484375" lon="-8.73293031938374042510986328125">
        <ele>11</ele>
        <time>2022-11-01T09:27:42.000Z</time>
      </trkpt>
      <trkpt lat="42.373042143881320953369140625" lon="-8.73301279731094837188720703125">
        <ele>11</ele>
        <time>2022-11-01T09:27:43.000Z</time>
      </trkpt>
      <trkpt lat="42.37299394793808460235595703125" lon="-8.7331102788448333740234375">
        <ele>11</ele>
        <time>2022-11-01T09:27:44.000Z</time>
      </trkpt>
      <trkpt lat="42.37295539118349552154541015625" lon="-8.73319166712462902069091796875">
        <ele>11</ele>
        <time>2022-11-01T09:27:45.000Z</time>
      </trkpt>
      <trkpt lat="42.37291641533374786376953125" lon="-8.73327280394732952117919921875">
        <ele>11.19999980926513671875</ele>
        <time>2022-11-01T09:27:46.000Z</time>
      </trkpt>
      <trkpt lat="42.37287660129368305206298828125" lon="-8.7333505041897296905517578125">
        <ele>11.19999980926513671875</ele>
        <time>2022-11-01T09:27:47.000Z</time>
      </trkpt>
      <trkpt lat="42.37283670343458652496337890625" lon="-8.73342870734632015228271484375">
        <ele>11.19999980926513671875</ele>
        <time>2022-11-01T09:27:48.000Z</time>
      </trkpt>
      <trkpt lat="42.37279864959418773651123046875" lon="-8.7335043959319591522216796875">
        <ele>11.19999980926513671875</ele>
        <time>2022-11-01T09:27:49.000Z</time>
      </trkpt>
      <trkpt lat="42.372763864696025848388671875" lon="-8.733582682907581329345703125">
        <ele>11.19999980926513671875</ele>
        <time>2022-11-01T09:27:50.000Z</time>
      </trkpt>
      <trkpt lat="42.372732348740100860595703125" lon="-8.73366708867251873016357421875">
        <ele>11.19999980926513671875</ele>
        <time>2022-11-01T09:27:51.000Z</time>
      </trkpt>
      <trkpt lat="42.37270460464060306549072265625" lon="-8.7337540090084075927734375">
        <ele>11.19999980926513671875</ele>
        <time>2022-11-01T09:27:52.000Z</time>
      </trkpt>
      <trkpt lat="42.3726818896830081939697265625" lon="-8.73384713195264339447021484375">
        <ele>11.19999980926513671875</ele>
        <time>2022-11-01T09:27:53.000Z</time>
      </trkpt>
      <trkpt lat="42.3726621083915233612060546875" lon="-8.73394352383911609649658203125">
        <ele>11.19999980926513671875</ele>
        <time>2022-11-01T09:27:54.000Z</time>
      </trkpt>
      <trkpt lat="42.3726476915180683135986328125" lon="-8.73402181081473827362060546875">
        <ele>11.19999980926513671875</ele>
        <time>2022-11-01T09:27:55.000Z</time>
      </trkpt>
      <trkpt lat="42.37263067625463008880615234375" lon="-8.73411652632057666778564453125">
        <ele>11.19999980926513671875</ele>
        <time>2022-11-01T09:27:56.000Z</time>
      </trkpt>
      <trkpt lat="42.37261734902858734130859375" lon="-8.73420855961740016937255859375">
        <ele>11.19999980926513671875</ele>
        <time>2022-11-01T09:27:57.000Z</time>
      </trkpt>
      <trkpt lat="42.372604943811893463134765625" lon="-8.73430109582841396331787109375">
        <ele>11.19999980926513671875</ele>
        <time>2022-11-01T09:27:58.000Z</time>
      </trkpt>
      <trkpt lat="42.372596226632595062255859375" lon="-8.734392039477825164794921875">
        <ele>11.3999996185302734375</ele>
        <time>2022-11-01T09:27:59.000Z</time>
      </trkpt>
      <trkpt lat="42.37258893437683582305908203125" lon="-8.7344840727746486663818359375">
        <ele>11.3999996185302734375</ele>
        <time>2022-11-01T09:28:00.000Z</time>
      </trkpt>
      <trkpt lat="42.37258072011172771453857421875" lon="-8.734593205153942108154296875">
        <ele>11.6000003814697265625</ele>
        <time>2022-11-01T09:28:01.000Z</time>
      </trkpt>
      <trkpt lat="42.37257418222725391387939453125" lon="-8.73467945493757724761962890625">
        <ele>11.6000003814697265625</ele>
        <time>2022-11-01T09:28:02.000Z</time>
      </trkpt>
      <trkpt lat="42.3725692369043827056884765625" lon="-8.73474433086812496185302734375">
        <ele>11.6000003814697265625</ele>
        <time>2022-11-01T09:28:03.000Z</time>
      </trkpt>
      <trkpt lat="42.37256865017116069793701171875" lon="-8.7348188459873199462890625">
        <ele>11.80000019073486328125</ele>
        <time>2022-11-01T09:28:04.000Z</time>
      </trkpt>
      <trkpt lat="42.37256831489503383636474609375" lon="-8.73490794561803340911865234375">
        <ele>12</ele>
        <time>2022-11-01T09:28:05.000Z</time>
      </trkpt>
      <trkpt lat="42.3725699074566364288330078125" lon="-8.73496460728347301483154296875">
        <ele>12.19999980926513671875</ele>
        <time>2022-11-01T09:28:06.000Z</time>
      </trkpt>
      <trkpt lat="42.37256982363760471343994140625" lon="-8.73504591174423694610595703125">
        <ele>12.3999996185302734375</ele>
        <time>2022-11-01T09:28:07.000Z</time>
      </trkpt>
      <trkpt lat="42.3725683987140655517578125" lon="-8.73509838245809078216552734375">
        <ele>12.3999996185302734375</ele>
        <time>2022-11-01T09:28:08.000Z</time>
      </trkpt>
      <trkpt lat="42.372569404542446136474609375" lon="-8.7351754121482372283935546875">
        <ele>12.6000003814697265625</ele>
        <time>2022-11-01T09:28:09.000Z</time>
      </trkpt>
      <trkpt lat="42.3725710809230804443359375" lon="-8.73522587120532989501953125">
        <ele>12.80000019073486328125</ele>
        <time>2022-11-01T09:28:10.000Z</time>
      </trkpt>
      <trkpt lat="42.37257175147533416748046875" lon="-8.735287226736545562744140625">
        <ele>13</ele>
        <time>2022-11-01T09:28:11.000Z</time>
      </trkpt>
      <trkpt lat="42.372571416199207305908203125" lon="-8.73534682206809520721435546875">
        <ele>13</ele>
        <time>2022-11-01T09:28:12.000Z</time>
      </trkpt>
      <trkpt lat="42.37257099710404872894287109375" lon="-8.73540717177093029022216796875">
        <ele>13.19999980926513671875</ele>
        <time>2022-11-01T09:28:13.000Z</time>
      </trkpt>
      <trkpt lat="42.37257577478885650634765625" lon="-8.735467605292797088623046875">
        <ele>13.19999980926513671875</ele>
        <time>2022-11-01T09:28:14.000Z</time>
      </trkpt>
      <trkpt lat="42.37258072011172771453857421875" lon="-8.7355274520814418792724609375">
        <ele>13.3999996185302734375</ele>
        <time>2022-11-01T09:28:15.000Z</time>
      </trkpt>
      <trkpt lat="42.37258356995880603790283203125" lon="-8.7355867959558963775634765625">
        <ele>13.3999996185302734375</ele>
        <time>2022-11-01T09:28:16.000Z</time>
      </trkpt>
      <trkpt lat="42.3725893534719944000244140625" lon="-8.73564655892550945281982421875">
        <ele>13.3999996185302734375</ele>
        <time>2022-11-01T09:28:17.000Z</time>
      </trkpt>
      <trkpt lat="42.372596226632595062255859375" lon="-8.7357054837048053741455078125">
        <ele>13.3999996185302734375</ele>
        <time>2022-11-01T09:28:18.000Z</time>
      </trkpt>
      <trkpt lat="42.372601926326751708984375" lon="-8.7357656657695770263671875">
        <ele>13.3999996185302734375</ele>
        <time>2022-11-01T09:28:19.000Z</time>
      </trkpt>
      <trkpt lat="42.3726074583828449249267578125" lon="-8.7358258478343486785888671875">
        <ele>13.3999996185302734375</ele>
        <time>2022-11-01T09:28:20.000Z</time>
      </trkpt>
      <trkpt lat="42.37261198461055755615234375" lon="-8.73588711954653263092041015625">
        <ele>13.3999996185302734375</ele>
        <time>2022-11-01T09:28:21.000Z</time>
      </trkpt>
      <trkpt lat="42.37261910922825336456298828125" lon="-8.73594881035387516021728515625">
        <ele>13.3999996185302734375</ele>
        <time>2022-11-01T09:28:22.000Z</time>
      </trkpt>
      <trkpt lat="42.3726279102265834808349609375" lon="-8.73600631020963191986083984375">
        <ele>13.3999996185302734375</ele>
        <time>2022-11-01T09:28:23.000Z</time>
      </trkpt>
      <trkpt lat="42.3726399801671504974365234375" lon="-8.736070431768894195556640625">
        <ele>13.3999996185302734375</ele>
        <time>2022-11-01T09:28:24.000Z</time>
      </trkpt>
      <trkpt lat="42.37265414558351039886474609375" lon="-8.7361156940460205078125">
        <ele>13.3999996185302734375</ele>
        <time>2022-11-01T09:28:25.000Z</time>
      </trkpt>
      <trkpt lat="42.37267057411372661590576171875" lon="-8.73614846728742122650146484375">
        <ele>13.3999996185302734375</ele>
        <time>2022-11-01T09:28:26.000Z</time>
      </trkpt>
      <trkpt lat="42.37267057411372661590576171875" lon="-8.73614846728742122650146484375">
        <ele>13.19999980926513671875</ele>
        <time>2022-11-01T09:28:27.000Z</time>
      </trkpt>
      <trkpt lat="42.372690103948116302490234375" lon="-8.73618551529943943023681640625">
        <ele>13.19999980926513671875</ele>
        <time>2022-11-01T09:28:28.000Z</time>
      </trkpt>
      <trkpt lat="42.37269169650971889495849609375" lon="-8.73619238846004009246826171875">
        <ele>13.19999980926513671875</ele>
        <time>2022-11-01T09:28:29.000Z</time>
      </trkpt>
      <trkpt lat="42.37269169650971889495849609375" lon="-8.73619238846004009246826171875">
        <ele>13.19999980926513671875</ele>
        <time>2022-11-01T09:28:30.000Z</time>
      </trkpt>
      <trkpt lat="42.37270980142056941986083984375" lon="-8.7362335436046123504638671875">
        <ele>12.80000019073486328125</ele>
        <time>2022-11-01T09:29:30.000Z</time>
      </trkpt>
      <trkpt lat="42.37271717749536037445068359375" lon="-8.73625449836254119873046875">
        <ele>12.80000019073486328125</ele>
        <time>2022-11-01T09:29:31.000Z</time>
      </trkpt>
      <trkpt lat="42.37272807396948337554931640625" lon="-8.7362767942249774932861328125">
        <ele>12.80000019073486328125</ele>
        <time>2022-11-01T09:29:32.000Z</time>
      </trkpt>
      <trkpt lat="42.372741065919399261474609375" lon="-8.7363005988299846649169921875">
        <ele>12.80000019073486328125</ele>
        <time>2022-11-01T09:29:33.000Z</time>
      </trkpt>
      <trkpt lat="42.37275975756347179412841796875" lon="-8.73632180504500865936279296875">
        <ele>12.80000019073486328125</ele>
        <time>2022-11-01T09:29:34.000Z</time>
      </trkpt>
      <trkpt lat="42.372783981263637542724609375" lon="-8.73633990995585918426513671875">
        <ele>12.6000003814697265625</ele>
        <time>2022-11-01T09:29:35.000Z</time>
      </trkpt>
      <trkpt lat="42.3728153295814990997314453125" lon="-8.736354410648345947265625">
        <ele>12.6000003814697265625</ele>
        <time>2022-11-01T09:29:36.000Z</time>
      </trkpt>
      <trkpt lat="42.3728548921644687652587890625" lon="-8.736359439790248870849609375">
        <ele>12.6000003814697265625</ele>
        <time>2022-11-01T09:29:37.000Z</time>
      </trkpt>
      <trkpt lat="42.37289638258516788482666015625" lon="-8.7363517284393310546875">
        <ele>12.3999996185302734375</ele>
        <time>2022-11-01T09:29:38.000Z</time>
      </trkpt>
      <trkpt lat="42.37294097431004047393798828125" lon="-8.73633873648941516876220703125">
        <ele>12.19999980926513671875</ele>
        <time>2022-11-01T09:29:39.000Z</time>
      </trkpt>
      <trkpt lat="42.3729908466339111328125" lon="-8.73632331378757953643798828125">
        <ele>12</ele>
        <time>2022-11-01T09:29:40.000Z</time>
      </trkpt>
      <trkpt lat="42.37304407171905040740966796875" lon="-8.73630286194384098052978515625">
        <ele>11.80000019073486328125</ele>
        <time>2022-11-01T09:29:41.000Z</time>
      </trkpt>
      <trkpt lat="42.37309872172772884368896484375" lon="-8.73628207482397556304931640625">
        <ele>11.80000019073486328125</ele>
        <time>2022-11-01T09:29:42.000Z</time>
      </trkpt>
      <trkpt lat="42.3731546290218830108642578125" lon="-8.73626095242798328399658203125">
        <ele>11.3999996185302734375</ele>
        <time>2022-11-01T09:29:43.000Z</time>
      </trkpt>
      <trkpt lat="42.373209781944751739501953125" lon="-8.73623580671846866607666015625">
        <ele>11</ele>
        <time>2022-11-01T09:29:44.000Z</time>
      </trkpt>
      <trkpt lat="42.37326535396277904510498046875" lon="-8.736202530562877655029296875">
        <ele>10.80000019073486328125</ele>
        <time>2022-11-01T09:29:45.000Z</time>
      </trkpt>
      <trkpt lat="42.373321764171123504638671875" lon="-8.7361641414463520050048828125">
        <ele>10.19999980926513671875</ele>
        <time>2022-11-01T09:29:46.000Z</time>
      </trkpt>
      <trkpt lat="42.37338974140584468841552734375" lon="-8.73612080700695514678955078125">
        <ele>10</ele>
        <time>2022-11-01T09:29:47.000Z</time>
      </trkpt>
      <trkpt lat="42.37344481050968170166015625" lon="-8.73608778230845928192138671875">
        <ele>9.6000003814697265625</ele>
        <time>2022-11-01T09:29:48.000Z</time>
      </trkpt>
      <trkpt lat="42.37349954433739185333251953125" lon="-8.73605358414351940155029296875">
        <ele>9.6000003814697265625</ele>
        <time>2022-11-01T09:29:49.000Z</time>
      </trkpt>
      <trkpt lat="42.37355520017445087432861328125" lon="-8.73601980507373809814453125">
        <ele>9.3999996185302734375</ele>
        <time>2022-11-01T09:29:50.000Z</time>
      </trkpt>
      <trkpt lat="42.37361219711601734161376953125" lon="-8.735988624393939971923828125">
        <ele>9.19999980926513671875</ele>
        <time>2022-11-01T09:29:51.000Z</time>
      </trkpt>
      <trkpt lat="42.37366919405758380889892578125" lon="-8.73595601879060268402099609375">
        <ele>8.80000019073486328125</ele>
        <time>2022-11-01T09:29:52.000Z</time>
      </trkpt>
      <trkpt lat="42.373726777732372283935546875" lon="-8.7359227426350116729736328125">
        <ele>8.6000003814697265625</ele>
        <time>2022-11-01T09:29:53.000Z</time>
      </trkpt>
      <trkpt lat="42.3737888038158416748046875" lon="-8.73589533381164073944091796875">
        <ele>8.3999996185302734375</ele>
        <time>2022-11-01T09:29:54.000Z</time>
      </trkpt>
      <trkpt lat="42.37385376356542110443115234375" lon="-8.735876642167568206787109375">
        <ele>8.19999980926513671875</ele>
        <time>2022-11-01T09:29:55.000Z</time>
      </trkpt>
      <trkpt lat="42.37392316572368144989013671875" lon="-8.73587337322533130645751953125">
        <ele>8.19999980926513671875</ele>
        <time>2022-11-01T09:29:56.000Z</time>
      </trkpt>
      <trkpt lat="42.374000363051891326904296875" lon="-8.73588695190846920013427734375">
        <ele>8</ele>
        <time>2022-11-01T09:29:57.000Z</time>
      </trkpt>
      <trkpt lat="42.374082505702972412109375" lon="-8.735919892787933349609375">
        <ele>7.599999904632568359375</ele>
        <time>2022-11-01T09:29:58.000Z</time>
      </trkpt>
      <trkpt lat="42.37416523508727550506591796875" lon="-8.73596909455955028533935546875">
        <ele>7.400000095367431640625</ele>
        <time>2022-11-01T09:29:59.000Z</time>
      </trkpt>
      <trkpt lat="42.3742506466805934906005859375" lon="-8.7360250018537044525146484375">
        <ele>7.19999980926513671875</ele>
        <time>2022-11-01T09:30:00.000Z</time>
      </trkpt>
      <trkpt lat="42.3743210546672344207763671875" lon="-8.73607034794986248016357421875">
        <ele>6.599999904632568359375</ele>
        <time>2022-11-01T09:30:01.000Z</time>
      </trkpt>
      <trkpt lat="42.3744259960949420928955078125" lon="-8.736136145889759063720703125">
        <ele>6.400000095367431640625</ele>
        <time>2022-11-01T09:30:02.000Z</time>
      </trkpt>
      <trkpt lat="42.3745128326117992401123046875" lon="-8.7361842580139636993408203125">
        <ele>5.400000095367431640625</ele>
        <time>2022-11-01T09:30:03.000Z</time>
      </trkpt>
      <trkpt lat="42.3745966516435146331787109375" lon="-8.73622524552047252655029296875">
        <ele>4.400000095367431640625</ele>
        <time>2022-11-01T09:30:04.000Z</time>
      </trkpt>
      <trkpt lat="42.37467351369559764862060546875" lon="-8.73626044951379299163818359375">
        <ele>4</ele>
        <time>2022-11-01T09:30:05.000Z</time>
      </trkpt>
      <trkpt lat="42.37467351369559764862060546875" lon="-8.73626044951379299163818359375">
        <ele>2.400000095367431640625</ele>
        <time>2022-11-01T09:30:06.000Z</time>
      </trkpt>
      <trkpt lat="42.374821789562702178955078125" lon="-8.7362935580313205718994140625">
        <ele>1.7999999523162841796875</ele>
        <time>2022-11-01T09:30:07.000Z</time>
      </trkpt>
      <trkpt lat="42.374897897243499755859375" lon="-8.73629263602197170257568359375">
        <ele>0.60000002384185791015625</ele>
        <time>2022-11-01T09:30:08.000Z</time>
      </trkpt>
      <trkpt lat="42.37497190944850444793701171875" lon="-8.7362895347177982330322265625">
        <ele>0</ele>
        <time>2022-11-01T09:30:09.000Z</time>
      </trkpt>
      <trkpt lat="42.3750412277877330780029296875" lon="-8.73628643341362476348876953125">
        <ele>-0.800000011920928955078125</ele>
        <time>2022-11-01T09:30:10.000Z</time>
      </trkpt>
      <trkpt lat="42.375104762613773345947265625" lon="-8.73628676868975162506103515625">
        <ele>-1</ele>
        <time>2022-11-01T09:30:11.000Z</time>
      </trkpt>
      <trkpt lat="42.375104762613773345947265625" lon="-8.73628676868975162506103515625">
        <ele>-1.39999997615814208984375</ele>
        <time>2022-11-01T09:30:12.000Z</time>
      </trkpt>
      <trkpt lat="42.37522705458104610443115234375" lon="-8.7362865172326564788818359375">
        <ele>-1.7999999523162841796875</ele>
        <time>2022-11-01T09:30:13.000Z</time>
      </trkpt>
      <trkpt lat="42.37528908066451549530029296875" lon="-8.73628324829041957855224609375">
        <ele>-2</ele>
        <time>2022-11-01T09:30:14.000Z</time>
      </trkpt>
      <trkpt lat="42.37534792162477970123291015625" lon="-8.73627335764467716217041015625">
        <ele>-2.599999904632568359375</ele>
        <time>2022-11-01T09:30:15.000Z</time>
      </trkpt>
      <trkpt lat="42.37540290690958499908447265625" lon="-8.7362570129334926605224609375">
        <ele>-2.599999904632568359375</ele>
        <time>2022-11-01T09:30:16.000Z</time>
      </trkpt>
      <trkpt lat="42.37544297240674495697021484375" lon="-8.73624351806938648223876953125">
        <ele>-2.7999999523162841796875</ele>
        <time>2022-11-01T09:30:17.000Z</time>
      </trkpt>
      <trkpt lat="42.37548572011291980743408203125" lon="-8.73622289858758449554443359375">
        <ele>-2.7999999523162841796875</ele>
        <time>2022-11-01T09:30:18.000Z</time>
      </trkpt>
      <trkpt lat="42.3755223490297794342041015625" lon="-8.73619792051613330841064453125">
        <ele>-2.7999999523162841796875</ele>
        <time>2022-11-01T09:30:19.000Z</time>
      </trkpt>
      <trkpt lat="42.37555042840540409088134765625" lon="-8.73616875149309635162353515625">
        <ele>-3</ele>
        <time>2022-11-01T09:30:20.000Z</time>
      </trkpt>
      <trkpt lat="42.37556886859238147735595703125" lon="-8.73614251613616943359375">
        <ele>-3</ele>
        <time>2022-11-01T09:30:21.000Z</time>
      </trkpt>
      <trkpt lat="42.37557942979037761688232421875" lon="-8.7361279316246509552001953125">
        <ele>-3</ele>
        <time>2022-11-01T09:30:22.000Z</time>
      </trkpt>
      <trkpt lat="42.37558311782777309417724609375" lon="-8.736122734844684600830078125">
        <ele>-3</ele>
        <time>2022-11-01T09:30:23.000Z</time>
      </trkpt>
      <trkpt lat="42.37558311782777309417724609375" lon="-8.736122734844684600830078125">
        <ele>-3</ele>
        <time>2022-11-01T09:30:24.000Z</time>
      </trkpt>
      <trkpt lat="42.37556777894496917724609375" lon="-8.73613673262298107147216796875">
        <ele>-4</ele>
        <time>2022-11-01T09:38:26.000Z</time>
      </trkpt>
      <trkpt lat="42.37555327825248241424560546875" lon="-8.7361473776400089263916015625">
        <ele>-4</ele>
        <time>2022-11-01T09:38:27.000Z</time>
      </trkpt>
      <trkpt lat="42.37552645616233348846435546875" lon="-8.73615919612348079681396484375">
        <ele>-4</ele>
        <time>2022-11-01T09:38:28.000Z</time>
      </trkpt>
      <trkpt lat="42.37550248391926288604736328125" lon="-8.7361745350062847137451171875">
        <ele>-4</ele>
        <time>2022-11-01T09:38:29.000Z</time>
      </trkpt>
      <trkpt lat="42.375482283532619476318359375" lon="-8.7361919693648815155029296875">
        <ele>-4</ele>
        <time>2022-11-01T09:38:30.000Z</time>
      </trkpt>
      <trkpt lat="42.37545856274664402008056640625" lon="-8.7362090684473514556884765625">
        <ele>-4</ele>
        <time>2022-11-01T09:38:31.000Z</time>
      </trkpt>
      <trkpt lat="42.3754355125129222869873046875" lon="-8.7362231500446796417236328125">
        <ele>-4</ele>
        <time>2022-11-01T09:38:32.000Z</time>
      </trkpt>
      <trkpt lat="42.375402487814426422119140625" lon="-8.736239410936832427978515625">
        <ele>-4</ele>
        <time>2022-11-01T09:38:33.000Z</time>
      </trkpt>
      <trkpt lat="42.375364936888217926025390625" lon="-8.7362627126276493072509765625">
        <ele>-4.19999980926513671875</ele>
        <time>2022-11-01T09:38:34.000Z</time>
      </trkpt>
      <trkpt lat="42.3753337562084197998046875" lon="-8.7362764589488506317138671875">
        <ele>-4.19999980926513671875</ele>
        <time>2022-11-01T09:38:35.000Z</time>
      </trkpt>
      <trkpt lat="42.37529897131025791168212890625" lon="-8.736283667385578155517578125">
        <ele>-4.19999980926513671875</ele>
        <time>2022-11-01T09:38:36.000Z</time>
      </trkpt>
      <trkpt lat="42.37526209093630313873291015625" lon="-8.7362860143184661865234375">
        <ele>-4.19999980926513671875</ele>
        <time>2022-11-01T09:38:37.000Z</time>
      </trkpt>
      <trkpt lat="42.37522571347653865814208984375" lon="-8.73628375120460987091064453125">
        <ele>-4.19999980926513671875</ele>
        <time>2022-11-01T09:38:38.000Z</time>
      </trkpt>
      <trkpt lat="42.3751890845596790313720703125" lon="-8.73628173954784870147705078125">
        <ele>-4.19999980926513671875</ele>
        <time>2022-11-01T09:38:39.000Z</time>
      </trkpt>
      <trkpt lat="42.375147007405757904052734375" lon="-8.7362818233668804168701171875">
        <ele>-4.19999980926513671875</ele>
        <time>2022-11-01T09:38:40.000Z</time>
      </trkpt>
      <trkpt lat="42.37511054612696170806884765625" lon="-8.73628442175686359405517578125">
        <ele>-4.19999980926513671875</ele>
        <time>2022-11-01T09:38:41.000Z</time>
      </trkpt>
      <trkpt lat="42.37506511621177196502685546875" lon="-8.73628534376621246337890625">
        <ele>-4</ele>
        <time>2022-11-01T09:38:42.000Z</time>
      </trkpt>
      <trkpt lat="42.37501063384115695953369140625" lon="-8.73628391884267330169677734375">
        <ele>-4</ele>
        <time>2022-11-01T09:38:43.000Z</time>
      </trkpt>
      <trkpt lat="42.3749651201069355010986328125" lon="-8.73627972789108753204345703125">
        <ele>-3.7999999523162841796875</ele>
        <time>2022-11-01T09:38:44.000Z</time>
      </trkpt>
      <trkpt lat="42.3749205283820629119873046875" lon="-8.7362764589488506317138671875">
        <ele>-3.599999904632568359375</ele>
        <time>2022-11-01T09:38:45.000Z</time>
      </trkpt>
      <trkpt lat="42.374874763190746307373046875" lon="-8.7362766265869140625">
        <ele>-3.599999904632568359375</ele>
        <time>2022-11-01T09:38:46.000Z</time>
      </trkpt>
      <trkpt lat="42.37482505850493907928466796875" lon="-8.73627687804400920867919921875">
        <ele>-3.400000095367431640625</ele>
        <time>2022-11-01T09:38:47.000Z</time>
      </trkpt>
      <trkpt lat="42.374774850904941558837890625" lon="-8.73627687804400920867919921875">
        <ele>-3.2000000476837158203125</ele>
        <time>2022-11-01T09:38:48.000Z</time>
      </trkpt>
      <trkpt lat="42.37472497858107089996337890625" lon="-8.73627134598791599273681640625">
        <ele>-3</ele>
        <time>2022-11-01T09:38:49.000Z</time>
      </trkpt>
      <trkpt lat="42.3746777884662151336669921875" lon="-8.73626179061830043792724609375">
        <ele>-3</ele>
        <time>2022-11-01T09:38:50.000Z</time>
      </trkpt>
      <trkpt lat="42.37463847734034061431884765625" lon="-8.73624779284000396728515625">
        <ele>-2.7999999523162841796875</ele>
        <time>2022-11-01T09:38:51.000Z</time>
      </trkpt>
      <trkpt lat="42.37457938492298126220703125" lon="-8.73622390441596508026123046875">
        <ele>-2.7999999523162841796875</ele>
        <time>2022-11-01T09:38:52.000Z</time>
      </trkpt>
      <trkpt lat="42.374530099332332611083984375" lon="-8.7362028658390045166015625">
        <ele>-2.7999999523162841796875</ele>
        <time>2022-11-01T09:38:53.000Z</time>
      </trkpt>
      <trkpt lat="42.37448458559811115264892578125" lon="-8.73617998324334621429443359375">
        <ele>-2.599999904632568359375</ele>
        <time>2022-11-01T09:38:54.000Z</time>
      </trkpt>
      <trkpt lat="42.374449633061885833740234375" lon="-8.736162967979907989501953125">
        <ele>-2.599999904632568359375</ele>
        <time>2022-11-01T09:38:55.000Z</time>
      </trkpt>
      <trkpt lat="42.3744065500795841217041015625" lon="-8.73613706789910793304443359375">
        <ele>-2.400000095367431640625</ele>
        <time>2022-11-01T09:38:56.000Z</time>
      </trkpt>
      <trkpt lat="42.37435810267925262451171875" lon="-8.73610571958124637603759765625">
        <ele>-2</ele>
        <time>2022-11-01T09:38:57.000Z</time>
      </trkpt>
      <trkpt lat="42.374321557581424713134765625" lon="-8.7360821664333343505859375">
        <ele>-1.7999999523162841796875</ele>
        <time>2022-11-01T09:38:58.000Z</time>
      </trkpt>
      <trkpt lat="42.3742875270545482635498046875" lon="-8.73605576343834400177001953125">
        <ele>-1.39999997615814208984375</ele>
        <time>2022-11-01T09:38:59.000Z</time>
      </trkpt>
      <trkpt lat="42.37425391562283039093017578125" lon="-8.73603279702365398406982421875">
        <ele>-1.2000000476837158203125</ele>
        <time>2022-11-01T09:39:00.000Z</time>
      </trkpt>
      <trkpt lat="42.3742218129336833953857421875" lon="-8.7360136024653911590576171875">
        <ele>-0.60000002384185791015625</ele>
        <time>2022-11-01T09:39:01.000Z</time>
      </trkpt>
      <trkpt lat="42.37419046461582183837890625" lon="-8.73599340207874774932861328125">
        <ele>-0.4000000059604644775390625</ele>
        <time>2022-11-01T09:39:02.000Z</time>
      </trkpt>
      <trkpt lat="42.3741597868502140045166015625" lon="-8.735973536968231201171875">
        <ele>-0.20000000298023223876953125</ele>
        <time>2022-11-01T09:39:03.000Z</time>
      </trkpt>
      <trkpt lat="42.3741296119987964630126953125" lon="-8.7359582819044589996337890625">
        <ele>0.20000000298023223876953125</ele>
        <time>2022-11-01T09:39:04.000Z</time>
      </trkpt>
      <trkpt lat="42.37410505302250385284423828125" lon="-8.73594378121197223663330078125">
        <ele>0.60000002384185791015625</ele>
        <time>2022-11-01T09:39:05.000Z</time>
      </trkpt>
      <trkpt lat="42.37406850792467594146728515625" lon="-8.735922910273075103759765625">
        <ele>0.800000011920928955078125</ele>
        <time>2022-11-01T09:39:06.000Z</time>
      </trkpt>
      <trkpt lat="42.3740400932729244232177734375" lon="-8.73590924777090549468994140625">
        <ele>1.39999997615814208984375</ele>
        <time>2022-11-01T09:39:07.000Z</time>
      </trkpt>
      <trkpt lat="42.37401218153536319732666015625" lon="-8.73589952476322650909423828125">
        <ele>2</ele>
        <time>2022-11-01T09:39:08.000Z</time>
      </trkpt>
      <trkpt lat="42.3739881254732608795166015625" lon="-8.73589399270713329315185546875">
        <ele>2.2000000476837158203125</ele>
        <time>2022-11-01T09:39:09.000Z</time>
      </trkpt>
      <trkpt lat="42.373966835439205169677734375" lon="-8.7358875386416912078857421875">
        <ele>2.599999904632568359375</ele>
        <time>2022-11-01T09:39:10.000Z</time>
      </trkpt>
      <trkpt lat="42.37393657676875591278076171875" lon="-8.735878653824329376220703125">
        <ele>2.599999904632568359375</ele>
        <time>2022-11-01T09:39:11.000Z</time>
      </trkpt>
      <trkpt lat="42.37391260452568531036376953125" lon="-8.73587764799594879150390625">
        <ele>3</ele>
        <time>2022-11-01T09:39:12.000Z</time>
      </trkpt>
      <trkpt lat="42.37389064393937587738037109375" lon="-8.73587974347174167633056640625">
        <ele>3.400000095367431640625</ele>
        <time>2022-11-01T09:39:13.000Z</time>
      </trkpt>
      <trkpt lat="42.37386633642017841339111328125" lon="-8.7358835153281688690185546875">
        <ele>3.599999904632568359375</ele>
        <time>2022-11-01T09:39:14.000Z</time>
      </trkpt>
      <trkpt lat="42.3738402687013149261474609375" lon="-8.73588376678526401519775390625">
        <ele>3.7999999523162841796875</ele>
        <time>2022-11-01T09:39:15.000Z</time>
      </trkpt>
      <trkpt lat="42.3738181404769420623779296875" lon="-8.73589642345905303955078125">
        <ele>4.400000095367431640625</ele>
        <time>2022-11-01T09:39:16.000Z</time>
      </trkpt>
      <trkpt lat="42.37379777245223522186279296875" lon="-8.73590924777090549468994140625">
        <ele>4.80000019073486328125</ele>
        <time>2022-11-01T09:39:17.000Z</time>
      </trkpt>
      <trkpt lat="42.373774051666259765625" lon="-8.73592148534953594207763671875">
        <ele>5.19999980926513671875</ele>
        <time>2022-11-01T09:39:18.000Z</time>
      </trkpt>
      <trkpt lat="42.37374949268996715545654296875" lon="-8.73593975789844989776611328125">
        <ele>5.599999904632568359375</ele>
        <time>2022-11-01T09:39:19.000Z</time>
      </trkpt>
      <trkpt lat="42.373724766075611114501953125" lon="-8.73595702461898326873779296875">
        <ele>5.80000019073486328125</ele>
        <time>2022-11-01T09:39:20.000Z</time>
      </trkpt>
      <trkpt lat="42.3736981116235256195068359375" lon="-8.73597814701497554779052734375">
        <ele>6.19999980926513671875</ele>
        <time>2022-11-01T09:39:21.000Z</time>
      </trkpt>
      <trkpt lat="42.37367103807628154754638671875" lon="-8.73599356971681118011474609375">
        <ele>6.19999980926513671875</ele>
        <time>2022-11-01T09:39:22.000Z</time>
      </trkpt>
      <trkpt lat="42.37364203669130802154541015625" lon="-8.7360082380473613739013671875">
        <ele>6.599999904632568359375</ele>
        <time>2022-11-01T09:39:23.000Z</time>
      </trkpt>
      <trkpt lat="42.3736152984201908111572265625" lon="-8.7360273487865924835205078125">
        <ele>6.80000019073486328125</ele>
        <time>2022-11-01T09:39:24.000Z</time>
      </trkpt>
      <trkpt lat="42.37357866950333118438720703125" lon="-8.73605199158191680908203125">
        <ele>7</ele>
        <time>2022-11-01T09:39:25.000Z</time>
      </trkpt>
      <trkpt lat="42.37354095093905925750732421875" lon="-8.73608727939426898956298828125">
        <ele>7.19999980926513671875</ele>
        <time>2022-11-01T09:39:26.000Z</time>
      </trkpt>
      <trkpt lat="42.37348043359816074371337890625" lon="-8.73612147755920886993408203125">
        <ele>7.400000095367431640625</ele>
        <time>2022-11-01T09:39:27.000Z</time>
      </trkpt>
      <trkpt lat="42.37343810498714447021484375" lon="-8.7361436896026134490966796875">
        <ele>7.599999904632568359375</ele>
        <time>2022-11-01T09:39:28.000Z</time>
      </trkpt>
      <trkpt lat="42.37340114079415798187255859375" lon="-8.73616464436054229736328125">
        <ele>7.599999904632568359375</ele>
        <time>2022-11-01T09:39:29.000Z</time>
      </trkpt>
      <trkpt lat="42.37336845137178897857666015625" lon="-8.7361788935959339141845703125">
        <ele>7.80000019073486328125</ele>
        <time>2022-11-01T09:39:30.000Z</time>
      </trkpt>
      <trkpt lat="42.3733366839587688446044921875" lon="-8.73619951307773590087890625">
        <ele>7.80000019073486328125</ele>
        <time>2022-11-01T09:39:31.000Z</time>
      </trkpt>
      <trkpt lat="42.3732930980622768402099609375" lon="-8.7362191267311573028564453125">
        <ele>7.80000019073486328125</ele>
        <time>2022-11-01T09:39:32.000Z</time>
      </trkpt>
      <trkpt lat="42.37324624322354793548583984375" lon="-8.73624603264033794403076171875">
        <ele>7.80000019073486328125</ele>
        <time>2022-11-01T09:39:33.000Z</time>
      </trkpt>
      <trkpt lat="42.373208105564117431640625" lon="-8.73627218417823314666748046875">
        <ele>8</ele>
        <time>2022-11-01T09:39:34.000Z</time>
      </trkpt>
      <trkpt lat="42.373171560466289520263671875" lon="-8.73629012145102024078369140625">
        <ele>8.19999980926513671875</ele>
        <time>2022-11-01T09:39:35.000Z</time>
      </trkpt>
      <trkpt lat="42.37313501536846160888671875" lon="-8.73631007038056850433349609375">
        <ele>8.19999980926513671875</ele>
        <time>2022-11-01T09:39:36.000Z</time>
      </trkpt>
      <trkpt lat="42.37309503369033336639404296875" lon="-8.73632264323532581329345703125">
        <ele>8.3999996185302734375</ele>
        <time>2022-11-01T09:39:37.000Z</time>
      </trkpt>
      <trkpt lat="42.3730590753257274627685546875" lon="-8.73633789829909801483154296875">
        <ele>8.3999996185302734375</ele>
        <time>2022-11-01T09:39:38.000Z</time>
      </trkpt>
      <trkpt lat="42.3730154894292354583740234375" lon="-8.7363545782864093780517578125">
        <ele>8.3999996185302734375</ele>
        <time>2022-11-01T09:39:39.000Z</time>
      </trkpt>
      <trkpt lat="42.37298087216913700103759765625" lon="-8.73636589385569095611572265625">
        <ele>8.6000003814697265625</ele>
        <time>2022-11-01T09:39:40.000Z</time>
      </trkpt>
      <trkpt lat="42.3729464225471019744873046875" lon="-8.7363763712346553802490234375">
        <ele>8.80000019073486328125</ele>
        <time>2022-11-01T09:39:41.000Z</time>
      </trkpt>
      <trkpt lat="42.37291247583925724029541015625" lon="-8.73638466931879520416259765625">
        <ele>8.80000019073486328125</ele>
        <time>2022-11-01T09:39:42.000Z</time>
      </trkpt>
      <trkpt lat="42.3728820495307445526123046875" lon="-8.736390955746173858642578125">
        <ele>9</ele>
        <time>2022-11-01T09:39:43.000Z</time>
      </trkpt>
      <trkpt lat="42.37285078503191471099853515625" lon="-8.73639774508774280548095703125">
        <ele>9.19999980926513671875</ele>
        <time>2022-11-01T09:39:44.000Z</time>
      </trkpt>
      <trkpt lat="42.37281717360019683837890625" lon="-8.73640411533415317535400390625">
        <ele>9.3999996185302734375</ele>
        <time>2022-11-01T09:39:45.000Z</time>
      </trkpt>
      <trkpt lat="42.37278163433074951171875" lon="-8.736408054828643798828125">
        <ele>9.80000019073486328125</ele>
        <time>2022-11-01T09:39:46.000Z</time>
      </trkpt>
      <trkpt lat="42.3727526329457759857177734375" lon="-8.73640914447605609893798828125">
        <ele>10</ele>
        <time>2022-11-01T09:39:47.000Z</time>
      </trkpt>
      <trkpt lat="42.372709549963474273681640625" lon="-8.736411742866039276123046875">
        <ele>10.19999980926513671875</ele>
        <time>2022-11-01T09:39:48.000Z</time>
      </trkpt>
      <trkpt lat="42.37267233431339263916015625" lon="-8.73641333542764186859130859375">
        <ele>10.19999980926513671875</ele>
        <time>2022-11-01T09:39:49.000Z</time>
      </trkpt>
      <trkpt lat="42.37263612449169158935546875" lon="-8.73641819693148136138916015625">
        <ele>10.6000003814697265625</ele>
        <time>2022-11-01T09:39:50.000Z</time>
      </trkpt>
      <trkpt lat="42.3726004175841808319091796875" lon="-8.73642406426370143890380859375">
        <ele>10.80000019073486328125</ele>
        <time>2022-11-01T09:39:51.000Z</time>
      </trkpt>
      <trkpt lat="42.37256638705730438232421875" lon="-8.73642859049141407012939453125">
        <ele>11</ele>
        <time>2022-11-01T09:39:52.000Z</time>
      </trkpt>
      <trkpt lat="42.3725336976349353790283203125" lon="-8.7364293448626995086669921875">
        <ele>11.19999980926513671875</ele>
        <time>2022-11-01T09:39:53.000Z</time>
      </trkpt>
      <trkpt lat="42.372501678764820098876953125" lon="-8.73642607592046260833740234375">
        <ele>11.3999996185302734375</ele>
        <time>2022-11-01T09:39:54.000Z</time>
      </trkpt>
      <trkpt lat="42.3724696598947048187255859375" lon="-8.73642406426370143890380859375">
        <ele>11.80000019073486328125</ele>
        <time>2022-11-01T09:39:55.000Z</time>
      </trkpt>
      <trkpt lat="42.37244560383260250091552734375" lon="-8.73642339371144771575927734375">
        <ele>12</ele>
        <time>2022-11-01T09:39:56.000Z</time>
      </trkpt>
      <trkpt lat="42.37241257913410663604736328125" lon="-8.73642188496887683868408203125">
        <ele>12.3999996185302734375</ele>
        <time>2022-11-01T09:39:57.000Z</time>
      </trkpt>
      <trkpt lat="42.37238676287233829498291015625" lon="-8.7364216335117816925048828125">
        <ele>12.6000003814697265625</ele>
        <time>2022-11-01T09:39:58.000Z</time>
      </trkpt>
      <trkpt lat="42.3723603598773479461669921875" lon="-8.7364209629595279693603515625">
        <ele>12.80000019073486328125</ele>
        <time>2022-11-01T09:39:59.000Z</time>
      </trkpt>
      <trkpt lat="42.3723328672349452972412109375" lon="-8.73641786165535449981689453125">
        <ele>13</ele>
        <time>2022-11-01T09:40:00.000Z</time>
      </trkpt>
      <trkpt lat="42.37230227328836917877197265625" lon="-8.73641274869441986083984375">
        <ele>13.3999996185302734375</ele>
        <time>2022-11-01T09:40:01.000Z</time>
      </trkpt>
      <trkpt lat="42.37227058969438076019287109375" lon="-8.73640579171478748321533203125">
        <ele>13.3999996185302734375</ele>
        <time>2022-11-01T09:40:02.000Z</time>
      </trkpt>
      <trkpt lat="42.37224075011909008026123046875" lon="-8.73639774508774280548095703125">
        <ele>13.80000019073486328125</ele>
        <time>2022-11-01T09:40:03.000Z</time>
      </trkpt>
      <trkpt lat="42.37221325747668743133544921875" lon="-8.7363874353468418121337890625">
        <ele>14.19999980926513671875</ele>
        <time>2022-11-01T09:40:04.000Z</time>
      </trkpt>
      <trkpt lat="42.37219079397618770599365234375" lon="-8.736381232738494873046875">
        <ele>14.3999996185302734375</ele>
        <time>2022-11-01T09:40:05.000Z</time>
      </trkpt>
      <trkpt lat="42.37215659581124782562255859375" lon="-8.73637528158724308013916015625">
        <ele>14.80000019073486328125</ele>
        <time>2022-11-01T09:40:06.000Z</time>
      </trkpt>
      <trkpt lat="42.37212591804563999176025390625" lon="-8.73637092299759387969970703125">
        <ele>14.80000019073486328125</ele>
        <time>2022-11-01T09:40:07.000Z</time>
      </trkpt>
      <trkpt lat="42.37209540791809558868408203125" lon="-8.736366145312786102294921875">
        <ele>15.19999980926513671875</ele>
        <time>2022-11-01T09:40:08.000Z</time>
      </trkpt>
      <trkpt lat="42.37206757999956607818603515625" lon="-8.7363646365702152252197265625">
        <ele>15.3999996185302734375</ele>
        <time>2022-11-01T09:40:09.000Z</time>
      </trkpt>
      <trkpt lat="42.37204025499522686004638671875" lon="-8.73636044561862945556640625">
        <ele>16</ele>
        <time>2022-11-01T09:40:10.000Z</time>
      </trkpt>
      <trkpt lat="42.37201460637152194976806640625" lon="-8.736353404819965362548828125">
        <ele>16</ele>
        <time>2022-11-01T09:40:11.000Z</time>
      </trkpt>
      <trkpt lat="42.3719892092049121856689453125" lon="-8.7363455258309841156005859375">
        <ele>16.6000003814697265625</ele>
        <time>2022-11-01T09:40:12.000Z</time>
      </trkpt>
      <trkpt lat="42.3719617165625095367431640625" lon="-8.7363364733755588531494140625">
        <ele>16.799999237060546875</ele>
        <time>2022-11-01T09:40:13.000Z</time>
      </trkpt>
      <trkpt lat="42.37194067798554897308349609375" lon="-8.73633035458624362945556640625">
        <ele>16.799999237060546875</ele>
        <time>2022-11-01T09:40:14.000Z</time>
      </trkpt>
      <trkpt lat="42.3719124309718608856201171875" lon="-8.7363217212259769439697265625">
        <ele>17</ele>
        <time>2022-11-01T09:40:15.000Z</time>
      </trkpt>
      <trkpt lat="42.37187764607369899749755859375" lon="-8.7363093160092830657958984375">
        <ele>17.200000762939453125</ele>
        <time>2022-11-01T09:40:16.000Z</time>
      </trkpt>
      <trkpt lat="42.37184730358421802520751953125" lon="-8.73629850335419178009033203125">
        <ele>17.3999996185302734375</ele>
        <time>2022-11-01T09:40:17.000Z</time>
      </trkpt>
      <trkpt lat="42.371817044913768768310546875" lon="-8.7362875230610370635986328125">
        <ele>17.6000003814697265625</ele>
        <time>2022-11-01T09:40:18.000Z</time>
      </trkpt>
      <trkpt lat="42.371788211166858673095703125" lon="-8.736272267997264862060546875">
        <ele>18.200000762939453125</ele>
        <time>2022-11-01T09:40:19.000Z</time>
      </trkpt>
      <trkpt lat="42.37175258807837963104248046875" lon="-8.73626296408474445343017578125">
        <ele>18.3999996185302734375</ele>
        <time>2022-11-01T09:40:20.000Z</time>
      </trkpt>
      <trkpt lat="42.3717181384563446044921875" lon="-8.736255504190921783447265625">
        <ele>18.799999237060546875</ele>
        <time>2022-11-01T09:40:21.000Z</time>
      </trkpt>
      <trkpt lat="42.37168888561427593231201171875" lon="-8.73625039122998714447021484375">
        <ele>19</ele>
        <time>2022-11-01T09:40:22.000Z</time>
      </trkpt>
      <trkpt lat="42.3716629855334758758544921875" lon="-8.7362484633922576904296875">
        <ele>19.200000762939453125</ele>
        <time>2022-11-01T09:40:23.000Z</time>
      </trkpt>
      <trkpt lat="42.37163406796753406524658203125" lon="-8.736241422593593597412109375">
        <ele>19.799999237060546875</ele>
        <time>2022-11-01T09:40:24.000Z</time>
      </trkpt>
      <trkpt lat="42.3715986125171184539794921875" lon="-8.73623781837522983551025390625">
        <ele>20</ele>
        <time>2022-11-01T09:40:25.000Z</time>
      </trkpt>
      <trkpt lat="42.37157187424600124359130859375" lon="-8.73622809536755084991455078125">
        <ele>20.3999996185302734375</ele>
        <time>2022-11-01T09:40:26.000Z</time>
      </trkpt>
      <trkpt lat="42.37154521979391574859619140625" lon="-8.73621988110244274139404296875">
        <ele>20.799999237060546875</ele>
        <time>2022-11-01T09:40:27.000Z</time>
      </trkpt>
      <trkpt lat="42.37151890061795711517333984375" lon="-8.73620982281863689422607421875">
        <ele>21.200000762939453125</ele>
        <time>2022-11-01T09:40:28.000Z</time>
      </trkpt>
      <trkpt lat="42.3714933358132839202880859375" lon="-8.73619389720261096954345703125">
        <ele>21.3999996185302734375</ele>
        <time>2022-11-01T09:40:29.000Z</time>
      </trkpt>
      <trkpt lat="42.3714671842753887176513671875" lon="-8.7361765466630458831787109375">
        <ele>22</ele>
        <time>2022-11-01T09:40:30.000Z</time>
      </trkpt>
      <trkpt lat="42.37143977545201778411865234375" lon="-8.73616221360862255096435546875">
        <ele>22.200000762939453125</ele>
        <time>2022-11-01T09:40:31.000Z</time>
      </trkpt>
      <trkpt lat="42.37141144461929798126220703125" lon="-8.736147545278072357177734375">
        <ele>22.3999996185302734375</ele>
        <time>2022-11-01T09:40:32.000Z</time>
      </trkpt>
      <trkpt lat="42.37138931639492511749267578125" lon="-8.7361359782516956329345703125">
        <ele>23</ele>
        <time>2022-11-01T09:40:33.000Z</time>
      </trkpt>
      <trkpt lat="42.371356375515460968017578125" lon="-8.73612332157790660858154296875">
        <ele>23</ele>
        <time>2022-11-01T09:40:34.000Z</time>
      </trkpt>
      <trkpt lat="42.37132318317890167236328125" lon="-8.73611158691346645355224609375">
        <ele>23.3999996185302734375</ele>
        <time>2022-11-01T09:40:35.000Z</time>
      </trkpt>
      <trkpt lat="42.37129007466137409210205078125" lon="-8.736099265515804290771484375">
        <ele>23.3999996185302734375</ele>
        <time>2022-11-01T09:40:36.000Z</time>
      </trkpt>
      <trkpt lat="42.37125621177256107330322265625" lon="-8.73608727939426898956298828125">
        <ele>23.6000003814697265625</ele>
        <time>2022-11-01T09:40:37.000Z</time>
      </trkpt>
      <trkpt lat="42.37122930586338043212890625" lon="-8.7360766343772411346435546875">
        <ele>23.799999237060546875</ele>
        <time>2022-11-01T09:40:38.000Z</time>
      </trkpt>
      <trkpt lat="42.3711932636797428131103515625" lon="-8.7360607087612152099609375">
        <ele>24.200000762939453125</ele>
        <time>2022-11-01T09:40:39.000Z</time>
      </trkpt>
      <trkpt lat="42.37116535194218158721923828125" lon="-8.7360471300780773162841796875">
        <ele>24.3999996185302734375</ele>
        <time>2022-11-01T09:40:40.000Z</time>
      </trkpt>
      <trkpt lat="42.371135093271732330322265625" lon="-8.7360333837568759918212890625">
        <ele>24.799999237060546875</ele>
        <time>2022-11-01T09:40:41.000Z</time>
      </trkpt>
      <trkpt lat="42.3711030744016170501708984375" lon="-8.7360172905027866363525390625">
        <ele>25.200000762939453125</ele>
        <time>2022-11-01T09:40:42.000Z</time>
      </trkpt>
      <trkpt lat="42.371072061359882354736328125" lon="-8.73599843122065067291259765625">
        <ele>25.3999996185302734375</ele>
        <time>2022-11-01T09:40:43.000Z</time>
      </trkpt>
      <trkpt lat="42.3710420541465282440185546875" lon="-8.73598066158592700958251953125">
        <ele>25.6000003814697265625</ele>
        <time>2022-11-01T09:40:44.000Z</time>
      </trkpt>
      <trkpt lat="42.371013052761554718017578125" lon="-8.73596624471247196197509765625">
        <ele>25.799999237060546875</ele>
        <time>2022-11-01T09:40:45.000Z</time>
      </trkpt>
      <trkpt lat="42.37098312936723232269287109375" lon="-8.73595098964869976043701171875">
        <ele>26</ele>
        <time>2022-11-01T09:40:46.000Z</time>
      </trkpt>
      <trkpt lat="42.3709590733051300048828125" lon="-8.73594344593584537506103515625">
        <ele>26.200000762939453125</ele>
        <time>2022-11-01T09:40:47.000Z</time>
      </trkpt>
      <trkpt lat="42.37092219293117523193359375" lon="-8.7359264306724071502685546875">
        <ele>26.6000003814697265625</ele>
        <time>2022-11-01T09:40:48.000Z</time>
      </trkpt>
      <trkpt lat="42.37088992260396480560302734375" lon="-8.73590807430446147918701171875">
        <ele>26.799999237060546875</ele>
        <time>2022-11-01T09:40:49.000Z</time>
      </trkpt>
      <trkpt lat="42.370856143534183502197265625" lon="-8.73588980175554752349853515625">
        <ele>27.200000762939453125</ele>
        <time>2022-11-01T09:40:50.000Z</time>
      </trkpt>
      <trkpt lat="42.3708288185298442840576171875" lon="-8.73587471432983875274658203125">
        <ele>27.3999996185302734375</ele>
        <time>2022-11-01T09:40:51.000Z</time>
      </trkpt>
      <trkpt lat="42.37078732810914516448974609375" lon="-8.7358546815812587738037109375">
        <ele>27.6000003814697265625</ele>
        <time>2022-11-01T09:40:52.000Z</time>
      </trkpt>
      <trkpt lat="42.37075346522033214569091796875" lon="-8.73584101907908916473388671875">
        <ele>27.799999237060546875</ele>
        <time>2022-11-01T09:40:53.000Z</time>
      </trkpt>
      <trkpt lat="42.37071909941732883453369140625" lon="-8.7358248420059680938720703125">
        <ele>28</ele>
        <time>2022-11-01T09:40:54.000Z</time>
      </trkpt>
      <trkpt lat="42.3706913553178310394287109375" lon="-8.73580967076122760772705078125">
        <ele>28.200000762939453125</ele>
        <time>2022-11-01T09:40:55.000Z</time>
      </trkpt>
      <trkpt lat="42.37065154127776622772216796875" lon="-8.73578703962266445159912109375">
        <ele>28.3999996185302734375</ele>
        <time>2022-11-01T09:40:56.000Z</time>
      </trkpt>
      <trkpt lat="42.3706189356744289398193359375" lon="-8.735769689083099365234375">
        <ele>28.6000003814697265625</ele>
        <time>2022-11-01T09:40:57.000Z</time>
      </trkpt>
      <trkpt lat="42.3705854080617427825927734375" lon="-8.7357495725154876708984375">
        <ele>28.6000003814697265625</ele>
        <time>2022-11-01T09:40:58.000Z</time>
      </trkpt>
      <trkpt lat="42.3705513775348663330078125" lon="-8.73573238961398601531982421875">
        <ele>28.799999237060546875</ele>
        <time>2022-11-01T09:40:59.000Z</time>
      </trkpt>
      <trkpt lat="42.3705227114260196685791015625" lon="-8.7357209064066410064697265625">
        <ele>29</ele>
        <time>2022-11-01T09:41:00.000Z</time>
      </trkpt>
      <trkpt lat="42.37048625014722347259521484375" lon="-8.73570330440998077392578125">
        <ele>29.200000762939453125</ele>
        <time>2022-11-01T09:41:01.000Z</time>
      </trkpt>
      <trkpt lat="42.37044115550816059112548828125" lon="-8.73568042181432247161865234375">
        <ele>29.3999996185302734375</ele>
        <time>2022-11-01T09:41:02.000Z</time>
      </trkpt>
      <trkpt lat="42.3704040236771106719970703125" lon="-8.7356598861515522003173828125">
        <ele>29.6000003814697265625</ele>
        <time>2022-11-01T09:41:03.000Z</time>
      </trkpt>
      <trkpt lat="42.3703678138554096221923828125" lon="-8.7356377579271793365478515625">
        <ele>29.799999237060546875</ele>
        <time>2022-11-01T09:41:04.000Z</time>
      </trkpt>
      <trkpt lat="42.3703399859368801116943359375" lon="-8.73562342487275600433349609375">
        <ele>29.799999237060546875</ele>
        <time>2022-11-01T09:41:05.000Z</time>
      </trkpt>
      <trkpt lat="42.37030738033354282379150390625" lon="-8.73560607433319091796875">
        <ele>30</ele>
        <time>2022-11-01T09:41:06.000Z</time>
      </trkpt>
      <trkpt lat="42.3702665604650974273681640625" lon="-8.7355821020901203155517578125">
        <ele>30</ele>
        <time>2022-11-01T09:41:07.000Z</time>
      </trkpt>
      <trkpt lat="42.3702313564717769622802734375" lon="-8.73555989004671573638916015625">
        <ele>30.200000762939453125</ele>
        <time>2022-11-01T09:41:08.000Z</time>
      </trkpt>
      <trkpt lat="42.3701927997171878814697265625" lon="-8.73553558252751827239990234375">
        <ele>30.200000762939453125</ele>
        <time>2022-11-01T09:41:09.000Z</time>
      </trkpt>
      <trkpt lat="42.37015717662870883941650390625" lon="-8.7355120293796062469482421875">
        <ele>30.6000003814697265625</ele>
        <time>2022-11-01T09:41:10.000Z</time>
      </trkpt>
      <trkpt lat="42.37012146972119808197021484375" lon="-8.7354867160320281982421875">
        <ele>30.799999237060546875</ele>
        <time>2022-11-01T09:41:11.000Z</time>
      </trkpt>
      <trkpt lat="42.37008534371852874755859375" lon="-8.735463581979274749755859375">
        <ele>31</ele>
        <time>2022-11-01T09:41:12.000Z</time>
      </trkpt>
      <trkpt lat="42.37004913389682769775390625" lon="-8.73543852008879184722900390625">
        <ele>31.200000762939453125</ele>
        <time>2022-11-01T09:41:13.000Z</time>
      </trkpt>
      <trkpt lat="42.370010577142238616943359375" lon="-8.73541169799864292144775390625">
        <ele>31.200000762939453125</ele>
        <time>2022-11-01T09:41:14.000Z</time>
      </trkpt>
      <trkpt lat="42.3699748702347278594970703125" lon="-8.73538387008011341094970703125">
        <ele>31.200000762939453125</ele>
        <time>2022-11-01T09:41:15.000Z</time>
      </trkpt>
      <trkpt lat="42.36994042061269283294677734375" lon="-8.7353557907044887542724609375">
        <ele>31.3999996185302734375</ele>
        <time>2022-11-01T09:41:16.000Z</time>
      </trkpt>
      <trkpt lat="42.369903959333896636962890625" lon="-8.73532779514789581298828125">
        <ele>31.3999996185302734375</ele>
        <time>2022-11-01T09:41:17.000Z</time>
      </trkpt>
      <trkpt lat="42.369866408407688140869140625" lon="-8.73530088923871517181396484375">
        <ele>31.6000003814697265625</ele>
        <time>2022-11-01T09:41:18.000Z</time>
      </trkpt>
      <trkpt lat="42.36983464099466800689697265625" lon="-8.7352773360908031463623046875">
        <ele>31.799999237060546875</ele>
        <time>2022-11-01T09:41:19.000Z</time>
      </trkpt>
      <trkpt lat="42.36978971399366855621337890625" lon="-8.73524473048746585845947265625">
        <ele>31.799999237060546875</ele>
        <time>2022-11-01T09:41:20.000Z</time>
      </trkpt>
      <trkpt lat="42.36975065432488918304443359375" lon="-8.73521916568279266357421875">
        <ele>31.799999237060546875</ele>
        <time>2022-11-01T09:41:21.000Z</time>
      </trkpt>
      <trkpt lat="42.36971109174191951751708984375" lon="-8.73519259504973888397216796875">
        <ele>32</ele>
        <time>2022-11-01T09:41:22.000Z</time>
      </trkpt>
      <trkpt lat="42.3696791566908359527587890625" lon="-8.73517231084406375885009765625">
        <ele>32</ele>
        <time>2022-11-01T09:41:23.000Z</time>
      </trkpt>
      <trkpt lat="42.36963246949017047882080078125" lon="-8.7351407110691070556640625">
        <ele>32.200000762939453125</ele>
        <time>2022-11-01T09:41:24.000Z</time>
      </trkpt>
      <trkpt lat="42.36959391273558139801025390625" lon="-8.73511196114122867584228515625">
        <ele>32.200000762939453125</ele>
        <time>2022-11-01T09:41:25.000Z</time>
      </trkpt>
      <trkpt lat="42.369559295475482940673828125" lon="-8.73508580960333347320556640625">
        <ele>32.200000762939453125</ele>
        <time>2022-11-01T09:41:26.000Z</time>
      </trkpt>
      <trkpt lat="42.3695245943963527679443359375" lon="-8.7350600771605968475341796875">
        <ele>32.40000152587890625</ele>
        <time>2022-11-01T09:41:27.000Z</time>
      </trkpt>
      <trkpt lat="42.3694930784404277801513671875" lon="-8.73503820039331912994384765625">
        <ele>32.40000152587890625</ele>
        <time>2022-11-01T09:41:28.000Z</time>
      </trkpt>
      <trkpt lat="42.369443289935588836669921875" lon="-8.73499897308647632598876953125">
        <ele>32.59999847412109375</ele>
        <time>2022-11-01T09:41:29.000Z</time>
      </trkpt>
      <trkpt lat="42.36940213479101657867431640625" lon="-8.734971396625041961669921875">
        <ele>32.59999847412109375</ele>
        <time>2022-11-01T09:41:30.000Z</time>
      </trkpt>
      <trkpt lat="42.3693616501986980438232421875" lon="-8.7349460832774639129638671875">
        <ele>32.799999237060546875</ele>
        <time>2022-11-01T09:41:31.000Z</time>
      </trkpt>
      <trkpt lat="42.3693217523396015167236328125" lon="-8.73491741716861724853515625">
        <ele>33</ele>
        <time>2022-11-01T09:41:32.000Z</time>
      </trkpt>
      <trkpt lat="42.36927992664277553558349609375" lon="-8.73488699086010456085205078125">
        <ele>33.200000762939453125</ele>
        <time>2022-11-01T09:41:33.000Z</time>
      </trkpt>
      <trkpt lat="42.36924053169786930084228515625" lon="-8.73485782183706760406494140625">
        <ele>33.200000762939453125</ele>
        <time>2022-11-01T09:41:34.000Z</time>
      </trkpt>
      <trkpt lat="42.36920365132391452789306640625" lon="-8.7348295748233795166015625">
        <ele>33.40000152587890625</ele>
        <time>2022-11-01T09:41:35.000Z</time>
      </trkpt>
      <trkpt lat="42.36916475929319858551025390625" lon="-8.73480141162872314453125">
        <ele>33.59999847412109375</ele>
        <time>2022-11-01T09:41:36.000Z</time>
      </trkpt>
      <trkpt lat="42.36912720836699008941650390625" lon="-8.7347760982811450958251953125">
        <ele>33.59999847412109375</ele>
        <time>2022-11-01T09:41:37.000Z</time>
      </trkpt>
      <trkpt lat="42.36908881925046443939208984375" lon="-8.73474868945777416229248046875">
        <ele>33.799999237060546875</ele>
        <time>2022-11-01T09:41:38.000Z</time>
      </trkpt>
      <trkpt lat="42.36905545927584171295166015625" lon="-8.73472438193857669830322265625">
        <ele>33.799999237060546875</ele>
        <time>2022-11-01T09:41:39.000Z</time>
      </trkpt>
      <trkpt lat="42.36901522614061832427978515625" lon="-8.73469613492488861083984375">
        <ele>34</ele>
        <time>2022-11-01T09:41:40.000Z</time>
      </trkpt>
      <trkpt lat="42.36897599883377552032470703125" lon="-8.7346684746444225311279296875">
        <ele>34</ele>
        <time>2022-11-01T09:41:41.000Z</time>
      </trkpt>
      <trkpt lat="42.36893945373594760894775390625" lon="-8.7346416525542736053466796875">
        <ele>34.200000762939453125</ele>
        <time>2022-11-01T09:41:42.000Z</time>
      </trkpt>
      <trkpt lat="42.3688939400017261505126953125" lon="-8.734604604542255401611328125">
        <ele>34.40000152587890625</ele>
        <time>2022-11-01T09:41:43.000Z</time>
      </trkpt>
      <trkpt lat="42.36885244958102703094482421875" lon="-8.73457434587180614471435546875">
        <ele>34.40000152587890625</ele>
        <time>2022-11-01T09:41:44.000Z</time>
      </trkpt>
      <trkpt lat="42.36880785785615444183349609375" lon="-8.7345477752387523651123046875">
        <ele>34.40000152587890625</ele>
        <time>2022-11-01T09:41:45.000Z</time>
      </trkpt>
      <trkpt lat="42.36877315677702426910400390625" lon="-8.73452858068048954010009765625">
        <ele>34.59999847412109375</ele>
        <time>2022-11-01T09:41:46.000Z</time>
      </trkpt>
      <trkpt lat="42.3687212727963924407958984375" lon="-8.73449890874326229095458984375">
        <ele>34.59999847412109375</ele>
        <time>2022-11-01T09:41:47.000Z</time>
      </trkpt>
      <trkpt lat="42.36867777071893215179443359375" lon="-8.734471835196018218994140625">
        <ele>34.59999847412109375</ele>
        <time>2022-11-01T09:41:48.000Z</time>
      </trkpt>
      <trkpt lat="42.3686327598989009857177734375" lon="-8.73445129953324794769287109375">
        <ele>34.59999847412109375</ele>
        <time>2022-11-01T09:41:49.000Z</time>
      </trkpt>
      <trkpt lat="42.36858473159372806549072265625" lon="-8.73443285934627056121826171875">
        <ele>34.59999847412109375</ele>
        <time>2022-11-01T09:41:50.000Z</time>
      </trkpt>
      <trkpt lat="42.3685429058969020843505859375" lon="-8.7344250641763210296630859375">
        <ele>34.59999847412109375</ele>
        <time>2022-11-01T09:41:51.000Z</time>
      </trkpt>
      <trkpt lat="42.3684807121753692626953125" lon="-8.734417520463466644287109375">
        <ele>34.59999847412109375</ele>
        <time>2022-11-01T09:41:52.000Z</time>
      </trkpt>
      <trkpt lat="42.36842933110892772674560546875" lon="-8.73441140167415142059326171875">
        <ele>34.59999847412109375</ele>
        <time>2022-11-01T09:41:53.000Z</time>
      </trkpt>
      <trkpt lat="42.36837652511894702911376953125" lon="-8.7344096414744853973388671875">
        <ele>34.59999847412109375</ele>
        <time>2022-11-01T09:41:54.000Z</time>
      </trkpt>
      <trkpt lat="42.36832447350025177001953125" lon="-8.73441358096897602081298828125">
        <ele>34.59999847412109375</ele>
        <time>2022-11-01T09:41:55.000Z</time>
      </trkpt>
      <trkpt lat="42.36827242188155651092529296875" lon="-8.73441676609218120574951171875">
        <ele>34.59999847412109375</ele>
        <time>2022-11-01T09:41:56.000Z</time>
      </trkpt>
      <trkpt lat="42.36821508966386318206787109375" lon="-8.734418191015720367431640625">
        <ele>34.59999847412109375</ele>
        <time>2022-11-01T09:41:57.000Z</time>
      </trkpt>
      <trkpt lat="42.3681549914181232452392578125" lon="-8.734422884881496429443359375">
        <ele>34.59999847412109375</ele>
        <time>2022-11-01T09:41:58.000Z</time>
      </trkpt>
      <trkpt lat="42.36809380352497100830078125" lon="-8.734428584575653076171875">
        <ele>34.59999847412109375</ele>
        <time>2022-11-01T09:41:59.000Z</time>
      </trkpt>
      <trkpt lat="42.3680336214601993560791015625" lon="-8.734432272613048553466796875">
        <ele>34.40000152587890625</ele>
        <time>2022-11-01T09:42:00.000Z</time>
      </trkpt>
      <trkpt lat="42.367972098290920257568359375" lon="-8.7344331108033657073974609375">
        <ele>34.200000762939453125</ele>
        <time>2022-11-01T09:42:01.000Z</time>
      </trkpt>
      <trkpt lat="42.36790982075035572052001953125" lon="-8.73443285934627056121826171875">
        <ele>34</ele>
        <time>2022-11-01T09:42:02.000Z</time>
      </trkpt>
      <trkpt lat="42.3678477108478546142578125" lon="-8.73442766256630420684814453125">
        <ele>34</ele>
        <time>2022-11-01T09:42:03.000Z</time>
      </trkpt>
      <trkpt lat="42.3677861876785755157470703125" lon="-8.73442347161471843719482421875">
        <ele>33.799999237060546875</ele>
        <time>2022-11-01T09:42:04.000Z</time>
      </trkpt>
      <trkpt lat="42.36772231757640838623046875" lon="-8.7344186939299106597900390625">
        <ele>33.799999237060546875</ele>
        <time>2022-11-01T09:42:05.000Z</time>
      </trkpt>
      <trkpt lat="42.36765794456005096435546875" lon="-8.73441274277865886688232421875">
        <ele>33.59999847412109375</ele>
        <time>2022-11-01T09:42:06.000Z</time>
      </trkpt>
      <trkpt lat="42.3675954155623912811279296875" lon="-8.73440335504710674285888671875">
        <ele>33.59999847412109375</ele>
        <time>2022-11-01T09:42:07.000Z</time>
      </trkpt>
      <trkpt lat="42.36753246746957302093505859375" lon="-8.73439346440136432647705078125">
        <ele>33.59999847412109375</ele>
        <time>2022-11-01T09:42:08.000Z</time>
      </trkpt>
      <trkpt lat="42.36748217605054378509521484375" lon="-8.734387345612049102783203125">
        <ele>33.40000152587890625</ele>
        <time>2022-11-01T09:42:09.000Z</time>
      </trkpt>
      <trkpt lat="42.36742182634770870208740234375" lon="-8.7343787960708141326904296875">
        <ele>33.40000152587890625</ele>
        <time>2022-11-01T09:42:10.000Z</time>
      </trkpt>
      <trkpt lat="42.367350496351718902587890625" lon="-8.734367229044437408447265625">
        <ele>33.40000152587890625</ele>
        <time>2022-11-01T09:42:11.000Z</time>
      </trkpt>
      <trkpt lat="42.36729316413402557373046875" lon="-8.73435809276998043060302734375">
        <ele>33.40000152587890625</ele>
        <time>2022-11-01T09:42:12.000Z</time>
      </trkpt>
      <trkpt lat="42.3672380112111568450927734375" lon="-8.7343482859432697296142578125">
        <ele>33.40000152587890625</ele>
        <time>2022-11-01T09:42:13.000Z</time>
      </trkpt>
      <trkpt lat="42.3671825230121612548828125" lon="-8.73433747328817844390869140625">
        <ele>33.40000152587890625</ele>
        <time>2022-11-01T09:42:14.000Z</time>
      </trkpt>
      <trkpt lat="42.367130555212497711181640625" lon="-8.73432355932891368865966796875">
        <ele>33.40000152587890625</ele>
        <time>2022-11-01T09:42:15.000Z</time>
      </trkpt>
      <trkpt lat="42.36708085052669048309326171875" lon="-8.7343110702931880950927734375">
        <ele>33.40000152587890625</ele>
        <time>2022-11-01T09:42:16.000Z</time>
      </trkpt>
      <trkpt lat="42.3670341633260250091552734375" lon="-8.734299503266811370849609375">
        <ele>33.40000152587890625</ele>
        <time>2022-11-01T09:42:17.000Z</time>
      </trkpt>
      <trkpt lat="42.3669919185340404510498046875" lon="-8.7342839129269123077392578125">
        <ele>33.40000152587890625</ele>
        <time>2022-11-01T09:42:18.000Z</time>
      </trkpt>
      <trkpt lat="42.36696216277778148651123046875" lon="-8.7342718429863452911376953125">
        <ele>33.40000152587890625</ele>
        <time>2022-11-01T09:42:19.000Z</time>
      </trkpt>
      <trkpt lat="42.36692695878446102142333984375" lon="-8.73425533063709735870361328125">
        <ele>33.40000152587890625</ele>
        <time>2022-11-01T09:42:20.000Z</time>
      </trkpt>
      <trkpt lat="42.36690935678780078887939453125" lon="-8.73424359597265720367431640625">
        <ele>33.59999847412109375</ele>
        <time>2022-11-01T09:42:21.000Z</time>
      </trkpt>
      <trkpt lat="42.3669023998081684112548828125" lon="-8.7342376448214054107666015625">
        <ele>33.799999237060546875</ele>
        <time>2022-11-01T09:42:22.000Z</time>
      </trkpt>
      <trkpt lat="42.3669023998081684112548828125" lon="-8.7342376448214054107666015625">
        <ele>33.799999237060546875</ele>
        <time>2022-11-01T09:42:23.000Z</time>
      </trkpt>
      <trkpt lat="42.3669023998081684112548828125" lon="-8.7342376448214054107666015625">
        <ele>34</ele>
        <time>2022-11-01T09:42:24.000Z</time>
      </trkpt>
      <trkpt lat="42.36688471399247646331787109375" lon="-8.73422004282474517822265625">
        <ele>34.200000762939453125</ele>
        <time>2022-11-01T09:43:01.000Z</time>
      </trkpt>
      <trkpt lat="42.3668633401393890380859375" lon="-8.73419950716197490692138671875">
        <ele>34.200000762939453125</ele>
        <time>2022-11-01T09:43:02.000Z</time>
      </trkpt>
      <trkpt lat="42.36684389412403106689453125" lon="-8.734176121652126312255859375">
        <ele>34.200000762939453125</ele>
        <time>2022-11-01T09:43:03.000Z</time>
      </trkpt>
      <trkpt lat="42.36682184971868991851806640625" lon="-8.734163381159305572509765625">
        <ele>34.200000762939453125</ele>
        <time>2022-11-01T09:43:04.000Z</time>
      </trkpt>
      <trkpt lat="42.36680659465491771697998046875" lon="-8.73414552770555019378662109375">
        <ele>34.200000762939453125</ele>
        <time>2022-11-01T09:43:05.000Z</time>
      </trkpt>
      <trkpt lat="42.366802990436553955078125" lon="-8.73412080109119415283203125">
        <ele>34.200000762939453125</ele>
        <time>2022-11-01T09:43:06.000Z</time>
      </trkpt>
      <trkpt lat="42.3668071813881397247314453125" lon="-8.7340971641242504119873046875">
        <ele>34.200000762939453125</ele>
        <time>2022-11-01T09:43:07.000Z</time>
      </trkpt>
      <trkpt lat="42.36681640148162841796875" lon="-8.73407654464244842529296875">
        <ele>34.200000762939453125</ele>
        <time>2022-11-01T09:43:08.000Z</time>
      </trkpt>
      <trkpt lat="42.36682469956576824188232421875" lon="-8.73406179249286651611328125">
        <ele>34.40000152587890625</ele>
        <time>2022-11-01T09:43:09.000Z</time>
      </trkpt>
      <trkpt lat="42.3668400384485721588134765625" lon="-8.734049387276172637939453125">
        <ele>34.40000152587890625</ele>
        <time>2022-11-01T09:43:10.000Z</time>
      </trkpt>
      <trkpt lat="42.366858981549739837646484375" lon="-8.7340334616601467132568359375">
        <ele>34.40000152587890625</ele>
        <time>2022-11-01T09:43:11.000Z</time>
      </trkpt>
      <trkpt lat="42.36687063239514827728271484375" lon="-8.73401619493961334228515625">
        <ele>34.59999847412109375</ele>
        <time>2022-11-01T09:43:12.000Z</time>
      </trkpt>
      <trkpt lat="42.3668809421360492706298828125" lon="-8.73399800620973110198974609375">
        <ele>34.59999847412109375</ele>
        <time>2022-11-01T09:43:13.000Z</time>
      </trkpt>
      <trkpt lat="42.36689611338078975677490234375" lon="-8.73397839255630970001220703125">
        <ele>34.59999847412109375</ele>
        <time>2022-11-01T09:43:14.000Z</time>
      </trkpt>
      <trkpt lat="42.36691622994840145111083984375" lon="-8.73395827598869800567626953125">
        <ele>34.799999237060546875</ele>
        <time>2022-11-01T09:43:15.000Z</time>
      </trkpt>
      <trkpt lat="42.36693701706826686859130859375" lon="-8.7339390814304351806640625">
        <ele>34.799999237060546875</ele>
        <time>2022-11-01T09:43:16.000Z</time>
      </trkpt>
      <trkpt lat="42.3669600673019886016845703125" lon="-8.73391561210155487060546875">
        <ele>35</ele>
        <time>2022-11-01T09:43:17.000Z</time>
      </trkpt>
      <trkpt lat="42.3669826984405517578125" lon="-8.7338943220674991607666015625">
        <ele>35</ele>
        <time>2022-11-01T09:43:18.000Z</time>
      </trkpt>
      <trkpt lat="42.36701019108295440673828125" lon="-8.73386909253895282745361328125">
        <ele>35</ele>
        <time>2022-11-01T09:43:19.000Z</time>
      </trkpt>
      <trkpt lat="42.36704179085791110992431640625" lon="-8.7338396720588207244873046875">
        <ele>35.200000762939453125</ele>
        <time>2022-11-01T09:43:20.000Z</time>
      </trkpt>
      <trkpt lat="42.3670650087296962738037109375" lon="-8.7338158674538135528564453125">
        <ele>35.200000762939453125</ele>
        <time>2022-11-01T09:43:21.000Z</time>
      </trkpt>
      <trkpt lat="42.3670955188572406768798828125" lon="-8.73378292657434940338134765625">
        <ele>35.40000152587890625</ele>
        <time>2022-11-01T09:43:22.000Z</time>
      </trkpt>
      <trkpt lat="42.36712820827960968017578125" lon="-8.73375258408486843109130859375">
        <ele>35.40000152587890625</ele>
        <time>2022-11-01T09:43:23.000Z</time>
      </trkpt>
      <trkpt lat="42.3671615682542324066162109375" lon="-8.733725510537624359130859375">
        <ele>35.59999847412109375</ele>
        <time>2022-11-01T09:43:24.000Z</time>
      </trkpt>
      <trkpt lat="42.36720473505556583404541015625" lon="-8.73369298875331878662109375">
        <ele>35.59999847412109375</ele>
        <time>2022-11-01T09:43:25.000Z</time>
      </trkpt>
      <trkpt lat="42.36724245361983776092529296875" lon="-8.733659796416759490966796875">
        <ele>36</ele>
        <time>2022-11-01T09:43:26.000Z</time>
      </trkpt>
      <trkpt lat="42.367279417812824249267578125" lon="-8.73362459242343902587890625">
        <ele>36.40000152587890625</ele>
        <time>2022-11-01T09:43:27.000Z</time>
      </trkpt>
      <trkpt lat="42.36730414442718029022216796875" lon="-8.73359684832394123077392578125">
        <ele>36.59999847412109375</ele>
        <time>2022-11-01T09:43:28.000Z</time>
      </trkpt>
      <trkpt lat="42.36733901314437389373779296875" lon="-8.73356482945382595062255859375">
        <ele>36.799999237060546875</ele>
        <time>2022-11-01T09:43:29.000Z</time>
      </trkpt>
      <trkpt lat="42.36737472005188465118408203125" lon="-8.7335342355072498321533203125">
        <ele>37</ele>
        <time>2022-11-01T09:43:30.000Z</time>
      </trkpt>
      <trkpt lat="42.367416210472583770751953125" lon="-8.733495511114597320556640625">
        <ele>37.40000152587890625</ele>
        <time>2022-11-01T09:43:31.000Z</time>
      </trkpt>
      <trkpt lat="42.36745149828493595123291015625" lon="-8.73346173204481601715087890625">
        <ele>37.59999847412109375</ele>
        <time>2022-11-01T09:43:32.000Z</time>
      </trkpt>
      <trkpt lat="42.3674784041941165924072265625" lon="-8.7334336526691913604736328125">
        <ele>37.799999237060546875</ele>
        <time>2022-11-01T09:43:33.000Z</time>
      </trkpt>
      <trkpt lat="42.36751285381615161895751953125" lon="-8.73339987359941005706787109375">
        <ele>37.799999237060546875</ele>
        <time>2022-11-01T09:43:34.000Z</time>
      </trkpt>
      <trkpt lat="42.36755694262683391571044921875" lon="-8.7333608977496623992919921875">
        <ele>38.40000152587890625</ele>
        <time>2022-11-01T09:43:35.000Z</time>
      </trkpt>
      <trkpt lat="42.3675930686295032501220703125" lon="-8.73332745395600795745849609375">
        <ele>38.799999237060546875</ele>
        <time>2022-11-01T09:43:36.000Z</time>
      </trkpt>
      <trkpt lat="42.36762315966188907623291015625" lon="-8.73330004513263702392578125">
        <ele>39</ele>
        <time>2022-11-01T09:43:37.000Z</time>
      </trkpt>
      <trkpt lat="42.36766138114035129547119140625" lon="-8.7332653440535068511962890625">
        <ele>39.40000152587890625</ele>
        <time>2022-11-01T09:43:38.000Z</time>
      </trkpt>
      <trkpt lat="42.36770513467490673065185546875" lon="-8.73322301544249057769775390625">
        <ele>39.59999847412109375</ele>
        <time>2022-11-01T09:43:39.000Z</time>
      </trkpt>
      <trkpt lat="42.367739416658878326416015625" lon="-8.73318999074399471282958984375">
        <ele>39.799999237060546875</ele>
        <time>2022-11-01T09:43:40.000Z</time>
      </trkpt>
      <trkpt lat="42.367773950099945068359375" lon="-8.73315612785518169403076171875">
        <ele>40.200000762939453125</ele>
        <time>2022-11-01T09:43:41.000Z</time>
      </trkpt>
      <trkpt lat="42.3678019456565380096435546875" lon="-8.7331275455653667449951171875">
        <ele>40.40000152587890625</ele>
        <time>2022-11-01T09:43:42.000Z</time>
      </trkpt>
      <trkpt lat="42.3678369820117950439453125" lon="-8.73309359885752201080322265625">
        <ele>40.59999847412109375</ele>
        <time>2022-11-01T09:43:43.000Z</time>
      </trkpt>
      <trkpt lat="42.3678780533373355865478515625" lon="-8.7330547906458377838134765625">
        <ele>41</ele>
        <time>2022-11-01T09:43:44.000Z</time>
      </trkpt>
      <trkpt lat="42.36791065894067287445068359375" lon="-8.73302034102380275726318359375">
        <ele>41.200000762939453125</ele>
        <time>2022-11-01T09:43:45.000Z</time>
      </trkpt>
      <trkpt lat="42.36794334836304187774658203125" lon="-8.73298647813498973846435546875">
        <ele>41.59999847412109375</ele>
        <time>2022-11-01T09:43:46.000Z</time>
      </trkpt>
      <trkpt lat="42.3679695837199687957763671875" lon="-8.7329614162445068359375">
        <ele>42</ele>
        <time>2022-11-01T09:43:47.000Z</time>
      </trkpt>
      <trkpt lat="42.3680044524371623992919921875" lon="-8.7329297326505184173583984375">
        <ele>42.200000762939453125</ele>
        <time>2022-11-01T09:43:48.000Z</time>
      </trkpt>
      <trkpt lat="42.36804409883916378021240234375" lon="-8.7328935228288173675537109375">
        <ele>42.59999847412109375</ele>
        <time>2022-11-01T09:43:49.000Z</time>
      </trkpt>
      <trkpt lat="42.368076704442501068115234375" lon="-8.73286494053900241851806640625">
        <ele>42.799999237060546875</ele>
        <time>2022-11-01T09:43:50.000Z</time>
      </trkpt>
      <trkpt lat="42.36810562200844287872314453125" lon="-8.7328432314097881317138671875">
        <ele>43</ele>
        <time>2022-11-01T09:43:51.000Z</time>
      </trkpt>
      <trkpt lat="42.3681392334401607513427734375" lon="-8.732813894748687744140625">
        <ele>43.200000762939453125</ele>
        <time>2022-11-01T09:43:52.000Z</time>
      </trkpt>
      <trkpt lat="42.36817602999508380889892578125" lon="-8.7327801994979381561279296875">
        <ele>43.59999847412109375</ele>
        <time>2022-11-01T09:43:53.000Z</time>
      </trkpt>
      <trkpt lat="42.36820570193231105804443359375" lon="-8.7327520363032817840576171875">
        <ele>44</ele>
        <time>2022-11-01T09:43:54.000Z</time>
      </trkpt>
      <trkpt lat="42.36823461949825286865234375" lon="-8.73272546567022800445556640625">
        <ele>44.200000762939453125</ele>
        <time>2022-11-01T09:43:55.000Z</time>
      </trkpt>
      <trkpt lat="42.36826001666486263275146484375" lon="-8.7327040918171405792236328125">
        <ele>44.59999847412109375</ele>
        <time>2022-11-01T09:43:56.000Z</time>
      </trkpt>
      <trkpt lat="42.36829228699207305908203125" lon="-8.73267768882215023040771484375">
        <ele>45</ele>
        <time>2022-11-01T09:43:57.000Z</time>
      </trkpt>
      <trkpt lat="42.36832958646118640899658203125" lon="-8.73264701105654239654541015625">
        <ele>45.200000762939453125</ele>
        <time>2022-11-01T09:43:58.000Z</time>
      </trkpt>
      <trkpt lat="42.368353307247161865234375" lon="-8.732621781527996063232421875">
        <ele>45.40000152587890625</ele>
        <time>2022-11-01T09:43:59.000Z</time>
      </trkpt>
      <trkpt lat="42.368384487926959991455078125" lon="-8.73258783482015132904052734375">
        <ele>45.59999847412109375</ele>
        <time>2022-11-01T09:44:00.000Z</time>
      </trkpt>
      <trkpt lat="42.3684163391590118408203125" lon="-8.7325562350451946258544921875">
        <ele>45.799999237060546875</ele>
        <time>2022-11-01T09:44:01.000Z</time>
      </trkpt>
      <trkpt lat="42.36844827421009540557861328125" lon="-8.73252647928893566131591796875">
        <ele>46.200000762939453125</ele>
        <time>2022-11-01T09:44:02.000Z</time>
      </trkpt>
      <trkpt lat="42.36847945488989353179931640625" lon="-8.73249932192265987396240234375">
        <ele>46.40000152587890625</ele>
        <time>2022-11-01T09:44:03.000Z</time>
      </trkpt>
      <trkpt lat="42.36851281486451625823974609375" lon="-8.73247300274670124053955078125">
        <ele>46.799999237060546875</ele>
        <time>2022-11-01T09:44:04.000Z</time>
      </trkpt>
      <trkpt lat="42.3685543052852153778076171875" lon="-8.7324422411620616912841796875">
        <ele>47</ele>
        <time>2022-11-01T09:44:05.000Z</time>
      </trkpt>
      <trkpt lat="42.36858188174664974212646484375" lon="-8.732416927814483642578125">
        <ele>47.200000762939453125</ele>
        <time>2022-11-01T09:44:06.000Z</time>
      </trkpt>
      <trkpt lat="42.36861742101609706878662109375" lon="-8.73238130472600460052490234375">
        <ele>47.40000152587890625</ele>
        <time>2022-11-01T09:44:07.000Z</time>
      </trkpt>
      <trkpt lat="42.3686625994741916656494140625" lon="-8.732341490685939788818359375">
        <ele>47.59999847412109375</ele>
        <time>2022-11-01T09:44:08.000Z</time>
      </trkpt>
      <trkpt lat="42.3687031678855419158935546875" lon="-8.7323131598532199859619140625">
        <ele>48.200000762939453125</ele>
        <time>2022-11-01T09:44:09.000Z</time>
      </trkpt>
      <trkpt lat="42.36874247901141643524169921875" lon="-8.7322843261063098907470703125">
        <ele>48.200000762939453125</ele>
        <time>2022-11-01T09:44:10.000Z</time>
      </trkpt>
      <trkpt lat="42.36877215094864368438720703125" lon="-8.7322581745684146881103515625">
        <ele>48.59999847412109375</ele>
        <time>2022-11-01T09:44:11.000Z</time>
      </trkpt>
      <trkpt lat="42.36881054006516933441162109375" lon="-8.73222406022250652313232421875">
        <ele>48.59999847412109375</ele>
        <time>2022-11-01T09:44:12.000Z</time>
      </trkpt>
      <trkpt lat="42.3688493482768535614013671875" lon="-8.73218969441950321197509765625">
        <ele>48.799999237060546875</ele>
        <time>2022-11-01T09:44:13.000Z</time>
      </trkpt>
      <trkpt lat="42.3688925988972187042236328125" lon="-8.7321451865136623382568359375">
        <ele>48.799999237060546875</ele>
        <time>2022-11-01T09:44:14.000Z</time>
      </trkpt>
      <trkpt lat="42.36892017535865306854248046875" lon="-8.73211450874805450439453125">
        <ele>49.200000762939453125</ele>
        <time>2022-11-01T09:44:15.000Z</time>
      </trkpt>
      <trkpt lat="42.36895755864679813385009765625" lon="-8.73208039440214633941650390625">
        <ele>49.40000152587890625</ele>
        <time>2022-11-01T09:44:16.000Z</time>
      </trkpt>
      <trkpt lat="42.3689983785152435302734375" lon="-8.7320456095039844512939453125">
        <ele>49.59999847412109375</ele>
        <time>2022-11-01T09:44:17.000Z</time>
      </trkpt>
      <trkpt lat="42.369039952754974365234375" lon="-8.73200948350131511688232421875">
        <ele>49.799999237060546875</ele>
        <time>2022-11-01T09:44:18.000Z</time>
      </trkpt>
      <trkpt lat="42.36908127553761005401611328125" lon="-8.7319721840322017669677734375">
        <ele>50</ele>
        <time>2022-11-01T09:44:19.000Z</time>
      </trkpt>
      <trkpt lat="42.36912335269153118133544921875" lon="-8.73193505220115184783935546875">
        <ele>50.200000762939453125</ele>
        <time>2022-11-01T09:44:20.000Z</time>
      </trkpt>
      <trkpt lat="42.3691661842167377471923828125" lon="-8.7318957410752773284912109375">
        <ele>50.200000762939453125</ele>
        <time>2022-11-01T09:44:21.000Z</time>
      </trkpt>
      <trkpt lat="42.369207926094532012939453125" lon="-8.73185827396810054779052734375">
        <ele>50.40000152587890625</ele>
        <time>2022-11-01T09:44:22.000Z</time>
      </trkpt>
      <trkpt lat="42.3692496679723262786865234375" lon="-8.7318209744989871978759765625">
        <ele>50.40000152587890625</ele>
        <time>2022-11-01T09:44:23.000Z</time>
      </trkpt>
      <trkpt lat="42.36929182894527912139892578125" lon="-8.7317824177443981170654296875">
        <ele>50.59999847412109375</ele>
        <time>2022-11-01T09:44:24.000Z</time>
      </trkpt>
      <trkpt lat="42.36934077925980091094970703125" lon="-8.73173304833471775054931640625">
        <ele>50.799999237060546875</ele>
        <time>2022-11-01T09:44:25.000Z</time>
      </trkpt>
      <trkpt lat="42.36937631852924823760986328125" lon="-8.73170270584523677825927734375">
        <ele>50.799999237060546875</ele>
        <time>2022-11-01T09:44:26.000Z</time>
      </trkpt>
      <trkpt lat="42.3694219999015331268310546875" lon="-8.731666915118694305419921875">
        <ele>51</ele>
        <time>2022-11-01T09:44:27.000Z</time>
      </trkpt>
      <trkpt lat="42.36946642398834228515625" lon="-8.73163213022053241729736328125">
        <ele>51.200000762939453125</ele>
        <time>2022-11-01T09:44:28.000Z</time>
      </trkpt>
      <trkpt lat="42.36950858496129512786865234375" lon="-8.73159416019916534423828125">
        <ele>51.40000152587890625</ele>
        <time>2022-11-01T09:44:29.000Z</time>
      </trkpt>
      <trkpt lat="42.36954932101070880889892578125" lon="-8.73155317269265651702880859375">
        <ele>51.40000152587890625</ele>
        <time>2022-11-01T09:44:30.000Z</time>
      </trkpt>
      <trkpt lat="42.36959408037364482879638671875" lon="-8.73151101171970367431640625">
        <ele>51.59999847412109375</ele>
        <time>2022-11-01T09:44:31.000Z</time>
      </trkpt>
      <trkpt lat="42.36964168958365917205810546875" lon="-8.73146885074675083160400390625">
        <ele>51.59999847412109375</ele>
        <time>2022-11-01T09:44:32.000Z</time>
      </trkpt>
      <trkpt lat="42.3696882091462612152099609375" lon="-8.73142761178314685821533203125">
        <ele>51.59999847412109375</ele>
        <time>2022-11-01T09:44:33.000Z</time>
      </trkpt>
      <trkpt lat="42.3697334714233875274658203125" lon="-8.7313854508101940155029296875">
        <ele>51.799999237060546875</ele>
        <time>2022-11-01T09:44:34.000Z</time>
      </trkpt>
      <trkpt lat="42.36978284083306789398193359375" lon="-8.7313442118465900421142578125">
        <ele>51.799999237060546875</ele>
        <time>2022-11-01T09:44:35.000Z</time>
      </trkpt>
      <trkpt lat="42.36983145587146282196044921875" lon="-8.7313033081591129302978515625">
        <ele>52</ele>
        <time>2022-11-01T09:44:36.000Z</time>
      </trkpt>
      <trkpt lat="42.3698907159268856048583984375" lon="-8.7312459759414196014404296875">
        <ele>52</ele>
        <time>2022-11-01T09:44:37.000Z</time>
      </trkpt>
      <trkpt lat="42.3699416778981685638427734375" lon="-8.73120096512138843536376953125">
        <ele>52</ele>
        <time>2022-11-01T09:44:38.000Z</time>
      </trkpt>
      <trkpt lat="42.3699916340410709381103515625" lon="-8.73115553520619869232177734375">
        <ele>52</ele>
        <time>2022-11-01T09:44:39.000Z</time>
      </trkpt>
      <trkpt lat="42.370042763650417327880859375" lon="-8.7311065010726451873779296875">
        <ele>52.200000762939453125</ele>
        <time>2022-11-01T09:44:40.000Z</time>
      </trkpt>
      <trkpt lat="42.37009833566844463348388671875" lon="-8.73105981387197971343994140625">
        <ele>52.200000762939453125</ele>
        <time>2022-11-01T09:44:41.000Z</time>
      </trkpt>
      <trkpt lat="42.3701542429625988006591796875" lon="-8.7310126237571239471435546875">
        <ele>52.200000762939453125</ele>
        <time>2022-11-01T09:44:42.000Z</time>
      </trkpt>
      <trkpt lat="42.3702075518667697906494140625" lon="-8.73096090741455554962158203125">
        <ele>52.200000762939453125</ele>
        <time>2022-11-01T09:44:43.000Z</time>
      </trkpt>
      <trkpt lat="42.37025977112352848052978515625" lon="-8.73090893961489200592041015625">
        <ele>52.200000762939453125</ele>
        <time>2022-11-01T09:44:44.000Z</time>
      </trkpt>
      <trkpt lat="42.37031291238963603973388671875" lon="-8.73085789382457733154296875">
        <ele>52.40000152587890625</ele>
        <time>2022-11-01T09:44:45.000Z</time>
      </trkpt>
      <trkpt lat="42.37036990933120250701904296875" lon="-8.7308094464242458343505859375">
        <ele>52.40000152587890625</ele>
        <time>2022-11-01T09:44:46.000Z</time>
      </trkpt>
      <trkpt lat="42.370414920151233673095703125" lon="-8.7307702191174030303955078125">
        <ele>52.59999847412109375</ele>
        <time>2022-11-01T09:44:47.000Z</time>
      </trkpt>
      <trkpt lat="42.37048021517693996429443359375" lon="-8.73070727102458477020263671875">
        <ele>52.799999237060546875</ele>
        <time>2022-11-01T09:44:48.000Z</time>
      </trkpt>
      <trkpt lat="42.3705341108143329620361328125" lon="-8.7306562252342700958251953125">
        <ele>53</ele>
        <time>2022-11-01T09:44:49.000Z</time>
      </trkpt>
      <trkpt lat="42.37059001810848712921142578125" lon="-8.73060584999620914459228515625">
        <ele>53.200000762939453125</ele>
        <time>2022-11-01T09:44:50.000Z</time>
      </trkpt>
      <trkpt lat="42.3706467635929584503173828125" lon="-8.730554468929767608642578125">
        <ele>53.40000152587890625</ele>
        <time>2022-11-01T09:44:51.000Z</time>
      </trkpt>
      <trkpt lat="42.37070619128644466400146484375" lon="-8.7305046804249286651611328125">
        <ele>53.40000152587890625</ele>
        <time>2022-11-01T09:44:52.000Z</time>
      </trkpt>
      <trkpt lat="42.37076385878026485443115234375" lon="-8.73045413754880428314208984375">
        <ele>53.40000152587890625</ele>
        <time>2022-11-01T09:44:53.000Z</time>
      </trkpt>
      <trkpt lat="42.3708207719027996063232421875" lon="-8.73040401376783847808837890625">
        <ele>53.59999847412109375</ele>
        <time>2022-11-01T09:44:54.000Z</time>
      </trkpt>
      <trkpt lat="42.37087952904403209686279296875" lon="-8.73035556636750698089599609375">
        <ele>53.59999847412109375</ele>
        <time>2022-11-01T09:44:55.000Z</time>
      </trkpt>
      <trkpt lat="42.37092621624469757080078125" lon="-8.73031474649906158447265625">
        <ele>53.799999237060546875</ele>
        <time>2022-11-01T09:44:56.000Z</time>
      </trkpt>
      <trkpt lat="42.37099536694586277008056640625" lon="-8.73025213368237018585205078125">
        <ele>53.799999237060546875</ele>
        <time>2022-11-01T09:44:57.000Z</time>
      </trkpt>
      <trkpt lat="42.3710507713258266448974609375" lon="-8.7301979027688503265380859375">
        <ele>54</ele>
        <time>2022-11-01T09:44:58.000Z</time>
      </trkpt>
      <trkpt lat="42.37110299058258533477783203125" lon="-8.730140738189220428466796875">
        <ele>54.200000762939453125</ele>
        <time>2022-11-01T09:44:59.000Z</time>
      </trkpt>
      <trkpt lat="42.3711594007909297943115234375" lon="-8.73008701018989086151123046875">
        <ele>54.40000152587890625</ele>
        <time>2022-11-01T09:45:00.000Z</time>
      </trkpt>
      <trkpt lat="42.37121731974184513092041015625" lon="-8.73003588058054447174072265625">
        <ele>54.40000152587890625</ele>
        <time>2022-11-01T09:45:01.000Z</time>
      </trkpt>
      <trkpt lat="42.37127356231212615966796875" lon="-8.7299826554954051971435546875">
        <ele>54.799999237060546875</ele>
        <time>2022-11-01T09:45:02.000Z</time>
      </trkpt>
      <trkpt lat="42.3713297210633754730224609375" lon="-8.72992993332445621490478515625">
        <ele>54.799999237060546875</ele>
        <time>2022-11-01T09:45:03.000Z</time>
      </trkpt>
      <trkpt lat="42.37138353288173675537109375" lon="-8.72987628914415836334228515625">
        <ele>55</ele>
        <time>2022-11-01T09:45:04.000Z</time>
      </trkpt>
      <trkpt lat="42.37144120037555694580078125" lon="-8.7298284284770488739013671875">
        <ele>55.200000762939453125</ele>
        <time>2022-11-01T09:45:05.000Z</time>
      </trkpt>
      <trkpt lat="42.3714990355074405670166015625" lon="-8.729777634143829345703125">
        <ele>55.200000762939453125</ele>
        <time>2022-11-01T09:45:06.000Z</time>
      </trkpt>
      <trkpt lat="42.37155787646770477294921875" lon="-8.729727007448673248291015625">
        <ele>55.40000152587890625</ele>
        <time>2022-11-01T09:45:07.000Z</time>
      </trkpt>
      <trkpt lat="42.3716147057712078094482421875" lon="-8.7296745367348194122314453125">
        <ele>55.40000152587890625</ele>
        <time>2022-11-01T09:45:08.000Z</time>
      </trkpt>
      <trkpt lat="42.37167430110275745391845703125" lon="-8.72962147928774356842041015625">
        <ele>55.59999847412109375</ele>
        <time>2022-11-01T09:45:09.000Z</time>
      </trkpt>
      <trkpt lat="42.37173230387270450592041015625" lon="-8.7295692600309848785400390625">
        <ele>55.59999847412109375</ele>
        <time>2022-11-01T09:45:10.000Z</time>
      </trkpt>
      <trkpt lat="42.3717913962900638580322265625" lon="-8.72951737605035305023193359375">
        <ele>55.59999847412109375</ele>
        <time>2022-11-01T09:45:11.000Z</time>
      </trkpt>
      <trkpt lat="42.37185166217386722564697265625" lon="-8.7294651567935943603515625">
        <ele>55.799999237060546875</ele>
        <time>2022-11-01T09:45:12.000Z</time>
      </trkpt>
      <trkpt lat="42.37191201187670230865478515625" lon="-8.729412518441677093505859375">
        <ele>55.799999237060546875</ele>
        <time>2022-11-01T09:45:13.000Z</time>
      </trkpt>
      <trkpt lat="42.3719727806746959686279296875" lon="-8.7293603830039501190185546875">
        <ele>55.799999237060546875</ele>
        <time>2022-11-01T09:45:14.000Z</time>
      </trkpt>
      <trkpt lat="42.3720314539968967437744140625" lon="-8.7293074093759059906005859375">
        <ele>55.799999237060546875</ele>
        <time>2022-11-01T09:45:15.000Z</time>
      </trkpt>
      <trkpt lat="42.37208987586200237274169921875" lon="-8.72925519011914730072021484375">
        <ele>56</ele>
        <time>2022-11-01T09:45:16.000Z</time>
      </trkpt>
      <trkpt lat="42.37214863300323486328125" lon="-8.72920104302465915679931640625">
        <ele>56</ele>
        <time>2022-11-01T09:45:17.000Z</time>
      </trkpt>
      <trkpt lat="42.37220956943929195404052734375" lon="-8.7291448004543781280517578125">
        <ele>56.200000762939453125</ele>
        <time>2022-11-01T09:45:18.000Z</time>
      </trkpt>
      <trkpt lat="42.37227159552276134490966796875" lon="-8.7290878035128116607666015625">
        <ele>56.200000762939453125</ele>
        <time>2022-11-01T09:45:19.000Z</time>
      </trkpt>
      <trkpt lat="42.37233546562492847442626953125" lon="-8.729030974209308624267578125">
        <ele>56.200000762939453125</ele>
        <time>2022-11-01T09:45:20.000Z</time>
      </trkpt>
      <trkpt lat="42.37240050919353961944580078125" lon="-8.728972636163234710693359375">
        <ele>56.200000762939453125</ele>
        <time>2022-11-01T09:45:21.000Z</time>
      </trkpt>
      <trkpt lat="42.37246437929570674896240234375" lon="-8.7289141304790973663330078125">
        <ele>56.200000762939453125</ele>
        <time>2022-11-01T09:45:22.000Z</time>
      </trkpt>
      <trkpt lat="42.372529506683349609375" lon="-8.7288554571568965911865234375">
        <ele>56.200000762939453125</ele>
        <time>2022-11-01T09:45:23.000Z</time>
      </trkpt>
      <trkpt lat="42.37259589135646820068359375" lon="-8.72879301197826862335205078125">
        <ele>56.200000762939453125</ele>
        <time>2022-11-01T09:45:24.000Z</time>
      </trkpt>
      <trkpt lat="42.37266487441956996917724609375" lon="-8.728731907904148101806640625">
        <ele>56.200000762939453125</ele>
        <time>2022-11-01T09:45:25.000Z</time>
      </trkpt>
      <trkpt lat="42.37273427657783031463623046875" lon="-8.728670887649059295654296875">
        <ele>56.200000762939453125</ele>
        <time>2022-11-01T09:45:26.000Z</time>
      </trkpt>
      <trkpt lat="42.37280200235545635223388671875" lon="-8.72860777191817760467529296875">
        <ele>56.200000762939453125</ele>
        <time>2022-11-01T09:45:27.000Z</time>
      </trkpt>
      <trkpt lat="42.37287023104727268218994140625" lon="-8.72854339890182018280029296875">
        <ele>56.200000762939453125</ele>
        <time>2022-11-01T09:45:28.000Z</time>
      </trkpt>
      <trkpt lat="42.37293896265327930450439453125" lon="-8.72847952879965305328369140625">
        <ele>56</ele>
        <time>2022-11-01T09:45:29.000Z</time>
      </trkpt>
      <trkpt lat="42.37300953827798366546630859375" lon="-8.7284162454307079315185546875">
        <ele>56</ele>
        <time>2022-11-01T09:45:30.000Z</time>
      </trkpt>
      <trkpt lat="42.37308204174041748046875" lon="-8.72835245914757251739501953125">
        <ele>55.799999237060546875</ele>
        <time>2022-11-01T09:45:31.000Z</time>
      </trkpt>
      <trkpt lat="42.37315454520285129547119140625" lon="-8.72828858904540538787841796875">
        <ele>55.799999237060546875</ele>
        <time>2022-11-01T09:45:32.000Z</time>
      </trkpt>
      <trkpt lat="42.373224198818206787109375" lon="-8.728223629295825958251953125">
        <ele>55.59999847412109375</ele>
        <time>2022-11-01T09:45:33.000Z</time>
      </trkpt>
      <trkpt lat="42.37329485826194286346435546875" lon="-8.7281580828130245208740234375">
        <ele>55.40000152587890625</ele>
        <time>2022-11-01T09:45:34.000Z</time>
      </trkpt>
      <trkpt lat="42.3733650147914886474609375" lon="-8.72809127904474735260009765625">
        <ele>55.40000152587890625</ele>
        <time>2022-11-01T09:45:35.000Z</time>
      </trkpt>
      <trkpt lat="42.37343383021652698516845703125" lon="-8.7280233018100261688232421875">
        <ele>55.200000762939453125</ele>
        <time>2022-11-01T09:45:36.000Z</time>
      </trkpt>
      <trkpt lat="42.3735058307647705078125" lon="-8.7279599346220493316650390625">
        <ele>55.200000762939453125</ele>
        <time>2022-11-01T09:45:37.000Z</time>
      </trkpt>
      <trkpt lat="42.3735780827701091766357421875" lon="-8.72789313085377216339111328125">
        <ele>55.200000762939453125</ele>
        <time>2022-11-01T09:45:38.000Z</time>
      </trkpt>
      <trkpt lat="42.37365460954606533050537109375" lon="-8.7278236448764801025390625">
        <ele>55.200000762939453125</ele>
        <time>2022-11-01T09:45:39.000Z</time>
      </trkpt>
      <trkpt lat="42.3737353272736072540283203125" lon="-8.72775466181337833404541015625">
        <ele>55</ele>
        <time>2022-11-01T09:45:40.000Z</time>
      </trkpt>
      <trkpt lat="42.37381788901984691619873046875" lon="-8.72768442146480083465576171875">
        <ele>54.799999237060546875</ele>
        <time>2022-11-01T09:45:41.000Z</time>
      </trkpt>
      <trkpt lat="42.37389936111867427825927734375" lon="-8.72760814614593982696533203125">
        <ele>54.59999847412109375</ele>
        <time>2022-11-01T09:45:42.000Z</time>
      </trkpt>
      <trkpt lat="42.37398418597877025604248046875" lon="-8.7275341339409351348876953125">
        <ele>54</ele>
        <time>2022-11-01T09:45:43.000Z</time>
      </trkpt>
      <trkpt lat="42.37406917847692966461181640625" lon="-8.7274637259542942047119140625">
        <ele>53.799999237060546875</ele>
        <time>2022-11-01T09:45:44.000Z</time>
      </trkpt>
      <trkpt lat="42.37415048293769359588623046875" lon="-8.7273916415870189666748046875">
        <ele>53.799999237060546875</ele>
        <time>2022-11-01T09:45:45.000Z</time>
      </trkpt>
      <trkpt lat="42.3742308653891086578369140625" lon="-8.727321065962314605712890625">
        <ele>53.59999847412109375</ele>
        <time>2022-11-01T09:45:46.000Z</time>
      </trkpt>
      <trkpt lat="42.3743059672415256500244140625" lon="-8.7272496521472930908203125">
        <ele>53.59999847412109375</ele>
        <time>2022-11-01T09:45:47.000Z</time>
      </trkpt>
      <trkpt lat="42.3743797279894351959228515625" lon="-8.7271790765225887298583984375">
        <ele>53.59999847412109375</ele>
        <time>2022-11-01T09:45:48.000Z</time>
      </trkpt>
      <trkpt lat="42.37445659004151821136474609375" lon="-8.727109842002391815185546875">
        <ele>53.59999847412109375</ele>
        <time>2022-11-01T09:45:49.000Z</time>
      </trkpt>
      <trkpt lat="42.374533452093601226806640625" lon="-8.72703935019671916961669921875">
        <ele>53.59999847412109375</ele>
        <time>2022-11-01T09:45:50.000Z</time>
      </trkpt>
      <trkpt lat="42.3746117390692234039306640625" lon="-8.7269685231149196624755859375">
        <ele>53.40000152587890625</ele>
        <time>2022-11-01T09:45:51.000Z</time>
      </trkpt>
      <trkpt lat="42.37468759529292583465576171875" lon="-8.72689249925315380096435546875">
        <ele>53.40000152587890625</ele>
        <time>2022-11-01T09:45:52.000Z</time>
      </trkpt>
      <trkpt lat="42.3747619427740573883056640625" lon="-8.7268092669546604156494140625">
        <ele>53.200000762939453125</ele>
        <time>2022-11-01T09:45:53.000Z</time>
      </trkpt>
      <trkpt lat="42.3748316802084445953369140625" lon="-8.7267190776765346527099609375">
        <ele>53.200000762939453125</ele>
        <time>2022-11-01T09:45:54.000Z</time>
      </trkpt>
      <trkpt lat="42.37489462830126285552978515625" lon="-8.72662008740007877349853515625">
        <ele>53.200000762939453125</ele>
        <time>2022-11-01T09:45:55.000Z</time>
      </trkpt>
      <trkpt lat="42.37494818866252899169921875" lon="-8.72651112265884876251220703125">
        <ele>53.200000762939453125</ele>
        <time>2022-11-01T09:45:56.000Z</time>
      </trkpt>
      <trkpt lat="42.37499051727354526519775390625" lon="-8.72639360837638378143310546875">
        <ele>53.200000762939453125</ele>
        <time>2022-11-01T09:45:57.000Z</time>
      </trkpt>
      <trkpt lat="42.37502060830593109130859375" lon="-8.72626938857138156890869140625">
        <ele>53</ele>
        <time>2022-11-01T09:45:58.000Z</time>
      </trkpt>
      <trkpt lat="42.37504147924482822418212890625" lon="-8.72614097781479358673095703125">
        <ele>53</ele>
        <time>2022-11-01T09:45:59.000Z</time>
      </trkpt>
      <trkpt lat="42.37505841068923473358154296875" lon="-8.72601055540144443511962890625">
        <ele>52.799999237060546875</ele>
        <time>2022-11-01T09:46:00.000Z</time>
      </trkpt>
      <trkpt lat="42.37507265992462635040283203125" lon="-8.72587946243584156036376953125">
        <ele>52.799999237060546875</ele>
        <time>2022-11-01T09:46:01.000Z</time>
      </trkpt>
      <trkpt lat="42.3750858195126056671142578125" lon="-8.72574694454669952392578125">
        <ele>52.799999237060546875</ele>
        <time>2022-11-01T09:46:02.000Z</time>
      </trkpt>
      <trkpt lat="42.37510317005217075347900390625" lon="-8.72561551630496978759765625">
        <ele>52.59999847412109375</ele>
        <time>2022-11-01T09:46:03.000Z</time>
      </trkpt>
      <trkpt lat="42.37512948922812938690185546875" lon="-8.72548668645322322845458984375">
        <ele>52.59999847412109375</ele>
        <time>2022-11-01T09:46:04.000Z</time>
      </trkpt>
      <trkpt lat="42.37516402266919612884521484375" lon="-8.72536196373403072357177734375">
        <ele>52.40000152587890625</ele>
        <time>2022-11-01T09:46:05.000Z</time>
      </trkpt>
      <trkpt lat="42.37520526163280010223388671875" lon="-8.725242353975772857666015625">
        <ele>52.40000152587890625</ele>
        <time>2022-11-01T09:46:06.000Z</time>
      </trkpt>
      <trkpt lat="42.375251948833465576171875" lon="-8.72512810863554477691650390625">
        <ele>52.200000762939453125</ele>
        <time>2022-11-01T09:46:07.000Z</time>
      </trkpt>
      <trkpt lat="42.37530467100441455841064453125" lon="-8.72502065263688564300537109375">
        <ele>52</ele>
        <time>2022-11-01T09:46:08.000Z</time>
      </trkpt>
      <trkpt lat="42.37536183558404445648193359375" lon="-8.7249233387410640716552734375">
        <ele>52</ele>
        <time>2022-11-01T09:46:09.000Z</time>
      </trkpt>
      <trkpt lat="42.37542285583913326263427734375" lon="-8.7248341552913188934326171875">
        <ele>52</ele>
        <time>2022-11-01T09:46:10.000Z</time>
      </trkpt>
      <trkpt lat="42.3754868097603321075439453125" lon="-8.7247506715357303619384765625">
        <ele>52</ele>
        <time>2022-11-01T09:46:11.000Z</time>
      </trkpt>
      <trkpt lat="42.37555562518537044525146484375" lon="-8.72467414475977420806884765625">
        <ele>51.799999237060546875</ele>
        <time>2022-11-01T09:46:12.000Z</time>
      </trkpt>
      <trkpt lat="42.37562754191458225250244140625" lon="-8.72460273094475269317626953125">
        <ele>51.799999237060546875</ele>
        <time>2022-11-01T09:46:13.000Z</time>
      </trkpt>
      <trkpt lat="42.37569996155798435211181640625" lon="-8.72453869320452213287353515625">
        <ele>51.799999237060546875</ele>
        <time>2022-11-01T09:46:14.000Z</time>
      </trkpt>
      <trkpt lat="42.375777997076511383056640625" lon="-8.72448253445327281951904296875">
        <ele>51.799999237060546875</ele>
        <time>2022-11-01T09:46:15.000Z</time>
      </trkpt>
      <trkpt lat="42.37585544586181640625" lon="-8.724432326853275299072265625">
        <ele>51.799999237060546875</ele>
        <time>2022-11-01T09:46:16.000Z</time>
      </trkpt>
      <trkpt lat="42.37593096680939197540283203125" lon="-8.72438379563391208648681640625">
        <ele>51.799999237060546875</ele>
        <time>2022-11-01T09:46:17.000Z</time>
      </trkpt>
      <trkpt lat="42.3760128580033779144287109375" lon="-8.724341131746768951416015625">
        <ele>52</ele>
        <time>2022-11-01T09:46:18.000Z</time>
      </trkpt>
      <trkpt lat="42.37609759904444217681884765625" lon="-8.72430483810603618621826171875">
        <ele>52.200000762939453125</ele>
        <time>2022-11-01T09:46:19.000Z</time>
      </trkpt>
      <trkpt lat="42.37618275918066501617431640625" lon="-8.72427684254944324493408203125">
        <ele>52.200000762939453125</ele>
        <time>2022-11-01T09:46:20.000Z</time>
      </trkpt>
      <trkpt lat="42.3762698471546173095703125" lon="-8.72425697743892669677734375">
        <ele>52.40000152587890625</ele>
        <time>2022-11-01T09:46:21.000Z</time>
      </trkpt>
      <trkpt lat="42.3763565160334110260009765625" lon="-8.72424566186964511871337890625">
        <ele>52.40000152587890625</ele>
        <time>2022-11-01T09:46:22.000Z</time>
      </trkpt>
      <trkpt lat="42.376441843807697296142578125" lon="-8.72424499131739139556884765625">
        <ele>52.40000152587890625</ele>
        <time>2022-11-01T09:46:23.000Z</time>
      </trkpt>
      <trkpt lat="42.3765273392200469970703125" lon="-8.72425337322056293487548828125">
        <ele>52.40000152587890625</ele>
        <time>2022-11-01T09:46:24.000Z</time>
      </trkpt>
      <trkpt lat="42.3766106553375720977783203125" lon="-8.724265359342098236083984375">
        <ele>52.40000152587890625</ele>
        <time>2022-11-01T09:46:25.000Z</time>
      </trkpt>
      <trkpt lat="42.37669254653155803680419921875" lon="-8.72427600435912609100341796875">
        <ele>52.40000152587890625</ele>
        <time>2022-11-01T09:46:26.000Z</time>
      </trkpt>
      <trkpt lat="42.37677033059298992156982421875" lon="-8.72428975068032741546630859375">
        <ele>52.40000152587890625</ele>
        <time>2022-11-01T09:46:27.000Z</time>
      </trkpt>
      <trkpt lat="42.3768527247011661529541015625" lon="-8.7243045866489410400390625">
        <ele>52.40000152587890625</ele>
        <time>2022-11-01T09:46:28.000Z</time>
      </trkpt>
      <trkpt lat="42.37693780101835727691650390625" lon="-8.7243252061307430267333984375">
        <ele>52.40000152587890625</ele>
        <time>2022-11-01T09:46:29.000Z</time>
      </trkpt>
      <trkpt lat="42.37702463753521442413330078125" lon="-8.72434792108833789825439453125">
        <ele>52.40000152587890625</ele>
        <time>2022-11-01T09:46:30.000Z</time>
      </trkpt>
      <trkpt lat="42.37711013294756412506103515625" lon="-8.72436770237982273101806640625">
        <ele>52.40000152587890625</ele>
        <time>2022-11-01T09:46:31.000Z</time>
      </trkpt>
      <trkpt lat="42.3771965503692626953125" lon="-8.7243882380425930023193359375">
        <ele>52.200000762939453125</ele>
        <time>2022-11-01T09:46:32.000Z</time>
      </trkpt>
      <trkpt lat="42.37728313542902469635009765625" lon="-8.724407851696014404296875">
        <ele>52.200000762939453125</ele>
        <time>2022-11-01T09:46:33.000Z</time>
      </trkpt>
      <trkpt lat="42.37737148068845272064208984375" lon="-8.7244261242449283599853515625">
        <ele>52.200000762939453125</ele>
        <time>2022-11-01T09:46:34.000Z</time>
      </trkpt>
      <trkpt lat="42.37745898775756359100341796875" lon="-8.7244465760886669158935546875">
        <ele>52.200000762939453125</ele>
        <time>2022-11-01T09:46:35.000Z</time>
      </trkpt>
      <trkpt lat="42.3775465786457061767578125" lon="-8.72446644119918346405029296875">
        <ele>52.200000762939453125</ele>
        <time>2022-11-01T09:46:36.000Z</time>
      </trkpt>
      <trkpt lat="42.37763383425772190093994140625" lon="-8.72448739595711231231689453125">
        <ele>52.200000762939453125</ele>
        <time>2022-11-01T09:46:37.000Z</time>
      </trkpt>
      <trkpt lat="42.3777207545936107635498046875" lon="-8.72450851835310459136962890625">
        <ele>52.200000762939453125</ele>
        <time>2022-11-01T09:46:38.000Z</time>
      </trkpt>
      <trkpt lat="42.37780683673918247222900390625" lon="-8.72452980838716030120849609375">
        <ele>52.200000762939453125</ele>
        <time>2022-11-01T09:46:39.000Z</time>
      </trkpt>
      <trkpt lat="42.37789233215153217315673828125" lon="-8.724551685154438018798828125">
        <ele>52.200000762939453125</ele>
        <time>2022-11-01T09:46:40.000Z</time>
      </trkpt>
      <trkpt lat="42.3779819346964359283447265625" lon="-8.72456987388432025909423828125">
        <ele>52.200000762939453125</ele>
        <time>2022-11-01T09:46:41.000Z</time>
      </trkpt>
      <trkpt lat="42.37807120196521282196044921875" lon="-8.724586553871631622314453125">
        <ele>52.200000762939453125</ele>
        <time>2022-11-01T09:46:42.000Z</time>
      </trkpt>
      <trkpt lat="42.37815887667238712310791015625" lon="-8.72460591606795787811279296875">
        <ele>52</ele>
        <time>2022-11-01T09:46:43.000Z</time>
      </trkpt>
      <trkpt lat="42.378246299922466278076171875" lon="-8.72462502680718898773193359375">
        <ele>52</ele>
        <time>2022-11-01T09:46:44.000Z</time>
      </trkpt>
      <trkpt lat="42.37833305262029170989990234375" lon="-8.724643886089324951171875">
        <ele>51.799999237060546875</ele>
        <time>2022-11-01T09:46:45.000Z</time>
      </trkpt>
      <trkpt lat="42.37841905094683170318603515625" lon="-8.724662996828556060791015625">
        <ele>51.799999237060546875</ele>
        <time>2022-11-01T09:46:46.000Z</time>
      </trkpt>
      <trkpt lat="42.3785059712827205657958984375" lon="-8.72467867098748683929443359375">
        <ele>51.59999847412109375</ele>
        <time>2022-11-01T09:46:47.000Z</time>
      </trkpt>
      <trkpt lat="42.37859171815216541290283203125" lon="-8.72469711117446422576904296875">
        <ele>51.59999847412109375</ele>
        <time>2022-11-01T09:46:48.000Z</time>
      </trkpt>
      <trkpt lat="42.37867780029773712158203125" lon="-8.7247158028185367584228515625">
        <ele>51.59999847412109375</ele>
        <time>2022-11-01T09:46:49.000Z</time>
      </trkpt>
      <trkpt lat="42.3787621222436428070068359375" lon="-8.72473063878715038299560546875">
        <ele>51.59999847412109375</ele>
        <time>2022-11-01T09:46:50.000Z</time>
      </trkpt>
      <trkpt lat="42.3788482882082462310791015625" lon="-8.7247396074235439300537109375">
        <ele>51.59999847412109375</ele>
        <time>2022-11-01T09:46:51.000Z</time>
      </trkpt>
      <trkpt lat="42.37893470562994480133056640625" lon="-8.7247391045093536376953125">
        <ele>51.799999237060546875</ele>
        <time>2022-11-01T09:46:52.000Z</time>
      </trkpt>
      <trkpt lat="42.37902103923261165618896484375" lon="-8.72472879476845264434814453125">
        <ele>51.799999237060546875</ele>
        <time>2022-11-01T09:46:53.000Z</time>
      </trkpt>
      <trkpt lat="42.37910519354045391082763671875" lon="-8.72470482252538204193115234375">
        <ele>51.799999237060546875</ele>
        <time>2022-11-01T09:46:54.000Z</time>
      </trkpt>
      <trkpt lat="42.3791865818202495574951171875" lon="-8.72466911561787128448486328125">
        <ele>52</ele>
        <time>2022-11-01T09:46:55.000Z</time>
      </trkpt>
      <trkpt lat="42.3792658746242523193359375" lon="-8.7246272899210453033447265625">
        <ele>52.200000762939453125</ele>
        <time>2022-11-01T09:46:56.000Z</time>
      </trkpt>
      <trkpt lat="42.37934608943760395050048828125" lon="-8.72458420693874359130859375">
        <ele>52.200000762939453125</ele>
        <time>2022-11-01T09:46:57.000Z</time>
      </trkpt>
      <trkpt lat="42.379425130784511566162109375" lon="-8.72453919611871242523193359375">
        <ele>52.40000152587890625</ele>
        <time>2022-11-01T09:46:58.000Z</time>
      </trkpt>
      <trkpt lat="42.37950635142624378204345703125" lon="-8.72449343092739582061767578125">
        <ele>52.59999847412109375</ele>
        <time>2022-11-01T09:46:59.000Z</time>
      </trkpt>
      <trkpt lat="42.37958866171538829803466796875" lon="-8.72444783337414264678955078125">
        <ele>52.59999847412109375</ele>
        <time>2022-11-01T09:47:00.000Z</time>
      </trkpt>
      <trkpt lat="42.3796713910996913909912109375" lon="-8.7244016490876674652099609375">
        <ele>52.40000152587890625</ele>
        <time>2022-11-01T09:47:01.000Z</time>
      </trkpt>
      <trkpt lat="42.37975604832172393798828125" lon="-8.7243543751537799835205078125">
        <ele>52.40000152587890625</ele>
        <time>2022-11-01T09:47:02.000Z</time>
      </trkpt>
      <trkpt lat="42.37984162755310535430908203125" lon="-8.7243064306676387786865234375">
        <ele>52.40000152587890625</ele>
        <time>2022-11-01T09:47:03.000Z</time>
      </trkpt>
      <trkpt lat="42.3799285478889942169189453125" lon="-8.724257647991180419921875">
        <ele>52.200000762939453125</ele>
        <time>2022-11-01T09:47:04.000Z</time>
      </trkpt>
      <trkpt lat="42.38001731224358081817626953125" lon="-8.72420878149569034576416015625">
        <ele>52</ele>
        <time>2022-11-01T09:47:05.000Z</time>
      </trkpt>
      <trkpt lat="42.3801045678555965423583984375" lon="-8.724159412086009979248046875">
        <ele>51.799999237060546875</ele>
        <time>2022-11-01T09:47:06.000Z</time>
      </trkpt>
      <trkpt lat="42.38019333221018314361572265625" lon="-8.72410937212407588958740234375">
        <ele>51.40000152587890625</ele>
        <time>2022-11-01T09:47:07.000Z</time>
      </trkpt>
      <trkpt lat="42.380283772945404052734375" lon="-8.7240610085427761077880859375">
        <ele>51</ele>
        <time>2022-11-01T09:47:08.000Z</time>
      </trkpt>
      <trkpt lat="42.380374632775783538818359375" lon="-8.724010884761810302734375">
        <ele>50.799999237060546875</ele>
        <time>2022-11-01T09:47:09.000Z</time>
      </trkpt>
      <trkpt lat="42.38046607933938503265380859375" lon="-8.723959587514400482177734375">
        <ele>50.59999847412109375</ele>
        <time>2022-11-01T09:47:10.000Z</time>
      </trkpt>
      <trkpt lat="42.380557693541049957275390625" lon="-8.723907954990863800048828125">
        <ele>50.40000152587890625</ele>
        <time>2022-11-01T09:47:11.000Z</time>
      </trkpt>
      <trkpt lat="42.38064914010465145111083984375" lon="-8.7238571606576442718505859375">
        <ele>50.40000152587890625</ele>
        <time>2022-11-01T09:47:12.000Z</time>
      </trkpt>
      <trkpt lat="42.3807412572205066680908203125" lon="-8.72380762360990047454833984375">
        <ele>50.40000152587890625</ele>
        <time>2022-11-01T09:47:13.000Z</time>
      </trkpt>
      <trkpt lat="42.3808156885206699371337890625" lon="-8.72376638464629650115966796875">
        <ele>50.200000762939453125</ele>
        <time>2022-11-01T09:47:14.000Z</time>
      </trkpt>
      <trkpt lat="42.3809266649186611175537109375" lon="-8.72370603494346141815185546875">
        <ele>50.200000762939453125</ele>
        <time>2022-11-01T09:47:15.000Z</time>
      </trkpt>
      <trkpt lat="42.3810202069580554962158203125" lon="-8.7236546538770198822021484375">
        <ele>50</ele>
        <time>2022-11-01T09:47:16.000Z</time>
      </trkpt>
      <trkpt lat="42.38111450336873531341552734375" lon="-8.72360360808670520782470703125">
        <ele>50</ele>
        <time>2022-11-01T09:47:17.000Z</time>
      </trkpt>
      <trkpt lat="42.3812072910368442535400390625" lon="-8.72354962863028049468994140625">
        <ele>49.59999847412109375</ele>
        <time>2022-11-01T09:47:18.000Z</time>
      </trkpt>
      <trkpt lat="42.38130024634301662445068359375" lon="-8.72349782846868038177490234375">
        <ele>49.40000152587890625</ele>
        <time>2022-11-01T09:47:19.000Z</time>
      </trkpt>
      <trkpt lat="42.381394207477569580078125" lon="-8.7234457768499851226806640625">
        <ele>49</ele>
        <time>2022-11-01T09:47:20.000Z</time>
      </trkpt>
      <trkpt lat="42.38148716278374195098876953125" lon="-8.72339037247002124786376953125">
        <ele>48.59999847412109375</ele>
        <time>2022-11-01T09:47:21.000Z</time>
      </trkpt>
      <trkpt lat="42.3815811239182949066162109375" lon="-8.72333739884197711944580078125">
        <ele>48.40000152587890625</ele>
        <time>2022-11-01T09:47:22.000Z</time>
      </trkpt>
      <trkpt lat="42.38167650997638702392578125" lon="-8.72328509576618671417236328125">
        <ele>48</ele>
        <time>2022-11-01T09:47:23.000Z</time>
      </trkpt>
      <trkpt lat="42.38177197985351085662841796875" lon="-8.72323178686201572418212890625">
        <ele>47.799999237060546875</ele>
        <time>2022-11-01T09:47:24.000Z</time>
      </trkpt>
      <trkpt lat="42.38186920993030071258544921875" lon="-8.723178394138813018798828125">
        <ele>47</ele>
        <time>2022-11-01T09:47:25.000Z</time>
      </trkpt>
      <trkpt lat="42.3819668591022491455078125" lon="-8.72312466613948345184326171875">
        <ele>46.799999237060546875</ele>
        <time>2022-11-01T09:47:26.000Z</time>
      </trkpt>
      <trkpt lat="42.38206333480775356292724609375" lon="-8.72307118959724903106689453125">
        <ele>46.200000762939453125</ele>
        <time>2022-11-01T09:47:27.000Z</time>
      </trkpt>
      <trkpt lat="42.3821598105132579803466796875" lon="-8.723018467426300048828125">
        <ele>46</ele>
        <time>2022-11-01T09:47:28.000Z</time>
      </trkpt>
      <trkpt lat="42.38225561566650867462158203125" lon="-8.7229621410369873046875">
        <ele>45.59999847412109375</ele>
        <time>2022-11-01T09:47:29.000Z</time>
      </trkpt>
      <trkpt lat="42.38235108554363250732421875" lon="-8.7229053117334842681884765625">
        <ele>45.200000762939453125</ele>
        <time>2022-11-01T09:47:30.000Z</time>
      </trkpt>
      <trkpt lat="42.38244504667818546295166015625" lon="-8.7228489853441715240478515625">
        <ele>45</ele>
        <time>2022-11-01T09:47:31.000Z</time>
      </trkpt>
      <trkpt lat="42.382536493241786956787109375" lon="-8.72278511524200439453125">
        <ele>44.799999237060546875</ele>
        <time>2022-11-01T09:47:32.000Z</time>
      </trkpt>
      <trkpt lat="42.382618300616741180419921875" lon="-8.72270397841930389404296875">
        <ele>44.40000152587890625</ele>
        <time>2022-11-01T09:47:33.000Z</time>
      </trkpt>
      <trkpt lat="42.3826871998608112335205078125" lon="-8.72260314412415027618408203125">
        <ele>44.200000762939453125</ele>
        <time>2022-11-01T09:47:34.000Z</time>
      </trkpt>
      <trkpt lat="42.38273958675563335418701171875" lon="-8.7224848754703998565673828125">
        <ele>44</ele>
        <time>2022-11-01T09:47:35.000Z</time>
      </trkpt>
      <trkpt lat="42.38277043215930461883544921875" lon="-8.72235185466706752777099609375">
        <ele>43.59999847412109375</ele>
        <time>2022-11-01T09:47:36.000Z</time>
      </trkpt>
      <trkpt lat="42.38277596421539783477783203125" lon="-8.72223936952650547027587890625">
        <ele>43.40000152587890625</ele>
        <time>2022-11-01T09:47:37.000Z</time>
      </trkpt>
      <trkpt lat="42.38276691175997257232666015625" lon="-8.72210307978093624114990234375">
        <ele>43</ele>
        <time>2022-11-01T09:47:38.000Z</time>
      </trkpt>
      <trkpt lat="42.3827374912798404693603515625" lon="-8.721949942409992218017578125">
        <ele>42.799999237060546875</ele>
        <time>2022-11-01T09:47:39.000Z</time>
      </trkpt>
      <trkpt lat="42.382697761058807373046875" lon="-8.72182597406208515167236328125">
        <ele>42.799999237060546875</ele>
        <time>2022-11-01T09:47:40.000Z</time>
      </trkpt>
      <trkpt lat="42.38265492953360080718994140625" lon="-8.72171030379831790924072265625">
        <ele>42.799999237060546875</ele>
        <time>2022-11-01T09:47:41.000Z</time>
      </trkpt>
      <trkpt lat="42.38260924816131591796875" lon="-8.7216007523238658905029296875">
        <ele>42.799999237060546875</ele>
        <time>2022-11-01T09:47:42.000Z</time>
      </trkpt>
      <trkpt lat="42.3825638182461261749267578125" lon="-8.72149304486811161041259765625">
        <ele>42.59999847412109375</ele>
        <time>2022-11-01T09:47:43.000Z</time>
      </trkpt>
      <trkpt lat="42.38251863978803157806396484375" lon="-8.72138726525008678436279296875">
        <ele>42.59999847412109375</ele>
        <time>2022-11-01T09:47:44.000Z</time>
      </trkpt>
      <trkpt lat="42.3824712820351123809814453125" lon="-8.721280060708522796630859375">
        <ele>42.59999847412109375</ele>
        <time>2022-11-01T09:47:45.000Z</time>
      </trkpt>
      <trkpt lat="42.38242526538670063018798828125" lon="-8.72117587365210056304931640625">
        <ele>42.59999847412109375</ele>
        <time>2022-11-01T09:47:46.000Z</time>
      </trkpt>
      <trkpt lat="42.3823790811002254486083984375" lon="-8.72106925584375858306884765625">
        <ele>42.799999237060546875</ele>
        <time>2022-11-01T09:47:47.000Z</time>
      </trkpt>
      <trkpt lat="42.3823301307857036590576171875" lon="-8.720959536731243133544921875">
        <ele>42.799999237060546875</ele>
        <time>2022-11-01T09:47:48.000Z</time>
      </trkpt>
      <trkpt lat="42.3822818510234355926513671875" lon="-8.72085057199001312255859375">
        <ele>43</ele>
        <time>2022-11-01T09:47:49.000Z</time>
      </trkpt>
      <trkpt lat="42.3822379298508167266845703125" lon="-8.7207400985062122344970703125">
        <ele>43.200000762939453125</ele>
        <time>2022-11-01T09:47:50.000Z</time>
      </trkpt>
      <trkpt lat="42.38219191320240497589111328125" lon="-8.72063071466982364654541015625">
        <ele>43.200000762939453125</ele>
        <time>2022-11-01T09:47:51.000Z</time>
      </trkpt>
      <trkpt lat="42.38215335644781589508056640625" lon="-8.72054572217166423797607421875">
        <ele>43.200000762939453125</ele>
        <time>2022-11-01T09:47:52.000Z</time>
      </trkpt>
      <trkpt lat="42.38209367729723453521728515625" lon="-8.720416389405727386474609375">
        <ele>43.40000152587890625</ele>
        <time>2022-11-01T09:47:53.000Z</time>
      </trkpt>
      <trkpt lat="42.3820468224585056304931640625" lon="-8.72030985541641712188720703125">
        <ele>43.40000152587890625</ele>
        <time>2022-11-01T09:47:54.000Z</time>
      </trkpt>
      <trkpt lat="42.38200097344815731048583984375" lon="-8.720202483236789703369140625">
        <ele>43.40000152587890625</ele>
        <time>2022-11-01T09:47:55.000Z</time>
      </trkpt>
      <trkpt lat="42.38195353187620639801025390625" lon="-8.72009209357202053070068359375">
        <ele>43.40000152587890625</ele>
        <time>2022-11-01T09:47:56.000Z</time>
      </trkpt>
      <trkpt lat="42.381906844675540924072265625" lon="-8.71998044662177562713623046875">
        <ele>43.200000762939453125</ele>
        <time>2022-11-01T09:47:57.000Z</time>
      </trkpt>
      <trkpt lat="42.38185931928455829620361328125" lon="-8.71986745856702327728271484375">
        <ele>43.200000762939453125</ele>
        <time>2022-11-01T09:47:58.000Z</time>
      </trkpt>
      <trkpt lat="42.3818111233413219451904296875" lon="-8.719751536846160888671875">
        <ele>43.200000762939453125</ele>
        <time>2022-11-01T09:47:59.000Z</time>
      </trkpt>
      <trkpt lat="42.38176477141678333282470703125" lon="-8.71963687241077423095703125">
        <ele>43.200000762939453125</ele>
        <time>2022-11-01T09:48:00.000Z</time>
      </trkpt>
      <trkpt lat="42.3817205987870693206787109375" lon="-8.7195203639566898345947265625">
        <ele>43</ele>
        <time>2022-11-01T09:48:01.000Z</time>
      </trkpt>
      <trkpt lat="42.3816716484725475311279296875" lon="-8.71940578334033489227294921875">
        <ele>42.799999237060546875</ele>
        <time>2022-11-01T09:48:02.000Z</time>
      </trkpt>
      <trkpt lat="42.38161976449191570281982421875" lon="-8.71929623186588287353515625">
        <ele>42.59999847412109375</ele>
        <time>2022-11-01T09:48:03.000Z</time>
      </trkpt>
      <trkpt lat="42.3815697245299816131591796875" lon="-8.719187937676906585693359375">
        <ele>42.59999847412109375</ele>
        <time>2022-11-01T09:48:04.000Z</time>
      </trkpt>
      <trkpt lat="42.3815157450735569000244140625" lon="-8.71906958520412445068359375">
        <ele>42.40000152587890625</ele>
        <time>2022-11-01T09:48:05.000Z</time>
      </trkpt>
      <trkpt lat="42.38146553747355937957763671875" lon="-8.718952573835849761962890625">
        <ele>42.40000152587890625</ele>
        <time>2022-11-01T09:48:06.000Z</time>
      </trkpt>
      <trkpt lat="42.38141725771129131317138671875" lon="-8.718836568295955657958984375">
        <ele>42.40000152587890625</ele>
        <time>2022-11-01T09:48:07.000Z</time>
      </trkpt>
      <trkpt lat="42.38136931322515010833740234375" lon="-8.71871955692768096923828125">
        <ele>42.40000152587890625</ele>
        <time>2022-11-01T09:48:08.000Z</time>
      </trkpt>
      <trkpt lat="42.3813212849199771881103515625" lon="-8.71860061772167682647705078125">
        <ele>42.200000762939453125</ele>
        <time>2022-11-01T09:48:09.000Z</time>
      </trkpt>
      <trkpt lat="42.38127141259610652923583984375" lon="-8.7184840254485607147216796875">
        <ele>42</ele>
        <time>2022-11-01T09:48:10.000Z</time>
      </trkpt>
      <trkpt lat="42.381220199167728424072265625" lon="-8.71836642734706401824951171875">
        <ele>41.799999237060546875</ele>
        <time>2022-11-01T09:48:11.000Z</time>
      </trkpt>
      <trkpt lat="42.38116747699677944183349609375" lon="-8.71824882924556732177734375">
        <ele>41.59999847412109375</ele>
        <time>2022-11-01T09:48:12.000Z</time>
      </trkpt>
      <trkpt lat="42.38111148588359355926513671875" lon="-8.7181286327540874481201171875">
        <ele>41.40000152587890625</ele>
        <time>2022-11-01T09:48:13.000Z</time>
      </trkpt>
      <trkpt lat="42.38105549477040767669677734375" lon="-8.71800919063389301300048828125">
        <ele>41.200000762939453125</ele>
        <time>2022-11-01T09:48:14.000Z</time>
      </trkpt>
      <trkpt lat="42.38100268878042697906494140625" lon="-8.717890083789825439453125">
        <ele>41.200000762939453125</ele>
        <time>2022-11-01T09:48:15.000Z</time>
      </trkpt>
      <trkpt lat="42.380949296057224273681640625" lon="-8.71777131222188472747802734375">
        <ele>41</ele>
        <time>2022-11-01T09:48:16.000Z</time>
      </trkpt>
      <trkpt lat="42.3808958195149898529052734375" lon="-8.7176515348255634307861328125">
        <ele>40.799999237060546875</ele>
        <time>2022-11-01T09:48:17.000Z</time>
      </trkpt>
      <trkpt lat="42.38084234297275543212890625" lon="-8.71753561310470104217529296875">
        <ele>40.59999847412109375</ele>
        <time>2022-11-01T09:48:18.000Z</time>
      </trkpt>
      <trkpt lat="42.38079029135406017303466796875" lon="-8.71742128394544124603271484375">
        <ele>40.200000762939453125</ele>
        <time>2022-11-01T09:48:19.000Z</time>
      </trkpt>
      <trkpt lat="42.3807419277727603912353515625" lon="-8.71730393730103969573974609375">
        <ele>40.200000762939453125</ele>
        <time>2022-11-01T09:48:20.000Z</time>
      </trkpt>
      <trkpt lat="42.38069658167660236358642578125" lon="-8.71718759648501873016357421875">
        <ele>40</ele>
        <time>2022-11-01T09:48:21.000Z</time>
      </trkpt>
      <trkpt lat="42.380660288035869598388671875" lon="-8.7170671485364437103271484375">
        <ele>39.799999237060546875</ele>
        <time>2022-11-01T09:48:22.000Z</time>
      </trkpt>
      <trkpt lat="42.3806393332779407501220703125" lon="-8.716939575970172882080078125">
        <ele>39.59999847412109375</ele>
        <time>2022-11-01T09:48:23.000Z</time>
      </trkpt>
      <trkpt lat="42.38064126111567020416259765625" lon="-8.71680823154747486114501953125">
        <ele>39.59999847412109375</ele>
        <time>2022-11-01T09:48:24.000Z</time>
      </trkpt>
      <trkpt lat="42.38066858612000942230224609375" lon="-8.71668317355215549468994140625">
        <ele>39.40000152587890625</ele>
        <time>2022-11-01T09:48:25.000Z</time>
      </trkpt>
      <trkpt lat="42.3807251639664173126220703125" lon="-8.71657739393413066864013671875">
        <ele>39.40000152587890625</ele>
        <time>2022-11-01T09:48:26.000Z</time>
      </trkpt>
      <trkpt lat="42.3807942308485507965087890625" lon="-8.71649198234081268310546875">
        <ele>39.200000762939453125</ele>
        <time>2022-11-01T09:48:27.000Z</time>
      </trkpt>
      <trkpt lat="42.3808750323951244354248046875" lon="-8.7164271064102649688720703125">
        <ele>39</ele>
        <time>2022-11-01T09:48:28.000Z</time>
      </trkpt>
      <trkpt lat="42.3809608630836009979248046875" lon="-8.71636583469808101654052734375">
        <ele>39</ele>
        <time>2022-11-01T09:48:29.000Z</time>
      </trkpt>
      <trkpt lat="42.3810470290482044219970703125" lon="-8.7163067422807216644287109375">
        <ele>38.799999237060546875</ele>
        <time>2022-11-01T09:48:30.000Z</time>
      </trkpt>
      <trkpt lat="42.38113562576472759246826171875" lon="-8.71624882332980632781982421875">
        <ele>38.799999237060546875</ele>
        <time>2022-11-01T09:48:31.000Z</time>
      </trkpt>
      <trkpt lat="42.381220869719982147216796875" lon="-8.71618830598890781402587890625">
        <ele>38.59999847412109375</ele>
        <time>2022-11-01T09:48:32.000Z</time>
      </trkpt>
      <trkpt lat="42.38130561076104640960693359375" lon="-8.7161280401051044464111328125">
        <ele>38.59999847412109375</ele>
        <time>2022-11-01T09:48:33.000Z</time>
      </trkpt>
      <trkpt lat="42.3813900165259838104248046875" lon="-8.71606660075485706329345703125">
        <ele>38.59999847412109375</ele>
        <time>2022-11-01T09:48:34.000Z</time>
      </trkpt>
      <trkpt lat="42.3814735002815723419189453125" lon="-8.7160031497478485107421875">
        <ele>38.59999847412109375</ele>
        <time>2022-11-01T09:48:35.000Z</time>
      </trkpt>
      <trkpt lat="42.381558157503604888916015625" lon="-8.71594321914017200469970703125">
        <ele>38.59999847412109375</ele>
        <time>2022-11-01T09:48:36.000Z</time>
      </trkpt>
      <trkpt lat="42.38164138980209827423095703125" lon="-8.71588437817990779876708984375">
        <ele>38.59999847412109375</ele>
        <time>2022-11-01T09:48:37.000Z</time>
      </trkpt>
      <trkpt lat="42.3817202635109424591064453125" lon="-8.71582453139126300811767578125">
        <ele>38.59999847412109375</ele>
        <time>2022-11-01T09:48:38.000Z</time>
      </trkpt>
      <trkpt lat="42.38179964013397693634033203125" lon="-8.71576703153550624847412109375">
        <ele>38.59999847412109375</ele>
        <time>2022-11-01T09:48:39.000Z</time>
      </trkpt>
      <trkpt lat="42.38187993876636028289794921875" lon="-8.71571548283100128173828125">
        <ele>38.799999237060546875</ele>
        <time>2022-11-01T09:48:40.000Z</time>
      </trkpt>
      <trkpt lat="42.38196124322712421417236328125" lon="-8.7156606651842594146728515625">
        <ele>38.799999237060546875</ele>
        <time>2022-11-01T09:48:41.000Z</time>
      </trkpt>
      <trkpt lat="42.38204455934464931488037109375" lon="-8.71560492552816867828369140625">
        <ele>39</ele>
        <time>2022-11-01T09:48:42.000Z</time>
      </trkpt>
      <trkpt lat="42.382126785814762115478515625" lon="-8.715550191700458526611328125">
        <ele>39.200000762939453125</ele>
        <time>2022-11-01T09:48:43.000Z</time>
      </trkpt>
      <trkpt lat="42.38220951519906520843505859375" lon="-8.715491853654384613037109375">
        <ele>39</ele>
        <time>2022-11-01T09:48:44.000Z</time>
      </trkpt>
      <trkpt lat="42.38229266367852687835693359375" lon="-8.7154343537986278533935546875">
        <ele>39</ele>
        <time>2022-11-01T09:48:45.000Z</time>
      </trkpt>
      <trkpt lat="42.3823760636150836944580078125" lon="-8.715376518666744232177734375">
        <ele>39.200000762939453125</ele>
        <time>2022-11-01T09:48:46.000Z</time>
      </trkpt>
      <trkpt lat="42.38246147520840167999267578125" lon="-8.71532077901065349578857421875">
        <ele>39.200000762939453125</ele>
        <time>2022-11-01T09:48:47.000Z</time>
      </trkpt>
      <trkpt lat="42.382543869316577911376953125" lon="-8.71526084840297698974609375">
        <ele>39.40000152587890625</ele>
        <time>2022-11-01T09:48:48.000Z</time>
      </trkpt>
      <trkpt lat="42.382622323930263519287109375" lon="-8.71519806794822216033935546875">
        <ele>39.40000152587890625</ele>
        <time>2022-11-01T09:48:49.000Z</time>
      </trkpt>
      <trkpt lat="42.38270119763910770416259765625" lon="-8.7151342816650867462158203125">
        <ele>39.40000152587890625</ele>
        <time>2022-11-01T09:48:50.000Z</time>
      </trkpt>
      <trkpt lat="42.382778227329254150390625" lon="-8.71506747789680957794189453125">
        <ele>39.40000152587890625</ele>
        <time>2022-11-01T09:48:51.000Z</time>
      </trkpt>
      <trkpt lat="42.38285374827682971954345703125" lon="-8.71499790810048580169677734375">
        <ele>39.200000762939453125</ele>
        <time>2022-11-01T09:48:52.000Z</time>
      </trkpt>
      <trkpt lat="42.382926754653453826904296875" lon="-8.714926242828369140625">
        <ele>39.200000762939453125</ele>
        <time>2022-11-01T09:48:53.000Z</time>
      </trkpt>
      <trkpt lat="42.38299825228750705718994140625" lon="-8.714855499565601348876953125">
        <ele>39.200000762939453125</ele>
        <time>2022-11-01T09:48:54.000Z</time>
      </trkpt>
      <trkpt lat="42.383068241178989410400390625" lon="-8.7147854268550872802734375">
        <ele>39.200000762939453125</ele>
        <time>2022-11-01T09:48:55.000Z</time>
      </trkpt>
      <trkpt lat="42.383134625852108001708984375" lon="-8.714718036353588104248046875">
        <ele>39.200000762939453125</ele>
        <time>2022-11-01T09:48:56.000Z</time>
      </trkpt>
      <trkpt lat="42.38320092670619487762451171875" lon="-8.71465106494724750518798828125">
        <ele>39.200000762939453125</ele>
        <time>2022-11-01T09:48:57.000Z</time>
      </trkpt>
      <trkpt lat="42.38326362334191799163818359375" lon="-8.7145864404737949371337890625">
        <ele>39.200000762939453125</ele>
        <time>2022-11-01T09:48:58.000Z</time>
      </trkpt>
      <trkpt lat="42.383325397968292236328125" lon="-8.71452055871486663818359375">
        <ele>39.40000152587890625</ele>
        <time>2022-11-01T09:48:59.000Z</time>
      </trkpt>
      <trkpt lat="42.38338532857596874237060546875" lon="-8.71445928700268268585205078125">
        <ele>39.40000152587890625</ele>
        <time>2022-11-01T09:49:00.000Z</time>
      </trkpt>
      <trkpt lat="42.38344316370785236358642578125" lon="-8.71440078131854534149169921875">
        <ele>39.40000152587890625</ele>
        <time>2022-11-01T09:49:01.000Z</time>
      </trkpt>
      <trkpt lat="42.383497394621372222900390625" lon="-8.7143450416624546051025390625">
        <ele>39.59999847412109375</ele>
        <time>2022-11-01T09:49:02.000Z</time>
      </trkpt>
      <trkpt lat="42.3835508711636066436767578125" lon="-8.71429299004375934600830078125">
        <ele>40</ele>
        <time>2022-11-01T09:49:03.000Z</time>
      </trkpt>
      <trkpt lat="42.38360292278230190277099609375" lon="-8.7142424471676349639892578125">
        <ele>40.200000762939453125</ele>
        <time>2022-11-01T09:49:04.000Z</time>
      </trkpt>
      <trkpt lat="42.38365606404840946197509765625" lon="-8.71419601142406463623046875">
        <ele>40.59999847412109375</ele>
        <time>2022-11-01T09:49:05.000Z</time>
      </trkpt>
      <trkpt lat="42.38370828330516815185546875" lon="-8.7141525931656360626220703125">
        <ele>40.799999237060546875</ele>
        <time>2022-11-01T09:49:06.000Z</time>
      </trkpt>
      <trkpt lat="42.3837607540190219879150390625" lon="-8.71410976164042949676513671875">
        <ele>41.59999847412109375</ele>
        <time>2022-11-01T09:49:07.000Z</time>
      </trkpt>
      <trkpt lat="42.38381330855190753936767578125" lon="-8.7140664272010326385498046875">
        <ele>42</ele>
        <time>2022-11-01T09:49:08.000Z</time>
      </trkpt>
      <trkpt lat="42.3838673718273639678955078125" lon="-8.71402510441839694976806640625">
        <ele>42.59999847412109375</ele>
        <time>2022-11-01T09:49:09.000Z</time>
      </trkpt>
      <trkpt lat="42.383922524750232696533203125" lon="-8.71398872695863246917724609375">
        <ele>43.59999847412109375</ele>
        <time>2022-11-01T09:49:10.000Z</time>
      </trkpt>
      <trkpt lat="42.383978851139545440673828125" lon="-8.71395570226013660430908203125">
        <ele>43.799999237060546875</ele>
        <time>2022-11-01T09:49:11.000Z</time>
      </trkpt>
      <trkpt lat="42.38403593190014362335205078125" lon="-8.7139244377613067626953125">
        <ele>44.200000762939453125</ele>
        <time>2022-11-01T09:49:12.000Z</time>
      </trkpt>
      <trkpt lat="42.384090833365917205810546875" lon="-8.713893927633762359619140625">
        <ele>44.40000152587890625</ele>
        <time>2022-11-01T09:49:13.000Z</time>
      </trkpt>
      <trkpt lat="42.384148500859737396240234375" lon="-8.71386651881039142608642578125">
        <ele>44.59999847412109375</ele>
        <time>2022-11-01T09:49:14.000Z</time>
      </trkpt>
      <trkpt lat="42.38420491106808185577392578125" lon="-8.7138397805392742156982421875">
        <ele>44.799999237060546875</ele>
        <time>2022-11-01T09:49:15.000Z</time>
      </trkpt>
      <trkpt lat="42.38426190800964832305908203125" lon="-8.7138139642775058746337890625">
        <ele>45.200000762939453125</ele>
        <time>2022-11-01T09:49:16.000Z</time>
      </trkpt>
      <trkpt lat="42.38431940786540508270263671875" lon="-8.71378990821540355682373046875">
        <ele>45.40000152587890625</ele>
        <time>2022-11-01T09:49:17.000Z</time>
      </trkpt>
      <trkpt lat="42.38437674008309841156005859375" lon="-8.71376685798168182373046875">
        <ele>45.799999237060546875</ele>
        <time>2022-11-01T09:49:18.000Z</time>
      </trkpt>
      <trkpt lat="42.384435497224330902099609375" lon="-8.7137422151863574981689453125">
        <ele>46.200000762939453125</ele>
        <time>2022-11-01T09:49:19.000Z</time>
      </trkpt>
      <trkpt lat="42.3844916559755802154541015625" lon="-8.71371782384812831878662109375">
        <ele>46.200000762939453125</ele>
        <time>2022-11-01T09:49:20.000Z</time>
      </trkpt>
      <trkpt lat="42.38455116748809814453125" lon="-8.71369636617600917816162109375">
        <ele>46.40000152587890625</ele>
        <time>2022-11-01T09:49:21.000Z</time>
      </trkpt>
      <trkpt lat="42.38461193628609180450439453125" lon="-8.7136749923229217529296875">
        <ele>46.40000152587890625</ele>
        <time>2022-11-01T09:49:22.000Z</time>
      </trkpt>
      <trkpt lat="42.3846732079982757568359375" lon="-8.71365127153694629669189453125">
        <ele>46.59999847412109375</ele>
        <time>2022-11-01T09:49:23.000Z</time>
      </trkpt>
      <trkpt lat="42.384733222424983978271484375" lon="-8.71362738311290740966796875">
        <ele>46.59999847412109375</ele>
        <time>2022-11-01T09:49:24.000Z</time>
      </trkpt>
      <trkpt lat="42.38479399122297763824462890625" lon="-8.71360466815531253814697265625">
        <ele>46.59999847412109375</ele>
        <time>2022-11-01T09:49:25.000Z</time>
      </trkpt>
      <trkpt lat="42.3848540894687175750732421875" lon="-8.71357935480773448944091796875">
        <ele>46.799999237060546875</ele>
        <time>2022-11-01T09:49:26.000Z</time>
      </trkpt>
      <trkpt lat="42.38491452299058437347412109375" lon="-8.7135558016598224639892578125">
        <ele>47</ele>
        <time>2022-11-01T09:49:27.000Z</time>
      </trkpt>
      <trkpt lat="42.38497219048440456390380859375" lon="-8.713531829416751861572265625">
        <ele>47.40000152587890625</ele>
        <time>2022-11-01T09:49:28.000Z</time>
      </trkpt>
      <trkpt lat="42.38503002561628818511962890625" lon="-8.7135075218975543975830078125">
        <ele>47.59999847412109375</ele>
        <time>2022-11-01T09:49:29.000Z</time>
      </trkpt>
      <trkpt lat="42.3850862681865692138671875" lon="-8.71348254382610321044921875">
        <ele>48</ele>
        <time>2022-11-01T09:49:30.000Z</time>
      </trkpt>
      <trkpt lat="42.3851430974900722503662109375" lon="-8.71345982886850833892822265625">
        <ele>48.200000762939453125</ele>
        <time>2022-11-01T09:49:31.000Z</time>
      </trkpt>
      <trkpt lat="42.3852002620697021484375" lon="-8.71343694627285003662109375">
        <ele>48.59999847412109375</ele>
        <time>2022-11-01T09:49:32.000Z</time>
      </trkpt>
      <trkpt lat="42.385254912078380584716796875" lon="-8.71341456659138202667236328125">
        <ele>48.799999237060546875</ele>
        <time>2022-11-01T09:49:33.000Z</time>
      </trkpt>
      <trkpt lat="42.3853100650012493133544921875" lon="-8.7133925221860408782958984375">
        <ele>49.200000762939453125</ele>
        <time>2022-11-01T09:49:34.000Z</time>
      </trkpt>
      <trkpt lat="42.38536530174314975738525390625" lon="-8.71337014250457286834716796875">
        <ele>49.40000152587890625</ele>
        <time>2022-11-01T09:49:35.000Z</time>
      </trkpt>
      <trkpt lat="42.38542028702795505523681640625" lon="-8.71334935538470745086669921875">
        <ele>49.59999847412109375</ele>
        <time>2022-11-01T09:49:36.000Z</time>
      </trkpt>
      <trkpt lat="42.38547476939857006072998046875" lon="-8.713330663740634918212890625">
        <ele>50</ele>
        <time>2022-11-01T09:49:37.000Z</time>
      </trkpt>
      <trkpt lat="42.3855303414165973663330078125" lon="-8.7133100442588329315185546875">
        <ele>50.200000762939453125</ele>
        <time>2022-11-01T09:49:38.000Z</time>
      </trkpt>
      <trkpt lat="42.38557635806500911712646484375" lon="-8.7132926099002361297607421875">
        <ele>50.59999847412109375</ele>
        <time>2022-11-01T09:49:39.000Z</time>
      </trkpt>
      <trkpt lat="42.38564743660390377044677734375" lon="-8.71326419524848461151123046875">
        <ele>50.799999237060546875</ele>
        <time>2022-11-01T09:49:40.000Z</time>
      </trkpt>
      <trkpt lat="42.38570426590740680694580078125" lon="-8.71324039064347743988037109375">
        <ele>51.200000762939453125</ele>
        <time>2022-11-01T09:49:41.000Z</time>
      </trkpt>
      <trkpt lat="42.3857616819441318511962890625" lon="-8.7132165022194385528564453125">
        <ele>51.40000152587890625</ele>
        <time>2022-11-01T09:49:42.000Z</time>
      </trkpt>
      <trkpt lat="42.3858190141618251800537109375" lon="-8.71319177560508251190185546875">
        <ele>51.59999847412109375</ele>
        <time>2022-11-01T09:49:43.000Z</time>
      </trkpt>
      <trkpt lat="42.38587819039821624755859375" lon="-8.71316210366785526275634765625">
        <ele>51.799999237060546875</ele>
        <time>2022-11-01T09:49:44.000Z</time>
      </trkpt>
      <trkpt lat="42.385937869548797607421875" lon="-8.71312773786485195159912109375">
        <ele>52</ele>
        <time>2022-11-01T09:49:45.000Z</time>
      </trkpt>
      <trkpt lat="42.3859983868896961212158203125" lon="-8.71309094130992889404296875">
        <ele>52.200000762939453125</ele>
        <time>2022-11-01T09:49:46.000Z</time>
      </trkpt>
      <trkpt lat="42.38605923950672149658203125" lon="-8.71305246837437152862548828125">
        <ele>52.40000152587890625</ele>
        <time>2022-11-01T09:49:47.000Z</time>
      </trkpt>
      <trkpt lat="42.38610743544995784759521484375" lon="-8.71301743201911449432373046875">
        <ele>52.799999237060546875</ele>
        <time>2022-11-01T09:49:48.000Z</time>
      </trkpt>
      <trkpt lat="42.3861673660576343536376953125" lon="-8.71297292411327362060546875">
        <ele>52.799999237060546875</ele>
        <time>2022-11-01T09:49:49.000Z</time>
      </trkpt>
      <trkpt lat="42.38623852841556072235107421875" lon="-8.71292062103748321533203125">
        <ele>53</ele>
        <time>2022-11-01T09:49:50.000Z</time>
      </trkpt>
      <trkpt lat="42.38629803992807865142822265625" lon="-8.7128765322268009185791015625">
        <ele>53.200000762939453125</ele>
        <time>2022-11-01T09:49:51.000Z</time>
      </trkpt>
      <trkpt lat="42.38635771907866001129150390625" lon="-8.7128305993974208831787109375">
        <ele>53.200000762939453125</ele>
        <time>2022-11-01T09:49:52.000Z</time>
      </trkpt>
      <trkpt lat="42.38641974516212940216064453125" lon="-8.71278190053999423980712890625">
        <ele>53.200000762939453125</ele>
        <time>2022-11-01T09:49:53.000Z</time>
      </trkpt>
      <trkpt lat="42.38648193888366222381591796875" lon="-8.71273018419742584228515625">
        <ele>53.200000762939453125</ele>
        <time>2022-11-01T09:49:54.000Z</time>
      </trkpt>
      <trkpt lat="42.38654715009033679962158203125" lon="-8.7126760371029376983642578125">
        <ele>53.200000762939453125</ele>
        <time>2022-11-01T09:49:55.000Z</time>
      </trkpt>
      <trkpt lat="42.38661336712539196014404296875" lon="-8.712623231112957000732421875">
        <ele>53</ele>
        <time>2022-11-01T09:49:56.000Z</time>
      </trkpt>
      <trkpt lat="42.38668276928365230560302734375" lon="-8.71256883256137371063232421875">
        <ele>53</ele>
        <time>2022-11-01T09:49:57.000Z</time>
      </trkpt>
      <trkpt lat="42.38675418309867382049560546875" lon="-8.71251166798174381256103515625">
        <ele>52.799999237060546875</ele>
        <time>2022-11-01T09:49:58.000Z</time>
      </trkpt>
      <trkpt lat="42.3868275247514247894287109375" lon="-8.71245450340211391448974609375">
        <ele>52</ele>
        <time>2022-11-01T09:49:59.000Z</time>
      </trkpt>
      <trkpt lat="42.3869029618799686431884765625" lon="-8.712397925555706024169921875">
        <ele>51.59999847412109375</ele>
        <time>2022-11-01T09:50:00.000Z</time>
      </trkpt>
      <trkpt lat="42.3869783990085124969482421875" lon="-8.71233900077641010284423828125">
        <ele>51.40000152587890625</ele>
        <time>2022-11-01T09:50:01.000Z</time>
      </trkpt>
      <trkpt lat="42.38705442287027835845947265625" lon="-8.712279908359050750732421875">
        <ele>51.200000762939453125</ele>
        <time>2022-11-01T09:50:02.000Z</time>
      </trkpt>
      <trkpt lat="42.3871316201984882354736328125" lon="-8.71221846900880336761474609375">
        <ele>51.200000762939453125</ele>
        <time>2022-11-01T09:50:03.000Z</time>
      </trkpt>
      <trkpt lat="42.3872100748121738433837890625" lon="-8.71215753257274627685546875">
        <ele>51</ele>
        <time>2022-11-01T09:50:04.000Z</time>
      </trkpt>
      <trkpt lat="42.3872878588736057281494140625" lon="-8.71209642849862575531005859375">
        <ele>50.799999237060546875</ele>
        <time>2022-11-01T09:50:05.000Z</time>
      </trkpt>
      <trkpt lat="42.38736555911600589752197265625" lon="-8.712035827338695526123046875">
        <ele>50.40000152587890625</ele>
        <time>2022-11-01T09:50:06.000Z</time>
      </trkpt>
      <trkpt lat="42.3874424211680889129638671875" lon="-8.71197438798844814300537109375">
        <ele>50.200000762939453125</ele>
        <time>2022-11-01T09:50:07.000Z</time>
      </trkpt>
      <trkpt lat="42.38750335760414600372314453125" lon="-8.71192795224487781524658203125">
        <ele>49.799999237060546875</ele>
        <time>2022-11-01T09:50:08.000Z</time>
      </trkpt>
      <trkpt lat="42.3875899426639080047607421875" lon="-8.711857460439205169677734375">
        <ele>49.40000152587890625</ele>
        <time>2022-11-01T09:50:09.000Z</time>
      </trkpt>
      <trkpt lat="42.3876613564789295196533203125" lon="-8.71180222369730472564697265625">
        <ele>48.799999237060546875</ele>
        <time>2022-11-01T09:50:10.000Z</time>
      </trkpt>
      <trkpt lat="42.3877334408462047576904296875" lon="-8.71175310574471950531005859375">
        <ele>48.59999847412109375</ele>
        <time>2022-11-01T09:50:11.000Z</time>
      </trkpt>
      <trkpt lat="42.38780762068927288055419921875" lon="-8.7117114476859569549560546875">
        <ele>48.200000762939453125</ele>
        <time>2022-11-01T09:50:12.000Z</time>
      </trkpt>
      <trkpt lat="42.38787702284753322601318359375" lon="-8.7116836197674274444580078125">
        <ele>47.799999237060546875</ele>
        <time>2022-11-01T09:50:13.000Z</time>
      </trkpt>
      <trkpt lat="42.3879346065223217010498046875" lon="-8.7116695381700992584228515625">
        <ele>47.200000762939453125</ele>
        <time>2022-11-01T09:50:14.000Z</time>
      </trkpt>
      <trkpt lat="42.38797961734235286712646484375" lon="-8.711658976972103118896484375">
        <ele>47</ele>
        <time>2022-11-01T09:50:15.000Z</time>
      </trkpt>
      <trkpt lat="42.3880154080688953399658203125" lon="-8.71165193617343902587890625">
        <ele>46.59999847412109375</ele>
        <time>2022-11-01T09:50:16.000Z</time>
      </trkpt>
      <trkpt lat="42.3880412243306636810302734375" lon="-8.711644895374774932861328125">
        <ele>46.200000762939453125</ele>
        <time>2022-11-01T09:50:17.000Z</time>
      </trkpt>
      <trkpt lat="42.38806192763149738311767578125" lon="-8.711640872061252593994140625">
        <ele>46</ele>
        <time>2022-11-01T09:50:18.000Z</time>
      </trkpt>
      <trkpt lat="42.38808321766555309295654296875" lon="-8.71164129115641117095947265625">
        <ele>45.799999237060546875</ele>
        <time>2022-11-01T09:50:19.000Z</time>
      </trkpt>
      <trkpt lat="42.38810702227056026458740234375" lon="-8.71164095588028430938720703125">
        <ele>45.59999847412109375</ele>
        <time>2022-11-01T09:50:20.000Z</time>
      </trkpt>
      <trkpt lat="42.38813258707523345947265625" lon="-8.71163877658545970916748046875">
        <ele>45.40000152587890625</ele>
        <time>2022-11-01T09:50:21.000Z</time>
      </trkpt>
      <trkpt lat="42.388163097202777862548828125" lon="-8.7116420455276966094970703125">
        <ele>45.40000152587890625</ele>
        <time>2022-11-01T09:50:22.000Z</time>
      </trkpt>
      <trkpt lat="42.38819117657840251922607421875" lon="-8.71164833195507526397705078125">
        <ele>45.200000762939453125</ele>
        <time>2022-11-01T09:50:23.000Z</time>
      </trkpt>
      <trkpt lat="42.3882397077977657318115234375" lon="-8.71165771968662738800048828125">
        <ele>45.200000762939453125</ele>
        <time>2022-11-01T09:50:24.000Z</time>
      </trkpt>
      <trkpt lat="42.38828605972230434417724609375" lon="-8.71167071163654327392578125">
        <ele>45.200000762939453125</ele>
        <time>2022-11-01T09:50:25.000Z</time>
      </trkpt>
      <trkpt lat="42.3883376084268093109130859375" lon="-8.7116879783570766448974609375">
        <ele>45</ele>
        <time>2022-11-01T09:50:26.000Z</time>
      </trkpt>
      <trkpt lat="42.3883925937116146087646484375" lon="-8.71171169914305210113525390625">
        <ele>45</ele>
        <time>2022-11-01T09:50:27.000Z</time>
      </trkpt>
      <trkpt lat="42.3884403705596923828125" lon="-8.71173382736742496490478515625">
        <ele>44.59999847412109375</ele>
        <time>2022-11-01T09:50:28.000Z</time>
      </trkpt>
      <trkpt lat="42.38851840607821941375732421875" lon="-8.71176484040915966033935546875">
        <ele>44.40000152587890625</ele>
        <time>2022-11-01T09:50:29.000Z</time>
      </trkpt>
      <trkpt lat="42.38858713768422603607177734375" lon="-8.71178830973803997039794921875">
        <ele>44</ele>
        <time>2022-11-01T09:50:30.000Z</time>
      </trkpt>
      <trkpt lat="42.3886581324040889739990234375" lon="-8.71181462891399860382080078125">
        <ele>44</ele>
        <time>2022-11-01T09:50:31.000Z</time>
      </trkpt>
      <trkpt lat="42.3887141235172748565673828125" lon="-8.7118376791477203369140625">
        <ele>43.59999847412109375</ele>
        <time>2022-11-01T09:50:32.000Z</time>
      </trkpt>
      <trkpt lat="42.388801462948322296142578125" lon="-8.71187330223619937896728515625">
        <ele>43.40000152587890625</ele>
        <time>2022-11-01T09:50:33.000Z</time>
      </trkpt>
      <trkpt lat="42.38887329585850238800048828125" lon="-8.711901716887950897216796875">
        <ele>43.200000762939453125</ele>
        <time>2022-11-01T09:50:34.000Z</time>
      </trkpt>
      <trkpt lat="42.3889454640448093414306640625" lon="-8.711933232843875885009765625">
        <ele>43</ele>
        <time>2022-11-01T09:50:35.000Z</time>
      </trkpt>
      <trkpt lat="42.389018721878528594970703125" lon="-8.71196114458143711090087890625">
        <ele>42.799999237060546875</ele>
        <time>2022-11-01T09:50:36.000Z</time>
      </trkpt>
      <trkpt lat="42.38909424282610416412353515625" lon="-8.7119887210428714752197265625">
        <ele>42.59999847412109375</ele>
        <time>2022-11-01T09:50:37.000Z</time>
      </trkpt>
      <trkpt lat="42.3891712725162506103515625" lon="-8.7120173871517181396484375">
        <ele>42.40000152587890625</ele>
        <time>2022-11-01T09:50:38.000Z</time>
      </trkpt>
      <trkpt lat="42.38924796693027019500732421875" lon="-8.71204680763185024261474609375">
        <ele>42</ele>
        <time>2022-11-01T09:50:39.000Z</time>
      </trkpt>
      <trkpt lat="42.3893243260681629180908203125" lon="-8.7120790779590606689453125">
        <ele>42</ele>
        <time>2022-11-01T09:50:40.000Z</time>
      </trkpt>
      <trkpt lat="42.38940085284411907196044921875" lon="-8.71210900135338306427001953125">
        <ele>42</ele>
        <time>2022-11-01T09:50:41.000Z</time>
      </trkpt>
      <trkpt lat="42.3894617892801761627197265625" lon="-8.71213129721581935882568359375">
        <ele>41.799999237060546875</ele>
        <time>2022-11-01T09:50:42.000Z</time>
      </trkpt>
      <trkpt lat="42.38955223001539707183837890625" lon="-8.71216784231364727020263671875">
        <ele>41.59999847412109375</ele>
        <time>2022-11-01T09:50:43.000Z</time>
      </trkpt>
      <trkpt lat="42.3896287567913532257080078125" lon="-8.71220204047858715057373046875">
        <ele>41.40000152587890625</ele>
        <time>2022-11-01T09:50:44.000Z</time>
      </trkpt>
      <trkpt lat="42.38970461301505565643310546875" lon="-8.71223129332065582275390625">
        <ele>41.200000762939453125</ele>
        <time>2022-11-01T09:50:45.000Z</time>
      </trkpt>
      <trkpt lat="42.38977988250553607940673828125" lon="-8.71225987561047077178955078125">
        <ele>41</ele>
        <time>2022-11-01T09:50:46.000Z</time>
      </trkpt>
      <trkpt lat="42.38985884003341197967529296875" lon="-8.71228988282382488250732421875">
        <ele>41</ele>
        <time>2022-11-01T09:50:47.000Z</time>
      </trkpt>
      <trkpt lat="42.38994031213223934173583984375" lon="-8.71232324279844760894775390625">
        <ele>40.799999237060546875</ele>
        <time>2022-11-01T09:50:48.000Z</time>
      </trkpt>
      <trkpt lat="42.39002496935427188873291015625" lon="-8.71235677041113376617431640625">
        <ele>40.799999237060546875</ele>
        <time>2022-11-01T09:50:49.000Z</time>
      </trkpt>
      <trkpt lat="42.39011473953723907470703125" lon="-8.7123917229473590850830078125">
        <ele>40.40000152587890625</ele>
        <time>2022-11-01T09:50:50.000Z</time>
      </trkpt>
      <trkpt lat="42.39020920358598232269287109375" lon="-8.71242449618875980377197265625">
        <ele>40.200000762939453125</ele>
        <time>2022-11-01T09:50:51.000Z</time>
      </trkpt>
      <trkpt lat="42.3903076909482479095458984375" lon="-8.712460286915302276611328125">
        <ele>39.799999237060546875</ele>
        <time>2022-11-01T09:50:52.000Z</time>
      </trkpt>
      <trkpt lat="42.3904079385101795196533203125" lon="-8.7124976702034473419189453125">
        <ele>39.59999847412109375</ele>
        <time>2022-11-01T09:50:53.000Z</time>
      </trkpt>
      <trkpt lat="42.39051036536693572998046875" lon="-8.7125392444431781768798828125">
        <ele>39.200000762939453125</ele>
        <time>2022-11-01T09:50:54.000Z</time>
      </trkpt>
      <trkpt lat="42.39061363041400909423828125" lon="-8.71257486753165721893310546875">
        <ele>39.200000762939453125</ele>
        <time>2022-11-01T09:50:55.000Z</time>
      </trkpt>
      <trkpt lat="42.3907173983752727508544921875" lon="-8.712611161172389984130859375">
        <ele>38.799999237060546875</ele>
        <time>2022-11-01T09:50:56.000Z</time>
      </trkpt>
      <trkpt lat="42.39081840030848979949951171875" lon="-8.71264795772731304168701171875">
        <ele>38.59999847412109375</ele>
        <time>2022-11-01T09:50:57.000Z</time>
      </trkpt>
      <trkpt lat="42.3909200727939605712890625" lon="-8.71268534101545810699462890625">
        <ele>38.59999847412109375</ele>
        <time>2022-11-01T09:50:58.000Z</time>
      </trkpt>
      <trkpt lat="42.391022332012653350830078125" lon="-8.7127219699323177337646484375">
        <ele>38.40000152587890625</ele>
        <time>2022-11-01T09:50:59.000Z</time>
      </trkpt>
      <trkpt lat="42.39112383686006069183349609375" lon="-8.71275910176336765289306640625">
        <ele>38.200000762939453125</ele>
        <time>2022-11-01T09:51:00.000Z</time>
      </trkpt>
      <trkpt lat="42.39122726954519748687744140625" lon="-8.7127898633480072021484375">
        <ele>37.59999847412109375</ele>
        <time>2022-11-01T09:51:01.000Z</time>
      </trkpt>
      <trkpt lat="42.3913326300680637359619140625" lon="-8.71280738152563571929931640625">
        <ele>37.59999847412109375</ele>
        <time>2022-11-01T09:51:02.000Z</time>
      </trkpt>
      <trkpt lat="42.3914385773241519927978515625" lon="-8.7128114886581897735595703125">
        <ele>36.799999237060546875</ele>
        <time>2022-11-01T09:51:03.000Z</time>
      </trkpt>
      <trkpt lat="42.3915448598563671112060546875" lon="-8.7127977423369884490966796875">
        <ele>36.59999847412109375</ele>
        <time>2022-11-01T09:51:04.000Z</time>
      </trkpt>
      <trkpt lat="42.39164753817021846771240234375" lon="-8.7127601914107799530029296875">
        <ele>36.200000762939453125</ele>
        <time>2022-11-01T09:51:05.000Z</time>
      </trkpt>
      <trkpt lat="42.39174275659024715423583984375" lon="-8.71269271709024906158447265625">
        <ele>35.59999847412109375</ele>
        <time>2022-11-01T09:51:06.000Z</time>
      </trkpt>
      <trkpt lat="42.39182892255485057830810546875" lon="-8.71260370127856731414794921875">
        <ele>35.200000762939453125</ele>
        <time>2022-11-01T09:51:07.000Z</time>
      </trkpt>
      <trkpt lat="42.39190184511244297027587890625" lon="-8.71249951422214508056640625">
        <ele>34.799999237060546875</ele>
        <time>2022-11-01T09:51:08.000Z</time>
      </trkpt>
      <trkpt lat="42.3919569142162799835205078125" lon="-8.712381161749362945556640625">
        <ele>34.59999847412109375</ele>
        <time>2022-11-01T09:51:09.000Z</time>
      </trkpt>
      <trkpt lat="42.39200075156986713409423828125" lon="-8.71225166134536266326904296875">
        <ele>34.200000762939453125</ele>
        <time>2022-11-01T09:51:10.000Z</time>
      </trkpt>
      <trkpt lat="42.392034195363521575927734375" lon="-8.71214068494737148284912109375">
        <ele>33.799999237060546875</ele>
        <time>2022-11-01T09:51:11.000Z</time>
      </trkpt>
      <trkpt lat="42.39209027029573917388916015625" lon="-8.7119729630649089813232421875">
        <ele>33.200000762939453125</ele>
        <time>2022-11-01T09:51:12.000Z</time>
      </trkpt>
      <trkpt lat="42.39213980734348297119140625" lon="-8.7118291296064853668212890625">
        <ele>33</ele>
        <time>2022-11-01T09:51:13.000Z</time>
      </trkpt>
      <trkpt lat="42.39218967966735363006591796875" lon="-8.71168269775807857513427734375">
        <ele>32.59999847412109375</ele>
        <time>2022-11-01T09:51:14.000Z</time>
      </trkpt>
      <trkpt lat="42.39224080927670001983642578125" lon="-8.71153266169130802154541015625">
        <ele>32.40000152587890625</ele>
        <time>2022-11-01T09:51:15.000Z</time>
      </trkpt>
      <trkpt lat="42.392295040190219879150390625" lon="-8.71138044632971286773681640625">
        <ele>31.799999237060546875</ele>
        <time>2022-11-01T09:51:16.000Z</time>
      </trkpt>
      <trkpt lat="42.39234709180891513824462890625" lon="-8.71122680604457855224609375">
        <ele>30.799999237060546875</ele>
        <time>2022-11-01T09:51:17.000Z</time>
      </trkpt>
      <trkpt lat="42.392397634685039520263671875" lon="-8.7110707350075244903564453125">
        <ele>30.3999996185302734375</ele>
        <time>2022-11-01T09:51:18.000Z</time>
      </trkpt>
      <trkpt lat="42.3924474231898784637451171875" lon="-8.71091592125594615936279296875">
        <ele>29.200000762939453125</ele>
        <time>2022-11-01T09:51:19.000Z</time>
      </trkpt>
      <trkpt lat="42.3924993909895420074462890625" lon="-8.71075876057147979736328125">
        <ele>28.6000003814697265625</ele>
        <time>2022-11-01T09:51:20.000Z</time>
      </trkpt>
      <trkpt lat="42.3925453238189220428466796875" lon="-8.7105943076312541961669921875">
        <ele>27.6000003814697265625</ele>
        <time>2022-11-01T09:51:21.000Z</time>
      </trkpt>
      <trkpt lat="42.39259310066699981689453125" lon="-8.71043027378618717193603515625">
        <ele>27</ele>
        <time>2022-11-01T09:51:22.000Z</time>
      </trkpt>
      <trkpt lat="42.392643392086029052734375" lon="-8.710273616015911102294921875">
        <ele>26</ele>
        <time>2022-11-01T09:51:23.000Z</time>
      </trkpt>
      <trkpt lat="42.39270986057817935943603515625" lon="-8.7101306207478046417236328125">
        <ele>25.6000003814697265625</ele>
        <time>2022-11-01T09:51:24.000Z</time>
      </trkpt>
      <trkpt lat="42.39279150031507015228271484375" lon="-8.71000849641859531402587890625">
        <ele>24.6000003814697265625</ele>
        <time>2022-11-01T09:51:25.000Z</time>
      </trkpt>
      <trkpt lat="42.39286668598651885986328125" lon="-8.70992618612945079803466796875">
        <ele>24</ele>
        <time>2022-11-01T09:51:26.000Z</time>
      </trkpt>
      <trkpt lat="42.3929955996572971343994140625" lon="-8.70983733795583248138427734375">
        <ele>23.6000003814697265625</ele>
        <time>2022-11-01T09:51:27.000Z</time>
      </trkpt>
      <trkpt lat="42.39310934208333492279052734375" lon="-8.709790818393230438232421875">
        <ele>22.6000003814697265625</ele>
        <time>2022-11-01T09:51:28.000Z</time>
      </trkpt>
      <trkpt lat="42.3932225815951824188232421875" lon="-8.70975620113313198089599609375">
        <ele>22.200000762939453125</ele>
        <time>2022-11-01T09:51:29.000Z</time>
      </trkpt>
      <trkpt lat="42.39333498291671276092529296875" lon="-8.70971865020692348480224609375">
        <ele>21.799999237060546875</ele>
        <time>2022-11-01T09:51:30.000Z</time>
      </trkpt>
      <trkpt lat="42.39344445057213306427001953125" lon="-8.70966567657887935638427734375">
        <ele>21.6000003814697265625</ele>
        <time>2022-11-01T09:51:31.000Z</time>
      </trkpt>
      <trkpt lat="42.39354670979082584381103515625" lon="-8.70959577150642871856689453125">
        <ele>21.200000762939453125</ele>
        <time>2022-11-01T09:51:32.000Z</time>
      </trkpt>
      <trkpt lat="42.3936389945447444915771484375" lon="-8.70950239710509777069091796875">
        <ele>21</ele>
        <time>2022-11-01T09:51:33.000Z</time>
      </trkpt>
      <trkpt lat="42.39372004754841327667236328125" lon="-8.70938790030777454376220703125">
        <ele>20.6000003814697265625</ele>
        <time>2022-11-01T09:51:34.000Z</time>
      </trkpt>
      <trkpt lat="42.39379347302019596099853515625" lon="-8.7092615850269794464111328125">
        <ele>20.200000762939453125</ele>
        <time>2022-11-01T09:51:35.000Z</time>
      </trkpt>
      <trkpt lat="42.39385776221752166748046875" lon="-8.70912487618625164031982421875">
        <ele>19.3999996185302734375</ele>
        <time>2022-11-01T09:51:36.000Z</time>
      </trkpt>
      <trkpt lat="42.39390847273170948028564453125" lon="-8.70897852815687656402587890625">
        <ele>19</ele>
        <time>2022-11-01T09:51:37.000Z</time>
      </trkpt>
      <trkpt lat="42.393944598734378814697265625" lon="-8.70882715098559856414794921875">
        <ele>18.799999237060546875</ele>
        <time>2022-11-01T09:51:38.000Z</time>
      </trkpt>
      <trkpt lat="42.39397577941417694091796875" lon="-8.70867560617625713348388671875">
        <ele>18</ele>
        <time>2022-11-01T09:51:39.000Z</time>
      </trkpt>
      <trkpt lat="42.3940014280378818511962890625" lon="-8.70855457149446010589599609375">
        <ele>17.3999996185302734375</ele>
        <time>2022-11-01T09:51:40.000Z</time>
      </trkpt>
      <trkpt lat="42.394035793840885162353515625" lon="-8.70837234891951084136962890625">
        <ele>16.3999996185302734375</ele>
        <time>2022-11-01T09:51:41.000Z</time>
      </trkpt>
      <trkpt lat="42.3940622806549072265625" lon="-8.70822264812886714935302734375">
        <ele>16</ele>
        <time>2022-11-01T09:51:42.000Z</time>
      </trkpt>
      <trkpt lat="42.3940885998308658599853515625" lon="-8.70807294733822345733642578125">
        <ele>15.3999996185302734375</ele>
        <time>2022-11-01T09:51:43.000Z</time>
      </trkpt>
      <trkpt lat="42.3941167630255222320556640625" lon="-8.70792140252888202667236328125">
        <ele>15</ele>
        <time>2022-11-01T09:51:44.000Z</time>
      </trkpt>
      <trkpt lat="42.3941429145634174346923828125" lon="-8.70777321048080921173095703125">
        <ele>14.6000003814697265625</ele>
        <time>2022-11-01T09:51:45.000Z</time>
      </trkpt>
      <trkpt lat="42.394162528216838836669921875" lon="-8.70762669481337070465087890625">
        <ele>14</ele>
        <time>2022-11-01T09:51:46.000Z</time>
      </trkpt>
      <trkpt lat="42.3941695690155029296875" lon="-8.70748353190720081329345703125">
        <ele>13.80000019073486328125</ele>
        <time>2022-11-01T09:51:47.000Z</time>
      </trkpt>
      <trkpt lat="42.3941486142575740814208984375" lon="-8.707345984876155853271484375">
        <ele>13</ele>
        <time>2022-11-01T09:51:48.000Z</time>
      </trkpt>
      <trkpt lat="42.3941053636372089385986328125" lon="-8.70721698738634586334228515625">
        <ele>12.80000019073486328125</ele>
        <time>2022-11-01T09:51:49.000Z</time>
      </trkpt>
      <trkpt lat="42.3940329439938068389892578125" lon="-8.70710684917867183685302734375">
        <ele>12.6000003814697265625</ele>
        <time>2022-11-01T09:51:50.000Z</time>
      </trkpt>
      <trkpt lat="42.393939904868602752685546875" lon="-8.7070239521563053131103515625">
        <ele>12.3999996185302734375</ele>
        <time>2022-11-01T09:51:51.000Z</time>
      </trkpt>
      <trkpt lat="42.393839992582798004150390625" lon="-8.70695262216031551361083984375">
        <ele>11.6000003814697265625</ele>
        <time>2022-11-01T09:51:52.000Z</time>
      </trkpt>
      <trkpt lat="42.39373303949832916259765625" lon="-8.7068864889442920684814453125">
        <ele>11.3999996185302734375</ele>
        <time>2022-11-01T09:51:53.000Z</time>
      </trkpt>
      <trkpt lat="42.3936349712312221527099609375" lon="-8.70682085864245891571044921875">
        <ele>11.19999980926513671875</ele>
        <time>2022-11-01T09:51:54.000Z</time>
      </trkpt>
      <trkpt lat="42.3935364000499248504638671875" lon="-8.7067527137696743011474609375">
        <ele>11</ele>
        <time>2022-11-01T09:51:55.000Z</time>
      </trkpt>
      <trkpt lat="42.393442355096340179443359375" lon="-8.70668691582977771759033203125">
        <ele>10.19999980926513671875</ele>
        <time>2022-11-01T09:51:56.000Z</time>
      </trkpt>
      <trkpt lat="42.39334755577147006988525390625" lon="-8.70662455447018146514892578125">
        <ele>9.6000003814697265625</ele>
        <time>2022-11-01T09:51:57.000Z</time>
      </trkpt>
      <trkpt lat="42.39325887523591518402099609375" lon="-8.7065617740154266357421875">
        <ele>9.3999996185302734375</ele>
        <time>2022-11-01T09:51:58.000Z</time>
      </trkpt>
      <trkpt lat="42.39316784776747226715087890625" lon="-8.70649941265583038330078125">
        <ele>9.19999980926513671875</ele>
        <time>2022-11-01T09:51:59.000Z</time>
      </trkpt>
      <trkpt lat="42.3930738866329193115234375" lon="-8.70643394999206066131591796875">
        <ele>9.19999980926513671875</ele>
        <time>2022-11-01T09:52:00.000Z</time>
      </trkpt>
      <trkpt lat="42.3929855413734912872314453125" lon="-8.7063758634030818939208984375">
        <ele>9.19999980926513671875</ele>
        <time>2022-11-01T09:52:01.000Z</time>
      </trkpt>
      <trkpt lat="42.392896525561809539794921875" lon="-8.7063175253570079803466796875">
        <ele>9.19999980926513671875</ele>
        <time>2022-11-01T09:52:02.000Z</time>
      </trkpt>
      <trkpt lat="42.39281035959720611572265625" lon="-8.7062511406838893890380859375">
        <ele>9</ele>
        <time>2022-11-01T09:52:03.000Z</time>
      </trkpt>
      <trkpt lat="42.392724193632602691650390625" lon="-8.7061901204288005828857421875">
        <ele>9</ele>
        <time>2022-11-01T09:52:04.000Z</time>
      </trkpt>
      <trkpt lat="42.39264448173344135284423828125" lon="-8.7061240710318088531494140625">
        <ele>9</ele>
        <time>2022-11-01T09:52:05.000Z</time>
      </trkpt>
      <trkpt lat="42.39256971515715122222900390625" lon="-8.7060818262398242950439453125">
        <ele>8.80000019073486328125</ele>
        <time>2022-11-01T09:52:06.000Z</time>
      </trkpt>
      <trkpt lat="42.3924896679818630218505859375" lon="-8.70606145821511745452880859375">
        <ele>8.80000019073486328125</ele>
        <time>2022-11-01T09:52:07.000Z</time>
      </trkpt>
      <trkpt lat="42.392408363521099090576171875" lon="-8.70606221258640289306640625">
        <ele>8.80000019073486328125</ele>
        <time>2022-11-01T09:52:08.000Z</time>
      </trkpt>
      <trkpt lat="42.3923397995531558990478515625" lon="-8.7060714326798915863037109375">
        <ele>8.6000003814697265625</ele>
        <time>2022-11-01T09:52:09.000Z</time>
      </trkpt>
      <trkpt lat="42.39224248565733432769775390625" lon="-8.70609465055167675018310546875">
        <ele>8.6000003814697265625</ele>
        <time>2022-11-01T09:52:10.000Z</time>
      </trkpt>
      <trkpt lat="42.39216302521526813507080078125" lon="-8.706114850938320159912109375">
        <ele>8.6000003814697265625</ele>
        <time>2022-11-01T09:52:11.000Z</time>
      </trkpt>
      <trkpt lat="42.3920735903084278106689453125" lon="-8.706126920878887176513671875">
        <ele>8.3999996185302734375</ele>
        <time>2022-11-01T09:52:12.000Z</time>
      </trkpt>
      <trkpt lat="42.3919958062469959259033203125" lon="-8.706124909222126007080078125">
        <ele>8.3999996185302734375</ele>
        <time>2022-11-01T09:52:13.000Z</time>
      </trkpt>
      <trkpt lat="42.3919126577675342559814453125" lon="-8.70612834580242633819580078125">
        <ele>8.3999996185302734375</ele>
        <time>2022-11-01T09:52:14.000Z</time>
      </trkpt>
      <trkpt lat="42.39183110184967517852783203125" lon="-8.70612465776503086090087890625">
        <ele>8.3999996185302734375</ele>
        <time>2022-11-01T09:52:15.000Z</time>
      </trkpt>
      <trkpt lat="42.39174141548573970794677734375" lon="-8.7061073072254657745361328125">
        <ele>8.19999980926513671875</ele>
        <time>2022-11-01T09:52:16.000Z</time>
      </trkpt>
      <trkpt lat="42.39164351485669612884521484375" lon="-8.706100769340991973876953125">
        <ele>7.80000019073486328125</ele>
        <time>2022-11-01T09:52:17.000Z</time>
      </trkpt>
      <trkpt lat="42.39154628477990627288818359375" lon="-8.7060972489416599273681640625">
        <ele>7.80000019073486328125</ele>
        <time>2022-11-01T09:52:18.000Z</time>
      </trkpt>
      <trkpt lat="42.39145492203533649444580078125" lon="-8.70609347708523273468017578125">
        <ele>7.400000095367431640625</ele>
        <time>2022-11-01T09:52:19.000Z</time>
      </trkpt>
      <trkpt lat="42.39135752432048320770263671875" lon="-8.706090040504932403564453125">
        <ele>7.19999980926513671875</ele>
        <time>2022-11-01T09:52:20.000Z</time>
      </trkpt>
      <trkpt lat="42.3912595398724079132080078125" lon="-8.70608928613364696502685546875">
        <ele>6.19999980926513671875</ele>
        <time>2022-11-01T09:52:21.000Z</time>
      </trkpt>
      <trkpt lat="42.39116138778626918792724609375" lon="-8.70608325116336345672607421875">
        <ele>5.599999904632568359375</ele>
        <time>2022-11-01T09:52:22.000Z</time>
      </trkpt>
      <trkpt lat="42.3910660855472087860107421875" lon="-8.70608006604015827178955078125">
        <ele>5</ele>
        <time>2022-11-01T09:52:23.000Z</time>
      </trkpt>
      <trkpt lat="42.3909725435078144073486328125" lon="-8.7060710974037647247314453125">
        <ele>4.80000019073486328125</ele>
        <time>2022-11-01T09:52:24.000Z</time>
      </trkpt>
      <trkpt lat="42.39087288267910480499267578125" lon="-8.70605324395000934600830078125">
        <ele>4.400000095367431640625</ele>
        <time>2022-11-01T09:52:25.000Z</time>
      </trkpt>
      <trkpt lat="42.3907854594290256500244140625" lon="-8.70601753704249858856201171875">
        <ele>4</ele>
        <time>2022-11-01T09:52:26.000Z</time>
      </trkpt>
      <trkpt lat="42.39071412943303585052490234375" lon="-8.70594955980777740478515625">
        <ele>3.599999904632568359375</ele>
        <time>2022-11-01T09:52:27.000Z</time>
      </trkpt>
      <trkpt lat="42.39064858295023441314697265625" lon="-8.70588141493499279022216796875">
        <ele>3</ele>
        <time>2022-11-01T09:52:28.000Z</time>
      </trkpt>
      <trkpt lat="42.3906007222831249237060546875" lon="-8.70578988455235958099365234375">
        <ele>2.7999999523162841796875</ele>
        <time>2022-11-01T09:52:29.000Z</time>
      </trkpt>
      <trkpt lat="42.39057515747845172882080078125" lon="-8.7056704424321651458740234375">
        <ele>2.400000095367431640625</ele>
        <time>2022-11-01T09:52:30.000Z</time>
      </trkpt>
      <trkpt lat="42.39058144390583038330078125" lon="-8.70555116795003414154052734375">
        <ele>2.2000000476837158203125</ele>
        <time>2022-11-01T09:52:31.000Z</time>
      </trkpt>
      <trkpt lat="42.3906530253589153289794921875" lon="-8.70543717406690120697021484375">
        <ele>1.60000002384185791015625</ele>
        <time>2022-11-01T09:52:32.000Z</time>
      </trkpt>
      <trkpt lat="42.39069300703704357147216796875" lon="-8.70533533394336700439453125">
        <ele>0.800000011920928955078125</ele>
        <time>2022-11-01T09:52:33.000Z</time>
      </trkpt>
      <trkpt lat="42.39071010611951351165771484375" lon="-8.70524824596941471099853515625">
        <ele>-0.20000000298023223876953125</ele>
        <time>2022-11-01T09:52:34.000Z</time>
      </trkpt>
      <trkpt lat="42.39071647636592388153076171875" lon="-8.70515503920614719390869140625">
        <ele>-0.60000002384185791015625</ele>
        <time>2022-11-01T09:52:35.000Z</time>
      </trkpt>
      <trkpt lat="42.3907304741442203521728515625" lon="-8.70504925958812236785888671875">
        <ele>-0.800000011920928955078125</ele>
        <time>2022-11-01T09:52:36.000Z</time>
      </trkpt>
      <trkpt lat="42.39075587131083011627197265625" lon="-8.70494641363620758056640625">
        <ele>-1.2000000476837158203125</ele>
        <time>2022-11-01T09:52:37.000Z</time>
      </trkpt>
      <trkpt lat="42.39077867008745670318603515625" lon="-8.70484608225524425506591796875">
        <ele>-1.2000000476837158203125</ele>
        <time>2022-11-01T09:52:38.000Z</time>
      </trkpt>
      <trkpt lat="42.39078822545707225799560546875" lon="-8.704736866056919097900390625">
        <ele>-1.60000002384185791015625</ele>
        <time>2022-11-01T09:52:39.000Z</time>
      </trkpt>
      <trkpt lat="42.39080398343503475189208984375" lon="-8.70462588965892791748046875">
        <ele>-1.7999999523162841796875</ele>
        <time>2022-11-01T09:52:40.000Z</time>
      </trkpt>
      <trkpt lat="42.39081789739429950714111328125" lon="-8.7045244686305522918701171875">
        <ele>-1.7999999523162841796875</ele>
        <time>2022-11-01T09:52:41.000Z</time>
      </trkpt>
      <trkpt lat="42.390855364501476287841796875" lon="-8.70443168096244335174560546875">
        <ele>-1.7999999523162841796875</ele>
        <time>2022-11-01T09:52:42.000Z</time>
      </trkpt>
      <trkpt lat="42.39090305753052234649658203125" lon="-8.7043457664549350738525390625">
        <ele>-1.7999999523162841796875</ele>
        <time>2022-11-01T09:52:43.000Z</time>
      </trkpt>
      <trkpt lat="42.39095770753920078277587890625" lon="-8.70425851084291934967041015625">
        <ele>-2</ele>
        <time>2022-11-01T09:52:44.000Z</time>
      </trkpt>
      <trkpt lat="42.3910070769488811492919921875" lon="-8.70416999794542789459228515625">
        <ele>-2</ele>
        <time>2022-11-01T09:52:45.000Z</time>
      </trkpt>
      <trkpt lat="42.39104303531348705291748046875" lon="-8.704081065952777862548828125">
        <ele>-2</ele>
        <time>2022-11-01T09:52:46.000Z</time>
      </trkpt>
      <trkpt lat="42.3910818435251712799072265625" lon="-8.7039935588836669921875">
        <ele>-2</ele>
        <time>2022-11-01T09:52:47.000Z</time>
      </trkpt>
      <trkpt lat="42.3911185562610626220703125" lon="-8.70390747673809528350830078125">
        <ele>-1.7999999523162841796875</ele>
        <time>2022-11-01T09:52:48.000Z</time>
      </trkpt>
      <trkpt lat="42.3911529220640659332275390625" lon="-8.7038190476596355438232421875">
        <ele>-1.7999999523162841796875</ele>
        <time>2022-11-01T09:52:49.000Z</time>
      </trkpt>
      <trkpt lat="42.39118536002933979034423828125" lon="-8.703732378780841827392578125">
        <ele>-1.60000002384185791015625</ele>
        <time>2022-11-01T09:52:50.000Z</time>
      </trkpt>
      <trkpt lat="42.39121989347040653228759765625" lon="-8.7036490626633167266845703125">
        <ele>-1.60000002384185791015625</ele>
        <time>2022-11-01T09:52:51.000Z</time>
      </trkpt>
      <trkpt lat="42.39125912077724933624267578125" lon="-8.7035679258406162261962890625">
        <ele>-1.39999997615814208984375</ele>
        <time>2022-11-01T09:52:52.000Z</time>
      </trkpt>
      <trkpt lat="42.39129214547574520111083984375" lon="-8.703484274446964263916015625">
        <ele>-1.39999997615814208984375</ele>
        <time>2022-11-01T09:52:53.000Z</time>
      </trkpt>
      <trkpt lat="42.391325421631336212158203125" lon="-8.7033989466726779937744140625">
        <ele>-1</ele>
        <time>2022-11-01T09:52:54.000Z</time>
      </trkpt>
      <trkpt lat="42.39136137999594211578369140625" lon="-8.703314624726772308349609375">
        <ele>-0.800000011920928955078125</ele>
        <time>2022-11-01T09:52:55.000Z</time>
      </trkpt>
      <trkpt lat="42.39139943383634090423583984375" lon="-8.70323725976049900054931640625">
        <ele>-0.60000002384185791015625</ele>
        <time>2022-11-01T09:52:56.000Z</time>
      </trkpt>
      <trkpt lat="42.3914322070777416229248046875" lon="-8.70315846987068653106689453125">
        <ele>-0.4000000059604644775390625</ele>
        <time>2022-11-01T09:52:57.000Z</time>
      </trkpt>
      <trkpt lat="42.3914610408246517181396484375" lon="-8.70308370329439640045166015625">
        <ele>-0.4000000059604644775390625</ele>
        <time>2022-11-01T09:52:58.000Z</time>
      </trkpt>
      <trkpt lat="42.3914848454296588897705078125" lon="-8.7030078470706939697265625">
        <ele>-0.20000000298023223876953125</ele>
        <time>2022-11-01T09:52:59.000Z</time>
      </trkpt>
      <trkpt lat="42.39150403998792171478271484375" lon="-8.702939115464687347412109375">
        <ele>0</ele>
        <time>2022-11-01T09:53:00.000Z</time>
      </trkpt>
      <trkpt lat="42.3915133439004421234130859375" lon="-8.70289142243564128875732421875">
        <ele>0.20000000298023223876953125</ele>
        <time>2022-11-01T09:53:01.000Z</time>
      </trkpt>
      <trkpt lat="42.391523905098438262939453125" lon="-8.70281715877354145050048828125">
        <ele>0.4000000059604644775390625</ele>
        <time>2022-11-01T09:53:02.000Z</time>
      </trkpt>
      <trkpt lat="42.39153765141963958740234375" lon="-8.70272529311478137969970703125">
        <ele>0.60000002384185791015625</ele>
        <time>2022-11-01T09:53:03.000Z</time>
      </trkpt>
      <trkpt lat="42.39153689704835414886474609375" lon="-8.70264868251979351043701171875">
        <ele>0.800000011920928955078125</ele>
        <time>2022-11-01T09:53:04.000Z</time>
      </trkpt>
      <trkpt lat="42.39154175855219364166259765625" lon="-8.70257358066737651824951171875">
        <ele>1</ele>
        <time>2022-11-01T09:53:05.000Z</time>
      </trkpt>
      <trkpt lat="42.39154946990311145782470703125" lon="-8.70248909108340740203857421875">
        <ele>1.2000000476837158203125</ele>
        <time>2022-11-01T09:53:06.000Z</time>
      </trkpt>
      <trkpt lat="42.39155374467372894287109375" lon="-8.7024038471281528472900390625">
        <ele>1.60000002384185791015625</ele>
        <time>2022-11-01T09:53:07.000Z</time>
      </trkpt>
      <trkpt lat="42.39153991453349590301513671875" lon="-8.70232346467673778533935546875">
        <ele>1.7999999523162841796875</ele>
        <time>2022-11-01T09:53:08.000Z</time>
      </trkpt>
      <trkpt lat="42.3915291018784046173095703125" lon="-8.7022407352924346923828125">
        <ele>2</ele>
        <time>2022-11-01T09:53:09.000Z</time>
      </trkpt>
      <trkpt lat="42.39153228700160980224609375" lon="-8.702159933745861053466796875">
        <ele>2.2000000476837158203125</ele>
        <time>2022-11-01T09:53:10.000Z</time>
      </trkpt>
      <trkpt lat="42.391542010009288787841796875" lon="-8.7020826525986194610595703125">
        <ele>2.2000000476837158203125</ele>
        <time>2022-11-01T09:53:11.000Z</time>
      </trkpt>
      <trkpt lat="42.3915559239685535430908203125" lon="-8.7020085565745830535888671875">
        <ele>2.2000000476837158203125</ele>
        <time>2022-11-01T09:53:12.000Z</time>
      </trkpt>
      <trkpt lat="42.3915733583271503448486328125" lon="-8.70193186216056346893310546875">
        <ele>2.2000000476837158203125</ele>
        <time>2022-11-01T09:53:13.000Z</time>
      </trkpt>
      <trkpt lat="42.391590289771556854248046875" lon="-8.70184837840497493743896484375">
        <ele>2.400000095367431640625</ele>
        <time>2022-11-01T09:53:14.000Z</time>
      </trkpt>
      <trkpt lat="42.391595654189586639404296875" lon="-8.701767660677433013916015625">
        <ele>2.400000095367431640625</ele>
        <time>2022-11-01T09:53:15.000Z</time>
      </trkpt>
      <trkpt lat="42.3916038684546947479248046875" lon="-8.701689876616001129150390625">
        <ele>2.599999904632568359375</ele>
        <time>2022-11-01T09:53:16.000Z</time>
      </trkpt>
      <trkpt lat="42.39161300472915172576904296875" lon="-8.70161108672618865966796875">
        <ele>2.599999904632568359375</ele>
        <time>2022-11-01T09:53:17.000Z</time>
      </trkpt>
      <trkpt lat="42.39161702804267406463623046875" lon="-8.70153003372251987457275390625">
        <ele>3</ele>
        <time>2022-11-01T09:53:18.000Z</time>
      </trkpt>
      <trkpt lat="42.3916233144700527191162109375" lon="-8.70145577006042003631591796875">
        <ele>3.2000000476837158203125</ele>
        <time>2022-11-01T09:53:19.000Z</time>
      </trkpt>
      <trkpt lat="42.39163429476320743560791015625" lon="-8.70138552971184253692626953125">
        <ele>3</ele>
        <time>2022-11-01T09:53:20.000Z</time>
      </trkpt>
      <trkpt lat="42.39164468832314014434814453125" lon="-8.7013153731822967529296875">
        <ele>3.2000000476837158203125</ele>
        <time>2022-11-01T09:53:21.000Z</time>
      </trkpt>
      <trkpt lat="42.39164971746504306793212890625" lon="-8.70124362409114837646484375">
        <ele>3.2000000476837158203125</ele>
        <time>2022-11-01T09:53:22.000Z</time>
      </trkpt>
      <trkpt lat="42.3916474543511867523193359375" lon="-8.7011690251529216766357421875">
        <ele>3.400000095367431640625</ele>
        <time>2022-11-01T09:53:23.000Z</time>
      </trkpt>
      <trkpt lat="42.39163555204868316650390625" lon="-8.7010942585766315460205078125">
        <ele>3.599999904632568359375</ele>
        <time>2022-11-01T09:53:24.000Z</time>
      </trkpt>
      <trkpt lat="42.39162557758390903472900390625" lon="-8.70102234184741973876953125">
        <ele>3.7999999523162841796875</ele>
        <time>2022-11-01T09:53:25.000Z</time>
      </trkpt>
      <trkpt lat="42.3916189558804035186767578125" lon="-8.7009648419916629791259765625">
        <ele>4</ele>
        <time>2022-11-01T09:53:26.000Z</time>
      </trkpt>
      <trkpt lat="42.39159397780895233154296875" lon="-8.7008813582360744476318359375">
        <ele>4</ele>
        <time>2022-11-01T09:53:27.000Z</time>
      </trkpt>
      <trkpt lat="42.39158366806805133819580078125" lon="-8.700805418193340301513671875">
        <ele>4</ele>
        <time>2022-11-01T09:53:28.000Z</time>
      </trkpt>
      <trkpt lat="42.39158065058290958404541015625" lon="-8.7007314898073673248291015625">
        <ele>4.19999980926513671875</ele>
        <time>2022-11-01T09:53:29.000Z</time>
      </trkpt>
      <trkpt lat="42.391581237316131591796875" lon="-8.7006728164851665496826171875">
        <ele>4.599999904632568359375</ele>
        <time>2022-11-01T09:53:30.000Z</time>
      </trkpt>
      <trkpt lat="42.3915726877748966217041015625" lon="-8.70059511624276638031005859375">
        <ele>4.599999904632568359375</ele>
        <time>2022-11-01T09:53:31.000Z</time>
      </trkpt>
      <trkpt lat="42.391569502651691436767578125" lon="-8.70050408877432346343994140625">
        <ele>4.80000019073486328125</ele>
        <time>2022-11-01T09:53:32.000Z</time>
      </trkpt>
      <trkpt lat="42.39157360978424549102783203125" lon="-8.700429908931255340576171875">
        <ele>5</ele>
        <time>2022-11-01T09:53:33.000Z</time>
      </trkpt>
      <trkpt lat="42.39157696254551410675048828125" lon="-8.70035304687917232513427734375">
        <ele>5</ele>
        <time>2022-11-01T09:53:34.000Z</time>
      </trkpt>
      <trkpt lat="42.391580902040004730224609375" lon="-8.70027895085513591766357421875">
        <ele>5.19999980926513671875</ele>
        <time>2022-11-01T09:53:35.000Z</time>
      </trkpt>
      <trkpt lat="42.391582913696765899658203125" lon="-8.70020569302141666412353515625">
        <ele>5.19999980926513671875</ele>
        <time>2022-11-01T09:53:36.000Z</time>
      </trkpt>
      <trkpt lat="42.391586266458034515380859375" lon="-8.70013293810188770294189453125">
        <ele>5.400000095367431640625</ele>
        <time>2022-11-01T09:53:37.000Z</time>
      </trkpt>
      <trkpt lat="42.391587607562541961669921875" lon="-8.70006085373461246490478515625">
        <ele>5.80000019073486328125</ele>
        <time>2022-11-01T09:53:38.000Z</time>
      </trkpt>
      <trkpt lat="42.39158903248608112335205078125" lon="-8.6999885179102420806884765625">
        <ele>6.19999980926513671875</ele>
        <time>2022-11-01T09:53:39.000Z</time>
      </trkpt>
      <trkpt lat="42.39159087650477886199951171875" lon="-8.6999352090060710906982421875">
        <ele>6.19999980926513671875</ele>
        <time>2022-11-01T09:53:40.000Z</time>
      </trkpt>
      <trkpt lat="42.391594313085079193115234375" lon="-8.69986907579004764556884765625">
        <ele>6.400000095367431640625</ele>
        <time>2022-11-01T09:53:41.000Z</time>
      </trkpt>
      <trkpt lat="42.3915964923799037933349609375" lon="-8.6997860111296176910400390625">
        <ele>6.400000095367431640625</ele>
        <time>2022-11-01T09:53:42.000Z</time>
      </trkpt>
      <trkpt lat="42.39159624092280864715576171875" lon="-8.69972289539873600006103515625">
        <ele>6.599999904632568359375</ele>
        <time>2022-11-01T09:53:43.000Z</time>
      </trkpt>
      <trkpt lat="42.3915933072566986083984375" lon="-8.699654079973697662353515625">
        <ele>6.599999904632568359375</ele>
        <time>2022-11-01T09:53:44.000Z</time>
      </trkpt>
      <trkpt lat="42.39159137941896915435791015625" lon="-8.6995865218341350555419921875">
        <ele>6.599999904632568359375</ele>
        <time>2022-11-01T09:53:45.000Z</time>
      </trkpt>
      <trkpt lat="42.391590960323810577392578125" lon="-8.69952055625617504119873046875">
        <ele>6.599999904632568359375</ele>
        <time>2022-11-01T09:53:46.000Z</time>
      </trkpt>
      <trkpt lat="42.3915941454470157623291015625" lon="-8.69944813661277294158935546875">
        <ele>6.80000019073486328125</ele>
        <time>2022-11-01T09:53:47.000Z</time>
      </trkpt>
      <trkpt lat="42.39159808494150638580322265625" lon="-8.699373118579387664794921875">
        <ele>6.80000019073486328125</ele>
        <time>2022-11-01T09:53:48.000Z</time>
      </trkpt>
      <trkpt lat="42.3916008509695529937744140625" lon="-8.69929541833698749542236328125">
        <ele>6.80000019073486328125</ele>
        <time>2022-11-01T09:53:49.000Z</time>
      </trkpt>
      <trkpt lat="42.391602694988250732421875" lon="-8.6992311291396617889404296875">
        <ele>6.80000019073486328125</ele>
        <time>2022-11-01T09:53:50.000Z</time>
      </trkpt>
      <trkpt lat="42.3916067183017730712890625" lon="-8.69913381524384021759033203125">
        <ele>6.80000019073486328125</ele>
        <time>2022-11-01T09:53:51.000Z</time>
      </trkpt>
      <trkpt lat="42.39161275327205657958984375" lon="-8.6990515887737274169921875">
        <ele>6.599999904632568359375</ele>
        <time>2022-11-01T09:53:52.000Z</time>
      </trkpt>
      <trkpt lat="42.391620464622974395751953125" lon="-8.6989662609994411468505859375">
        <ele>6.599999904632568359375</ele>
        <time>2022-11-01T09:53:53.000Z</time>
      </trkpt>
      <trkpt lat="42.39162909798324108123779296875" lon="-8.69887364096939563751220703125">
        <ele>6.599999904632568359375</ele>
        <time>2022-11-01T09:53:54.000Z</time>
      </trkpt>
      <trkpt lat="42.39163848571479320526123046875" lon="-8.69877599179744720458984375">
        <ele>6.400000095367431640625</ele>
        <time>2022-11-01T09:53:55.000Z</time>
      </trkpt>
      <trkpt lat="42.39165390841662883758544921875" lon="-8.69868571870028972625732421875">
        <ele>5.80000019073486328125</ele>
        <time>2022-11-01T09:53:56.000Z</time>
      </trkpt>
      <trkpt lat="42.391673438251018524169921875" lon="-8.69858915917575359344482421875">
        <ele>5.599999904632568359375</ele>
        <time>2022-11-01T09:53:57.000Z</time>
      </trkpt>
      <trkpt lat="42.3916937224566936492919921875" lon="-8.6984824575483798980712890625">
        <ele>5.19999980926513671875</ele>
        <time>2022-11-01T09:53:58.000Z</time>
      </trkpt>
      <trkpt lat="42.3917059600353240966796875" lon="-8.6983895860612392425537109375">
        <ele>5</ele>
        <time>2022-11-01T09:53:59.000Z</time>
      </trkpt>
      <trkpt lat="42.39172565750777721405029296875" lon="-8.6982776038348674774169921875">
        <ele>4.80000019073486328125</ele>
        <time>2022-11-01T09:54:00.000Z</time>
      </trkpt>
      <trkpt lat="42.39175021648406982421875" lon="-8.6981538869440555572509765625">
        <ele>4.19999980926513671875</ele>
        <time>2022-11-01T09:54:01.000Z</time>
      </trkpt>
      <trkpt lat="42.391776032745838165283203125" lon="-8.6980539746582508087158203125">
        <ele>3.7999999523162841796875</ele>
        <time>2022-11-01T09:54:02.000Z</time>
      </trkpt>
      <trkpt lat="42.39180293865501880645751953125" lon="-8.69795397855341434478759765625">
        <ele>3.2000000476837158203125</ele>
        <time>2022-11-01T09:54:03.000Z</time>
      </trkpt>
      <trkpt lat="42.39182137884199619293212890625" lon="-8.69786865077912807464599609375">
        <ele>2.7999999523162841796875</ele>
        <time>2022-11-01T09:54:04.000Z</time>
      </trkpt>
      <trkpt lat="42.39184853620827198028564453125" lon="-8.69775147177278995513916015625">
        <ele>2.2000000476837158203125</ele>
        <time>2022-11-01T09:54:05.000Z</time>
      </trkpt>
      <trkpt lat="42.39187024533748626708984375" lon="-8.6976590193808078765869140625">
        <ele>2</ele>
        <time>2022-11-01T09:54:06.000Z</time>
      </trkpt>
      <trkpt lat="42.39188977517187595367431640625" lon="-8.697570003569126129150390625">
        <ele>1.2000000476837158203125</ele>
        <time>2022-11-01T09:54:07.000Z</time>
      </trkpt>
      <trkpt lat="42.3919098079204559326171875" lon="-8.6974890343844890594482421875">
        <ele>0.800000011920928955078125</ele>
        <time>2022-11-01T09:54:08.000Z</time>
      </trkpt>
      <trkpt lat="42.3919304274022579193115234375" lon="-8.69741586036980152130126953125">
        <ele>0</ele>
        <time>2022-11-01T09:54:09.000Z</time>
      </trkpt>
      <trkpt lat="42.39194802939891815185546875" lon="-8.69736121036112308502197265625">
        <ele>-0.4000000059604644775390625</ele>
        <time>2022-11-01T09:54:10.000Z</time>
      </trkpt>
      <trkpt lat="42.39197191782295703887939453125" lon="-8.69728778488934040069580078125">
        <ele>-0.60000002384185791015625</ele>
        <time>2022-11-01T09:54:11.000Z</time>
      </trkpt>
      <trkpt lat="42.3919921182096004486083984375" lon="-8.69721955619752407073974609375">
        <ele>-1</ele>
        <time>2022-11-01T09:54:12.000Z</time>
      </trkpt>
      <trkpt lat="42.392012737691402435302734375" lon="-8.697152920067310333251953125">
        <ele>-1.2000000476837158203125</ele>
        <time>2022-11-01T09:54:13.000Z</time>
      </trkpt>
      <trkpt lat="42.39203947596251964569091796875" lon="-8.6970753036439418792724609375">
        <ele>-1.60000002384185791015625</ele>
        <time>2022-11-01T09:54:14.000Z</time>
      </trkpt>
      <trkpt lat="42.3920638673007488250732421875" lon="-8.69699441827833652496337890625">
        <ele>-1.60000002384185791015625</ele>
        <time>2022-11-01T09:54:15.000Z</time>
      </trkpt>
      <trkpt lat="42.39209680818021297454833984375" lon="-8.69691479019820690155029296875">
        <ele>-1.7999999523162841796875</ele>
        <time>2022-11-01T09:54:16.000Z</time>
      </trkpt>
      <trkpt lat="42.39210493862628936767578125" lon="-8.6968382634222507476806640625">
        <ele>-2</ele>
        <time>2022-11-01T09:54:17.000Z</time>
      </trkpt>
      <trkpt lat="42.39204802550375461578369140625" lon="-8.69673022069036960601806640625">
        <ele>-2.400000095367431640625</ele>
        <time>2022-11-01T09:54:18.000Z</time>
      </trkpt>
      <trkpt lat="42.39206797443330287933349609375" lon="-8.69665964506566524505615234375">
        <ele>-2.599999904632568359375</ele>
        <time>2022-11-01T09:54:19.000Z</time>
      </trkpt>
      <trkpt lat="42.392090521752834320068359375" lon="-8.69659124873578548431396484375">
        <ele>-2.7999999523162841796875</ele>
        <time>2022-11-01T09:54:20.000Z</time>
      </trkpt>
      <trkpt lat="42.3921138234436511993408203125" lon="-8.6965264566242694854736328125">
        <ele>-2.7999999523162841796875</ele>
        <time>2022-11-01T09:54:21.000Z</time>
      </trkpt>
      <trkpt lat="42.39213469438254833221435546875" lon="-8.696459233760833740234375">
        <ele>-3</ele>
        <time>2022-11-01T09:54:22.000Z</time>
      </trkpt>
      <trkpt lat="42.39215380512177944183349609375" lon="-8.69639025069773197174072265625">
        <ele>-2.7999999523162841796875</ele>
        <time>2022-11-01T09:54:23.000Z</time>
      </trkpt>
      <trkpt lat="42.39217224530875682830810546875" lon="-8.69633115828037261962890625">
        <ele>-2.7999999523162841796875</ele>
        <time>2022-11-01T09:54:24.000Z</time>
      </trkpt>
      <trkpt lat="42.39219839684665203094482421875" lon="-8.69624088518321514129638671875">
        <ele>-3</ele>
        <time>2022-11-01T09:54:25.000Z</time>
      </trkpt>
      <trkpt lat="42.3922184295952320098876953125" lon="-8.6961601674556732177734375">
        <ele>-2.7999999523162841796875</ele>
        <time>2022-11-01T09:54:26.000Z</time>
      </trkpt>
      <trkpt lat="42.39224164746701717376708984375" lon="-8.69607643224298954010009765625">
        <ele>-2.7999999523162841796875</ele>
        <time>2022-11-01T09:54:27.000Z</time>
      </trkpt>
      <trkpt lat="42.39226981066167354583740234375" lon="-8.69599319994449615478515625">
        <ele>-2.7999999523162841796875</ele>
        <time>2022-11-01T09:54:28.000Z</time>
      </trkpt>
      <trkpt lat="42.39229403436183929443359375" lon="-8.69590711779892444610595703125">
        <ele>-2.599999904632568359375</ele>
        <time>2022-11-01T09:54:29.000Z</time>
      </trkpt>
      <trkpt lat="42.39231624640524387359619140625" lon="-8.695819191634654998779296875">
        <ele>-2.599999904632568359375</ele>
        <time>2022-11-01T09:54:30.000Z</time>
      </trkpt>
      <trkpt lat="42.39233217202126979827880859375" lon="-8.69573243893682956695556640625">
        <ele>-2.599999904632568359375</ele>
        <time>2022-11-01T09:54:31.000Z</time>
      </trkpt>
      <trkpt lat="42.3923548869788646697998046875" lon="-8.69564593769609928131103515625">
        <ele>-2.599999904632568359375</ele>
        <time>2022-11-01T09:54:32.000Z</time>
      </trkpt>
      <trkpt lat="42.3923800326883792877197265625" lon="-8.69556262157857418060302734375">
        <ele>-2.599999904632568359375</ele>
        <time>2022-11-01T09:54:33.000Z</time>
      </trkpt>
      <trkpt lat="42.3924068547785282135009765625" lon="-8.69547964073717594146728515625">
        <ele>-2.599999904632568359375</ele>
        <time>2022-11-01T09:54:34.000Z</time>
      </trkpt>
      <trkpt lat="42.39243309013545513153076171875" lon="-8.6953982524573802947998046875">
        <ele>-2.400000095367431640625</ele>
        <time>2022-11-01T09:54:35.000Z</time>
      </trkpt>
      <trkpt lat="42.39245739765465259552001953125" lon="-8.6953154392540454864501953125">
        <ele>-2.400000095367431640625</ele>
        <time>2022-11-01T09:54:36.000Z</time>
      </trkpt>
      <trkpt lat="42.392480783164501190185546875" lon="-8.69523170404136180877685546875">
        <ele>-2.400000095367431640625</ele>
        <time>2022-11-01T09:54:37.000Z</time>
      </trkpt>
      <trkpt lat="42.39250534214079380035400390625" lon="-8.695147298276424407958984375">
        <ele>-2.2000000476837158203125</ele>
        <time>2022-11-01T09:54:38.000Z</time>
      </trkpt>
      <trkpt lat="42.39252663217484951019287109375" lon="-8.6950804106891155242919921875">
        <ele>-2.2000000476837158203125</ele>
        <time>2022-11-01T09:54:39.000Z</time>
      </trkpt>
      <trkpt lat="42.39255999214947223663330078125" lon="-8.69498427025973796844482421875">
        <ele>-2.2000000476837158203125</ele>
        <time>2022-11-01T09:54:40.000Z</time>
      </trkpt>
      <trkpt lat="42.39258798770606517791748046875" lon="-8.69490615092217922210693359375">
        <ele>-2</ele>
        <time>2022-11-01T09:54:41.000Z</time>
      </trkpt>
      <trkpt lat="42.39261631853878498077392578125" lon="-8.69482836686074733734130859375">
        <ele>-1.7999999523162841796875</ele>
        <time>2022-11-01T09:54:42.000Z</time>
      </trkpt>
      <trkpt lat="42.39264733158051967620849609375" lon="-8.6947528459131717681884765625">
        <ele>-1.7999999523162841796875</ele>
        <time>2022-11-01T09:54:43.000Z</time>
      </trkpt>
      <trkpt lat="42.39268429577350616455078125" lon="-8.6946800909936428070068359375">
        <ele>-1.7999999523162841796875</ele>
        <time>2022-11-01T09:54:44.000Z</time>
      </trkpt>
      <trkpt lat="42.39272427745163440704345703125" lon="-8.69461094029247760772705078125">
        <ele>-1.39999997615814208984375</ele>
        <time>2022-11-01T09:54:45.000Z</time>
      </trkpt>
      <trkpt lat="42.3927662707865238189697265625" lon="-8.6945449747145175933837890625">
        <ele>-1.39999997615814208984375</ele>
        <time>2022-11-01T09:54:46.000Z</time>
      </trkpt>
      <trkpt lat="42.39281094633042812347412109375" lon="-8.69448403827846050262451171875">
        <ele>-1.2000000476837158203125</ele>
        <time>2022-11-01T09:54:47.000Z</time>
      </trkpt>
      <trkpt lat="42.392854951322078704833984375" lon="-8.694424442946910858154296875">
        <ele>-1.2000000476837158203125</ele>
        <time>2022-11-01T09:54:48.000Z</time>
      </trkpt>
      <trkpt lat="42.392905242741107940673828125" lon="-8.69436987675726413726806640625">
        <ele>-1.2000000476837158203125</ele>
        <time>2022-11-01T09:54:49.000Z</time>
      </trkpt>
      <trkpt lat="42.39295922219753265380859375" lon="-8.6943173222243785858154296875">
        <ele>-1.2000000476837158203125</ele>
        <time>2022-11-01T09:54:50.000Z</time>
      </trkpt>
      <trkpt lat="42.3930108547210693359375" lon="-8.69425973854959011077880859375">
        <ele>-1.2000000476837158203125</ele>
        <time>2022-11-01T09:54:51.000Z</time>
      </trkpt>
      <trkpt lat="42.39306324161589145660400390625" lon="-8.69420458562672138214111328125">
        <ele>-1.2000000476837158203125</ele>
        <time>2022-11-01T09:54:52.000Z</time>
      </trkpt>
      <trkpt lat="42.39311906509101390838623046875" lon="-8.69415077380836009979248046875">
        <ele>-1.2000000476837158203125</ele>
        <time>2022-11-01T09:54:53.000Z</time>
      </trkpt>
      <trkpt lat="42.39316499792039394378662109375" lon="-8.69410836137831211090087890625">
        <ele>-1.2000000476837158203125</ele>
        <time>2022-11-01T09:54:54.000Z</time>
      </trkpt>
      <trkpt lat="42.3932380042970180511474609375" lon="-8.69404650293290615081787109375">
        <ele>-1.2000000476837158203125</ele>
        <time>2022-11-01T09:54:55.000Z</time>
      </trkpt>
      <trkpt lat="42.39329525269567966461181640625" lon="-8.6939921043813228607177734375">
        <ele>-1.2000000476837158203125</ele>
        <time>2022-11-01T09:54:56.000Z</time>
      </trkpt>
      <trkpt lat="42.393351159989833831787109375" lon="-8.6939357779920101165771484375">
        <ele>-1.2000000476837158203125</ele>
        <time>2022-11-01T09:54:57.000Z</time>
      </trkpt>
      <trkpt lat="42.39340807311236858367919921875" lon="-8.69388238526880741119384765625">
        <ele>-1.2000000476837158203125</ele>
        <time>2022-11-01T09:54:58.000Z</time>
      </trkpt>
      <trkpt lat="42.393466494977474212646484375" lon="-8.69383125565946102142333984375">
        <ele>-1.2000000476837158203125</ele>
        <time>2022-11-01T09:54:59.000Z</time>
      </trkpt>
      <trkpt lat="42.39352458156645298004150390625" lon="-8.693780042231082916259765625">
        <ele>-1.2000000476837158203125</ele>
        <time>2022-11-01T09:55:00.000Z</time>
      </trkpt>
      <trkpt lat="42.39358484745025634765625" lon="-8.69372966699302196502685546875">
        <ele>-1.2000000476837158203125</ele>
        <time>2022-11-01T09:55:01.000Z</time>
      </trkpt>
      <trkpt lat="42.39364393986761569976806640625" lon="-8.69367769919335842132568359375">
        <ele>-1.2000000476837158203125</ele>
        <time>2022-11-01T09:55:02.000Z</time>
      </trkpt>
      <trkpt lat="42.39370076917111873626708984375" lon="-8.6936266534030437469482421875">
        <ele>-1.2000000476837158203125</ele>
        <time>2022-11-01T09:55:03.000Z</time>
      </trkpt>
      <trkpt lat="42.3937576822936534881591796875" lon="-8.69357585906982421875">
        <ele>-1.2000000476837158203125</ele>
        <time>2022-11-01T09:55:04.000Z</time>
      </trkpt>
      <trkpt lat="42.39381560124456882476806640625" lon="-8.69352548383176326751708984375">
        <ele>-1.2000000476837158203125</ele>
        <time>2022-11-01T09:55:05.000Z</time>
      </trkpt>
      <trkpt lat="42.39387343637645244598388671875" lon="-8.69347401894629001617431640625">
        <ele>-1.2000000476837158203125</ele>
        <time>2022-11-01T09:55:06.000Z</time>
      </trkpt>
      <trkpt lat="42.393931858241558074951171875" lon="-8.69342188350856304168701171875">
        <ele>-1.2000000476837158203125</ele>
        <time>2022-11-01T09:55:07.000Z</time>
      </trkpt>
      <trkpt lat="42.39398106001317501068115234375" lon="-8.69338014163076877593994140625">
        <ele>-1.2000000476837158203125</ele>
        <time>2022-11-01T09:55:08.000Z</time>
      </trkpt>
      <trkpt lat="42.39404962398111820220947265625" lon="-8.6933148466050624847412109375">
        <ele>-1.2000000476837158203125</ele>
        <time>2022-11-01T09:55:09.000Z</time>
      </trkpt>
      <trkpt lat="42.3941067047417163848876953125" lon="-8.693261034786701202392578125">
        <ele>-1.2000000476837158203125</ele>
        <time>2022-11-01T09:55:10.000Z</time>
      </trkpt>
      <trkpt lat="42.3941630311310291290283203125" lon="-8.6932078935205936431884765625">
        <ele>-1</ele>
        <time>2022-11-01T09:55:11.000Z</time>
      </trkpt>
      <trkpt lat="42.39421927370131015777587890625" lon="-8.6931552551686763763427734375">
        <ele>-1</ele>
        <time>2022-11-01T09:55:12.000Z</time>
      </trkpt>
      <trkpt lat="42.39426411688327789306640625" lon="-8.69311342947185039520263671875">
        <ele>-1</ele>
        <time>2022-11-01T09:55:13.000Z</time>
      </trkpt>
      <trkpt lat="42.39433192647993564605712890625" lon="-8.6930493079125881195068359375">
        <ele>-1</ele>
        <time>2022-11-01T09:55:14.000Z</time>
      </trkpt>
      <trkpt lat="42.394388504326343536376953125" lon="-8.69299842976033687591552734375">
        <ele>-1</ele>
        <time>2022-11-01T09:55:15.000Z</time>
      </trkpt>
      <trkpt lat="42.39444441162049770355224609375" lon="-8.69294780306518077850341796875">
        <ele>-1</ele>
        <time>2022-11-01T09:55:16.000Z</time>
      </trkpt>
      <trkpt lat="42.3944989778101444244384765625" lon="-8.6929007805883884429931640625">
        <ele>-0.800000011920928955078125</ele>
        <time>2022-11-01T09:55:17.000Z</time>
      </trkpt>
      <trkpt lat="42.3945418931543827056884765625" lon="-8.69285996071994304656982421875">
        <ele>-0.800000011920928955078125</ele>
        <time>2022-11-01T09:55:18.000Z</time>
      </trkpt>
      <trkpt lat="42.39460869692265987396240234375" lon="-8.692795336246490478515625">
        <ele>-0.800000011920928955078125</ele>
        <time>2022-11-01T09:55:19.000Z</time>
      </trkpt>
      <trkpt lat="42.394665777683258056640625" lon="-8.69274144060909748077392578125">
        <ele>-0.60000002384185791015625</ele>
        <time>2022-11-01T09:55:20.000Z</time>
      </trkpt>
      <trkpt lat="42.39472277462482452392578125" lon="-8.6926895566284656524658203125">
        <ele>-0.60000002384185791015625</ele>
        <time>2022-11-01T09:55:21.000Z</time>
      </trkpt>
      <trkpt lat="42.39476568996906280517578125" lon="-8.69264437817037105560302734375">
        <ele>-0.60000002384185791015625</ele>
        <time>2022-11-01T09:55:22.000Z</time>
      </trkpt>
      <trkpt lat="42.39483165554702281951904296875" lon="-8.692577071487903594970703125">
        <ele>-0.60000002384185791015625</ele>
        <time>2022-11-01T09:55:23.000Z</time>
      </trkpt>
      <trkpt lat="42.39488773047924041748046875" lon="-8.69252284057438373565673828125">
        <ele>-0.60000002384185791015625</ele>
        <time>2022-11-01T09:55:24.000Z</time>
      </trkpt>
      <trkpt lat="42.3949425481259822845458984375" lon="-8.69246852584183216094970703125">
        <ele>-0.60000002384185791015625</ele>
        <time>2022-11-01T09:55:25.000Z</time>
      </trkpt>
      <trkpt lat="42.39499996416270732879638671875" lon="-8.69241672568023204803466796875">
        <ele>-0.60000002384185791015625</ele>
        <time>2022-11-01T09:55:26.000Z</time>
      </trkpt>
      <trkpt lat="42.39505846984684467315673828125" lon="-8.69236660189926624298095703125">
        <ele>-0.4000000059604644775390625</ele>
        <time>2022-11-01T09:55:27.000Z</time>
      </trkpt>
      <trkpt lat="42.3951165564358234405517578125" lon="-8.69231513701379299163818359375">
        <ele>-0.4000000059604644775390625</ele>
        <time>2022-11-01T09:55:28.000Z</time>
      </trkpt>
      <trkpt lat="42.39517313428223133087158203125" lon="-8.69226417504251003265380859375">
        <ele>-0.4000000059604644775390625</ele>
        <time>2022-11-01T09:55:29.000Z</time>
      </trkpt>
      <trkpt lat="42.3952258564531803131103515625" lon="-8.6922121234238147735595703125">
        <ele>-0.4000000059604644775390625</ele>
        <time>2022-11-01T09:55:30.000Z</time>
      </trkpt>
      <trkpt lat="42.395276315510272979736328125" lon="-8.69216158054769039154052734375">
        <ele>-0.4000000059604644775390625</ele>
        <time>2022-11-01T09:55:31.000Z</time>
      </trkpt>
      <trkpt lat="42.3953167162835597991943359375" lon="-8.692122437059879302978515625">
        <ele>-0.20000000298023223876953125</ele>
        <time>2022-11-01T09:55:32.000Z</time>
      </trkpt>
      <trkpt lat="42.39536558277904987335205078125" lon="-8.69207524694502353668212890625">
        <ele>-0.20000000298023223876953125</ele>
        <time>2022-11-01T09:55:33.000Z</time>
      </trkpt>
      <trkpt lat="42.3954280279576778411865234375" lon="-8.69201607070863246917724609375">
        <ele>0</ele>
        <time>2022-11-01T09:55:34.000Z</time>
      </trkpt>
      <trkpt lat="42.39548142068088054656982421875" lon="-8.69196913205087184906005859375">
        <ele>0</ele>
        <time>2022-11-01T09:55:35.000Z</time>
      </trkpt>
      <trkpt lat="42.39553414285182952880859375" lon="-8.69192571379244327545166015625">
        <ele>0</ele>
        <time>2022-11-01T09:55:36.000Z</time>
      </trkpt>
      <trkpt lat="42.39558510482311248779296875" lon="-8.691883049905300140380859375">
        <ele>0</ele>
        <time>2022-11-01T09:55:37.000Z</time>
      </trkpt>
      <trkpt lat="42.39563514478504657745361328125" lon="-8.69183938018977642059326171875">
        <ele>0.4000000059604644775390625</ele>
        <time>2022-11-01T09:55:38.000Z</time>
      </trkpt>
      <trkpt lat="42.39568325690925121307373046875" lon="-8.69179411791265010833740234375">
        <ele>0.60000002384185791015625</ele>
        <time>2022-11-01T09:55:39.000Z</time>
      </trkpt>
      <trkpt lat="42.39572935737669467926025390625" lon="-8.6917501129209995269775390625">
        <ele>0.800000011920928955078125</ele>
        <time>2022-11-01T09:55:40.000Z</time>
      </trkpt>
      <trkpt lat="42.39577713422477245330810546875" lon="-8.69170644320547580718994140625">
        <ele>1</ele>
        <time>2022-11-01T09:55:41.000Z</time>
      </trkpt>
      <trkpt lat="42.39581719972193241119384765625" lon="-8.6916753463447093963623046875">
        <ele>1.39999997615814208984375</ele>
        <time>2022-11-01T09:55:42.000Z</time>
      </trkpt>
      <trkpt lat="42.3958712629973888397216796875" lon="-8.69163217954337596893310546875">
        <ele>1.7999999523162841796875</ele>
        <time>2022-11-01T09:55:43.000Z</time>
      </trkpt>
      <trkpt lat="42.39591945894062519073486328125" lon="-8.69160150177776813507080078125">
        <ele>2</ele>
        <time>2022-11-01T09:55:44.000Z</time>
      </trkpt>
      <trkpt lat="42.39597075618803501129150390625" lon="-8.69157585315406322479248046875">
        <ele>2.400000095367431640625</ele>
        <time>2022-11-01T09:55:45.000Z</time>
      </trkpt>
      <trkpt lat="42.39601819775998592376708984375" lon="-8.69155221618711948394775390625">
        <ele>2.400000095367431640625</ele>
        <time>2022-11-01T09:55:46.000Z</time>
      </trkpt>
      <trkpt lat="42.396056167781352996826171875" lon="-8.691536374390125274658203125">
        <ele>2.599999904632568359375</ele>
        <time>2022-11-01T09:55:47.000Z</time>
      </trkpt>
      <trkpt lat="42.3961163498461246490478515625" lon="-8.69151600636541843414306640625">
        <ele>2.7999999523162841796875</ele>
        <time>2022-11-01T09:55:48.000Z</time>
      </trkpt>
      <trkpt lat="42.39617326296865940093994140625" lon="-8.69150578044354915618896484375">
        <ele>3</ele>
        <time>2022-11-01T09:55:49.000Z</time>
      </trkpt>
      <trkpt lat="42.396233193576335906982421875" lon="-8.6914993263781070709228515625">
        <ele>3.2000000476837158203125</ele>
        <time>2022-11-01T09:55:50.000Z</time>
      </trkpt>
      <trkpt lat="42.39628122188150882720947265625" lon="-8.69149639271199703216552734375">
        <ele>3.2000000476837158203125</ele>
        <time>2022-11-01T09:55:51.000Z</time>
      </trkpt>
      <trkpt lat="42.39633989520370960235595703125" lon="-8.69149019010365009307861328125">
        <ele>3.400000095367431640625</ele>
        <time>2022-11-01T09:55:52.000Z</time>
      </trkpt>
      <trkpt lat="42.39639840088784694671630859375" lon="-8.6914865858852863311767578125">
        <ele>3.7999999523162841796875</ele>
        <time>2022-11-01T09:55:53.000Z</time>
      </trkpt>
      <trkpt lat="42.39647668786346912384033203125" lon="-8.6914953030645847320556640625">
        <ele>4</ele>
        <time>2022-11-01T09:55:54.000Z</time>
      </trkpt>
      <trkpt lat="42.39653720520436763763427734375" lon="-8.69148884899914264678955078125">
        <ele>4</ele>
        <time>2022-11-01T09:55:55.000Z</time>
      </trkpt>
      <trkpt lat="42.3965957947075366973876953125" lon="-8.6914825625717639923095703125">
        <ele>4.19999980926513671875</ele>
        <time>2022-11-01T09:55:56.000Z</time>
      </trkpt>
      <trkpt lat="42.39664533175528049468994140625" lon="-8.69148180820047855377197265625">
        <ele>4.19999980926513671875</ele>
        <time>2022-11-01T09:55:57.000Z</time>
      </trkpt>
      <trkpt lat="42.39671406336128711700439453125" lon="-8.69147812016308307647705078125">
        <ele>4.400000095367431640625</ele>
        <time>2022-11-01T09:55:58.000Z</time>
      </trkpt>
      <trkpt lat="42.396773993968963623046875" lon="-8.6914647929370403289794921875">
        <ele>4.400000095367431640625</ele>
        <time>2022-11-01T09:55:59.000Z</time>
      </trkpt>
      <trkpt lat="42.39682587794959545135498046875" lon="-8.69144392199814319610595703125">
        <ele>4.599999904632568359375</ele>
        <time>2022-11-01T09:56:00.000Z</time>
      </trkpt>
      <trkpt lat="42.39687390625476837158203125" lon="-8.69142179377377033233642578125">
        <ele>4.599999904632568359375</ele>
        <time>2022-11-01T09:56:01.000Z</time>
      </trkpt>
      <trkpt lat="42.3969092778861522674560546875" lon="-8.6913903616368770599365234375">
        <ele>4.599999904632568359375</ele>
        <time>2022-11-01T09:56:02.000Z</time>
      </trkpt>
      <trkpt lat="42.39695143885910511016845703125" lon="-8.6913357116281986236572265625">
        <ele>4.599999904632568359375</ele>
        <time>2022-11-01T09:56:03.000Z</time>
      </trkpt>
      <trkpt lat="42.39700307138264179229736328125" lon="-8.6912624537944793701171875">
        <ele>4.599999904632568359375</ele>
        <time>2022-11-01T09:56:04.000Z</time>
      </trkpt>
      <trkpt lat="42.397045232355594635009765625" lon="-8.69119380600750446319580078125">
        <ele>4.599999904632568359375</ele>
        <time>2022-11-01T09:56:05.000Z</time>
      </trkpt>
      <trkpt lat="42.39708538167178630828857421875" lon="-8.69112155400216579437255859375">
        <ele>4.599999904632568359375</ele>
        <time>2022-11-01T09:56:06.000Z</time>
      </trkpt>
      <trkpt lat="42.39712561480700969696044921875" lon="-8.691046535968780517578125">
        <ele>4.599999904632568359375</ele>
        <time>2022-11-01T09:56:07.000Z</time>
      </trkpt>
      <trkpt lat="42.39715863950550556182861328125" lon="-8.69098191149532794952392578125">
        <ele>4.599999904632568359375</ele>
        <time>2022-11-01T09:56:08.000Z</time>
      </trkpt>
      <trkpt lat="42.3972063325345516204833984375" lon="-8.69087562896311283111572265625">
        <ele>4.599999904632568359375</ele>
        <time>2022-11-01T09:56:09.000Z</time>
      </trkpt>
      <trkpt lat="42.39723860286176204681396484375" lon="-8.69077764451503753662109375">
        <ele>4.599999904632568359375</ele>
        <time>2022-11-01T09:56:10.000Z</time>
      </trkpt>
      <trkpt lat="42.397268526256084442138671875" lon="-8.6906775645911693572998046875">
        <ele>4.400000095367431640625</ele>
        <time>2022-11-01T09:56:11.000Z</time>
      </trkpt>
      <trkpt lat="42.3972955159842967987060546875" lon="-8.69059718213975429534912109375">
        <ele>4.400000095367431640625</ele>
        <time>2022-11-01T09:56:12.000Z</time>
      </trkpt>
      <trkpt lat="42.39734220318496227264404296875" lon="-8.690478242933750152587890625">
        <ele>4.19999980926513671875</ele>
        <time>2022-11-01T09:56:13.000Z</time>
      </trkpt>
      <trkpt lat="42.3973823525011539459228515625" lon="-8.69037958793342113494873046875">
        <ele>4</ele>
        <time>2022-11-01T09:56:14.000Z</time>
      </trkpt>
      <trkpt lat="42.39742803387343883514404296875" lon="-8.690283112227916717529296875">
        <ele>3.7999999523162841796875</ele>
        <time>2022-11-01T09:56:15.000Z</time>
      </trkpt>
      <trkpt lat="42.397481091320514678955078125" lon="-8.690188564360141754150390625">
        <ele>3.400000095367431640625</ele>
        <time>2022-11-01T09:56:16.000Z</time>
      </trkpt>
      <trkpt lat="42.39754236303269863128662109375" lon="-8.69011606089770793914794921875">
        <ele>3.2000000476837158203125</ele>
        <time>2022-11-01T09:56:17.000Z</time>
      </trkpt>
      <trkpt lat="42.3975942470133304595947265625" lon="-8.6900723911821842193603515625">
        <ele>3</ele>
        <time>2022-11-01T09:56:18.000Z</time>
      </trkpt>
      <trkpt lat="42.3976790718734264373779296875" lon="-8.69002201594412326812744140625">
        <ele>3</ele>
        <time>2022-11-01T09:56:19.000Z</time>
      </trkpt>
      <trkpt lat="42.397770769894123077392578125" lon="-8.68997826240956783294677734375">
        <ele>2.7999999523162841796875</ele>
        <time>2022-11-01T09:56:20.000Z</time>
      </trkpt>
      <trkpt lat="42.397849224507808685302734375" lon="-8.68993953801691532135009765625">
        <ele>2.599999904632568359375</ele>
        <time>2022-11-01T09:56:21.000Z</time>
      </trkpt>
      <trkpt lat="42.39791049621999263763427734375" lon="-8.68991221301257610321044921875">
        <ele>2.400000095367431640625</ele>
        <time>2022-11-01T09:56:22.000Z</time>
      </trkpt>
      <trkpt lat="42.39800018258392810821533203125" lon="-8.6898744106292724609375">
        <ele>2.2000000476837158203125</ele>
        <time>2022-11-01T09:56:23.000Z</time>
      </trkpt>
      <trkpt lat="42.398072183132171630859375" lon="-8.6898413859307765960693359375">
        <ele>2.2000000476837158203125</ele>
        <time>2022-11-01T09:56:24.000Z</time>
      </trkpt>
      <trkpt lat="42.3981427587568759918212890625" lon="-8.68980727158486843109130859375">
        <ele>2.2000000476837158203125</ele>
        <time>2022-11-01T09:56:25.000Z</time>
      </trkpt>
      <trkpt lat="42.3982158489525318145751953125" lon="-8.68977525271475315093994140625">
        <ele>2.2000000476837158203125</ele>
        <time>2022-11-01T09:56:26.000Z</time>
      </trkpt>
      <trkpt lat="42.398273684084415435791015625" lon="-8.68974340148270130157470703125">
        <ele>2.2000000476837158203125</ele>
        <time>2022-11-01T09:56:27.000Z</time>
      </trkpt>
      <trkpt lat="42.39835440181195735931396484375" lon="-8.68968673981726169586181640625">
        <ele>2.2000000476837158203125</ele>
        <time>2022-11-01T09:56:28.000Z</time>
      </trkpt>
      <trkpt lat="42.39841793663799762725830078125" lon="-8.6896271444857120513916015625">
        <ele>2.400000095367431640625</ele>
        <time>2022-11-01T09:56:29.000Z</time>
      </trkpt>
      <trkpt lat="42.39847778342664241790771484375" lon="-8.68956654332578182220458984375">
        <ele>2.400000095367431640625</ele>
        <time>2022-11-01T09:56:30.000Z</time>
      </trkpt>
      <trkpt lat="42.398536540567874908447265625" lon="-8.6895034275949001312255859375">
        <ele>2.400000095367431640625</ele>
        <time>2022-11-01T09:56:31.000Z</time>
      </trkpt>
      <trkpt lat="42.398582808673381805419921875" lon="-8.68944819085299968719482421875">
        <ele>2.599999904632568359375</ele>
        <time>2022-11-01T09:56:32.000Z</time>
      </trkpt>
      <trkpt lat="42.39863905124366283416748046875" lon="-8.68937862105667591094970703125">
        <ele>2.599999904632568359375</ele>
        <time>2022-11-01T09:56:33.000Z</time>
      </trkpt>
      <trkpt lat="42.398705184459686279296875" lon="-8.68929480202496051788330078125">
        <ele>2.599999904632568359375</ele>
        <time>2022-11-01T09:56:34.000Z</time>
      </trkpt>
      <trkpt lat="42.3987589962780475616455078125" lon="-8.6892244778573513031005859375">
        <ele>2.599999904632568359375</ele>
        <time>2022-11-01T09:56:35.000Z</time>
      </trkpt>
      <trkpt lat="42.39881205372512340545654296875" lon="-8.6891537345945835113525390625">
        <ele>2.7999999523162841796875</ele>
        <time>2022-11-01T09:56:36.000Z</time>
      </trkpt>
      <trkpt lat="42.39886435680091381072998046875" lon="-8.68908458389341831207275390625">
        <ele>2.7999999523162841796875</ele>
        <time>2022-11-01T09:56:37.000Z</time>
      </trkpt>
      <trkpt lat="42.3989165760576725006103515625" lon="-8.689013756811618804931640625">
        <ele>3</ele>
        <time>2022-11-01T09:56:38.000Z</time>
      </trkpt>
      <trkpt lat="42.39897147752344608306884765625" lon="-8.68894494138658046722412109375">
        <ele>3.2000000476837158203125</ele>
        <time>2022-11-01T09:56:39.000Z</time>
      </trkpt>
      <trkpt lat="42.39902562461793422698974609375" lon="-8.6888767965137958526611328125">
        <ele>3.400000095367431640625</ele>
        <time>2022-11-01T09:56:40.000Z</time>
      </trkpt>
      <trkpt lat="42.3990671150386333465576171875" lon="-8.688821308314800262451171875">
        <ele>3.400000095367431640625</ele>
        <time>2022-11-01T09:56:41.000Z</time>
      </trkpt>
      <trkpt lat="42.3991221003234386444091796875" lon="-8.688752911984920501708984375">
        <ele>3.599999904632568359375</ele>
        <time>2022-11-01T09:56:42.000Z</time>
      </trkpt>
      <trkpt lat="42.39919024519622325897216796875" lon="-8.68867588229477405548095703125">
        <ele>3.599999904632568359375</ele>
        <time>2022-11-01T09:56:43.000Z</time>
      </trkpt>
      <trkpt lat="42.399247325956821441650390625" lon="-8.68861385621130466461181640625">
        <ele>3.7999999523162841796875</ele>
        <time>2022-11-01T09:56:44.000Z</time>
      </trkpt>
      <trkpt lat="42.39930273033678531646728515625" lon="-8.68854914791882038116455078125">
        <ele>4</ele>
        <time>2022-11-01T09:56:45.000Z</time>
      </trkpt>
      <trkpt lat="42.39936408586800098419189453125" lon="-8.6884848587214946746826171875">
        <ele>4.19999980926513671875</ele>
        <time>2022-11-01T09:56:46.000Z</time>
      </trkpt>
      <trkpt lat="42.39941672421991825103759765625" lon="-8.688429705798625946044921875">
        <ele>4.19999980926513671875</ele>
        <time>2022-11-01T09:56:47.000Z</time>
      </trkpt>
      <trkpt lat="42.399497441947460174560546875" lon="-8.688351251184940338134765625">
        <ele>4.19999980926513671875</ele>
        <time>2022-11-01T09:56:48.000Z</time>
      </trkpt>
      <trkpt lat="42.39955888129770755767822265625" lon="-8.688275814056396484375">
        <ele>4.400000095367431640625</ele>
        <time>2022-11-01T09:56:49.000Z</time>
      </trkpt>
      <trkpt lat="42.3996157944202423095703125" lon="-8.688199706375598907470703125">
        <ele>4.400000095367431640625</ele>
        <time>2022-11-01T09:56:50.000Z</time>
      </trkpt>
      <trkpt lat="42.399672456085681915283203125" lon="-8.6881220899522304534912109375">
        <ele>4.400000095367431640625</ele>
        <time>2022-11-01T09:56:51.000Z</time>
      </trkpt>
      <trkpt lat="42.39971545524895191192626953125" lon="-8.6880587227642536163330078125">
        <ele>4.400000095367431640625</ele>
        <time>2022-11-01T09:56:52.000Z</time>
      </trkpt>
      <trkpt lat="42.39978670142590999603271484375" lon="-8.68796291761100292205810546875">
        <ele>4.400000095367431640625</ele>
        <time>2022-11-01T09:56:53.000Z</time>
      </trkpt>
      <trkpt lat="42.3998469673097133636474609375" lon="-8.68788622319698333740234375">
        <ele>4.400000095367431640625</ele>
        <time>2022-11-01T09:56:54.000Z</time>
      </trkpt>
      <trkpt lat="42.39990488626062870025634765625" lon="-8.68780802004039287567138671875">
        <ele>4.400000095367431640625</ele>
        <time>2022-11-01T09:56:55.000Z</time>
      </trkpt>
      <trkpt lat="42.39996221847832202911376953125" lon="-8.6877304874360561370849609375">
        <ele>4.400000095367431640625</ele>
        <time>2022-11-01T09:56:56.000Z</time>
      </trkpt>
      <trkpt lat="42.40002374164760112762451171875" lon="-8.68765764869749546051025390625">
        <ele>4.19999980926513671875</ele>
        <time>2022-11-01T09:56:57.000Z</time>
      </trkpt>
      <trkpt lat="42.4000887013971805572509765625" lon="-8.687589168548583984375">
        <ele>4.400000095367431640625</ele>
        <time>2022-11-01T09:56:58.000Z</time>
      </trkpt>
      <trkpt lat="42.40015885792672634124755859375" lon="-8.68752672336995601654052734375">
        <ele>4.400000095367431640625</ele>
        <time>2022-11-01T09:56:59.000Z</time>
      </trkpt>
      <trkpt lat="42.4002327024936676025390625" lon="-8.6874711513519287109375">
        <ele>4.19999980926513671875</ele>
        <time>2022-11-01T09:57:00.000Z</time>
      </trkpt>
      <trkpt lat="42.40029640495777130126953125" lon="-8.68743251077830791473388671875">
        <ele>4.19999980926513671875</ele>
        <time>2022-11-01T09:57:01.000Z</time>
      </trkpt>
      <trkpt lat="42.40037376992404460906982421875" lon="-8.6873804591596126556396484375">
        <ele>4</ele>
        <time>2022-11-01T09:57:02.000Z</time>
      </trkpt>
      <trkpt lat="42.400467060506343841552734375" lon="-8.6873137392103672027587890625">
        <ele>4</ele>
        <time>2022-11-01T09:57:03.000Z</time>
      </trkpt>
      <trkpt lat="42.4005440063774585723876953125" lon="-8.6872503720223903656005859375">
        <ele>4</ele>
        <time>2022-11-01T09:57:04.000Z</time>
      </trkpt>
      <trkpt lat="42.40061827003955841064453125" lon="-8.68717703036963939666748046875">
        <ele>3.7999999523162841796875</ele>
        <time>2022-11-01T09:57:05.000Z</time>
      </trkpt>
      <trkpt lat="42.40067434497177600860595703125" lon="-8.6871102266013622283935546875">
        <ele>3.7999999523162841796875</ele>
        <time>2022-11-01T09:57:06.000Z</time>
      </trkpt>
      <trkpt lat="42.40073871798813343048095703125" lon="-8.68702280335128307342529296875">
        <ele>3.599999904632568359375</ele>
        <time>2022-11-01T09:57:07.000Z</time>
      </trkpt>
      <trkpt lat="42.40080979652702808380126953125" lon="-8.68691266514360904693603515625">
        <ele>3.599999904632568359375</ele>
        <time>2022-11-01T09:57:08.000Z</time>
      </trkpt>
      <trkpt lat="42.40086746402084827423095703125" lon="-8.6868207156658172607421875">
        <ele>3.400000095367431640625</ele>
        <time>2022-11-01T09:57:09.000Z</time>
      </trkpt>
      <trkpt lat="42.400925718247890472412109375" lon="-8.68673077784478664398193359375">
        <ele>3.400000095367431640625</ele>
        <time>2022-11-01T09:57:10.000Z</time>
      </trkpt>
      <trkpt lat="42.40097374655306339263916015625" lon="-8.68666003458201885223388671875">
        <ele>3.2000000476837158203125</ele>
        <time>2022-11-01T09:57:11.000Z</time>
      </trkpt>
      <trkpt lat="42.40103258751332759857177734375" lon="-8.68657059967517852783203125">
        <ele>3</ele>
        <time>2022-11-01T09:57:12.000Z</time>
      </trkpt>
      <trkpt lat="42.4011055938899517059326171875" lon="-8.6864639818668365478515625">
        <ele>3</ele>
        <time>2022-11-01T09:57:13.000Z</time>
      </trkpt>
      <trkpt lat="42.40116787143051624298095703125" lon="-8.68637588806450366973876953125">
        <ele>3</ele>
        <time>2022-11-01T09:57:14.000Z</time>
      </trkpt>
      <trkpt lat="42.40123308263719081878662109375" lon="-8.68629039265215396881103515625">
        <ele>3</ele>
        <time>2022-11-01T09:57:15.000Z</time>
      </trkpt>
      <trkpt lat="42.40130114369094371795654296875" lon="-8.68621051311492919921875">
        <ele>2.7999999523162841796875</ele>
        <time>2022-11-01T09:57:16.000Z</time>
      </trkpt>
      <trkpt lat="42.401355542242527008056640625" lon="-8.68614572100341320037841796875">
        <ele>2.7999999523162841796875</ele>
        <time>2022-11-01T09:57:17.000Z</time>
      </trkpt>
      <trkpt lat="42.40143860690295696258544921875" lon="-8.68605117313563823699951171875">
        <ele>2.7999999523162841796875</ele>
        <time>2022-11-01T09:57:18.000Z</time>
      </trkpt>
      <trkpt lat="42.40150901488959789276123046875" lon="-8.68597338907420635223388671875">
        <ele>2.7999999523162841796875</ele>
        <time>2022-11-01T09:57:19.000Z</time>
      </trkpt>
      <trkpt lat="42.40157975815236568450927734375" lon="-8.68589602410793304443359375">
        <ele>2.599999904632568359375</ele>
        <time>2022-11-01T09:57:20.000Z</time>
      </trkpt>
      <trkpt lat="42.40164798684418201446533203125" lon="-8.68581664748489856719970703125">
        <ele>2.599999904632568359375</ele>
        <time>2022-11-01T09:57:21.000Z</time>
      </trkpt>
      <trkpt lat="42.4017144553363323211669921875" lon="-8.685730732977390289306640625">
        <ele>2.599999904632568359375</ele>
        <time>2022-11-01T09:57:22.000Z</time>
      </trkpt>
      <trkpt lat="42.4017781578004360198974609375" lon="-8.685642220079898834228515625">
        <ele>2.400000095367431640625</ele>
        <time>2022-11-01T09:57:23.000Z</time>
      </trkpt>
      <trkpt lat="42.4018418602645397186279296875" lon="-8.68555764667689800262451171875">
        <ele>2.2000000476837158203125</ele>
        <time>2022-11-01T09:57:24.000Z</time>
      </trkpt>
      <trkpt lat="42.4019064009189605712890625" lon="-8.68546846322715282440185546875">
        <ele>2</ele>
        <time>2022-11-01T09:57:25.000Z</time>
      </trkpt>
      <trkpt lat="42.401957027614116668701171875" lon="-8.68539470247924327850341796875">
        <ele>2</ele>
        <time>2022-11-01T09:57:26.000Z</time>
      </trkpt>
      <trkpt lat="42.40202148444950580596923828125" lon="-8.68530149571597576141357421875">
        <ele>1.7999999523162841796875</ele>
        <time>2022-11-01T09:57:27.000Z</time>
      </trkpt>
      <trkpt lat="42.4020983465015888214111328125" lon="-8.6851872503757476806640625">
        <ele>1.60000002384185791015625</ele>
        <time>2022-11-01T09:57:28.000Z</time>
      </trkpt>
      <trkpt lat="42.40216146223247051239013671875" lon="-8.68509270250797271728515625">
        <ele>1.60000002384185791015625</ele>
        <time>2022-11-01T09:57:29.000Z</time>
      </trkpt>
      <trkpt lat="42.4022217281162738800048828125" lon="-8.68499890901148319244384765625">
        <ele>1.60000002384185791015625</ele>
        <time>2022-11-01T09:57:30.000Z</time>
      </trkpt>
      <trkpt lat="42.402270175516605377197265625" lon="-8.6849245615303516387939453125">
        <ele>1.60000002384185791015625</ele>
        <time>2022-11-01T09:57:31.000Z</time>
      </trkpt>
      <trkpt lat="42.40234670229256153106689453125" lon="-8.68481450714170932769775390625">
        <ele>1.39999997615814208984375</ele>
        <time>2022-11-01T09:57:32.000Z</time>
      </trkpt>
      <trkpt lat="42.4024094827473163604736328125" lon="-8.6847245693206787109375">
        <ele>1.39999997615814208984375</ele>
        <time>2022-11-01T09:57:33.000Z</time>
      </trkpt>
      <trkpt lat="42.40247628651559352874755859375" lon="-8.6846348829567432403564453125">
        <ele>1.39999997615814208984375</ele>
        <time>2022-11-01T09:57:34.000Z</time>
      </trkpt>
      <trkpt lat="42.40254853852093219757080078125" lon="-8.68455282412469387054443359375">
        <ele>1.2000000476837158203125</ele>
        <time>2022-11-01T09:57:35.000Z</time>
      </trkpt>
      <trkpt lat="42.40262581966817378997802734375" lon="-8.6844766326248645782470703125">
        <ele>1</ele>
        <time>2022-11-01T09:57:36.000Z</time>
      </trkpt>
      <trkpt lat="42.40270578302443027496337890625" lon="-8.68441116996109485626220703125">
        <ele>1</ele>
        <time>2022-11-01T09:57:37.000Z</time>
      </trkpt>
      <trkpt lat="42.402793206274509429931640625" lon="-8.68436087854206562042236328125">
        <ele>0.800000011920928955078125</ele>
        <time>2022-11-01T09:57:38.000Z</time>
      </trkpt>
      <trkpt lat="42.40288875997066497802734375" lon="-8.68432533927261829376220703125">
        <ele>0.60000002384185791015625</ele>
        <time>2022-11-01T09:57:39.000Z</time>
      </trkpt>
      <trkpt lat="42.40299344994127750396728515625" lon="-8.6842994391918182373046875">
        <ele>0.4000000059604644775390625</ele>
        <time>2022-11-01T09:57:40.000Z</time>
      </trkpt>
      <trkpt lat="42.40310526452958583831787109375" lon="-8.6842788197100162506103515625">
        <ele>0.20000000298023223876953125</ele>
        <time>2022-11-01T09:57:41.000Z</time>
      </trkpt>
      <trkpt lat="42.4032225273549556732177734375" lon="-8.68426146917045116424560546875">
        <ele>-0.20000000298023223876953125</ele>
        <time>2022-11-01T09:57:42.000Z</time>
      </trkpt>
      <trkpt lat="42.40333694033324718475341796875" lon="-8.68423716165125370025634765625">
        <ele>-0.60000002384185791015625</ele>
        <time>2022-11-01T09:57:43.000Z</time>
      </trkpt>
      <trkpt lat="42.4034491740167140960693359375" lon="-8.68420346640050411224365234375">
        <ele>-1</ele>
        <time>2022-11-01T09:57:44.000Z</time>
      </trkpt>
      <trkpt lat="42.40355805493891239166259765625" lon="-8.684160299599170684814453125">
        <ele>-1.39999997615814208984375</ele>
        <time>2022-11-01T09:57:45.000Z</time>
      </trkpt>
      <trkpt lat="42.403665594756603240966796875" lon="-8.684114702045917510986328125">
        <ele>-2</ele>
        <time>2022-11-01T09:57:46.000Z</time>
      </trkpt>
      <trkpt lat="42.40377120673656463623046875" lon="-8.68406918831169605255126953125">
        <ele>-3</ele>
        <time>2022-11-01T09:57:47.000Z</time>
      </trkpt>
      <trkpt lat="42.40387187339365482330322265625" lon="-8.684028200805187225341796875">
        <ele>-3.400000095367431640625</ele>
        <time>2022-11-01T09:57:48.000Z</time>
      </trkpt>
      <trkpt lat="42.40396910347044467926025390625" lon="-8.68399039842188358306884765625">
        <ele>-4.19999980926513671875</ele>
        <time>2022-11-01T09:57:49.000Z</time>
      </trkpt>
      <trkpt lat="42.40404303185641765594482421875" lon="-8.683957122266292572021484375">
        <ele>-4.19999980926513671875</ele>
        <time>2022-11-01T09:57:50.000Z</time>
      </trkpt>
      <trkpt lat="42.40413087420165538787841796875" lon="-8.6839091777801513671875">
        <ele>-4.400000095367431640625</ele>
        <time>2022-11-01T09:57:51.000Z</time>
      </trkpt>
      <trkpt lat="42.4042286910116672515869140625" lon="-8.6838359199464321136474609375">
        <ele>-4.599999904632568359375</ele>
        <time>2022-11-01T09:57:52.000Z</time>
      </trkpt>
      <trkpt lat="42.40429021418094635009765625" lon="-8.683749251067638397216796875">
        <ele>-4.599999904632568359375</ele>
        <time>2022-11-01T09:57:53.000Z</time>
      </trkpt>
      <trkpt lat="42.40433639846742153167724609375" lon="-8.6836508475244045257568359375">
        <ele>-4.599999904632568359375</ele>
        <time>2022-11-01T09:57:54.000Z</time>
      </trkpt>
      <trkpt lat="42.40436791442334651947021484375" lon="-8.6835658550262451171875">
        <ele>-4.599999904632568359375</ele>
        <time>2022-11-01T09:57:55.000Z</time>
      </trkpt>
      <trkpt lat="42.4044043757021427154541015625" lon="-8.6834553815424442291259765625">
        <ele>-4.400000095367431640625</ele>
        <time>2022-11-01T09:57:56.000Z</time>
      </trkpt>
      <trkpt lat="42.4044439382851123809814453125" lon="-8.68331632576882839202880859375">
        <ele>-4.400000095367431640625</ele>
        <time>2022-11-01T09:57:57.000Z</time>
      </trkpt>
      <trkpt lat="42.40447520278394222259521484375" lon="-8.68319445289671421051025390625">
        <ele>-4.19999980926513671875</ele>
        <time>2022-11-01T09:57:58.000Z</time>
      </trkpt>
      <trkpt lat="42.4045042879879474639892578125" lon="-8.68307123892009258270263671875">
        <ele>-4.19999980926513671875</ele>
        <time>2022-11-01T09:57:59.000Z</time>
      </trkpt>
      <trkpt lat="42.40452683530747890472412109375" lon="-8.68297283537685871124267578125">
        <ele>-4.19999980926513671875</ele>
        <time>2022-11-01T09:58:00.000Z</time>
      </trkpt>
      <trkpt lat="42.40455977618694305419921875" lon="-8.68282900191843509674072265625">
        <ele>-4.19999980926513671875</ele>
        <time>2022-11-01T09:58:01.000Z</time>
      </trkpt>
      <trkpt lat="42.4045864306390285491943359375" lon="-8.68271014653146266937255859375">
        <ele>-4.19999980926513671875</ele>
        <time>2022-11-01T09:58:02.000Z</time>
      </trkpt>
      <trkpt lat="42.4046132527291774749755859375" lon="-8.682592213153839111328125">
        <ele>-4.19999980926513671875</ele>
        <time>2022-11-01T09:58:03.000Z</time>
      </trkpt>
      <trkpt lat="42.404639236629009246826171875" lon="-8.6824730224907398223876953125">
        <ele>-4.19999980926513671875</ele>
        <time>2022-11-01T09:58:04.000Z</time>
      </trkpt>
      <trkpt lat="42.40465910173952579498291015625" lon="-8.68237654678523540496826171875">
        <ele>-4.19999980926513671875</ele>
        <time>2022-11-01T09:58:05.000Z</time>
      </trkpt>
      <trkpt lat="42.40469112060964107513427734375" lon="-8.68223304860293865203857421875">
        <ele>-4.400000095367431640625</ele>
        <time>2022-11-01T09:58:06.000Z</time>
      </trkpt>
      <trkpt lat="42.404717020690441131591796875" lon="-8.682114444673061370849609375">
        <ele>-4.80000019073486328125</ele>
        <time>2022-11-01T09:58:07.000Z</time>
      </trkpt>
      <trkpt lat="42.40474141202867031097412109375" lon="-8.6819981038570404052734375">
        <ele>-5</ele>
        <time>2022-11-01T09:58:08.000Z</time>
      </trkpt>
      <trkpt lat="42.40476521663367748260498046875" lon="-8.6818849481642246246337890625">
        <ele>-5</ele>
        <time>2022-11-01T09:58:09.000Z</time>
      </trkpt>
      <trkpt lat="42.40478868596255779266357421875" lon="-8.6817733012139797210693359375">
        <ele>-5.19999980926513671875</ele>
        <time>2022-11-01T09:58:10.000Z</time>
      </trkpt>
      <trkpt lat="42.4048077128827571868896484375" lon="-8.68168495595455169677734375">
        <ele>-5.19999980926513671875</ele>
        <time>2022-11-01T09:58:11.000Z</time>
      </trkpt>
      <trkpt lat="42.40483612753450870513916015625" lon="-8.68155193515121936798095703125">
        <ele>-5.19999980926513671875</ele>
        <time>2022-11-01T09:58:12.000Z</time>
      </trkpt>
      <trkpt lat="42.40486110560595989227294921875" lon="-8.681441210210323333740234375">
        <ele>-5.19999980926513671875</ele>
        <time>2022-11-01T09:58:13.000Z</time>
      </trkpt>
      <trkpt lat="42.4048861674964427947998046875" lon="-8.68133417330682277679443359375">
        <ele>-5.19999980926513671875</ele>
        <time>2022-11-01T09:58:14.000Z</time>
      </trkpt>
      <trkpt lat="42.40490184165537357330322265625" lon="-8.68124775588512420654296875">
        <ele>-5.400000095367431640625</ele>
        <time>2022-11-01T09:58:15.000Z</time>
      </trkpt>
      <trkpt lat="42.40492195822298526763916015625" lon="-8.6811436526477336883544921875">
        <ele>-5.400000095367431640625</ele>
        <time>2022-11-01T09:58:16.000Z</time>
      </trkpt>
      <trkpt lat="42.4049525521695613861083984375" lon="-8.68102437816560268402099609375">
        <ele>-5.19999980926513671875</ele>
        <time>2022-11-01T09:58:17.000Z</time>
      </trkpt>
      <trkpt lat="42.404981888830661773681640625" lon="-8.6809267289936542510986328125">
        <ele>-5</ele>
        <time>2022-11-01T09:58:18.000Z</time>
      </trkpt>
      <trkpt lat="42.40501449443399906158447265625" lon="-8.68082975037395954132080078125">
        <ele>-5</ele>
        <time>2022-11-01T09:58:19.000Z</time>
      </trkpt>
      <trkpt lat="42.4050414003431797027587890625" lon="-8.68075381033122539520263671875">
        <ele>-4.80000019073486328125</ele>
        <time>2022-11-01T09:58:20.000Z</time>
      </trkpt>
      <trkpt lat="42.40507819689810276031494140625" lon="-8.68066160939633846282958984375">
        <ele>-4.599999904632568359375</ele>
        <time>2022-11-01T09:58:21.000Z</time>
      </trkpt>
      <trkpt lat="42.4051258899271488189697265625" lon="-8.68055297993123531341552734375">
        <ele>-4.599999904632568359375</ele>
        <time>2022-11-01T09:58:22.000Z</time>
      </trkpt>
      <trkpt lat="42.40516838617622852325439453125" lon="-8.6804687418043613433837890625">
        <ele>-4.19999980926513671875</ele>
        <time>2022-11-01T09:58:23.000Z</time>
      </trkpt>
      <trkpt lat="42.4052137322723865509033203125" lon="-8.6803916282951831817626953125">
        <ele>-3.7999999523162841796875</ele>
        <time>2022-11-01T09:58:24.000Z</time>
      </trkpt>
      <trkpt lat="42.40525572560727596282958984375" lon="-8.68033044040203094482421875">
        <ele>-3.7999999523162841796875</ele>
        <time>2022-11-01T09:58:25.000Z</time>
      </trkpt>
      <trkpt lat="42.40531121380627155303955078125" lon="-8.68025533854961395263671875">
        <ele>-3.599999904632568359375</ele>
        <time>2022-11-01T09:58:26.000Z</time>
      </trkpt>
      <trkpt lat="42.4053798615932464599609375" lon="-8.68016925640404224395751953125">
        <ele>-3.599999904632568359375</ele>
        <time>2022-11-01T09:58:27.000Z</time>
      </trkpt>
      <trkpt lat="42.4054407142102718353271484375" lon="-8.680098764598369598388671875">
        <ele>-3.400000095367431640625</ele>
        <time>2022-11-01T09:58:28.000Z</time>
      </trkpt>
      <trkpt lat="42.405504919588565826416015625" lon="-8.6800347268581390380859375">
        <ele>-3.400000095367431640625</ele>
        <time>2022-11-01T09:58:29.000Z</time>
      </trkpt>
      <trkpt lat="42.40556702949106693267822265625" lon="-8.6799735389649868011474609375">
        <ele>-3.2000000476837158203125</ele>
        <time>2022-11-01T09:58:30.000Z</time>
      </trkpt>
      <trkpt lat="42.40563106723129749298095703125" lon="-8.6799172125756740570068359375">
        <ele>-3</ele>
        <time>2022-11-01T09:58:31.000Z</time>
      </trkpt>
      <trkpt lat="42.405695356428623199462890625" lon="-8.67986415512859821319580078125">
        <ele>-3</ele>
        <time>2022-11-01T09:58:32.000Z</time>
      </trkpt>
      <trkpt lat="42.405761070549488067626953125" lon="-8.67981101386249065399169921875">
        <ele>-3</ele>
        <time>2022-11-01T09:58:33.000Z</time>
      </trkpt>
      <trkpt lat="42.40582720376551151275634765625" lon="-8.67975837551057338714599609375">
        <ele>-3</ele>
        <time>2022-11-01T09:58:34.000Z</time>
      </trkpt>
      <trkpt lat="42.4058812670409679412841796875" lon="-8.67971680127084255218505859375">
        <ele>-3</ele>
        <time>2022-11-01T09:58:35.000Z</time>
      </trkpt>
      <trkpt lat="42.40595025010406970977783203125" lon="-8.679662235081195831298828125">
        <ele>-2.7999999523162841796875</ele>
        <time>2022-11-01T09:58:36.000Z</time>
      </trkpt>
      <trkpt lat="42.40603222511708736419677734375" lon="-8.67959744296967983245849609375">
        <ele>-2.7999999523162841796875</ele>
        <time>2022-11-01T09:58:37.000Z</time>
      </trkpt>
      <trkpt lat="42.4061002023518085479736328125" lon="-8.67954145185649394989013671875">
        <ele>-2.599999904632568359375</ele>
        <time>2022-11-01T09:58:38.000Z</time>
      </trkpt>
      <trkpt lat="42.40616851486265659332275390625" lon="-8.679483868181705474853515625">
        <ele>-2.599999904632568359375</ele>
        <time>2022-11-01T09:58:39.000Z</time>
      </trkpt>
      <trkpt lat="42.406224422156810760498046875" lon="-8.679437935352325439453125">
        <ele>-2.599999904632568359375</ele>
        <time>2022-11-01T09:58:40.000Z</time>
      </trkpt>
      <trkpt lat="42.4063050560653209686279296875" lon="-8.679370880126953125">
        <ele>-2.599999904632568359375</ele>
        <time>2022-11-01T09:58:41.000Z</time>
      </trkpt>
      <trkpt lat="42.4063714407384395599365234375" lon="-8.67931530810892581939697265625">
        <ele>-2.400000095367431640625</ele>
        <time>2022-11-01T09:58:42.000Z</time>
      </trkpt>
      <trkpt lat="42.4064391665160655975341796875" lon="-8.6792607419192790985107421875">
        <ele>-2.2000000476837158203125</ele>
        <time>2022-11-01T09:58:43.000Z</time>
      </trkpt>
      <trkpt lat="42.4065068922936916351318359375" lon="-8.6792084388434886932373046875">
        <ele>-2.2000000476837158203125</ele>
        <time>2022-11-01T09:58:44.000Z</time>
      </trkpt>
      <trkpt lat="42.40655936300754547119140625" lon="-8.67916493676602840423583984375">
        <ele>-2.2000000476837158203125</ele>
        <time>2022-11-01T09:58:45.000Z</time>
      </trkpt>
      <trkpt lat="42.4066373147070407867431640625" lon="-8.67909905500710010528564453125">
        <ele>-2</ele>
        <time>2022-11-01T09:58:46.000Z</time>
      </trkpt>
      <trkpt lat="42.40670328028500080108642578125" lon="-8.67904541082680225372314453125">
        <ele>-2</ele>
        <time>2022-11-01T09:58:47.000Z</time>
      </trkpt>
      <trkpt lat="42.40677100606262683868408203125" lon="-8.67898958735167980194091796875">
        <ele>-1.7999999523162841796875</ele>
        <time>2022-11-01T09:58:48.000Z</time>
      </trkpt>
      <trkpt lat="42.40682481788098812103271484375" lon="-8.6789459176361560821533203125">
        <ele>-1.60000002384185791015625</ele>
        <time>2022-11-01T09:58:49.000Z</time>
      </trkpt>
      <trkpt lat="42.406892292201519012451171875" lon="-8.678894452750682830810546875">
        <ele>-1.60000002384185791015625</ele>
        <time>2022-11-01T09:58:50.000Z</time>
      </trkpt>
      <trkpt lat="42.406972758471965789794921875" lon="-8.67883234284818172454833984375">
        <ele>-1.60000002384185791015625</ele>
        <time>2022-11-01T09:58:51.000Z</time>
      </trkpt>
      <trkpt lat="42.40703872404992580413818359375" lon="-8.67877953685820102691650390625">
        <ele>-1.39999997615814208984375</ele>
        <time>2022-11-01T09:58:52.000Z</time>
      </trkpt>
      <trkpt lat="42.40710427053272724151611328125" lon="-8.67872673086822032928466796875">
        <ele>-1.39999997615814208984375</ele>
        <time>2022-11-01T09:58:53.000Z</time>
      </trkpt>
      <trkpt lat="42.40717065520584583282470703125" lon="-8.678673170506954193115234375">
        <ele>-1.39999997615814208984375</ele>
        <time>2022-11-01T09:58:54.000Z</time>
      </trkpt>
      <trkpt lat="42.40722329355776309967041015625" lon="-8.678628914058208465576171875">
        <ele>-1.39999997615814208984375</ele>
        <time>2022-11-01T09:58:55.000Z</time>
      </trkpt>
      <trkpt lat="42.40730074234306812286376953125" lon="-8.6785648763179779052734375">
        <ele>-1.39999997615814208984375</ele>
        <time>2022-11-01T09:58:56.000Z</time>
      </trkpt>
      <trkpt lat="42.40736226551234722137451171875" lon="-8.67851567454636096954345703125">
        <ele>-1.2000000476837158203125</ele>
        <time>2022-11-01T09:58:57.000Z</time>
      </trkpt>
      <trkpt lat="42.40742261521518230438232421875" lon="-8.67846488021314144134521484375">
        <ele>-1.2000000476837158203125</ele>
        <time>2022-11-01T09:58:58.000Z</time>
      </trkpt>
      <trkpt lat="42.4074721522629261016845703125" lon="-8.67842582054436206817626953125">
        <ele>-0.800000011920928955078125</ele>
        <time>2022-11-01T09:58:59.000Z</time>
      </trkpt>
      <trkpt lat="42.4075325019657611846923828125" lon="-8.67837653495371341705322265625">
        <ele>-0.60000002384185791015625</ele>
        <time>2022-11-01T09:59:00.000Z</time>
      </trkpt>
      <trkpt lat="42.4076005630195140838623046875" lon="-8.67832238785922527313232421875">
        <ele>-0.60000002384185791015625</ele>
        <time>2022-11-01T09:59:01.000Z</time>
      </trkpt>
      <trkpt lat="42.4076518602669239044189453125" lon="-8.67827611975371837615966796875">
        <ele>-0.4000000059604644775390625</ele>
        <time>2022-11-01T09:59:02.000Z</time>
      </trkpt>
      <trkpt lat="42.40770759992301464080810546875" lon="-8.6782280914485454559326171875">
        <ele>-0.4000000059604644775390625</ele>
        <time>2022-11-01T09:59:03.000Z</time>
      </trkpt>
      <trkpt lat="42.407763339579105377197265625" lon="-8.6781801469624042510986328125">
        <ele>-0.20000000298023223876953125</ele>
        <time>2022-11-01T09:59:04.000Z</time>
      </trkpt>
      <trkpt lat="42.40780684165656566619873046875" lon="-8.678141422569751739501953125">
        <ele>0</ele>
        <time>2022-11-01T09:59:05.000Z</time>
      </trkpt>
      <trkpt lat="42.4078716337680816650390625" lon="-8.6780842579901218414306640625">
        <ele>0.4000000059604644775390625</ele>
        <time>2022-11-01T09:59:06.000Z</time>
      </trkpt>
      <trkpt lat="42.4079227633774280548095703125" lon="-8.6780363135039806365966796875">
        <ele>0.60000002384185791015625</ele>
        <time>2022-11-01T09:59:07.000Z</time>
      </trkpt>
      <trkpt lat="42.4079727195203304290771484375" lon="-8.67798359133303165435791015625">
        <ele>1.2000000476837158203125</ele>
        <time>2022-11-01T09:59:08.000Z</time>
      </trkpt>
      <trkpt lat="42.40802074782550334930419921875" lon="-8.67793120443820953369140625">
        <ele>1.60000002384185791015625</ele>
        <time>2022-11-01T09:59:09.000Z</time>
      </trkpt>
      <trkpt lat="42.4080652557313442230224609375" lon="-8.6778747104108333587646484375">
        <ele>1.7999999523162841796875</ele>
        <time>2022-11-01T09:59:10.000Z</time>
      </trkpt>
      <trkpt lat="42.40810624323785305023193359375" lon="-8.67781528271734714508056640625">
        <ele>2</ele>
        <time>2022-11-01T09:59:11.000Z</time>
      </trkpt>
      <trkpt lat="42.4081430397927761077880859375" lon="-8.6777526699006557464599609375">
        <ele>2.2000000476837158203125</ele>
        <time>2022-11-01T09:59:12.000Z</time>
      </trkpt>
      <trkpt lat="42.40818075835704803466796875" lon="-8.67768687196075916290283203125">
        <ele>2.400000095367431640625</ele>
        <time>2022-11-01T09:59:13.000Z</time>
      </trkpt>
      <trkpt lat="42.40821889601647853851318359375" lon="-8.67761881090700626373291015625">
        <ele>2.599999904632568359375</ele>
        <time>2022-11-01T09:59:14.000Z</time>
      </trkpt>
      <trkpt lat="42.4082563631236553192138671875" lon="-8.677549995481967926025390625">
        <ele>2.7999999523162841796875</ele>
        <time>2022-11-01T09:59:15.000Z</time>
      </trkpt>
      <trkpt lat="42.4082902260124683380126953125" lon="-8.67747749201953411102294921875">
        <ele>2.7999999523162841796875</ele>
        <time>2022-11-01T09:59:16.000Z</time>
      </trkpt>
      <trkpt lat="42.4083204008638858795166015625" lon="-8.67740222252905368804931640625">
        <ele>3.2000000476837158203125</ele>
        <time>2022-11-01T09:59:17.000Z</time>
      </trkpt>
      <trkpt lat="42.40834160707890987396240234375" lon="-8.67734002880752086639404296875">
        <ele>3.2000000476837158203125</ele>
        <time>2022-11-01T09:59:18.000Z</time>
      </trkpt>
      <trkpt lat="42.40836574696004390716552734375" lon="-8.67725973017513751983642578125">
        <ele>3.599999904632568359375</ele>
        <time>2022-11-01T09:59:19.000Z</time>
      </trkpt>
      <trkpt lat="42.4083894677460193634033203125" lon="-8.6771585606038570404052734375">
        <ele>4</ele>
        <time>2022-11-01T09:59:20.000Z</time>
      </trkpt>
      <trkpt lat="42.4084105901420116424560546875" lon="-8.6770703829824924468994140625">
        <ele>4</ele>
        <time>2022-11-01T09:59:21.000Z</time>
      </trkpt>
      <trkpt lat="42.408433891832828521728515625" lon="-8.6769778467714786529541015625">
        <ele>4.400000095367431640625</ele>
        <time>2022-11-01T09:59:22.000Z</time>
      </trkpt>
      <trkpt lat="42.40844973362982273101806640625" lon="-8.67689930833876132965087890625">
        <ele>4.400000095367431640625</ele>
        <time>2022-11-01T09:59:23.000Z</time>
      </trkpt>
      <trkpt lat="42.40846750326454639434814453125" lon="-8.67679906077682971954345703125">
        <ele>4.599999904632568359375</ele>
        <time>2022-11-01T09:59:24.000Z</time>
      </trkpt>
      <trkpt lat="42.4084870330989360809326171875" lon="-8.67667458951473236083984375">
        <ele>4.599999904632568359375</ele>
        <time>2022-11-01T09:59:25.000Z</time>
      </trkpt>
      <trkpt lat="42.4085051380097866058349609375" lon="-8.67656855843961238861083984375">
        <ele>4.599999904632568359375</ele>
        <time>2022-11-01T09:59:26.000Z</time>
      </trkpt>
      <trkpt lat="42.40852131508290767669677734375" lon="-8.67646135389804840087890625">
        <ele>4.599999904632568359375</ele>
        <time>2022-11-01T09:59:27.000Z</time>
      </trkpt>
      <trkpt lat="42.4085329659283161163330078125" lon="-8.67637577466666698455810546875">
        <ele>4.599999904632568359375</ele>
        <time>2022-11-01T09:59:28.000Z</time>
      </trkpt>
      <trkpt lat="42.4085480533540248870849609375" lon="-8.67626613937318325042724609375">
        <ele>4.599999904632568359375</ele>
        <time>2022-11-01T09:59:29.000Z</time>
      </trkpt>
      <trkpt lat="42.40856657736003398895263671875" lon="-8.6761309392750263214111328125">
        <ele>4.599999904632568359375</ele>
        <time>2022-11-01T09:59:30.000Z</time>
      </trkpt>
      <trkpt lat="42.40858065895736217498779296875" lon="-8.67601200006902217864990234375">
        <ele>4.400000095367431640625</ele>
        <time>2022-11-01T09:59:31.000Z</time>
      </trkpt>
      <trkpt lat="42.4085959978401660919189453125" lon="-8.6758885346353054046630859375">
        <ele>4.400000095367431640625</ele>
        <time>2022-11-01T09:59:32.000Z</time>
      </trkpt>
      <trkpt lat="42.4086100794374942779541015625" lon="-8.675785772502422332763671875">
        <ele>4.19999980926513671875</ele>
        <time>2022-11-01T09:59:33.000Z</time>
      </trkpt>
      <trkpt lat="42.408632375299930572509765625" lon="-8.675629533827304840087890625">
        <ele>4.19999980926513671875</ele>
        <time>2022-11-01T09:59:34.000Z</time>
      </trkpt>
      <trkpt lat="42.40865207277238368988037109375" lon="-8.67549785412847995758056640625">
        <ele>4.19999980926513671875</ele>
        <time>2022-11-01T09:59:35.000Z</time>
      </trkpt>
      <trkpt lat="42.4086710996925830841064453125" lon="-8.67536474950611591339111328125">
        <ele>4</ele>
        <time>2022-11-01T09:59:36.000Z</time>
      </trkpt>
      <trkpt lat="42.408686690032482147216796875" lon="-8.675231225788593292236328125">
        <ele>3.7999999523162841796875</ele>
        <time>2022-11-01T09:59:37.000Z</time>
      </trkpt>
      <trkpt lat="42.40870186127722263336181640625" lon="-8.67509770207107067108154296875">
        <ele>3.599999904632568359375</ele>
        <time>2022-11-01T09:59:38.000Z</time>
      </trkpt>
      <trkpt lat="42.408718205988407135009765625" lon="-8.6749648489058017730712890625">
        <ele>3.2000000476837158203125</ele>
        <time>2022-11-01T09:59:39.000Z</time>
      </trkpt>
      <trkpt lat="42.40873756818473339080810546875" lon="-8.67483383975923061370849609375">
        <ele>2.599999904632568359375</ele>
        <time>2022-11-01T09:59:40.000Z</time>
      </trkpt>
      <trkpt lat="42.40875634364783763885498046875" lon="-8.674701489508152008056640625">
        <ele>2.400000095367431640625</ele>
        <time>2022-11-01T09:59:41.000Z</time>
      </trkpt>
      <trkpt lat="42.408777885138988494873046875" lon="-8.67456746287643909454345703125">
        <ele>2</ele>
        <time>2022-11-01T09:59:42.000Z</time>
      </trkpt>
      <trkpt lat="42.40880076773464679718017578125" lon="-8.6744324304163455963134765625">
        <ele>1.7999999523162841796875</ele>
        <time>2022-11-01T09:59:43.000Z</time>
      </trkpt>
      <trkpt lat="42.40882423706352710723876953125" lon="-8.6742969788610935211181640625">
        <ele>1.60000002384185791015625</ele>
        <time>2022-11-01T09:59:44.000Z</time>
      </trkpt>
      <trkpt lat="42.40884787403047084808349609375" lon="-8.6741632036864757537841796875">
        <ele>1.60000002384185791015625</ele>
        <time>2022-11-01T09:59:45.000Z</time>
      </trkpt>
      <trkpt lat="42.40887486375868320465087890625" lon="-8.6740331165492534637451171875">
        <ele>1.2000000476837158203125</ele>
        <time>2022-11-01T09:59:46.000Z</time>
      </trkpt>
      <trkpt lat="42.4089061282575130462646484375" lon="-8.67390663363039493560791015625">
        <ele>1</ele>
        <time>2022-11-01T09:59:47.000Z</time>
      </trkpt>
      <trkpt lat="42.408938817679882049560546875" lon="-8.67378241382539272308349609375">
        <ele>0.800000011920928955078125</ele>
        <time>2022-11-01T09:59:48.000Z</time>
      </trkpt>
      <trkpt lat="42.40896991454064846038818359375" lon="-8.6736599542200565338134765625">
        <ele>0.60000002384185791015625</ele>
        <time>2022-11-01T09:59:49.000Z</time>
      </trkpt>
      <trkpt lat="42.4090008437633514404296875" lon="-8.67354000918567180633544921875">
        <ele>0.60000002384185791015625</ele>
        <time>2022-11-01T09:59:50.000Z</time>
      </trkpt>
      <trkpt lat="42.4090321920812129974365234375" lon="-8.6734209023416042327880859375">
        <ele>0.60000002384185791015625</ele>
        <time>2022-11-01T09:59:51.000Z</time>
      </trkpt>
      <trkpt lat="42.40906362421810626983642578125" lon="-8.67330162785947322845458984375">
        <ele>0.60000002384185791015625</ele>
        <time>2022-11-01T09:59:52.000Z</time>
      </trkpt>
      <trkpt lat="42.409093379974365234375" lon="-8.67318394593894481658935546875">
        <ele>0.60000002384185791015625</ele>
        <time>2022-11-01T09:59:53.000Z</time>
      </trkpt>
      <trkpt lat="42.40912145934998989105224609375" lon="-8.67306760512292385101318359375">
        <ele>0.60000002384185791015625</ele>
        <time>2022-11-01T09:59:54.000Z</time>
      </trkpt>
      <trkpt lat="42.40914710797369480133056640625" lon="-8.6729510128498077392578125">
        <ele>0.60000002384185791015625</ele>
        <time>2022-11-01T09:59:55.000Z</time>
      </trkpt>
      <trkpt lat="42.40916890092194080352783203125" lon="-8.67283425293862819671630859375">
        <ele>0.800000011920928955078125</ele>
        <time>2022-11-01T09:59:56.000Z</time>
      </trkpt>
      <trkpt lat="42.4091834016144275665283203125" lon="-8.67274221964180469512939453125">
        <ele>1</ele>
        <time>2022-11-01T09:59:57.000Z</time>
      </trkpt>
      <trkpt lat="42.4092112295329570770263671875" lon="-8.6726031638681888580322265625">
        <ele>1</ele>
        <time>2022-11-01T09:59:58.000Z</time>
      </trkpt>
      <trkpt lat="42.40923754870891571044921875" lon="-8.67249428294599056243896484375">
        <ele>1.2000000476837158203125</ele>
        <time>2022-11-01T09:59:59.000Z</time>
      </trkpt>
      <trkpt lat="42.40926294587552547454833984375" lon="-8.67238498292863368988037109375">
        <ele>1.39999997615814208984375</ele>
        <time>2022-11-01T10:00:00.000Z</time>
      </trkpt>
      <trkpt lat="42.40928708575665950775146484375" lon="-8.67227316834032535552978515625">
        <ele>1.39999997615814208984375</ele>
        <time>2022-11-01T10:00:01.000Z</time>
      </trkpt>
      <trkpt lat="42.409310974180698394775390625" lon="-8.672160767018795013427734375">
        <ele>1.60000002384185791015625</ele>
        <time>2022-11-01T10:00:02.000Z</time>
      </trkpt>
      <trkpt lat="42.409331761300563812255859375" lon="-8.67204643785953521728515625">
        <ele>1.60000002384185791015625</ele>
        <time>2022-11-01T10:00:03.000Z</time>
      </trkpt>
      <trkpt lat="42.4093443341553211212158203125" lon="-8.6719292588531970977783203125">
        <ele>1.7999999523162841796875</ele>
        <time>2022-11-01T10:00:04.000Z</time>
      </trkpt>
      <trkpt lat="42.40935900248587131500244140625" lon="-8.671809397637844085693359375">
        <ele>1.7999999523162841796875</ele>
        <time>2022-11-01T10:00:05.000Z</time>
      </trkpt>
      <trkpt lat="42.4093748442828655242919921875" lon="-8.67168702185153961181640625">
        <ele>1.7999999523162841796875</ele>
        <time>2022-11-01T10:00:06.000Z</time>
      </trkpt>
      <trkpt lat="42.40939236246049404144287109375" lon="-8.6715882830321788787841796875">
        <ele>1.7999999523162841796875</ele>
        <time>2022-11-01T10:00:07.000Z</time>
      </trkpt>
      <trkpt lat="42.4094197712838649749755859375" lon="-8.6714377440512180328369140625">
        <ele>1.7999999523162841796875</ele>
        <time>2022-11-01T10:00:08.000Z</time>
      </trkpt>
      <trkpt lat="42.409443743526935577392578125" lon="-8.671309836208820343017578125">
        <ele>1.7999999523162841796875</ele>
        <time>2022-11-01T10:00:09.000Z</time>
      </trkpt>
      <trkpt lat="42.40946779958903789520263671875" lon="-8.67118067108094692230224609375">
        <ele>1.7999999523162841796875</ele>
        <time>2022-11-01T10:00:10.000Z</time>
      </trkpt>
      <trkpt lat="42.409493029117584228515625" lon="-8.671052344143390655517578125">
        <ele>1.60000002384185791015625</ele>
        <time>2022-11-01T10:00:11.000Z</time>
      </trkpt>
      <trkpt lat="42.40951943211257457733154296875" lon="-8.67092418484389781951904296875">
        <ele>1.39999997615814208984375</ele>
        <time>2022-11-01T10:00:12.000Z</time>
      </trkpt>
      <trkpt lat="42.40954675711691379547119140625" lon="-8.670792169868946075439453125">
        <ele>1.2000000476837158203125</ele>
        <time>2022-11-01T10:00:13.000Z</time>
      </trkpt>
      <trkpt lat="42.40957810543477535247802734375" lon="-8.670658059418201446533203125">
        <ele>1.2000000476837158203125</ele>
        <time>2022-11-01T10:00:14.000Z</time>
      </trkpt>
      <trkpt lat="42.40960962139070034027099609375" lon="-8.67052470333874225616455078125">
        <ele>1</ele>
        <time>2022-11-01T10:00:15.000Z</time>
      </trkpt>
      <trkpt lat="42.4096450768411159515380859375" lon="-8.67039126344025135040283203125">
        <ele>0.800000011920928955078125</ele>
        <time>2022-11-01T10:00:16.000Z</time>
      </trkpt>
      <trkpt lat="42.4096940271556377410888671875" lon="-8.67026218213140964508056640625">
        <ele>0.60000002384185791015625</ele>
        <time>2022-11-01T10:00:17.000Z</time>
      </trkpt>
      <trkpt lat="42.40975395776331424713134765625" lon="-8.6701392196118831634521484375">
        <ele>0.4000000059604644775390625</ele>
        <time>2022-11-01T10:00:18.000Z</time>
      </trkpt>
      <trkpt lat="42.40982788614928722381591796875" lon="-8.6700242199003696441650390625">
        <ele>0</ele>
        <time>2022-11-01T10:00:19.000Z</time>
      </trkpt>
      <trkpt lat="42.4099079333245754241943359375" lon="-8.66992070339620113372802734375">
        <ele>-0.4000000059604644775390625</ele>
        <time>2022-11-01T10:00:20.000Z</time>
      </trkpt>
      <trkpt lat="42.4099726416170597076416015625" lon="-8.66984912194311618804931640625">
        <ele>-1</ele>
        <time>2022-11-01T10:00:21.000Z</time>
      </trkpt>
      <trkpt lat="42.4100604839622974395751953125" lon="-8.66976790130138397216796875">
        <ele>-1.7999999523162841796875</ele>
        <time>2022-11-01T10:00:22.000Z</time>
      </trkpt>
      <trkpt lat="42.41017607040703296661376953125" lon="-8.66968601010739803314208984375">
        <ele>-2</ele>
        <time>2022-11-01T10:00:23.000Z</time>
      </trkpt>
      <trkpt lat="42.41027598269283771514892578125" lon="-8.6696275882422924041748046875">
        <ele>-2.400000095367431640625</ele>
        <time>2022-11-01T10:00:24.000Z</time>
      </trkpt>
      <trkpt lat="42.41037874482572078704833984375" lon="-8.66956966929137706756591796875">
        <ele>-2.599999904632568359375</ele>
        <time>2022-11-01T10:00:25.000Z</time>
      </trkpt>
      <trkpt lat="42.41046055220067501068115234375" lon="-8.66952407173812389373779296875">
        <ele>-3.2000000476837158203125</ele>
        <time>2022-11-01T10:00:26.000Z</time>
      </trkpt>
      <trkpt lat="42.4105831794440746307373046875" lon="-8.66945282556116580963134765625">
        <ele>-3.400000095367431640625</ele>
        <time>2022-11-01T10:00:27.000Z</time>
      </trkpt>
      <trkpt lat="42.4106837622821331024169921875" lon="-8.66939448751509189605712890625">
        <ele>-3.599999904632568359375</ele>
        <time>2022-11-01T10:00:28.000Z</time>
      </trkpt>
      <trkpt lat="42.41078384220600128173828125" lon="-8.6693369038403034210205078125">
        <ele>-3.7999999523162841796875</ele>
        <time>2022-11-01T10:00:29.000Z</time>
      </trkpt>
      <trkpt lat="42.41088350303471088409423828125" lon="-8.66928233765065670013427734375">
        <ele>-4.19999980926513671875</ele>
        <time>2022-11-01T10:00:30.000Z</time>
      </trkpt>
      <trkpt lat="42.41096363402903079986572265625" lon="-8.6692423559725284576416015625">
        <ele>-4.19999980926513671875</ele>
        <time>2022-11-01T10:00:31.000Z</time>
      </trkpt>
      <trkpt lat="42.411083243787288665771484375" lon="-8.66918326355516910552978515625">
        <ele>-4.400000095367431640625</ele>
        <time>2022-11-01T10:00:32.000Z</time>
      </trkpt>
      <trkpt lat="42.41118273697793483734130859375" lon="-8.6691337265074253082275390625">
        <ele>-4.599999904632568359375</ele>
        <time>2022-11-01T10:00:33.000Z</time>
      </trkpt>
      <trkpt lat="42.411281056702136993408203125" lon="-8.66908754222095012664794921875">
        <ele>-4.599999904632568359375</ele>
        <time>2022-11-01T10:00:34.000Z</time>
      </trkpt>
      <trkpt lat="42.4113787896931171417236328125" lon="-8.6690418608486652374267578125">
        <ele>-4.80000019073486328125</ele>
        <time>2022-11-01T10:00:35.000Z</time>
      </trkpt>
      <trkpt lat="42.411476857960224151611328125" lon="-8.66899835877120494842529296875">
        <ele>-4.80000019073486328125</ele>
        <time>2022-11-01T10:00:36.000Z</time>
      </trkpt>
      <trkpt lat="42.411574088037014007568359375" lon="-8.66895343177020549774169921875">
        <ele>-5</ele>
        <time>2022-11-01T10:00:37.000Z</time>
      </trkpt>
      <trkpt lat="42.41167173720896244049072265625" lon="-8.6689067445695400238037109375">
        <ele>-5</ele>
        <time>2022-11-01T10:00:38.000Z</time>
      </trkpt>
      <trkpt lat="42.41176980547606945037841796875" lon="-8.66886123083531856536865234375">
        <ele>-5.19999980926513671875</ele>
        <time>2022-11-01T10:00:39.000Z</time>
      </trkpt>
      <trkpt lat="42.4118481762707233428955078125" lon="-8.6688259430229663848876953125">
        <ele>-5.400000095367431640625</ele>
        <time>2022-11-01T10:00:40.000Z</time>
      </trkpt>
      <trkpt lat="42.41196694783866405487060546875" lon="-8.6687739752233028411865234375">
        <ele>-5.400000095367431640625</ele>
        <time>2022-11-01T10:00:41.000Z</time>
      </trkpt>
      <trkpt lat="42.412066273391246795654296875" lon="-8.66873097606003284454345703125">
        <ele>-5.400000095367431640625</ele>
        <time>2022-11-01T10:00:42.000Z</time>
      </trkpt>
      <trkpt lat="42.41216559894382953643798828125" lon="-8.6686881445348262786865234375">
        <ele>-5.19999980926513671875</ele>
        <time>2022-11-01T10:00:43.000Z</time>
      </trkpt>
      <trkpt lat="42.41226634941995143890380859375" lon="-8.6686442233622074127197265625">
        <ele>-5.19999980926513671875</ele>
        <time>2022-11-01T10:00:44.000Z</time>
      </trkpt>
      <trkpt lat="42.412366010248661041259765625" lon="-8.6686016432940959930419921875">
        <ele>-5.19999980926513671875</ele>
        <time>2022-11-01T10:00:45.000Z</time>
      </trkpt>
      <trkpt lat="42.41246449761092662811279296875" lon="-8.6685575544834136962890625">
        <ele>-5</ele>
        <time>2022-11-01T10:00:46.000Z</time>
      </trkpt>
      <trkpt lat="42.41256290115416049957275390625" lon="-8.6685138009488582611083984375">
        <ele>-5</ele>
        <time>2022-11-01T10:00:47.000Z</time>
      </trkpt>
      <trkpt lat="42.4126618914306163787841796875" lon="-8.66847432218492031097412109375">
        <ele>-4.80000019073486328125</ele>
        <time>2022-11-01T10:00:48.000Z</time>
      </trkpt>
      <trkpt lat="42.41276071406900882720947265625" lon="-8.6684363521635532379150390625">
        <ele>-4.80000019073486328125</ele>
        <time>2022-11-01T10:00:49.000Z</time>
      </trkpt>
      <trkpt lat="42.4128573574125766754150390625" lon="-8.6683998070657253265380859375">
        <ele>-4.80000019073486328125</ele>
        <time>2022-11-01T10:00:50.000Z</time>
      </trkpt>
      <trkpt lat="42.41295333020389080047607421875" lon="-8.66836384870111942291259765625">
        <ele>-4.599999904632568359375</ele>
        <time>2022-11-01T10:00:51.000Z</time>
      </trkpt>
      <trkpt lat="42.41304938681423664093017578125" lon="-8.66832646541297435760498046875">
        <ele>-4.599999904632568359375</ele>
        <time>2022-11-01T10:00:52.000Z</time>
      </trkpt>
      <trkpt lat="42.4131448566913604736328125" lon="-8.66829193197190761566162109375">
        <ele>-4.599999904632568359375</ele>
        <time>2022-11-01T10:00:53.000Z</time>
      </trkpt>
      <trkpt lat="42.41324099712073802947998046875" lon="-8.6682613380253314971923828125">
        <ele>-4.400000095367431640625</ele>
        <time>2022-11-01T10:00:54.000Z</time>
      </trkpt>
      <trkpt lat="42.413338981568813323974609375" lon="-8.66823376156389713287353515625">
        <ele>-4.400000095367431640625</ele>
        <time>2022-11-01T10:00:55.000Z</time>
      </trkpt>
      <trkpt lat="42.4134370498359203338623046875" lon="-8.66820978932082653045654296875">
        <ele>-4.400000095367431640625</ele>
        <time>2022-11-01T10:00:56.000Z</time>
      </trkpt>
      <trkpt lat="42.41353503428399562835693359375" lon="-8.66818933747708797454833984375">
        <ele>-4.19999980926513671875</ele>
        <time>2022-11-01T10:00:57.000Z</time>
      </trkpt>
      <trkpt lat="42.413634695112705230712890625" lon="-8.6681751720607280731201171875">
        <ele>-4.19999980926513671875</ele>
        <time>2022-11-01T10:00:58.000Z</time>
      </trkpt>
      <trkpt lat="42.41373335011303424835205078125" lon="-8.668168969452381134033203125">
        <ele>-4</ele>
        <time>2022-11-01T10:00:59.000Z</time>
      </trkpt>
      <trkpt lat="42.4138309992849826812744140625" lon="-8.66816603578627109527587890625">
        <ele>-4</ele>
        <time>2022-11-01T10:01:00.000Z</time>
      </trkpt>
      <trkpt lat="42.4139275588095188140869140625" lon="-8.66816796362400054931640625">
        <ele>-4</ele>
        <time>2022-11-01T10:01:01.000Z</time>
      </trkpt>
      <trkpt lat="42.4140237830579280853271484375" lon="-8.668174333870410919189453125">
        <ele>-4</ele>
        <time>2022-11-01T10:01:02.000Z</time>
      </trkpt>
      <trkpt lat="42.41411983966827392578125" lon="-8.6681859008967876434326171875">
        <ele>-3.7999999523162841796875</ele>
        <time>2022-11-01T10:01:03.000Z</time>
      </trkpt>
      <trkpt lat="42.41419619880616664886474609375" lon="-8.6681989766657352447509765625">
        <ele>-3.7999999523162841796875</ele>
        <time>2022-11-01T10:01:04.000Z</time>
      </trkpt>
      <trkpt lat="42.4143101088702678680419921875" lon="-8.66821649484336376190185546875">
        <ele>-3.7999999523162841796875</ele>
        <time>2022-11-01T10:01:05.000Z</time>
      </trkpt>
      <trkpt lat="42.41440440528094768524169921875" lon="-8.6682294867932796478271484375">
        <ele>-3.599999904632568359375</ele>
        <time>2022-11-01T10:01:06.000Z</time>
      </trkpt>
      <trkpt lat="42.4144966900348663330078125" lon="-8.66824331693351268768310546875">
        <ele>-3.599999904632568359375</ele>
        <time>2022-11-01T10:01:07.000Z</time>
      </trkpt>
      <trkpt lat="42.41457103751599788665771484375" lon="-8.6682546325027942657470703125">
        <ele>-3.599999904632568359375</ele>
        <time>2022-11-01T10:01:08.000Z</time>
      </trkpt>
      <trkpt lat="42.41466223262250423431396484375" lon="-8.66826720535755157470703125">
        <ele>-3.400000095367431640625</ele>
        <time>2022-11-01T10:01:09.000Z</time>
      </trkpt>
      <trkpt lat="42.41477337665855884552001953125" lon="-8.66828287951648235321044921875">
        <ele>-3.400000095367431640625</ele>
        <time>2022-11-01T10:01:10.000Z</time>
      </trkpt>
      <trkpt lat="42.414864487946033477783203125" lon="-8.6682911776006221771240234375">
        <ele>-3.400000095367431640625</ele>
        <time>2022-11-01T10:01:11.000Z</time>
      </trkpt>
      <trkpt lat="42.414955012500286102294921875" lon="-8.6682946979999542236328125">
        <ele>-3.2000000476837158203125</ele>
        <time>2022-11-01T10:01:12.000Z</time>
      </trkpt>
      <trkpt lat="42.41504729725420475006103515625" lon="-8.6682911776006221771240234375">
        <ele>-3.2000000476837158203125</ele>
        <time>2022-11-01T10:01:13.000Z</time>
      </trkpt>
      <trkpt lat="42.41514016874134540557861328125" lon="-8.66827885620296001434326171875">
        <ele>-2.7999999523162841796875</ele>
        <time>2022-11-01T10:01:14.000Z</time>
      </trkpt>
      <trkpt lat="42.41522968746721744537353515625" lon="-8.66825513541698455810546875">
        <ele>-2.599999904632568359375</ele>
        <time>2022-11-01T10:01:15.000Z</time>
      </trkpt>
      <trkpt lat="42.415315099060535430908203125" lon="-8.668219931423664093017578125">
        <ele>-2.599999904632568359375</ele>
        <time>2022-11-01T10:01:16.000Z</time>
      </trkpt>
      <trkpt lat="42.41539833135902881622314453125" lon="-8.6681728251278400421142578125">
        <ele>-2.400000095367431640625</ele>
        <time>2022-11-01T10:01:17.000Z</time>
      </trkpt>
      <trkpt lat="42.4154617823660373687744140625" lon="-8.6681312508881092071533203125">
        <ele>-2.400000095367431640625</ele>
        <time>2022-11-01T10:01:18.000Z</time>
      </trkpt>
      <trkpt lat="42.4155399017035961151123046875" lon="-8.668075092136859893798828125">
        <ele>-2.2000000476837158203125</ele>
        <time>2022-11-01T10:01:19.000Z</time>
      </trkpt>
      <trkpt lat="42.41563461720943450927734375" lon="-8.66800392977893352508544921875">
        <ele>-1.7999999523162841796875</ele>
        <time>2022-11-01T10:01:20.000Z</time>
      </trkpt>
      <trkpt lat="42.41571516729891300201416015625" lon="-8.66794240660965442657470703125">
        <ele>-1.60000002384185791015625</ele>
        <time>2022-11-01T10:01:21.000Z</time>
      </trkpt>
      <trkpt lat="42.41579529829323291778564453125" lon="-8.66788339801132678985595703125">
        <ele>-1.39999997615814208984375</ele>
        <time>2022-11-01T10:01:22.000Z</time>
      </trkpt>
      <trkpt lat="42.41587492637336254119873046875" lon="-8.6678231321275234222412109375">
        <ele>-1.39999997615814208984375</ele>
        <time>2022-11-01T10:01:23.000Z</time>
      </trkpt>
      <trkpt lat="42.41593695245683193206787109375" lon="-8.6677725054323673248291015625">
        <ele>-1.39999997615814208984375</ele>
        <time>2022-11-01T10:01:24.000Z</time>
      </trkpt>
      <trkpt lat="42.41603099741041660308837890625" lon="-8.66769346408545970916748046875">
        <ele>-1.2000000476837158203125</ele>
        <time>2022-11-01T10:01:25.000Z</time>
      </trkpt>
      <trkpt lat="42.416109703481197357177734375" lon="-8.66762942634522914886474609375">
        <ele>-1.2000000476837158203125</ele>
        <time>2022-11-01T10:01:26.000Z</time>
      </trkpt>
      <trkpt lat="42.416188158094882965087890625" lon="-8.66756354458630084991455078125">
        <ele>-1.2000000476837158203125</ele>
        <time>2022-11-01T10:01:27.000Z</time>
      </trkpt>
      <trkpt lat="42.4162520281970500946044921875" lon="-8.6675114929676055908203125">
        <ele>-1</ele>
        <time>2022-11-01T10:01:28.000Z</time>
      </trkpt>
      <trkpt lat="42.41634615696966648101806640625" lon="-8.66743664257228374481201171875">
        <ele>-1</ele>
        <time>2022-11-01T10:01:29.000Z</time>
      </trkpt>
      <trkpt lat="42.4164251983165740966796875" lon="-8.66737780161201953887939453125">
        <ele>-0.800000011920928955078125</ele>
        <time>2022-11-01T10:01:30.000Z</time>
      </trkpt>
      <trkpt lat="42.4165034852921962738037109375" lon="-8.66731711663305759429931640625">
        <ele>-0.800000011920928955078125</ele>
        <time>2022-11-01T10:01:31.000Z</time>
      </trkpt>
      <trkpt lat="42.4165809340775012969970703125" lon="-8.66725626401603221893310546875">
        <ele>-0.60000002384185791015625</ele>
        <time>2022-11-01T10:01:32.000Z</time>
      </trkpt>
      <trkpt lat="42.416657544672489166259765625" lon="-8.66719725541770458221435546875">
        <ele>-0.800000011920928955078125</ele>
        <time>2022-11-01T10:01:33.000Z</time>
      </trkpt>
      <trkpt lat="42.4167368374764919281005859375" lon="-8.66712994873523712158203125">
        <ele>-0.60000002384185791015625</ele>
        <time>2022-11-01T10:01:34.000Z</time>
      </trkpt>
      <trkpt lat="42.416816465556621551513671875" lon="-8.66706130094826221466064453125">
        <ele>-0.60000002384185791015625</ele>
        <time>2022-11-01T10:01:35.000Z</time>
      </trkpt>
      <trkpt lat="42.4168947525322437286376953125" lon="-8.66699206642806529998779296875">
        <ele>-0.60000002384185791015625</ele>
        <time>2022-11-01T10:01:36.000Z</time>
      </trkpt>
      <trkpt lat="42.4169594608247280120849609375" lon="-8.66693817079067230224609375">
        <ele>-1</ele>
        <time>2022-11-01T10:01:37.000Z</time>
      </trkpt>
      <trkpt lat="42.41705710999667644500732421875" lon="-8.6668588779866695404052734375">
        <ele>-1</ele>
        <time>2022-11-01T10:01:38.000Z</time>
      </trkpt>
      <trkpt lat="42.41713640280067920684814453125" lon="-8.6667921580374240875244140625">
        <ele>-1</ele>
        <time>2022-11-01T10:01:39.000Z</time>
      </trkpt>
      <trkpt lat="42.417216785252094268798828125" lon="-8.66672627627849578857421875">
        <ele>-1</ele>
        <time>2022-11-01T10:01:40.000Z</time>
      </trkpt>
      <trkpt lat="42.4172969162464141845703125" lon="-8.666665256023406982421875">
        <ele>-1</ele>
        <time>2022-11-01T10:01:41.000Z</time>
      </trkpt>
      <trkpt lat="42.417358271777629852294921875" lon="-8.6666129529476165771484375">
        <ele>-1.2000000476837158203125</ele>
        <time>2022-11-01T10:01:42.000Z</time>
      </trkpt>
      <trkpt lat="42.41742842830717563629150390625" lon="-8.66654044948518276214599609375">
        <ele>-1.2000000476837158203125</ele>
        <time>2022-11-01T10:01:43.000Z</time>
      </trkpt>
      <trkpt lat="42.4175143428146839141845703125" lon="-8.66645763628184795379638671875">
        <ele>-1.39999997615814208984375</ele>
        <time>2022-11-01T10:01:44.000Z</time>
      </trkpt>
      <trkpt lat="42.41759673692286014556884765625" lon="-8.6663894914090633392333984375">
        <ele>-1.39999997615814208984375</ele>
        <time>2022-11-01T10:01:45.000Z</time>
      </trkpt>
      <trkpt lat="42.4176752753555774688720703125" lon="-8.6663234420120716094970703125">
        <ele>-1.39999997615814208984375</ele>
        <time>2022-11-01T10:01:46.000Z</time>
      </trkpt>
      <trkpt lat="42.4177399836480617523193359375" lon="-8.66626770235598087310791015625">
        <ele>-1.39999997615814208984375</ele>
        <time>2022-11-01T10:01:47.000Z</time>
      </trkpt>
      <trkpt lat="42.41783746518194675445556640625" lon="-8.66618639789521694183349609375">
        <ele>-1.39999997615814208984375</ele>
        <time>2022-11-01T10:01:48.000Z</time>
      </trkpt>
      <trkpt lat="42.41791776381433010101318359375" lon="-8.666118420660495758056640625">
        <ele>-1.60000002384185791015625</ele>
        <time>2022-11-01T10:01:49.000Z</time>
      </trkpt>
      <trkpt lat="42.4179974757134914398193359375" lon="-8.66605144925415515899658203125">
        <ele>-1.7999999523162841796875</ele>
        <time>2022-11-01T10:01:50.000Z</time>
      </trkpt>
      <trkpt lat="42.41806142963469028472900390625" lon="-8.6659975536167621612548828125">
        <ele>-2</ele>
        <time>2022-11-01T10:01:51.000Z</time>
      </trkpt>
      <trkpt lat="42.41814172826707363128662109375" lon="-8.6659325100481510162353515625">
        <ele>-2.2000000476837158203125</ele>
        <time>2022-11-01T10:01:52.000Z</time>
      </trkpt>
      <trkpt lat="42.4182395450770854949951171875" lon="-8.66585229523479938507080078125">
        <ele>-2.2000000476837158203125</ele>
        <time>2022-11-01T10:01:53.000Z</time>
      </trkpt>
      <trkpt lat="42.41832428611814975738525390625" lon="-8.66578356362879276275634765625">
        <ele>-3</ele>
        <time>2022-11-01T10:01:54.000Z</time>
      </trkpt>
      <trkpt lat="42.41840793751180171966552734375" lon="-8.66571550257503986358642578125">
        <ele>-3.2000000476837158203125</ele>
        <time>2022-11-01T10:01:55.000Z</time>
      </trkpt>
      <trkpt lat="42.4184735678136348724365234375" lon="-8.66566068492829799652099609375">
        <ele>-3.400000095367431640625</ele>
        <time>2022-11-01T10:01:56.000Z</time>
      </trkpt>
      <trkpt lat="42.41855478845536708831787109375" lon="-8.66559036076068878173828125">
        <ele>-3.599999904632568359375</ele>
        <time>2022-11-01T10:01:57.000Z</time>
      </trkpt>
      <trkpt lat="42.41865252144634723663330078125" lon="-8.66550779901444911956787109375">
        <ele>-3.599999904632568359375</ele>
        <time>2022-11-01T10:01:58.000Z</time>
      </trkpt>
      <trkpt lat="42.41873449645936489105224609375" lon="-8.66544225253164768218994140625">
        <ele>-3.7999999523162841796875</ele>
        <time>2022-11-01T10:01:59.000Z</time>
      </trkpt>
      <trkpt lat="42.41881613619625568389892578125" lon="-8.66537620313465595245361328125">
        <ele>-4</ele>
        <time>2022-11-01T10:02:00.000Z</time>
      </trkpt>
      <trkpt lat="42.418881766498088836669921875" lon="-8.66532306186854839324951171875">
        <ele>-4.19999980926513671875</ele>
        <time>2022-11-01T10:02:01.000Z</time>
      </trkpt>
      <trkpt lat="42.4189625680446624755859375" lon="-8.6652565933763980865478515625">
        <ele>-4.19999980926513671875</ele>
        <time>2022-11-01T10:02:02.000Z</time>
      </trkpt>
      <trkpt lat="42.419043369591236114501953125" lon="-8.6651888675987720489501953125">
        <ele>-4.400000095367431640625</ele>
        <time>2022-11-01T10:02:03.000Z</time>
      </trkpt>
      <trkpt lat="42.419139929115772247314453125" lon="-8.66510831750929355621337890625">
        <ele>-4.400000095367431640625</ele>
        <time>2022-11-01T10:02:04.000Z</time>
      </trkpt>
      <trkpt lat="42.419202961027622222900390625" lon="-8.66505383513867855072021484375">
        <ele>-4.400000095367431640625</ele>
        <time>2022-11-01T10:02:05.000Z</time>
      </trkpt>
      <trkpt lat="42.41928149946033954620361328125" lon="-8.664985857903957366943359375">
        <ele>-4.599999904632568359375</ele>
        <time>2022-11-01T10:02:06.000Z</time>
      </trkpt>
      <trkpt lat="42.41935878060758113861083984375" lon="-8.6649159528315067291259765625">
        <ele>-4.599999904632568359375</ele>
        <time>2022-11-01T10:02:07.000Z</time>
      </trkpt>
      <trkpt lat="42.41943555884063243865966796875" lon="-8.66484294645488262176513671875">
        <ele>-4.599999904632568359375</ele>
        <time>2022-11-01T10:02:08.000Z</time>
      </trkpt>
      <trkpt lat="42.41952775977551937103271484375" lon="-8.66475661285221576690673828125">
        <ele>-4.80000019073486328125</ele>
        <time>2022-11-01T10:02:09.000Z</time>
      </trkpt>
      <trkpt lat="42.4196041189134120941162109375" lon="-8.66468687541782855987548828125">
        <ele>-4.80000019073486328125</ele>
        <time>2022-11-01T10:02:10.000Z</time>
      </trkpt>
      <trkpt lat="42.41966337896883487701416015625" lon="-8.664633817970752716064453125">
        <ele>-4.80000019073486328125</ele>
        <time>2022-11-01T10:02:11.000Z</time>
      </trkpt>
      <trkpt lat="42.41973848082125186920166015625" lon="-8.66456768475472927093505859375">
        <ele>-4.80000019073486328125</ele>
        <time>2022-11-01T10:02:12.000Z</time>
      </trkpt>
      <trkpt lat="42.41982758045196533203125" lon="-8.6644878052175045013427734375">
        <ele>-4.80000019073486328125</ele>
        <time>2022-11-01T10:02:13.000Z</time>
      </trkpt>
      <trkpt lat="42.41990276612341403961181640625" lon="-8.66442418657243251800537109375">
        <ele>-5</ele>
        <time>2022-11-01T10:02:14.000Z</time>
      </trkpt>
      <trkpt lat="42.41997954435646533966064453125" lon="-8.6643630824983119964599609375">
        <ele>-5</ele>
        <time>2022-11-01T10:02:15.000Z</time>
      </trkpt>
      <trkpt lat="42.42005757987499237060546875" lon="-8.6643023975193500518798828125">
        <ele>-5</ele>
        <time>2022-11-01T10:02:16.000Z</time>
      </trkpt>
      <trkpt lat="42.42011792957782745361328125" lon="-8.6642526090145111083984375">
        <ele>-5</ele>
        <time>2022-11-01T10:02:17.000Z</time>
      </trkpt>
      <trkpt lat="42.4202097952365875244140625" lon="-8.664178512990474700927734375">
        <ele>-5</ele>
        <time>2022-11-01T10:02:18.000Z</time>
      </trkpt>
      <trkpt lat="42.42028380744159221649169921875" lon="-8.66411824710667133331298828125">
        <ele>-5</ele>
        <time>2022-11-01T10:02:19.000Z</time>
      </trkpt>
      <trkpt lat="42.42035639472305774688720703125" lon="-8.66405613720417022705078125">
        <ele>-5</ele>
        <time>2022-11-01T10:02:20.000Z</time>
      </trkpt>
      <trkpt lat="42.42041565477848052978515625" lon="-8.664008192718029022216796875">
        <ele>-4.80000019073486328125</ele>
        <time>2022-11-01T10:02:21.000Z</time>
      </trkpt>
      <trkpt lat="42.4204879067838191986083984375" lon="-8.663948513567447662353515625">
        <ele>-4.80000019073486328125</ele>
        <time>2022-11-01T10:02:22.000Z</time>
      </trkpt>
      <trkpt lat="42.42056988179683685302734375" lon="-8.6638782732188701629638671875">
        <ele>-4.599999904632568359375</ele>
        <time>2022-11-01T10:02:23.000Z</time>
      </trkpt>
      <trkpt lat="42.4206344224512577056884765625" lon="-8.66381951607763767242431640625">
        <ele>-4.599999904632568359375</ele>
        <time>2022-11-01T10:02:24.000Z</time>
      </trkpt>
      <trkpt lat="42.42068463005125522613525390625" lon="-8.66377509199082851409912109375">
        <ele>-4.599999904632568359375</ele>
        <time>2022-11-01T10:02:25.000Z</time>
      </trkpt>
      <trkpt lat="42.4207457341253757476806640625" lon="-8.66371708922088146209716796875">
        <ele>-4.400000095367431640625</ele>
        <time>2022-11-01T10:02:26.000Z</time>
      </trkpt>
      <trkpt lat="42.4208161421120166778564453125" lon="-8.66364383138716220855712890625">
        <ele>-4.19999980926513671875</ele>
        <time>2022-11-01T10:02:27.000Z</time>
      </trkpt>
      <trkpt lat="42.42087154649198055267333984375" lon="-8.6635748483240604400634765625">
        <ele>-4</ele>
        <time>2022-11-01T10:02:28.000Z</time>
      </trkpt>
      <trkpt lat="42.42092234082520008087158203125" lon="-8.6635014228522777557373046875">
        <ele>-3.7999999523162841796875</ele>
        <time>2022-11-01T10:02:29.000Z</time>
      </trkpt>
      <trkpt lat="42.42095771245658397674560546875" lon="-8.66343596018850803375244140625">
        <ele>-3.599999904632568359375</ele>
        <time>2022-11-01T10:02:30.000Z</time>
      </trkpt>
      <trkpt lat="42.421009428799152374267578125" lon="-8.66333655081689357757568359375">
        <ele>-3.2000000476837158203125</ele>
        <time>2022-11-01T10:02:31.000Z</time>
      </trkpt>
      <trkpt lat="42.42105142213404178619384765625" lon="-8.66325281560420989990234375">
        <ele>-3</ele>
        <time>2022-11-01T10:02:32.000Z</time>
      </trkpt>
      <trkpt lat="42.4210868775844573974609375" lon="-8.663166649639606475830078125">
        <ele>-2.7999999523162841796875</ele>
        <time>2022-11-01T10:02:33.000Z</time>
      </trkpt>
      <trkpt lat="42.42111696861684322357177734375" lon="-8.6630779691040515899658203125">
        <ele>-2.599999904632568359375</ele>
        <time>2022-11-01T10:02:34.000Z</time>
      </trkpt>
      <trkpt lat="42.42113582789897918701171875" lon="-8.66300764493644237518310546875">
        <ele>-2.400000095367431640625</ele>
        <time>2022-11-01T10:02:35.000Z</time>
      </trkpt>
      <trkpt lat="42.42116005159914493560791015625" lon="-8.66291821002960205078125">
        <ele>-2</ele>
        <time>2022-11-01T10:02:36.000Z</time>
      </trkpt>
      <trkpt lat="42.42119022645056247711181640625" lon="-8.662808239459991455078125">
        <ele>-2</ele>
        <time>2022-11-01T10:02:37.000Z</time>
      </trkpt>
      <trkpt lat="42.42121419869363307952880859375" lon="-8.6627138592302799224853515625">
        <ele>-1.60000002384185791015625</ele>
        <time>2022-11-01T10:02:38.000Z</time>
      </trkpt>
      <trkpt lat="42.4212389253079891204833984375" lon="-8.66262224502861499786376953125">
        <ele>-1.39999997615814208984375</ele>
        <time>2022-11-01T10:02:39.000Z</time>
      </trkpt>
      <trkpt lat="42.42126063443720340728759765625" lon="-8.66255049593746662139892578125">
        <ele>-1.39999997615814208984375</ele>
        <time>2022-11-01T10:02:40.000Z</time>
      </trkpt>
      <trkpt lat="42.4212878756225109100341796875" lon="-8.66246265359222888946533203125">
        <ele>-1.2000000476837158203125</ele>
        <time>2022-11-01T10:02:41.000Z</time>
      </trkpt>
      <trkpt lat="42.42131863720715045928955078125" lon="-8.6623634956777095794677734375">
        <ele>-1.2000000476837158203125</ele>
        <time>2022-11-01T10:02:42.000Z</time>
      </trkpt>
      <trkpt lat="42.42133758030831813812255859375" lon="-8.66228445433080196380615234375">
        <ele>-1</ele>
        <time>2022-11-01T10:02:43.000Z</time>
      </trkpt>
      <trkpt lat="42.4213539250195026397705078125" lon="-8.662204407155513763427734375">
        <ele>-1</ele>
        <time>2022-11-01T10:02:44.000Z</time>
      </trkpt>
      <trkpt lat="42.4213686771690845489501953125" lon="-8.662140704691410064697265625">
        <ele>-0.800000011920928955078125</ele>
        <time>2022-11-01T10:02:45.000Z</time>
      </trkpt>
      <trkpt lat="42.421396672725677490234375" lon="-8.6620463244616985321044921875">
        <ele>-0.800000011920928955078125</ele>
        <time>2022-11-01T10:02:46.000Z</time>
      </trkpt>
      <trkpt lat="42.42141821421682834625244140625" lon="-8.6619635112583637237548828125">
        <ele>-0.60000002384185791015625</ele>
        <time>2022-11-01T10:02:47.000Z</time>
      </trkpt>
      <trkpt lat="42.4214340560138225555419921875" lon="-8.6618803627789020538330078125">
        <ele>-0.60000002384185791015625</ele>
        <time>2022-11-01T10:02:48.000Z</time>
      </trkpt>
      <trkpt lat="42.42145241238176822662353515625" lon="-8.66179763339459896087646484375">
        <ele>-0.4000000059604644775390625</ele>
        <time>2022-11-01T10:02:49.000Z</time>
      </trkpt>
      <trkpt lat="42.42147286422550678253173828125" lon="-8.66172823123633861541748046875">
        <ele>-0.20000000298023223876953125</ele>
        <time>2022-11-01T10:02:50.000Z</time>
      </trkpt>
      <trkpt lat="42.42150605656206607818603515625" lon="-8.6616211943328380584716796875">
        <ele>-0.20000000298023223876953125</ele>
        <time>2022-11-01T10:02:51.000Z</time>
      </trkpt>
      <trkpt lat="42.42153413593769073486328125" lon="-8.661526478826999664306640625">
        <ele>-0.20000000298023223876953125</ele>
        <time>2022-11-01T10:02:52.000Z</time>
      </trkpt>
      <trkpt lat="42.42156288586556911468505859375" lon="-8.66142765618860721588134765625">
        <ele>-0.20000000298023223876953125</ele>
        <time>2022-11-01T10:02:53.000Z</time>
      </trkpt>
      <trkpt lat="42.42157897911965847015380859375" lon="-8.66134517826139926910400390625">
        <ele>0</ele>
        <time>2022-11-01T10:02:54.000Z</time>
      </trkpt>
      <trkpt lat="42.42160161025822162628173828125" lon="-8.6612430028617382049560546875">
        <ele>0</ele>
        <time>2022-11-01T10:02:55.000Z</time>
      </trkpt>
      <trkpt lat="42.42161753587424755096435546875" lon="-8.6611149273812770843505859375">
        <ele>0</ele>
        <time>2022-11-01T10:02:56.000Z</time>
      </trkpt>
      <trkpt lat="42.4216241575777530670166015625" lon="-8.6610042862594127655029296875">
        <ele>0</ele>
        <time>2022-11-01T10:02:57.000Z</time>
      </trkpt>
      <trkpt lat="42.42162742651998996734619140625" lon="-8.66089171729981899261474609375">
        <ele>0.4000000059604644775390625</ele>
        <time>2022-11-01T10:02:58.000Z</time>
      </trkpt>
      <trkpt lat="42.4216261692345142364501953125" lon="-8.6607997678220272064208984375">
        <ele>0.60000002384185791015625</ele>
        <time>2022-11-01T10:02:59.000Z</time>
      </trkpt>
      <trkpt lat="42.421622984111309051513671875" lon="-8.66068652831017971038818359375">
        <ele>0.60000002384185791015625</ele>
        <time>2022-11-01T10:03:00.000Z</time>
      </trkpt>
      <trkpt lat="42.4216174520552158355712890625" lon="-8.66055292077362537384033203125">
        <ele>1</ele>
        <time>2022-11-01T10:03:01.000Z</time>
      </trkpt>
      <trkpt lat="42.4216124229133129119873046875" lon="-8.6604366637766361236572265625">
        <ele>1</ele>
        <time>2022-11-01T10:03:02.000Z</time>
      </trkpt>
      <trkpt lat="42.42160613648593425750732421875" lon="-8.660319484770298004150390625">
        <ele>1.2000000476837158203125</ele>
        <time>2022-11-01T10:03:03.000Z</time>
      </trkpt>
      <trkpt lat="42.421600855886936187744140625" lon="-8.66022502072155475616455078125">
        <ele>1.2000000476837158203125</ele>
        <time>2022-11-01T10:03:04.000Z</time>
      </trkpt>
      <trkpt lat="42.4215924739837646484375" lon="-8.6601064167916774749755859375">
        <ele>1.2000000476837158203125</ele>
        <time>2022-11-01T10:03:05.000Z</time>
      </trkpt>
      <trkpt lat="42.42158132605254650115966796875" lon="-8.65996442735195159912109375">
        <ele>1.2000000476837158203125</ele>
        <time>2022-11-01T10:03:06.000Z</time>
      </trkpt>
      <trkpt lat="42.4215718545019626617431640625" lon="-8.65984464995563030242919921875">
        <ele>1.2000000476837158203125</ele>
        <time>2022-11-01T10:03:07.000Z</time>
      </trkpt>
      <trkpt lat="42.42156221531331539154052734375" lon="-8.659723699092864990234375">
        <ele>1.2000000476837158203125</ele>
        <time>2022-11-01T10:03:08.000Z</time>
      </trkpt>
      <trkpt lat="42.421555258333683013916015625" lon="-8.65959964692592620849609375">
        <ele>1.2000000476837158203125</ele>
        <time>2022-11-01T10:03:09.000Z</time>
      </trkpt>
      <trkpt lat="42.42154981009662151336669921875" lon="-8.65949830971658229827880859375">
        <ele>1</ele>
        <time>2022-11-01T10:03:10.000Z</time>
      </trkpt>
      <trkpt lat="42.4215423502027988433837890625" lon="-8.65937140770256519317626953125">
        <ele>1</ele>
        <time>2022-11-01T10:03:11.000Z</time>
      </trkpt>
      <trkpt lat="42.42153145372867584228515625" lon="-8.6592206172645092010498046875">
        <ele>1</ele>
        <time>2022-11-01T10:03:12.000Z</time>
      </trkpt>
      <trkpt lat="42.4215215630829334259033203125" lon="-8.659094385802745819091796875">
        <ele>0.800000011920928955078125</ele>
        <time>2022-11-01T10:03:13.000Z</time>
      </trkpt>
      <trkpt lat="42.42151242680847644805908203125" lon="-8.65899288095533847808837890625">
        <ele>0.800000011920928955078125</ele>
        <time>2022-11-01T10:03:14.000Z</time>
      </trkpt>
      <trkpt lat="42.42149918340146541595458984375" lon="-8.65886597894132137298583984375">
        <ele>0.800000011920928955078125</ele>
        <time>2022-11-01T10:03:15.000Z</time>
      </trkpt>
      <trkpt lat="42.42148241959512233734130859375" lon="-8.658711500465869903564453125">
        <ele>0.60000002384185791015625</ele>
        <time>2022-11-01T10:03:16.000Z</time>
      </trkpt>
      <trkpt lat="42.4214635603129863739013671875" lon="-8.65858233533799648284912109375">
        <ele>0.60000002384185791015625</ele>
        <time>2022-11-01T10:03:17.000Z</time>
      </trkpt>
      <trkpt lat="42.42144034244120121002197265625" lon="-8.65848024375736713409423828125">
        <ele>0.20000000298023223876953125</ele>
        <time>2022-11-01T10:03:18.000Z</time>
      </trkpt>
      <trkpt lat="42.42140362970530986785888671875" lon="-8.658354766666889190673828125">
        <ele>0.20000000298023223876953125</ele>
        <time>2022-11-01T10:03:19.000Z</time>
      </trkpt>
      <trkpt lat="42.42135350592434406280517578125" lon="-8.65820799954235553741455078125">
        <ele>0</ele>
        <time>2022-11-01T10:03:20.000Z</time>
      </trkpt>
      <trkpt lat="42.42131553590297698974609375" lon="-8.6581132002174854278564453125">
        <ele>-0.4000000059604644775390625</ele>
        <time>2022-11-01T10:03:21.000Z</time>
      </trkpt>
      <trkpt lat="42.42125610820949077606201171875" lon="-8.65797364152967929840087890625">
        <ele>-0.4000000059604644775390625</ele>
        <time>2022-11-01T10:03:22.000Z</time>
      </trkpt>
      <trkpt lat="42.4212151207029819488525390625" lon="-8.65787766873836517333984375">
        <ele>-0.800000011920928955078125</ele>
        <time>2022-11-01T10:03:23.000Z</time>
      </trkpt>
      <trkpt lat="42.421170361340045928955078125" lon="-8.65775235928595066070556640625">
        <ele>-1</ele>
        <time>2022-11-01T10:03:24.000Z</time>
      </trkpt>
      <trkpt lat="42.4211299605667591094970703125" lon="-8.65759377367794513702392578125">
        <ele>-1.2000000476837158203125</ele>
        <time>2022-11-01T10:03:25.000Z</time>
      </trkpt>
      <trkpt lat="42.42110900580883026123046875" lon="-8.657458908855915069580078125">
        <ele>-1.39999997615814208984375</ele>
        <time>2022-11-01T10:03:26.000Z</time>
      </trkpt>
      <trkpt lat="42.42109484039247035980224609375" lon="-8.657324127852916717529296875">
        <ele>-1.60000002384185791015625</ele>
        <time>2022-11-01T10:03:27.000Z</time>
      </trkpt>
      <trkpt lat="42.421088553965091705322265625" lon="-8.657212816178798675537109375">
        <ele>-1.60000002384185791015625</ele>
        <time>2022-11-01T10:03:28.000Z</time>
      </trkpt>
      <trkpt lat="42.4210903979837894439697265625" lon="-8.65707166492938995361328125">
        <ele>-2.2000000476837158203125</ele>
        <time>2022-11-01T10:03:29.000Z</time>
      </trkpt>
      <trkpt lat="42.42110724560916423797607421875" lon="-8.65690394304692745208740234375">
        <ele>-2.7999999523162841796875</ele>
        <time>2022-11-01T10:03:30.000Z</time>
      </trkpt>
      <trkpt lat="42.4211373366415500640869140625" lon="-8.65677201189100742340087890625">
        <ele>-3</ele>
        <time>2022-11-01T10:03:31.000Z</time>
      </trkpt>
      <trkpt lat="42.4211802519857883453369140625" lon="-8.65664510987699031829833984375">
        <ele>-3.2000000476837158203125</ele>
        <time>2022-11-01T10:03:32.000Z</time>
      </trkpt>
      <trkpt lat="42.4212335608899593353271484375" lon="-8.65652357228100299835205078125">
        <ele>-3.400000095367431640625</ele>
        <time>2022-11-01T10:03:33.000Z</time>
      </trkpt>
      <trkpt lat="42.4212811700999736785888671875" lon="-8.65643086843192577362060546875">
        <ele>-3.7999999523162841796875</ele>
        <time>2022-11-01T10:03:34.000Z</time>
      </trkpt>
      <trkpt lat="42.4213545955717563629150390625" lon="-8.6562971770763397216796875">
        <ele>-4</ele>
        <time>2022-11-01T10:03:35.000Z</time>
      </trkpt>
      <trkpt lat="42.42141586728394031524658203125" lon="-8.6561850272119045257568359375">
        <ele>-4.400000095367431640625</ele>
        <time>2022-11-01T10:03:36.000Z</time>
      </trkpt>
      <trkpt lat="42.4214652366936206817626953125" lon="-8.656096346676349639892578125">
        <ele>-4.599999904632568359375</ele>
        <time>2022-11-01T10:03:37.000Z</time>
      </trkpt>
      <trkpt lat="42.42152852006256580352783203125" lon="-8.65598998032510280609130859375">
        <ele>-5</ele>
        <time>2022-11-01T10:03:38.000Z</time>
      </trkpt>
      <trkpt lat="42.421608231961727142333984375" lon="-8.65586475469172000885009765625">
        <ele>-5.19999980926513671875</ele>
        <time>2022-11-01T10:03:39.000Z</time>
      </trkpt>
      <trkpt lat="42.42167805321514606475830078125" lon="-8.65576970390975475311279296875">
        <ele>-5.400000095367431640625</ele>
        <time>2022-11-01T10:03:40.000Z</time>
      </trkpt>
      <trkpt lat="42.421751059591770172119140625" lon="-8.6556775867938995361328125">
        <ele>-5.599999904632568359375</ele>
        <time>2022-11-01T10:03:41.000Z</time>
      </trkpt>
      <trkpt lat="42.42182691581547260284423828125" lon="-8.6555905826389789581298828125">
        <ele>-5.599999904632568359375</ele>
        <time>2022-11-01T10:03:42.000Z</time>
      </trkpt>
      <trkpt lat="42.4218888580799102783203125" lon="-8.65552931092679500579833984375">
        <ele>-5.599999904632568359375</ele>
        <time>2022-11-01T10:03:43.000Z</time>
      </trkpt>
      <trkpt lat="42.42198432795703411102294921875" lon="-8.65544398315250873565673828125">
        <ele>-5.599999904632568359375</ele>
        <time>2022-11-01T10:03:44.000Z</time>
      </trkpt>
      <trkpt lat="42.42206797935068607330322265625" lon="-8.65538212470710277557373046875">
        <ele>-5.599999904632568359375</ele>
        <time>2022-11-01T10:03:45.000Z</time>
      </trkpt>
      <trkpt lat="42.42215230129659175872802734375" lon="-8.65533216856420040130615234375">
        <ele>-5.19999980926513671875</ele>
        <time>2022-11-01T10:03:46.000Z</time>
      </trkpt>
      <trkpt lat="42.42223477922379970550537109375" lon="-8.6552891694009304046630859375">
        <ele>-5.19999980926513671875</ele>
        <time>2022-11-01T10:03:47.000Z</time>
      </trkpt>
      <trkpt lat="42.42231641896069049835205078125" lon="-8.65524776279926300048828125">
        <ele>-5</ele>
        <time>2022-11-01T10:03:48.000Z</time>
      </trkpt>
      <trkpt lat="42.42239646613597869873046875" lon="-8.65520996041595935821533203125">
        <ele>-4.80000019073486328125</ele>
        <time>2022-11-01T10:03:49.000Z</time>
      </trkpt>
      <trkpt lat="42.42247919552028179168701171875" lon="-8.65518749691545963287353515625">
        <ele>-4.80000019073486328125</ele>
        <time>2022-11-01T10:03:50.000Z</time>
      </trkpt>
      <trkpt lat="42.42256167344748973846435546875" lon="-8.6551704816520214080810546875">
        <ele>-4.599999904632568359375</ele>
        <time>2022-11-01T10:03:51.000Z</time>
      </trkpt>
      <trkpt lat="42.42262713611125946044921875" lon="-8.6551597528159618377685546875">
        <ele>-4.400000095367431640625</ele>
        <time>2022-11-01T10:03:52.000Z</time>
      </trkpt>
      <trkpt lat="42.4227228574454784393310546875" lon="-8.655137456953525543212890625">
        <ele>-4.19999980926513671875</ele>
        <time>2022-11-01T10:03:53.000Z</time>
      </trkpt>
      <trkpt lat="42.42280022241175174713134765625" lon="-8.6551074497401714324951171875">
        <ele>-4.19999980926513671875</ele>
        <time>2022-11-01T10:03:54.000Z</time>
      </trkpt>
      <trkpt lat="42.42287465371191501617431640625" lon="-8.65506537258625030517578125">
        <ele>-4</ele>
        <time>2022-11-01T10:03:55.000Z</time>
      </trkpt>
      <trkpt lat="42.422929890453815460205078125" lon="-8.65501969121396541595458984375">
        <ele>-4</ele>
        <time>2022-11-01T10:03:56.000Z</time>
      </trkpt>
      <trkpt lat="42.4229907430708408355712890625" lon="-8.6549560725688934326171875">
        <ele>-3.7999999523162841796875</ele>
        <time>2022-11-01T10:03:57.000Z</time>
      </trkpt>
      <trkpt lat="42.42306475527584552764892578125" lon="-8.65487091243267059326171875">
        <ele>-3.599999904632568359375</ele>
        <time>2022-11-01T10:03:58.000Z</time>
      </trkpt>
      <trkpt lat="42.4231226742267608642578125" lon="-8.65479354746639728546142578125">
        <ele>-3.599999904632568359375</ele>
        <time>2022-11-01T10:03:59.000Z</time>
      </trkpt>
      <trkpt lat="42.42318009026348590850830078125" lon="-8.65471157245337963104248046875">
        <ele>-3.599999904632568359375</ele>
        <time>2022-11-01T10:04:00.000Z</time>
      </trkpt>
      <trkpt lat="42.42322753183543682098388671875" lon="-8.65464719943702220916748046875">
        <ele>-3.400000095367431640625</ele>
        <time>2022-11-01T10:04:01.000Z</time>
      </trkpt>
      <trkpt lat="42.42328553460538387298583984375" lon="-8.65456606261432170867919921875">
        <ele>-3.400000095367431640625</ele>
        <time>2022-11-01T10:04:02.000Z</time>
      </trkpt>
      <trkpt lat="42.4233541823923587799072265625" lon="-8.654468916356563568115234375">
        <ele>-3.400000095367431640625</ele>
        <time>2022-11-01T10:04:03.000Z</time>
      </trkpt>
      <trkpt lat="42.42341226898133754730224609375" lon="-8.65439138375222682952880859375">
        <ele>-3.2000000476837158203125</ele>
        <time>2022-11-01T10:04:04.000Z</time>
      </trkpt>
      <trkpt lat="42.4234708584845066070556640625" lon="-8.6543148569762706756591796875">
        <ele>-3</ele>
        <time>2022-11-01T10:04:05.000Z</time>
      </trkpt>
      <trkpt lat="42.42352995090186595916748046875" lon="-8.65423791110515594482421875">
        <ele>-3</ele>
        <time>2022-11-01T10:04:06.000Z</time>
      </trkpt>
      <trkpt lat="42.423585690557956695556640625" lon="-8.6541606299579143524169921875">
        <ele>-2.7999999523162841796875</ele>
        <time>2022-11-01T10:04:07.000Z</time>
      </trkpt>
      <trkpt lat="42.4236398376524448394775390625" lon="-8.65408075042068958282470703125">
        <ele>-2.599999904632568359375</ele>
        <time>2022-11-01T10:04:08.000Z</time>
      </trkpt>
      <trkpt lat="42.42369473911821842193603515625" lon="-8.654000870883464813232421875">
        <ele>-2.599999904632568359375</ele>
        <time>2022-11-01T10:04:09.000Z</time>
      </trkpt>
      <trkpt lat="42.42374897003173828125" lon="-8.6539232544600963592529296875">
        <ele>-2.400000095367431640625</ele>
        <time>2022-11-01T10:04:10.000Z</time>
      </trkpt>
      <trkpt lat="42.42379213683307170867919921875" lon="-8.653860725462436676025390625">
        <ele>-2.2000000476837158203125</ele>
        <time>2022-11-01T10:04:11.000Z</time>
      </trkpt>
      <trkpt lat="42.42384460754692554473876953125" lon="-8.653780259191989898681640625">
        <ele>-2.2000000476837158203125</ele>
        <time>2022-11-01T10:04:12.000Z</time>
      </trkpt>
      <trkpt lat="42.42390654981136322021484375" lon="-8.6536815203726291656494140625">
        <ele>-2.2000000476837158203125</ele>
        <time>2022-11-01T10:04:13.000Z</time>
      </trkpt>
      <trkpt lat="42.4239622056484222412109375" lon="-8.65360029973089694976806640625">
        <ele>-2</ele>
        <time>2022-11-01T10:04:14.000Z</time>
      </trkpt>
      <trkpt lat="42.42402330972254276275634765625" lon="-8.6535135470330715179443359375">
        <ele>-2</ele>
        <time>2022-11-01T10:04:15.000Z</time>
      </trkpt>
      <trkpt lat="42.42407376877963542938232421875" lon="-8.65344397723674774169921875">
        <ele>-2</ele>
        <time>2022-11-01T10:04:16.000Z</time>
      </trkpt>
      <trkpt lat="42.42413629777729511260986328125" lon="-8.65335219539701938629150390625">
        <ele>-2</ele>
        <time>2022-11-01T10:04:17.000Z</time>
      </trkpt>
      <trkpt lat="42.42421156726777553558349609375" lon="-8.65324147045612335205078125">
        <ele>-2</ele>
        <time>2022-11-01T10:04:18.000Z</time>
      </trkpt>
      <trkpt lat="42.42427661083638668060302734375" lon="-8.6531497724354267120361328125">
        <ele>-2</ele>
        <time>2022-11-01T10:04:19.000Z</time>
      </trkpt>
      <trkpt lat="42.42433042265474796295166015625" lon="-8.65307651460170745849609375">
        <ele>-2</ele>
        <time>2022-11-01T10:04:20.000Z</time>
      </trkpt>
      <trkpt lat="42.42439898662269115447998046875" lon="-8.6529851518571376800537109375">
        <ele>-2</ele>
        <time>2022-11-01T10:04:21.000Z</time>
      </trkpt>
      <trkpt lat="42.42448297329246997833251953125" lon="-8.65287492983043193817138671875">
        <ele>-2.400000095367431640625</ele>
        <time>2022-11-01T10:04:22.000Z</time>
      </trkpt>
      <trkpt lat="42.42455388419330120086669921875" lon="-8.6527776159346103668212890625">
        <ele>-2.599999904632568359375</ele>
        <time>2022-11-01T10:04:23.000Z</time>
      </trkpt>
      <trkpt lat="42.42461641319096088409423828125" lon="-8.6526793800294399261474609375">
        <ele>-2.7999999523162841796875</ele>
        <time>2022-11-01T10:04:24.000Z</time>
      </trkpt>
      <trkpt lat="42.424676679074764251708984375" lon="-8.65257770754396915435791015625">
        <ele>-3</ele>
        <time>2022-11-01T10:04:25.000Z</time>
      </trkpt>
      <trkpt lat="42.4247388727962970733642578125" lon="-8.6524751968681812286376953125">
        <ele>-3.2000000476837158203125</ele>
        <time>2022-11-01T10:04:26.000Z</time>
      </trkpt>
      <trkpt lat="42.424802072346210479736328125" lon="-8.65237553603947162628173828125">
        <ele>-3.400000095367431640625</ele>
        <time>2022-11-01T10:04:27.000Z</time>
      </trkpt>
      <trkpt lat="42.42487289942800998687744140625" lon="-8.652276210486888885498046875">
        <ele>-3.400000095367431640625</ele>
        <time>2022-11-01T10:04:28.000Z</time>
      </trkpt>
      <trkpt lat="42.42494381032884120941162109375" lon="-8.65217487327754497528076171875">
        <ele>-4.19999980926513671875</ele>
        <time>2022-11-01T10:04:29.000Z</time>
      </trkpt>
      <trkpt lat="42.4250154756009578704833984375" lon="-8.65207605063915252685546875">
        <ele>-4.400000095367431640625</ele>
        <time>2022-11-01T10:04:30.000Z</time>
      </trkpt>
      <trkpt lat="42.42508596740663051605224609375" lon="-8.65197907201945781707763671875">
        <ele>-4.599999904632568359375</ele>
        <time>2022-11-01T10:04:31.000Z</time>
      </trkpt>
      <trkpt lat="42.425154112279415130615234375" lon="-8.65188368596136569976806640625">
        <ele>-4.599999904632568359375</ele>
        <time>2022-11-01T10:04:32.000Z</time>
      </trkpt>
      <trkpt lat="42.42522192187607288360595703125" lon="-8.65178997628390789031982421875">
        <ele>-4.599999904632568359375</ele>
        <time>2022-11-01T10:04:33.000Z</time>
      </trkpt>
      <trkpt lat="42.4252883903682231903076171875" lon="-8.651698194444179534912109375">
        <ele>-4.80000019073486328125</ele>
        <time>2022-11-01T10:04:34.000Z</time>
      </trkpt>
      <trkpt lat="42.4253537692129611968994140625" lon="-8.6516078375279903411865234375">
        <ele>-4.80000019073486328125</ele>
        <time>2022-11-01T10:04:35.000Z</time>
      </trkpt>
      <trkpt lat="42.42541822604835033416748046875" lon="-8.65152007900178432464599609375">
        <ele>-4.80000019073486328125</ele>
        <time>2022-11-01T10:04:36.000Z</time>
      </trkpt>
      <trkpt lat="42.42548142559826374053955078125" lon="-8.65143491886556148529052734375">
        <ele>-4.80000019073486328125</ele>
        <time>2022-11-01T10:04:37.000Z</time>
      </trkpt>
      <trkpt lat="42.42554361931979656219482421875" lon="-8.65135361440479755401611328125">
        <ele>-4.599999904632568359375</ele>
        <time>2022-11-01T10:04:38.000Z</time>
      </trkpt>
      <trkpt lat="42.42560111917555332183837890625" lon="-8.65127616561949253082275390625">
        <ele>-4.599999904632568359375</ele>
        <time>2022-11-01T10:04:39.000Z</time>
      </trkpt>
      <trkpt lat="42.4256468005478382110595703125" lon="-8.65121648646891117095947265625">
        <ele>-4.400000095367431640625</ele>
        <time>2022-11-01T10:04:40.000Z</time>
      </trkpt>
      <trkpt lat="42.4257031269371509552001953125" lon="-8.651144318282604217529296875">
        <ele>-4.400000095367431640625</ele>
        <time>2022-11-01T10:04:41.000Z</time>
      </trkpt>
      <trkpt lat="42.42576406337320804595947265625" lon="-8.65106276236474514007568359375">
        <ele>-4.19999980926513671875</ele>
        <time>2022-11-01T10:04:42.000Z</time>
      </trkpt>
      <trkpt lat="42.4258107505738735198974609375" lon="-8.650999478995800018310546875">
        <ele>-4.19999980926513671875</ele>
        <time>2022-11-01T10:04:43.000Z</time>
      </trkpt>
      <trkpt lat="42.42585643194615840911865234375" lon="-8.65093820728361606597900390625">
        <ele>-4</ele>
        <time>2022-11-01T10:04:44.000Z</time>
      </trkpt>
      <trkpt lat="42.425902448594570159912109375" lon="-8.650878779590129852294921875">
        <ele>-3.7999999523162841796875</ele>
        <time>2022-11-01T10:04:45.000Z</time>
      </trkpt>
      <trkpt lat="42.425946705043315887451171875" lon="-8.6508199386298656463623046875">
        <ele>-3.599999904632568359375</ele>
        <time>2022-11-01T10:04:46.000Z</time>
      </trkpt>
      <trkpt lat="42.42598752491176128387451171875" lon="-8.65076017566025257110595703125">
        <ele>-3.2000000476837158203125</ele>
        <time>2022-11-01T10:04:47.000Z</time>
      </trkpt>
      <trkpt lat="42.426029182970523834228515625" lon="-8.6507039330899715423583984375">
        <ele>-3.2000000476837158203125</ele>
        <time>2022-11-01T10:04:48.000Z</time>
      </trkpt>
      <trkpt lat="42.4260677397251129150390625" lon="-8.65065573714673519134521484375">
        <ele>-3</ele>
        <time>2022-11-01T10:04:49.000Z</time>
      </trkpt>
      <trkpt lat="42.42609984241425991058349609375" lon="-8.65061416290700435638427734375">
        <ele>-2.7999999523162841796875</ele>
        <time>2022-11-01T10:04:50.000Z</time>
      </trkpt>
      <trkpt lat="42.42612616159021854400634765625" lon="-8.650572001934051513671875">
        <ele>-2.400000095367431640625</ele>
        <time>2022-11-01T10:04:51.000Z</time>
      </trkpt>
      <trkpt lat="42.42614996619522571563720703125" lon="-8.6505285836756229400634765625">
        <ele>-2.400000095367431640625</ele>
        <time>2022-11-01T10:04:52.000Z</time>
      </trkpt>
      <trkpt lat="42.42616924457252025604248046875" lon="-8.65048089064657688140869140625">
        <ele>-2.2000000476837158203125</ele>
        <time>2022-11-01T10:04:53.000Z</time>
      </trkpt>
      <trkpt lat="42.426184751093387603759765625" lon="-8.65042741410434246063232421875">
        <ele>-2</ele>
        <time>2022-11-01T10:04:54.000Z</time>
      </trkpt>
      <trkpt lat="42.42620277218520641326904296875" lon="-8.6503753624856472015380859375">
        <ele>-1.7999999523162841796875</ele>
        <time>2022-11-01T10:04:55.000Z</time>
      </trkpt>
      <trkpt lat="42.4262291751801967620849609375" lon="-8.6503327824175357818603515625">
        <ele>-1.60000002384185791015625</ele>
        <time>2022-11-01T10:04:56.000Z</time>
      </trkpt>
      <trkpt lat="42.42626077495515346527099609375" lon="-8.65030822344124317169189453125">
        <ele>-1.39999997615814208984375</ele>
        <time>2022-11-01T10:04:57.000Z</time>
      </trkpt>
      <trkpt lat="42.4262895248830318450927734375" lon="-8.65030470304191112518310546875">
        <ele>-1.2000000476837158203125</ele>
        <time>2022-11-01T10:04:58.000Z</time>
      </trkpt>
      <trkpt lat="42.4263203702867031097412109375" lon="-8.650322221219539642333984375">
        <ele>-1.2000000476837158203125</ele>
        <time>2022-11-01T10:04:59.000Z</time>
      </trkpt>
      <trkpt lat="42.42634467780590057373046875" lon="-8.65035482682287693023681640625">
        <ele>-1.2000000476837158203125</ele>
        <time>2022-11-01T10:05:00.000Z</time>
      </trkpt>
      <trkpt lat="42.42635582573711872100830078125" lon="-8.65040863864123821258544921875">
        <ele>-1</ele>
        <time>2022-11-01T10:05:01.000Z</time>
      </trkpt>
      <trkpt lat="42.42636169306933879852294921875" lon="-8.65046882070600986480712890625">
        <ele>-1</ele>
        <time>2022-11-01T10:05:02.000Z</time>
      </trkpt>
      <trkpt lat="42.4263679794967174530029296875" lon="-8.65053202025592327117919921875">
        <ele>-1</ele>
        <time>2022-11-01T10:05:03.000Z</time>
      </trkpt>
      <trkpt lat="42.42637728340923786163330078125" lon="-8.65059890784323215484619140625">
        <ele>-0.800000011920928955078125</ele>
        <time>2022-11-01T10:05:04.000Z</time>
      </trkpt>
      <trkpt lat="42.42639295756816864013671875" lon="-8.650658167898654937744140625">
        <ele>-1</ele>
        <time>2022-11-01T10:05:05.000Z</time>
      </trkpt>
      <trkpt lat="42.42640980519354343414306640625" lon="-8.65071441046893596649169921875">
        <ele>-1</ele>
        <time>2022-11-01T10:05:06.000Z</time>
      </trkpt>
      <trkpt lat="42.4264283291995525360107421875" lon="-8.6507770232856273651123046875">
        <ele>-1</ele>
        <time>2022-11-01T10:05:07.000Z</time>
      </trkpt>
      <trkpt lat="42.42645372636616230010986328125" lon="-8.65084432996809482574462890625">
        <ele>-1</ele>
        <time>2022-11-01T10:05:08.000Z</time>
      </trkpt>
      <trkpt lat="42.42648842744529247283935546875" lon="-8.65091842599213123321533203125">
        <ele>-1.2000000476837158203125</ele>
        <time>2022-11-01T10:05:09.000Z</time>
      </trkpt>
      <trkpt lat="42.4265263974666595458984375" lon="-8.651002161204814910888671875">
        <ele>-1.39999997615814208984375</ele>
        <time>2022-11-01T10:05:10.000Z</time>
      </trkpt>
      <trkpt lat="42.426559925079345703125" lon="-8.65108002908527851104736328125">
        <ele>-1.60000002384185791015625</ele>
        <time>2022-11-01T10:05:11.000Z</time>
      </trkpt>
      <trkpt lat="42.42659588344395160675048828125" lon="-8.65115739405155181884765625">
        <ele>-2</ele>
        <time>2022-11-01T10:05:12.000Z</time>
      </trkpt>
      <trkpt lat="42.426629997789859771728515625" lon="-8.65124146454036235809326171875">
        <ele>-2.599999904632568359375</ele>
        <time>2022-11-01T10:05:13.000Z</time>
      </trkpt>
      <trkpt lat="42.426659502089023590087890625" lon="-8.65132461301982402801513671875">
        <ele>-3</ele>
        <time>2022-11-01T10:05:14.000Z</time>
      </trkpt>
      <trkpt lat="42.4266921915113925933837890625" lon="-8.651412539184093475341796875">
        <ele>-3.400000095367431640625</ele>
        <time>2022-11-01T10:05:15.000Z</time>
      </trkpt>
      <trkpt lat="42.42672747932374477386474609375" lon="-8.65150608122348785400390625">
        <ele>-3.7999999523162841796875</ele>
        <time>2022-11-01T10:05:16.000Z</time>
      </trkpt>
      <trkpt lat="42.426757402718067169189453125" lon="-8.6516038142144680023193359375">
        <ele>-4.19999980926513671875</ele>
        <time>2022-11-01T10:05:17.000Z</time>
      </trkpt>
      <trkpt lat="42.42679319344460964202880859375" lon="-8.65169643424451351165771484375">
        <ele>-4.80000019073486328125</ele>
        <time>2022-11-01T10:05:18.000Z</time>
      </trkpt>
      <trkpt lat="42.42683208547532558441162109375" lon="-8.65179282613098621368408203125">
        <ele>-4.80000019073486328125</ele>
        <time>2022-11-01T10:05:19.000Z</time>
      </trkpt>
      <trkpt lat="42.42686997167766094207763671875" lon="-8.651891984045505523681640625">
        <ele>-5.400000095367431640625</ele>
        <time>2022-11-01T10:05:20.000Z</time>
      </trkpt>
      <trkpt lat="42.42690551094710826873779296875" lon="-8.6519783176481723785400390625">
        <ele>-5.599999904632568359375</ele>
        <time>2022-11-01T10:05:21.000Z</time>
      </trkpt>
      <trkpt lat="42.4269419722259044647216796875" lon="-8.65204646252095699310302734375">
        <ele>-5.599999904632568359375</ele>
        <time>2022-11-01T10:05:22.000Z</time>
      </trkpt>
      <trkpt lat="42.42697726003825664520263671875" lon="-8.65208937786519527435302734375">
        <ele>-5.80000019073486328125</ele>
        <time>2022-11-01T10:05:23.000Z</time>
      </trkpt>
      <trkpt lat="42.427035011351108551025390625" lon="-8.65211938507854938507080078125">
        <ele>-6</ele>
        <time>2022-11-01T10:05:24.000Z</time>
      </trkpt>
      <trkpt lat="42.42708572186529636383056640625" lon="-8.6521156132221221923828125">
        <ele>-6</ele>
        <time>2022-11-01T10:05:25.000Z</time>
      </trkpt>
      <trkpt lat="42.42713936604559421539306640625" lon="-8.65206976421177387237548828125">
        <ele>-6.19999980926513671875</ele>
        <time>2022-11-01T10:05:26.000Z</time>
      </trkpt>
      <trkpt lat="42.4271800182759761810302734375" lon="-8.65202642977237701416015625">
        <ele>-6.400000095367431640625</ele>
        <time>2022-11-01T10:05:27.000Z</time>
      </trkpt>
      <trkpt lat="42.42723206989467144012451171875" lon="-8.6519815027713775634765625">
        <ele>-6.400000095367431640625</ele>
        <time>2022-11-01T10:05:28.000Z</time>
      </trkpt>
      <trkpt lat="42.42730046622455120086669921875" lon="-8.65193883888423442840576171875">
        <ele>-6.599999904632568359375</ele>
        <time>2022-11-01T10:05:29.000Z</time>
      </trkpt>
      <trkpt lat="42.4273486621677875518798828125" lon="-8.651900701224803924560546875">
        <ele>-6.599999904632568359375</ele>
        <time>2022-11-01T10:05:30.000Z</time>
      </trkpt>
      <trkpt lat="42.42740658111870288848876953125" lon="-8.65186440758407115936279296875">
        <ele>-6.599999904632568359375</ele>
        <time>2022-11-01T10:05:31.000Z</time>
      </trkpt>
      <trkpt lat="42.42744597606360912322998046875" lon="-8.6518301256000995635986328125">
        <ele>-6.599999904632568359375</ele>
        <time>2022-11-01T10:05:32.000Z</time>
      </trkpt>
      <trkpt lat="42.4274945072829723358154296875" lon="-8.651787377893924713134765625">
        <ele>-6.80000019073486328125</ele>
        <time>2022-11-01T10:05:33.000Z</time>
      </trkpt>
      <trkpt lat="42.42755762301385402679443359375" lon="-8.65174286998808383941650390625">
        <ele>-6.80000019073486328125</ele>
        <time>2022-11-01T10:05:34.000Z</time>
      </trkpt>
      <trkpt lat="42.42760271765291690826416015625" lon="-8.65170783363282680511474609375">
        <ele>-6.80000019073486328125</ele>
        <time>2022-11-01T10:05:35.000Z</time>
      </trkpt>
      <trkpt lat="42.42764194495975971221923828125" lon="-8.651667349040508270263671875">
        <ele>-6.80000019073486328125</ele>
        <time>2022-11-01T10:05:36.000Z</time>
      </trkpt>
      <trkpt lat="42.4276688508689403533935546875" lon="-8.65163373760879039764404296875">
        <ele>-6.80000019073486328125</ele>
        <time>2022-11-01T10:05:37.000Z</time>
      </trkpt>
      <trkpt lat="42.42770262993872165679931640625" lon="-8.65158277563750743865966796875">
        <ele>-7</ele>
        <time>2022-11-01T10:05:38.000Z</time>
      </trkpt>
      <trkpt lat="42.42773272097110748291015625" lon="-8.65154229104518890380859375">
        <ele>-7</ele>
        <time>2022-11-01T10:05:39.000Z</time>
      </trkpt>
      <trkpt lat="42.42780053056776523590087890625" lon="-8.6515394411981105804443359375">
        <ele>-7</ele>
        <time>2022-11-01T10:05:40.000Z</time>
      </trkpt>
      <trkpt lat="42.42787814699113368988037109375" lon="-8.65155343897640705108642578125">
        <ele>-7</ele>
        <time>2022-11-01T10:05:41.000Z</time>
      </trkpt>
      <trkpt lat="42.4279524944722652435302734375" lon="-8.651572130620479583740234375">
        <ele>-7</ele>
        <time>2022-11-01T10:05:42.000Z</time>
      </trkpt>
      <trkpt lat="42.4280282668769359588623046875" lon="-8.6515997909009456634521484375">
        <ele>-7</ele>
        <time>2022-11-01T10:05:43.000Z</time>
      </trkpt>
      <trkpt lat="42.42810227908194065093994140625" lon="-8.65162451751530170440673828125">
        <ele>-6.80000019073486328125</ele>
        <time>2022-11-01T10:05:44.000Z</time>
      </trkpt>
      <trkpt lat="42.42816464044153690338134765625" lon="-8.6516443826258182525634765625">
        <ele>-6.80000019073486328125</ele>
        <time>2022-11-01T10:05:45.000Z</time>
      </trkpt>
      <trkpt lat="42.42822364903986454010009765625" lon="-8.65166307426989078521728515625">
        <ele>-6.80000019073486328125</ele>
        <time>2022-11-01T10:05:46.000Z</time>
      </trkpt>
      <trkpt lat="42.42827913723886013031005859375" lon="-8.65168117918074131011962890625">
        <ele>-6.80000019073486328125</ele>
        <time>2022-11-01T10:05:47.000Z</time>
      </trkpt>
      <trkpt lat="42.42833127267658710479736328125" lon="-8.65169911645352840423583984375">
        <ele>-6.599999904632568359375</ele>
        <time>2022-11-01T10:05:48.000Z</time>
      </trkpt>
      <trkpt lat="42.4283819831907749176025390625" lon="-8.65172065794467926025390625">
        <ele>-6.599999904632568359375</ele>
        <time>2022-11-01T10:05:49.000Z</time>
      </trkpt>
      <trkpt lat="42.4284227192401885986328125" lon="-8.65173649974167346954345703125">
        <ele>-6.599999904632568359375</ele>
        <time>2022-11-01T10:05:50.000Z</time>
      </trkpt>
      <trkpt lat="42.42845783941447734832763671875" lon="-8.6517526768147945404052734375">
        <ele>-6.400000095367431640625</ele>
        <time>2022-11-01T10:05:51.000Z</time>
      </trkpt>
      <trkpt lat="42.428486086428165435791015625" lon="-8.65176751278340816497802734375">
        <ele>-6.400000095367431640625</ele>
        <time>2022-11-01T10:05:52.000Z</time>
      </trkpt>
      <trkpt lat="42.42850787937641143798828125" lon="-8.65177572704851627349853515625">
        <ele>-6.19999980926513671875</ele>
        <time>2022-11-01T10:05:53.000Z</time>
      </trkpt>
      <trkpt lat="42.42852053605020046234130859375" lon="-8.65178327076137065887451171875">
        <ele>-6.19999980926513671875</ele>
        <time>2022-11-01T10:05:54.000Z</time>
      </trkpt>
      <trkpt lat="42.4285288341343402862548828125" lon="-8.6517898924648761749267578125">
        <ele>-6.19999980926513671875</ele>
        <time>2022-11-01T10:05:55.000Z</time>
      </trkpt>
      <trkpt lat="42.42853092961013317108154296875" lon="-8.65179198794066905975341796875">
        <ele>-6.19999980926513671875</ele>
        <time>2022-11-01T10:05:56.000Z</time>
      </trkpt>
      <trkpt lat="42.42853092961013317108154296875" lon="-8.65179198794066905975341796875">
        <ele>-6</ele>
        <time>2022-11-01T10:05:57.000Z</time>
      </trkpt>
      <trkpt lat="42.42858490906655788421630859375" lon="-8.65180623717606067657470703125">
        <ele>-5.80000019073486328125</ele>
        <time>2022-11-01T10:06:19.000Z</time>
      </trkpt>
      <trkpt lat="42.428608126938343048095703125" lon="-8.65181260742247104644775390625">
        <ele>-6</ele>
        <time>2022-11-01T10:06:20.000Z</time>
      </trkpt>
      <trkpt lat="42.42863670922815799713134765625" lon="-8.65182124078273773193359375">
        <ele>-5.80000019073486328125</ele>
        <time>2022-11-01T10:06:21.000Z</time>
      </trkpt>
      <trkpt lat="42.42866814136505126953125" lon="-8.65183020941913127899169921875">
        <ele>-5.80000019073486328125</ele>
        <time>2022-11-01T10:06:22.000Z</time>
      </trkpt>
      <trkpt lat="42.42869856767356395721435546875" lon="-8.651837669312953948974609375">
        <ele>-6</ele>
        <time>2022-11-01T10:06:23.000Z</time>
      </trkpt>
      <trkpt lat="42.428730167448520660400390625" lon="-8.6518462188541889190673828125">
        <ele>-6</ele>
        <time>2022-11-01T10:06:24.000Z</time>
      </trkpt>
      <trkpt lat="42.4287641979753971099853515625" lon="-8.65185719914734363555908203125">
        <ele>-6</ele>
        <time>2022-11-01T10:06:25.000Z</time>
      </trkpt>
      <trkpt lat="42.4287987314164638519287109375" lon="-8.65187144838273525238037109375">
        <ele>-6.19999980926513671875</ele>
        <time>2022-11-01T10:06:26.000Z</time>
      </trkpt>
      <trkpt lat="42.4288336001336574554443359375" lon="-8.65189500153064727783203125">
        <ele>-6.19999980926513671875</ele>
        <time>2022-11-01T10:06:27.000Z</time>
      </trkpt>
      <trkpt lat="42.42886536754667758941650390625" lon="-8.65192978642880916595458984375">
        <ele>-6.19999980926513671875</ele>
        <time>2022-11-01T10:06:28.000Z</time>
      </trkpt>
      <trkpt lat="42.428889088332653045654296875" lon="-8.651971779763698577880859375">
        <ele>-6.19999980926513671875</ele>
        <time>2022-11-01T10:06:29.000Z</time>
      </trkpt>
      <trkpt lat="42.4289097078144550323486328125" lon="-8.6520202271640300750732421875">
        <ele>-6.400000095367431640625</ele>
        <time>2022-11-01T10:06:30.000Z</time>
      </trkpt>
      <trkpt lat="42.42892571724951267242431640625" lon="-8.65207613445818424224853515625">
        <ele>-6.400000095367431640625</ele>
        <time>2022-11-01T10:06:31.000Z</time>
      </trkpt>
      <trkpt lat="42.4289348535239696502685546875" lon="-8.65213832817971706390380859375">
        <ele>-6.400000095367431640625</ele>
        <time>2022-11-01T10:06:32.000Z</time>
      </trkpt>
      <trkpt lat="42.4289432354271411895751953125" lon="-8.65220672450959682464599609375">
        <ele>-6.400000095367431640625</ele>
        <time>2022-11-01T10:06:33.000Z</time>
      </trkpt>
      <trkpt lat="42.42895237170159816741943359375" lon="-8.6522750370204448699951171875">
        <ele>-6.400000095367431640625</ele>
        <time>2022-11-01T10:06:34.000Z</time>
      </trkpt>
      <trkpt lat="42.4289579875767230987548828125" lon="-8.6523394100368022918701171875">
        <ele>-6.400000095367431640625</ele>
        <time>2022-11-01T10:06:35.000Z</time>
      </trkpt>
      <trkpt lat="42.42896259762346744537353515625" lon="-8.652406297624111175537109375">
        <ele>-6.400000095367431640625</ele>
        <time>2022-11-01T10:06:36.000Z</time>
      </trkpt>
      <trkpt lat="42.4289670400321483612060546875" lon="-8.652476705610752105712890625">
        <ele>-6.400000095367431640625</ele>
        <time>2022-11-01T10:06:37.000Z</time>
      </trkpt>
      <trkpt lat="42.428973577916622161865234375" lon="-8.6525472812354564666748046875">
        <ele>-6.400000095367431640625</ele>
        <time>2022-11-01T10:06:38.000Z</time>
      </trkpt>
      <trkpt lat="42.428979612886905670166015625" lon="-8.652620203793048858642578125">
        <ele>-6.400000095367431640625</ele>
        <time>2022-11-01T10:06:39.000Z</time>
      </trkpt>
      <trkpt lat="42.42898531258106231689453125" lon="-8.65269337780773639678955078125">
        <ele>-6.400000095367431640625</ele>
        <time>2022-11-01T10:06:40.000Z</time>
      </trkpt>
      <trkpt lat="42.4289913475513458251953125" lon="-8.65275456570088863372802734375">
        <ele>-6.400000095367431640625</ele>
        <time>2022-11-01T10:06:41.000Z</time>
      </trkpt>
      <trkpt lat="42.4289988912642002105712890625" lon="-8.652848191559314727783203125">
        <ele>-6.400000095367431640625</ele>
        <time>2022-11-01T10:06:42.000Z</time>
      </trkpt>
      <trkpt lat="42.4290032498538494110107421875" lon="-8.6529283225536346435546875">
        <ele>-6.599999904632568359375</ele>
        <time>2022-11-01T10:06:43.000Z</time>
      </trkpt>
      <trkpt lat="42.42900668643414974212646484375" lon="-8.65300870500504970550537109375">
        <ele>-6.599999904632568359375</ele>
        <time>2022-11-01T10:06:44.000Z</time>
      </trkpt>
      <trkpt lat="42.42900936864316463470458984375" lon="-8.653091602027416229248046875">
        <ele>-6.80000019073486328125</ele>
        <time>2022-11-01T10:06:45.000Z</time>
      </trkpt>
      <trkpt lat="42.42901624180376529693603515625" lon="-8.65317550487816333770751953125">
        <ele>-6.80000019073486328125</ele>
        <time>2022-11-01T10:06:46.000Z</time>
      </trkpt>
      <trkpt lat="42.42903149686753749847412109375" lon="-8.65325882099568843841552734375">
        <ele>-6.80000019073486328125</ele>
        <time>2022-11-01T10:06:47.000Z</time>
      </trkpt>
      <trkpt lat="42.42905412800610065460205078125" lon="-8.653342723846435546875">
        <ele>-6.80000019073486328125</ele>
        <time>2022-11-01T10:06:48.000Z</time>
      </trkpt>
      <trkpt lat="42.42907843552529811859130859375" lon="-8.65342360921204090118408203125">
        <ele>-7</ele>
        <time>2022-11-01T10:06:49.000Z</time>
      </trkpt>
      <trkpt lat="42.42910274304449558258056640625" lon="-8.653499968349933624267578125">
        <ele>-7</ele>
        <time>2022-11-01T10:06:50.000Z</time>
      </trkpt>
      <trkpt lat="42.42913342081010341644287109375" lon="-8.65357062779366970062255859375">
        <ele>-7</ele>
        <time>2022-11-01T10:06:51.000Z</time>
      </trkpt>
      <trkpt lat="42.42916795425117015838623046875" lon="-8.653639443218708038330078125">
        <ele>-7</ele>
        <time>2022-11-01T10:06:52.000Z</time>
      </trkpt>
      <trkpt lat="42.429210953414440155029296875" lon="-8.6537023074924945831298828125">
        <ele>-7</ele>
        <time>2022-11-01T10:06:53.000Z</time>
      </trkpt>
      <trkpt lat="42.4292604066431522369384765625" lon="-8.6537569575011730194091796875">
        <ele>-7.19999980926513671875</ele>
        <time>2022-11-01T10:06:54.000Z</time>
      </trkpt>
      <trkpt lat="42.4293133802711963653564453125" lon="-8.65380431525409221649169921875">
        <ele>-7.19999980926513671875</ele>
        <time>2022-11-01T10:06:55.000Z</time>
      </trkpt>
      <trkpt lat="42.42937029339373111724853515625" lon="-8.65384488366544246673583984375">
        <ele>-7.19999980926513671875</ele>
        <time>2022-11-01T10:06:56.000Z</time>
      </trkpt>
      <trkpt lat="42.4294270388782024383544921875" lon="-8.65387623198330402374267578125">
        <ele>-7.19999980926513671875</ele>
        <time>2022-11-01T10:06:57.000Z</time>
      </trkpt>
      <trkpt lat="42.4294830299913883209228515625" lon="-8.65390188060700893402099609375">
        <ele>-7.19999980926513671875</ele>
        <time>2022-11-01T10:06:58.000Z</time>
      </trkpt>
      <trkpt lat="42.42952787317335605621337890625" lon="-8.65391998551785945892333984375">
        <ele>-7.19999980926513671875</ele>
        <time>2022-11-01T10:06:59.000Z</time>
      </trkpt>
      <trkpt lat="42.42958352901041507720947265625" lon="-8.653935492038726806640625">
        <ele>-7.19999980926513671875</ele>
        <time>2022-11-01T10:07:00.000Z</time>
      </trkpt>
      <trkpt lat="42.42965226061642169952392578125" lon="-8.6539433710277080535888671875">
        <ele>-7.19999980926513671875</ele>
        <time>2022-11-01T10:07:01.000Z</time>
      </trkpt>
      <trkpt lat="42.4297113530337810516357421875" lon="-8.65394060499966144561767578125">
        <ele>-7</ele>
        <time>2022-11-01T10:07:02.000Z</time>
      </trkpt>
      <trkpt lat="42.42976960726082324981689453125" lon="-8.6539299599826335906982421875">
        <ele>-7</ele>
        <time>2022-11-01T10:07:03.000Z</time>
      </trkpt>
      <trkpt lat="42.4298283644020557403564453125" lon="-8.65391529165208339691162109375">
        <ele>-7</ele>
        <time>2022-11-01T10:07:04.000Z</time>
      </trkpt>
      <trkpt lat="42.429875470697879791259765625" lon="-8.65389995276927947998046875">
        <ele>-7</ele>
        <time>2022-11-01T10:07:05.000Z</time>
      </trkpt>
      <trkpt lat="42.42993347346782684326171875" lon="-8.653876818716526031494140625">
        <ele>-7</ele>
        <time>2022-11-01T10:07:06.000Z</time>
      </trkpt>
      <trkpt lat="42.42999851703643798828125" lon="-8.65384505130350589752197265625">
        <ele>-7</ele>
        <time>2022-11-01T10:07:07.000Z</time>
      </trkpt>
      <trkpt lat="42.43005073629319667816162109375" lon="-8.653820492327213287353515625">
        <ele>-7</ele>
        <time>2022-11-01T10:07:08.000Z</time>
      </trkpt>
      <trkpt lat="42.43009306490421295166015625" lon="-8.6538018845021724700927734375">
        <ele>-7</ele>
        <time>2022-11-01T10:07:09.000Z</time>
      </trkpt>
      <trkpt lat="42.4301472119987010955810546875" lon="-8.65377514623105525970458984375">
        <ele>-7</ele>
        <time>2022-11-01T10:07:10.000Z</time>
      </trkpt>
      <trkpt lat="42.4302068911492824554443359375" lon="-8.6537509225308895111083984375">
        <ele>-6.80000019073486328125</ele>
        <time>2022-11-01T10:07:11.000Z</time>
      </trkpt>
      <trkpt lat="42.43027319200336933135986328125" lon="-8.653717227280139923095703125">
        <ele>-6.80000019073486328125</ele>
        <time>2022-11-01T10:07:12.000Z</time>
      </trkpt>
      <trkpt lat="42.430319376289844512939453125" lon="-8.65369333885610103607177734375">
        <ele>-6.80000019073486328125</ele>
        <time>2022-11-01T10:07:13.000Z</time>
      </trkpt>
      <trkpt lat="42.4303765408694744110107421875" lon="-8.65366802550852298736572265625">
        <ele>-6.80000019073486328125</ele>
        <time>2022-11-01T10:07:14.000Z</time>
      </trkpt>
      <trkpt lat="42.4304332025349140167236328125" lon="-8.6536449752748012542724609375">
        <ele>-6.80000019073486328125</ele>
        <time>2022-11-01T10:07:15.000Z</time>
      </trkpt>
      <trkpt lat="42.43049078620970249176025390625" lon="-8.653622679412364959716796875">
        <ele>-6.80000019073486328125</ele>
        <time>2022-11-01T10:07:16.000Z</time>
      </trkpt>
      <trkpt lat="42.4305478669703006744384765625" lon="-8.65359812043607234954833984375">
        <ele>-6.80000019073486328125</ele>
        <time>2022-11-01T10:07:17.000Z</time>
      </trkpt>
      <trkpt lat="42.43060779757797718048095703125" lon="-8.65357414819300174713134765625">
        <ele>-6.80000019073486328125</ele>
        <time>2022-11-01T10:07:18.000Z</time>
      </trkpt>
      <trkpt lat="42.430667392909526824951171875" lon="-8.653546907007694244384765625">
        <ele>-6.80000019073486328125</ele>
        <time>2022-11-01T10:07:19.000Z</time>
      </trkpt>
      <trkpt lat="42.4307374656200408935546875" lon="-8.6535148881375789642333984375">
        <ele>-6.80000019073486328125</ele>
        <time>2022-11-01T10:07:20.000Z</time>
      </trkpt>
      <trkpt lat="42.4307872541248798370361328125" lon="-8.653495945036411285400390625">
        <ele>-6.80000019073486328125</ele>
        <time>2022-11-01T10:07:21.000Z</time>
      </trkpt>
      <trkpt lat="42.430850453674793243408203125" lon="-8.65347507409751415252685546875">
        <ele>-6.80000019073486328125</ele>
        <time>2022-11-01T10:07:22.000Z</time>
      </trkpt>
      <trkpt lat="42.43092480115592479705810546875" lon="-8.65344640798866748809814453125">
        <ele>-6.80000019073486328125</ele>
        <time>2022-11-01T10:07:23.000Z</time>
      </trkpt>
      <trkpt lat="42.43097685277462005615234375" lon="-8.65343031473457813262939453125">
        <ele>-6.80000019073486328125</ele>
        <time>2022-11-01T10:07:24.000Z</time>
      </trkpt>
      <trkpt lat="42.4310464225709438323974609375" lon="-8.6533992178738117218017578125">
        <ele>-6.80000019073486328125</ele>
        <time>2022-11-01T10:07:25.000Z</time>
      </trkpt>
      <trkpt lat="42.43108958937227725982666015625" lon="-8.6533687077462673187255859375">
        <ele>-6.80000019073486328125</ele>
        <time>2022-11-01T10:07:26.000Z</time>
      </trkpt>
      <trkpt lat="42.43114356882870197296142578125" lon="-8.65333325229585170745849609375">
        <ele>-6.80000019073486328125</ele>
        <time>2022-11-01T10:07:27.000Z</time>
      </trkpt>
      <trkpt lat="42.43119972757995128631591796875" lon="-8.65330140106379985809326171875">
        <ele>-6.80000019073486328125</ele>
        <time>2022-11-01T10:07:28.000Z</time>
      </trkpt>
      <trkpt lat="42.4312551319599151611328125" lon="-8.6532708071172237396240234375">
        <ele>-6.80000019073486328125</ele>
        <time>2022-11-01T10:07:29.000Z</time>
      </trkpt>
      <trkpt lat="42.431319169700145721435546875" lon="-8.65323434583842754364013671875">
        <ele>-6.80000019073486328125</ele>
        <time>2022-11-01T10:07:30.000Z</time>
      </trkpt>
      <trkpt lat="42.43135931901633739471435546875" lon="-8.6532121337950229644775390625">
        <ele>-6.80000019073486328125</ele>
        <time>2022-11-01T10:07:31.000Z</time>
      </trkpt>
      <trkpt lat="42.431411035358905792236328125" lon="-8.653186820447444915771484375">
        <ele>-6.599999904632568359375</ele>
        <time>2022-11-01T10:07:32.000Z</time>
      </trkpt>
      <trkpt lat="42.43146375752985477447509765625" lon="-8.6531648598611354827880859375">
        <ele>-6.599999904632568359375</ele>
        <time>2022-11-01T10:07:33.000Z</time>
      </trkpt>
      <trkpt lat="42.43152226321399211883544921875" lon="-8.65313678048551082611083984375">
        <ele>-6.599999904632568359375</ele>
        <time>2022-11-01T10:07:34.000Z</time>
      </trkpt>
      <trkpt lat="42.43157004006206989288330078125" lon="-8.6531133949756622314453125">
        <ele>-6.599999904632568359375</ele>
        <time>2022-11-01T10:07:35.000Z</time>
      </trkpt>
      <trkpt lat="42.43161479942500591278076171875" lon="-8.6530910991132259368896484375">
        <ele>-6.599999904632568359375</ele>
        <time>2022-11-01T10:07:36.000Z</time>
      </trkpt>
      <trkpt lat="42.43166006170213222503662109375" lon="-8.65306620486080646514892578125">
        <ele>-6.599999904632568359375</ele>
        <time>2022-11-01T10:07:37.000Z</time>
      </trkpt>
      <trkpt lat="42.43169677443802356719970703125" lon="-8.65304541774094104766845703125">
        <ele>-6.400000095367431640625</ele>
        <time>2022-11-01T10:07:38.000Z</time>
      </trkpt>
      <trkpt lat="42.43174555711448192596435546875" lon="-8.653021864593029022216796875">
        <ele>-6.19999980926513671875</ele>
        <time>2022-11-01T10:07:39.000Z</time>
      </trkpt>
      <trkpt lat="42.43180322460830211639404296875" lon="-8.65299629978835582733154296875">
        <ele>-6.19999980926513671875</ele>
        <time>2022-11-01T10:07:40.000Z</time>
      </trkpt>
      <trkpt lat="42.431852258741855621337890625" lon="-8.65297324955463409423828125">
        <ele>-6</ele>
        <time>2022-11-01T10:07:41.000Z</time>
      </trkpt>
      <trkpt lat="42.4318903125822544097900390625" lon="-8.6529559828341007232666015625">
        <ele>-6</ele>
        <time>2022-11-01T10:07:42.000Z</time>
      </trkpt>
      <trkpt lat="42.4319369159638881683349609375" lon="-8.6529325135052204132080078125">
        <ele>-6</ele>
        <time>2022-11-01T10:07:43.000Z</time>
      </trkpt>
      <trkpt lat="42.43199064396321773529052734375" lon="-8.65290351212024688720703125">
        <ele>-6</ele>
        <time>2022-11-01T10:07:44.000Z</time>
      </trkpt>
      <trkpt lat="42.43204043246805667877197265625" lon="-8.6528822220861911773681640625">
        <ele>-6</ele>
        <time>2022-11-01T10:07:45.000Z</time>
      </trkpt>
      <trkpt lat="42.4320921488106250762939453125" lon="-8.65286084823310375213623046875">
        <ele>-6</ele>
        <time>2022-11-01T10:07:46.000Z</time>
      </trkpt>
      <trkpt lat="42.4321451224386692047119140625" lon="-8.652838803827762603759765625">
        <ele>-5.80000019073486328125</ele>
        <time>2022-11-01T10:07:47.000Z</time>
      </trkpt>
      <trkpt lat="42.4321987666189670562744140625" lon="-8.6528155021369457244873046875">
        <ele>-5.80000019073486328125</ele>
        <time>2022-11-01T10:07:48.000Z</time>
      </trkpt>
      <trkpt lat="42.432252578437328338623046875" lon="-8.65278683602809906005859375">
        <ele>-5.80000019073486328125</ele>
        <time>2022-11-01T10:07:49.000Z</time>
      </trkpt>
      <trkpt lat="42.43230454623699188232421875" lon="-8.65275741554796695709228515625">
        <ele>-5.80000019073486328125</ele>
        <time>2022-11-01T10:07:50.000Z</time>
      </trkpt>
      <trkpt lat="42.43235282599925994873046875" lon="-8.65271835587918758392333984375">
        <ele>-5.599999904632568359375</ele>
        <time>2022-11-01T10:07:51.000Z</time>
      </trkpt>
      <trkpt lat="42.43240135721862316131591796875" lon="-8.65267309360206127166748046875">
        <ele>-5.599999904632568359375</ele>
        <time>2022-11-01T10:07:52.000Z</time>
      </trkpt>
      <trkpt lat="42.4324458651244640350341796875" lon="-8.652628250420093536376953125">
        <ele>-5.400000095367431640625</ele>
        <time>2022-11-01T10:07:53.000Z</time>
      </trkpt>
      <trkpt lat="42.432484924793243408203125" lon="-8.6525848321616649627685546875">
        <ele>-5.400000095367431640625</ele>
        <time>2022-11-01T10:07:54.000Z</time>
      </trkpt>
      <trkpt lat="42.432525157928466796875" lon="-8.65254015661776065826416015625">
        <ele>-5.599999904632568359375</ele>
        <time>2022-11-01T10:07:55.000Z</time>
      </trkpt>
      <trkpt lat="42.43255843408405780792236328125" lon="-8.65250126458704471588134765625">
        <ele>-5.599999904632568359375</ele>
        <time>2022-11-01T10:07:56.000Z</time>
      </trkpt>
      <trkpt lat="42.4325846694409847259521484375" lon="-8.65245549939572811126708984375">
        <ele>-5.599999904632568359375</ele>
        <time>2022-11-01T10:07:57.000Z</time>
      </trkpt>
      <trkpt lat="42.4326114915311336517333984375" lon="-8.6524074710905551910400390625">
        <ele>-5.599999904632568359375</ele>
        <time>2022-11-01T10:07:58.000Z</time>
      </trkpt>
      <trkpt lat="42.43263135664165019989013671875" lon="-8.6523638851940631866455078125">
        <ele>-5.400000095367431640625</ele>
        <time>2022-11-01T10:07:59.000Z</time>
      </trkpt>
      <trkpt lat="42.43264853954315185546875" lon="-8.65233848802745342254638671875">
        <ele>-5.400000095367431640625</ele>
        <time>2022-11-01T10:08:00.000Z</time>
      </trkpt>
      <trkpt lat="42.4326681531965732574462890625" lon="-8.65232490934431552886962890625">
        <ele>-5.400000095367431640625</ele>
        <time>2022-11-01T10:08:01.000Z</time>
      </trkpt>
      <trkpt lat="42.43268164806067943572998046875" lon="-8.652308396995067596435546875">
        <ele>-5.19999980926513671875</ele>
        <time>2022-11-01T10:08:02.000Z</time>
      </trkpt>
      <trkpt lat="42.43269287981092929840087890625" lon="-8.65229607559740543365478515625">
        <ele>-5.19999980926513671875</ele>
        <time>2022-11-01T10:08:03.000Z</time>
      </trkpt>
      <trkpt lat="42.43269807659089565277099609375" lon="-8.6522934772074222564697265625">
        <ele>-5.19999980926513671875</ele>
        <time>2022-11-01T10:08:04.000Z</time>
      </trkpt>
      <trkpt lat="42.43270075879991054534912109375" lon="-8.6522941477596759796142578125">
        <ele>-5</ele>
        <time>2022-11-01T10:08:05.000Z</time>
      </trkpt>
      <trkpt lat="42.43270075879991054534912109375" lon="-8.6522941477596759796142578125">
        <ele>-5</ele>
        <time>2022-11-01T10:08:06.000Z</time>
      </trkpt>
      <trkpt lat="42.43270075879991054534912109375" lon="-8.6522941477596759796142578125">
        <ele>-5</ele>
        <time>2022-11-01T10:08:07.000Z</time>
      </trkpt>
      <trkpt lat="42.43275390006601810455322265625" lon="-8.652256093919277191162109375">
        <ele>-5</ele>
        <time>2022-11-01T10:08:14.000Z</time>
      </trkpt>
      <trkpt lat="42.43276647292077541351318359375" lon="-8.6522416770458221435546875">
        <ele>-5</ele>
        <time>2022-11-01T10:08:15.000Z</time>
      </trkpt>
      <trkpt lat="42.43278407491743564605712890625" lon="-8.65222063846886157989501953125">
        <ele>-5</ele>
        <time>2022-11-01T10:08:16.000Z</time>
      </trkpt>
      <trkpt lat="42.432801090180873870849609375" lon="-8.6522016115486621856689453125">
        <ele>-5.19999980926513671875</ele>
        <time>2022-11-01T10:08:17.000Z</time>
      </trkpt>
      <trkpt lat="42.43282749317586421966552734375" lon="-8.6521694250404834747314453125">
        <ele>-5.19999980926513671875</ele>
        <time>2022-11-01T10:08:18.000Z</time>
      </trkpt>
      <trkpt lat="42.4328495375812053680419921875" lon="-8.65213799290359020233154296875">
        <ele>-5.19999980926513671875</ele>
        <time>2022-11-01T10:08:19.000Z</time>
      </trkpt>
      <trkpt lat="42.4328770302236080169677734375" lon="-8.6521027050912380218505859375">
        <ele>-5.19999980926513671875</ele>
        <time>2022-11-01T10:08:20.000Z</time>
      </trkpt>
      <trkpt lat="42.4329031817615032196044921875" lon="-8.65206406451761722564697265625">
        <ele>-5.19999980926513671875</ele>
        <time>2022-11-01T10:08:21.000Z</time>
      </trkpt>
      <trkpt lat="42.432923801243305206298828125" lon="-8.6520272679626941680908203125">
        <ele>-5.19999980926513671875</ele>
        <time>2022-11-01T10:08:22.000Z</time>
      </trkpt>
      <trkpt lat="42.4329544790089130401611328125" lon="-8.65196733735501766204833984375">
        <ele>-5.400000095367431640625</ele>
        <time>2022-11-01T10:08:23.000Z</time>
      </trkpt>
      <trkpt lat="42.43298792280256748199462890625" lon="-8.65191704593598842620849609375">
        <ele>-5.400000095367431640625</ele>
        <time>2022-11-01T10:08:24.000Z</time>
      </trkpt>
      <trkpt lat="42.4330195225775241851806640625" lon="-8.65186725743114948272705078125">
        <ele>-5.400000095367431640625</ele>
        <time>2022-11-01T10:08:25.000Z</time>
      </trkpt>
      <trkpt lat="42.43305682204663753509521484375" lon="-8.651818893849849700927734375">
        <ele>-5.400000095367431640625</ele>
        <time>2022-11-01T10:08:26.000Z</time>
      </trkpt>
      <trkpt lat="42.43308984674513339996337890625" lon="-8.6517818458378314971923828125">
        <ele>-5.599999904632568359375</ele>
        <time>2022-11-01T10:08:27.000Z</time>
      </trkpt>
      <trkpt lat="42.433128990232944488525390625" lon="-8.65173214115202426910400390625">
        <ele>-5.599999904632568359375</ele>
        <time>2022-11-01T10:08:28.000Z</time>
      </trkpt>
      <trkpt lat="42.4331774376332759857177734375" lon="-8.65167078562080860137939453125">
        <ele>-5.80000019073486328125</ele>
        <time>2022-11-01T10:08:29.000Z</time>
      </trkpt>
      <trkpt lat="42.43322010152041912078857421875" lon="-8.65161781199276447296142578125">
        <ele>-5.80000019073486328125</ele>
        <time>2022-11-01T10:08:30.000Z</time>
      </trkpt>
      <trkpt lat="42.43326251395046710968017578125" lon="-8.65156500600278377532958984375">
        <ele>-6</ele>
        <time>2022-11-01T10:08:31.000Z</time>
      </trkpt>
      <trkpt lat="42.4333024956285953521728515625" lon="-8.65150867961347103118896484375">
        <ele>-6</ele>
        <time>2022-11-01T10:08:32.000Z</time>
      </trkpt>
      <trkpt lat="42.43334063328802585601806640625" lon="-8.65145252086222171783447265625">
        <ele>-6</ele>
        <time>2022-11-01T10:08:33.000Z</time>
      </trkpt>
      <trkpt lat="42.433378435671329498291015625" lon="-8.65140055306255817413330078125">
        <ele>-5.80000019073486328125</ele>
        <time>2022-11-01T10:08:34.000Z</time>
      </trkpt>
      <trkpt lat="42.4334134720265865325927734375" lon="-8.65135227330029010772705078125">
        <ele>-6.19999980926513671875</ele>
        <time>2022-11-01T10:08:35.000Z</time>
      </trkpt>
      <trkpt lat="42.43344523943960666656494140625" lon="-8.6513111181557178497314453125">
        <ele>-6.19999980926513671875</ele>
        <time>2022-11-01T10:08:36.000Z</time>
      </trkpt>
      <trkpt lat="42.43347558192908763885498046875" lon="-8.651275075972080230712890625">
        <ele>-6.19999980926513671875</ele>
        <time>2022-11-01T10:08:37.000Z</time>
      </trkpt>
      <trkpt lat="42.43350491859018802642822265625" lon="-8.65124523639678955078125">
        <ele>-6.400000095367431640625</ele>
        <time>2022-11-01T10:08:38.000Z</time>
      </trkpt>
      <trkpt lat="42.43353157304227352142333984375" lon="-8.65121548064053058624267578125">
        <ele>-6.400000095367431640625</ele>
        <time>2022-11-01T10:08:39.000Z</time>
      </trkpt>
      <trkpt lat="42.43355386890470981597900390625" lon="-8.65118463523685932159423828125">
        <ele>-6.400000095367431640625</ele>
        <time>2022-11-01T10:08:40.000Z</time>
      </trkpt>
      <trkpt lat="42.433574236929416656494140625" lon="-8.651157058775424957275390625">
        <ele>-6.400000095367431640625</ele>
        <time>2022-11-01T10:08:41.000Z</time>
      </trkpt>
      <trkpt lat="42.433591671288013458251953125" lon="-8.65112897939980030059814453125">
        <ele>-6.400000095367431640625</ele>
        <time>2022-11-01T10:08:42.000Z</time>
      </trkpt>
      <trkpt lat="42.43361438624560832977294921875" lon="-8.65110333077609539031982421875">
        <ele>-6.400000095367431640625</ele>
        <time>2022-11-01T10:08:43.000Z</time>
      </trkpt>
      <trkpt lat="42.43364439345896244049072265625" lon="-8.651081621646881103515625">
        <ele>-6.400000095367431640625</ele>
        <time>2022-11-01T10:08:44.000Z</time>
      </trkpt>
      <trkpt lat="42.433676160871982574462890625" lon="-8.651057146489620208740234375">
        <ele>-6.400000095367431640625</ele>
        <time>2022-11-01T10:08:45.000Z</time>
      </trkpt>
      <trkpt lat="42.43370625190436840057373046875" lon="-8.65102328360080718994140625">
        <ele>-6.599999904632568359375</ele>
        <time>2022-11-01T10:08:46.000Z</time>
      </trkpt>
      <trkpt lat="42.43373525328934192657470703125" lon="-8.650986067950725555419921875">
        <ele>-6.599999904632568359375</ele>
        <time>2022-11-01T10:08:47.000Z</time>
      </trkpt>
      <trkpt lat="42.43376324884593486785888671875" lon="-8.6509416438639163970947265625">
        <ele>-6.599999904632568359375</ele>
        <time>2022-11-01T10:08:48.000Z</time>
      </trkpt>
      <trkpt lat="42.4337936751544475555419921875" lon="-8.6508950404822826385498046875">
        <ele>-6.599999904632568359375</ele>
        <time>2022-11-01T10:08:49.000Z</time>
      </trkpt>
      <trkpt lat="42.43383114226162433624267578125" lon="-8.65085036493837833404541015625">
        <ele>-6.599999904632568359375</ele>
        <time>2022-11-01T10:08:50.000Z</time>
      </trkpt>
      <trkpt lat="42.43387104012072086334228515625" lon="-8.65080694667994976043701171875">
        <ele>-6.599999904632568359375</ele>
        <time>2022-11-01T10:08:51.000Z</time>
      </trkpt>
      <trkpt lat="42.43390372954308986663818359375" lon="-8.6507703177630901336669921875">
        <ele>-6.80000019073486328125</ele>
        <time>2022-11-01T10:08:52.000Z</time>
      </trkpt>
      <trkpt lat="42.43395351804792881011962890625" lon="-8.6507113091647624969482421875">
        <ele>-6.80000019073486328125</ele>
        <time>2022-11-01T10:08:53.000Z</time>
      </trkpt>
      <trkpt lat="42.43399375118315219879150390625" lon="-8.65065959282219409942626953125">
        <ele>-6.80000019073486328125</ele>
        <time>2022-11-01T10:08:54.000Z</time>
      </trkpt>
      <trkpt lat="42.43403616361320018768310546875" lon="-8.65060779266059398651123046875">
        <ele>-6.80000019073486328125</ele>
        <time>2022-11-01T10:08:55.000Z</time>
      </trkpt>
      <trkpt lat="42.43407388217747211456298828125" lon="-8.6505545675754547119140625">
        <ele>-6.80000019073486328125</ele>
        <time>2022-11-01T10:08:56.000Z</time>
      </trkpt>
      <trkpt lat="42.43411294184625148773193359375" lon="-8.65050117485225200653076171875">
        <ele>-6.80000019073486328125</ele>
        <time>2022-11-01T10:08:57.000Z</time>
      </trkpt>
      <trkpt lat="42.43415258824825286865234375" lon="-8.6504484526813030242919921875">
        <ele>-6.80000019073486328125</ele>
        <time>2022-11-01T10:08:58.000Z</time>
      </trkpt>
      <trkpt lat="42.4341921508312225341796875" lon="-8.650395981967449188232421875">
        <ele>-6.80000019073486328125</ele>
        <time>2022-11-01T10:08:59.000Z</time>
      </trkpt>
      <trkpt lat="42.4342291988432407379150390625" lon="-8.65034242160618305206298828125">
        <ele>-6.80000019073486328125</ele>
        <time>2022-11-01T10:09:00.000Z</time>
      </trkpt>
      <trkpt lat="42.4342670850455760955810546875" lon="-8.65028894506394863128662109375">
        <ele>-6.80000019073486328125</ele>
        <time>2022-11-01T10:09:01.000Z</time>
      </trkpt>
      <trkpt lat="42.43430656380951404571533203125" lon="-8.65023278631269931793212890625">
        <ele>-6.80000019073486328125</ele>
        <time>2022-11-01T10:09:02.000Z</time>
      </trkpt>
      <trkpt lat="42.4343378283083438873291015625" lon="-8.65018643438816070556640625">
        <ele>-6.80000019073486328125</ele>
        <time>2022-11-01T10:09:03.000Z</time>
      </trkpt>
      <trkpt lat="42.43438585661351680755615234375" lon="-8.65011803805828094482421875">
        <ele>-6.80000019073486328125</ele>
        <time>2022-11-01T10:09:04.000Z</time>
      </trkpt>
      <trkpt lat="42.434429861605167388916015625" lon="-8.6500615440309047698974609375">
        <ele>-6.80000019073486328125</ele>
        <time>2022-11-01T10:09:05.000Z</time>
      </trkpt>
      <trkpt lat="42.43447269313037395477294921875" lon="-8.65000328980386257171630859375">
        <ele>-6.80000019073486328125</ele>
        <time>2022-11-01T10:09:06.000Z</time>
      </trkpt>
      <trkpt lat="42.43450806476175785064697265625" lon="-8.64995618350803852081298828125">
        <ele>-6.80000019073486328125</ele>
        <time>2022-11-01T10:09:07.000Z</time>
      </trkpt>
      <trkpt lat="42.43455416522920131683349609375" lon="-8.64989918656647205352783203125">
        <ele>-6.80000019073486328125</ele>
        <time>2022-11-01T10:09:08.000Z</time>
      </trkpt>
      <trkpt lat="42.43460697121918201446533203125" lon="-8.64982944913208484649658203125">
        <ele>-6.80000019073486328125</ele>
        <time>2022-11-01T10:09:09.000Z</time>
      </trkpt>
      <trkpt lat="42.43464737199246883392333984375" lon="-8.6497715301811695098876953125">
        <ele>-6.80000019073486328125</ele>
        <time>2022-11-01T10:09:10.000Z</time>
      </trkpt>
      <trkpt lat="42.4346868507564067840576171875" lon="-8.64971545524895191192626953125">
        <ele>-6.80000019073486328125</ele>
        <time>2022-11-01T10:09:11.000Z</time>
      </trkpt>
      <trkpt lat="42.4347151815891265869140625" lon="-8.64967304281890392303466796875">
        <ele>-6.80000019073486328125</ele>
        <time>2022-11-01T10:09:12.000Z</time>
      </trkpt>
      <trkpt lat="42.43475474417209625244140625" lon="-8.6496189795434474945068359375">
        <ele>-6.80000019073486328125</ele>
        <time>2022-11-01T10:09:13.000Z</time>
      </trkpt>
      <trkpt lat="42.43478517048060894012451171875" lon="-8.64957866258919239044189453125">
        <ele>-6.80000019073486328125</ele>
        <time>2022-11-01T10:09:14.000Z</time>
      </trkpt>
      <trkpt lat="42.43481316603720188140869140625" lon="-8.64954345859587192535400390625">
        <ele>-6.80000019073486328125</ele>
        <time>2022-11-01T10:09:15.000Z</time>
      </trkpt>
      <trkpt lat="42.43483747355639934539794921875" lon="-8.64951026625931262969970703125">
        <ele>-6.80000019073486328125</ele>
        <time>2022-11-01T10:09:16.000Z</time>
      </trkpt>
      <trkpt lat="42.43485356681048870086669921875" lon="-8.6494870483875274658203125">
        <ele>-6.599999904632568359375</ele>
        <time>2022-11-01T10:09:17.000Z</time>
      </trkpt>
      <trkpt lat="42.4348749406635761260986328125" lon="-8.64945687353610992431640625">
        <ele>-6.599999904632568359375</ele>
        <time>2022-11-01T10:09:18.000Z</time>
      </trkpt>
      <trkpt lat="42.43490226566791534423828125" lon="-8.64941957406699657440185546875">
        <ele>-6.599999904632568359375</ele>
        <time>2022-11-01T10:09:19.000Z</time>
      </trkpt>
      <trkpt lat="42.43492598645389080047607421875" lon="-8.649384789168834686279296875">
        <ele>-6.599999904632568359375</ele>
        <time>2022-11-01T10:09:20.000Z</time>
      </trkpt>
      <trkpt lat="42.43495188653469085693359375" lon="-8.6493460647761821746826171875">
        <ele>-6.599999904632568359375</ele>
        <time>2022-11-01T10:09:21.000Z</time>
      </trkpt>
      <trkpt lat="42.434975691139698028564453125" lon="-8.6493162252008914947509765625">
        <ele>-6.599999904632568359375</ele>
        <time>2022-11-01T10:09:22.000Z</time>
      </trkpt>
      <trkpt lat="42.4350067041814327239990234375" lon="-8.64927959628403186798095703125">
        <ele>-6.599999904632568359375</ele>
        <time>2022-11-01T10:09:23.000Z</time>
      </trkpt>
      <trkpt lat="42.43504400365054607391357421875" lon="-8.64923517219722270965576171875">
        <ele>-6.400000095367431640625</ele>
        <time>2022-11-01T10:09:24.000Z</time>
      </trkpt>
      <trkpt lat="42.4350694008171558380126953125" lon="-8.64920348860323429107666015625">
        <ele>-6.400000095367431640625</ele>
        <time>2022-11-01T10:09:25.000Z</time>
      </trkpt>
      <trkpt lat="42.4351041018962860107421875" lon="-8.649151436984539031982421875">
        <ele>-6.400000095367431640625</ele>
        <time>2022-11-01T10:09:26.000Z</time>
      </trkpt>
      <trkpt lat="42.43512011133134365081787109375" lon="-8.64911430515348911285400390625">
        <ele>-6.599999904632568359375</ele>
        <time>2022-11-01T10:09:27.000Z</time>
      </trkpt>
      <trkpt lat="42.43515330366790294647216796875" lon="-8.6490657739341259002685546875">
        <ele>-6.599999904632568359375</ele>
        <time>2022-11-01T10:09:28.000Z</time>
      </trkpt>
      <trkpt lat="42.43519638665020465850830078125" lon="-8.649005591869354248046875">
        <ele>-6.599999904632568359375</ele>
        <time>2022-11-01T10:09:29.000Z</time>
      </trkpt>
      <trkpt lat="42.43522421456873416900634765625" lon="-8.64896544255316257476806640625">
        <ele>-6.599999904632568359375</ele>
        <time>2022-11-01T10:09:30.000Z</time>
      </trkpt>
      <trkpt lat="42.43525765836238861083984375" lon="-8.64891615696251392364501953125">
        <ele>-6.599999904632568359375</ele>
        <time>2022-11-01T10:09:31.000Z</time>
      </trkpt>
      <trkpt lat="42.43529026396572589874267578125" lon="-8.64886678755283355712890625">
        <ele>-6.80000019073486328125</ele>
        <time>2022-11-01T10:09:32.000Z</time>
      </trkpt>
      <trkpt lat="42.43532069027423858642578125" lon="-8.64881607703864574432373046875">
        <ele>-6.80000019073486328125</ele>
        <time>2022-11-01T10:09:33.000Z</time>
      </trkpt>
      <trkpt lat="42.4353597499430179595947265625" lon="-8.6487593315541744232177734375">
        <ele>-6.80000019073486328125</ele>
        <time>2022-11-01T10:09:34.000Z</time>
      </trkpt>
      <trkpt lat="42.4353899247944355010986328125" lon="-8.64871247671544551849365234375">
        <ele>-6.80000019073486328125</ele>
        <time>2022-11-01T10:09:35.000Z</time>
      </trkpt>
      <trkpt lat="42.4354227818548679351806640625" lon="-8.64866738207638263702392578125">
        <ele>-6.80000019073486328125</ele>
        <time>2022-11-01T10:09:36.000Z</time>
      </trkpt>
      <trkpt lat="42.4354569800198078155517578125" lon="-8.64862027578055858612060546875">
        <ele>-6.80000019073486328125</ele>
        <time>2022-11-01T10:09:37.000Z</time>
      </trkpt>
      <trkpt lat="42.43548237718641757965087890625" lon="-8.6485869996249675750732421875">
        <ele>-6.80000019073486328125</ele>
        <time>2022-11-01T10:09:38.000Z</time>
      </trkpt>
      <trkpt lat="42.43552009575068950653076171875" lon="-8.6485350318253040313720703125">
        <ele>-6.80000019073486328125</ele>
        <time>2022-11-01T10:09:39.000Z</time>
      </trkpt>
      <trkpt lat="42.43554876185953617095947265625" lon="-8.64849639125168323516845703125">
        <ele>-6.80000019073486328125</ele>
        <time>2022-11-01T10:09:40.000Z</time>
      </trkpt>
      <trkpt lat="42.43556871078908443450927734375" lon="-8.648458421230316162109375">
        <ele>-6.80000019073486328125</ele>
        <time>2022-11-01T10:09:41.000Z</time>
      </trkpt>
      <trkpt lat="42.43559000082314014434814453125" lon="-8.6484253965318202972412109375">
        <ele>-6.80000019073486328125</ele>
        <time>2022-11-01T10:09:42.000Z</time>
      </trkpt>
      <trkpt lat="42.43560441769659519195556640625" lon="-8.64840033464133739471435546875">
        <ele>-6.599999904632568359375</ele>
        <time>2022-11-01T10:09:43.000Z</time>
      </trkpt>
      <trkpt lat="42.43562554009258747100830078125" lon="-8.64836462773382663726806640625">
        <ele>-6.599999904632568359375</ele>
        <time>2022-11-01T10:09:44.000Z</time>
      </trkpt>
      <trkpt lat="42.43564431555569171905517578125" lon="-8.64833512343466281890869140625">
        <ele>-6.599999904632568359375</ele>
        <time>2022-11-01T10:09:45.000Z</time>
      </trkpt>
      <trkpt lat="42.435666359961032867431640625" lon="-8.64830494858324527740478515625">
        <ele>-6.599999904632568359375</ele>
        <time>2022-11-01T10:09:46.000Z</time>
      </trkpt>
      <trkpt lat="42.43568354286253452301025390625" lon="-8.64827829413115978240966796875">
        <ele>-6.599999904632568359375</ele>
        <time>2022-11-01T10:09:47.000Z</time>
      </trkpt>
      <trkpt lat="42.4357030726969242095947265625" lon="-8.64824878983199596405029296875">
        <ele>-6.599999904632568359375</ele>
        <time>2022-11-01T10:09:48.000Z</time>
      </trkpt>
      <trkpt lat="42.43572033941745758056640625" lon="-8.6482168547809123992919921875">
        <ele>-6.599999904632568359375</ele>
        <time>2022-11-01T10:09:49.000Z</time>
      </trkpt>
      <trkpt lat="42.43573618121445178985595703125" lon="-8.64818257279694080352783203125">
        <ele>-6.599999904632568359375</ele>
        <time>2022-11-01T10:09:50.000Z</time>
      </trkpt>
      <trkpt lat="42.43575361557304859161376953125" lon="-8.64815038628876209259033203125">
        <ele>-6.599999904632568359375</ele>
        <time>2022-11-01T10:09:51.000Z</time>
      </trkpt>
      <trkpt lat="42.4357707984745502471923828125" lon="-8.64811685867607593536376953125">
        <ele>-6.599999904632568359375</ele>
        <time>2022-11-01T10:09:52.000Z</time>
      </trkpt>
      <trkpt lat="42.4357880651950836181640625" lon="-8.64808090031147003173828125">
        <ele>-6.599999904632568359375</ele>
        <time>2022-11-01T10:09:53.000Z</time>
      </trkpt>
      <trkpt lat="42.43580843321979045867919921875" lon="-8.64803127944469451904296875">
        <ele>-6.599999904632568359375</ele>
        <time>2022-11-01T10:09:54.000Z</time>
      </trkpt>
      <trkpt lat="42.43582905270159244537353515625" lon="-8.64798434078693389892578125">
        <ele>-6.599999904632568359375</ele>
        <time>2022-11-01T10:09:55.000Z</time>
      </trkpt>
      <trkpt lat="42.43585771881043910980224609375" lon="-8.6479405872523784637451171875">
        <ele>-6.599999904632568359375</ele>
        <time>2022-11-01T10:09:56.000Z</time>
      </trkpt>
      <trkpt lat="42.43588739074766635894775390625" lon="-8.64791720174252986907958984375">
        <ele>-6.599999904632568359375</ele>
        <time>2022-11-01T10:09:57.000Z</time>
      </trkpt>
      <trkpt lat="42.4359230138361454010009765625" lon="-8.64789976738393306732177734375">
        <ele>-6.400000095367431640625</ele>
        <time>2022-11-01T10:09:58.000Z</time>
      </trkpt>
      <trkpt lat="42.4359699524939060211181640625" lon="-8.64790580235421657562255859375">
        <ele>-6.400000095367431640625</ele>
        <time>2022-11-01T10:09:59.000Z</time>
      </trkpt>
      <trkpt lat="42.43600490503013134002685546875" lon="-8.64792935550212860107421875">
        <ele>-6.400000095367431640625</ele>
        <time>2022-11-01T10:10:00.000Z</time>
      </trkpt>
      <trkpt lat="42.4360349960625171661376953125" lon="-8.64796229638159275054931640625">
        <ele>-6.400000095367431640625</ele>
        <time>2022-11-01T10:10:01.000Z</time>
      </trkpt>
      <trkpt lat="42.43605586700141429901123046875" lon="-8.6479932256042957305908203125">
        <ele>-6.400000095367431640625</ele>
        <time>2022-11-01T10:10:02.000Z</time>
      </trkpt>
      <trkpt lat="42.4360896460711956024169921875" lon="-8.64802951924502849578857421875">
        <ele>-6.19999980926513671875</ele>
        <time>2022-11-01T10:10:03.000Z</time>
      </trkpt>
      <trkpt lat="42.43613029830157756805419921875" lon="-8.64806120283901691436767578125">
        <ele>-6.19999980926513671875</ele>
        <time>2022-11-01T10:10:04.000Z</time>
      </trkpt>
      <trkpt lat="42.4361731298267841339111328125" lon="-8.64808517508208751678466796875">
        <ele>-6</ele>
        <time>2022-11-01T10:10:05.000Z</time>
      </trkpt>
      <trkpt lat="42.4362200684845447540283203125" lon="-8.64810462109744548797607421875">
        <ele>-6</ele>
        <time>2022-11-01T10:10:06.000Z</time>
      </trkpt>
      <trkpt lat="42.43626893498003482818603515625" lon="-8.64812104962766170501708984375">
        <ele>-5.80000019073486328125</ele>
        <time>2022-11-01T10:10:07.000Z</time>
      </trkpt>
      <trkpt lat="42.436320818960666656494140625" lon="-8.64813714288175106048583984375">
        <ele>-5.400000095367431640625</ele>
        <time>2022-11-01T10:10:08.000Z</time>
      </trkpt>
      <trkpt lat="42.43637077510356903076171875" lon="-8.648149967193603515625">
        <ele>-5.19999980926513671875</ele>
        <time>2022-11-01T10:10:09.000Z</time>
      </trkpt>
      <trkpt lat="42.4364222399890422821044921875" lon="-8.64816279150545597076416015625">
        <ele>-5</ele>
        <time>2022-11-01T10:10:10.000Z</time>
      </trkpt>
      <trkpt lat="42.43647404015064239501953125" lon="-8.6481772921979427337646484375">
        <ele>-5</ele>
        <time>2022-11-01T10:10:11.000Z</time>
      </trkpt>
      <trkpt lat="42.43652877397835254669189453125" lon="-8.6481923796236515045166015625">
        <ele>-4.80000019073486328125</ele>
        <time>2022-11-01T10:10:12.000Z</time>
      </trkpt>
      <trkpt lat="42.4365828372538089752197265625" lon="-8.64821098744869232177734375">
        <ele>-4.80000019073486328125</ele>
        <time>2022-11-01T10:10:13.000Z</time>
      </trkpt>
      <trkpt lat="42.4366344697773456573486328125" lon="-8.64823219366371631622314453125">
        <ele>-4.80000019073486328125</ele>
        <time>2022-11-01T10:10:14.000Z</time>
      </trkpt>
      <trkpt lat="42.43668987415730953216552734375" lon="-8.64825365133583545684814453125">
        <ele>-4.80000019073486328125</ele>
        <time>2022-11-01T10:10:15.000Z</time>
      </trkpt>
      <trkpt lat="42.43674469180405139923095703125" lon="-8.6482720077037811279296875">
        <ele>-4.80000019073486328125</ele>
        <time>2022-11-01T10:10:16.000Z</time>
      </trkpt>
      <trkpt lat="42.43679665960371494293212890625" lon="-8.64828717894852161407470703125">
        <ele>-4.80000019073486328125</ele>
        <time>2022-11-01T10:10:17.000Z</time>
      </trkpt>
      <trkpt lat="42.4368488788604736328125" lon="-8.64830528385937213897705078125">
        <ele>-4.80000019073486328125</ele>
        <time>2022-11-01T10:10:18.000Z</time>
      </trkpt>
      <trkpt lat="42.43690076284110546112060546875" lon="-8.64832322113215923309326171875">
        <ele>-4.80000019073486328125</ele>
        <time>2022-11-01T10:10:19.000Z</time>
      </trkpt>
      <trkpt lat="42.436947114765644073486328125" lon="-8.648340404033660888671875">
        <ele>-4.80000019073486328125</ele>
        <time>2022-11-01T10:10:20.000Z</time>
      </trkpt>
      <trkpt lat="42.4369838275015354156494140625" lon="-8.64835406653583049774169921875">
        <ele>-4.80000019073486328125</ele>
        <time>2022-11-01T10:10:21.000Z</time>
      </trkpt>
      <trkpt lat="42.4370106495916843414306640625" lon="-8.64835959859192371368408203125">
        <ele>-4.80000019073486328125</ele>
        <time>2022-11-01T10:10:22.000Z</time>
      </trkpt>
      <trkpt lat="42.4370326101779937744140625" lon="-8.648358173668384552001953125">
        <ele>-4.80000019073486328125</ele>
        <time>2022-11-01T10:10:23.000Z</time>
      </trkpt>
      <trkpt lat="42.4370585940778255462646484375" lon="-8.64835004322230815887451171875">
        <ele>-4.80000019073486328125</ele>
        <time>2022-11-01T10:10:24.000Z</time>
      </trkpt>
      <trkpt lat="42.4370813928544521331787109375" lon="-8.6483375541865825653076171875">
        <ele>-4.80000019073486328125</ele>
        <time>2022-11-01T10:10:25.000Z</time>
      </trkpt>
      <trkpt lat="42.43710259906947612762451171875" lon="-8.64832305349409580230712890625">
        <ele>-4.80000019073486328125</ele>
        <time>2022-11-01T10:10:26.000Z</time>
      </trkpt>
      <trkpt lat="42.4371179379522800445556640625" lon="-8.64831316284835338592529296875">
        <ele>-4.80000019073486328125</ele>
        <time>2022-11-01T10:10:27.000Z</time>
      </trkpt>
      <trkpt lat="42.437133528292179107666015625" lon="-8.64830528385937213897705078125">
        <ele>-4.80000019073486328125</ele>
        <time>2022-11-01T10:10:28.000Z</time>
      </trkpt>
      <trkpt lat="42.43714702315628528594970703125" lon="-8.648297153413295745849609375">
        <ele>-4.599999904632568359375</ele>
        <time>2022-11-01T10:10:29.000Z</time>
      </trkpt>
      <trkpt lat="42.43716470897197723388671875" lon="-8.6482879333198070526123046875">
        <ele>-4.599999904632568359375</ele>
        <time>2022-11-01T10:10:30.000Z</time>
      </trkpt>
      <trkpt lat="42.43718842975795269012451171875" lon="-8.6482778750360012054443359375">
        <ele>-4.599999904632568359375</ele>
        <time>2022-11-01T10:10:31.000Z</time>
      </trkpt>
      <trkpt lat="42.437220700085163116455078125" lon="-8.64827209152281284332275390625">
        <ele>-4.599999904632568359375</ele>
        <time>2022-11-01T10:10:32.000Z</time>
      </trkpt>
      <trkpt lat="42.43725330568850040435791015625" lon="-8.64827779121696949005126953125">
        <ele>-4.400000095367431640625</ele>
        <time>2022-11-01T10:10:33.000Z</time>
      </trkpt>
      <trkpt lat="42.43728138506412506103515625" lon="-8.648292124271392822265625">
        <ele>-4.400000095367431640625</ele>
        <time>2022-11-01T10:10:34.000Z</time>
      </trkpt>
      <trkpt lat="42.437307871878147125244140625" lon="-8.6483160965144634246826171875">
        <ele>-4.400000095367431640625</ele>
        <time>2022-11-01T10:10:35.000Z</time>
      </trkpt>
      <trkpt lat="42.43733209557831287384033203125" lon="-8.64835222251713275909423828125">
        <ele>-4.400000095367431640625</ele>
        <time>2022-11-01T10:10:36.000Z</time>
      </trkpt>
      <trkpt lat="42.43735640309751033782958984375" lon="-8.64841206930577754974365234375">
        <ele>-4.400000095367431640625</ele>
        <time>2022-11-01T10:10:37.000Z</time>
      </trkpt>
      <trkpt lat="42.43736210279166698455810546875" lon="-8.648460097610950469970703125">
        <ele>-4.19999980926513671875</ele>
        <time>2022-11-01T10:10:38.000Z</time>
      </trkpt>
      <trkpt lat="42.43736512027680873870849609375" lon="-8.64852421917021274566650390625">
        <ele>-4</ele>
        <time>2022-11-01T10:10:39.000Z</time>
      </trkpt>
      <trkpt lat="42.4373638629913330078125" lon="-8.64859052002429962158203125">
        <ele>-4</ele>
        <time>2022-11-01T10:10:40.000Z</time>
      </trkpt>
      <trkpt lat="42.43736059404909610748291015625" lon="-8.64865866489708423614501953125">
        <ele>-4</ele>
        <time>2022-11-01T10:10:41.000Z</time>
      </trkpt>
      <trkpt lat="42.4373563192784786224365234375" lon="-8.64873108454048633575439453125">
        <ele>-4</ele>
        <time>2022-11-01T10:10:42.000Z</time>
      </trkpt>
      <trkpt lat="42.437354810535907745361328125" lon="-8.6488055996596813201904296875">
        <ele>-3.7999999523162841796875</ele>
        <time>2022-11-01T10:10:43.000Z</time>
      </trkpt>
      <trkpt lat="42.43735690601170063018798828125" lon="-8.6488776840269565582275390625">
        <ele>-3.7999999523162841796875</ele>
        <time>2022-11-01T10:10:44.000Z</time>
      </trkpt>
      <trkpt lat="42.4373606778681278228759765625" lon="-8.64894683472812175750732421875">
        <ele>-3.599999904632568359375</ele>
        <time>2022-11-01T10:10:45.000Z</time>
      </trkpt>
      <trkpt lat="42.4373660422861576080322265625" lon="-8.64901338703930377960205078125">
        <ele>-3.599999904632568359375</ele>
        <time>2022-11-01T10:10:46.000Z</time>
      </trkpt>
      <trkpt lat="42.43737400509417057037353515625" lon="-8.64907776005566120147705078125">
        <ele>-3.400000095367431640625</ele>
        <time>2022-11-01T10:10:47.000Z</time>
      </trkpt>
      <trkpt lat="42.437385655939579010009765625" lon="-8.649138696491718292236328125">
        <ele>-3.400000095367431640625</ele>
        <time>2022-11-01T10:10:48.000Z</time>
      </trkpt>
      <trkpt lat="42.43739764206111431121826171875" lon="-8.64919644780457019805908203125">
        <ele>-3.400000095367431640625</ele>
        <time>2022-11-01T10:10:49.000Z</time>
      </trkpt>
      <trkpt lat="42.4374076165258884429931640625" lon="-8.649255372583866119384765625">
        <ele>-3</ele>
        <time>2022-11-01T10:10:50.000Z</time>
      </trkpt>
      <trkpt lat="42.43741842918097972869873046875" lon="-8.6493155546486377716064453125">
        <ele>-2.7999999523162841796875</ele>
        <time>2022-11-01T10:10:51.000Z</time>
      </trkpt>
      <trkpt lat="42.43743066675961017608642578125" lon="-8.6493785865604877471923828125">
        <ele>-2</ele>
        <time>2022-11-01T10:10:52.000Z</time>
      </trkpt>
      <trkpt lat="42.4374428205192089080810546875" lon="-8.6494412831962108612060546875">
        <ele>-2</ele>
        <time>2022-11-01T10:10:53.000Z</time>
      </trkpt>
      <trkpt lat="42.43745547719299793243408203125" lon="-8.6495046503841876983642578125">
        <ele>-1.60000002384185791015625</ele>
        <time>2022-11-01T10:10:54.000Z</time>
      </trkpt>
      <trkpt lat="42.43746704421937465667724609375" lon="-8.64956810139119625091552734375">
        <ele>-1.2000000476837158203125</ele>
        <time>2022-11-01T10:10:55.000Z</time>
      </trkpt>
      <trkpt lat="42.4374783597886562347412109375" lon="-8.64963247440755367279052734375">
        <ele>-0.60000002384185791015625</ele>
        <time>2022-11-01T10:10:56.000Z</time>
      </trkpt>
      <trkpt lat="42.4374912679195404052734375" lon="-8.64969735033810138702392578125">
        <ele>-0.60000002384185791015625</ele>
        <time>2022-11-01T10:10:57.000Z</time>
      </trkpt>
      <trkpt lat="42.4375011585652828216552734375" lon="-8.6497618071734905242919921875">
        <ele>0</ele>
        <time>2022-11-01T10:10:58.000Z</time>
      </trkpt>
      <trkpt lat="42.4375112168490886688232421875" lon="-8.64982743747532367706298828125">
        <ele>0</ele>
        <time>2022-11-01T10:10:59.000Z</time>
      </trkpt>
      <trkpt lat="42.43752320297062397003173828125" lon="-8.6498920619487762451171875">
        <ele>0</ele>
        <time>2022-11-01T10:11:00.000Z</time>
      </trkpt>
      <trkpt lat="42.43753409944474697113037109375" lon="-8.6499552614986896514892578125">
        <ele>0.20000000298023223876953125</ele>
        <time>2022-11-01T10:11:01.000Z</time>
      </trkpt>
      <trkpt lat="42.4375400505959987640380859375" lon="-8.65001586265861988067626953125">
        <ele>0.60000002384185791015625</ele>
        <time>2022-11-01T10:11:02.000Z</time>
      </trkpt>
      <trkpt lat="42.4375440739095211029052734375" lon="-8.650072775781154632568359375">
        <ele>0.60000002384185791015625</ele>
        <time>2022-11-01T10:11:03.000Z</time>
      </trkpt>
      <trkpt lat="42.43755094707012176513671875" lon="-8.6501319520175457000732421875">
        <ele>0.60000002384185791015625</ele>
        <time>2022-11-01T10:11:04.000Z</time>
      </trkpt>
      <trkpt lat="42.4375598318874835968017578125" lon="-8.6502073891460895538330078125">
        <ele>0.60000002384185791015625</ele>
        <time>2022-11-01T10:11:05.000Z</time>
      </trkpt>
      <trkpt lat="42.437563352286815643310546875" lon="-8.650271929800510406494140625">
        <ele>0.800000011920928955078125</ele>
        <time>2022-11-01T10:11:06.000Z</time>
      </trkpt>
      <trkpt lat="42.43756972253322601318359375" lon="-8.65033990703523159027099609375">
        <ele>1.2000000476837158203125</ele>
        <time>2022-11-01T10:11:07.000Z</time>
      </trkpt>
      <trkpt lat="42.43757433257997035980224609375" lon="-8.65040771663188934326171875">
        <ele>1.2000000476837158203125</ele>
        <time>2022-11-01T10:11:08.000Z</time>
      </trkpt>
      <trkpt lat="42.43757718242704868316650390625" lon="-8.6504741013050079345703125">
        <ele>1.2000000476837158203125</ele>
        <time>2022-11-01T10:11:09.000Z</time>
      </trkpt>
      <trkpt lat="42.4375806190073490142822265625" lon="-8.65054224617779254913330078125">
        <ele>1.39999997615814208984375</ele>
        <time>2022-11-01T10:11:10.000Z</time>
      </trkpt>
      <trkpt lat="42.43758338503539562225341796875" lon="-8.65061215125024318695068359375">
        <ele>1.39999997615814208984375</ele>
        <time>2022-11-01T10:11:11.000Z</time>
      </trkpt>
      <trkpt lat="42.4375869892537593841552734375" lon="-8.6506841517984867095947265625">
        <ele>1.7999999523162841796875</ele>
        <time>2022-11-01T10:11:12.000Z</time>
      </trkpt>
      <trkpt lat="42.43758824653923511505126953125" lon="-8.65075749345123767852783203125">
        <ele>1.7999999523162841796875</ele>
        <time>2022-11-01T10:11:13.000Z</time>
      </trkpt>
      <trkpt lat="42.4375878274440765380859375" lon="-8.650836534798145294189453125">
        <ele>1.39999997615814208984375</ele>
        <time>2022-11-01T10:11:14.000Z</time>
      </trkpt>
      <trkpt lat="42.4375836364924907684326171875" lon="-8.6509198509156703948974609375">
        <ele>1.39999997615814208984375</ele>
        <time>2022-11-01T10:11:15.000Z</time>
      </trkpt>
      <trkpt lat="42.43757835589349269866943359375" lon="-8.651006855070590972900390625">
        <ele>1.2000000476837158203125</ele>
        <time>2022-11-01T10:11:16.000Z</time>
      </trkpt>
      <trkpt lat="42.437570057809352874755859375" lon="-8.65109763108193874359130859375">
        <ele>1.2000000476837158203125</ele>
        <time>2022-11-01T10:11:17.000Z</time>
      </trkpt>
      <trkpt lat="42.4375594966113567352294921875" lon="-8.65119092166423797607421875">
        <ele>1.2000000476837158203125</ele>
        <time>2022-11-01T10:11:18.000Z</time>
      </trkpt>
      <trkpt lat="42.437546253204345703125" lon="-8.6512873135507106781005859375">
        <ele>0.800000011920928955078125</ele>
        <time>2022-11-01T10:11:19.000Z</time>
      </trkpt>
      <trkpt lat="42.43752907030284404754638671875" lon="-8.65138781256973743438720703125">
        <ele>0.60000002384185791015625</ele>
        <time>2022-11-01T10:11:20.000Z</time>
      </trkpt>
      <trkpt lat="42.43750828318297863006591796875" lon="-8.6514908261597156524658203125">
        <ele>0</ele>
        <time>2022-11-01T10:11:21.000Z</time>
      </trkpt>
      <trkpt lat="42.43748397566378116607666015625" lon="-8.65159266628324985504150390625">
        <ele>-0.60000002384185791015625</ele>
        <time>2022-11-01T10:11:22.000Z</time>
      </trkpt>
      <trkpt lat="42.437462098896503448486328125" lon="-8.6516913212835788726806640625">
        <ele>-1</ele>
        <time>2022-11-01T10:11:23.000Z</time>
      </trkpt>
      <trkpt lat="42.43744826875627040863037109375" lon="-8.65179047919809818267822265625">
        <ele>-1.2000000476837158203125</ele>
        <time>2022-11-01T10:11:24.000Z</time>
      </trkpt>
      <trkpt lat="42.43744902312755584716796875" lon="-8.65189156495034694671630859375">
        <ele>-2</ele>
        <time>2022-11-01T10:11:25.000Z</time>
      </trkpt>
      <trkpt lat="42.43747877888381481170654296875" lon="-8.65198477171361446380615234375">
        <ele>-2.2000000476837158203125</ele>
        <time>2022-11-01T10:11:26.000Z</time>
      </trkpt>
      <trkpt lat="42.4375326745212078094482421875" lon="-8.6520634777843952178955078125">
        <ele>-2.599999904632568359375</ele>
        <time>2022-11-01T10:11:27.000Z</time>
      </trkpt>
      <trkpt lat="42.43759864009916782379150390625" lon="-8.65211435593664646148681640625">
        <ele>-3</ele>
        <time>2022-11-01T10:11:28.000Z</time>
      </trkpt>
      <trkpt lat="42.437674999237060546875" lon="-8.65214771591126918792724609375">
        <ele>-3.400000095367431640625</ele>
        <time>2022-11-01T10:11:29.000Z</time>
      </trkpt>
      <trkpt lat="42.4377522803843021392822265625" lon="-8.65217286162078380584716796875">
        <ele>-4</ele>
        <time>2022-11-01T10:11:30.000Z</time>
      </trkpt>
      <trkpt lat="42.43783132173120975494384765625" lon="-8.65219599567353725433349609375">
        <ele>-4.400000095367431640625</ele>
        <time>2022-11-01T10:11:31.000Z</time>
      </trkpt>
      <trkpt lat="42.4379115365445613861083984375" lon="-8.65221577696502208709716796875">
        <ele>-4.80000019073486328125</ele>
        <time>2022-11-01T10:11:32.000Z</time>
      </trkpt>
      <trkpt lat="42.43799091316759586334228515625" lon="-8.65222801454365253448486328125">
        <ele>-4.80000019073486328125</ele>
        <time>2022-11-01T10:11:33.000Z</time>
      </trkpt>
      <trkpt lat="42.4380701221525669097900390625" lon="-8.65223052911460399627685546875">
        <ele>-5</ele>
        <time>2022-11-01T10:11:34.000Z</time>
      </trkpt>
      <trkpt lat="42.4381455592811107635498046875" lon="-8.6522203870117664337158203125">
        <ele>-5</ele>
        <time>2022-11-01T10:11:35.000Z</time>
      </trkpt>
      <trkpt lat="42.43821672163903713226318359375" lon="-8.65219297818839550018310546875">
        <ele>-5.19999980926513671875</ele>
        <time>2022-11-01T10:11:36.000Z</time>
      </trkpt>
      <trkpt lat="42.4382810108363628387451171875" lon="-8.65215408615767955780029296875">
        <ele>-5.19999980926513671875</ele>
        <time>2022-11-01T10:11:37.000Z</time>
      </trkpt>
      <trkpt lat="42.43833876214921474456787109375" lon="-8.65210379473865032196044921875">
        <ele>-5.19999980926513671875</ele>
        <time>2022-11-01T10:11:38.000Z</time>
      </trkpt>
      <trkpt lat="42.43838922120630741119384765625" lon="-8.6520480550825595855712890625">
        <ele>-5</ele>
        <time>2022-11-01T10:11:39.000Z</time>
      </trkpt>
      <trkpt lat="42.4384354054927825927734375" lon="-8.65198913030326366424560546875">
        <ele>-5</ele>
        <time>2022-11-01T10:11:40.000Z</time>
      </trkpt>
      <trkpt lat="42.4384791590273380279541015625" lon="-8.6519303731620311737060546875">
        <ele>-4.80000019073486328125</ele>
        <time>2022-11-01T10:11:41.000Z</time>
      </trkpt>
      <trkpt lat="42.43851930834352970123291015625" lon="-8.6518727056682109832763671875">
        <ele>-4.599999904632568359375</ele>
        <time>2022-11-01T10:11:42.000Z</time>
      </trkpt>
      <trkpt lat="42.43855769746005535125732421875" lon="-8.6518160440027713775634765625">
        <ele>-4</ele>
        <time>2022-11-01T10:11:43.000Z</time>
      </trkpt>
      <trkpt lat="42.43859524838626384735107421875" lon="-8.65176013670861721038818359375">
        <ele>-3.599999904632568359375</ele>
        <time>2022-11-01T10:11:44.000Z</time>
      </trkpt>
      <trkpt lat="42.4386323802173137664794921875" lon="-8.6517043970525264739990234375">
        <ele>-3.2000000476837158203125</ele>
        <time>2022-11-01T10:11:45.000Z</time>
      </trkpt>
      <trkpt lat="42.4386702664196491241455078125" lon="-8.65165066905319690704345703125">
        <ele>-3.2000000476837158203125</ele>
        <time>2022-11-01T10:11:46.000Z</time>
      </trkpt>
      <trkpt lat="42.4387068115174770355224609375" lon="-8.65159702487289905548095703125">
        <ele>-2.599999904632568359375</ele>
        <time>2022-11-01T10:11:47.000Z</time>
      </trkpt>
      <trkpt lat="42.43874226696789264678955078125" lon="-8.65154338069260120391845703125">
        <ele>-2.2000000476837158203125</ele>
        <time>2022-11-01T10:11:48.000Z</time>
      </trkpt>
      <trkpt lat="42.43877814151346683502197265625" lon="-8.65149342454969882965087890625">
        <ele>-1.7999999523162841796875</ele>
        <time>2022-11-01T10:11:49.000Z</time>
      </trkpt>
      <trkpt lat="42.4388140998780727386474609375" lon="-8.6514437198638916015625">
        <ele>-1.60000002384185791015625</ele>
        <time>2022-11-01T10:11:50.000Z</time>
      </trkpt>
      <trkpt lat="42.4388496391475200653076171875" lon="-8.65139233879745006561279296875">
        <ele>-1.2000000476837158203125</ele>
        <time>2022-11-01T10:11:51.000Z</time>
      </trkpt>
      <trkpt lat="42.4388875253498554229736328125" lon="-8.65133936516940593719482421875">
        <ele>-0.4000000059604644775390625</ele>
        <time>2022-11-01T10:11:52.000Z</time>
      </trkpt>
      <trkpt lat="42.4389270879328250885009765625" lon="-8.651285134255886077880859375">
        <ele>0</ele>
        <time>2022-11-01T10:11:53.000Z</time>
      </trkpt>
      <trkpt lat="42.43896656669676303863525390625" lon="-8.65122989751398563385009765625">
        <ele>0.4000000059604644775390625</ele>
        <time>2022-11-01T10:11:54.000Z</time>
      </trkpt>
      <trkpt lat="42.4390058778226375579833984375" lon="-8.65117524750530719757080078125">
        <ele>0.60000002384185791015625</ele>
        <time>2022-11-01T10:11:55.000Z</time>
      </trkpt>
      <trkpt lat="42.43904317729175090789794921875" lon="-8.65112059749662876129150390625">
        <ele>1</ele>
        <time>2022-11-01T10:11:56.000Z</time>
      </trkpt>
      <trkpt lat="42.43908056057989597320556640625" lon="-8.65106712095439434051513671875">
        <ele>1.2000000476837158203125</ele>
        <time>2022-11-01T10:11:57.000Z</time>
      </trkpt>
      <trkpt lat="42.439120709896087646484375" lon="-8.65101523697376251220703125">
        <ele>1.39999997615814208984375</ele>
        <time>2022-11-01T10:11:58.000Z</time>
      </trkpt>
      <trkpt lat="42.4391614459455013275146484375" lon="-8.6509609222412109375">
        <ele>1.60000002384185791015625</ele>
        <time>2022-11-01T10:11:59.000Z</time>
      </trkpt>
      <trkpt lat="42.4392057023942470550537109375" lon="-8.65090434439480304718017578125">
        <ele>1.60000002384185791015625</ele>
        <time>2022-11-01T10:12:00.000Z</time>
      </trkpt>
      <trkpt lat="42.43925322778522968292236328125" lon="-8.65084466524422168731689453125">
        <ele>1.7999999523162841796875</ele>
        <time>2022-11-01T10:12:01.000Z</time>
      </trkpt>
      <trkpt lat="42.43930242955684661865234375" lon="-8.65078314207494258880615234375">
        <ele>1.7999999523162841796875</ele>
        <time>2022-11-01T10:12:02.000Z</time>
      </trkpt>
      <trkpt lat="42.4393554031848907470703125" lon="-8.65071977488696575164794921875">
        <ele>2</ele>
        <time>2022-11-01T10:12:03.000Z</time>
      </trkpt>
      <trkpt lat="42.43941374123096466064453125" lon="-8.65065372548997402191162109375">
        <ele>2</ele>
        <time>2022-11-01T10:12:04.000Z</time>
      </trkpt>
      <trkpt lat="42.43947467766702175140380859375" lon="-8.65058465860784053802490234375">
        <ele>2</ele>
        <time>2022-11-01T10:12:05.000Z</time>
      </trkpt>
      <trkpt lat="42.43953804485499858856201171875" lon="-8.6505141668021678924560546875">
        <ele>2</ele>
        <time>2022-11-01T10:12:06.000Z</time>
      </trkpt>
      <trkpt lat="42.4396040104329586029052734375" lon="-8.65044367499649524688720703125">
        <ele>1.7999999523162841796875</ele>
        <time>2022-11-01T10:12:07.000Z</time>
      </trkpt>
      <trkpt lat="42.439673580229282379150390625" lon="-8.650372512638568878173828125">
        <ele>1.7999999523162841796875</ele>
        <time>2022-11-01T10:12:08.000Z</time>
      </trkpt>
      <trkpt lat="42.4397465027868747711181640625" lon="-8.65030118264257907867431640625">
        <ele>1.7999999523162841796875</ele>
        <time>2022-11-01T10:12:09.000Z</time>
      </trkpt>
      <trkpt lat="42.43982411921024322509765625" lon="-8.65023027174174785614013671875">
        <ele>1.39999997615814208984375</ele>
        <time>2022-11-01T10:12:10.000Z</time>
      </trkpt>
      <trkpt lat="42.43990316055715084075927734375" lon="-8.65015869028866291046142578125">
        <ele>0.60000002384185791015625</ele>
        <time>2022-11-01T10:12:11.000Z</time>
      </trkpt>
      <trkpt lat="42.43998480029404163360595703125" lon="-8.65008811466395854949951171875">
        <ele>0.20000000298023223876953125</ele>
        <time>2022-11-01T10:12:12.000Z</time>
      </trkpt>
      <trkpt lat="42.440067194402217864990234375" lon="-8.65001904778182506561279296875">
        <ele>-0.20000000298023223876953125</ele>
        <time>2022-11-01T10:12:13.000Z</time>
      </trkpt>
      <trkpt lat="42.4401508457958698272705078125" lon="-8.64995039999485015869140625">
        <ele>-0.800000011920928955078125</ele>
        <time>2022-11-01T10:12:14.000Z</time>
      </trkpt>
      <trkpt lat="42.440233491361141204833984375" lon="-8.6498828418552875518798828125">
        <ele>-1.39999997615814208984375</ele>
        <time>2022-11-01T10:12:15.000Z</time>
      </trkpt>
      <trkpt lat="42.44031228125095367431640625" lon="-8.6498142778873443603515625">
        <ele>-2</ele>
        <time>2022-11-01T10:12:16.000Z</time>
      </trkpt>
      <trkpt lat="42.4403905682265758514404296875" lon="-8.6497483961284160614013671875">
        <ele>-2</ele>
        <time>2022-11-01T10:12:17.000Z</time>
      </trkpt>
      <trkpt lat="42.44046919047832489013671875" lon="-8.64968360401690006256103515625">
        <ele>-2.7999999523162841796875</ele>
        <time>2022-11-01T10:12:18.000Z</time>
      </trkpt>
      <trkpt lat="42.44054538197815418243408203125" lon="-8.64961738698184490203857421875">
        <ele>-3</ele>
        <time>2022-11-01T10:12:19.000Z</time>
      </trkpt>
      <trkpt lat="42.44062207639217376708984375" lon="-8.64955368451774120330810546875">
        <ele>-3.599999904632568359375</ele>
        <time>2022-11-01T10:12:20.000Z</time>
      </trkpt>
      <trkpt lat="42.44069960899651050567626953125" lon="-8.64949249662458896636962890625">
        <ele>-3.7999999523162841796875</ele>
        <time>2022-11-01T10:12:21.000Z</time>
      </trkpt>
      <trkpt lat="42.440772950649261474609375" lon="-8.64942996762692928314208984375">
        <ele>-4</ele>
        <time>2022-11-01T10:12:22.000Z</time>
      </trkpt>
      <trkpt lat="42.440843693912029266357421875" lon="-8.649365343153476715087890625">
        <ele>-4.400000095367431640625</ele>
        <time>2022-11-01T10:12:23.000Z</time>
      </trkpt>
      <trkpt lat="42.4409146048128604888916015625" lon="-8.6493034847080707550048828125">
        <ele>-4.400000095367431640625</ele>
        <time>2022-11-01T10:12:24.000Z</time>
      </trkpt>
      <trkpt lat="42.44098409079015254974365234375" lon="-8.64924422465264797210693359375">
        <ele>-4.400000095367431640625</ele>
        <time>2022-11-01T10:12:25.000Z</time>
      </trkpt>
      <trkpt lat="42.44105299003422260284423828125" lon="-8.6491898261010646820068359375">
        <ele>-4.400000095367431640625</ele>
        <time>2022-11-01T10:12:26.000Z</time>
      </trkpt>
      <trkpt lat="42.44112339802086353302001953125" lon="-8.649142719805240631103515625">
        <ele>-4.400000095367431640625</ele>
        <time>2022-11-01T10:12:27.000Z</time>
      </trkpt>
      <trkpt lat="42.441194392740726470947265625" lon="-8.64910282194614410400390625">
        <ele>-4.19999980926513671875</ele>
        <time>2022-11-01T10:12:28.000Z</time>
      </trkpt>
      <trkpt lat="42.44126505218446254730224609375" lon="-8.64906770177185535430908203125">
        <ele>-4.19999980926513671875</ele>
        <time>2022-11-01T10:12:29.000Z</time>
      </trkpt>
      <trkpt lat="42.4413357116281986236572265625" lon="-8.64903400652110576629638671875">
        <ele>-4.19999980926513671875</ele>
        <time>2022-11-01T10:12:30.000Z</time>
      </trkpt>
      <trkpt lat="42.44140586815774440765380859375" lon="-8.648999892175197601318359375">
        <ele>-3.599999904632568359375</ele>
        <time>2022-11-01T10:12:31.000Z</time>
      </trkpt>
      <trkpt lat="42.44147501885890960693359375" lon="-8.6489712260663509368896484375">
        <ele>-3.599999904632568359375</ele>
        <time>2022-11-01T10:12:32.000Z</time>
      </trkpt>
      <trkpt lat="42.441543079912662506103515625" lon="-8.6489467509090900421142578125">
        <ele>-3.2000000476837158203125</ele>
        <time>2022-11-01T10:12:33.000Z</time>
      </trkpt>
      <trkpt lat="42.44161005131900310516357421875" lon="-8.6489216051995754241943359375">
        <ele>-3</ele>
        <time>2022-11-01T10:12:34.000Z</time>
      </trkpt>
      <trkpt lat="42.4416766874492168426513671875" lon="-8.648898303508758544921875">
        <ele>-3</ele>
        <time>2022-11-01T10:12:35.000Z</time>
      </trkpt>
      <trkpt lat="42.44174189865589141845703125" lon="-8.64887776784598827362060546875">
        <ele>-2.7999999523162841796875</ele>
        <time>2022-11-01T10:12:36.000Z</time>
      </trkpt>
      <trkpt lat="42.4418067745864391326904296875" lon="-8.6488595791161060333251953125">
        <ele>-2.599999904632568359375</ele>
        <time>2022-11-01T10:12:37.000Z</time>
      </trkpt>
      <trkpt lat="42.4418698064982891082763671875" lon="-8.6488451622426509857177734375">
        <ele>-2.400000095367431640625</ele>
        <time>2022-11-01T10:12:38.000Z</time>
      </trkpt>
      <trkpt lat="42.44193124584853649139404296875" lon="-8.64883149974048137664794921875">
        <ele>-2</ele>
        <time>2022-11-01T10:12:39.000Z</time>
      </trkpt>
      <trkpt lat="42.441991008818149566650390625" lon="-8.64881758578121662139892578125">
        <ele>-2</ele>
        <time>2022-11-01T10:12:40.000Z</time>
      </trkpt>
      <trkpt lat="42.4420518614351749420166015625" lon="-8.6488019116222858428955078125">
        <ele>-2</ele>
        <time>2022-11-01T10:12:41.000Z</time>
      </trkpt>
      <trkpt lat="42.442117072641849517822265625" lon="-8.6487896740436553955078125">
        <ele>-1.7999999523162841796875</ele>
        <time>2022-11-01T10:12:42.000Z</time>
      </trkpt>
      <trkpt lat="42.44218287058174610137939453125" lon="-8.648781292140483856201171875">
        <ele>-1.39999997615814208984375</ele>
        <time>2022-11-01T10:12:43.000Z</time>
      </trkpt>
      <trkpt lat="42.442249841988086700439453125" lon="-8.64877316169440746307373046875">
        <ele>-1.39999997615814208984375</ele>
        <time>2022-11-01T10:12:44.000Z</time>
      </trkpt>
      <trkpt lat="42.44231647811830043792724609375" lon="-8.64876762963831424713134765625">
        <ele>-1.2000000476837158203125</ele>
        <time>2022-11-01T10:12:45.000Z</time>
      </trkpt>
      <trkpt lat="42.442383281886577606201171875" lon="-8.64876377396285533905029296875">
        <ele>-0.800000011920928955078125</ele>
        <time>2022-11-01T10:12:46.000Z</time>
      </trkpt>
      <trkpt lat="42.4424505047500133514404296875" lon="-8.6487616784870624542236328125">
        <ele>-0.60000002384185791015625</ele>
        <time>2022-11-01T10:12:47.000Z</time>
      </trkpt>
      <trkpt lat="42.44251705706119537353515625" lon="-8.64876008592545986175537109375">
        <ele>-0.60000002384185791015625</ele>
        <time>2022-11-01T10:12:48.000Z</time>
      </trkpt>
      <trkpt lat="42.44258168153464794158935546875" lon="-8.6487640254199504852294921875">
        <ele>-0.20000000298023223876953125</ele>
        <time>2022-11-01T10:12:49.000Z</time>
      </trkpt>
      <trkpt lat="42.44263247586786746978759765625" lon="-8.6487677134573459625244140625">
        <ele>-0.20000000298023223876953125</ele>
        <time>2022-11-01T10:12:50.000Z</time>
      </trkpt>
      <trkpt lat="42.44271076284348964691162109375" lon="-8.6487730778753757476806640625">
        <ele>0.20000000298023223876953125</ele>
        <time>2022-11-01T10:12:51.000Z</time>
      </trkpt>
      <trkpt lat="42.44277480058372020721435546875" lon="-8.648778609931468963623046875">
        <ele>0.20000000298023223876953125</ele>
        <time>2022-11-01T10:12:52.000Z</time>
      </trkpt>
      <trkpt lat="42.44283758103847503662109375" lon="-8.64878833293914794921875">
        <ele>0.20000000298023223876953125</ele>
        <time>2022-11-01T10:12:53.000Z</time>
      </trkpt>
      <trkpt lat="42.4428991042077541351318359375" lon="-8.64879906177520751953125">
        <ele>0.60000002384185791015625</ele>
        <time>2022-11-01T10:12:54.000Z</time>
      </trkpt>
      <trkpt lat="42.44296054355800151824951171875" lon="-8.64881322719156742095947265625">
        <ele>0.60000002384185791015625</ele>
        <time>2022-11-01T10:12:55.000Z</time>
      </trkpt>
      <trkpt lat="42.44302223436534404754638671875" lon="-8.6488257162272930145263671875">
        <ele>0.800000011920928955078125</ele>
        <time>2022-11-01T10:12:56.000Z</time>
      </trkpt>
      <trkpt lat="42.4430845119059085845947265625" lon="-8.6488391272723674774169921875">
        <ele>0.800000011920928955078125</ele>
        <time>2022-11-01T10:12:57.000Z</time>
      </trkpt>
      <trkpt lat="42.4431455321609973907470703125" lon="-8.64885731600224971771240234375">
        <ele>1</ele>
        <time>2022-11-01T10:12:58.000Z</time>
      </trkpt>
      <trkpt lat="42.4432058818638324737548828125" lon="-8.64887340925633907318115234375">
        <ele>1.2000000476837158203125</ele>
        <time>2022-11-01T10:12:59.000Z</time>
      </trkpt>
      <trkpt lat="42.44326732121407985687255859375" lon="-8.64888296462595462799072265625">
        <ele>1.39999997615814208984375</ele>
        <time>2022-11-01T10:13:00.000Z</time>
      </trkpt>
      <trkpt lat="42.4433272518217563629150390625" lon="-8.64888556301593780517578125">
        <ele>1.39999997615814208984375</ele>
        <time>2022-11-01T10:13:01.000Z</time>
      </trkpt>
      <trkpt lat="42.443385757505893707275390625" lon="-8.64888195879757404327392578125">
        <ele>1.7999999523162841796875</ele>
        <time>2022-11-01T10:13:02.000Z</time>
      </trkpt>
      <trkpt lat="42.44344635866582393646240234375" lon="-8.6488746665418148040771484375">
        <ele>2</ele>
        <time>2022-11-01T10:13:03.000Z</time>
      </trkpt>
      <trkpt lat="42.4435069598257541656494140625" lon="-8.64886938594281673431396484375">
        <ele>2</ele>
        <time>2022-11-01T10:13:04.000Z</time>
      </trkpt>
      <trkpt lat="42.443566806614398956298828125" lon="-8.64886871539056301116943359375">
        <ele>2.2000000476837158203125</ele>
        <time>2022-11-01T10:13:05.000Z</time>
      </trkpt>
      <trkpt lat="42.44362506084144115447998046875" lon="-8.64888061769306659698486328125">
        <ele>2.400000095367431640625</ele>
        <time>2022-11-01T10:13:06.000Z</time>
      </trkpt>
      <trkpt lat="42.44368021376430988311767578125" lon="-8.64890995435416698455810546875">
        <ele>2.599999904632568359375</ele>
        <time>2022-11-01T10:13:07.000Z</time>
      </trkpt>
      <trkpt lat="42.44372748769819736480712890625" lon="-8.64895789884030818939208984375">
        <ele>2.7999999523162841796875</ele>
        <time>2022-11-01T10:13:08.000Z</time>
      </trkpt>
      <trkpt lat="42.44376973249018192291259765625" lon="-8.64901657216250896453857421875">
        <ele>3</ele>
        <time>2022-11-01T10:13:09.000Z</time>
      </trkpt>
      <trkpt lat="42.44381013326346874237060546875" lon="-8.64907926879823207855224609375">
        <ele>3</ele>
        <time>2022-11-01T10:13:10.000Z</time>
      </trkpt>
      <trkpt lat="42.44385086931288242340087890625" lon="-8.64914196543395519256591796875">
        <ele>3.2000000476837158203125</ele>
        <time>2022-11-01T10:13:11.000Z</time>
      </trkpt>
      <trkpt lat="42.44389847852289676666259765625" lon="-8.64919669926166534423828125">
        <ele>3.2000000476837158203125</ele>
        <time>2022-11-01T10:13:12.000Z</time>
      </trkpt>
      <trkpt lat="42.44395094923675060272216796875" lon="-8.64924154244363307952880859375">
        <ele>3.2000000476837158203125</ele>
        <time>2022-11-01T10:13:13.000Z</time>
      </trkpt>
      <trkpt lat="42.44400392286479473114013671875" lon="-8.64928227849304676055908203125">
        <ele>3.2000000476837158203125</ele>
        <time>2022-11-01T10:13:14.000Z</time>
      </trkpt>
      <trkpt lat="42.44405790232121944427490234375" lon="-8.64932184107601642608642578125">
        <ele>3.2000000476837158203125</ele>
        <time>2022-11-01T10:13:15.000Z</time>
      </trkpt>
      <trkpt lat="42.444114983081817626953125" lon="-8.649357296526432037353515625">
        <ele>3.599999904632568359375</ele>
        <time>2022-11-01T10:13:16.000Z</time>
      </trkpt>
      <trkpt lat="42.4441728182137012481689453125" lon="-8.6493919976055622100830078125">
        <ele>3.599999904632568359375</ele>
        <time>2022-11-01T10:13:17.000Z</time>
      </trkpt>
      <trkpt lat="42.4442294798791408538818359375" lon="-8.64942695014178752899169921875">
        <ele>3.7999999523162841796875</ele>
        <time>2022-11-01T10:13:18.000Z</time>
      </trkpt>
      <trkpt lat="42.4442858062684535980224609375" lon="-8.649462573230266571044921875">
        <ele>4</ele>
        <time>2022-11-01T10:13:19.000Z</time>
      </trkpt>
      <trkpt lat="42.44434095919132232666015625" lon="-8.64949819631874561309814453125">
        <ele>4.19999980926513671875</ele>
        <time>2022-11-01T10:13:20.000Z</time>
      </trkpt>
      <trkpt lat="42.44439602829515933990478515625" lon="-8.6495326459407806396484375">
        <ele>4.19999980926513671875</ele>
        <time>2022-11-01T10:13:21.000Z</time>
      </trkpt>
      <trkpt lat="42.4444521032273769378662109375" lon="-8.649566173553466796875">
        <ele>4.400000095367431640625</ele>
        <time>2022-11-01T10:13:22.000Z</time>
      </trkpt>
      <trkpt lat="42.44450834579765796661376953125" lon="-8.6496005393564701080322265625">
        <ele>4.599999904632568359375</ele>
        <time>2022-11-01T10:13:23.000Z</time>
      </trkpt>
      <trkpt lat="42.44456492364406585693359375" lon="-8.6496345698833465576171875">
        <ele>4.599999904632568359375</ele>
        <time>2022-11-01T10:13:24.000Z</time>
      </trkpt>
      <trkpt lat="42.444623596966266632080078125" lon="-8.649669773876667022705078125">
        <ele>5</ele>
        <time>2022-11-01T10:13:25.000Z</time>
      </trkpt>
      <trkpt lat="42.44468352757394313812255859375" lon="-8.649703301489353179931640625">
        <ele>5</ele>
        <time>2022-11-01T10:13:26.000Z</time>
      </trkpt>
      <trkpt lat="42.44474186562001705169677734375" lon="-8.6497390083968639373779296875">
        <ele>5.19999980926513671875</ele>
        <time>2022-11-01T10:13:27.000Z</time>
      </trkpt>
      <trkpt lat="42.44480171240866184234619140625" lon="-8.64977530203759670257568359375">
        <ele>5.400000095367431640625</ele>
        <time>2022-11-01T10:13:28.000Z</time>
      </trkpt>
      <trkpt lat="42.44486155919730663299560546875" lon="-8.6498107574880123138427734375">
        <ele>5.599999904632568359375</ele>
        <time>2022-11-01T10:13:29.000Z</time>
      </trkpt>
      <trkpt lat="42.44492157362401485443115234375" lon="-8.64984621293842792510986328125">
        <ele>5.80000019073486328125</ele>
        <time>2022-11-01T10:13:30.000Z</time>
      </trkpt>
      <trkpt lat="42.4449798278510570526123046875" lon="-8.64988108165562152862548828125">
        <ele>6</ele>
        <time>2022-11-01T10:13:31.000Z</time>
      </trkpt>
      <trkpt lat="42.44503791444003582000732421875" lon="-8.6499167047441005706787109375">
        <ele>6</ele>
        <time>2022-11-01T10:13:32.000Z</time>
      </trkpt>
      <trkpt lat="42.4450958333909511566162109375" lon="-8.64995501004159450531005859375">
        <ele>6.400000095367431640625</ele>
        <time>2022-11-01T10:13:33.000Z</time>
      </trkpt>
      <trkpt lat="42.44515609927475452423095703125" lon="-8.64999121986329555511474609375">
        <ele>6.599999904632568359375</ele>
        <time>2022-11-01T10:13:34.000Z</time>
      </trkpt>
      <trkpt lat="42.44521846063435077667236328125" lon="-8.65002592094242572784423828125">
        <ele>6.599999904632568359375</ele>
        <time>2022-11-01T10:13:35.000Z</time>
      </trkpt>
      <trkpt lat="42.44528233073651790618896484375" lon="-8.650062382221221923828125">
        <ele>6.80000019073486328125</ele>
        <time>2022-11-01T10:13:36.000Z</time>
      </trkpt>
      <trkpt lat="42.4453466199338436126708984375" lon="-8.65009901113808155059814453125">
        <ele>7</ele>
        <time>2022-11-01T10:13:37.000Z</time>
      </trkpt>
      <trkpt lat="42.44541090913116931915283203125" lon="-8.65013337694108486175537109375">
        <ele>7</ele>
        <time>2022-11-01T10:13:38.000Z</time>
      </trkpt>
      <trkpt lat="42.4454748630523681640625" lon="-8.650167994201183319091796875">
        <ele>7.19999980926513671875</ele>
        <time>2022-11-01T10:13:39.000Z</time>
      </trkpt>
      <trkpt lat="42.44553965516388416290283203125" lon="-8.65020344965159893035888671875">
        <ele>7.400000095367431640625</ele>
        <time>2022-11-01T10:13:40.000Z</time>
      </trkpt>
      <trkpt lat="42.44560352526605129241943359375" lon="-8.65023731254041194915771484375">
        <ele>7.400000095367431640625</ele>
        <time>2022-11-01T10:13:41.000Z</time>
      </trkpt>
      <trkpt lat="42.445663623511791229248046875" lon="-8.65027134306728839874267578125">
        <ele>7.599999904632568359375</ele>
        <time>2022-11-01T10:13:42.000Z</time>
      </trkpt>
      <trkpt lat="42.44572623632848262786865234375" lon="-8.650306798517704010009765625">
        <ele>7.599999904632568359375</ele>
        <time>2022-11-01T10:13:43.000Z</time>
      </trkpt>
      <trkpt lat="42.4457905255258083343505859375" lon="-8.65034309215843677520751953125">
        <ele>7.599999904632568359375</ele>
        <time>2022-11-01T10:13:44.000Z</time>
      </trkpt>
      <trkpt lat="42.44585364125669002532958984375" lon="-8.6503820680081844329833984375">
        <ele>7.80000019073486328125</ele>
        <time>2022-11-01T10:13:45.000Z</time>
      </trkpt>
      <trkpt lat="42.44591851718723773956298828125" lon="-8.65041987039148807525634765625">
        <ele>8</ele>
        <time>2022-11-01T10:13:46.000Z</time>
      </trkpt>
      <trkpt lat="42.44598389603197574615478515625" lon="-8.6504531465470790863037109375">
        <ele>8</ele>
        <time>2022-11-01T10:13:47.000Z</time>
      </trkpt>
      <trkpt lat="42.446050532162189483642578125" lon="-8.65048608742654323577880859375">
        <ele>8.19999980926513671875</ele>
        <time>2022-11-01T10:13:48.000Z</time>
      </trkpt>
      <trkpt lat="42.44611750356853008270263671875" lon="-8.65051810629665851593017578125">
        <ele>8.6000003814697265625</ele>
        <time>2022-11-01T10:13:49.000Z</time>
      </trkpt>
      <trkpt lat="42.4461861513555049896240234375" lon="-8.650549538433551788330078125">
        <ele>8.6000003814697265625</ele>
        <time>2022-11-01T10:13:50.000Z</time>
      </trkpt>
      <trkpt lat="42.44625739753246307373046875" lon="-8.65057979710400104522705078125">
        <ele>8.80000019073486328125</ele>
        <time>2022-11-01T10:13:51.000Z</time>
      </trkpt>
      <trkpt lat="42.44632805697619915008544921875" lon="-8.6506090499460697174072265625">
        <ele>8.80000019073486328125</ele>
        <time>2022-11-01T10:13:52.000Z</time>
      </trkpt>
      <trkpt lat="42.44639779441058635711669921875" lon="-8.65063427947461605072021484375">
        <ele>8.80000019073486328125</ele>
        <time>2022-11-01T10:13:53.000Z</time>
      </trkpt>
      <trkpt lat="42.44646736420691013336181640625" lon="-8.65065825171768665313720703125">
        <ele>8.80000019073486328125</ele>
        <time>2022-11-01T10:13:54.000Z</time>
      </trkpt>
      <trkpt lat="42.446536682546138763427734375" lon="-8.6506797932088375091552734375">
        <ele>8.80000019073486328125</ele>
        <time>2022-11-01T10:13:55.000Z</time>
      </trkpt>
      <trkpt lat="42.4466065876185894012451171875" lon="-8.65070141851902008056640625">
        <ele>8.80000019073486328125</ele>
        <time>2022-11-01T10:13:56.000Z</time>
      </trkpt>
      <trkpt lat="42.44667808525264263153076171875" lon="-8.65072094835340976715087890625">
        <ele>8.80000019073486328125</ele>
        <time>2022-11-01T10:13:57.000Z</time>
      </trkpt>
      <trkpt lat="42.44674882851541042327880859375" lon="-8.6507374607026576995849609375">
        <ele>8.80000019073486328125</ele>
        <time>2022-11-01T10:13:58.000Z</time>
      </trkpt>
      <trkpt lat="42.44682007469236850738525390625" lon="-8.6507512070238590240478515625">
        <ele>9</ele>
        <time>2022-11-01T10:13:59.000Z</time>
      </trkpt>
      <trkpt lat="42.446891404688358306884765625" lon="-8.6507610976696014404296875">
        <ele>9</ele>
        <time>2022-11-01T10:14:00.000Z</time>
      </trkpt>
      <trkpt lat="42.44696038775146007537841796875" lon="-8.650768809020519256591796875">
        <ele>9</ele>
        <time>2022-11-01T10:14:01.000Z</time>
      </trkpt>
      <trkpt lat="42.44702995754778385162353515625" lon="-8.6507756821811199188232421875">
        <ele>9</ele>
        <time>2022-11-01T10:14:02.000Z</time>
      </trkpt>
      <trkpt lat="42.44710187427699565887451171875" lon="-8.6507817171514034271240234375">
        <ele>9</ele>
        <time>2022-11-01T10:14:03.000Z</time>
      </trkpt>
      <trkpt lat="42.4471748806536197662353515625" lon="-8.65078917704522609710693359375">
        <ele>9.19999980926513671875</ele>
        <time>2022-11-01T10:14:04.000Z</time>
      </trkpt>
      <trkpt lat="42.44724788703024387359619140625" lon="-8.65079688839614391326904296875">
        <ele>9.19999980926513671875</ele>
        <time>2022-11-01T10:14:05.000Z</time>
      </trkpt>
      <trkpt lat="42.4473207257688045501708984375" lon="-8.65080258809030055999755859375">
        <ele>9.3999996185302734375</ele>
        <time>2022-11-01T10:14:06.000Z</time>
      </trkpt>
      <trkpt lat="42.44739373214542865753173828125" lon="-8.65080694667994976043701171875">
        <ele>9.3999996185302734375</ele>
        <time>2022-11-01T10:14:07.000Z</time>
      </trkpt>
      <trkpt lat="42.44746766053140163421630859375" lon="-8.65080962888896465301513671875">
        <ele>9.3999996185302734375</ele>
        <time>2022-11-01T10:14:08.000Z</time>
      </trkpt>
      <trkpt lat="42.44754058308899402618408203125" lon="-8.650811053812503814697265625">
        <ele>9.3999996185302734375</ele>
        <time>2022-11-01T10:14:09.000Z</time>
      </trkpt>
      <trkpt lat="42.44761350564658641815185546875" lon="-8.6508082039654254913330078125">
        <ele>9.3999996185302734375</ele>
        <time>2022-11-01T10:14:10.000Z</time>
      </trkpt>
      <trkpt lat="42.44768592528998851776123046875" lon="-8.65080040879547595977783203125">
        <ele>9.3999996185302734375</ele>
        <time>2022-11-01T10:14:11.000Z</time>
      </trkpt>
      <trkpt lat="42.4477592669427394866943359375" lon="-8.6507894285023212432861328125">
        <ele>9.3999996185302734375</ele>
        <time>2022-11-01T10:14:12.000Z</time>
      </trkpt>
      <trkpt lat="42.44783319532871246337890625" lon="-8.6507746763527393341064453125">
        <ele>9.6000003814697265625</ele>
        <time>2022-11-01T10:14:13.000Z</time>
      </trkpt>
      <trkpt lat="42.4479057826101779937744140625" lon="-8.65075866691768169403076171875">
        <ele>9.80000019073486328125</ele>
        <time>2022-11-01T10:14:14.000Z</time>
      </trkpt>
      <trkpt lat="42.44797878898680210113525390625" lon="-8.65074089728295803070068359375">
        <ele>9.80000019073486328125</ele>
        <time>2022-11-01T10:14:15.000Z</time>
      </trkpt>
      <trkpt lat="42.44805238209664821624755859375" lon="-8.65072011016309261322021484375">
        <ele>9.80000019073486328125</ele>
        <time>2022-11-01T10:14:16.000Z</time>
      </trkpt>
      <trkpt lat="42.44812580756843090057373046875" lon="-8.65069898776710033416748046875">
        <ele>9.80000019073486328125</ele>
        <time>2022-11-01T10:14:17.000Z</time>
      </trkpt>
      <trkpt lat="42.44819839484989643096923828125" lon="-8.65067652426660060882568359375">
        <ele>10</ele>
        <time>2022-11-01T10:14:18.000Z</time>
      </trkpt>
      <trkpt lat="42.44827173650264739990234375" lon="-8.65065171383321285247802734375">
        <ele>10</ele>
        <time>2022-11-01T10:14:19.000Z</time>
      </trkpt>
      <trkpt lat="42.44834440760314464569091796875" lon="-8.65062556229531764984130859375">
        <ele>10</ele>
        <time>2022-11-01T10:14:20.000Z</time>
      </trkpt>
      <trkpt lat="42.44841615669429302215576171875" lon="-8.6505983211100101470947265625">
        <ele>10.19999980926513671875</ele>
        <time>2022-11-01T10:14:21.000Z</time>
      </trkpt>
      <trkpt lat="42.44848790578544139862060546875" lon="-8.65057007409632205963134765625">
        <ele>10.3999996185302734375</ele>
        <time>2022-11-01T10:14:22.000Z</time>
      </trkpt>
      <trkpt lat="42.44855881668627262115478515625" lon="-8.65053973160684108734130859375">
        <ele>10.3999996185302734375</ele>
        <time>2022-11-01T10:14:23.000Z</time>
      </trkpt>
      <trkpt lat="42.4486291408538818359375" lon="-8.65050922147929668426513671875">
        <ele>10.6000003814697265625</ele>
        <time>2022-11-01T10:14:24.000Z</time>
      </trkpt>
      <trkpt lat="42.4487003870308399200439453125" lon="-8.65047904662787914276123046875">
        <ele>10.80000019073486328125</ele>
        <time>2022-11-01T10:14:25.000Z</time>
      </trkpt>
      <trkpt lat="42.44877272285521030426025390625" lon="-8.65044753067195415496826171875">
        <ele>10.80000019073486328125</ele>
        <time>2022-11-01T10:14:26.000Z</time>
      </trkpt>
      <trkpt lat="42.44884531013667583465576171875" lon="-8.65041576325893402099609375">
        <ele>11</ele>
        <time>2022-11-01T10:14:27.000Z</time>
      </trkpt>
      <trkpt lat="42.44891705922782421112060546875" lon="-8.6503827385604381561279296875">
        <ele>11</ele>
        <time>2022-11-01T10:14:28.000Z</time>
      </trkpt>
      <trkpt lat="42.44898847304284572601318359375" lon="-8.65035130642354488372802734375">
        <ele>11.19999980926513671875</ele>
        <time>2022-11-01T10:14:29.000Z</time>
      </trkpt>
      <trkpt lat="42.4490601383149623870849609375" lon="-8.65031878463923931121826171875">
        <ele>11.19999980926513671875</ele>
        <time>2022-11-01T10:14:30.000Z</time>
      </trkpt>
      <trkpt lat="42.4491312168538570404052734375" lon="-8.6502861790359020233154296875">
        <ele>11.19999980926513671875</ele>
        <time>2022-11-01T10:14:31.000Z</time>
      </trkpt>
      <trkpt lat="42.4492046423256397247314453125" lon="-8.65025374107062816619873046875">
        <ele>11.3999996185302734375</ele>
        <time>2022-11-01T10:14:32.000Z</time>
      </trkpt>
      <trkpt lat="42.44927647523581981658935546875" lon="-8.6502219736576080322265625">
        <ele>11.3999996185302734375</ele>
        <time>2022-11-01T10:14:33.000Z</time>
      </trkpt>
      <trkpt lat="42.4493491463363170623779296875" lon="-8.6501899547874927520751953125">
        <ele>11.3999996185302734375</ele>
        <time>2022-11-01T10:14:34.000Z</time>
      </trkpt>
      <trkpt lat="42.449420392513275146484375" lon="-8.65015986375510692596435546875">
        <ele>11.6000003814697265625</ele>
        <time>2022-11-01T10:14:35.000Z</time>
      </trkpt>
      <trkpt lat="42.44949348270893096923828125" lon="-8.65013010799884796142578125">
        <ele>11.6000003814697265625</ele>
        <time>2022-11-01T10:14:36.000Z</time>
      </trkpt>
      <trkpt lat="42.44956732727587223052978515625" lon="-8.6501011066138744354248046875">
        <ele>11.6000003814697265625</ele>
        <time>2022-11-01T10:14:37.000Z</time>
      </trkpt>
      <trkpt lat="42.44964142329990863800048828125" lon="-8.6500756256282329559326171875">
        <ele>12</ele>
        <time>2022-11-01T10:14:38.000Z</time>
      </trkpt>
      <trkpt lat="42.4497152678668498992919921875" lon="-8.65005056373775005340576171875">
        <ele>12</ele>
        <time>2022-11-01T10:14:39.000Z</time>
      </trkpt>
      <trkpt lat="42.44979028590023517608642578125" lon="-8.650027848780155181884765625">
        <ele>12.19999980926513671875</ele>
        <time>2022-11-01T10:14:40.000Z</time>
      </trkpt>
      <trkpt lat="42.4498634599149227142333984375" lon="-8.650006391108036041259765625">
        <ele>12.19999980926513671875</ele>
        <time>2022-11-01T10:14:41.000Z</time>
      </trkpt>
      <trkpt lat="42.44993738830089569091796875" lon="-8.649986274540424346923828125">
        <ele>12.3999996185302734375</ele>
        <time>2022-11-01T10:14:42.000Z</time>
      </trkpt>
      <trkpt lat="42.450011484324932098388671875" lon="-8.649966157972812652587890625">
        <ele>12.3999996185302734375</ele>
        <time>2022-11-01T10:14:43.000Z</time>
      </trkpt>
      <trkpt lat="42.45008700527250766754150390625" lon="-8.64994813688099384307861328125">
        <ele>12.6000003814697265625</ele>
        <time>2022-11-01T10:14:44.000Z</time>
      </trkpt>
      <trkpt lat="42.45016361586749553680419921875" lon="-8.64993372000753879547119140625">
        <ele>12.6000003814697265625</ele>
        <time>2022-11-01T10:14:45.000Z</time>
      </trkpt>
      <trkpt lat="42.4502406455576419830322265625" lon="-8.649922572076320648193359375">
        <ele>12.6000003814697265625</ele>
        <time>2022-11-01T10:14:46.000Z</time>
      </trkpt>
      <trkpt lat="42.45031817816197872161865234375" lon="-8.6499130167067050933837890625">
        <ele>12.80000019073486328125</ele>
        <time>2022-11-01T10:14:47.000Z</time>
      </trkpt>
      <trkpt lat="42.45039562694728374481201171875" lon="-8.64990589208900928497314453125">
        <ele>12.80000019073486328125</ele>
        <time>2022-11-01T10:14:48.000Z</time>
      </trkpt>
      <trkpt lat="42.45047257281839847564697265625" lon="-8.649901114404201507568359375">
        <ele>12.80000019073486328125</ele>
        <time>2022-11-01T10:14:49.000Z</time>
      </trkpt>
      <trkpt lat="42.45054834522306919097900390625" lon="-8.64989600144326686859130859375">
        <ele>13</ele>
        <time>2022-11-01T10:14:50.000Z</time>
      </trkpt>
      <trkpt lat="42.4506242014467716217041015625" lon="-8.64988845773041248321533203125">
        <ele>13</ele>
        <time>2022-11-01T10:14:51.000Z</time>
      </trkpt>
      <trkpt lat="42.4506979621946811676025390625" lon="-8.6498818360269069671630859375">
        <ele>13</ele>
        <time>2022-11-01T10:14:52.000Z</time>
      </trkpt>
      <trkpt lat="42.4507710523903369903564453125" lon="-8.6498764716088771820068359375">
        <ele>13.19999980926513671875</ele>
        <time>2022-11-01T10:14:53.000Z</time>
      </trkpt>
      <trkpt lat="42.45084338821470737457275390625" lon="-8.64987370558083057403564453125">
        <ele>13.19999980926513671875</ele>
        <time>2022-11-01T10:14:54.000Z</time>
      </trkpt>
      <trkpt lat="42.45091639459133148193359375" lon="-8.64987018518149852752685546875">
        <ele>13.3999996185302734375</ele>
        <time>2022-11-01T10:14:55.000Z</time>
      </trkpt>
      <trkpt lat="42.4509899877011775970458984375" lon="-8.64986716769635677337646484375">
        <ele>13.6000003814697265625</ele>
        <time>2022-11-01T10:14:56.000Z</time>
      </trkpt>
      <trkpt lat="42.4510607309639453887939453125" lon="-8.6498647369444370269775390625">
        <ele>13.6000003814697265625</ele>
        <time>2022-11-01T10:14:57.000Z</time>
      </trkpt>
      <trkpt lat="42.451131306588649749755859375" lon="-8.649866245687007904052734375">
        <ele>14</ele>
        <time>2022-11-01T10:14:58.000Z</time>
      </trkpt>
      <trkpt lat="42.45120339095592498779296875" lon="-8.64986415021121501922607421875">
        <ele>14.19999980926513671875</ele>
        <time>2022-11-01T10:14:59.000Z</time>
      </trkpt>
      <trkpt lat="42.451275475323200225830078125" lon="-8.64985912106931209564208984375">
        <ele>14.3999996185302734375</ele>
        <time>2022-11-01T10:15:00.000Z</time>
      </trkpt>
      <trkpt lat="42.45134663768112659454345703125" lon="-8.64985593594610691070556640625">
        <ele>14.3999996185302734375</ele>
        <time>2022-11-01T10:15:01.000Z</time>
      </trkpt>
      <trkpt lat="42.4514178000390529632568359375" lon="-8.64985459484159946441650390625">
        <ele>14.6000003814697265625</ele>
        <time>2022-11-01T10:15:02.000Z</time>
      </trkpt>
      <trkpt lat="42.45148770511150360107421875" lon="-8.64985593594610691070556640625">
        <ele>14.6000003814697265625</ele>
        <time>2022-11-01T10:15:03.000Z</time>
      </trkpt>
      <trkpt lat="42.4515569396317005157470703125" lon="-8.64985861815512180328369140625">
        <ele>14.80000019073486328125</ele>
        <time>2022-11-01T10:15:04.000Z</time>
      </trkpt>
      <trkpt lat="42.45162642560899257659912109375" lon="-8.6498627252876758575439453125">
        <ele>15</ele>
        <time>2022-11-01T10:15:05.000Z</time>
      </trkpt>
      <trkpt lat="42.45169599540531635284423828125" lon="-8.649868927896022796630859375">
        <ele>15</ele>
        <time>2022-11-01T10:15:06.000Z</time>
      </trkpt>
      <trkpt lat="42.45176556520164012908935546875" lon="-8.64987957291305065155029296875">
        <ele>15.19999980926513671875</ele>
        <time>2022-11-01T10:15:07.000Z</time>
      </trkpt>
      <trkpt lat="42.4518328718841075897216796875" lon="-8.6498922295868396759033203125">
        <ele>15.3999996185302734375</ele>
        <time>2022-11-01T10:15:08.000Z</time>
      </trkpt>
      <trkpt lat="42.45190076529979705810546875" lon="-8.6499039642512798309326171875">
        <ele>15.6000003814697265625</ele>
        <time>2022-11-01T10:15:09.000Z</time>
      </trkpt>
      <trkpt lat="42.4519699998199939727783203125" lon="-8.64991779439151287078857421875">
        <ele>16</ele>
        <time>2022-11-01T10:15:10.000Z</time>
      </trkpt>
      <trkpt lat="42.4520387314260005950927734375" lon="-8.64993254654109477996826171875">
        <ele>16.200000762939453125</ele>
        <time>2022-11-01T10:15:11.000Z</time>
      </trkpt>
      <trkpt lat="42.4521074630320072174072265625" lon="-8.64995031617581844329833984375">
        <ele>16.200000762939453125</ele>
        <time>2022-11-01T10:15:12.000Z</time>
      </trkpt>
      <trkpt lat="42.4521772004663944244384765625" lon="-8.6499716900289058685302734375">
        <ele>16.3999996185302734375</ele>
        <time>2022-11-01T10:15:13.000Z</time>
      </trkpt>
      <trkpt lat="42.4522462673485279083251953125" lon="-8.6499938182532787322998046875">
        <ele>16.3999996185302734375</ele>
        <time>2022-11-01T10:15:14.000Z</time>
      </trkpt>
      <trkpt lat="42.45231625624001026153564453125" lon="-8.6500149406492710113525390625">
        <ele>16.799999237060546875</ele>
        <time>2022-11-01T10:15:15.000Z</time>
      </trkpt>
      <trkpt lat="42.452388592064380645751953125" lon="-8.65003698505461215972900390625">
        <ele>17</ele>
        <time>2022-11-01T10:15:16.000Z</time>
      </trkpt>
      <trkpt lat="42.45245774276554584503173828125" lon="-8.6500605382025241851806640625">
        <ele>17</ele>
        <time>2022-11-01T10:15:17.000Z</time>
      </trkpt>
      <trkpt lat="42.45252664200961589813232421875" lon="-8.65008375607430934906005859375">
        <ele>17.200000762939453125</ele>
        <time>2022-11-01T10:15:18.000Z</time>
      </trkpt>
      <trkpt lat="42.45259604416787624359130859375" lon="-8.65010672248899936676025390625">
        <ele>17.3999996185302734375</ele>
        <time>2022-11-01T10:15:19.000Z</time>
      </trkpt>
      <trkpt lat="42.4526645243167877197265625" lon="-8.65012968890368938446044921875">
        <ele>17.3999996185302734375</ele>
        <time>2022-11-01T10:15:20.000Z</time>
      </trkpt>
      <trkpt lat="42.45273401029407978057861328125" lon="-8.65015181712806224822998046875">
        <ele>17.6000003814697265625</ele>
        <time>2022-11-01T10:15:21.000Z</time>
      </trkpt>
      <trkpt lat="42.4528024904429912567138671875" lon="-8.65017260424792766571044921875">
        <ele>17.6000003814697265625</ele>
        <time>2022-11-01T10:15:22.000Z</time>
      </trkpt>
      <trkpt lat="42.45286912657320499420166015625" lon="-8.6501926369965076446533203125">
        <ele>17.6000003814697265625</ele>
        <time>2022-11-01T10:15:23.000Z</time>
      </trkpt>
      <trkpt lat="42.4529372714459896087646484375" lon="-8.65021459758281707763671875">
        <ele>17.799999237060546875</ele>
        <time>2022-11-01T10:15:24.000Z</time>
      </trkpt>
      <trkpt lat="42.45300558395683765411376953125" lon="-8.6502378992736339569091796875">
        <ele>17.799999237060546875</ele>
        <time>2022-11-01T10:15:25.000Z</time>
      </trkpt>
      <trkpt lat="42.45307364501059055328369140625" lon="-8.6502610333263874053955078125">
        <ele>18</ele>
        <time>2022-11-01T10:15:26.000Z</time>
      </trkpt>
      <trkpt lat="42.4531394429504871368408203125" lon="-8.65028223954141139984130859375">
        <ele>18.200000762939453125</ele>
        <time>2022-11-01T10:15:27.000Z</time>
      </trkpt>
      <trkpt lat="42.45320373214781284332275390625" lon="-8.65030151791870594024658203125">
        <ele>18.200000762939453125</ele>
        <time>2022-11-01T10:15:28.000Z</time>
      </trkpt>
      <trkpt lat="42.453272044658660888671875" lon="-8.6503240652382373809814453125">
        <ele>18.3999996185302734375</ele>
        <time>2022-11-01T10:15:29.000Z</time>
      </trkpt>
      <trkpt lat="42.45334069244563579559326171875" lon="-8.65034761838614940643310546875">
        <ele>18.3999996185302734375</ele>
        <time>2022-11-01T10:15:30.000Z</time>
      </trkpt>
      <trkpt lat="42.4534086696803569793701171875" lon="-8.6503710038959980010986328125">
        <ele>18.799999237060546875</ele>
        <time>2022-11-01T10:15:31.000Z</time>
      </trkpt>
      <trkpt lat="42.45347731746733188629150390625" lon="-8.65039422176778316497802734375">
        <ele>19</ele>
        <time>2022-11-01T10:15:32.000Z</time>
      </trkpt>
      <trkpt lat="42.45354554615914821624755859375" lon="-8.65041484124958515167236328125">
        <ele>19.200000762939453125</ele>
        <time>2022-11-01T10:15:33.000Z</time>
      </trkpt>
      <trkpt lat="42.4536140263080596923828125" lon="-8.6504367180168628692626953125">
        <ele>19.200000762939453125</ele>
        <time>2022-11-01T10:15:34.000Z</time>
      </trkpt>
      <trkpt lat="42.4536835961043834686279296875" lon="-8.6504598520696163177490234375">
        <ele>19.6000003814697265625</ele>
        <time>2022-11-01T10:15:35.000Z</time>
      </trkpt>
      <trkpt lat="42.45375148952007293701171875" lon="-8.6504813097417354583740234375">
        <ele>20</ele>
        <time>2022-11-01T10:15:36.000Z</time>
      </trkpt>
      <trkpt lat="42.45381896384060382843017578125" lon="-8.65050251595675945281982421875">
        <ele>20.200000762939453125</ele>
        <time>2022-11-01T10:15:37.000Z</time>
      </trkpt>
      <trkpt lat="42.453888617455959320068359375" lon="-8.65052497945725917816162109375">
        <ele>20.3999996185302734375</ele>
        <time>2022-11-01T10:15:38.000Z</time>
      </trkpt>
      <trkpt lat="42.45396045036613941192626953125" lon="-8.650550208985805511474609375">
        <ele>20.3999996185302734375</ele>
        <time>2022-11-01T10:15:39.000Z</time>
      </trkpt>
      <trkpt lat="42.45403186418116092681884765625" lon="-8.65057409740984439849853515625">
        <ele>20.6000003814697265625</ele>
        <time>2022-11-01T10:15:40.000Z</time>
      </trkpt>
      <trkpt lat="42.4541020207107067108154296875" lon="-8.6505963094532489776611328125">
        <ele>20.799999237060546875</ele>
        <time>2022-11-01T10:15:41.000Z</time>
      </trkpt>
      <trkpt lat="42.45416991412639617919921875" lon="-8.65061768330633640289306640625">
        <ele>20.799999237060546875</ele>
        <time>2022-11-01T10:15:42.000Z</time>
      </trkpt>
      <trkpt lat="42.4542371369898319244384765625" lon="-8.65064115263521671295166015625">
        <ele>21</ele>
        <time>2022-11-01T10:15:43.000Z</time>
      </trkpt>
      <trkpt lat="42.45430628769099712371826171875" lon="-8.65066445432603359222412109375">
        <ele>21</ele>
        <time>2022-11-01T10:15:44.000Z</time>
      </trkpt>
      <trkpt lat="42.4543732590973377227783203125" lon="-8.650685660541057586669921875">
        <ele>21</ele>
        <time>2022-11-01T10:15:45.000Z</time>
      </trkpt>
      <trkpt lat="42.4544413201510906219482421875" lon="-8.65070686675608158111572265625">
        <ele>21.3999996185302734375</ele>
        <time>2022-11-01T10:15:46.000Z</time>
      </trkpt>
      <trkpt lat="42.4545100517570972442626953125" lon="-8.6507277376949787139892578125">
        <ele>21.6000003814697265625</ele>
        <time>2022-11-01T10:15:47.000Z</time>
      </trkpt>
      <trkpt lat="42.45457903482019901275634765625" lon="-8.6507471837103366851806640625">
        <ele>21.6000003814697265625</ele>
        <time>2022-11-01T10:15:48.000Z</time>
      </trkpt>
      <trkpt lat="42.45464600622653961181640625" lon="-8.65076847374439239501953125">
        <ele>21.799999237060546875</ele>
        <time>2022-11-01T10:15:49.000Z</time>
      </trkpt>
      <trkpt lat="42.454712726175785064697265625" lon="-8.650791943073272705078125">
        <ele>22</ele>
        <time>2022-11-01T10:15:50.000Z</time>
      </trkpt>
      <trkpt lat="42.454779110848903656005859375" lon="-8.65081449039280414581298828125">
        <ele>22.3999996185302734375</ele>
        <time>2022-11-01T10:15:51.000Z</time>
      </trkpt>
      <trkpt lat="42.45484658516943454742431640625" lon="-8.65083611570298671722412109375">
        <ele>22.3999996185302734375</ele>
        <time>2022-11-01T10:15:52.000Z</time>
      </trkpt>
      <trkpt lat="42.45491514913737773895263671875" lon="-8.6508578248322010040283203125">
        <ele>22.6000003814697265625</ele>
        <time>2022-11-01T10:15:53.000Z</time>
      </trkpt>
      <trkpt lat="42.454982288181781768798828125" lon="-8.6508799530565738677978515625">
        <ele>22.799999237060546875</ele>
        <time>2022-11-01T10:15:54.000Z</time>
      </trkpt>
      <trkpt lat="42.4550488404929637908935546875" lon="-8.65090367384254932403564453125">
        <ele>23</ele>
        <time>2022-11-01T10:15:55.000Z</time>
      </trkpt>
      <trkpt lat="42.45511463843286037445068359375" lon="-8.65092538297176361083984375">
        <ele>23.200000762939453125</ele>
        <time>2022-11-01T10:15:56.000Z</time>
      </trkpt>
      <trkpt lat="42.45518152602016925811767578125" lon="-8.65094549953937530517578125">
        <ele>23.3999996185302734375</ele>
        <time>2022-11-01T10:15:57.000Z</time>
      </trkpt>
      <trkpt lat="42.45524925179779529571533203125" lon="-8.65096637047827243804931640625">
        <ele>23.6000003814697265625</ele>
        <time>2022-11-01T10:15:58.000Z</time>
      </trkpt>
      <trkpt lat="42.45531714521348476409912109375" lon="-8.650986738502979278564453125">
        <ele>23.799999237060546875</ele>
        <time>2022-11-01T10:15:59.000Z</time>
      </trkpt>
      <trkpt lat="42.4553810991346836090087890625" lon="-8.65100760944187641143798828125">
        <ele>24</ele>
        <time>2022-11-01T10:16:00.000Z</time>
      </trkpt>
      <trkpt lat="42.45544622652232646942138671875" lon="-8.65103040821850299835205078125">
        <ele>24.200000762939453125</ele>
        <time>2022-11-01T10:16:01.000Z</time>
      </trkpt>
      <trkpt lat="42.455512024462223052978515625" lon="-8.651052452623844146728515625">
        <ele>24.3999996185302734375</ele>
        <time>2022-11-01T10:16:02.000Z</time>
      </trkpt>
      <trkpt lat="42.45557832531630992889404296875" lon="-8.651073239743709564208984375">
        <ele>24.6000003814697265625</ele>
        <time>2022-11-01T10:16:03.000Z</time>
      </trkpt>
      <trkpt lat="42.45564454235136508941650390625" lon="-8.65109411068260669708251953125">
        <ele>25</ele>
        <time>2022-11-01T10:16:04.000Z</time>
      </trkpt>
      <trkpt lat="42.45572282932698726654052734375" lon="-8.651118837296962738037109375">
        <ele>25.200000762939453125</ele>
        <time>2022-11-01T10:16:05.000Z</time>
      </trkpt>
      <trkpt lat="42.45577462948858737945556640625" lon="-8.651134930551052093505859375">
        <ele>25.6000003814697265625</ele>
        <time>2022-11-01T10:16:06.000Z</time>
      </trkpt>
      <trkpt lat="42.4558377452194690704345703125" lon="-8.65115471184253692626953125">
        <ele>26</ele>
        <time>2022-11-01T10:16:07.000Z</time>
      </trkpt>
      <trkpt lat="42.45589918456971645355224609375" lon="-8.65117608569562435150146484375">
        <ele>26.200000762939453125</ele>
        <time>2022-11-01T10:16:08.000Z</time>
      </trkpt>
      <trkpt lat="42.45595970191061496734619140625" lon="-8.65119636990129947662353515625">
        <ele>26.200000762939453125</ele>
        <time>2022-11-01T10:16:09.000Z</time>
      </trkpt>
      <trkpt lat="42.45602072216570377349853515625" lon="-8.651217408478260040283203125">
        <ele>26.3999996185302734375</ele>
        <time>2022-11-01T10:16:10.000Z</time>
      </trkpt>
      <trkpt lat="42.4560818262398242950439453125" lon="-8.651240207254886627197265625">
        <ele>26.6000003814697265625</ele>
        <time>2022-11-01T10:16:11.000Z</time>
      </trkpt>
      <trkpt lat="42.45614326559007167816162109375" lon="-8.65126174874603748321533203125">
        <ele>27</ele>
        <time>2022-11-01T10:16:12.000Z</time>
      </trkpt>
      <trkpt lat="42.4562036991119384765625" lon="-8.651283122599124908447265625">
        <ele>27.200000762939453125</ele>
        <time>2022-11-01T10:16:13.000Z</time>
      </trkpt>
      <trkpt lat="42.45626329444348812103271484375" lon="-8.65130650810897350311279296875">
        <ele>27.3999996185302734375</ele>
        <time>2022-11-01T10:16:14.000Z</time>
      </trkpt>
      <trkpt lat="42.456322722136974334716796875" lon="-8.65132897160947322845458984375">
        <ele>27.6000003814697265625</ele>
        <time>2022-11-01T10:16:15.000Z</time>
      </trkpt>
      <trkpt lat="42.45638114400207996368408203125" lon="-8.65135344676673412322998046875">
        <ele>27.799999237060546875</ele>
        <time>2022-11-01T10:16:16.000Z</time>
      </trkpt>
      <trkpt lat="42.456440068781375885009765625" lon="-8.6513805203139781951904296875">
        <ele>28.3999996185302734375</ele>
        <time>2022-11-01T10:16:17.000Z</time>
      </trkpt>
      <trkpt lat="42.4564992450177669525146484375" lon="-8.6514100246131420135498046875">
        <ele>28.799999237060546875</ele>
        <time>2022-11-01T10:16:18.000Z</time>
      </trkpt>
      <trkpt lat="42.45655867271125316619873046875" lon="-8.6514423787593841552734375">
        <ele>28.799999237060546875</ele>
        <time>2022-11-01T10:16:19.000Z</time>
      </trkpt>
      <trkpt lat="42.45661784894764423370361328125" lon="-8.651478253304958343505859375">
        <ele>29</ele>
        <time>2022-11-01T10:16:20.000Z</time>
      </trkpt>
      <trkpt lat="42.4566756002604961395263671875" lon="-8.65151521749794483184814453125">
        <ele>29.200000762939453125</ele>
        <time>2022-11-01T10:16:21.000Z</time>
      </trkpt>
      <trkpt lat="42.45673368684947490692138671875" lon="-8.65155243314802646636962890625">
        <ele>30</ele>
        <time>2022-11-01T10:16:22.000Z</time>
      </trkpt>
      <trkpt lat="42.45679185725748538970947265625" lon="-8.65159300155937671661376953125">
        <ele>30.200000762939453125</ele>
        <time>2022-11-01T10:16:23.000Z</time>
      </trkpt>
      <trkpt lat="42.4568472616374492645263671875" lon="-8.651633150875568389892578125">
        <ele>30.6000003814697265625</ele>
        <time>2022-11-01T10:16:24.000Z</time>
      </trkpt>
      <trkpt lat="42.45689897798001766204833984375" lon="-8.65167346782982349395751953125">
        <ele>30.799999237060546875</ele>
        <time>2022-11-01T10:16:25.000Z</time>
      </trkpt>
      <trkpt lat="42.456949688494205474853515625" lon="-8.65171789191663265228271484375">
        <ele>31.200000762939453125</ele>
        <time>2022-11-01T10:16:26.000Z</time>
      </trkpt>
      <trkpt lat="42.45700626634061336517333984375" lon="-8.65176650695502758026123046875">
        <ele>31.6000003814697265625</ele>
        <time>2022-11-01T10:16:27.000Z</time>
      </trkpt>
      <trkpt lat="42.4570638500154018402099609375" lon="-8.65181587636470794677734375">
        <ele>31.799999237060546875</ele>
        <time>2022-11-01T10:16:28.000Z</time>
      </trkpt>
      <trkpt lat="42.4571221880614757537841796875" lon="-8.65186457522213459014892578125">
        <ele>32</ele>
        <time>2022-11-01T10:16:29.000Z</time>
      </trkpt>
      <trkpt lat="42.4571801908314228057861328125" lon="-8.6519156210124492645263671875">
        <ele>32.200000762939453125</ele>
        <time>2022-11-01T10:16:30.000Z</time>
      </trkpt>
      <trkpt lat="42.45723710395395755767822265625" lon="-8.65196599625051021575927734375">
        <ele>32.40000152587890625</ele>
        <time>2022-11-01T10:16:31.000Z</time>
      </trkpt>
      <trkpt lat="42.4572935141623020172119140625" lon="-8.652014024555683135986328125">
        <ele>32.59999847412109375</ele>
        <time>2022-11-01T10:16:32.000Z</time>
      </trkpt>
      <trkpt lat="42.45734975673258304595947265625" lon="-8.65206154994666576385498046875">
        <ele>33</ele>
        <time>2022-11-01T10:16:33.000Z</time>
      </trkpt>
      <trkpt lat="42.4574075080454349517822265625" lon="-8.6521104164421558380126953125">
        <ele>33.40000152587890625</ele>
        <time>2022-11-01T10:16:34.000Z</time>
      </trkpt>
      <trkpt lat="42.45746509172022342681884765625" lon="-8.65215995348989963531494140625">
        <ele>33.59999847412109375</ele>
        <time>2022-11-01T10:16:35.000Z</time>
      </trkpt>
      <trkpt lat="42.457520328462123870849609375" lon="-8.65220873616635799407958984375">
        <ele>33.59999847412109375</ele>
        <time>2022-11-01T10:16:36.000Z</time>
      </trkpt>
      <trkpt lat="42.4575754813849925994873046875" lon="-8.65225684829056262969970703125">
        <ele>34.200000762939453125</ele>
        <time>2022-11-01T10:16:37.000Z</time>
      </trkpt>
      <trkpt lat="42.4576334841549396514892578125" lon="-8.652304373681545257568359375">
        <ele>34.40000152587890625</ele>
        <time>2022-11-01T10:16:38.000Z</time>
      </trkpt>
      <trkpt lat="42.45769207365810871124267578125" lon="-8.65235139615833759307861328125">
        <ele>34.59999847412109375</ele>
        <time>2022-11-01T10:16:39.000Z</time>
      </trkpt>
      <trkpt lat="42.45774974115192890167236328125" lon="-8.65239766426384449005126953125">
        <ele>34.59999847412109375</ele>
        <time>2022-11-01T10:16:40.000Z</time>
      </trkpt>
      <trkpt lat="42.45780724100768566131591796875" lon="-8.65244426764547824859619140625">
        <ele>34.799999237060546875</ele>
        <time>2022-11-01T10:16:41.000Z</time>
      </trkpt>
      <trkpt lat="42.457865662872791290283203125" lon="-8.6524896137416362762451171875">
        <ele>34.799999237060546875</ele>
        <time>2022-11-01T10:16:42.000Z</time>
      </trkpt>
      <trkpt lat="42.45792425237596035003662109375" lon="-8.6525328643620014190673828125">
        <ele>34.799999237060546875</ele>
        <time>2022-11-01T10:16:43.000Z</time>
      </trkpt>
      <trkpt lat="42.45798510499298572540283203125" lon="-8.65257619880139827728271484375">
        <ele>35</ele>
        <time>2022-11-01T10:16:44.000Z</time>
      </trkpt>
      <trkpt lat="42.45804662816226482391357421875" lon="-8.65261928178369998931884765625">
        <ele>35</ele>
        <time>2022-11-01T10:16:45.000Z</time>
      </trkpt>
      <trkpt lat="42.4581085704267024993896484375" lon="-8.65266186185181140899658203125">
        <ele>35</ele>
        <time>2022-11-01T10:16:46.000Z</time>
      </trkpt>
      <trkpt lat="42.4581737816333770751953125" lon="-8.652704693377017974853515625">
        <ele>35</ele>
        <time>2022-11-01T10:16:47.000Z</time>
      </trkpt>
      <trkpt lat="42.4582408368587493896484375" lon="-8.6527450941503047943115234375">
        <ele>35</ele>
        <time>2022-11-01T10:16:48.000Z</time>
      </trkpt>
      <trkpt lat="42.458308897912502288818359375" lon="-8.65278356708586215972900390625">
        <ele>35</ele>
        <time>2022-11-01T10:16:49.000Z</time>
      </trkpt>
      <trkpt lat="42.45837830007076263427734375" lon="-8.652820698916912078857421875">
        <ele>35</ele>
        <time>2022-11-01T10:16:50.000Z</time>
      </trkpt>
      <trkpt lat="42.4584492109715938568115234375" lon="-8.65285648964345455169677734375">
        <ele>35</ele>
        <time>2022-11-01T10:16:51.000Z</time>
      </trkpt>
      <trkpt lat="42.45851852931082248687744140625" lon="-8.65289169363677501678466796875">
        <ele>35.200000762939453125</ele>
        <time>2022-11-01T10:16:52.000Z</time>
      </trkpt>
      <trkpt lat="42.45859111659228801727294921875" lon="-8.65292496979236602783203125">
        <ele>35.200000762939453125</ele>
        <time>2022-11-01T10:16:53.000Z</time>
      </trkpt>
      <trkpt lat="42.4586657993495464324951171875" lon="-8.65295539610087871551513671875">
        <ele>35</ele>
        <time>2022-11-01T10:16:54.000Z</time>
      </trkpt>
      <trkpt lat="42.4587429128587245941162109375" lon="-8.6529846489429473876953125">
        <ele>35</ele>
        <time>2022-11-01T10:16:55.000Z</time>
      </trkpt>
      <trkpt lat="42.4588217027485370635986328125" lon="-8.6530126444995403289794921875">
        <ele>35</ele>
        <time>2022-11-01T10:16:56.000Z</time>
      </trkpt>
      <trkpt lat="42.4589006602764129638671875" lon="-8.65303770639002323150634765625">
        <ele>34.799999237060546875</ele>
        <time>2022-11-01T10:16:57.000Z</time>
      </trkpt>
      <trkpt lat="42.4589816294610500335693359375" lon="-8.65306444466114044189453125">
        <ele>34.799999237060546875</ele>
        <time>2022-11-01T10:16:58.000Z</time>
      </trkpt>
      <trkpt lat="42.4590610899031162261962890625" lon="-8.65309260785579681396484375">
        <ele>34.59999847412109375</ele>
        <time>2022-11-01T10:16:59.000Z</time>
      </trkpt>
      <trkpt lat="42.4591395445168018341064453125" lon="-8.65312085486948490142822265625">
        <ele>34.59999847412109375</ele>
        <time>2022-11-01T10:17:00.000Z</time>
      </trkpt>
      <trkpt lat="42.4592223577201366424560546875" lon="-8.65314700640738010406494140625">
        <ele>34.40000152587890625</ele>
        <time>2022-11-01T10:17:01.000Z</time>
      </trkpt>
      <trkpt lat="42.45930592529475688934326171875" lon="-8.65317282266914844512939453125">
        <ele>34</ele>
        <time>2022-11-01T10:17:02.000Z</time>
      </trkpt>
      <trkpt lat="42.45939091779291629791259765625" lon="-8.6531990580260753631591796875">
        <ele>33.799999237060546875</ele>
        <time>2022-11-01T10:17:03.000Z</time>
      </trkpt>
      <trkpt lat="42.45947691611945629119873046875" lon="-8.6532265506684780120849609375">
        <ele>33.59999847412109375</ele>
        <time>2022-11-01T10:17:04.000Z</time>
      </trkpt>
      <trkpt lat="42.459564171731472015380859375" lon="-8.65325496532022953033447265625">
        <ele>33.59999847412109375</ele>
        <time>2022-11-01T10:17:05.000Z</time>
      </trkpt>
      <trkpt lat="42.4596518464386463165283203125" lon="-8.65328312851488590240478515625">
        <ele>33</ele>
        <time>2022-11-01T10:17:06.000Z</time>
      </trkpt>
      <trkpt lat="42.459741197526454925537109375" lon="-8.65331045351922512054443359375">
        <ele>32.59999847412109375</ele>
        <time>2022-11-01T10:17:07.000Z</time>
      </trkpt>
      <trkpt lat="42.45983080007135868072509765625" lon="-8.65333735942840576171875">
        <ele>32.200000762939453125</ele>
        <time>2022-11-01T10:17:08.000Z</time>
      </trkpt>
      <trkpt lat="42.459904812276363372802734375" lon="-8.653358481824398040771484375">
        <ele>31.6000003814697265625</ele>
        <time>2022-11-01T10:17:09.000Z</time>
      </trkpt>
      <trkpt lat="42.46001352556049823760986328125" lon="-8.65339259617030620574951171875">
        <ele>31.3999996185302734375</ele>
        <time>2022-11-01T10:17:10.000Z</time>
      </trkpt>
      <trkpt lat="42.4601068161427974700927734375" lon="-8.6534206755459308624267578125">
        <ele>31</ele>
        <time>2022-11-01T10:17:11.000Z</time>
      </trkpt>
      <trkpt lat="42.460202537477016448974609375" lon="-8.65345043130218982696533203125">
        <ele>30.6000003814697265625</ele>
        <time>2022-11-01T10:17:12.000Z</time>
      </trkpt>
      <trkpt lat="42.4602985940873622894287109375" lon="-8.65348010323941707611083984375">
        <ele>30</ele>
        <time>2022-11-01T10:17:13.000Z</time>
      </trkpt>
      <trkpt lat="42.46039532124996185302734375" lon="-8.65351027809083461761474609375">
        <ele>29.6000003814697265625</ele>
        <time>2022-11-01T10:17:14.000Z</time>
      </trkpt>
      <trkpt lat="42.4604930542409420013427734375" lon="-8.65354120731353759765625">
        <ele>29.200000762939453125</ele>
        <time>2022-11-01T10:17:15.000Z</time>
      </trkpt>
      <trkpt lat="42.4605919606983661651611328125" lon="-8.65357146598398685455322265625">
        <ele>29</ele>
        <time>2022-11-01T10:17:16.000Z</time>
      </trkpt>
      <trkpt lat="42.46069195680320262908935546875" lon="-8.65360281430184841156005859375">
        <ele>28.3999996185302734375</ele>
        <time>2022-11-01T10:17:17.000Z</time>
      </trkpt>
      <trkpt lat="42.46079203672707080841064453125" lon="-8.65363433025777339935302734375">
        <ele>28</ele>
        <time>2022-11-01T10:17:18.000Z</time>
      </trkpt>
      <trkpt lat="42.460891865193843841552734375" lon="-8.65366299636662006378173828125">
        <ele>27.799999237060546875</ele>
        <time>2022-11-01T10:17:19.000Z</time>
      </trkpt>
      <trkpt lat="42.46099219657480716705322265625" lon="-8.653689734637737274169921875">
        <ele>27</ele>
        <time>2022-11-01T10:17:20.000Z</time>
      </trkpt>
      <trkpt lat="42.46109412051737308502197265625" lon="-8.6537143774330615997314453125">
        <ele>26.3999996185302734375</ele>
        <time>2022-11-01T10:17:21.000Z</time>
      </trkpt>
      <trkpt lat="42.4611981399357318878173828125" lon="-8.6537411995232105255126953125">
        <ele>25.799999237060546875</ele>
        <time>2022-11-01T10:17:22.000Z</time>
      </trkpt>
      <trkpt lat="42.461302578449249267578125" lon="-8.653768189251422882080078125">
        <ele>25.6000003814697265625</ele>
        <time>2022-11-01T10:17:23.000Z</time>
      </trkpt>
      <trkpt lat="42.46140877716243267059326171875" lon="-8.6537866294384002685546875">
        <ele>25</ele>
        <time>2022-11-01T10:17:24.000Z</time>
      </trkpt>
      <trkpt lat="42.46151220984756946563720703125" lon="-8.6538038961589336395263671875">
        <ele>24.799999237060546875</ele>
        <time>2022-11-01T10:17:25.000Z</time>
      </trkpt>
      <trkpt lat="42.4616145528852939605712890625" lon="-8.653810434043407440185546875">
        <ele>24.3999996185302734375</ele>
        <time>2022-11-01T10:17:26.000Z</time>
      </trkpt>
      <trkpt lat="42.4617161415517330169677734375" lon="-8.65380129776895046234130859375">
        <ele>24.200000762939453125</ele>
        <time>2022-11-01T10:17:27.000Z</time>
      </trkpt>
      <trkpt lat="42.46181932277977466583251953125" lon="-8.65377749316394329071044921875">
        <ele>23.6000003814697265625</ele>
        <time>2022-11-01T10:17:28.000Z</time>
      </trkpt>
      <trkpt lat="42.4619235098361968994140625" lon="-8.65374974906444549560546875">
        <ele>23.200000762939453125</ele>
        <time>2022-11-01T10:17:29.000Z</time>
      </trkpt>
      <trkpt lat="42.4620306305587291717529296875" lon="-8.6537368409335613250732421875">
        <ele>22.799999237060546875</ele>
        <time>2022-11-01T10:17:30.000Z</time>
      </trkpt>
      <trkpt lat="42.462140433490276336669921875" lon="-8.65374614484608173370361328125">
        <ele>22.3999996185302734375</ele>
        <time>2022-11-01T10:17:31.000Z</time>
      </trkpt>
      <trkpt lat="42.46225266717374324798583984375" lon="-8.65375905297696590423583984375">
        <ele>22.200000762939453125</ele>
        <time>2022-11-01T10:17:32.000Z</time>
      </trkpt>
      <trkpt lat="42.4623660743236541748046875" lon="-8.65376123227179050445556640625">
        <ele>21.200000762939453125</ele>
        <time>2022-11-01T10:17:33.000Z</time>
      </trkpt>
      <trkpt lat="42.46247964911162853240966796875" lon="-8.65374547429382801055908203125">
        <ele>20.799999237060546875</ele>
        <time>2022-11-01T10:17:34.000Z</time>
      </trkpt>
      <trkpt lat="42.46259246952831745147705078125" lon="-8.65371999330818653106689453125">
        <ele>19.6000003814697265625</ele>
        <time>2022-11-01T10:17:35.000Z</time>
      </trkpt>
      <trkpt lat="42.46270461939275264739990234375" lon="-8.6536868847906589508056640625">
        <ele>19.200000762939453125</ele>
        <time>2022-11-01T10:17:36.000Z</time>
      </trkpt>
      <trkpt lat="42.4628158472478389739990234375" lon="-8.65364941768348217010498046875">
        <ele>18.3999996185302734375</ele>
        <time>2022-11-01T10:17:37.000Z</time>
      </trkpt>
      <trkpt lat="42.46292623691260814666748046875" lon="-8.6536097712814807891845703125">
        <ele>18</ele>
        <time>2022-11-01T10:17:38.000Z</time>
      </trkpt>
      <trkpt lat="42.4630347825586795806884765625" lon="-8.6535668559372425079345703125">
        <ele>17.799999237060546875</ele>
        <time>2022-11-01T10:17:39.000Z</time>
      </trkpt>
      <trkpt lat="42.463142909109592437744140625" lon="-8.65351371467113494873046875">
        <ele>17</ele>
        <time>2022-11-01T10:17:40.000Z</time>
      </trkpt>
      <trkpt lat="42.4632490240037441253662109375" lon="-8.65345546044409275054931640625">
        <ele>16.6000003814697265625</ele>
        <time>2022-11-01T10:17:41.000Z</time>
      </trkpt>
      <trkpt lat="42.4633522890508174896240234375" lon="-8.65339494310319423675537109375">
        <ele>16</ele>
        <time>2022-11-01T10:17:42.000Z</time>
      </trkpt>
      <trkpt lat="42.463452704250812530517578125" lon="-8.6533321626484394073486328125">
        <ele>15.80000019073486328125</ele>
        <time>2022-11-01T10:17:43.000Z</time>
      </trkpt>
      <trkpt lat="42.4635517783463001251220703125" lon="-8.65326686762273311614990234375">
        <ele>15.3999996185302734375</ele>
        <time>2022-11-01T10:17:44.000Z</time>
      </trkpt>
      <trkpt lat="42.46364825405180454254150390625" lon="-8.653199560940265655517578125">
        <ele>15.19999980926513671875</ele>
        <time>2022-11-01T10:17:45.000Z</time>
      </trkpt>
      <trkpt lat="42.4637432210147380828857421875" lon="-8.65313007496297359466552734375">
        <ele>14.80000019073486328125</ele>
        <time>2022-11-01T10:17:46.000Z</time>
      </trkpt>
      <trkpt lat="42.46383835561573505401611328125" lon="-8.65306050516664981842041015625">
        <ele>14.6000003814697265625</ele>
        <time>2022-11-01T10:17:47.000Z</time>
      </trkpt>
      <trkpt lat="42.463932149112224578857421875" lon="-8.6529915221035480499267578125">
        <ele>14.19999980926513671875</ele>
        <time>2022-11-01T10:17:48.000Z</time>
      </trkpt>
      <trkpt lat="42.4640235118567943572998046875" lon="-8.65292253904044628143310546875">
        <ele>13.80000019073486328125</ele>
        <time>2022-11-01T10:17:49.000Z</time>
      </trkpt>
      <trkpt lat="42.46411495842039585113525390625" lon="-8.652852885425090789794921875">
        <ele>13.3999996185302734375</ele>
        <time>2022-11-01T10:17:50.000Z</time>
      </trkpt>
      <trkpt lat="42.4642082490026950836181640625" lon="-8.65278239361941814422607421875">
        <ele>12.80000019073486328125</ele>
        <time>2022-11-01T10:17:51.000Z</time>
      </trkpt>
      <trkpt lat="42.464300952851772308349609375" lon="-8.6527125723659992218017578125">
        <ele>12.6000003814697265625</ele>
        <time>2022-11-01T10:17:52.000Z</time>
      </trkpt>
      <trkpt lat="42.4643933214247226715087890625" lon="-8.65264191292226314544677734375">
        <ele>12.3999996185302734375</ele>
        <time>2022-11-01T10:17:53.000Z</time>
      </trkpt>
      <trkpt lat="42.46448728255927562713623046875" lon="-8.652569912374019622802734375">
        <ele>11.80000019073486328125</ele>
        <time>2022-11-01T10:17:54.000Z</time>
      </trkpt>
      <trkpt lat="42.46458032168447971343994140625" lon="-8.65249590016901493072509765625">
        <ele>11.19999980926513671875</ele>
        <time>2022-11-01T10:17:55.000Z</time>
      </trkpt>
      <trkpt lat="42.46467319317162036895751953125" lon="-8.65242339670658111572265625">
        <ele>11</ele>
        <time>2022-11-01T10:17:56.000Z</time>
      </trkpt>
      <trkpt lat="42.464769668877124786376953125" lon="-8.652352653443813323974609375">
        <ele>10.3999996185302734375</ele>
        <time>2022-11-01T10:17:57.000Z</time>
      </trkpt>
      <trkpt lat="42.4648653902113437652587890625" lon="-8.652282245457172393798828125">
        <ele>10.19999980926513671875</ele>
        <time>2022-11-01T10:17:58.000Z</time>
      </trkpt>
      <trkpt lat="42.464961446821689605712890625" lon="-8.65221259184181690216064453125">
        <ele>10</ele>
        <time>2022-11-01T10:17:59.000Z</time>
      </trkpt>
      <trkpt lat="42.46505607850849628448486328125" lon="-8.65214168094098567962646484375">
        <ele>9.80000019073486328125</ele>
        <time>2022-11-01T10:18:00.000Z</time>
      </trkpt>
      <trkpt lat="42.4651493690907955169677734375" lon="-8.6520698480308055877685546875">
        <ele>9.6000003814697265625</ele>
        <time>2022-11-01T10:18:01.000Z</time>
      </trkpt>
      <trkpt lat="42.46524148620665073394775390625" lon="-8.651998937129974365234375">
        <ele>9</ele>
        <time>2022-11-01T10:18:02.000Z</time>
      </trkpt>
      <trkpt lat="42.4653347767889499664306640625" lon="-8.6519297026097774505615234375">
        <ele>8.80000019073486328125</ele>
        <time>2022-11-01T10:18:03.000Z</time>
      </trkpt>
      <trkpt lat="42.4654269777238368988037109375" lon="-8.65186323411762714385986328125">
        <ele>8.3999996185302734375</ele>
        <time>2022-11-01T10:18:04.000Z</time>
      </trkpt>
      <trkpt lat="42.46552026830613613128662109375" lon="-8.65179751999676227569580078125">
        <ele>8.19999980926513671875</ele>
        <time>2022-11-01T10:18:05.000Z</time>
      </trkpt>
      <trkpt lat="42.46561548672616481781005859375" lon="-8.65173398517072200775146484375">
        <ele>7.599999904632568359375</ele>
        <time>2022-11-01T10:18:06.000Z</time>
      </trkpt>
      <trkpt lat="42.46571171097457408905029296875" lon="-8.651674725115299224853515625">
        <ele>7.599999904632568359375</ele>
        <time>2022-11-01T10:18:07.000Z</time>
      </trkpt>
      <trkpt lat="42.4658100306987762451171875" lon="-8.651623427867889404296875">
        <ele>7</ele>
        <time>2022-11-01T10:18:08.000Z</time>
      </trkpt>
      <trkpt lat="42.4659080989658832550048828125" lon="-8.65157808177173137664794921875">
        <ele>6.599999904632568359375</ele>
        <time>2022-11-01T10:18:09.000Z</time>
      </trkpt>
      <trkpt lat="42.46600641869008541107177734375" lon="-8.65153466351330280303955078125">
        <ele>6.400000095367431640625</ele>
        <time>2022-11-01T10:18:10.000Z</time>
      </trkpt>
      <trkpt lat="42.466106079518795013427734375" lon="-8.6514918319880962371826171875">
        <ele>6</ele>
        <time>2022-11-01T10:18:11.000Z</time>
      </trkpt>
      <trkpt lat="42.4662058241665363311767578125" lon="-8.65145520307123661041259765625">
        <ele>6</ele>
        <time>2022-11-01T10:18:12.000Z</time>
      </trkpt>
      <trkpt lat="42.46630431152880191802978515625" lon="-8.6514187417924404144287109375">
        <ele>5.19999980926513671875</ele>
        <time>2022-11-01T10:18:13.000Z</time>
      </trkpt>
      <trkpt lat="42.46640472672879695892333984375" lon="-8.65138194523751735687255859375">
        <ele>5</ele>
        <time>2022-11-01T10:18:14.000Z</time>
      </trkpt>
      <trkpt lat="42.4665022082626819610595703125" lon="-8.65133752115070819854736328125">
        <ele>4.599999904632568359375</ele>
        <time>2022-11-01T10:18:15.000Z</time>
      </trkpt>
      <trkpt lat="42.46660019271075725555419921875" lon="-8.6512956954538822174072265625">
        <ele>4</ele>
        <time>2022-11-01T10:18:16.000Z</time>
      </trkpt>
      <trkpt lat="42.4666993506252765655517578125" lon="-8.651260323822498321533203125">
        <ele>4</ele>
        <time>2022-11-01T10:18:17.000Z</time>
      </trkpt>
      <trkpt lat="42.466796077787876129150390625" lon="-8.65122444927692413330078125">
        <ele>3.7999999523162841796875</ele>
        <time>2022-11-01T10:18:18.000Z</time>
      </trkpt>
      <trkpt lat="42.46689087711274623870849609375" lon="-8.6511884070932865142822265625">
        <ele>3.599999904632568359375</ele>
        <time>2022-11-01T10:18:19.000Z</time>
      </trkpt>
      <trkpt lat="42.46698374859988689422607421875" lon="-8.65115429274737834930419921875">
        <ele>3.400000095367431640625</ele>
        <time>2022-11-01T10:18:20.000Z</time>
      </trkpt>
      <trkpt lat="42.46707662008702754974365234375" lon="-8.6511230282485485076904296875">
        <ele>3.2000000476837158203125</ele>
        <time>2022-11-01T10:18:21.000Z</time>
      </trkpt>
      <trkpt lat="42.46717058122158050537109375" lon="-8.65109008736908435821533203125">
        <ele>2.7999999523162841796875</ele>
        <time>2022-11-01T10:18:22.000Z</time>
      </trkpt>
      <trkpt lat="42.4672632850706577301025390625" lon="-8.65105873905122280120849609375">
        <ele>2.599999904632568359375</ele>
        <time>2022-11-01T10:18:23.000Z</time>
      </trkpt>
      <trkpt lat="42.467353306710720062255859375" lon="-8.65102739073336124420166015625">
        <ele>2.599999904632568359375</ele>
        <time>2022-11-01T10:18:24.000Z</time>
      </trkpt>
      <trkpt lat="42.4674423225224018096923828125" lon="-8.65099688060581684112548828125">
        <ele>2.599999904632568359375</ele>
        <time>2022-11-01T10:18:25.000Z</time>
      </trkpt>
      <trkpt lat="42.46752991341054439544677734375" lon="-8.65096603520214557647705078125">
        <ele>2.599999904632568359375</ele>
        <time>2022-11-01T10:18:26.000Z</time>
      </trkpt>
      <trkpt lat="42.46761524118483066558837890625" lon="-8.650937117636203765869140625">
        <ele>2.599999904632568359375</ele>
        <time>2022-11-01T10:18:27.000Z</time>
      </trkpt>
      <trkpt lat="42.46769922785460948944091796875" lon="-8.6509091220796108245849609375">
        <ele>2.599999904632568359375</ele>
        <time>2022-11-01T10:18:28.000Z</time>
      </trkpt>
      <trkpt lat="42.46778153814375400543212890625" lon="-8.650884814560413360595703125">
        <ele>2.599999904632568359375</ele>
        <time>2022-11-01T10:18:29.000Z</time>
      </trkpt>
      <trkpt lat="42.467861585319042205810546875" lon="-8.6508603394031524658203125">
        <ele>2.599999904632568359375</ele>
        <time>2022-11-01T10:18:30.000Z</time>
      </trkpt>
      <trkpt lat="42.467941381037235260009765625" lon="-8.650834523141384124755859375">
        <ele>2.599999904632568359375</ele>
        <time>2022-11-01T10:18:31.000Z</time>
      </trkpt>
      <trkpt lat="42.4680193327367305755615234375" lon="-8.6508082039654254913330078125">
        <ele>2.599999904632568359375</ele>
        <time>2022-11-01T10:18:32.000Z</time>
      </trkpt>
      <trkpt lat="42.46809435077011585235595703125" lon="-8.65078389644622802734375">
        <ele>2.599999904632568359375</ele>
        <time>2022-11-01T10:18:33.000Z</time>
      </trkpt>
      <trkpt lat="42.4681681953370571136474609375" lon="-8.6507589183747768402099609375">
        <ele>2.7999999523162841796875</ele>
        <time>2022-11-01T10:18:34.000Z</time>
      </trkpt>
      <trkpt lat="42.46824153698980808258056640625" lon="-8.65073469467461109161376953125">
        <ele>2.7999999523162841796875</ele>
        <time>2022-11-01T10:18:35.000Z</time>
      </trkpt>
      <trkpt lat="42.46831244789063930511474609375" lon="-8.65071122534573078155517578125">
        <ele>2.7999999523162841796875</ele>
        <time>2022-11-01T10:18:36.000Z</time>
      </trkpt>
      <trkpt lat="42.4683831073343753814697265625" lon="-8.65068725310266017913818359375">
        <ele>3.2000000476837158203125</ele>
        <time>2022-11-01T10:18:37.000Z</time>
      </trkpt>
      <trkpt lat="42.46845259331166744232177734375" lon="-8.6506650410592555999755859375">
        <ele>3.400000095367431640625</ele>
        <time>2022-11-01T10:18:38.000Z</time>
      </trkpt>
      <trkpt lat="42.46852166019380092620849609375" lon="-8.6506425775587558746337890625">
        <ele>3.2000000476837158203125</ele>
        <time>2022-11-01T10:18:39.000Z</time>
      </trkpt>
      <trkpt lat="42.46858938597142696380615234375" lon="-8.6506201140582561492919921875">
        <ele>3.400000095367431640625</ele>
        <time>2022-11-01T10:18:40.000Z</time>
      </trkpt>
      <trkpt lat="42.468654178082942962646484375" lon="-8.65059706382453441619873046875">
        <ele>3.7999999523162841796875</ele>
        <time>2022-11-01T10:18:41.000Z</time>
      </trkpt>
      <trkpt lat="42.46871662326157093048095703125" lon="-8.6505738459527492523193359375">
        <ele>4</ele>
        <time>2022-11-01T10:18:42.000Z</time>
      </trkpt>
      <trkpt lat="42.46877429075539112091064453125" lon="-8.65055079571902751922607421875">
        <ele>4.19999980926513671875</ele>
        <time>2022-11-01T10:18:43.000Z</time>
      </trkpt>
      <trkpt lat="42.468825168907642364501953125" lon="-8.65053017623722553253173828125">
        <ele>4.599999904632568359375</ele>
        <time>2022-11-01T10:18:44.000Z</time>
      </trkpt>
      <trkpt lat="42.4688679166138172149658203125" lon="-8.65050737746059894561767578125">
        <ele>4.599999904632568359375</ele>
        <time>2022-11-01T10:18:45.000Z</time>
      </trkpt>
      <trkpt lat="42.4689001031219959259033203125" lon="-8.65048340521752834320068359375">
        <ele>4.599999904632568359375</ele>
        <time>2022-11-01T10:18:46.000Z</time>
      </trkpt>
      <trkpt lat="42.46892072260379791259765625" lon="-8.6504568345844745635986328125">
        <ele>4.599999904632568359375</ele>
        <time>2022-11-01T10:18:47.000Z</time>
      </trkpt>
      <trkpt lat="42.46893254108726978302001953125" lon="-8.65042992867529392242431640625">
        <ele>4.80000019073486328125</ele>
        <time>2022-11-01T10:18:48.000Z</time>
      </trkpt>
      <trkpt lat="42.46893907897174358367919921875" lon="-8.6504105664789676666259765625">
        <ele>4.80000019073486328125</ele>
        <time>2022-11-01T10:18:49.000Z</time>
      </trkpt>
      <trkpt lat="42.46894142590463161468505859375" lon="-8.65040394477546215057373046875">
        <ele>5.19999980926513671875</ele>
        <time>2022-11-01T10:18:50.000Z</time>
      </trkpt>
      <trkpt lat="42.46894142590463161468505859375" lon="-8.65040394477546215057373046875">
        <ele>5.19999980926513671875</ele>
        <time>2022-11-01T10:18:51.000Z</time>
      </trkpt>
      <trkpt lat="42.46894142590463161468505859375" lon="-8.65040394477546215057373046875">
        <ele>5.400000095367431640625</ele>
        <time>2022-11-01T10:18:52.000Z</time>
      </trkpt>
      <trkpt lat="42.46896036900579929351806640625" lon="-8.6504648812115192413330078125">
        <ele>5.19999980926513671875</ele>
        <time>2022-11-01T10:21:35.000Z</time>
      </trkpt>
      <trkpt lat="42.468974031507968902587890625" lon="-8.650461696088314056396484375">
        <ele>5.19999980926513671875</ele>
        <time>2022-11-01T10:21:36.000Z</time>
      </trkpt>
      <trkpt lat="42.46898911893367767333984375" lon="-8.6504553258419036865234375">
        <ele>5.19999980926513671875</ele>
        <time>2022-11-01T10:21:37.000Z</time>
      </trkpt>
      <trkpt lat="42.46900948695838451385498046875" lon="-8.65044786594808101654052734375">
        <ele>5.19999980926513671875</ele>
        <time>2022-11-01T10:21:38.000Z</time>
      </trkpt>
      <trkpt lat="42.46903312392532825469970703125" lon="-8.65044250153005123138427734375">
        <ele>5.19999980926513671875</ele>
        <time>2022-11-01T10:21:39.000Z</time>
      </trkpt>
      <trkpt lat="42.4690593592822551727294921875" lon="-8.650437556207180023193359375">
        <ele>5.400000095367431640625</ele>
        <time>2022-11-01T10:21:40.000Z</time>
      </trkpt>
      <trkpt lat="42.469086013734340667724609375" lon="-8.6504286713898181915283203125">
        <ele>5.400000095367431640625</ele>
        <time>2022-11-01T10:21:41.000Z</time>
      </trkpt>
      <trkpt lat="42.4691140092909336090087890625" lon="-8.65041936747729778289794921875">
        <ele>5.400000095367431640625</ele>
        <time>2022-11-01T10:21:42.000Z</time>
      </trkpt>
      <trkpt lat="42.4691451899707317352294921875" lon="-8.6504102312028408050537109375">
        <ele>5.400000095367431640625</ele>
        <time>2022-11-01T10:21:43.000Z</time>
      </trkpt>
      <trkpt lat="42.46917863376438617706298828125" lon="-8.6503991670906543731689453125">
        <ele>5.400000095367431640625</ele>
        <time>2022-11-01T10:21:44.000Z</time>
      </trkpt>
      <trkpt lat="42.4692135863006114959716796875" lon="-8.65038500167429447174072265625">
        <ele>5.400000095367431640625</ele>
        <time>2022-11-01T10:21:45.000Z</time>
      </trkpt>
      <trkpt lat="42.4692539870738983154296875" lon="-8.650369159877300262451171875">
        <ele>5.400000095367431640625</ele>
        <time>2022-11-01T10:21:46.000Z</time>
      </trkpt>
      <trkpt lat="42.4692960642278194427490234375" lon="-8.6503532342612743377685546875">
        <ele>5.80000019073486328125</ele>
        <time>2022-11-01T10:21:47.000Z</time>
      </trkpt>
      <trkpt lat="42.469334788620471954345703125" lon="-8.6503374762833118438720703125">
        <ele>5.80000019073486328125</ele>
        <time>2022-11-01T10:21:48.000Z</time>
      </trkpt>
      <trkpt lat="42.46937259100377559661865234375" lon="-8.65032448433339595794677734375">
        <ele>5.80000019073486328125</ele>
        <time>2022-11-01T10:21:49.000Z</time>
      </trkpt>
      <trkpt lat="42.46941349469125270843505859375" lon="-8.650316186249256134033203125">
        <ele>5.80000019073486328125</ele>
        <time>2022-11-01T10:21:50.000Z</time>
      </trkpt>
      <trkpt lat="42.46945490129292011260986328125" lon="-8.65030520595610141754150390625">
        <ele>5.80000019073486328125</ele>
        <time>2022-11-01T10:21:51.000Z</time>
      </trkpt>
      <trkpt lat="42.469498403370380401611328125" lon="-8.6502902023494243621826171875">
        <ele>5.80000019073486328125</ele>
        <time>2022-11-01T10:21:52.000Z</time>
      </trkpt>
      <trkpt lat="42.4695436656475067138671875" lon="-8.6502754501998424530029296875">
        <ele>5.80000019073486328125</ele>
        <time>2022-11-01T10:21:53.000Z</time>
      </trkpt>
      <trkpt lat="42.4695911072194576263427734375" lon="-8.650262542068958282470703125">
        <ele>5.80000019073486328125</ele>
        <time>2022-11-01T10:21:54.000Z</time>
      </trkpt>
      <trkpt lat="42.46963947080075740814208984375" lon="-8.65024946630001068115234375">
        <ele>5.80000019073486328125</ele>
        <time>2022-11-01T10:21:55.000Z</time>
      </trkpt>
      <trkpt lat="42.469679452478885650634765625" lon="-8.6502380669116973876953125">
        <ele>5.80000019073486328125</ele>
        <time>2022-11-01T10:21:56.000Z</time>
      </trkpt>
      <trkpt lat="42.4697302468121051788330078125" lon="-8.65022222511470317840576171875">
        <ele>6</ele>
        <time>2022-11-01T10:21:57.000Z</time>
      </trkpt>
      <trkpt lat="42.469792105257511138916015625" lon="-8.6502030305564403533935546875">
        <ele>6.400000095367431640625</ele>
        <time>2022-11-01T10:21:58.000Z</time>
      </trkpt>
      <trkpt lat="42.46984474360942840576171875" lon="-8.65018484182655811309814453125">
        <ele>6.400000095367431640625</ele>
        <time>2022-11-01T10:21:59.000Z</time>
      </trkpt>
      <trkpt lat="42.46989662759006023406982421875" lon="-8.65016455762088298797607421875">
        <ele>6.80000019073486328125</ele>
        <time>2022-11-01T10:22:00.000Z</time>
      </trkpt>
      <trkpt lat="42.46993862092494964599609375" lon="-8.65014796145260334014892578125">
        <ele>7</ele>
        <time>2022-11-01T10:22:01.000Z</time>
      </trkpt>
      <trkpt lat="42.47000073082745075225830078125" lon="-8.650121726095676422119140625">
        <ele>7</ele>
        <time>2022-11-01T10:22:02.000Z</time>
      </trkpt>
      <trkpt lat="42.47005186043679714202880859375" lon="-8.65009658038616180419921875">
        <ele>7</ele>
        <time>2022-11-01T10:22:03.000Z</time>
      </trkpt>
      <trkpt lat="42.4701024033129215240478515625" lon="-8.65006783045828342437744140625">
        <ele>7.19999980926513671875</ele>
        <time>2022-11-01T10:22:04.000Z</time>
      </trkpt>
      <trkpt lat="42.47015194036066532135009765625" lon="-8.65003547631204128265380859375">
        <ele>7.19999980926513671875</ele>
        <time>2022-11-01T10:22:05.000Z</time>
      </trkpt>
      <trkpt lat="42.47020281851291656494140625" lon="-8.6500032059848308563232421875">
        <ele>7.400000095367431640625</ele>
        <time>2022-11-01T10:22:06.000Z</time>
      </trkpt>
      <trkpt lat="42.4702571332454681396484375" lon="-8.64997965283691883087158203125">
        <ele>7.400000095367431640625</ele>
        <time>2022-11-01T10:22:07.000Z</time>
      </trkpt>
      <trkpt lat="42.47031421400606632232666015625" lon="-8.64997227676212787628173828125">
        <ele>7.599999904632568359375</ele>
        <time>2022-11-01T10:22:08.000Z</time>
      </trkpt>
      <trkpt lat="42.4703702889382839202880859375" lon="-8.64998417906463146209716796875">
        <ele>7.80000019073486328125</ele>
        <time>2022-11-01T10:22:09.000Z</time>
      </trkpt>
      <trkpt lat="42.47042451985180377960205078125" lon="-8.65000597201287746429443359375">
        <ele>7.80000019073486328125</ele>
        <time>2022-11-01T10:22:10.000Z</time>
      </trkpt>
      <trkpt lat="42.4704805947840213775634765625" lon="-8.65002642385661602020263671875">
        <ele>7.80000019073486328125</ele>
        <time>2022-11-01T10:22:11.000Z</time>
      </trkpt>
      <trkpt lat="42.4705374240875244140625" lon="-8.65004151128232479095458984375">
        <ele>8</ele>
        <time>2022-11-01T10:22:12.000Z</time>
      </trkpt>
      <trkpt lat="42.47059433721005916595458984375" lon="-8.6500481329858303070068359375">
        <ele>8.19999980926513671875</ele>
        <time>2022-11-01T10:22:13.000Z</time>
      </trkpt>
      <trkpt lat="42.47064982540905475616455078125" lon="-8.650051653385162353515625">
        <ele>8.19999980926513671875</ele>
        <time>2022-11-01T10:22:14.000Z</time>
      </trkpt>
      <trkpt lat="42.47070648707449436187744140625" lon="-8.6500583589076995849609375">
        <ele>8.3999996185302734375</ele>
        <time>2022-11-01T10:22:15.000Z</time>
      </trkpt>
      <trkpt lat="42.4707642383873462677001953125" lon="-8.65006648935377597808837890625">
        <ele>8.3999996185302734375</ele>
        <time>2022-11-01T10:22:16.000Z</time>
      </trkpt>
      <trkpt lat="42.4708225764334201812744140625" lon="-8.65007654763758182525634765625">
        <ele>8.6000003814697265625</ele>
        <time>2022-11-01T10:22:17.000Z</time>
      </trkpt>
      <trkpt lat="42.47087932191789150238037109375" lon="-8.65008962340652942657470703125">
        <ele>8.80000019073486328125</ele>
        <time>2022-11-01T10:22:18.000Z</time>
      </trkpt>
      <trkpt lat="42.4709352292120456695556640625" lon="-8.65010303445160388946533203125">
        <ele>9</ele>
        <time>2022-11-01T10:22:19.000Z</time>
      </trkpt>
      <trkpt lat="42.4709794856607913970947265625" lon="-8.650113679468631744384765625">
        <ele>9.19999980926513671875</ele>
        <time>2022-11-01T10:22:20.000Z</time>
      </trkpt>
      <trkpt lat="42.4710451997816562652587890625" lon="-8.650131784379482269287109375">
        <ele>9.6000003814697265625</ele>
        <time>2022-11-01T10:22:21.000Z</time>
      </trkpt>
      <trkpt lat="42.47109658084809780120849609375" lon="-8.65014997310936450958251953125">
        <ele>9.80000019073486328125</ele>
        <time>2022-11-01T10:22:22.000Z</time>
      </trkpt>
      <trkpt lat="42.47114829719066619873046875" lon="-8.65016841329634189605712890625">
        <ele>9.80000019073486328125</ele>
        <time>2022-11-01T10:22:23.000Z</time>
      </trkpt>
      <trkpt lat="42.471198923885822296142578125" lon="-8.65018651820719242095947265625">
        <ele>10</ele>
        <time>2022-11-01T10:22:24.000Z</time>
      </trkpt>
      <trkpt lat="42.47124544344842433929443359375" lon="-8.65020596422255039215087890625">
        <ele>10.19999980926513671875</ele>
        <time>2022-11-01T10:22:25.000Z</time>
      </trkpt>
      <trkpt lat="42.471288107335567474365234375" lon="-8.65022406913340091705322265625">
        <ele>10.6000003814697265625</ele>
        <time>2022-11-01T10:22:26.000Z</time>
      </trkpt>
      <trkpt lat="42.47132993303239345550537109375" lon="-8.6502405814826488494873046875">
        <ele>10.80000019073486328125</ele>
        <time>2022-11-01T10:22:27.000Z</time>
      </trkpt>
      <trkpt lat="42.47136899270117282867431640625" lon="-8.6502586863934993743896484375">
        <ele>10.80000019073486328125</ele>
        <time>2022-11-01T10:22:28.000Z</time>
      </trkpt>
      <trkpt lat="42.47140453197062015533447265625" lon="-8.650277964770793914794921875">
        <ele>11</ele>
        <time>2022-11-01T10:22:29.000Z</time>
      </trkpt>
      <trkpt lat="42.47143923304975032806396484375" lon="-8.6502952314913272857666015625">
        <ele>11.19999980926513671875</ele>
        <time>2022-11-01T10:22:30.000Z</time>
      </trkpt>
      <trkpt lat="42.47147628106176853179931640625" lon="-8.65031409077346324920654296875">
        <ele>11.6000003814697265625</ele>
        <time>2022-11-01T10:22:31.000Z</time>
      </trkpt>
      <trkpt lat="42.4715149216353893280029296875" lon="-8.65033588372170925140380859375">
        <ele>11.6000003814697265625</ele>
        <time>2022-11-01T10:22:32.000Z</time>
      </trkpt>
      <trkpt lat="42.47155389748513698577880859375" lon="-8.65036077797412872314453125">
        <ele>12</ele>
        <time>2022-11-01T10:22:33.000Z</time>
      </trkpt>
      <trkpt lat="42.47159463353455066680908203125" lon="-8.65038416348397731781005859375">
        <ele>12.19999980926513671875</ele>
        <time>2022-11-01T10:22:34.000Z</time>
      </trkpt>
      <trkpt lat="42.47163453139364719390869140625" lon="-8.65041081793606281280517578125">
        <ele>12.3999996185302734375</ele>
        <time>2022-11-01T10:22:35.000Z</time>
      </trkpt>
      <trkpt lat="42.471675015985965728759765625" lon="-8.65043856203556060791015625">
        <ele>12.80000019073486328125</ele>
        <time>2022-11-01T10:22:36.000Z</time>
      </trkpt>
      <trkpt lat="42.47171365655958652496337890625" lon="-8.65046664141118526458740234375">
        <ele>13.19999980926513671875</ele>
        <time>2022-11-01T10:22:37.000Z</time>
      </trkpt>
      <trkpt lat="42.47175003401935100555419921875" lon="-8.6504928767681121826171875">
        <ele>13.6000003814697265625</ele>
        <time>2022-11-01T10:22:38.000Z</time>
      </trkpt>
      <trkpt lat="42.4717885069549083709716796875" lon="-8.65052028559148311614990234375">
        <ele>13.80000019073486328125</ele>
        <time>2022-11-01T10:22:39.000Z</time>
      </trkpt>
      <trkpt lat="42.4718273989856243133544921875" lon="-8.650547526776790618896484375">
        <ele>14</ele>
        <time>2022-11-01T10:22:40.000Z</time>
      </trkpt>
      <trkpt lat="42.47186570428311824798583984375" lon="-8.65057342685759067535400390625">
        <ele>14</ele>
        <time>2022-11-01T10:22:41.000Z</time>
      </trkpt>
      <trkpt lat="42.4719045124948024749755859375" lon="-8.6506010033190250396728515625">
        <ele>14.19999980926513671875</ele>
        <time>2022-11-01T10:22:42.000Z</time>
      </trkpt>
      <trkpt lat="42.47194382362067699432373046875" lon="-8.6506284959614276885986328125">
        <ele>14.19999980926513671875</ele>
        <time>2022-11-01T10:22:43.000Z</time>
      </trkpt>
      <trkpt lat="42.47198187746107578277587890625" lon="-8.65065741352736949920654296875">
        <ele>14.3999996185302734375</ele>
        <time>2022-11-01T10:22:44.000Z</time>
      </trkpt>
      <trkpt lat="42.4720211885869503021240234375" lon="-8.650686331093311309814453125">
        <ele>14.3999996185302734375</ele>
        <time>2022-11-01T10:22:45.000Z</time>
      </trkpt>
      <trkpt lat="42.47205932624638080596923828125" lon="-8.6507149972021579742431640625">
        <ele>14.6000003814697265625</ele>
        <time>2022-11-01T10:22:46.000Z</time>
      </trkpt>
      <trkpt lat="42.47209754772484302520751953125" lon="-8.65074257366359233856201171875">
        <ele>14.6000003814697265625</ele>
        <time>2022-11-01T10:22:47.000Z</time>
      </trkpt>
      <trkpt lat="42.47213610447943210601806640625" lon="-8.650769479572772979736328125">
        <ele>14.6000003814697265625</ele>
        <time>2022-11-01T10:22:48.000Z</time>
      </trkpt>
      <trkpt lat="42.4721764214336872100830078125" lon="-8.65079856477677822113037109375">
        <ele>14.80000019073486328125</ele>
        <time>2022-11-01T10:22:49.000Z</time>
      </trkpt>
      <trkpt lat="42.4722166545689105987548828125" lon="-8.6508286558091640472412109375">
        <ele>14.80000019073486328125</ele>
        <time>2022-11-01T10:22:50.000Z</time>
      </trkpt>
      <trkpt lat="42.4722572229802608489990234375" lon="-8.65085740573704242706298828125">
        <ele>15.19999980926513671875</ele>
        <time>2022-11-01T10:22:51.000Z</time>
      </trkpt>
      <trkpt lat="42.47229871340095996856689453125" lon="-8.65088590420782566070556640625">
        <ele>15.19999980926513671875</ele>
        <time>2022-11-01T10:22:52.000Z</time>
      </trkpt>
      <trkpt lat="42.47233978472650051116943359375" lon="-8.65091473795473575592041015625">
        <ele>15.6000003814697265625</ele>
        <time>2022-11-01T10:22:53.000Z</time>
      </trkpt>
      <trkpt lat="42.47238253243267536163330078125" lon="-8.6509436555206775665283203125">
        <ele>15.80000019073486328125</ele>
        <time>2022-11-01T10:22:54.000Z</time>
      </trkpt>
      <trkpt lat="42.47242678888142108917236328125" lon="-8.65097357891499996185302734375">
        <ele>16</ele>
        <time>2022-11-01T10:22:55.000Z</time>
      </trkpt>
      <trkpt lat="42.472471296787261962890625" lon="-8.6510019935667514801025390625">
        <ele>16.200000762939453125</ele>
        <time>2022-11-01T10:22:56.000Z</time>
      </trkpt>
      <trkpt lat="42.4725167267024517059326171875" lon="-8.6510291509330272674560546875">
        <ele>16.200000762939453125</ele>
        <time>2022-11-01T10:22:57.000Z</time>
      </trkpt>
      <trkpt lat="42.47255754657089710235595703125" lon="-8.65105454809963703155517578125">
        <ele>16.6000003814697265625</ele>
        <time>2022-11-01T10:22:58.000Z</time>
      </trkpt>
      <trkpt lat="42.47259928844869136810302734375" lon="-8.6510784365236759185791015625">
        <ele>16.6000003814697265625</ele>
        <time>2022-11-01T10:22:59.000Z</time>
      </trkpt>
      <trkpt lat="42.4726411141455173492431640625" lon="-8.65110299549996852874755859375">
        <ele>16.799999237060546875</ele>
        <time>2022-11-01T10:23:00.000Z</time>
      </trkpt>
      <trkpt lat="42.47268377803266048431396484375" lon="-8.65112545900046825408935546875">
        <ele>17</ele>
        <time>2022-11-01T10:23:01.000Z</time>
      </trkpt>
      <trkpt lat="42.4727279506623744964599609375" lon="-8.651145994663238525390625">
        <ele>17.3999996185302734375</ele>
        <time>2022-11-01T10:23:02.000Z</time>
      </trkpt>
      <trkpt lat="42.4727718718349933624267578125" lon="-8.6511662788689136505126953125">
        <ele>17.3999996185302734375</ele>
        <time>2022-11-01T10:23:03.000Z</time>
      </trkpt>
      <trkpt lat="42.47281604446470737457275390625" lon="-8.65118580870330333709716796875">
        <ele>17.6000003814697265625</ele>
        <time>2022-11-01T10:23:04.000Z</time>
      </trkpt>
      <trkpt lat="42.47286164201796054840087890625" lon="-8.65120542235672473907470703125">
        <ele>17.799999237060546875</ele>
        <time>2022-11-01T10:23:05.000Z</time>
      </trkpt>
      <trkpt lat="42.4729053117334842681884765625" lon="-8.65122335962951183319091796875">
        <ele>17.799999237060546875</ele>
        <time>2022-11-01T10:23:06.000Z</time>
      </trkpt>
      <trkpt lat="42.472952418029308319091796875" lon="-8.65124213509261608123779296875">
        <ele>18</ele>
        <time>2022-11-01T10:23:07.000Z</time>
      </trkpt>
      <trkpt lat="42.4729995243251323699951171875" lon="-8.65126024000346660614013671875">
        <ele>18</ele>
        <time>2022-11-01T10:23:08.000Z</time>
      </trkpt>
      <trkpt lat="42.47304637916386127471923828125" lon="-8.65127666853368282318115234375">
        <ele>18.200000762939453125</ele>
        <time>2022-11-01T10:23:09.000Z</time>
      </trkpt>
      <trkpt lat="42.473092563450336456298828125" lon="-8.65128907375037670135498046875">
        <ele>18.200000762939453125</ele>
        <time>2022-11-01T10:23:10.000Z</time>
      </trkpt>
      <trkpt lat="42.47313874773681163787841796875" lon="-8.651299215853214263916015625">
        <ele>18.200000762939453125</ele>
        <time>2022-11-01T10:23:11.000Z</time>
      </trkpt>
      <trkpt lat="42.47318468056619167327880859375" lon="-8.6513070948421955108642578125">
        <ele>18.3999996185302734375</ele>
        <time>2022-11-01T10:23:12.000Z</time>
      </trkpt>
      <trkpt lat="42.4732301943004131317138671875" lon="-8.65131120197474956512451171875">
        <ele>18.6000003814697265625</ele>
        <time>2022-11-01T10:23:13.000Z</time>
      </trkpt>
      <trkpt lat="42.47327386401593685150146484375" lon="-8.65131430327892303466796875">
        <ele>18.6000003814697265625</ele>
        <time>2022-11-01T10:23:14.000Z</time>
      </trkpt>
      <trkpt lat="42.4733193777501583099365234375" lon="-8.651317320764064788818359375">
        <ele>19</ele>
        <time>2022-11-01T10:23:15.000Z</time>
      </trkpt>
      <trkpt lat="42.4733669869601726531982421875" lon="-8.65131958387792110443115234375">
        <ele>19.3999996185302734375</ele>
        <time>2022-11-01T10:23:16.000Z</time>
      </trkpt>
      <trkpt lat="42.4734139256179332733154296875" lon="-8.65132092498242855072021484375">
        <ele>19.3999996185302734375</ele>
        <time>2022-11-01T10:23:17.000Z</time>
      </trkpt>
      <trkpt lat="42.47346078045666217803955078125" lon="-8.651322014629840850830078125">
        <ele>19.6000003814697265625</ele>
        <time>2022-11-01T10:23:18.000Z</time>
      </trkpt>
      <trkpt lat="42.47350604273378849029541015625" lon="-8.651323355734348297119140625">
        <ele>19.799999237060546875</ele>
        <time>2022-11-01T10:23:19.000Z</time>
      </trkpt>
      <trkpt lat="42.47355180792510509490966796875" lon="-8.65132276900112628936767578125">
        <ele>20</ele>
        <time>2022-11-01T10:23:20.000Z</time>
      </trkpt>
      <trkpt lat="42.4735991656780242919921875" lon="-8.6513216793537139892578125">
        <ele>20</ele>
        <time>2022-11-01T10:23:21.000Z</time>
      </trkpt>
      <trkpt lat="42.47364652343094348907470703125" lon="-8.65132109262049198150634765625">
        <ele>20.200000762939453125</ele>
        <time>2022-11-01T10:23:22.000Z</time>
      </trkpt>
      <trkpt lat="42.47369371354579925537109375" lon="-8.65131941623985767364501953125">
        <ele>20.3999996185302734375</ele>
        <time>2022-11-01T10:23:23.000Z</time>
      </trkpt>
      <trkpt lat="42.47374065220355987548828125" lon="-8.65131472237408161163330078125">
        <ele>20.6000003814697265625</ele>
        <time>2022-11-01T10:23:24.000Z</time>
      </trkpt>
      <trkpt lat="42.47378767468035221099853515625" lon="-8.6513074301183223724365234375">
        <ele>21</ele>
        <time>2022-11-01T10:23:25.000Z</time>
      </trkpt>
      <trkpt lat="42.47383494861423969268798828125" lon="-8.65129879675805568695068359375">
        <ele>21</ele>
        <time>2022-11-01T10:23:26.000Z</time>
      </trkpt>
      <trkpt lat="42.473881803452968597412109375" lon="-8.6512883193790912628173828125">
        <ele>21.3999996185302734375</ele>
        <time>2022-11-01T10:23:27.000Z</time>
      </trkpt>
      <trkpt lat="42.47392782010138034820556640625" lon="-8.6512785963714122772216796875">
        <ele>21.6000003814697265625</ele>
        <time>2022-11-01T10:23:28.000Z</time>
      </trkpt>
      <trkpt lat="42.47397392056882381439208984375" lon="-8.65127004683017730712890625">
        <ele>22</ele>
        <time>2022-11-01T10:23:29.000Z</time>
      </trkpt>
      <trkpt lat="42.47401960194110870361328125" lon="-8.65126091055572032928466796875">
        <ele>22</ele>
        <time>2022-11-01T10:23:30.000Z</time>
      </trkpt>
      <trkpt lat="42.4740663729608058929443359375" lon="-8.65125529468059539794921875">
        <ele>22.200000762939453125</ele>
        <time>2022-11-01T10:23:31.000Z</time>
      </trkpt>
      <trkpt lat="42.4741133116185665130615234375" lon="-8.6512517742812633514404296875">
        <ele>22.3999996185302734375</ele>
        <time>2022-11-01T10:23:32.000Z</time>
      </trkpt>
      <trkpt lat="42.474159412086009979248046875" lon="-8.65124615840613842010498046875">
        <ele>22.799999237060546875</ele>
        <time>2022-11-01T10:23:33.000Z</time>
      </trkpt>
      <trkpt lat="42.47420626692473888397216796875" lon="-8.65123962052166461944580078125">
        <ele>23.200000762939453125</ele>
        <time>2022-11-01T10:23:34.000Z</time>
      </trkpt>
      <trkpt lat="42.47425295412540435791015625" lon="-8.651233501732349395751953125">
        <ele>23.200000762939453125</ele>
        <time>2022-11-01T10:23:35.000Z</time>
      </trkpt>
      <trkpt lat="42.4742997251451015472412109375" lon="-8.6512289755046367645263671875">
        <ele>23.3999996185302734375</ele>
        <time>2022-11-01T10:23:36.000Z</time>
      </trkpt>
      <trkpt lat="42.47434674762189388275146484375" lon="-8.65122503601014614105224609375">
        <ele>23.6000003814697265625</ele>
        <time>2022-11-01T10:23:37.000Z</time>
      </trkpt>
      <trkpt lat="42.47439318336546421051025390625" lon="-8.65122134797275066375732421875">
        <ele>23.799999237060546875</ele>
        <time>2022-11-01T10:23:38.000Z</time>
      </trkpt>
      <trkpt lat="42.4744402058422565460205078125" lon="-8.65121665410697460174560546875">
        <ele>23.799999237060546875</ele>
        <time>2022-11-01T10:23:39.000Z</time>
      </trkpt>
      <trkpt lat="42.474488653242588043212890625" lon="-8.6512135528028011322021484375">
        <ele>24.200000762939453125</ele>
        <time>2022-11-01T10:23:40.000Z</time>
      </trkpt>
      <trkpt lat="42.47453668154776096343994140625" lon="-8.651211373507976531982421875">
        <ele>24.3999996185302734375</ele>
        <time>2022-11-01T10:23:41.000Z</time>
      </trkpt>
      <trkpt lat="42.47458378784358501434326171875" lon="-8.65120911039412021636962890625">
        <ele>24.6000003814697265625</ele>
        <time>2022-11-01T10:23:42.000Z</time>
      </trkpt>
      <trkpt lat="42.47463047504425048828125" lon="-8.6512075178325176239013671875">
        <ele>24.799999237060546875</ele>
        <time>2022-11-01T10:23:43.000Z</time>
      </trkpt>
      <trkpt lat="42.47467766515910625457763671875" lon="-8.6512065120041370391845703125">
        <ele>24.799999237060546875</ele>
        <time>2022-11-01T10:23:44.000Z</time>
      </trkpt>
      <trkpt lat="42.474726028740406036376953125" lon="-8.6512058414518833160400390625">
        <ele>25</ele>
        <time>2022-11-01T10:23:45.000Z</time>
      </trkpt>
      <trkpt lat="42.47477523051202297210693359375" lon="-8.65120701491832733154296875">
        <ele>25.200000762939453125</ele>
        <time>2022-11-01T10:23:46.000Z</time>
      </trkpt>
      <trkpt lat="42.47482451610267162322998046875" lon="-8.65121078677475452423095703125">
        <ele>25.6000003814697265625</ele>
        <time>2022-11-01T10:23:47.000Z</time>
      </trkpt>
      <trkpt lat="42.47487296350300312042236328125" lon="-8.65121346898376941680908203125">
        <ele>25.6000003814697265625</ele>
        <time>2022-11-01T10:23:48.000Z</time>
      </trkpt>
      <trkpt lat="42.47492241673171520233154296875" lon="-8.651219420135021209716796875">
        <ele>25.799999237060546875</ele>
        <time>2022-11-01T10:23:49.000Z</time>
      </trkpt>
      <trkpt lat="42.4749719537794589996337890625" lon="-8.6512259580194950103759765625">
        <ele>25.799999237060546875</ele>
        <time>2022-11-01T10:23:50.000Z</time>
      </trkpt>
      <trkpt lat="42.47502082027494907379150390625" lon="-8.651232831180095672607421875">
        <ele>26</ele>
        <time>2022-11-01T10:23:51.000Z</time>
      </trkpt>
      <trkpt lat="42.4750698544085025787353515625" lon="-8.65124213509261608123779296875">
        <ele>26</ele>
        <time>2022-11-01T10:23:52.000Z</time>
      </trkpt>
      <trkpt lat="42.47511955909430980682373046875" lon="-8.65125127136707305908203125">
        <ele>26.3999996185302734375</ele>
        <time>2022-11-01T10:23:53.000Z</time>
      </trkpt>
      <trkpt lat="42.4751707725226879119873046875" lon="-8.65126057527959346771240234375">
        <ele>26.6000003814697265625</ele>
        <time>2022-11-01T10:23:54.000Z</time>
      </trkpt>
      <trkpt lat="42.47522165067493915557861328125" lon="-8.65126996301114559173583984375">
        <ele>26.6000003814697265625</ele>
        <time>2022-11-01T10:23:55.000Z</time>
      </trkpt>
      <trkpt lat="42.47527261264622211456298828125" lon="-8.6512812785804271697998046875">
        <ele>27</ele>
        <time>2022-11-01T10:23:56.000Z</time>
      </trkpt>
      <trkpt lat="42.47532290406525135040283203125" lon="-8.65129309706389904022216796875">
        <ele>27</ele>
        <time>2022-11-01T10:23:57.000Z</time>
      </trkpt>
      <trkpt lat="42.47537302784621715545654296875" lon="-8.65130566991865634918212890625">
        <ele>27.200000762939453125</ele>
        <time>2022-11-01T10:23:58.000Z</time>
      </trkpt>
      <trkpt lat="42.4754229001700878143310546875" lon="-8.65131773985922336578369140625">
        <ele>27.3999996185302734375</ele>
        <time>2022-11-01T10:23:59.000Z</time>
      </trkpt>
      <trkpt lat="42.47547243721783161163330078125" lon="-8.6513332463800907135009765625">
        <ele>27.6000003814697265625</ele>
        <time>2022-11-01T10:24:00.000Z</time>
      </trkpt>
      <trkpt lat="42.475522644817829132080078125" lon="-8.65134942345321178436279296875">
        <ele>27.6000003814697265625</ele>
        <time>2022-11-01T10:24:01.000Z</time>
      </trkpt>
      <trkpt lat="42.47557260096073150634765625" lon="-8.65136635489761829376220703125">
        <ele>27.799999237060546875</ele>
        <time>2022-11-01T10:24:02.000Z</time>
      </trkpt>
      <trkpt lat="42.475621886551380157470703125" lon="-8.6513848789036273956298828125">
        <ele>27.799999237060546875</ele>
        <time>2022-11-01T10:24:03.000Z</time>
      </trkpt>
      <trkpt lat="42.475672177970409393310546875" lon="-8.6514033190906047821044921875">
        <ele>27.799999237060546875</ele>
        <time>2022-11-01T10:24:04.000Z</time>
      </trkpt>
      <trkpt lat="42.47572205029428005218505859375" lon="-8.651423938572406768798828125">
        <ele>28</ele>
        <time>2022-11-01T10:24:05.000Z</time>
      </trkpt>
      <trkpt lat="42.4757709167897701263427734375" lon="-8.651446402072906494140625">
        <ele>28</ele>
        <time>2022-11-01T10:24:06.000Z</time>
      </trkpt>
      <trkpt lat="42.4758202023804187774658203125" lon="-8.65146878175437450408935546875">
        <ele>28.200000762939453125</ele>
        <time>2022-11-01T10:24:07.000Z</time>
      </trkpt>
      <trkpt lat="42.4758701585233211517333984375" lon="-8.6514908261597156524658203125">
        <ele>28.3999996185302734375</ele>
        <time>2022-11-01T10:24:08.000Z</time>
      </trkpt>
      <trkpt lat="42.4759201146662235260009765625" lon="-8.65151236765086650848388671875">
        <ele>28.6000003814697265625</ele>
        <time>2022-11-01T10:24:09.000Z</time>
      </trkpt>
      <trkpt lat="42.4759697355329990386962890625" lon="-8.65153633989393711090087890625">
        <ele>28.6000003814697265625</ele>
        <time>2022-11-01T10:24:11.000Z</time>
      </trkpt>
      <trkpt lat="42.47601910494267940521240234375" lon="-8.65155972540378570556640625">
        <ele>28.6000003814697265625</ele>
        <time>2022-11-01T10:24:12.000Z</time>
      </trkpt>
      <trkpt lat="42.47606872580945491790771484375" lon="-8.65158562548458576202392578125">
        <ele>28.799999237060546875</ele>
        <time>2022-11-01T10:24:13.000Z</time>
      </trkpt>
      <trkpt lat="42.47611868195235729217529296875" lon="-8.6516101844608783721923828125">
        <ele>28.799999237060546875</ele>
        <time>2022-11-01T10:24:14.000Z</time>
      </trkpt>
      <trkpt lat="42.47616796754300594329833984375" lon="-8.651631139218807220458984375">
        <ele>29.200000762939453125</ele>
        <time>2022-11-01T10:24:15.000Z</time>
      </trkpt>
      <trkpt lat="42.47621633112430572509765625" lon="-8.65165133960545063018798828125">
        <ele>29.200000762939453125</ele>
        <time>2022-11-01T10:24:16.000Z</time>
      </trkpt>
      <trkpt lat="42.476264275610446929931640625" lon="-8.65167397074401378631591796875">
        <ele>29.3999996185302734375</ele>
        <time>2022-11-01T10:24:17.000Z</time>
      </trkpt>
      <trkpt lat="42.4763120524585247039794921875" lon="-8.65169710479676723480224609375">
        <ele>29.6000003814697265625</ele>
        <time>2022-11-01T10:24:18.000Z</time>
      </trkpt>
      <trkpt lat="42.47636192478239536285400390625" lon="-8.65171990357339382171630859375">
        <ele>29.799999237060546875</ele>
        <time>2022-11-01T10:24:19.000Z</time>
      </trkpt>
      <trkpt lat="42.47641271911561489105224609375" lon="-8.65174479782581329345703125">
        <ele>30</ele>
        <time>2022-11-01T10:24:20.000Z</time>
      </trkpt>
      <trkpt lat="42.47646284289658069610595703125" lon="-8.65176868624985218048095703125">
        <ele>30</ele>
        <time>2022-11-01T10:24:21.000Z</time>
      </trkpt>
      <trkpt lat="42.47651246376335620880126953125" lon="-8.65178947336971759796142578125">
        <ele>30.200000762939453125</ele>
        <time>2022-11-01T10:24:22.000Z</time>
      </trkpt>
      <trkpt lat="42.476562000811100006103515625" lon="-8.65180992521345615386962890625">
        <ele>30.3999996185302734375</ele>
        <time>2022-11-01T10:24:23.000Z</time>
      </trkpt>
      <trkpt lat="42.47660717926919460296630859375" lon="-8.65183037705719470977783203125">
        <ele>30.6000003814697265625</ele>
        <time>2022-11-01T10:24:24.000Z</time>
      </trkpt>
      <trkpt lat="42.476652525365352630615234375" lon="-8.65185200236737728118896484375">
        <ele>30.799999237060546875</ele>
        <time>2022-11-01T10:24:25.000Z</time>
      </trkpt>
      <trkpt lat="42.47669720090925693511962890625" lon="-8.65187413059175014495849609375">
        <ele>30.799999237060546875</ele>
        <time>2022-11-01T10:24:26.000Z</time>
      </trkpt>
      <trkpt lat="42.47674070298671722412109375" lon="-8.651893995702266693115234375">
        <ele>30.799999237060546875</ele>
        <time>2022-11-01T10:24:27.000Z</time>
      </trkpt>
      <trkpt lat="42.47678688727319240570068359375" lon="-8.65191671065986156463623046875">
        <ele>31.200000762939453125</ele>
        <time>2022-11-01T10:24:28.000Z</time>
      </trkpt>
      <trkpt lat="42.47683416120707988739013671875" lon="-8.6519437842071056365966796875">
        <ele>31.3999996185302734375</ele>
        <time>2022-11-01T10:24:29.000Z</time>
      </trkpt>
      <trkpt lat="42.47688059695065021514892578125" lon="-8.65197169594466686248779296875">
        <ele>31.6000003814697265625</ele>
        <time>2022-11-01T10:24:30.000Z</time>
      </trkpt>
      <trkpt lat="42.47692711651325225830078125" lon="-8.651998937129974365234375">
        <ele>31.6000003814697265625</ele>
        <time>2022-11-01T10:24:31.000Z</time>
      </trkpt>
      <trkpt lat="42.47697162441909313201904296875" lon="-8.6520286090672016143798828125">
        <ele>31.6000003814697265625</ele>
        <time>2022-11-01T10:24:32.000Z</time>
      </trkpt>
      <trkpt lat="42.4770164676010608673095703125" lon="-8.65205920301377773284912109375">
        <ele>31.799999237060546875</ele>
        <time>2022-11-01T10:24:33.000Z</time>
      </trkpt>
      <trkpt lat="42.47706248424947261810302734375" lon="-8.65208946168422698974609375">
        <ele>32</ele>
        <time>2022-11-01T10:24:34.000Z</time>
      </trkpt>
      <trkpt lat="42.47710674069821834564208984375" lon="-8.65212139673531055450439453125">
        <ele>32.200000762939453125</ele>
        <time>2022-11-01T10:24:35.000Z</time>
      </trkpt>
      <trkpt lat="42.47714932076632976531982421875" lon="-8.65215676836669445037841796875">
        <ele>32.200000762939453125</ele>
        <time>2022-11-01T10:24:36.000Z</time>
      </trkpt>
      <trkpt lat="42.47719257138669490814208984375" lon="-8.652191050350666046142578125">
        <ele>32.40000152587890625</ele>
        <time>2022-11-01T10:24:37.000Z</time>
      </trkpt>
      <trkpt lat="42.47723481617867946624755859375" lon="-8.6522255837917327880859375">
        <ele>32.59999847412109375</ele>
        <time>2022-11-01T10:24:38.000Z</time>
      </trkpt>
      <trkpt lat="42.477276138961315155029296875" lon="-8.652259446680545806884765625">
        <ele>32.799999237060546875</ele>
        <time>2022-11-01T10:24:39.000Z</time>
      </trkpt>
      <trkpt lat="42.477319054305553436279296875" lon="-8.65229406394064426422119140625">
        <ele>32.799999237060546875</ele>
        <time>2022-11-01T10:24:40.000Z</time>
      </trkpt>
      <trkpt lat="42.4773631431162357330322265625" lon="-8.65233111195266246795654296875">
        <ele>33</ele>
        <time>2022-11-01T10:24:41.000Z</time>
      </trkpt>
      <trkpt lat="42.47740446589887142181396484375" lon="-8.6523689143359661102294921875">
        <ele>33.200000762939453125</ele>
        <time>2022-11-01T10:24:42.000Z</time>
      </trkpt>
      <trkpt lat="42.47744604013860225677490234375" lon="-8.652406968176364898681640625">
        <ele>33.200000762939453125</ele>
        <time>2022-11-01T10:24:43.000Z</time>
      </trkpt>
      <trkpt lat="42.4774871952831745147705078125" lon="-8.6524455249309539794921875">
        <ele>33.59999847412109375</ele>
        <time>2022-11-01T10:24:44.000Z</time>
      </trkpt>
      <trkpt lat="42.47752851806581020355224609375" lon="-8.65248508751392364501953125">
        <ele>33.799999237060546875</ele>
        <time>2022-11-01T10:24:45.000Z</time>
      </trkpt>
      <trkpt lat="42.47757009230554103851318359375" lon="-8.65252389572560787200927734375">
        <ele>34</ele>
        <time>2022-11-01T10:24:46.000Z</time>
      </trkpt>
      <trkpt lat="42.47761107981204986572265625" lon="-8.6525643803179264068603515625">
        <ele>34.200000762939453125</ele>
        <time>2022-11-01T10:24:47.000Z</time>
      </trkpt>
      <trkpt lat="42.47764921747148036956787109375" lon="-8.65260838530957698822021484375">
        <ele>34.200000762939453125</ele>
        <time>2022-11-01T10:24:48.000Z</time>
      </trkpt>
      <trkpt lat="42.47768911533057689666748046875" lon="-8.65265364758670330047607421875">
        <ele>34.40000152587890625</ele>
        <time>2022-11-01T10:24:49.000Z</time>
      </trkpt>
      <trkpt lat="42.47772985137999057769775390625" lon="-8.65269673056900501251220703125">
        <ele>34.59999847412109375</ele>
        <time>2022-11-01T10:24:50.000Z</time>
      </trkpt>
      <trkpt lat="42.47777092270553112030029296875" lon="-8.652736879885196685791015625">
        <ele>34.59999847412109375</ele>
        <time>2022-11-01T10:24:51.000Z</time>
      </trkpt>
      <trkpt lat="42.4778117425739765167236328125" lon="-8.65278013050556182861328125">
        <ele>34.59999847412109375</ele>
        <time>2022-11-01T10:24:52.000Z</time>
      </trkpt>
      <trkpt lat="42.47785155661404132843017578125" lon="-8.6528215371072292327880859375">
        <ele>35</ele>
        <time>2022-11-01T10:24:53.000Z</time>
      </trkpt>
      <trkpt lat="42.47789204120635986328125" lon="-8.652862273156642913818359375">
        <ele>35</ele>
        <time>2022-11-01T10:24:54.000Z</time>
      </trkpt>
      <trkpt lat="42.4779317714273929595947265625" lon="-8.65290217101573944091796875">
        <ele>35.40000152587890625</ele>
        <time>2022-11-01T10:24:55.000Z</time>
      </trkpt>
      <trkpt lat="42.47797183692455291748046875" lon="-8.652942739427089691162109375">
        <ele>35.40000152587890625</ele>
        <time>2022-11-01T10:24:56.000Z</time>
      </trkpt>
      <trkpt lat="42.47801098041236400604248046875" lon="-8.652984313666820526123046875">
        <ele>35.799999237060546875</ele>
        <time>2022-11-01T10:24:57.000Z</time>
      </trkpt>
      <trkpt lat="42.47804920189082622528076171875" lon="-8.65302680991590023040771484375">
        <ele>35.799999237060546875</ele>
        <time>2022-11-01T10:24:58.000Z</time>
      </trkpt>
      <trkpt lat="42.4780886806547641754150390625" lon="-8.65306704305112361907958984375">
        <ele>36.200000762939453125</ele>
        <time>2022-11-01T10:24:59.000Z</time>
      </trkpt>
      <trkpt lat="42.47812950052320957183837890625" lon="-8.6531058512628078460693359375">
        <ele>36.200000762939453125</ele>
        <time>2022-11-01T10:25:00.000Z</time>
      </trkpt>
      <trkpt lat="42.47816923074424266815185546875" lon="-8.65314365364611148834228515625">
        <ele>36.40000152587890625</ele>
        <time>2022-11-01T10:25:01.000Z</time>
      </trkpt>
      <trkpt lat="42.47820829041302204132080078125" lon="-8.65318170748651027679443359375">
        <ele>36.799999237060546875</ele>
        <time>2022-11-01T10:25:02.000Z</time>
      </trkpt>
      <trkpt lat="42.4782452546060085296630859375" lon="-8.65321976132690906524658203125">
        <ele>36.799999237060546875</ele>
        <time>2022-11-01T10:25:03.000Z</time>
      </trkpt>
      <trkpt lat="42.478281296789646148681640625" lon="-8.653255216777324676513671875">
        <ele>37</ele>
        <time>2022-11-01T10:25:04.000Z</time>
      </trkpt>
      <trkpt lat="42.47831524349749088287353515625" lon="-8.65329016931354999542236328125">
        <ele>37.200000762939453125</ele>
        <time>2022-11-01T10:25:05.000Z</time>
      </trkpt>
      <trkpt lat="42.4783481843769550323486328125" lon="-8.653323948383331298828125">
        <ele>37.40000152587890625</ele>
        <time>2022-11-01T10:25:06.000Z</time>
      </trkpt>
      <trkpt lat="42.47838011942803859710693359375" lon="-8.653359152376651763916015625">
        <ele>37.59999847412109375</ele>
        <time>2022-11-01T10:25:07.000Z</time>
      </trkpt>
      <trkpt lat="42.4784128926694393157958984375" lon="-8.6533955298364162445068359375">
        <ele>37.799999237060546875</ele>
        <time>2022-11-01T10:25:08.000Z</time>
      </trkpt>
      <trkpt lat="42.47844499535858631134033203125" lon="-8.65342997945845127105712890625">
        <ele>38.200000762939453125</ele>
        <time>2022-11-01T10:25:09.000Z</time>
      </trkpt>
      <trkpt lat="42.4784781038761138916015625" lon="-8.653464429080486297607421875">
        <ele>38.40000152587890625</ele>
        <time>2022-11-01T10:25:10.000Z</time>
      </trkpt>
      <trkpt lat="42.47850936837494373321533203125" lon="-8.65349896252155303955078125">
        <ele>38.799999237060546875</ele>
        <time>2022-11-01T10:25:11.000Z</time>
      </trkpt>
      <trkpt lat="42.47854239307343959808349609375" lon="-8.65353341214358806610107421875">
        <ele>39</ele>
        <time>2022-11-01T10:25:12.000Z</time>
      </trkpt>
      <trkpt lat="42.47857508249580860137939453125" lon="-8.65356735885143280029296875">
        <ele>39.200000762939453125</ele>
        <time>2022-11-01T10:25:13.000Z</time>
      </trkpt>
      <trkpt lat="42.478608191013336181640625" lon="-8.65360298193991184234619140625">
        <ele>39.40000152587890625</ele>
        <time>2022-11-01T10:25:14.000Z</time>
      </trkpt>
      <trkpt lat="42.47864079661667346954345703125" lon="-8.65363667719066143035888671875">
        <ele>39.799999237060546875</ele>
        <time>2022-11-01T10:25:15.000Z</time>
      </trkpt>
      <trkpt lat="42.47867331840097904205322265625" lon="-8.65366869606077671051025390625">
        <ele>40</ele>
        <time>2022-11-01T10:25:16.000Z</time>
      </trkpt>
      <trkpt lat="42.47870550490915775299072265625" lon="-8.65370138548314571380615234375">
        <ele>40.40000152587890625</ele>
        <time>2022-11-01T10:25:17.000Z</time>
      </trkpt>
      <trkpt lat="42.47873819433152675628662109375" lon="-8.65373407490551471710205078125">
        <ele>40.59999847412109375</ele>
        <time>2022-11-01T10:25:18.000Z</time>
      </trkpt>
      <trkpt lat="42.47877289541065692901611328125" lon="-8.653766848146915435791015625">
        <ele>41.200000762939453125</ele>
        <time>2022-11-01T10:25:19.000Z</time>
      </trkpt>
      <trkpt lat="42.47880843468010425567626953125" lon="-8.653799034655094146728515625">
        <ele>41.40000152587890625</ele>
        <time>2022-11-01T10:25:20.000Z</time>
      </trkpt>
      <trkpt lat="42.47884196229279041290283203125" lon="-8.6538307182490825653076171875">
        <ele>41.799999237060546875</ele>
        <time>2022-11-01T10:25:21.000Z</time>
      </trkpt>
      <trkpt lat="42.478876076638698577880859375" lon="-8.65386064164340496063232421875">
        <ele>42.200000762939453125</ele>
        <time>2022-11-01T10:25:22.000Z</time>
      </trkpt>
      <trkpt lat="42.47890918515622615814208984375" lon="-8.65389031358063220977783203125">
        <ele>42.200000762939453125</ele>
        <time>2022-11-01T10:25:23.000Z</time>
      </trkpt>
      <trkpt lat="42.4789432995021343231201171875" lon="-8.6539188958704471588134765625">
        <ele>42.59999847412109375</ele>
        <time>2022-11-01T10:25:24.000Z</time>
      </trkpt>
      <trkpt lat="42.4789768271148204803466796875" lon="-8.6539475619792938232421875">
        <ele>42.799999237060546875</ele>
        <time>2022-11-01T10:25:25.000Z</time>
      </trkpt>
      <trkpt lat="42.47901027090847492218017578125" lon="-8.6539748869836330413818359375">
        <ele>43.40000152587890625</ele>
        <time>2022-11-01T10:25:26.000Z</time>
      </trkpt>
      <trkpt lat="42.47904463671147823333740234375" lon="-8.65400128997862339019775390625">
        <ele>43.59999847412109375</ele>
        <time>2022-11-01T10:25:27.000Z</time>
      </trkpt>
      <trkpt lat="42.4790794216096401214599609375" lon="-8.6540275253355503082275390625">
        <ele>44</ele>
        <time>2022-11-01T10:25:28.000Z</time>
      </trkpt>
      <trkpt lat="42.47911370359361171722412109375" lon="-8.6540520004928112030029296875">
        <ele>44.200000762939453125</ele>
        <time>2022-11-01T10:25:29.000Z</time>
      </trkpt>
      <trkpt lat="42.4791481532156467437744140625" lon="-8.65407563745975494384765625">
        <ele>44.59999847412109375</ele>
        <time>2022-11-01T10:25:30.000Z</time>
      </trkpt>
      <trkpt lat="42.4791836924850940704345703125" lon="-8.65410086698830127716064453125">
        <ele>44.799999237060546875</ele>
        <time>2022-11-01T10:25:31.000Z</time>
      </trkpt>
      <trkpt lat="42.47922040522098541259765625" lon="-8.6541240848600864410400390625">
        <ele>45</ele>
        <time>2022-11-01T10:25:32.000Z</time>
      </trkpt>
      <trkpt lat="42.479257285594940185546875" lon="-8.65414411760866641998291015625">
        <ele>45.200000762939453125</ele>
        <time>2022-11-01T10:25:33.000Z</time>
      </trkpt>
      <trkpt lat="42.4792960099875926971435546875" lon="-8.65416406653821468353271484375">
        <ele>45.40000152587890625</ele>
        <time>2022-11-01T10:25:34.000Z</time>
      </trkpt>
      <trkpt lat="42.47933431528508663177490234375" lon="-8.65418233908712863922119140625">
        <ele>45.59999847412109375</ele>
        <time>2022-11-01T10:25:35.000Z</time>
      </trkpt>
      <trkpt lat="42.479372955858707427978515625" lon="-8.65420061163604259490966796875">
        <ele>45.799999237060546875</ele>
        <time>2022-11-01T10:25:36.000Z</time>
      </trkpt>
      <trkpt lat="42.47941276989877223968505859375" lon="-8.65421913564205169677734375">
        <ele>46</ele>
        <time>2022-11-01T10:25:37.000Z</time>
      </trkpt>
      <trkpt lat="42.479450404644012451171875" lon="-8.65423548035323619842529296875">
        <ele>46.200000762939453125</ele>
        <time>2022-11-01T10:25:38.000Z</time>
      </trkpt>
      <trkpt lat="42.4794891290366649627685546875" lon="-8.6542518250644207000732421875">
        <ele>46.59999847412109375</ele>
        <time>2022-11-01T10:25:39.000Z</time>
      </trkpt>
      <trkpt lat="42.47952751815319061279296875" lon="-8.654265068471431732177734375">
        <ele>46.59999847412109375</ele>
        <time>2022-11-01T10:25:40.000Z</time>
      </trkpt>
      <trkpt lat="42.479565404355525970458984375" lon="-8.65427554585039615631103515625">
        <ele>47</ele>
        <time>2022-11-01T10:25:41.000Z</time>
      </trkpt>
      <trkpt lat="42.4796061404049396514892578125" lon="-8.65428610704839229583740234375">
        <ele>47.40000152587890625</ele>
        <time>2022-11-01T10:25:42.000Z</time>
      </trkpt>
      <trkpt lat="42.47964628972113132476806640625" lon="-8.6542947404086589813232421875">
        <ele>47.59999847412109375</ele>
        <time>2022-11-01T10:25:43.000Z</time>
      </trkpt>
      <trkpt lat="42.47968652285635471343994140625" lon="-8.65430706180632114410400390625">
        <ele>48</ele>
        <time>2022-11-01T10:25:44.000Z</time>
      </trkpt>
      <trkpt lat="42.4797265045344829559326171875" lon="-8.654316365718841552734375">
        <ele>48.200000762939453125</ele>
        <time>2022-11-01T10:25:45.000Z</time>
      </trkpt>
      <trkpt lat="42.479766570031642913818359375" lon="-8.65432617254555225372314453125">
        <ele>48.40000152587890625</ele>
        <time>2022-11-01T10:25:46.000Z</time>
      </trkpt>
      <trkpt lat="42.47980705462396144866943359375" lon="-8.65433455444872379302978515625">
        <ele>48.59999847412109375</ele>
        <time>2022-11-01T10:25:47.000Z</time>
      </trkpt>
      <trkpt lat="42.47984795831143856048583984375" lon="-8.654342181980609893798828125">
        <ele>49</ele>
        <time>2022-11-01T10:25:48.000Z</time>
      </trkpt>
      <trkpt lat="42.47988961637020111083984375" lon="-8.65434679202735424041748046875">
        <ele>49</ele>
        <time>2022-11-01T10:25:49.000Z</time>
      </trkpt>
      <trkpt lat="42.479930184781551361083984375" lon="-8.6543517373502254486083984375">
        <ele>49.40000152587890625</ele>
        <time>2022-11-01T10:25:50.000Z</time>
      </trkpt>
      <trkpt lat="42.479971088469028472900390625" lon="-8.654356263577938079833984375">
        <ele>49.799999237060546875</ele>
        <time>2022-11-01T10:25:51.000Z</time>
      </trkpt>
      <trkpt lat="42.48001291416585445404052734375" lon="-8.654360286891460418701171875">
        <ele>50.200000762939453125</ele>
        <time>2022-11-01T10:25:52.000Z</time>
      </trkpt>
      <trkpt lat="42.4800557456910610198974609375" lon="-8.65436271764338016510009765625">
        <ele>50.40000152587890625</ele>
        <time>2022-11-01T10:25:53.000Z</time>
      </trkpt>
      <trkpt lat="42.480098493397235870361328125" lon="-8.65436389110982418060302734375">
        <ele>50.40000152587890625</ele>
        <time>2022-11-01T10:25:54.000Z</time>
      </trkpt>
      <trkpt lat="42.4801415763795375823974609375" lon="-8.65436422638595104217529296875">
        <ele>51</ele>
        <time>2022-11-01T10:25:55.000Z</time>
      </trkpt>
      <trkpt lat="42.480182982981204986572265625" lon="-8.6543634720146656036376953125">
        <ele>51</ele>
        <time>2022-11-01T10:25:56.000Z</time>
      </trkpt>
      <trkpt lat="42.48022514395415782928466796875" lon="-8.654363639652729034423828125">
        <ele>51.59999847412109375</ele>
        <time>2022-11-01T10:25:57.000Z</time>
      </trkpt>
      <trkpt lat="42.48026839457452297210693359375" lon="-8.6543628014624118804931640625">
        <ele>51.59999847412109375</ele>
        <time>2022-11-01T10:25:58.000Z</time>
      </trkpt>
      <trkpt lat="42.48031139373779296875" lon="-8.654360957443714141845703125">
        <ele>52</ele>
        <time>2022-11-01T10:25:59.000Z</time>
      </trkpt>
      <trkpt lat="42.48035606928169727325439453125" lon="-8.65436087362468242645263671875">
        <ele>52.200000762939453125</ele>
        <time>2022-11-01T10:26:00.000Z</time>
      </trkpt>
      <trkpt lat="42.48040200211107730865478515625" lon="-8.65436070598661899566650390625">
        <ele>52.200000762939453125</ele>
        <time>2022-11-01T10:26:01.000Z</time>
      </trkpt>
      <trkpt lat="42.48044977895915508270263671875" lon="-8.65435869432985782623291015625">
        <ele>52.59999847412109375</ele>
        <time>2022-11-01T10:26:02.000Z</time>
      </trkpt>
      <trkpt lat="42.480497471988201141357421875" lon="-8.65435970015823841094970703125">
        <ele>52.799999237060546875</ele>
        <time>2022-11-01T10:26:03.000Z</time>
      </trkpt>
      <trkpt lat="42.4805455841124057769775390625" lon="-8.65436053834855556488037109375">
        <ele>53</ele>
        <time>2022-11-01T10:26:04.000Z</time>
      </trkpt>
      <trkpt lat="42.4805921874940395355224609375" lon="-8.65436221472918987274169921875">
        <ele>53.200000762939453125</ele>
        <time>2022-11-01T10:26:05.000Z</time>
      </trkpt>
      <trkpt lat="42.48064021579921245574951171875" lon="-8.6543648131191730499267578125">
        <ele>53.40000152587890625</ele>
        <time>2022-11-01T10:26:06.000Z</time>
      </trkpt>
      <trkpt lat="42.48068816028535366058349609375" lon="-8.65436732769012451171875">
        <ele>53.59999847412109375</ele>
        <time>2022-11-01T10:26:07.000Z</time>
      </trkpt>
      <trkpt lat="42.48073677532374858856201171875" lon="-8.6543698422610759735107421875">
        <ele>53.59999847412109375</ele>
        <time>2022-11-01T10:26:08.000Z</time>
      </trkpt>
      <trkpt lat="42.48078455217182636260986328125" lon="-8.65437143482267856597900390625">
        <ele>53.799999237060546875</ele>
        <time>2022-11-01T10:26:09.000Z</time>
      </trkpt>
      <trkpt lat="42.4808329157531261444091796875" lon="-8.65437394939363002777099609375">
        <ele>53.799999237060546875</ele>
        <time>2022-11-01T10:26:10.000Z</time>
      </trkpt>
      <trkpt lat="42.48088027350604534149169921875" lon="-8.65438065491616725921630859375">
        <ele>54.200000762939453125</ele>
        <time>2022-11-01T10:26:11.000Z</time>
      </trkpt>
      <trkpt lat="42.48092687688767910003662109375" lon="-8.65439104847609996795654296875">
        <ele>54.40000152587890625</ele>
        <time>2022-11-01T10:26:12.000Z</time>
      </trkpt>
      <trkpt lat="42.48097381554543972015380859375" lon="-8.65439892746508121490478515625">
        <ele>54.40000152587890625</ele>
        <time>2022-11-01T10:26:13.000Z</time>
      </trkpt>
      <trkpt lat="42.48101958073675632476806640625" lon="-8.6544070579111576080322265625">
        <ele>54.40000152587890625</ele>
        <time>2022-11-01T10:26:14.000Z</time>
      </trkpt>
      <trkpt lat="42.48106366954743862152099609375" lon="-8.65441435016691684722900390625">
        <ele>54.59999847412109375</ele>
        <time>2022-11-01T10:26:15.000Z</time>
      </trkpt>
      <trkpt lat="42.4811048246920108795166015625" lon="-8.6544130928814411163330078125">
        <ele>54.59999847412109375</ele>
        <time>2022-11-01T10:26:16.000Z</time>
      </trkpt>
      <trkpt lat="42.4811390228569507598876953125" lon="-8.6543990112841129302978515625">
        <ele>54.799999237060546875</ele>
        <time>2022-11-01T10:26:17.000Z</time>
      </trkpt>
    </trkseg>
  </trk>
</gpx>
